<?xml version="1.0" encoding="UTF-8"?>
<gpx creator="Garmin Connect" version="1.1"
  xsi:schemaLocation="http://www.topografix.com/GPX/1/1 http://www.topografix.com/GPX/11.xsd"
  xmlns:ns3="http://www.garmin.com/xmlschemas/TrackPointExtension/v1"
  xmlns="http://www.topografix.com/GPX/1/1"
  xmlns:xsi="http://www.w3.org/2001/XMLSchema-instance" xmlns:ns2="http://www.garmin.com/xmlschemas/GpxExtensions/v3">
  <metadata>
    <link href="connect.garmin.com">
      <text>Garmin Connect</text>
    </link>
    <time>2026-09-01T06:54:03.000Z</time>
  </metadata>
  <trk>
    <name>Blaichach Laufen</name>
    <type>running</type>
    <trkseg>
      <trkpt lat="47.5435597635805606842041015625" lon="10.258153639733791351318359375">
        <ele>732</ele>
        <time>2026-09-01T06:54:03.000Z</time>
        <extensions>
          <ns3:TrackPointExtension>
            <ns3:hr>96</ns3:hr>
            <ns3:cad>0</ns3:cad>
          </ns3:TrackPointExtension>
        </extensions>
      </trkpt>
      <trkpt lat="47.543476112186908721923828125" lon="10.258171074092388153076171875">
        <ele>732</ele>
        <time>2026-09-01T06:54:05.000Z</time>
        <extensions>
          <ns3:TrackPointExtension>
            <ns3:hr>102</ns3:hr>
            <ns3:cad>0</ns3:cad>
          </ns3:TrackPointExtension>
        </extensions>
      </trkpt>
      <trkpt lat="47.54343898035585880279541015625" lon="10.258179120719432830810546875">
        <ele>731.79998779296875</ele>
        <time>2026-09-01T06:54:06.000Z</time>
        <extensions>
          <ns3:TrackPointExtension>
            <ns3:hr>104</ns3:hr>
            <ns3:cad>0</ns3:cad>
          </ns3:TrackPointExtension>
        </extensions>
      </trkpt>
      <trkpt lat="47.543399333953857421875" lon="10.2581735886633396148681640625">
        <ele>731.5999755859375</ele>
        <time>2026-09-01T06:54:07.000Z</time>
        <extensions>
          <ns3:TrackPointExtension>
            <ns3:hr>107</ns3:hr>
            <ns3:cad>88</ns3:cad>
          </ns3:TrackPointExtension>
        </extensions>
      </trkpt>
      <trkpt lat="47.5433599390089511871337890625" lon="10.25817233137786388397216796875">
        <ele>731.5999755859375</ele>
        <time>2026-09-01T06:54:08.000Z</time>
        <extensions>
          <ns3:TrackPointExtension>
            <ns3:hr>110</ns3:hr>
            <ns3:cad>88</ns3:cad>
          </ns3:TrackPointExtension>
        </extensions>
      </trkpt>
      <trkpt lat="47.54332381300628185272216796875" lon="10.258168391883373260498046875">
        <ele>731.5999755859375</ele>
        <time>2026-09-01T06:54:09.000Z</time>
        <extensions>
          <ns3:TrackPointExtension>
            <ns3:hr>113</ns3:hr>
            <ns3:cad>88</ns3:cad>
          </ns3:TrackPointExtension>
        </extensions>
      </trkpt>
      <trkpt lat="47.543245442211627960205078125" lon="10.258153639733791351318359375">
        <ele>731.79998779296875</ele>
        <time>2026-09-01T06:54:11.000Z</time>
        <extensions>
          <ns3:TrackPointExtension>
            <ns3:hr>117</ns3:hr>
            <ns3:cad>90</ns3:cad>
          </ns3:TrackPointExtension>
        </extensions>
      </trkpt>
      <trkpt lat="47.5431721843779087066650390625" lon="10.25813587009906768798828125">
        <ele>731.79998779296875</ele>
        <time>2026-09-01T06:54:13.000Z</time>
        <extensions>
          <ns3:TrackPointExtension>
            <ns3:hr>120</ns3:hr>
            <ns3:cad>89</ns3:cad>
          </ns3:TrackPointExtension>
        </extensions>
      </trkpt>
      <trkpt lat="47.5430947355926036834716796875" lon="10.25811399333178997039794921875">
        <ele>731.79998779296875</ele>
        <time>2026-09-01T06:54:15.000Z</time>
        <extensions>
          <ns3:TrackPointExtension>
            <ns3:hr>122</ns3:hr>
            <ns3:cad>89</ns3:cad>
          </ns3:TrackPointExtension>
        </extensions>
      </trkpt>
      <trkpt lat="47.543020136654376983642578125" lon="10.25809588842093944549560546875">
        <ele>732</ele>
        <time>2026-09-01T06:54:17.000Z</time>
        <extensions>
          <ns3:TrackPointExtension>
            <ns3:hr>125</ns3:hr>
            <ns3:cad>88</ns3:cad>
          </ns3:TrackPointExtension>
        </extensions>
      </trkpt>
      <trkpt lat="47.5429502315819263458251953125" lon="10.258072502911090850830078125">
        <ele>731.79998779296875</ele>
        <time>2026-09-01T06:54:19.000Z</time>
        <extensions>
          <ns3:TrackPointExtension>
            <ns3:hr>127</ns3:hr>
            <ns3:cad>88</ns3:cad>
          </ns3:TrackPointExtension>
        </extensions>
      </trkpt>
      <trkpt lat="47.54280782304704189300537109375" lon="10.2580257318913936614990234375">
        <ele>731.79998779296875</ele>
        <time>2026-09-01T06:54:23.000Z</time>
        <extensions>
          <ns3:TrackPointExtension>
            <ns3:hr>132</ns3:hr>
            <ns3:cad>89</ns3:cad>
          </ns3:TrackPointExtension>
        </extensions>
      </trkpt>
      <trkpt lat="47.54269919358193874359130859375" lon="10.2579804696142673492431640625">
        <ele>732.20001220703125</ele>
        <time>2026-09-01T06:54:26.000Z</time>
        <extensions>
          <ns3:TrackPointExtension>
            <ns3:hr>136</ns3:hr>
            <ns3:cad>88</ns3:cad>
          </ns3:TrackPointExtension>
        </extensions>
      </trkpt>
      <trkpt lat="47.542660720646381378173828125" lon="10.25797896087169647216796875">
        <ele>732.4000244140625</ele>
        <time>2026-09-01T06:54:27.000Z</time>
        <extensions>
          <ns3:TrackPointExtension>
            <ns3:hr>137</ns3:hr>
            <ns3:cad>88</ns3:cad>
          </ns3:TrackPointExtension>
        </extensions>
      </trkpt>
      <trkpt lat="47.54250280559062957763671875" lon="10.2579737640917301177978515625">
        <ele>732.20001220703125</ele>
        <time>2026-09-01T06:54:31.000Z</time>
        <extensions>
          <ns3:TrackPointExtension>
            <ns3:hr>139</ns3:hr>
            <ns3:cad>88</ns3:cad>
          </ns3:TrackPointExtension>
        </extensions>
      </trkpt>
      <trkpt lat="47.54246835596859455108642578125" lon="10.25797585956752300262451171875">
        <ele>732.20001220703125</ele>
        <time>2026-09-01T06:54:32.000Z</time>
        <extensions>
          <ns3:TrackPointExtension>
            <ns3:hr>142</ns3:hr>
            <ns3:cad>88</ns3:cad>
          </ns3:TrackPointExtension>
        </extensions>
      </trkpt>
      <trkpt lat="47.54234950058162212371826171875" lon="10.2579717524349689483642578125">
        <ele>732.4000244140625</ele>
        <time>2026-09-01T06:54:35.000Z</time>
        <extensions>
          <ns3:TrackPointExtension>
            <ns3:hr>144</ns3:hr>
            <ns3:cad>88</ns3:cad>
          </ns3:TrackPointExtension>
        </extensions>
      </trkpt>
      <trkpt lat="47.54224120639264583587646484375" lon="10.25797334499657154083251953125">
        <ele>732.20001220703125</ele>
        <time>2026-09-01T06:54:38.000Z</time>
        <extensions>
          <ns3:TrackPointExtension>
            <ns3:hr>146</ns3:hr>
            <ns3:cad>86</ns3:cad>
          </ns3:TrackPointExtension>
        </extensions>
      </trkpt>
      <trkpt lat="47.54212670959532260894775390625" lon="10.2579623647034168243408203125">
        <ele>732.4000244140625</ele>
        <time>2026-09-01T06:54:41.000Z</time>
        <extensions>
          <ns3:TrackPointExtension>
            <ns3:hr>148</ns3:hr>
            <ns3:cad>87</ns3:cad>
          </ns3:TrackPointExtension>
        </extensions>
      </trkpt>
      <trkpt lat="47.54194557666778564453125" lon="10.25792506523430347442626953125">
        <ele>732.4000244140625</ele>
        <time>2026-09-01T06:54:46.000Z</time>
        <extensions>
          <ns3:TrackPointExtension>
            <ns3:hr>149</ns3:hr>
            <ns3:cad>88</ns3:cad>
          </ns3:TrackPointExtension>
        </extensions>
      </trkpt>
      <trkpt lat="47.541854716837406158447265625" lon="10.257917605340480804443359375">
        <ele>732.4000244140625</ele>
        <time>2026-09-01T06:54:49.000Z</time>
        <extensions>
          <ns3:TrackPointExtension>
            <ns3:hr>150</ns3:hr>
            <ns3:cad>87</ns3:cad>
          </ns3:TrackPointExtension>
        </extensions>
      </trkpt>
      <trkpt lat="47.54173778928816318511962890625" lon="10.25794518180191516876220703125">
        <ele>732.4000244140625</ele>
        <time>2026-09-01T06:54:52.000Z</time>
        <extensions>
          <ns3:TrackPointExtension>
            <ns3:hr>150</ns3:hr>
            <ns3:cad>88</ns3:cad>
          </ns3:TrackPointExtension>
        </extensions>
      </trkpt>
      <trkpt lat="47.541593201458454132080078125" lon="10.25792975910007953643798828125">
        <ele>732.79998779296875</ele>
        <time>2026-09-01T06:54:56.000Z</time>
        <extensions>
          <ns3:TrackPointExtension>
            <ns3:hr>150</ns3:hr>
            <ns3:cad>87</ns3:cad>
          </ns3:TrackPointExtension>
        </extensions>
      </trkpt>
      <trkpt lat="47.54142162390053272247314453125" lon="10.25792372412979602813720703125">
        <ele>732.5999755859375</ele>
        <time>2026-09-01T06:55:01.000Z</time>
        <extensions>
          <ns3:TrackPointExtension>
            <ns3:hr>153</ns3:hr>
            <ns3:cad>87</ns3:cad>
          </ns3:TrackPointExtension>
        </extensions>
      </trkpt>
      <trkpt lat="47.54138591699302196502685546875" lon="10.2579192817211151123046875">
        <ele>732.5999755859375</ele>
        <time>2026-09-01T06:55:02.000Z</time>
        <extensions>
          <ns3:TrackPointExtension>
            <ns3:hr>152</ns3:hr>
            <ns3:cad>87</ns3:cad>
          </ns3:TrackPointExtension>
        </extensions>
      </trkpt>
      <trkpt lat="47.54123521037399768829345703125" lon="10.25790427811443805694580078125">
        <ele>732.79998779296875</ele>
        <time>2026-09-01T06:55:06.000Z</time>
        <extensions>
          <ns3:TrackPointExtension>
            <ns3:hr>153</ns3:hr>
            <ns3:cad>87</ns3:cad>
          </ns3:TrackPointExtension>
        </extensions>
      </trkpt>
      <trkpt lat="47.54115910269320011138916015625" lon="10.2578929625451564788818359375">
        <ele>733</ele>
        <time>2026-09-01T06:55:08.000Z</time>
        <extensions>
          <ns3:TrackPointExtension>
            <ns3:hr>153</ns3:hr>
            <ns3:cad>88</ns3:cad>
          </ns3:TrackPointExtension>
        </extensions>
      </trkpt>
      <trkpt lat="47.5410188734531402587890625" lon="10.25789271108806133270263671875">
        <ele>733.4000244140625</ele>
        <time>2026-09-01T06:55:12.000Z</time>
        <extensions>
          <ns3:TrackPointExtension>
            <ns3:hr>153</ns3:hr>
            <ns3:cad>87</ns3:cad>
          </ns3:TrackPointExtension>
        </extensions>
      </trkpt>
      <trkpt lat="47.54092298448085784912109375" lon="10.25788902305066585540771484375">
        <ele>734</ele>
        <time>2026-09-01T06:55:15.000Z</time>
        <extensions>
          <ns3:TrackPointExtension>
            <ns3:hr>154</ns3:hr>
            <ns3:cad>86</ns3:cad>
          </ns3:TrackPointExtension>
        </extensions>
      </trkpt>
      <trkpt lat="47.5408882834017276763916015625" lon="10.257885754108428955078125">
        <ele>734</ele>
        <time>2026-09-01T06:55:16.000Z</time>
        <extensions>
          <ns3:TrackPointExtension>
            <ns3:hr>154</ns3:hr>
            <ns3:cad>87</ns3:cad>
          </ns3:TrackPointExtension>
        </extensions>
      </trkpt>
      <trkpt lat="47.54074252210557460784912109375" lon="10.25787007994949817657470703125">
        <ele>734.4000244140625</ele>
        <time>2026-09-01T06:55:20.000Z</time>
        <extensions>
          <ns3:TrackPointExtension>
            <ns3:hr>156</ns3:hr>
            <ns3:cad>86</ns3:cad>
          </ns3:TrackPointExtension>
        </extensions>
      </trkpt>
      <trkpt lat="47.540586031973361968994140625" lon="10.25785398669540882110595703125">
        <ele>734</ele>
        <time>2026-09-01T06:55:24.000Z</time>
        <extensions>
          <ns3:TrackPointExtension>
            <ns3:hr>156</ns3:hr>
            <ns3:cad>85</ns3:cad>
          </ns3:TrackPointExtension>
        </extensions>
      </trkpt>
      <trkpt lat="47.5404100120067596435546875" lon="10.25782414712011814117431640625">
        <ele>733.5999755859375</ele>
        <time>2026-09-01T06:55:29.000Z</time>
        <extensions>
          <ns3:TrackPointExtension>
            <ns3:hr>155</ns3:hr>
            <ns3:cad>86</ns3:cad>
          </ns3:TrackPointExtension>
        </extensions>
      </trkpt>
      <trkpt lat="47.54029928706586360931396484375" lon="10.2578054554760456085205078125">
        <ele>733.79998779296875</ele>
        <time>2026-09-01T06:55:32.000Z</time>
        <extensions>
          <ns3:TrackPointExtension>
            <ns3:hr>155</ns3:hr>
            <ns3:cad>86</ns3:cad>
          </ns3:TrackPointExtension>
        </extensions>
      </trkpt>
      <trkpt lat="47.5401174835860729217529296875" lon="10.25781727395951747894287109375">
        <ele>733.79998779296875</ele>
        <time>2026-09-01T06:55:37.000Z</time>
        <extensions>
          <ns3:TrackPointExtension>
            <ns3:hr>154</ns3:hr>
            <ns3:cad>87</ns3:cad>
          </ns3:TrackPointExtension>
        </extensions>
      </trkpt>
      <trkpt lat="47.5399833731353282928466796875" lon="10.257751643657684326171875">
        <ele>733.79998779296875</ele>
        <time>2026-09-01T06:55:41.000Z</time>
        <extensions>
          <ns3:TrackPointExtension>
            <ns3:hr>154</ns3:hr>
            <ns3:cad>87</ns3:cad>
          </ns3:TrackPointExtension>
        </extensions>
      </trkpt>
      <trkpt lat="47.54000323824584484100341796875" lon="10.25761594064533710479736328125">
        <ele>734.4000244140625</ele>
        <time>2026-09-01T06:55:44.000Z</time>
        <extensions>
          <ns3:TrackPointExtension>
            <ns3:hr>154</ns3:hr>
            <ns3:cad>87</ns3:cad>
          </ns3:TrackPointExtension>
        </extensions>
      </trkpt>
      <trkpt lat="47.540022097527980804443359375" lon="10.2574792318046092987060546875">
        <ele>735.4000244140625</ele>
        <time>2026-09-01T06:55:47.000Z</time>
        <extensions>
          <ns3:TrackPointExtension>
            <ns3:hr>155</ns3:hr>
            <ns3:cad>89</ns3:cad>
          </ns3:TrackPointExtension>
        </extensions>
      </trkpt>
      <trkpt lat="47.5400165654718875885009765625" lon="10.2574363164603710174560546875">
        <ele>735.5999755859375</ele>
        <time>2026-09-01T06:55:48.000Z</time>
        <extensions>
          <ns3:TrackPointExtension>
            <ns3:hr>155</ns3:hr>
            <ns3:cad>89</ns3:cad>
          </ns3:TrackPointExtension>
        </extensions>
      </trkpt>
      <trkpt lat="47.539999969303607940673828125" lon="10.25727613829076290130615234375">
        <ele>736.5999755859375</ele>
        <time>2026-09-01T06:55:52.000Z</time>
        <extensions>
          <ns3:TrackPointExtension>
            <ns3:hr>156</ns3:hr>
            <ns3:cad>87</ns3:cad>
          </ns3:TrackPointExtension>
        </extensions>
      </trkpt>
      <trkpt lat="47.53998689353466033935546875" lon="10.257198773324489593505859375">
        <ele>737.20001220703125</ele>
        <time>2026-09-01T06:55:54.000Z</time>
        <extensions>
          <ns3:TrackPointExtension>
            <ns3:hr>156</ns3:hr>
            <ns3:cad>87</ns3:cad>
          </ns3:TrackPointExtension>
        </extensions>
      </trkpt>
      <trkpt lat="47.53998328931629657745361328125" lon="10.25716113857924938201904296875">
        <ele>737.5999755859375</ele>
        <time>2026-09-01T06:55:55.000Z</time>
        <extensions>
          <ns3:TrackPointExtension>
            <ns3:hr>156</ns3:hr>
            <ns3:cad>88</ns3:cad>
          </ns3:TrackPointExtension>
        </extensions>
      </trkpt>
      <trkpt lat="47.53996920771896839141845703125" lon="10.25708670727908611297607421875">
        <ele>738.5999755859375</ele>
        <time>2026-09-01T06:55:57.000Z</time>
        <extensions>
          <ns3:TrackPointExtension>
            <ns3:hr>156</ns3:hr>
            <ns3:cad>88</ns3:cad>
          </ns3:TrackPointExtension>
        </extensions>
      </trkpt>
      <trkpt lat="47.53996409475803375244140625" lon="10.25701336562633514404296875">
        <ele>739.5999755859375</ele>
        <time>2026-09-01T06:55:59.000Z</time>
        <extensions>
          <ns3:TrackPointExtension>
            <ns3:hr>156</ns3:hr>
            <ns3:cad>88</ns3:cad>
          </ns3:TrackPointExtension>
        </extensions>
      </trkpt>
      <trkpt lat="47.53996367566287517547607421875" lon="10.25698184967041015625">
        <ele>740</ele>
        <time>2026-09-01T06:56:00.000Z</time>
        <extensions>
          <ns3:TrackPointExtension>
            <ns3:hr>156</ns3:hr>
            <ns3:cad>88</ns3:cad>
          </ns3:TrackPointExtension>
        </extensions>
      </trkpt>
      <trkpt lat="47.539957724511623382568359375" lon="10.25679870508611202239990234375">
        <ele>741</ele>
        <time>2026-09-01T06:56:05.000Z</time>
        <extensions>
          <ns3:TrackPointExtension>
            <ns3:hr>157</ns3:hr>
            <ns3:cad>89</ns3:cad>
          </ns3:TrackPointExtension>
        </extensions>
      </trkpt>
      <trkpt lat="47.53995697014033794403076171875" lon="10.25675528682768344879150390625">
        <ele>741.20001220703125</ele>
        <time>2026-09-01T06:56:06.000Z</time>
        <extensions>
          <ns3:TrackPointExtension>
            <ns3:hr>158</ns3:hr>
            <ns3:cad>89</ns3:cad>
          </ns3:TrackPointExtension>
        </extensions>
      </trkpt>
      <trkpt lat="47.53995277918875217437744140625" lon="10.25664129294455051422119140625">
        <ele>742.4000244140625</ele>
        <time>2026-09-01T06:56:09.000Z</time>
        <extensions>
          <ns3:TrackPointExtension>
            <ns3:hr>158</ns3:hr>
            <ns3:cad>89</ns3:cad>
          </ns3:TrackPointExtension>
        </extensions>
      </trkpt>
      <trkpt lat="47.53994976170361042022705078125" lon="10.2565682865679264068603515625">
        <ele>743</ele>
        <time>2026-09-01T06:56:11.000Z</time>
        <extensions>
          <ns3:TrackPointExtension>
            <ns3:hr>158</ns3:hr>
            <ns3:cad>89</ns3:cad>
          </ns3:TrackPointExtension>
        </extensions>
      </trkpt>
      <trkpt lat="47.5399397872388362884521484375" lon="10.25649762712419033050537109375">
        <ele>743.5999755859375</ele>
        <time>2026-09-01T06:56:13.000Z</time>
        <extensions>
          <ns3:TrackPointExtension>
            <ns3:hr>158</ns3:hr>
            <ns3:cad>89</ns3:cad>
          </ns3:TrackPointExtension>
        </extensions>
      </trkpt>
      <trkpt lat="47.53992361016571521759033203125" lon="10.25636938400566577911376953125">
        <ele>744.5999755859375</ele>
        <time>2026-09-01T06:56:16.000Z</time>
        <extensions>
          <ns3:TrackPointExtension>
            <ns3:hr>157</ns3:hr>
            <ns3:cad>89</ns3:cad>
          </ns3:TrackPointExtension>
        </extensions>
      </trkpt>
      <trkpt lat="47.539907433092594146728515625" lon="10.25625270791351795196533203125">
        <ele>745.5999755859375</ele>
        <time>2026-09-01T06:56:19.000Z</time>
        <extensions>
          <ns3:TrackPointExtension>
            <ns3:hr>158</ns3:hr>
            <ns3:cad>88</ns3:cad>
          </ns3:TrackPointExtension>
        </extensions>
      </trkpt>
      <trkpt lat="47.539892010390758514404296875" lon="10.25610652752220630645751953125">
        <ele>746.79998779296875</ele>
        <time>2026-09-01T06:56:23.000Z</time>
        <extensions>
          <ns3:TrackPointExtension>
            <ns3:hr>159</ns3:hr>
            <ns3:cad>88</ns3:cad>
          </ns3:TrackPointExtension>
        </extensions>
      </trkpt>
      <trkpt lat="47.5398871488869190216064453125" lon="10.25607593357563018798828125">
        <ele>747.20001220703125</ele>
        <time>2026-09-01T06:56:24.000Z</time>
        <extensions>
          <ns3:TrackPointExtension>
            <ns3:hr>159</ns3:hr>
            <ns3:cad>87</ns3:cad>
          </ns3:TrackPointExtension>
        </extensions>
      </trkpt>
      <trkpt lat="47.5398871488869190216064453125" lon="10.2559637837111949920654296875">
        <ele>748</ele>
        <time>2026-09-01T06:56:27.000Z</time>
        <extensions>
          <ns3:TrackPointExtension>
            <ns3:hr>160</ns3:hr>
            <ns3:cad>87</ns3:cad>
          </ns3:TrackPointExtension>
        </extensions>
      </trkpt>
      <trkpt lat="47.53988605923950672149658203125" lon="10.255897901952266693115234375">
        <ele>748.5999755859375</ele>
        <time>2026-09-01T06:56:29.000Z</time>
        <extensions>
          <ns3:TrackPointExtension>
            <ns3:hr>160</ns3:hr>
            <ns3:cad>87</ns3:cad>
          </ns3:TrackPointExtension>
        </extensions>
      </trkpt>
      <trkpt lat="47.5398905016481876373291015625" lon="10.255864374339580535888671875">
        <ele>749</ele>
        <time>2026-09-01T06:56:30.000Z</time>
        <extensions>
          <ns3:TrackPointExtension>
            <ns3:hr>160</ns3:hr>
            <ns3:cad>87</ns3:cad>
          </ns3:TrackPointExtension>
        </extensions>
      </trkpt>
      <trkpt lat="47.539888657629489898681640625" lon="10.255767814815044403076171875">
        <ele>750</ele>
        <time>2026-09-01T06:56:33.000Z</time>
        <extensions>
          <ns3:TrackPointExtension>
            <ns3:hr>160</ns3:hr>
            <ns3:cad>87</ns3:cad>
          </ns3:TrackPointExtension>
        </extensions>
      </trkpt>
      <trkpt lat="47.5398938544094562530517578125" lon="10.2557277493178844451904296875">
        <ele>750.4000244140625</ele>
        <time>2026-09-01T06:56:34.000Z</time>
        <extensions>
          <ns3:TrackPointExtension>
            <ns3:hr>160</ns3:hr>
            <ns3:cad>87</ns3:cad>
          </ns3:TrackPointExtension>
        </extensions>
      </trkpt>
      <trkpt lat="47.5399032421410083770751953125" lon="10.2556192874908447265625">
        <ele>751.4000244140625</ele>
        <time>2026-09-01T06:56:37.000Z</time>
        <extensions>
          <ns3:TrackPointExtension>
            <ns3:hr>161</ns3:hr>
            <ns3:cad>87</ns3:cad>
          </ns3:TrackPointExtension>
        </extensions>
      </trkpt>
      <trkpt lat="47.5399069301784038543701171875" lon="10.25554225780069828033447265625">
        <ele>752.20001220703125</ele>
        <time>2026-09-01T06:56:39.000Z</time>
        <extensions>
          <ns3:TrackPointExtension>
            <ns3:hr>161</ns3:hr>
            <ns3:cad>87</ns3:cad>
          </ns3:TrackPointExtension>
        </extensions>
      </trkpt>
      <trkpt lat="47.53991036675870418548583984375" lon="10.25550194084644317626953125">
        <ele>752.4000244140625</ele>
        <time>2026-09-01T06:56:40.000Z</time>
        <extensions>
          <ns3:TrackPointExtension>
            <ns3:hr>161</ns3:hr>
            <ns3:cad>87</ns3:cad>
          </ns3:TrackPointExtension>
        </extensions>
      </trkpt>
      <trkpt lat="47.53992386162281036376953125" lon="10.25541116483509540557861328125">
        <ele>753.5999755859375</ele>
        <time>2026-09-01T06:56:43.000Z</time>
        <extensions>
          <ns3:TrackPointExtension>
            <ns3:hr>161</ns3:hr>
            <ns3:cad>87</ns3:cad>
          </ns3:TrackPointExtension>
        </extensions>
      </trkpt>
      <trkpt lat="47.53992595709860324859619140625" lon="10.25537529028952121734619140625">
        <ele>754</ele>
        <time>2026-09-01T06:56:44.000Z</time>
        <extensions>
          <ns3:TrackPointExtension>
            <ns3:hr>161</ns3:hr>
            <ns3:cad>87</ns3:cad>
          </ns3:TrackPointExtension>
        </extensions>
      </trkpt>
      <trkpt lat="47.53992595709860324859619140625" lon="10.25530354119837284088134765625">
        <ele>754.5999755859375</ele>
        <time>2026-09-01T06:56:46.000Z</time>
        <extensions>
          <ns3:TrackPointExtension>
            <ns3:hr>161</ns3:hr>
            <ns3:cad>87</ns3:cad>
          </ns3:TrackPointExtension>
        </extensions>
      </trkpt>
      <trkpt lat="47.53992578946053981781005859375" lon="10.25522273965179920196533203125">
        <ele>755.4000244140625</ele>
        <time>2026-09-01T06:56:48.000Z</time>
        <extensions>
          <ns3:TrackPointExtension>
            <ns3:hr>162</ns3:hr>
            <ns3:cad>87</ns3:cad>
          </ns3:TrackPointExtension>
        </extensions>
      </trkpt>
      <trkpt lat="47.53991849720478057861328125" lon="10.255181081593036651611328125">
        <ele>755.79998779296875</ele>
        <time>2026-09-01T06:56:49.000Z</time>
        <extensions>
          <ns3:TrackPointExtension>
            <ns3:hr>162</ns3:hr>
            <ns3:cad>87</ns3:cad>
          </ns3:TrackPointExtension>
        </extensions>
      </trkpt>
      <trkpt lat="47.53988991491496562957763671875" lon="10.25507974438369274139404296875">
        <ele>757</ele>
        <time>2026-09-01T06:56:52.000Z</time>
        <extensions>
          <ns3:TrackPointExtension>
            <ns3:hr>162</ns3:hr>
            <ns3:cad>87</ns3:cad>
          </ns3:TrackPointExtension>
        </extensions>
      </trkpt>
      <trkpt lat="47.5398521125316619873046875" lon="10.25499911047518253326416015625">
        <ele>758.20001220703125</ele>
        <time>2026-09-01T06:56:55.000Z</time>
        <extensions>
          <ns3:TrackPointExtension>
            <ns3:hr>163</ns3:hr>
            <ns3:cad>43</ns3:cad>
          </ns3:TrackPointExtension>
        </extensions>
      </trkpt>
      <trkpt lat="47.53982068039476871490478515625" lon="10.25495166890323162078857421875">
        <ele>759</ele>
        <time>2026-09-01T06:56:57.000Z</time>
        <extensions>
          <ns3:TrackPointExtension>
            <ns3:hr>163</ns3:hr>
            <ns3:cad>43</ns3:cad>
          </ns3:TrackPointExtension>
        </extensions>
      </trkpt>
      <trkpt lat="47.53980592824518680572509765625" lon="10.2549217455089092254638671875">
        <ele>759.4000244140625</ele>
        <time>2026-09-01T06:56:58.000Z</time>
        <extensions>
          <ns3:TrackPointExtension>
            <ns3:hr>163</ns3:hr>
            <ns3:cad>43</ns3:cad>
          </ns3:TrackPointExtension>
        </extensions>
      </trkpt>
      <trkpt lat="47.53975144587457180023193359375" lon="10.254849158227443695068359375">
        <ele>760.4000244140625</ele>
        <time>2026-09-01T06:57:01.000Z</time>
        <extensions>
          <ns3:TrackPointExtension>
            <ns3:hr>163</ns3:hr>
            <ns3:cad>88</ns3:cad>
          </ns3:TrackPointExtension>
        </extensions>
      </trkpt>
      <trkpt lat="47.5397292338311672210693359375" lon="10.2548211626708507537841796875">
        <ele>760.79998779296875</ele>
        <time>2026-09-01T06:57:02.000Z</time>
        <extensions>
          <ns3:TrackPointExtension>
            <ns3:hr>163</ns3:hr>
            <ns3:cad>87</ns3:cad>
          </ns3:TrackPointExtension>
        </extensions>
      </trkpt>
      <trkpt lat="47.53969319164752960205078125" lon="10.254782103002071380615234375">
        <ele>761.5999755859375</ele>
        <time>2026-09-01T06:57:04.000Z</time>
        <extensions>
          <ns3:TrackPointExtension>
            <ns3:hr>163</ns3:hr>
            <ns3:cad>87</ns3:cad>
          </ns3:TrackPointExtension>
        </extensions>
      </trkpt>
      <trkpt lat="47.539642564952373504638671875" lon="10.25469803251326084136962890625">
        <ele>762.79998779296875</ele>
        <time>2026-09-01T06:57:07.000Z</time>
        <extensions>
          <ns3:TrackPointExtension>
            <ns3:hr>163</ns3:hr>
            <ns3:cad>87</ns3:cad>
          </ns3:TrackPointExtension>
        </extensions>
      </trkpt>
      <trkpt lat="47.5396081991493701934814453125" lon="10.254660733044147491455078125">
        <ele>763.4000244140625</ele>
        <time>2026-09-01T06:57:09.000Z</time>
        <extensions>
          <ns3:TrackPointExtension>
            <ns3:hr>164</ns3:hr>
            <ns3:cad>87</ns3:cad>
          </ns3:TrackPointExtension>
        </extensions>
      </trkpt>
      <trkpt lat="47.53959487192332744598388671875" lon="10.25463424623012542724609375">
        <ele>763.79998779296875</ele>
        <time>2026-09-01T06:57:10.000Z</time>
        <extensions>
          <ns3:TrackPointExtension>
            <ns3:hr>164</ns3:hr>
            <ns3:cad>87</ns3:cad>
          </ns3:TrackPointExtension>
        </extensions>
      </trkpt>
      <trkpt lat="47.5395548902451992034912109375" lon="10.25454682298004627227783203125">
        <ele>765</ele>
        <time>2026-09-01T06:57:13.000Z</time>
        <extensions>
          <ns3:TrackPointExtension>
            <ns3:hr>165</ns3:hr>
            <ns3:cad>87</ns3:cad>
          </ns3:TrackPointExtension>
        </extensions>
      </trkpt>
      <trkpt lat="47.53952689468860626220703125" lon="10.25442293845117092132568359375">
        <ele>766.20001220703125</ele>
        <time>2026-09-01T06:57:17.000Z</time>
        <extensions>
          <ns3:TrackPointExtension>
            <ns3:hr>165</ns3:hr>
            <ns3:cad>87</ns3:cad>
          </ns3:TrackPointExtension>
        </extensions>
      </trkpt>
      <trkpt lat="47.5395176745951175689697265625" lon="10.2543787658214569091796875">
        <ele>766.5999755859375</ele>
        <time>2026-09-01T06:57:18.000Z</time>
        <extensions>
          <ns3:TrackPointExtension>
            <ns3:hr>165</ns3:hr>
            <ns3:cad>87</ns3:cad>
          </ns3:TrackPointExtension>
        </extensions>
      </trkpt>
      <trkpt lat="47.53950233571231365203857421875" lon="10.254279859364032745361328125">
        <ele>767.4000244140625</ele>
        <time>2026-09-01T06:57:21.000Z</time>
        <extensions>
          <ns3:TrackPointExtension>
            <ns3:hr>164</ns3:hr>
            <ns3:cad>87</ns3:cad>
          </ns3:TrackPointExtension>
        </extensions>
      </trkpt>
      <trkpt lat="47.5394891761243343353271484375" lon="10.2541373670101165771484375">
        <ele>768.79998779296875</ele>
        <time>2026-09-01T06:57:25.000Z</time>
        <extensions>
          <ns3:TrackPointExtension>
            <ns3:hr>164</ns3:hr>
            <ns3:cad>87</ns3:cad>
          </ns3:TrackPointExtension>
        </extensions>
      </trkpt>
      <trkpt lat="47.5394747592508792877197265625" lon="10.25408464483916759490966796875">
        <ele>769.5999755859375</ele>
        <time>2026-09-01T06:57:27.000Z</time>
        <extensions>
          <ns3:TrackPointExtension>
            <ns3:hr>164</ns3:hr>
            <ns3:cad>87</ns3:cad>
          </ns3:TrackPointExtension>
        </extensions>
      </trkpt>
      <trkpt lat="47.53947182558476924896240234375" lon="10.25405664928257465362548828125">
        <ele>770</ele>
        <time>2026-09-01T06:57:28.000Z</time>
        <extensions>
          <ns3:TrackPointExtension>
            <ns3:hr>164</ns3:hr>
            <ns3:cad>87</ns3:cad>
          </ns3:TrackPointExtension>
        </extensions>
      </trkpt>
      <trkpt lat="47.53947467543184757232666015625" lon="10.25395891629159450531005859375">
        <ele>771</ele>
        <time>2026-09-01T06:57:31.000Z</time>
        <extensions>
          <ns3:TrackPointExtension>
            <ns3:hr>165</ns3:hr>
            <ns3:cad>87</ns3:cad>
          </ns3:TrackPointExtension>
        </extensions>
      </trkpt>
      <trkpt lat="47.5394693948328495025634765625" lon="10.25388649664819240570068359375">
        <ele>772.4000244140625</ele>
        <time>2026-09-01T06:57:34.000Z</time>
        <extensions>
          <ns3:TrackPointExtension>
            <ns3:hr>164</ns3:hr>
            <ns3:cad>43</ns3:cad>
          </ns3:TrackPointExtension>
        </extensions>
      </trkpt>
      <trkpt lat="47.539469562470912933349609375" lon="10.25385380722582340240478515625">
        <ele>772.79998779296875</ele>
        <time>2026-09-01T06:57:35.000Z</time>
        <extensions>
          <ns3:TrackPointExtension>
            <ns3:hr>164</ns3:hr>
            <ns3:cad>43</ns3:cad>
          </ns3:TrackPointExtension>
        </extensions>
      </trkpt>
      <trkpt lat="47.53947752527892589569091796875" lon="10.25379479862749576568603515625">
        <ele>773.5999755859375</ele>
        <time>2026-09-01T06:57:37.000Z</time>
        <extensions>
          <ns3:TrackPointExtension>
            <ns3:hr>163</ns3:hr>
            <ns3:cad>43</ns3:cad>
          </ns3:TrackPointExtension>
        </extensions>
      </trkpt>
      <trkpt lat="47.53947668708860874176025390625" lon="10.2537425793707370758056640625">
        <ele>774.4000244140625</ele>
        <time>2026-09-01T06:57:39.000Z</time>
        <extensions>
          <ns3:TrackPointExtension>
            <ns3:hr>163</ns3:hr>
            <ns3:cad>43</ns3:cad>
          </ns3:TrackPointExtension>
        </extensions>
      </trkpt>
      <trkpt lat="47.53947719000279903411865234375" lon="10.25370351970195770263671875">
        <ele>774.79998779296875</ele>
        <time>2026-09-01T06:57:40.000Z</time>
        <extensions>
          <ns3:TrackPointExtension>
            <ns3:hr>163</ns3:hr>
            <ns3:cad>43</ns3:cad>
          </ns3:TrackPointExtension>
        </extensions>
      </trkpt>
      <trkpt lat="47.5394764356315135955810546875" lon="10.25365163572132587432861328125">
        <ele>775.5999755859375</ele>
        <time>2026-09-01T06:57:42.000Z</time>
        <extensions>
          <ns3:TrackPointExtension>
            <ns3:hr>163</ns3:hr>
            <ns3:cad>43</ns3:cad>
          </ns3:TrackPointExtension>
        </extensions>
      </trkpt>
      <trkpt lat="47.53947802819311618804931640625" lon="10.25362179614603519439697265625">
        <ele>776.20001220703125</ele>
        <time>2026-09-01T06:57:43.000Z</time>
        <extensions>
          <ns3:TrackPointExtension>
            <ns3:hr>163</ns3:hr>
            <ns3:cad>43</ns3:cad>
          </ns3:TrackPointExtension>
        </extensions>
      </trkpt>
      <trkpt lat="47.53947995603084564208984375" lon="10.25354334153234958648681640625">
        <ele>777.4000244140625</ele>
        <time>2026-09-01T06:57:46.000Z</time>
        <extensions>
          <ns3:TrackPointExtension>
            <ns3:hr>163</ns3:hr>
            <ns3:cad>43</ns3:cad>
          </ns3:TrackPointExtension>
        </extensions>
      </trkpt>
      <trkpt lat="47.53948473371565341949462890625" lon="10.25348684750497341156005859375">
        <ele>778.20001220703125</ele>
        <time>2026-09-01T06:57:48.000Z</time>
        <extensions>
          <ns3:TrackPointExtension>
            <ns3:hr>164</ns3:hr>
            <ns3:cad>43</ns3:cad>
          </ns3:TrackPointExtension>
        </extensions>
      </trkpt>
      <trkpt lat="47.5394824706017971038818359375" lon="10.25345466099679470062255859375">
        <ele>778.5999755859375</ele>
        <time>2026-09-01T06:57:49.000Z</time>
        <extensions>
          <ns3:TrackPointExtension>
            <ns3:hr>164</ns3:hr>
            <ns3:cad>43</ns3:cad>
          </ns3:TrackPointExtension>
        </extensions>
      </trkpt>
      <trkpt lat="47.5394891761243343353271484375" lon="10.253378637135028839111328125">
        <ele>780</ele>
        <time>2026-09-01T06:57:52.000Z</time>
        <extensions>
          <ns3:TrackPointExtension>
            <ns3:hr>164</ns3:hr>
            <ns3:cad>43</ns3:cad>
          </ns3:TrackPointExtension>
        </extensions>
      </trkpt>
      <trkpt lat="47.53949395380914211273193359375" lon="10.2532825805246829986572265625">
        <ele>781.4000244140625</ele>
        <time>2026-09-01T06:57:55.000Z</time>
        <extensions>
          <ns3:TrackPointExtension>
            <ns3:hr>164</ns3:hr>
            <ns3:cad>44</ns3:cad>
          </ns3:TrackPointExtension>
        </extensions>
      </trkpt>
      <trkpt lat="47.53950267098844051361083984375" lon="10.25323455221951007843017578125">
        <ele>782.20001220703125</ele>
        <time>2026-09-01T06:57:57.000Z</time>
        <extensions>
          <ns3:TrackPointExtension>
            <ns3:hr>164</ns3:hr>
            <ns3:cad>44</ns3:cad>
          </ns3:TrackPointExtension>
        </extensions>
      </trkpt>
      <trkpt lat="47.53950870595872402191162109375" lon="10.25320722721517086029052734375">
        <ele>782.79998779296875</ele>
        <time>2026-09-01T06:57:58.000Z</time>
        <extensions>
          <ns3:TrackPointExtension>
            <ns3:hr>164</ns3:hr>
            <ns3:cad>44</ns3:cad>
          </ns3:TrackPointExtension>
        </extensions>
      </trkpt>
      <trkpt lat="47.539518177509307861328125" lon="10.25311452336609363555908203125">
        <ele>783.79998779296875</ele>
        <time>2026-09-01T06:58:01.000Z</time>
        <extensions>
          <ns3:TrackPointExtension>
            <ns3:hr>164</ns3:hr>
            <ns3:cad>44</ns3:cad>
          </ns3:TrackPointExtension>
        </extensions>
      </trkpt>
      <trkpt lat="47.53951692022383213043212890625" lon="10.25308418087661266326904296875">
        <ele>784.20001220703125</ele>
        <time>2026-09-01T06:58:02.000Z</time>
        <extensions>
          <ns3:TrackPointExtension>
            <ns3:hr>164</ns3:hr>
            <ns3:cad>44</ns3:cad>
          </ns3:TrackPointExtension>
        </extensions>
      </trkpt>
      <trkpt lat="47.539528906345367431640625" lon="10.2530200593173503875732421875">
        <ele>785</ele>
        <time>2026-09-01T06:58:04.000Z</time>
        <extensions>
          <ns3:TrackPointExtension>
            <ns3:hr>164</ns3:hr>
            <ns3:cad>43</ns3:cad>
          </ns3:TrackPointExtension>
        </extensions>
      </trkpt>
      <trkpt lat="47.53953921608626842498779296875" lon="10.2529670856893062591552734375">
        <ele>785.79998779296875</ele>
        <time>2026-09-01T06:58:06.000Z</time>
        <extensions>
          <ns3:TrackPointExtension>
            <ns3:hr>164</ns3:hr>
            <ns3:cad>43</ns3:cad>
          </ns3:TrackPointExtension>
        </extensions>
      </trkpt>
      <trkpt lat="47.53953804261982440948486328125" lon="10.25293582119047641754150390625">
        <ele>786.20001220703125</ele>
        <time>2026-09-01T06:58:07.000Z</time>
        <extensions>
          <ns3:TrackPointExtension>
            <ns3:hr>165</ns3:hr>
            <ns3:cad>43</ns3:cad>
          </ns3:TrackPointExtension>
        </extensions>
      </trkpt>
      <trkpt lat="47.53954189829528331756591796875" lon="10.252839513123035430908203125">
        <ele>787.4000244140625</ele>
        <time>2026-09-01T06:58:10.000Z</time>
        <extensions>
          <ns3:TrackPointExtension>
            <ns3:hr>165</ns3:hr>
            <ns3:cad>44</ns3:cad>
          </ns3:TrackPointExtension>
        </extensions>
      </trkpt>
      <trkpt lat="47.5395367853343486785888671875" lon="10.25279559195041656494140625">
        <ele>787.79998779296875</ele>
        <time>2026-09-01T06:58:11.000Z</time>
        <extensions>
          <ns3:TrackPointExtension>
            <ns3:hr>165</ns3:hr>
            <ns3:cad>44</ns3:cad>
          </ns3:TrackPointExtension>
        </extensions>
      </trkpt>
      <trkpt lat="47.53952085971832275390625" lon="10.25269676931202411651611328125">
        <ele>788.5999755859375</ele>
        <time>2026-09-01T06:58:14.000Z</time>
        <extensions>
          <ns3:TrackPointExtension>
            <ns3:hr>165</ns3:hr>
            <ns3:cad>44</ns3:cad>
          </ns3:TrackPointExtension>
        </extensions>
      </trkpt>
      <trkpt lat="47.5395176745951175689697265625" lon="10.25255310349166393280029296875">
        <ele>789.5999755859375</ele>
        <time>2026-09-01T06:58:18.000Z</time>
        <extensions>
          <ns3:TrackPointExtension>
            <ns3:hr>165</ns3:hr>
            <ns3:cad>44</ns3:cad>
          </ns3:TrackPointExtension>
        </extensions>
      </trkpt>
      <trkpt lat="47.5395233742892742156982421875" lon="10.25245235301554203033447265625">
        <ele>790.5999755859375</ele>
        <time>2026-09-01T06:58:21.000Z</time>
        <extensions>
          <ns3:TrackPointExtension>
            <ns3:hr>164</ns3:hr>
            <ns3:cad>44</ns3:cad>
          </ns3:TrackPointExtension>
        </extensions>
      </trkpt>
      <trkpt lat="47.53952614031732082366943359375" lon="10.25241077877581119537353515625">
        <ele>791</ele>
        <time>2026-09-01T06:58:22.000Z</time>
        <extensions>
          <ns3:TrackPointExtension>
            <ns3:hr>165</ns3:hr>
            <ns3:cad>44</ns3:cad>
          </ns3:TrackPointExtension>
        </extensions>
      </trkpt>
      <trkpt lat="47.5395284034311771392822265625" lon="10.25225437246263027191162109375">
        <ele>791.79998779296875</ele>
        <time>2026-09-01T06:58:26.000Z</time>
        <extensions>
          <ns3:TrackPointExtension>
            <ns3:hr>164</ns3:hr>
            <ns3:cad>44</ns3:cad>
          </ns3:TrackPointExtension>
        </extensions>
      </trkpt>
      <trkpt lat="47.539525888860225677490234375" lon="10.252211205661296844482421875">
        <ele>792</ele>
        <time>2026-09-01T06:58:27.000Z</time>
        <extensions>
          <ns3:TrackPointExtension>
            <ns3:hr>164</ns3:hr>
            <ns3:cad>44</ns3:cad>
          </ns3:TrackPointExtension>
        </extensions>
      </trkpt>
      <trkpt lat="47.53951272927224636077880859375" lon="10.2521205134689807891845703125">
        <ele>793</ele>
        <time>2026-09-01T06:58:30.000Z</time>
        <extensions>
          <ns3:TrackPointExtension>
            <ns3:hr>164</ns3:hr>
            <ns3:cad>42</ns3:cad>
          </ns3:TrackPointExtension>
        </extensions>
      </trkpt>
      <trkpt lat="47.53950811922550201416015625" lon="10.2520843036472797393798828125">
        <ele>793.20001220703125</ele>
        <time>2026-09-01T06:58:31.000Z</time>
        <extensions>
          <ns3:TrackPointExtension>
            <ns3:hr>164</ns3:hr>
            <ns3:cad>42</ns3:cad>
          </ns3:TrackPointExtension>
        </extensions>
      </trkpt>
      <trkpt lat="47.53949127160012722015380859375" lon="10.25199218653142452239990234375">
        <ele>794.20001220703125</ele>
        <time>2026-09-01T06:58:34.000Z</time>
        <extensions>
          <ns3:TrackPointExtension>
            <ns3:hr>163</ns3:hr>
            <ns3:cad>43</ns3:cad>
          </ns3:TrackPointExtension>
        </extensions>
      </trkpt>
      <trkpt lat="47.53948423080146312713623046875" lon="10.2519245445728302001953125">
        <ele>795</ele>
        <time>2026-09-01T06:58:36.000Z</time>
        <extensions>
          <ns3:TrackPointExtension>
            <ns3:hr>164</ns3:hr>
            <ns3:cad>43</ns3:cad>
          </ns3:TrackPointExtension>
        </extensions>
      </trkpt>
      <trkpt lat="47.53948188386857509613037109375" lon="10.2519049309194087982177734375">
        <ele>795.4000244140625</ele>
        <time>2026-09-01T06:58:37.000Z</time>
        <extensions>
          <ns3:TrackPointExtension>
            <ns3:hr>165</ns3:hr>
            <ns3:cad>43</ns3:cad>
          </ns3:TrackPointExtension>
        </extensions>
      </trkpt>
      <trkpt lat="47.5394685566425323486328125" lon="10.25180962868034839630126953125">
        <ele>796.5999755859375</ele>
        <time>2026-09-01T06:58:40.000Z</time>
        <extensions>
          <ns3:TrackPointExtension>
            <ns3:hr>165</ns3:hr>
            <ns3:cad>43</ns3:cad>
          </ns3:TrackPointExtension>
        </extensions>
      </trkpt>
      <trkpt lat="47.539445422589778900146484375" lon="10.2516930364072322845458984375">
        <ele>797.79998779296875</ele>
        <time>2026-09-01T06:58:44.000Z</time>
        <extensions>
          <ns3:TrackPointExtension>
            <ns3:hr>165</ns3:hr>
            <ns3:cad>43</ns3:cad>
          </ns3:TrackPointExtension>
        </extensions>
      </trkpt>
      <trkpt lat="47.5394348613917827606201171875" lon="10.25165758095681667327880859375">
        <ele>798.20001220703125</ele>
        <time>2026-09-01T06:58:45.000Z</time>
        <extensions>
          <ns3:TrackPointExtension>
            <ns3:hr>164</ns3:hr>
            <ns3:cad>43</ns3:cad>
          </ns3:TrackPointExtension>
        </extensions>
      </trkpt>
      <trkpt lat="47.53940477035939693450927734375" lon="10.251536630094051361083984375">
        <ele>799</ele>
        <time>2026-09-01T06:58:48.000Z</time>
        <extensions>
          <ns3:TrackPointExtension>
            <ns3:hr>165</ns3:hr>
            <ns3:cad>86</ns3:cad>
          </ns3:TrackPointExtension>
        </extensions>
      </trkpt>
      <trkpt lat="47.5393906049430370330810546875" lon="10.25149161927402019500732421875">
        <ele>799.4000244140625</ele>
        <time>2026-09-01T06:58:49.000Z</time>
        <extensions>
          <ns3:TrackPointExtension>
            <ns3:hr>165</ns3:hr>
            <ns3:cad>86</ns3:cad>
          </ns3:TrackPointExtension>
        </extensions>
      </trkpt>
      <trkpt lat="47.5393587537109851837158203125" lon="10.25139103643596172332763671875">
        <ele>800.20001220703125</ele>
        <time>2026-09-01T06:58:52.000Z</time>
        <extensions>
          <ns3:TrackPointExtension>
            <ns3:hr>165</ns3:hr>
            <ns3:cad>86</ns3:cad>
          </ns3:TrackPointExtension>
        </extensions>
      </trkpt>
      <trkpt lat="47.5393326021730899810791015625" lon="10.251305960118770599365234375">
        <ele>801.4000244140625</ele>
        <time>2026-09-01T06:58:55.000Z</time>
        <extensions>
          <ns3:TrackPointExtension>
            <ns3:hr>164</ns3:hr>
            <ns3:cad>43</ns3:cad>
          </ns3:TrackPointExtension>
        </extensions>
      </trkpt>
      <trkpt lat="47.5393118150532245635986328125" lon="10.2512139268219470977783203125">
        <ele>802.4000244140625</ele>
        <time>2026-09-01T06:58:58.000Z</time>
        <extensions>
          <ns3:TrackPointExtension>
            <ns3:hr>165</ns3:hr>
            <ns3:cad>43</ns3:cad>
          </ns3:TrackPointExtension>
        </extensions>
      </trkpt>
      <trkpt lat="47.5392923690378665924072265625" lon="10.2511359751224517822265625">
        <ele>803.5999755859375</ele>
        <time>2026-09-01T06:59:01.000Z</time>
        <extensions>
          <ns3:TrackPointExtension>
            <ns3:hr>164</ns3:hr>
            <ns3:cad>43</ns3:cad>
          </ns3:TrackPointExtension>
        </extensions>
      </trkpt>
      <trkpt lat="47.53928675316274166107177734375" lon="10.25105559267103672027587890625">
        <ele>804.5999755859375</ele>
        <time>2026-09-01T06:59:04.000Z</time>
        <extensions>
          <ns3:TrackPointExtension>
            <ns3:hr>165</ns3:hr>
            <ns3:cad>44</ns3:cad>
          </ns3:TrackPointExtension>
        </extensions>
      </trkpt>
      <trkpt lat="47.539288513362407684326171875" lon="10.25098937563598155975341796875">
        <ele>805.4000244140625</ele>
        <time>2026-09-01T06:59:06.000Z</time>
        <extensions>
          <ns3:TrackPointExtension>
            <ns3:hr>164</ns3:hr>
            <ns3:cad>43</ns3:cad>
          </ns3:TrackPointExtension>
        </extensions>
      </trkpt>
      <trkpt lat="47.5392893515527248382568359375" lon="10.25095199234783649444580078125">
        <ele>805.79998779296875</ele>
        <time>2026-09-01T06:59:07.000Z</time>
        <extensions>
          <ns3:TrackPointExtension>
            <ns3:hr>164</ns3:hr>
            <ns3:cad>43</ns3:cad>
          </ns3:TrackPointExtension>
        </extensions>
      </trkpt>
      <trkpt lat="47.53928356803953647613525390625" lon="10.25081268511712551116943359375">
        <ele>807</ele>
        <time>2026-09-01T06:59:11.000Z</time>
        <extensions>
          <ns3:TrackPointExtension>
            <ns3:hr>165</ns3:hr>
            <ns3:cad>43</ns3:cad>
          </ns3:TrackPointExtension>
        </extensions>
      </trkpt>
      <trkpt lat="47.5392732582986354827880859375" lon="10.250672958791255950927734375">
        <ele>808.4000244140625</ele>
        <time>2026-09-01T06:59:15.000Z</time>
        <extensions>
          <ns3:TrackPointExtension>
            <ns3:hr>164</ns3:hr>
            <ns3:cad>43</ns3:cad>
          </ns3:TrackPointExtension>
        </extensions>
      </trkpt>
      <trkpt lat="47.539246268570423126220703125" lon="10.2505152113735675811767578125">
        <ele>809.4000244140625</ele>
        <time>2026-09-01T06:59:19.000Z</time>
        <extensions>
          <ns3:TrackPointExtension>
            <ns3:hr>165</ns3:hr>
            <ns3:cad>86</ns3:cad>
          </ns3:TrackPointExtension>
        </extensions>
      </trkpt>
      <trkpt lat="47.53923092968761920928955078125" lon="10.25043164379894733428955078125">
        <ele>809.79998779296875</ele>
        <time>2026-09-01T06:59:21.000Z</time>
        <extensions>
          <ns3:TrackPointExtension>
            <ns3:hr>164</ns3:hr>
            <ns3:cad>86</ns3:cad>
          </ns3:TrackPointExtension>
        </extensions>
      </trkpt>
      <trkpt lat="47.53921751864254474639892578125" lon="10.25030172429978847503662109375">
        <ele>809.79998779296875</ele>
        <time>2026-09-01T06:59:24.000Z</time>
        <extensions>
          <ns3:TrackPointExtension>
            <ns3:hr>165</ns3:hr>
            <ns3:cad>87</ns3:cad>
          </ns3:TrackPointExtension>
        </extensions>
      </trkpt>
      <trkpt lat="47.5391877628862857818603515625" lon="10.25011681951582431793212890625">
        <ele>810</ele>
        <time>2026-09-01T06:59:28.000Z</time>
        <extensions>
          <ns3:TrackPointExtension>
            <ns3:hr>164</ns3:hr>
            <ns3:cad>88</ns3:cad>
          </ns3:TrackPointExtension>
        </extensions>
      </trkpt>
      <trkpt lat="47.5391716696321964263916015625" lon="10.2500216849148273468017578125">
        <ele>810.20001220703125</ele>
        <time>2026-09-01T06:59:30.000Z</time>
        <extensions>
          <ns3:TrackPointExtension>
            <ns3:hr>165</ns3:hr>
            <ns3:cad>88</ns3:cad>
          </ns3:TrackPointExtension>
        </extensions>
      </trkpt>
      <trkpt lat="47.5391555763781070709228515625" lon="10.24993501603603363037109375">
        <ele>810.5999755859375</ele>
        <time>2026-09-01T06:59:32.000Z</time>
        <extensions>
          <ns3:TrackPointExtension>
            <ns3:hr>164</ns3:hr>
            <ns3:cad>88</ns3:cad>
          </ns3:TrackPointExtension>
        </extensions>
      </trkpt>
      <trkpt lat="47.539140991866588592529296875" lon="10.249755643308162689208984375">
        <ele>811.20001220703125</ele>
        <time>2026-09-01T06:59:36.000Z</time>
        <extensions>
          <ns3:TrackPointExtension>
            <ns3:hr>164</ns3:hr>
            <ns3:cad>85</ns3:cad>
          </ns3:TrackPointExtension>
        </extensions>
      </trkpt>
      <trkpt lat="47.5391344539821147918701171875" lon="10.2496193535625934600830078125">
        <ele>811.79998779296875</ele>
        <time>2026-09-01T06:59:39.000Z</time>
        <extensions>
          <ns3:TrackPointExtension>
            <ns3:hr>164</ns3:hr>
            <ns3:cad>85</ns3:cad>
          </ns3:TrackPointExtension>
        </extensions>
      </trkpt>
      <trkpt lat="47.53913001157343387603759765625" lon="10.249572582542896270751953125">
        <ele>812</ele>
        <time>2026-09-01T06:59:40.000Z</time>
        <extensions>
          <ns3:TrackPointExtension>
            <ns3:hr>164</ns3:hr>
            <ns3:cad>85</ns3:cad>
          </ns3:TrackPointExtension>
        </extensions>
      </trkpt>
      <trkpt lat="47.53911794163286685943603515625" lon="10.24940100498497486114501953125">
        <ele>812.79998779296875</ele>
        <time>2026-09-01T06:59:44.000Z</time>
        <extensions>
          <ns3:TrackPointExtension>
            <ns3:hr>164</ns3:hr>
            <ns3:cad>85</ns3:cad>
          </ns3:TrackPointExtension>
        </extensions>
      </trkpt>
      <trkpt lat="47.539113499224185943603515625" lon="10.24928432889282703399658203125">
        <ele>813.5999755859375</ele>
        <time>2026-09-01T06:59:47.000Z</time>
        <extensions>
          <ns3:TrackPointExtension>
            <ns3:hr>164</ns3:hr>
            <ns3:cad>86</ns3:cad>
          </ns3:TrackPointExtension>
        </extensions>
      </trkpt>
      <trkpt lat="47.5391093082726001739501953125" lon="10.24924644269049167633056640625">
        <ele>813.79998779296875</ele>
        <time>2026-09-01T06:59:48.000Z</time>
        <extensions>
          <ns3:TrackPointExtension>
            <ns3:hr>164</ns3:hr>
            <ns3:cad>86</ns3:cad>
          </ns3:TrackPointExtension>
        </extensions>
      </trkpt>
      <trkpt lat="47.5391072966158390045166015625" lon="10.249099843204021453857421875">
        <ele>815</ele>
        <time>2026-09-01T06:59:52.000Z</time>
        <extensions>
          <ns3:TrackPointExtension>
            <ns3:hr>164</ns3:hr>
            <ns3:cad>87</ns3:cad>
          </ns3:TrackPointExtension>
        </extensions>
      </trkpt>
      <trkpt lat="47.53908491693437099456787109375" lon="10.248988531529903411865234375">
        <ele>816.20001220703125</ele>
        <time>2026-09-01T06:59:55.000Z</time>
        <extensions>
          <ns3:TrackPointExtension>
            <ns3:hr>163</ns3:hr>
            <ns3:cad>87</ns3:cad>
          </ns3:TrackPointExtension>
        </extensions>
      </trkpt>
      <trkpt lat="47.53907636739313602447509765625" lon="10.24892742745578289031982421875">
        <ele>816.79998779296875</ele>
        <time>2026-09-01T06:59:57.000Z</time>
        <extensions>
          <ns3:TrackPointExtension>
            <ns3:hr>163</ns3:hr>
            <ns3:cad>89</ns3:cad>
          </ns3:TrackPointExtension>
        </extensions>
      </trkpt>
      <trkpt lat="47.53907351754605770111083984375" lon="10.24889725260436534881591796875">
        <ele>817.20001220703125</ele>
        <time>2026-09-01T06:59:58.000Z</time>
        <extensions>
          <ns3:TrackPointExtension>
            <ns3:hr>162</ns3:hr>
            <ns3:cad>89</ns3:cad>
          </ns3:TrackPointExtension>
        </extensions>
      </trkpt>
      <trkpt lat="47.53906647674739360809326171875" lon="10.24876330979168415069580078125">
        <ele>818.5999755859375</ele>
        <time>2026-09-01T07:00:02.000Z</time>
        <extensions>
          <ns3:TrackPointExtension>
            <ns3:hr>164</ns3:hr>
            <ns3:cad>43</ns3:cad>
          </ns3:TrackPointExtension>
        </extensions>
      </trkpt>
      <trkpt lat="47.5390747748315334320068359375" lon="10.24873933754861354827880859375">
        <ele>819</ele>
        <time>2026-09-01T07:00:03.000Z</time>
        <extensions>
          <ns3:TrackPointExtension>
            <ns3:hr>163</ns3:hr>
            <ns3:cad>43</ns3:cad>
          </ns3:TrackPointExtension>
        </extensions>
      </trkpt>
      <trkpt lat="47.53910067491233348846435546875" lon="10.24869273416697978973388671875">
        <ele>819.79998779296875</ele>
        <time>2026-09-01T07:00:05.000Z</time>
        <extensions>
          <ns3:TrackPointExtension>
            <ns3:hr>164</ns3:hr>
            <ns3:cad>43</ns3:cad>
          </ns3:TrackPointExtension>
        </extensions>
      </trkpt>
      <trkpt lat="47.53912883810698986053466796875" lon="10.2486792393028736114501953125">
        <ele>820</ele>
        <time>2026-09-01T07:00:06.000Z</time>
        <extensions>
          <ns3:TrackPointExtension>
            <ns3:hr>164</ns3:hr>
            <ns3:cad>43</ns3:cad>
          </ns3:TrackPointExtension>
        </extensions>
      </trkpt>
      <trkpt lat="47.539179213345050811767578125" lon="10.24868837557733058929443359375">
        <ele>821</ele>
        <time>2026-09-01T07:00:09.000Z</time>
        <extensions>
          <ns3:TrackPointExtension>
            <ns3:hr>165</ns3:hr>
            <ns3:cad>43</ns3:cad>
          </ns3:TrackPointExtension>
        </extensions>
      </trkpt>
      <trkpt lat="47.53919891081750392913818359375" lon="10.248699188232421875">
        <ele>821.20001220703125</ele>
        <time>2026-09-01T07:00:10.000Z</time>
        <extensions>
          <ns3:TrackPointExtension>
            <ns3:hr>165</ns3:hr>
            <ns3:cad>43</ns3:cad>
          </ns3:TrackPointExtension>
        </extensions>
      </trkpt>
      <trkpt lat="47.53923746757209300994873046875" lon="10.2487188018858432769775390625">
        <ele>822</ele>
        <time>2026-09-01T07:00:12.000Z</time>
        <extensions>
          <ns3:TrackPointExtension>
            <ns3:hr>165</ns3:hr>
            <ns3:cad>44</ns3:cad>
          </ns3:TrackPointExtension>
        </extensions>
      </trkpt>
      <trkpt lat="47.539293207228183746337890625" lon="10.248749144375324249267578125">
        <ele>823.20001220703125</ele>
        <time>2026-09-01T07:00:15.000Z</time>
        <extensions>
          <ns3:TrackPointExtension>
            <ns3:hr>165</ns3:hr>
            <ns3:cad>43</ns3:cad>
          </ns3:TrackPointExtension>
        </extensions>
      </trkpt>
      <trkpt lat="47.539343498647212982177734375" lon="10.24880044162273406982421875">
        <ele>824.20001220703125</ele>
        <time>2026-09-01T07:00:18.000Z</time>
        <extensions>
          <ns3:TrackPointExtension>
            <ns3:hr>166</ns3:hr>
            <ns3:cad>43</ns3:cad>
          </ns3:TrackPointExtension>
        </extensions>
      </trkpt>
      <trkpt lat="47.5393639504909515380859375" lon="10.2488190494477748870849609375">
        <ele>824.5999755859375</ele>
        <time>2026-09-01T07:00:19.000Z</time>
        <extensions>
          <ns3:TrackPointExtension>
            <ns3:hr>165</ns3:hr>
            <ns3:cad>43</ns3:cad>
          </ns3:TrackPointExtension>
        </extensions>
      </trkpt>
      <trkpt lat="47.53939521498978137969970703125" lon="10.24885685183107852935791015625">
        <ele>825.4000244140625</ele>
        <time>2026-09-01T07:00:21.000Z</time>
        <extensions>
          <ns3:TrackPointExtension>
            <ns3:hr>166</ns3:hr>
            <ns3:cad>43</ns3:cad>
          </ns3:TrackPointExtension>
        </extensions>
      </trkpt>
      <trkpt lat="47.53944768570363521575927734375" lon="10.2489095740020275115966796875">
        <ele>826.5999755859375</ele>
        <time>2026-09-01T07:00:24.000Z</time>
        <extensions>
          <ns3:TrackPointExtension>
            <ns3:hr>165</ns3:hr>
            <ns3:cad>43</ns3:cad>
          </ns3:TrackPointExtension>
        </extensions>
      </trkpt>
      <trkpt lat="47.53946746699512004852294921875" lon="10.24892239831387996673583984375">
        <ele>827</ele>
        <time>2026-09-01T07:00:25.000Z</time>
        <extensions>
          <ns3:TrackPointExtension>
            <ns3:hr>165</ns3:hr>
            <ns3:cad>43</ns3:cad>
          </ns3:TrackPointExtension>
        </extensions>
      </trkpt>
      <trkpt lat="47.539507448673248291015625" lon="10.248911418020725250244140625">
        <ele>828</ele>
        <time>2026-09-01T07:00:27.000Z</time>
        <extensions>
          <ns3:TrackPointExtension>
            <ns3:hr>165</ns3:hr>
            <ns3:cad>43</ns3:cad>
          </ns3:TrackPointExtension>
        </extensions>
      </trkpt>
      <trkpt lat="47.53953762352466583251953125" lon="10.24886221624910831451416015625">
        <ele>828.5999755859375</ele>
        <time>2026-09-01T07:00:29.000Z</time>
        <extensions>
          <ns3:TrackPointExtension>
            <ns3:hr>165</ns3:hr>
            <ns3:cad>44</ns3:cad>
          </ns3:TrackPointExtension>
        </extensions>
      </trkpt>
      <trkpt lat="47.53954525105655193328857421875" lon="10.2488234080374240875244140625">
        <ele>829</ele>
        <time>2026-09-01T07:00:30.000Z</time>
        <extensions>
          <ns3:TrackPointExtension>
            <ns3:hr>166</ns3:hr>
            <ns3:cad>44</ns3:cad>
          </ns3:TrackPointExtension>
        </extensions>
      </trkpt>
      <trkpt lat="47.539557404816150665283203125" lon="10.248739086091518402099609375">
        <ele>830.20001220703125</ele>
        <time>2026-09-01T07:00:33.000Z</time>
        <extensions>
          <ns3:TrackPointExtension>
            <ns3:hr>166</ns3:hr>
            <ns3:cad>43</ns3:cad>
          </ns3:TrackPointExtension>
        </extensions>
      </trkpt>
      <trkpt lat="47.53956067375838756561279296875" lon="10.24870522320270538330078125">
        <ele>830.5999755859375</ele>
        <time>2026-09-01T07:00:34.000Z</time>
        <extensions>
          <ns3:TrackPointExtension>
            <ns3:hr>167</ns3:hr>
            <ns3:cad>43</ns3:cad>
          </ns3:TrackPointExtension>
        </extensions>
      </trkpt>
      <trkpt lat="47.5395597517490386962890625" lon="10.2486564405262470245361328125">
        <ele>831.4000244140625</ele>
        <time>2026-09-01T07:00:36.000Z</time>
        <extensions>
          <ns3:TrackPointExtension>
            <ns3:hr>166</ns3:hr>
            <ns3:cad>43</ns3:cad>
          </ns3:TrackPointExtension>
        </extensions>
      </trkpt>
      <trkpt lat="47.5395642779767513275146484375" lon="10.24856314994394779205322265625">
        <ele>832.5999755859375</ele>
        <time>2026-09-01T07:00:39.000Z</time>
        <extensions>
          <ns3:TrackPointExtension>
            <ns3:hr>167</ns3:hr>
            <ns3:cad>43</ns3:cad>
          </ns3:TrackPointExtension>
        </extensions>
      </trkpt>
      <trkpt lat="47.5395532138645648956298828125" lon="10.248465836048126220703125">
        <ele>833.79998779296875</ele>
        <time>2026-09-01T07:00:42.000Z</time>
        <extensions>
          <ns3:TrackPointExtension>
            <ns3:hr>167</ns3:hr>
            <ns3:cad>43</ns3:cad>
          </ns3:TrackPointExtension>
        </extensions>
      </trkpt>
      <trkpt lat="47.53955849446356296539306640625" lon="10.24841395206749439239501953125">
        <ele>834.4000244140625</ele>
        <time>2026-09-01T07:00:44.000Z</time>
        <extensions>
          <ns3:TrackPointExtension>
            <ns3:hr>168</ns3:hr>
            <ns3:cad>43</ns3:cad>
          </ns3:TrackPointExtension>
        </extensions>
      </trkpt>
      <trkpt lat="47.53956201486289501190185546875" lon="10.248387046158313751220703125">
        <ele>834.79998779296875</ele>
        <time>2026-09-01T07:00:45.000Z</time>
        <extensions>
          <ns3:TrackPointExtension>
            <ns3:hr>167</ns3:hr>
            <ns3:cad>43</ns3:cad>
          </ns3:TrackPointExtension>
        </extensions>
      </trkpt>
      <trkpt lat="47.53956352360546588897705078125" lon="10.248291157186031341552734375">
        <ele>836</ele>
        <time>2026-09-01T07:00:48.000Z</time>
        <extensions>
          <ns3:TrackPointExtension>
            <ns3:hr>167</ns3:hr>
            <ns3:cad>43</ns3:cad>
          </ns3:TrackPointExtension>
        </extensions>
      </trkpt>
      <trkpt lat="47.53956804983317852020263671875" lon="10.24822510778903961181640625">
        <ele>836.79998779296875</ele>
        <time>2026-09-01T07:00:50.000Z</time>
        <extensions>
          <ns3:TrackPointExtension>
            <ns3:hr>167</ns3:hr>
            <ns3:cad>43</ns3:cad>
          </ns3:TrackPointExtension>
        </extensions>
      </trkpt>
      <trkpt lat="47.5395652838051319122314453125" lon="10.248199962079524993896484375">
        <ele>837</ele>
        <time>2026-09-01T07:00:51.000Z</time>
        <extensions>
          <ns3:TrackPointExtension>
            <ns3:hr>167</ns3:hr>
            <ns3:cad>43</ns3:cad>
          </ns3:TrackPointExtension>
        </extensions>
      </trkpt>
      <trkpt lat="47.53956712782382965087890625" lon="10.24811572395265102386474609375">
        <ele>838.20001220703125</ele>
        <time>2026-09-01T07:00:54.000Z</time>
        <extensions>
          <ns3:TrackPointExtension>
            <ns3:hr>167</ns3:hr>
            <ns3:cad>43</ns3:cad>
          </ns3:TrackPointExtension>
        </extensions>
      </trkpt>
      <trkpt lat="47.53956989385187625885009765625" lon="10.24806107394397258758544921875">
        <ele>838.79998779296875</ele>
        <time>2026-09-01T07:00:56.000Z</time>
        <extensions>
          <ns3:TrackPointExtension>
            <ns3:hr>167</ns3:hr>
            <ns3:cad>43</ns3:cad>
          </ns3:TrackPointExtension>
        </extensions>
      </trkpt>
      <trkpt lat="47.53957274369895458221435546875" lon="10.24803257547318935394287109375">
        <ele>839.20001220703125</ele>
        <time>2026-09-01T07:00:57.000Z</time>
        <extensions>
          <ns3:TrackPointExtension>
            <ns3:hr>168</ns3:hr>
            <ns3:cad>43</ns3:cad>
          </ns3:TrackPointExtension>
        </extensions>
      </trkpt>
      <trkpt lat="47.5395837239921092987060546875" lon="10.247946493327617645263671875">
        <ele>840.4000244140625</ele>
        <time>2026-09-01T07:01:00.000Z</time>
        <extensions>
          <ns3:TrackPointExtension>
            <ns3:hr>166</ns3:hr>
            <ns3:cad>43</ns3:cad>
          </ns3:TrackPointExtension>
        </extensions>
      </trkpt>
      <trkpt lat="47.53958581946790218353271484375" lon="10.24789561517536640167236328125">
        <ele>841.20001220703125</ele>
        <time>2026-09-01T07:01:02.000Z</time>
        <extensions>
          <ns3:TrackPointExtension>
            <ns3:hr>166</ns3:hr>
            <ns3:cad>43</ns3:cad>
          </ns3:TrackPointExtension>
        </extensions>
      </trkpt>
      <trkpt lat="47.53958615474402904510498046875" lon="10.2478678710758686065673828125">
        <ele>841.5999755859375</ele>
        <time>2026-09-01T07:01:03.000Z</time>
        <extensions>
          <ns3:TrackPointExtension>
            <ns3:hr>166</ns3:hr>
            <ns3:cad>43</ns3:cad>
          </ns3:TrackPointExtension>
        </extensions>
      </trkpt>
      <trkpt lat="47.53959218971431255340576171875" lon="10.2477786876261234283447265625">
        <ele>842.79998779296875</ele>
        <time>2026-09-01T07:01:06.000Z</time>
        <extensions>
          <ns3:TrackPointExtension>
            <ns3:hr>167</ns3:hr>
            <ns3:cad>43</ns3:cad>
          </ns3:TrackPointExtension>
        </extensions>
      </trkpt>
      <trkpt lat="47.5395919382572174072265625" lon="10.2477511949837207794189453125">
        <ele>843.20001220703125</ele>
        <time>2026-09-01T07:01:07.000Z</time>
        <extensions>
          <ns3:TrackPointExtension>
            <ns3:hr>167</ns3:hr>
            <ns3:cad>43</ns3:cad>
          </ns3:TrackPointExtension>
        </extensions>
      </trkpt>
      <trkpt lat="47.53959260880947113037109375" lon="10.24769444949924945831298828125">
        <ele>843.79998779296875</ele>
        <time>2026-09-01T07:01:09.000Z</time>
        <extensions>
          <ns3:TrackPointExtension>
            <ns3:hr>167</ns3:hr>
            <ns3:cad>44</ns3:cad>
          </ns3:TrackPointExtension>
        </extensions>
      </trkpt>
      <trkpt lat="47.53960643894970417022705078125" lon="10.2476061880588531494140625">
        <ele>845</ele>
        <time>2026-09-01T07:01:12.000Z</time>
        <extensions>
          <ns3:TrackPointExtension>
            <ns3:hr>166</ns3:hr>
            <ns3:cad>44</ns3:cad>
          </ns3:TrackPointExtension>
        </extensions>
      </trkpt>
      <trkpt lat="47.5396075285971164703369140625" lon="10.24757408536970615386962890625">
        <ele>845.4000244140625</ele>
        <time>2026-09-01T07:01:13.000Z</time>
        <extensions>
          <ns3:TrackPointExtension>
            <ns3:hr>166</ns3:hr>
            <ns3:cad>44</ns3:cad>
          </ns3:TrackPointExtension>
        </extensions>
      </trkpt>
      <trkpt lat="47.53960660658776760101318359375" lon="10.24748213589191436767578125">
        <ele>846.4000244140625</ele>
        <time>2026-09-01T07:01:16.000Z</time>
        <extensions>
          <ns3:TrackPointExtension>
            <ns3:hr>166</ns3:hr>
            <ns3:cad>44</ns3:cad>
          </ns3:TrackPointExtension>
        </extensions>
      </trkpt>
      <trkpt lat="47.5396071933209896087646484375" lon="10.24740778841078281402587890625">
        <ele>847</ele>
        <time>2026-09-01T07:01:18.000Z</time>
        <extensions>
          <ns3:TrackPointExtension>
            <ns3:hr>167</ns3:hr>
            <ns3:cad>44</ns3:cad>
          </ns3:TrackPointExtension>
        </extensions>
      </trkpt>
      <trkpt lat="47.539608366787433624267578125" lon="10.24736856110394001007080078125">
        <ele>847.4000244140625</ele>
        <time>2026-09-01T07:01:19.000Z</time>
        <extensions>
          <ns3:TrackPointExtension>
            <ns3:hr>166</ns3:hr>
            <ns3:cad>44</ns3:cad>
          </ns3:TrackPointExtension>
        </extensions>
      </trkpt>
      <trkpt lat="47.5395999848842620849609375" lon="10.24722824804484844207763671875">
        <ele>848.5999755859375</ele>
        <time>2026-09-01T07:01:23.000Z</time>
        <extensions>
          <ns3:TrackPointExtension>
            <ns3:hr>167</ns3:hr>
            <ns3:cad>87</ns3:cad>
          </ns3:TrackPointExtension>
        </extensions>
      </trkpt>
      <trkpt lat="47.539570815861225128173828125" lon="10.24703294970095157623291015625">
        <ele>849.4000244140625</ele>
        <time>2026-09-01T07:01:28.000Z</time>
        <extensions>
          <ns3:TrackPointExtension>
            <ns3:hr>167</ns3:hr>
            <ns3:cad>85</ns3:cad>
          </ns3:TrackPointExtension>
        </extensions>
      </trkpt>
      <trkpt lat="47.539532594382762908935546875" lon="10.24683077819645404815673828125">
        <ele>849</ele>
        <time>2026-09-01T07:01:32.000Z</time>
        <extensions>
          <ns3:TrackPointExtension>
            <ns3:hr>166</ns3:hr>
            <ns3:cad>85</ns3:cad>
          </ns3:TrackPointExtension>
        </extensions>
      </trkpt>
      <trkpt lat="47.5394844822585582733154296875" lon="10.24656021036207675933837890625">
        <ele>847.5999755859375</ele>
        <time>2026-09-01T07:01:37.000Z</time>
        <extensions>
          <ns3:TrackPointExtension>
            <ns3:hr>165</ns3:hr>
            <ns3:cad>82</ns3:cad>
          </ns3:TrackPointExtension>
        </extensions>
      </trkpt>
      <trkpt lat="47.53948171623051166534423828125" lon="10.2465113438665866851806640625">
        <ele>847.4000244140625</ele>
        <time>2026-09-01T07:01:38.000Z</time>
        <extensions>
          <ns3:TrackPointExtension>
            <ns3:hr>165</ns3:hr>
            <ns3:cad>82</ns3:cad>
          </ns3:TrackPointExtension>
        </extensions>
      </trkpt>
      <trkpt lat="47.53947434015572071075439453125" lon="10.24634261615574359893798828125">
        <ele>847</ele>
        <time>2026-09-01T07:01:41.000Z</time>
        <extensions>
          <ns3:TrackPointExtension>
            <ns3:hr>165</ns3:hr>
            <ns3:cad>82</ns3:cad>
          </ns3:TrackPointExtension>
        </extensions>
      </trkpt>
      <trkpt lat="47.53945045173168182373046875" lon="10.24612720124423503875732421875">
        <ele>847.20001220703125</ele>
        <time>2026-09-01T07:01:45.000Z</time>
        <extensions>
          <ns3:TrackPointExtension>
            <ns3:hr>164</ns3:hr>
            <ns3:cad>86</ns3:cad>
          </ns3:TrackPointExtension>
        </extensions>
      </trkpt>
      <trkpt lat="47.53940946422517299652099609375" lon="10.24590524844825267791748046875">
        <ele>848</ele>
        <time>2026-09-01T07:01:50.000Z</time>
        <extensions>
          <ns3:TrackPointExtension>
            <ns3:hr>163</ns3:hr>
            <ns3:cad>86</ns3:cad>
          </ns3:TrackPointExtension>
        </extensions>
      </trkpt>
      <trkpt lat="47.53939211368560791015625" lon="10.24582629092037677764892578125">
        <ele>848.5999755859375</ele>
        <time>2026-09-01T07:01:52.000Z</time>
        <extensions>
          <ns3:TrackPointExtension>
            <ns3:hr>163</ns3:hr>
            <ns3:cad>86</ns3:cad>
          </ns3:TrackPointExtension>
        </extensions>
      </trkpt>
      <trkpt lat="47.53937224857509136199951171875" lon="10.2457125484943389892578125">
        <ele>849.4000244140625</ele>
        <time>2026-09-01T07:01:55.000Z</time>
        <extensions>
          <ns3:TrackPointExtension>
            <ns3:hr>163</ns3:hr>
            <ns3:cad>86</ns3:cad>
          </ns3:TrackPointExtension>
        </extensions>
      </trkpt>
      <trkpt lat="47.5393674708902835845947265625" lon="10.24568078108131885528564453125">
        <ele>849.79998779296875</ele>
        <time>2026-09-01T07:01:56.000Z</time>
        <extensions>
          <ns3:TrackPointExtension>
            <ns3:hr>163</ns3:hr>
            <ns3:cad>86</ns3:cad>
          </ns3:TrackPointExtension>
        </extensions>
      </trkpt>
      <trkpt lat="47.539357580244541168212890625" lon="10.2455491013824939727783203125">
        <ele>851</ele>
        <time>2026-09-01T07:02:00.000Z</time>
        <extensions>
          <ns3:TrackPointExtension>
            <ns3:hr>163</ns3:hr>
            <ns3:cad>87</ns3:cad>
          </ns3:TrackPointExtension>
        </extensions>
      </trkpt>
      <trkpt lat="47.53934676758944988250732421875" lon="10.24543426930904388427734375">
        <ele>852.4000244140625</ele>
        <time>2026-09-01T07:02:04.000Z</time>
        <extensions>
          <ns3:TrackPointExtension>
            <ns3:hr>163</ns3:hr>
            <ns3:cad>87</ns3:cad>
          </ns3:TrackPointExtension>
        </extensions>
      </trkpt>
      <trkpt lat="47.53934458829462528228759765625" lon="10.2453999035060405731201171875">
        <ele>852.79998779296875</ele>
        <time>2026-09-01T07:02:05.000Z</time>
        <extensions>
          <ns3:TrackPointExtension>
            <ns3:hr>163</ns3:hr>
            <ns3:cad>87</ns3:cad>
          </ns3:TrackPointExtension>
        </extensions>
      </trkpt>
      <trkpt lat="47.53933972679078578948974609375" lon="10.24533427320420742034912109375">
        <ele>853.79998779296875</ele>
        <time>2026-09-01T07:02:07.000Z</time>
        <extensions>
          <ns3:TrackPointExtension>
            <ns3:hr>163</ns3:hr>
            <ns3:cad>87</ns3:cad>
          </ns3:TrackPointExtension>
        </extensions>
      </trkpt>
      <trkpt lat="47.53933637402951717376708984375" lon="10.24522396735846996307373046875">
        <ele>855</ele>
        <time>2026-09-01T07:02:10.000Z</time>
        <extensions>
          <ns3:TrackPointExtension>
            <ns3:hr>164</ns3:hr>
            <ns3:cad>43</ns3:cad>
          </ns3:TrackPointExtension>
        </extensions>
      </trkpt>
      <trkpt lat="47.5393262319266796112060546875" lon="10.24513344280421733856201171875">
        <ele>856.20001220703125</ele>
        <time>2026-09-01T07:02:13.000Z</time>
        <extensions>
          <ns3:TrackPointExtension>
            <ns3:hr>164</ns3:hr>
            <ns3:cad>43</ns3:cad>
          </ns3:TrackPointExtension>
        </extensions>
      </trkpt>
      <trkpt lat="47.5393138267099857330322265625" lon="10.24503218941390514373779296875">
        <ele>857.4000244140625</ele>
        <time>2026-09-01T07:02:16.000Z</time>
        <extensions>
          <ns3:TrackPointExtension>
            <ns3:hr>163</ns3:hr>
            <ns3:cad>43</ns3:cad>
          </ns3:TrackPointExtension>
        </extensions>
      </trkpt>
      <trkpt lat="47.5393009185791015625" lon="10.2449345402419567108154296875">
        <ele>858.5999755859375</ele>
        <time>2026-09-01T07:02:19.000Z</time>
        <extensions>
          <ns3:TrackPointExtension>
            <ns3:hr>164</ns3:hr>
            <ns3:cad>43</ns3:cad>
          </ns3:TrackPointExtension>
        </extensions>
      </trkpt>
      <trkpt lat="47.539282478392124176025390625" lon="10.24478844366967678070068359375">
        <ele>859.79998779296875</ele>
        <time>2026-09-01T07:02:23.000Z</time>
        <extensions>
          <ns3:TrackPointExtension>
            <ns3:hr>165</ns3:hr>
            <ns3:cad>43</ns3:cad>
          </ns3:TrackPointExtension>
        </extensions>
      </trkpt>
      <trkpt lat="47.5392635352909564971923828125" lon="10.24464947171509265899658203125">
        <ele>860.79998779296875</ele>
        <time>2026-09-01T07:02:27.000Z</time>
        <extensions>
          <ns3:TrackPointExtension>
            <ns3:hr>165</ns3:hr>
            <ns3:cad>43</ns3:cad>
          </ns3:TrackPointExtension>
        </extensions>
      </trkpt>
      <trkpt lat="47.53925842233002185821533203125" lon="10.2445887029170989990234375">
        <ele>861.5999755859375</ele>
        <time>2026-09-01T07:02:29.000Z</time>
        <extensions>
          <ns3:TrackPointExtension>
            <ns3:hr>165</ns3:hr>
            <ns3:cad>86</ns3:cad>
          </ns3:TrackPointExtension>
        </extensions>
      </trkpt>
      <trkpt lat="47.539240233600139617919921875" lon="10.2445164509117603302001953125">
        <ele>862.20001220703125</ele>
        <time>2026-09-01T07:02:31.000Z</time>
        <extensions>
          <ns3:TrackPointExtension>
            <ns3:hr>165</ns3:hr>
            <ns3:cad>86</ns3:cad>
          </ns3:TrackPointExtension>
        </extensions>
      </trkpt>
      <trkpt lat="47.53922925330698490142822265625" lon="10.24443506263196468353271484375">
        <ele>863.4000244140625</ele>
        <time>2026-09-01T07:02:34.000Z</time>
        <extensions>
          <ns3:TrackPointExtension>
            <ns3:hr>166</ns3:hr>
            <ns3:cad>43</ns3:cad>
          </ns3:TrackPointExtension>
        </extensions>
      </trkpt>
      <trkpt lat="47.53920746035873889923095703125" lon="10.24433984421193599700927734375">
        <ele>864.5999755859375</ele>
        <time>2026-09-01T07:02:37.000Z</time>
        <extensions>
          <ns3:TrackPointExtension>
            <ns3:hr>165</ns3:hr>
            <ns3:cad>44</ns3:cad>
          </ns3:TrackPointExtension>
        </extensions>
      </trkpt>
      <trkpt lat="47.53920645453035831451416015625" lon="10.2443099208176136016845703125">
        <ele>864.79998779296875</ele>
        <time>2026-09-01T07:02:38.000Z</time>
        <extensions>
          <ns3:TrackPointExtension>
            <ns3:hr>165</ns3:hr>
            <ns3:cad>44</ns3:cad>
          </ns3:TrackPointExtension>
        </extensions>
      </trkpt>
      <trkpt lat="47.53920293413102626800537109375" lon="10.24425753392279148101806640625">
        <ele>865.5999755859375</ele>
        <time>2026-09-01T07:02:40.000Z</time>
        <extensions>
          <ns3:TrackPointExtension>
            <ns3:hr>165</ns3:hr>
            <ns3:cad>43</ns3:cad>
          </ns3:TrackPointExtension>
        </extensions>
      </trkpt>
      <trkpt lat="47.53920846618711948394775390625" lon="10.2441805042326450347900390625">
        <ele>866.5999755859375</ele>
        <time>2026-09-01T07:02:42.000Z</time>
        <extensions>
          <ns3:TrackPointExtension>
            <ns3:hr>165</ns3:hr>
            <ns3:cad>43</ns3:cad>
          </ns3:TrackPointExtension>
        </extensions>
      </trkpt>
      <trkpt lat="47.53921265713870525360107421875" lon="10.244153179228305816650390625">
        <ele>867</ele>
        <time>2026-09-01T07:02:43.000Z</time>
        <extensions>
          <ns3:TrackPointExtension>
            <ns3:hr>165</ns3:hr>
            <ns3:cad>43</ns3:cad>
          </ns3:TrackPointExtension>
        </extensions>
      </trkpt>
      <trkpt lat="47.5392432510852813720703125" lon="10.2440442144870758056640625">
        <ele>867.79998779296875</ele>
        <time>2026-09-01T07:02:46.000Z</time>
        <extensions>
          <ns3:TrackPointExtension>
            <ns3:hr>165</ns3:hr>
            <ns3:cad>43</ns3:cad>
          </ns3:TrackPointExtension>
        </extensions>
      </trkpt>
      <trkpt lat="47.53927283920347690582275390625" lon="10.24401345290243625640869140625">
        <ele>868</ele>
        <time>2026-09-01T07:02:48.000Z</time>
        <extensions>
          <ns3:TrackPointExtension>
            <ns3:hr>166</ns3:hr>
            <ns3:cad>43</ns3:cad>
          </ns3:TrackPointExtension>
        </extensions>
      </trkpt>
      <trkpt lat="47.53928457386791706085205078125" lon="10.24400674737989902496337890625">
        <ele>868.20001220703125</ele>
        <time>2026-09-01T07:02:49.000Z</time>
        <extensions>
          <ns3:TrackPointExtension>
            <ns3:hr>165</ns3:hr>
            <ns3:cad>43</ns3:cad>
          </ns3:TrackPointExtension>
        </extensions>
      </trkpt>
      <trkpt lat="47.539299242198467254638671875" lon="10.2440021373331546783447265625">
        <ele>868.4000244140625</ele>
        <time>2026-09-01T07:02:50.000Z</time>
        <extensions>
          <ns3:TrackPointExtension>
            <ns3:hr>166</ns3:hr>
            <ns3:cad>43</ns3:cad>
          </ns3:TrackPointExtension>
        </extensions>
      </trkpt>
      <trkpt lat="47.5393128208816051483154296875" lon="10.2439877204596996307373046875">
        <ele>869.5999755859375</ele>
        <time>2026-09-01T07:02:52.000Z</time>
        <extensions>
          <ns3:TrackPointExtension>
            <ns3:hr>165</ns3:hr>
            <ns3:cad>84</ns3:cad>
          </ns3:TrackPointExtension>
        </extensions>
      </trkpt>
      <trkpt lat="47.539326064288616180419921875" lon="10.2439769916236400604248046875">
        <ele>870.5999755859375</ele>
        <time>2026-09-01T07:02:54.000Z</time>
        <extensions>
          <ns3:TrackPointExtension>
            <ns3:hr>165</ns3:hr>
            <ns3:cad>84</ns3:cad>
          </ns3:TrackPointExtension>
        </extensions>
      </trkpt>
      <trkpt lat="47.539360933005809783935546875" lon="10.24396165274083614349365234375">
        <ele>872.20001220703125</ele>
        <time>2026-09-01T07:02:57.000Z</time>
        <extensions>
          <ns3:TrackPointExtension>
            <ns3:hr>165</ns3:hr>
            <ns3:cad>84</ns3:cad>
          </ns3:TrackPointExtension>
        </extensions>
      </trkpt>
      <trkpt lat="47.53937141038477420806884765625" lon="10.2439461462199687957763671875">
        <ele>872.5999755859375</ele>
        <time>2026-09-01T07:02:58.000Z</time>
        <extensions>
          <ns3:TrackPointExtension>
            <ns3:hr>166</ns3:hr>
            <ns3:cad>84</ns3:cad>
          </ns3:TrackPointExtension>
        </extensions>
      </trkpt>
      <trkpt lat="47.53939270041882991790771484375" lon="10.24389107711613178253173828125">
        <ele>873.20001220703125</ele>
        <time>2026-09-01T07:03:00.000Z</time>
        <extensions>
          <ns3:TrackPointExtension>
            <ns3:hr>166</ns3:hr>
            <ns3:cad>84</ns3:cad>
          </ns3:TrackPointExtension>
        </extensions>
      </trkpt>
      <trkpt lat="47.53940627910196781158447265625" lon="10.24382670409977436065673828125">
        <ele>873.5999755859375</ele>
        <time>2026-09-01T07:03:02.000Z</time>
        <extensions>
          <ns3:TrackPointExtension>
            <ns3:hr>166</ns3:hr>
            <ns3:cad>84</ns3:cad>
          </ns3:TrackPointExtension>
        </extensions>
      </trkpt>
      <trkpt lat="47.53941164351999759674072265625" lon="10.24378127418458461761474609375">
        <ele>874.4000244140625</ele>
        <time>2026-09-01T07:03:04.000Z</time>
        <extensions>
          <ns3:TrackPointExtension>
            <ns3:hr>167</ns3:hr>
            <ns3:cad>41</ns3:cad>
          </ns3:TrackPointExtension>
        </extensions>
      </trkpt>
      <trkpt lat="47.5394041836261749267578125" lon="10.24375881068408489227294921875">
        <ele>874.79998779296875</ele>
        <time>2026-09-01T07:03:05.000Z</time>
        <extensions>
          <ns3:TrackPointExtension>
            <ns3:hr>167</ns3:hr>
            <ns3:cad>41</ns3:cad>
          </ns3:TrackPointExtension>
        </extensions>
      </trkpt>
      <trkpt lat="47.53939722664654254913330078125" lon="10.2437523566186428070068359375">
        <ele>875.20001220703125</ele>
        <time>2026-09-01T07:03:06.000Z</time>
        <extensions>
          <ns3:TrackPointExtension>
            <ns3:hr>167</ns3:hr>
            <ns3:cad>41</ns3:cad>
          </ns3:TrackPointExtension>
        </extensions>
      </trkpt>
      <trkpt lat="47.5393919460475444793701171875" lon="10.2437362633645534515380859375">
        <ele>875.5999755859375</ele>
        <time>2026-09-01T07:03:07.000Z</time>
        <extensions>
          <ns3:TrackPointExtension>
            <ns3:hr>167</ns3:hr>
            <ns3:cad>41</ns3:cad>
          </ns3:TrackPointExtension>
        </extensions>
      </trkpt>
      <trkpt lat="47.53938582725822925567626953125" lon="10.243692509829998016357421875">
        <ele>877.20001220703125</ele>
        <time>2026-09-01T07:03:10.000Z</time>
        <extensions>
          <ns3:TrackPointExtension>
            <ns3:hr>168</ns3:hr>
            <ns3:cad>0</ns3:cad>
          </ns3:TrackPointExtension>
        </extensions>
      </trkpt>
      <trkpt lat="47.53939211368560791015625" lon="10.2436658553779125213623046875">
        <ele>878.20001220703125</ele>
        <time>2026-09-01T07:03:12.000Z</time>
        <extensions>
          <ns3:TrackPointExtension>
            <ns3:hr>168</ns3:hr>
            <ns3:cad>0</ns3:cad>
          </ns3:TrackPointExtension>
        </extensions>
      </trkpt>
      <trkpt lat="47.53940359689295291900634765625" lon="10.24365420453250408172607421875">
        <ele>878.5999755859375</ele>
        <time>2026-09-01T07:03:13.000Z</time>
        <extensions>
          <ns3:TrackPointExtension>
            <ns3:hr>168</ns3:hr>
            <ns3:cad>0</ns3:cad>
          </ns3:TrackPointExtension>
        </extensions>
      </trkpt>
      <trkpt lat="47.5394388847053050994873046875" lon="10.2435989677906036376953125">
        <ele>879.79998779296875</ele>
        <time>2026-09-01T07:03:16.000Z</time>
        <extensions>
          <ns3:TrackPointExtension>
            <ns3:hr>168</ns3:hr>
            <ns3:cad>0</ns3:cad>
          </ns3:TrackPointExtension>
        </extensions>
      </trkpt>
      <trkpt lat="47.53944718278944492340087890625" lon="10.24357809685170650482177734375">
        <ele>880</ele>
        <time>2026-09-01T07:03:17.000Z</time>
        <extensions>
          <ns3:TrackPointExtension>
            <ns3:hr>168</ns3:hr>
            <ns3:cad>0</ns3:cad>
          </ns3:TrackPointExtension>
        </extensions>
      </trkpt>
      <trkpt lat="47.539448775351047515869140625" lon="10.2435334213078022003173828125">
        <ele>880.5999755859375</ele>
        <time>2026-09-01T07:03:19.000Z</time>
        <extensions>
          <ns3:TrackPointExtension>
            <ns3:hr>168</ns3:hr>
            <ns3:cad>0</ns3:cad>
          </ns3:TrackPointExtension>
        </extensions>
      </trkpt>
      <trkpt lat="47.53944776952266693115234375" lon="10.2435240335762500762939453125">
        <ele>881</ele>
        <time>2026-09-01T07:03:20.000Z</time>
        <extensions>
          <ns3:TrackPointExtension>
            <ns3:hr>168</ns3:hr>
            <ns3:cad>0</ns3:cad>
          </ns3:TrackPointExtension>
        </extensions>
      </trkpt>
      <trkpt lat="47.53944735042750835418701171875" lon="10.2434965409338474273681640625">
        <ele>881.4000244140625</ele>
        <time>2026-09-01T07:03:21.000Z</time>
        <extensions>
          <ns3:TrackPointExtension>
            <ns3:hr>169</ns3:hr>
            <ns3:cad>40</ns3:cad>
          </ns3:TrackPointExtension>
        </extensions>
      </trkpt>
      <trkpt lat="47.53944299183785915374755859375" lon="10.243455134332180023193359375">
        <ele>882.20001220703125</ele>
        <time>2026-09-01T07:03:23.000Z</time>
        <extensions>
          <ns3:TrackPointExtension>
            <ns3:hr>168</ns3:hr>
            <ns3:cad>40</ns3:cad>
          </ns3:TrackPointExtension>
        </extensions>
      </trkpt>
      <trkpt lat="47.5394415669143199920654296875" lon="10.24340157397091388702392578125">
        <ele>883.4000244140625</ele>
        <time>2026-09-01T07:03:26.000Z</time>
        <extensions>
          <ns3:TrackPointExtension>
            <ns3:hr>169</ns3:hr>
            <ns3:cad>40</ns3:cad>
          </ns3:TrackPointExtension>
        </extensions>
      </trkpt>
      <trkpt lat="47.53944969736039638519287109375" lon="10.2433409728109836578369140625">
        <ele>884.79998779296875</ele>
        <time>2026-09-01T07:03:29.000Z</time>
        <extensions>
          <ns3:TrackPointExtension>
            <ns3:hr>168</ns3:hr>
            <ns3:cad>83</ns3:cad>
          </ns3:TrackPointExtension>
        </extensions>
      </trkpt>
      <trkpt lat="47.53944508731365203857421875" lon="10.24331188760697841644287109375">
        <ele>885.20001220703125</ele>
        <time>2026-09-01T07:03:30.000Z</time>
        <extensions>
          <ns3:TrackPointExtension>
            <ns3:hr>168</ns3:hr>
            <ns3:cad>83</ns3:cad>
          </ns3:TrackPointExtension>
        </extensions>
      </trkpt>
      <trkpt lat="47.53944911062717437744140625" lon="10.2432873286306858062744140625">
        <ele>886</ele>
        <time>2026-09-01T07:03:32.000Z</time>
        <extensions>
          <ns3:TrackPointExtension>
            <ns3:hr>168</ns3:hr>
            <ns3:cad>0</ns3:cad>
          </ns3:TrackPointExtension>
        </extensions>
      </trkpt>
      <trkpt lat="47.539445422589778900146484375" lon="10.2432690560817718505859375">
        <ele>887</ele>
        <time>2026-09-01T07:03:34.000Z</time>
        <extensions>
          <ns3:TrackPointExtension>
            <ns3:hr>168</ns3:hr>
            <ns3:cad>0</ns3:cad>
          </ns3:TrackPointExtension>
        </extensions>
      </trkpt>
      <trkpt lat="47.53944768570363521575927734375" lon="10.24325765669345855712890625">
        <ele>887.4000244140625</ele>
        <time>2026-09-01T07:03:35.000Z</time>
        <extensions>
          <ns3:TrackPointExtension>
            <ns3:hr>168</ns3:hr>
            <ns3:cad>19</ns3:cad>
          </ns3:TrackPointExtension>
        </extensions>
      </trkpt>
      <trkpt lat="47.539450116455554962158203125" lon="10.24320493452250957489013671875">
        <ele>888.79998779296875</ele>
        <time>2026-09-01T07:03:38.000Z</time>
        <extensions>
          <ns3:TrackPointExtension>
            <ns3:hr>167</ns3:hr>
            <ns3:cad>0</ns3:cad>
          </ns3:TrackPointExtension>
        </extensions>
      </trkpt>
      <trkpt lat="47.5394499488174915313720703125" lon="10.24319194257259368896484375">
        <ele>889.20001220703125</ele>
        <time>2026-09-01T07:03:39.000Z</time>
        <extensions>
          <ns3:TrackPointExtension>
            <ns3:hr>167</ns3:hr>
            <ns3:cad>0</ns3:cad>
          </ns3:TrackPointExtension>
        </extensions>
      </trkpt>
      <trkpt lat="47.5394524633884429931640625" lon="10.24316268973052501678466796875">
        <ele>890</ele>
        <time>2026-09-01T07:03:41.000Z</time>
        <extensions>
          <ns3:TrackPointExtension>
            <ns3:hr>167</ns3:hr>
            <ns3:cad>0</ns3:cad>
          </ns3:TrackPointExtension>
        </extensions>
      </trkpt>
      <trkpt lat="47.5394576601684093475341796875" lon="10.2431428246200084686279296875">
        <ele>890.20001220703125</ele>
        <time>2026-09-01T07:03:42.000Z</time>
        <extensions>
          <ns3:TrackPointExtension>
            <ns3:hr>167</ns3:hr>
            <ns3:cad>0</ns3:cad>
          </ns3:TrackPointExtension>
        </extensions>
      </trkpt>
      <trkpt lat="47.53946394659578800201416015625" lon="10.2431108057498931884765625">
        <ele>891.20001220703125</ele>
        <time>2026-09-01T07:03:44.000Z</time>
        <extensions>
          <ns3:TrackPointExtension>
            <ns3:hr>168</ns3:hr>
            <ns3:cad>0</ns3:cad>
          </ns3:TrackPointExtension>
        </extensions>
      </trkpt>
      <trkpt lat="47.53945908509194850921630859375" lon="10.24300762452185153961181640625">
        <ele>892.20001220703125</ele>
        <time>2026-09-01T07:03:48.000Z</time>
        <extensions>
          <ns3:TrackPointExtension>
            <ns3:hr>168</ns3:hr>
            <ns3:cad>0</ns3:cad>
          </ns3:TrackPointExtension>
        </extensions>
      </trkpt>
      <trkpt lat="47.5394563190639019012451171875" lon="10.24298583157360553741455078125">
        <ele>892.4000244140625</ele>
        <time>2026-09-01T07:03:49.000Z</time>
        <extensions>
          <ns3:TrackPointExtension>
            <ns3:hr>168</ns3:hr>
            <ns3:cad>0</ns3:cad>
          </ns3:TrackPointExtension>
        </extensions>
      </trkpt>
      <trkpt lat="47.53945137374103069305419921875" lon="10.24292129091918468475341796875">
        <ele>893.5999755859375</ele>
        <time>2026-09-01T07:03:52.000Z</time>
        <extensions>
          <ns3:TrackPointExtension>
            <ns3:hr>168</ns3:hr>
            <ns3:cad>0</ns3:cad>
          </ns3:TrackPointExtension>
        </extensions>
      </trkpt>
      <trkpt lat="47.53944014199078083038330078125" lon="10.2428746037185192108154296875">
        <ele>894.79998779296875</ele>
        <time>2026-09-01T07:03:55.000Z</time>
        <extensions>
          <ns3:TrackPointExtension>
            <ns3:hr>168</ns3:hr>
            <ns3:cad>0</ns3:cad>
          </ns3:TrackPointExtension>
        </extensions>
      </trkpt>
      <trkpt lat="47.5394298322498798370361328125" lon="10.2427857555449008941650390625">
        <ele>896</ele>
        <time>2026-09-01T07:03:58.000Z</time>
        <extensions>
          <ns3:TrackPointExtension>
            <ns3:hr>168</ns3:hr>
            <ns3:cad>0</ns3:cad>
          </ns3:TrackPointExtension>
        </extensions>
      </trkpt>
      <trkpt lat="47.5394113920629024505615234375" lon="10.24274594150483608245849609375">
        <ele>896.5999755859375</ele>
        <time>2026-09-01T07:04:00.000Z</time>
        <extensions>
          <ns3:TrackPointExtension>
            <ns3:hr>168</ns3:hr>
            <ns3:cad>0</ns3:cad>
          </ns3:TrackPointExtension>
        </extensions>
      </trkpt>
      <trkpt lat="47.53939756192266941070556640625" lon="10.2427272498607635498046875">
        <ele>897.20001220703125</ele>
        <time>2026-09-01T07:04:02.000Z</time>
        <extensions>
          <ns3:TrackPointExtension>
            <ns3:hr>167</ns3:hr>
            <ns3:cad>0</ns3:cad>
          </ns3:TrackPointExtension>
        </extensions>
      </trkpt>
      <trkpt lat="47.5393959693610668182373046875" lon="10.2427039481699466705322265625">
        <ele>897.5999755859375</ele>
        <time>2026-09-01T07:04:03.000Z</time>
        <extensions>
          <ns3:TrackPointExtension>
            <ns3:hr>167</ns3:hr>
            <ns3:cad>0</ns3:cad>
          </ns3:TrackPointExtension>
        </extensions>
      </trkpt>
      <trkpt lat="47.5393906049430370330810546875" lon="10.24266111664474010467529296875">
        <ele>898.4000244140625</ele>
        <time>2026-09-01T07:04:05.000Z</time>
        <extensions>
          <ns3:TrackPointExtension>
            <ns3:hr>167</ns3:hr>
            <ns3:cad>41</ns3:cad>
          </ns3:TrackPointExtension>
        </extensions>
      </trkpt>
      <trkpt lat="47.5393798761069774627685546875" lon="10.24257813580334186553955078125">
        <ele>899.5999755859375</ele>
        <time>2026-09-01T07:04:08.000Z</time>
        <extensions>
          <ns3:TrackPointExtension>
            <ns3:hr>167</ns3:hr>
            <ns3:cad>41</ns3:cad>
          </ns3:TrackPointExtension>
        </extensions>
      </trkpt>
      <trkpt lat="47.53938834182918071746826171875" lon="10.24247185327112674713134765625">
        <ele>900</ele>
        <time>2026-09-01T07:04:11.000Z</time>
        <extensions>
          <ns3:TrackPointExtension>
            <ns3:hr>167</ns3:hr>
            <ns3:cad>41</ns3:cad>
          </ns3:TrackPointExtension>
        </extensions>
      </trkpt>
      <trkpt lat="47.53939286805689334869384765625" lon="10.24234293960034847259521484375">
        <ele>900.5999755859375</ele>
        <time>2026-09-01T07:04:15.000Z</time>
        <extensions>
          <ns3:TrackPointExtension>
            <ns3:hr>166</ns3:hr>
            <ns3:cad>85</ns3:cad>
          </ns3:TrackPointExtension>
        </extensions>
      </trkpt>
      <trkpt lat="47.5393869169056415557861328125" lon="10.24231896735727787017822265625">
        <ele>901</ele>
        <time>2026-09-01T07:04:16.000Z</time>
        <extensions>
          <ns3:TrackPointExtension>
            <ns3:hr>166</ns3:hr>
            <ns3:cad>84</ns3:cad>
          </ns3:TrackPointExtension>
        </extensions>
      </trkpt>
      <trkpt lat="47.53937124274671077728271484375" lon="10.242278985679149627685546875">
        <ele>901.79998779296875</ele>
        <time>2026-09-01T07:04:18.000Z</time>
        <extensions>
          <ns3:TrackPointExtension>
            <ns3:hr>165</ns3:hr>
            <ns3:cad>84</ns3:cad>
          </ns3:TrackPointExtension>
        </extensions>
      </trkpt>
      <trkpt lat="47.539360262453556060791015625" lon="10.2422077395021915435791015625">
        <ele>902.79998779296875</ele>
        <time>2026-09-01T07:04:21.000Z</time>
        <extensions>
          <ns3:TrackPointExtension>
            <ns3:hr>165</ns3:hr>
            <ns3:cad>84</ns3:cad>
          </ns3:TrackPointExtension>
        </extensions>
      </trkpt>
      <trkpt lat="47.53935732878744602203369140625" lon="10.24214319884777069091796875">
        <ele>904</ele>
        <time>2026-09-01T07:04:24.000Z</time>
        <extensions>
          <ns3:TrackPointExtension>
            <ns3:hr>165</ns3:hr>
            <ns3:cad>84</ns3:cad>
          </ns3:TrackPointExtension>
        </extensions>
      </trkpt>
      <trkpt lat="47.5393533892929553985595703125" lon="10.24211981333792209625244140625">
        <ele>904.5999755859375</ele>
        <time>2026-09-01T07:04:25.000Z</time>
        <extensions>
          <ns3:TrackPointExtension>
            <ns3:hr>164</ns3:hr>
            <ns3:cad>0</ns3:cad>
          </ns3:TrackPointExtension>
        </extensions>
      </trkpt>
      <trkpt lat="47.53934827633202075958251953125" lon="10.24208729155361652374267578125">
        <ele>905.4000244140625</ele>
        <time>2026-09-01T07:04:27.000Z</time>
        <extensions>
          <ns3:TrackPointExtension>
            <ns3:hr>164</ns3:hr>
            <ns3:cad>0</ns3:cad>
          </ns3:TrackPointExtension>
        </extensions>
      </trkpt>
      <trkpt lat="47.5393305905163288116455078125" lon="10.24202660657465457916259765625">
        <ele>906.4000244140625</ele>
        <time>2026-09-01T07:04:30.000Z</time>
        <extensions>
          <ns3:TrackPointExtension>
            <ns3:hr>165</ns3:hr>
            <ns3:cad>0</ns3:cad>
          </ns3:TrackPointExtension>
        </extensions>
      </trkpt>
      <trkpt lat="47.539324723184108734130859375" lon="10.24200313724577426910400390625">
        <ele>906.79998779296875</ele>
        <time>2026-09-01T07:04:31.000Z</time>
        <extensions>
          <ns3:TrackPointExtension>
            <ns3:hr>166</ns3:hr>
            <ns3:cad>0</ns3:cad>
          </ns3:TrackPointExtension>
        </extensions>
      </trkpt>
      <trkpt lat="47.539320029318332672119140625" lon="10.2419683523476123809814453125">
        <ele>907.5999755859375</ele>
        <time>2026-09-01T07:04:33.000Z</time>
        <extensions>
          <ns3:TrackPointExtension>
            <ns3:hr>165</ns3:hr>
            <ns3:cad>79</ns3:cad>
          </ns3:TrackPointExtension>
        </extensions>
      </trkpt>
      <trkpt lat="47.53929982893168926239013671875" lon="10.24191345088183879852294921875">
        <ele>908.79998779296875</ele>
        <time>2026-09-01T07:04:36.000Z</time>
        <extensions>
          <ns3:TrackPointExtension>
            <ns3:hr>166</ns3:hr>
            <ns3:cad>41</ns3:cad>
          </ns3:TrackPointExtension>
        </extensions>
      </trkpt>
      <trkpt lat="47.53927669487893581390380859375" lon="10.24182879365980625152587890625">
        <ele>909.79998779296875</ele>
        <time>2026-09-01T07:04:39.000Z</time>
        <extensions>
          <ns3:TrackPointExtension>
            <ns3:hr>167</ns3:hr>
            <ns3:cad>41</ns3:cad>
          </ns3:TrackPointExtension>
        </extensions>
      </trkpt>
      <trkpt lat="47.539266385138034820556640625" lon="10.24180163629353046417236328125">
        <ele>910.20001220703125</ele>
        <time>2026-09-01T07:04:40.000Z</time>
        <extensions>
          <ns3:TrackPointExtension>
            <ns3:hr>167</ns3:hr>
            <ns3:cad>41</ns3:cad>
          </ns3:TrackPointExtension>
        </extensions>
      </trkpt>
      <trkpt lat="47.539234198629856109619140625" lon="10.24173256941139698028564453125">
        <ele>911</ele>
        <time>2026-09-01T07:04:43.000Z</time>
        <extensions>
          <ns3:TrackPointExtension>
            <ns3:hr>167</ns3:hr>
            <ns3:cad>41</ns3:cad>
          </ns3:TrackPointExtension>
        </extensions>
      </trkpt>
      <trkpt lat="47.53922690637409687042236328125" lon="10.24171144701540470123291015625">
        <ele>911.4000244140625</ele>
        <time>2026-09-01T07:04:44.000Z</time>
        <extensions>
          <ns3:TrackPointExtension>
            <ns3:hr>167</ns3:hr>
            <ns3:cad>0</ns3:cad>
          </ns3:TrackPointExtension>
        </extensions>
      </trkpt>
      <trkpt lat="47.53921709954738616943359375" lon="10.24165612645447254180908203125">
        <ele>912.4000244140625</ele>
        <time>2026-09-01T07:04:47.000Z</time>
        <extensions>
          <ns3:TrackPointExtension>
            <ns3:hr>167</ns3:hr>
            <ns3:cad>40</ns3:cad>
          </ns3:TrackPointExtension>
        </extensions>
      </trkpt>
      <trkpt lat="47.53921383060514926910400390625" lon="10.2416156418621540069580078125">
        <ele>913.4000244140625</ele>
        <time>2026-09-01T07:04:50.000Z</time>
        <extensions>
          <ns3:TrackPointExtension>
            <ns3:hr>167</ns3:hr>
            <ns3:cad>43</ns3:cad>
          </ns3:TrackPointExtension>
        </extensions>
      </trkpt>
      <trkpt lat="47.53920813091099262237548828125" lon="10.24160030297935009002685546875">
        <ele>913.79998779296875</ele>
        <time>2026-09-01T07:04:51.000Z</time>
        <extensions>
          <ns3:TrackPointExtension>
            <ns3:hr>167</ns3:hr>
            <ns3:cad>43</ns3:cad>
          </ns3:TrackPointExtension>
        </extensions>
      </trkpt>
      <trkpt lat="47.53920796327292919158935546875" lon="10.24156660772860050201416015625">
        <ele>914.5999755859375</ele>
        <time>2026-09-01T07:04:53.000Z</time>
        <extensions>
          <ns3:TrackPointExtension>
            <ns3:hr>166</ns3:hr>
            <ns3:cad>43</ns3:cad>
          </ns3:TrackPointExtension>
        </extensions>
      </trkpt>
      <trkpt lat="47.5392162613570690155029296875" lon="10.24149586446583271026611328125">
        <ele>915.79998779296875</ele>
        <time>2026-09-01T07:04:56.000Z</time>
        <extensions>
          <ns3:TrackPointExtension>
            <ns3:hr>167</ns3:hr>
            <ns3:cad>41</ns3:cad>
          </ns3:TrackPointExtension>
        </extensions>
      </trkpt>
      <trkpt lat="47.5392219610512256622314453125" lon="10.2414687909185886383056640625">
        <ele>916.20001220703125</ele>
        <time>2026-09-01T07:04:57.000Z</time>
        <extensions>
          <ns3:TrackPointExtension>
            <ns3:hr>166</ns3:hr>
            <ns3:cad>40</ns3:cad>
          </ns3:TrackPointExtension>
        </extensions>
      </trkpt>
      <trkpt lat="47.53922916948795318603515625" lon="10.2414218522608280181884765625">
        <ele>916.79998779296875</ele>
        <time>2026-09-01T07:04:59.000Z</time>
        <extensions>
          <ns3:TrackPointExtension>
            <ns3:hr>167</ns3:hr>
            <ns3:cad>40</ns3:cad>
          </ns3:TrackPointExtension>
        </extensions>
      </trkpt>
      <trkpt lat="47.5392283312976360321044921875" lon="10.24134532548487186431884765625">
        <ele>918.20001220703125</ele>
        <time>2026-09-01T07:05:02.000Z</time>
        <extensions>
          <ns3:TrackPointExtension>
            <ns3:hr>167</ns3:hr>
            <ns3:cad>41</ns3:cad>
          </ns3:TrackPointExtension>
        </extensions>
      </trkpt>
      <trkpt lat="47.53922422416508197784423828125" lon="10.24131439626216888427734375">
        <ele>918.5999755859375</ele>
        <time>2026-09-01T07:05:03.000Z</time>
        <extensions>
          <ns3:TrackPointExtension>
            <ns3:hr>166</ns3:hr>
            <ns3:cad>41</ns3:cad>
          </ns3:TrackPointExtension>
        </extensions>
      </trkpt>
      <trkpt lat="47.53921634517610073089599609375" lon="10.24125949479639530181884765625">
        <ele>919.4000244140625</ele>
        <time>2026-09-01T07:05:05.000Z</time>
        <extensions>
          <ns3:TrackPointExtension>
            <ns3:hr>166</ns3:hr>
            <ns3:cad>42</ns3:cad>
          </ns3:TrackPointExtension>
        </extensions>
      </trkpt>
      <trkpt lat="47.539217770099639892578125" lon="10.241200737655162811279296875">
        <ele>920.4000244140625</ele>
        <time>2026-09-01T07:05:08.000Z</time>
        <extensions>
          <ns3:TrackPointExtension>
            <ns3:hr>167</ns3:hr>
            <ns3:cad>41</ns3:cad>
          </ns3:TrackPointExtension>
        </extensions>
      </trkpt>
      <trkpt lat="47.53921709954738616943359375" lon="10.24117383174598217010498046875">
        <ele>920.79998779296875</ele>
        <time>2026-09-01T07:05:09.000Z</time>
        <extensions>
          <ns3:TrackPointExtension>
            <ns3:hr>166</ns3:hr>
            <ns3:cad>41</ns3:cad>
          </ns3:TrackPointExtension>
        </extensions>
      </trkpt>
      <trkpt lat="47.5392139144241809844970703125" lon="10.24113812483847141265869140625">
        <ele>921.4000244140625</ele>
        <time>2026-09-01T07:05:11.000Z</time>
        <extensions>
          <ns3:TrackPointExtension>
            <ns3:hr>166</ns3:hr>
            <ns3:cad>41</ns3:cad>
          </ns3:TrackPointExtension>
        </extensions>
      </trkpt>
      <trkpt lat="47.53921919502317905426025390625" lon="10.24110325612127780914306640625">
        <ele>922.20001220703125</ele>
        <time>2026-09-01T07:05:13.000Z</time>
        <extensions>
          <ns3:TrackPointExtension>
            <ns3:hr>166</ns3:hr>
            <ns3:cad>41</ns3:cad>
          </ns3:TrackPointExtension>
        </extensions>
      </trkpt>
      <trkpt lat="47.53921936266124248504638671875" lon="10.241082049906253814697265625">
        <ele>922.4000244140625</ele>
        <time>2026-09-01T07:05:14.000Z</time>
        <extensions>
          <ns3:TrackPointExtension>
            <ns3:hr>166</ns3:hr>
            <ns3:cad>41</ns3:cad>
          </ns3:TrackPointExtension>
        </extensions>
      </trkpt>
      <trkpt lat="47.53921366296708583831787109375" lon="10.24102413095533847808837890625">
        <ele>923.5999755859375</ele>
        <time>2026-09-01T07:05:17.000Z</time>
        <extensions>
          <ns3:TrackPointExtension>
            <ns3:hr>166</ns3:hr>
            <ns3:cad>41</ns3:cad>
          </ns3:TrackPointExtension>
        </extensions>
      </trkpt>
      <trkpt lat="47.53920125775039196014404296875" lon="10.2409876696765422821044921875">
        <ele>924.5999755859375</ele>
        <time>2026-09-01T07:05:19.000Z</time>
        <extensions>
          <ns3:TrackPointExtension>
            <ns3:hr>165</ns3:hr>
            <ns3:cad>41</ns3:cad>
          </ns3:TrackPointExtension>
        </extensions>
      </trkpt>
      <trkpt lat="47.539196312427520751953125" lon="10.240972749888896942138671875">
        <ele>925</ele>
        <time>2026-09-01T07:05:20.000Z</time>
        <extensions>
          <ns3:TrackPointExtension>
            <ns3:hr>166</ns3:hr>
            <ns3:cad>41</ns3:cad>
          </ns3:TrackPointExtension>
        </extensions>
      </trkpt>
      <trkpt lat="47.5391971506178379058837890625" lon="10.24090326391160488128662109375">
        <ele>926.20001220703125</ele>
        <time>2026-09-01T07:05:23.000Z</time>
        <extensions>
          <ns3:TrackPointExtension>
            <ns3:hr>165</ns3:hr>
            <ns3:cad>41</ns3:cad>
          </ns3:TrackPointExtension>
        </extensions>
      </trkpt>
      <trkpt lat="47.53920712508261203765869140625" lon="10.24087451398372650146484375">
        <ele>926.5999755859375</ele>
        <time>2026-09-01T07:05:24.000Z</time>
        <extensions>
          <ns3:TrackPointExtension>
            <ns3:hr>166</ns3:hr>
            <ns3:cad>41</ns3:cad>
          </ns3:TrackPointExtension>
        </extensions>
      </trkpt>
      <trkpt lat="47.5392112322151660919189453125" lon="10.240858085453510284423828125">
        <ele>927</ele>
        <time>2026-09-01T07:05:25.000Z</time>
        <extensions>
          <ns3:TrackPointExtension>
            <ns3:hr>166</ns3:hr>
            <ns3:cad>41</ns3:cad>
          </ns3:TrackPointExtension>
        </extensions>
      </trkpt>
      <trkpt lat="47.539214082062244415283203125" lon="10.2408438362181186676025390625">
        <ele>927.4000244140625</ele>
        <time>2026-09-01T07:05:26.000Z</time>
        <extensions>
          <ns3:TrackPointExtension>
            <ns3:hr>166</ns3:hr>
            <ns3:cad>41</ns3:cad>
          </ns3:TrackPointExtension>
        </extensions>
      </trkpt>
      <trkpt lat="47.53922103904187679290771484375" lon="10.24080301634967327117919921875">
        <ele>928.4000244140625</ele>
        <time>2026-09-01T07:05:29.000Z</time>
        <extensions>
          <ns3:TrackPointExtension>
            <ns3:hr>166</ns3:hr>
            <ns3:cad>41</ns3:cad>
          </ns3:TrackPointExtension>
        </extensions>
      </trkpt>
      <trkpt lat="47.53921701572835445404052734375" lon="10.24076898582279682159423828125">
        <ele>929.20001220703125</ele>
        <time>2026-09-01T07:05:31.000Z</time>
        <extensions>
          <ns3:TrackPointExtension>
            <ns3:hr>166</ns3:hr>
            <ns3:cad>41</ns3:cad>
          </ns3:TrackPointExtension>
        </extensions>
      </trkpt>
      <trkpt lat="47.539216093719005584716796875" lon="10.24074434302747249603271484375">
        <ele>929.5999755859375</ele>
        <time>2026-09-01T07:05:32.000Z</time>
        <extensions>
          <ns3:TrackPointExtension>
            <ns3:hr>166</ns3:hr>
            <ns3:cad>41</ns3:cad>
          </ns3:TrackPointExtension>
        </extensions>
      </trkpt>
      <trkpt lat="47.53923294134438037872314453125" lon="10.24067510850727558135986328125">
        <ele>930.79998779296875</ele>
        <time>2026-09-01T07:05:35.000Z</time>
        <extensions>
          <ns3:TrackPointExtension>
            <ns3:hr>167</ns3:hr>
            <ns3:cad>43</ns3:cad>
          </ns3:TrackPointExtension>
        </extensions>
      </trkpt>
      <trkpt lat="47.53923864103853702545166015625" lon="10.24065298028290271759033203125">
        <ele>931.20001220703125</ele>
        <time>2026-09-01T07:05:36.000Z</time>
        <extensions>
          <ns3:TrackPointExtension>
            <ns3:hr>167</ns3:hr>
            <ns3:cad>42</ns3:cad>
          </ns3:TrackPointExtension>
        </extensions>
      </trkpt>
      <trkpt lat="47.53924953751266002655029296875" lon="10.24062573909759521484375">
        <ele>932</ele>
        <time>2026-09-01T07:05:38.000Z</time>
        <extensions>
          <ns3:TrackPointExtension>
            <ns3:hr>166</ns3:hr>
            <ns3:cad>0</ns3:cad>
          </ns3:TrackPointExtension>
        </extensions>
      </trkpt>
      <trkpt lat="47.53926009871065616607666015625" lon="10.24055373854935169219970703125">
        <ele>933</ele>
        <time>2026-09-01T07:05:41.000Z</time>
        <extensions>
          <ns3:TrackPointExtension>
            <ns3:hr>165</ns3:hr>
            <ns3:cad>77</ns3:cad>
          </ns3:TrackPointExtension>
        </extensions>
      </trkpt>
      <trkpt lat="47.539254985749721527099609375" lon="10.240494310855865478515625">
        <ele>934.4000244140625</ele>
        <time>2026-09-01T07:05:44.000Z</time>
        <extensions>
          <ns3:TrackPointExtension>
            <ns3:hr>164</ns3:hr>
            <ns3:cad>41</ns3:cad>
          </ns3:TrackPointExtension>
        </extensions>
      </trkpt>
      <trkpt lat="47.53926009871065616607666015625" lon="10.24045332334935665130615234375">
        <ele>935.20001220703125</ele>
        <time>2026-09-01T07:05:46.000Z</time>
        <extensions>
          <ns3:TrackPointExtension>
            <ns3:hr>163</ns3:hr>
            <ns3:cad>41</ns3:cad>
          </ns3:TrackPointExtension>
        </extensions>
      </trkpt>
      <trkpt lat="47.53926596604287624359130859375" lon="10.24043320678174495697021484375">
        <ele>935.4000244140625</ele>
        <time>2026-09-01T07:05:47.000Z</time>
        <extensions>
          <ns3:TrackPointExtension>
            <ns3:hr>162</ns3:hr>
            <ns3:cad>41</ns3:cad>
          </ns3:TrackPointExtension>
        </extensions>
      </trkpt>
      <trkpt lat="47.53926361910998821258544921875" lon="10.24035156704485416412353515625">
        <ele>936.79998779296875</ele>
        <time>2026-09-01T07:05:51.000Z</time>
        <extensions>
          <ns3:TrackPointExtension>
            <ns3:hr>162</ns3:hr>
            <ns3:cad>41</ns3:cad>
          </ns3:TrackPointExtension>
        </extensions>
      </trkpt>
      <trkpt lat="47.53925087861716747283935546875" lon="10.24028979241847991943359375">
        <ele>938</ele>
        <time>2026-09-01T07:05:54.000Z</time>
        <extensions>
          <ns3:TrackPointExtension>
            <ns3:hr>163</ns3:hr>
            <ns3:cad>40</ns3:cad>
          </ns3:TrackPointExtension>
        </extensions>
      </trkpt>
      <trkpt lat="47.53924769349396228790283203125" lon="10.24023824371397495269775390625">
        <ele>938.5999755859375</ele>
        <time>2026-09-01T07:05:56.000Z</time>
        <extensions>
          <ns3:TrackPointExtension>
            <ns3:hr>163</ns3:hr>
            <ns3:cad>41</ns3:cad>
          </ns3:TrackPointExtension>
        </extensions>
      </trkpt>
      <trkpt lat="47.53924601711332798004150390625" lon="10.2402167022228240966796875">
        <ele>939</ele>
        <time>2026-09-01T07:05:57.000Z</time>
        <extensions>
          <ns3:TrackPointExtension>
            <ns3:hr>162</ns3:hr>
            <ns3:cad>41</ns3:cad>
          </ns3:TrackPointExtension>
        </extensions>
      </trkpt>
      <trkpt lat="47.5392668880522251129150390625" lon="10.24013648740947246551513671875">
        <ele>940.20001220703125</ele>
        <time>2026-09-01T07:06:01.000Z</time>
        <extensions>
          <ns3:TrackPointExtension>
            <ns3:hr>161</ns3:hr>
            <ns3:cad>41</ns3:cad>
          </ns3:TrackPointExtension>
        </extensions>
      </trkpt>
      <trkpt lat="47.53928742371499538421630859375" lon="10.24006691761314868927001953125">
        <ele>941.20001220703125</ele>
        <time>2026-09-01T07:06:04.000Z</time>
        <extensions>
          <ns3:TrackPointExtension>
            <ns3:hr>161</ns3:hr>
            <ns3:cad>41</ns3:cad>
          </ns3:TrackPointExtension>
        </extensions>
      </trkpt>
      <trkpt lat="47.539292536675930023193359375" lon="10.24005065672099590301513671875">
        <ele>941.5999755859375</ele>
        <time>2026-09-01T07:06:05.000Z</time>
        <extensions>
          <ns3:TrackPointExtension>
            <ns3:hr>161</ns3:hr>
            <ns3:cad>41</ns3:cad>
          </ns3:TrackPointExtension>
        </extensions>
      </trkpt>
      <trkpt lat="47.53930787555873394012451171875" lon="10.2400066517293453216552734375">
        <ele>942.4000244140625</ele>
        <time>2026-09-01T07:06:07.000Z</time>
        <extensions>
          <ns3:TrackPointExtension>
            <ns3:hr>162</ns3:hr>
            <ns3:cad>41</ns3:cad>
          </ns3:TrackPointExtension>
        </extensions>
      </trkpt>
      <trkpt lat="47.539318017661571502685546875" lon="10.23993984796106815338134765625">
        <ele>943.79998779296875</ele>
        <time>2026-09-01T07:06:11.000Z</time>
        <extensions>
          <ns3:TrackPointExtension>
            <ns3:hr>163</ns3:hr>
            <ns3:cad>42</ns3:cad>
          </ns3:TrackPointExtension>
        </extensions>
      </trkpt>
      <trkpt lat="47.53931500017642974853515625" lon="10.2399110980331897735595703125">
        <ele>944</ele>
        <time>2026-09-01T07:06:12.000Z</time>
        <extensions>
          <ns3:TrackPointExtension>
            <ns3:hr>164</ns3:hr>
            <ns3:cad>42</ns3:cad>
          </ns3:TrackPointExtension>
        </extensions>
      </trkpt>
      <trkpt lat="47.53930619917809963226318359375" lon="10.23986038751900196075439453125">
        <ele>945</ele>
        <time>2026-09-01T07:06:15.000Z</time>
        <extensions>
          <ns3:TrackPointExtension>
            <ns3:hr>164</ns3:hr>
            <ns3:cad>40</ns3:cad>
          </ns3:TrackPointExtension>
        </extensions>
      </trkpt>
      <trkpt lat="47.53930385224521160125732421875" lon="10.23979668505489826202392578125">
        <ele>945.79998779296875</ele>
        <time>2026-09-01T07:06:17.000Z</time>
        <extensions>
          <ns3:TrackPointExtension>
            <ns3:hr>163</ns3:hr>
            <ns3:cad>83</ns3:cad>
          </ns3:TrackPointExtension>
        </extensions>
      </trkpt>
      <trkpt lat="47.53929622471332550048828125" lon="10.23976667784154415130615234375">
        <ele>946.20001220703125</ele>
        <time>2026-09-01T07:06:18.000Z</time>
        <extensions>
          <ns3:TrackPointExtension>
            <ns3:hr>163</ns3:hr>
            <ns3:cad>83</ns3:cad>
          </ns3:TrackPointExtension>
        </extensions>
      </trkpt>
      <trkpt lat="47.53926043398678302764892578125" lon="10.2396536059677600860595703125">
        <ele>947.20001220703125</ele>
        <time>2026-09-01T07:06:22.000Z</time>
        <extensions>
          <ns3:TrackPointExtension>
            <ns3:hr>163</ns3:hr>
            <ns3:cad>0</ns3:cad>
          </ns3:TrackPointExtension>
        </extensions>
      </trkpt>
      <trkpt lat="47.53924936987459659576416015625" lon="10.23963223211467266082763671875">
        <ele>947.4000244140625</ele>
        <time>2026-09-01T07:06:23.000Z</time>
        <extensions>
          <ns3:TrackPointExtension>
            <ns3:hr>162</ns3:hr>
            <ns3:cad>0</ns3:cad>
          </ns3:TrackPointExtension>
        </extensions>
      </trkpt>
      <trkpt lat="47.53919321112334728240966796875" lon="10.239485464990139007568359375">
        <ele>947</ele>
        <time>2026-09-01T07:06:28.000Z</time>
        <extensions>
          <ns3:TrackPointExtension>
            <ns3:hr>163</ns3:hr>
            <ns3:cad>78</ns3:cad>
          </ns3:TrackPointExtension>
        </extensions>
      </trkpt>
      <trkpt lat="47.53919832408428192138671875" lon="10.2394061721861362457275390625">
        <ele>948.20001220703125</ele>
        <time>2026-09-01T07:06:32.000Z</time>
        <extensions>
          <ns3:TrackPointExtension>
            <ns3:hr>163</ns3:hr>
            <ns3:cad>86</ns3:cad>
          </ns3:TrackPointExtension>
        </extensions>
      </trkpt>
      <trkpt lat="47.53920528106391429901123046875" lon="10.23939183913171291351318359375">
        <ele>948.5999755859375</ele>
        <time>2026-09-01T07:06:33.000Z</time>
        <extensions>
          <ns3:TrackPointExtension>
            <ns3:hr>163</ns3:hr>
            <ns3:cad>86</ns3:cad>
          </ns3:TrackPointExtension>
        </extensions>
      </trkpt>
      <trkpt lat="47.53919740207493305206298828125" lon="10.23923275060951709747314453125">
        <ele>949.4000244140625</ele>
        <time>2026-09-01T07:06:38.000Z</time>
        <extensions>
          <ns3:TrackPointExtension>
            <ns3:hr>164</ns3:hr>
            <ns3:cad>82</ns3:cad>
          </ns3:TrackPointExtension>
        </extensions>
      </trkpt>
      <trkpt lat="47.53918097354471683502197265625" lon="10.2390150725841522216796875">
        <ele>949.5999755859375</ele>
        <time>2026-09-01T07:06:44.000Z</time>
        <extensions>
          <ns3:TrackPointExtension>
            <ns3:hr>164</ns3:hr>
            <ns3:cad>82</ns3:cad>
          </ns3:TrackPointExtension>
        </extensions>
      </trkpt>
      <trkpt lat="47.53915968351066112518310546875" lon="10.2389072813093662261962890625">
        <ele>950.79998779296875</ele>
        <time>2026-09-01T07:06:48.000Z</time>
        <extensions>
          <ns3:TrackPointExtension>
            <ns3:hr>165</ns3:hr>
            <ns3:cad>82</ns3:cad>
          </ns3:TrackPointExtension>
        </extensions>
      </trkpt>
      <trkpt lat="47.5391532294452190399169921875" lon="10.23888205178081989288330078125">
        <ele>951.20001220703125</ele>
        <time>2026-09-01T07:06:49.000Z</time>
        <extensions>
          <ns3:TrackPointExtension>
            <ns3:hr>165</ns3:hr>
            <ns3:cad>82</ns3:cad>
          </ns3:TrackPointExtension>
        </extensions>
      </trkpt>
      <trkpt lat="47.53912934102118015289306640625" lon="10.23881566710770130157470703125">
        <ele>952.20001220703125</ele>
        <time>2026-09-01T07:06:52.000Z</time>
        <extensions>
          <ns3:TrackPointExtension>
            <ns3:hr>163</ns3:hr>
            <ns3:cad>82</ns3:cad>
          </ns3:TrackPointExtension>
        </extensions>
      </trkpt>
      <trkpt lat="47.53909447230398654937744140625" lon="10.2387771941721439361572265625">
        <ele>952.5999755859375</ele>
        <time>2026-09-01T07:06:54.000Z</time>
        <extensions>
          <ns3:TrackPointExtension>
            <ns3:hr>163</ns3:hr>
            <ns3:cad>82</ns3:cad>
          </ns3:TrackPointExtension>
        </extensions>
      </trkpt>
      <trkpt lat="47.53908223472535610198974609375" lon="10.23874609731137752532958984375">
        <ele>953.20001220703125</ele>
        <time>2026-09-01T07:06:56.000Z</time>
        <extensions>
          <ns3:TrackPointExtension>
            <ns3:hr>164</ns3:hr>
            <ns3:cad>82</ns3:cad>
          </ns3:TrackPointExtension>
        </extensions>
      </trkpt>
      <trkpt lat="47.53908558748662471771240234375" lon="10.238723047077655792236328125">
        <ele>953.5999755859375</ele>
        <time>2026-09-01T07:06:57.000Z</time>
        <extensions>
          <ns3:TrackPointExtension>
            <ns3:hr>164</ns3:hr>
            <ns3:cad>82</ns3:cad>
          </ns3:TrackPointExtension>
        </extensions>
      </trkpt>
      <trkpt lat="47.5390868447721004486083984375" lon="10.2387084625661373138427734375">
        <ele>954</ele>
        <time>2026-09-01T07:06:58.000Z</time>
        <extensions>
          <ns3:TrackPointExtension>
            <ns3:hr>164</ns3:hr>
            <ns3:cad>43</ns3:cad>
          </ns3:TrackPointExtension>
        </extensions>
      </trkpt>
      <trkpt lat="47.53909011371433734893798828125" lon="10.238687507808208465576171875">
        <ele>954.4000244140625</ele>
        <time>2026-09-01T07:06:59.000Z</time>
        <extensions>
          <ns3:TrackPointExtension>
            <ns3:hr>163</ns3:hr>
            <ns3:cad>43</ns3:cad>
          </ns3:TrackPointExtension>
        </extensions>
      </trkpt>
      <trkpt lat="47.5390922091901302337646484375" lon="10.23865255527198314666748046875">
        <ele>955.79998779296875</ele>
        <time>2026-09-01T07:07:02.000Z</time>
        <extensions>
          <ns3:TrackPointExtension>
            <ns3:hr>163</ns3:hr>
            <ns3:cad>43</ns3:cad>
          </ns3:TrackPointExtension>
        </extensions>
      </trkpt>
      <trkpt lat="47.53909380175173282623291015625" lon="10.23863813839852809906005859375">
        <ele>956.4000244140625</ele>
        <time>2026-09-01T07:07:03.000Z</time>
        <extensions>
          <ns3:TrackPointExtension>
            <ns3:hr>163</ns3:hr>
            <ns3:cad>43</ns3:cad>
          </ns3:TrackPointExtension>
        </extensions>
      </trkpt>
      <trkpt lat="47.53910067491233348846435546875" lon="10.23862690664827823638916015625">
        <ele>957.4000244140625</ele>
        <time>2026-09-01T07:07:05.000Z</time>
        <extensions>
          <ns3:TrackPointExtension>
            <ns3:hr>163</ns3:hr>
            <ns3:cad>0</ns3:cad>
          </ns3:TrackPointExtension>
        </extensions>
      </trkpt>
      <trkpt lat="47.53911140374839305877685546875" lon="10.23859103210270404815673828125">
        <ele>958.4000244140625</ele>
        <time>2026-09-01T07:07:08.000Z</time>
        <extensions>
          <ns3:TrackPointExtension>
            <ns3:hr>163</ns3:hr>
            <ns3:cad>0</ns3:cad>
          </ns3:TrackPointExtension>
        </extensions>
      </trkpt>
      <trkpt lat="47.53912012092769145965576171875" lon="10.238541327416896820068359375">
        <ele>959.5999755859375</ele>
        <time>2026-09-01T07:07:11.000Z</time>
        <extensions>
          <ns3:TrackPointExtension>
            <ns3:hr>161</ns3:hr>
            <ns3:cad>18</ns3:cad>
          </ns3:TrackPointExtension>
        </extensions>
      </trkpt>
      <trkpt lat="47.539130263030529022216796875" lon="10.23850704543292522430419921875">
        <ele>960.5999755859375</ele>
        <time>2026-09-01T07:07:13.000Z</time>
        <extensions>
          <ns3:TrackPointExtension>
            <ns3:hr>162</ns3:hr>
            <ns3:cad>18</ns3:cad>
          </ns3:TrackPointExtension>
        </extensions>
      </trkpt>
      <trkpt lat="47.5391324423253536224365234375" lon="10.23849681951105594635009765625">
        <ele>961</ele>
        <time>2026-09-01T07:07:14.000Z</time>
        <extensions>
          <ns3:TrackPointExtension>
            <ns3:hr>163</ns3:hr>
            <ns3:cad>18</ns3:cad>
          </ns3:TrackPointExtension>
        </extensions>
      </trkpt>
      <trkpt lat="47.53913671709597110748291015625" lon="10.23844921030104160308837890625">
        <ele>962.4000244140625</ele>
        <time>2026-09-01T07:07:17.000Z</time>
        <extensions>
          <ns3:TrackPointExtension>
            <ns3:hr>162</ns3:hr>
            <ns3:cad>0</ns3:cad>
          </ns3:TrackPointExtension>
        </extensions>
      </trkpt>
      <trkpt lat="47.53913202323019504547119140625" lon="10.2384502999484539031982421875">
        <ele>962.79998779296875</ele>
        <time>2026-09-01T07:07:18.000Z</time>
        <extensions>
          <ns3:TrackPointExtension>
            <ns3:hr>162</ns3:hr>
            <ns3:cad>0</ns3:cad>
          </ns3:TrackPointExtension>
        </extensions>
      </trkpt>
      <trkpt lat="47.53913420252501964569091796875" lon="10.2384214662015438079833984375">
        <ele>963.79998779296875</ele>
        <time>2026-09-01T07:07:20.000Z</time>
        <extensions>
          <ns3:TrackPointExtension>
            <ns3:hr>161</ns3:hr>
            <ns3:cad>0</ns3:cad>
          </ns3:TrackPointExtension>
        </extensions>
      </trkpt>
      <trkpt lat="47.53914576955139636993408203125" lon="10.23838282562792301177978515625">
        <ele>965.20001220703125</ele>
        <time>2026-09-01T07:07:23.000Z</time>
        <extensions>
          <ns3:TrackPointExtension>
            <ns3:hr>162</ns3:hr>
            <ns3:cad>0</ns3:cad>
          </ns3:TrackPointExtension>
        </extensions>
      </trkpt>
      <trkpt lat="47.5391562469303607940673828125" lon="10.23834359832108020782470703125">
        <ele>966.4000244140625</ele>
        <time>2026-09-01T07:07:26.000Z</time>
        <extensions>
          <ns3:TrackPointExtension>
            <ns3:hr>162</ns3:hr>
            <ns3:cad>0</ns3:cad>
          </ns3:TrackPointExtension>
        </extensions>
      </trkpt>
      <trkpt lat="47.539146356284618377685546875" lon="10.2382903732359409332275390625">
        <ele>967.20001220703125</ele>
        <time>2026-09-01T07:07:28.000Z</time>
        <extensions>
          <ns3:TrackPointExtension>
            <ns3:hr>162</ns3:hr>
            <ns3:cad>0</ns3:cad>
          </ns3:TrackPointExtension>
        </extensions>
      </trkpt>
      <trkpt lat="47.5391418300569057464599609375" lon="10.23823899216949939727783203125">
        <ele>967.5999755859375</ele>
        <time>2026-09-01T07:07:30.000Z</time>
        <extensions>
          <ns3:TrackPointExtension>
            <ns3:hr>162</ns3:hr>
            <ns3:cad>0</ns3:cad>
          </ns3:TrackPointExtension>
        </extensions>
      </trkpt>
      <trkpt lat="47.53913302905857563018798828125" lon="10.23816539905965328216552734375">
        <ele>968.4000244140625</ele>
        <time>2026-09-01T07:07:33.000Z</time>
        <extensions>
          <ns3:TrackPointExtension>
            <ns3:hr>162</ns3:hr>
            <ns3:cad>0</ns3:cad>
          </ns3:TrackPointExtension>
        </extensions>
      </trkpt>
      <trkpt lat="47.5391243956983089447021484375" lon="10.23814192973077297210693359375">
        <ele>968.79998779296875</ele>
        <time>2026-09-01T07:07:34.000Z</time>
        <extensions>
          <ns3:TrackPointExtension>
            <ns3:hr>162</ns3:hr>
            <ns3:cad>0</ns3:cad>
          </ns3:TrackPointExtension>
        </extensions>
      </trkpt>
      <trkpt lat="47.53907888196408748626708984375" lon="10.2380328811705112457275390625">
        <ele>969.5999755859375</ele>
        <time>2026-09-01T07:07:38.000Z</time>
        <extensions>
          <ns3:TrackPointExtension>
            <ns3:hr>162</ns3:hr>
            <ns3:cad>0</ns3:cad>
          </ns3:TrackPointExtension>
        </extensions>
      </trkpt>
      <trkpt lat="47.5390715897083282470703125" lon="10.237999856472015380859375">
        <ele>969.79998779296875</ele>
        <time>2026-09-01T07:07:39.000Z</time>
        <extensions>
          <ns3:TrackPointExtension>
            <ns3:hr>162</ns3:hr>
            <ns3:cad>0</ns3:cad>
          </ns3:TrackPointExtension>
        </extensions>
      </trkpt>
      <trkpt lat="47.53906060941517353057861328125" lon="10.237925760447978973388671875">
        <ele>970.79998779296875</ele>
        <time>2026-09-01T07:07:42.000Z</time>
        <extensions>
          <ns3:TrackPointExtension>
            <ns3:hr>163</ns3:hr>
            <ns3:cad>0</ns3:cad>
          </ns3:TrackPointExtension>
        </extensions>
      </trkpt>
      <trkpt lat="47.53904954530298709869384765625" lon="10.23790254257619380950927734375">
        <ele>971.20001220703125</ele>
        <time>2026-09-01T07:07:43.000Z</time>
        <extensions>
          <ns3:TrackPointExtension>
            <ns3:hr>162</ns3:hr>
            <ns3:cad>0</ns3:cad>
          </ns3:TrackPointExtension>
        </extensions>
      </trkpt>
      <trkpt lat="47.53903211094439029693603515625" lon="10.237869434058666229248046875">
        <ele>972</ele>
        <time>2026-09-01T07:07:45.000Z</time>
        <extensions>
          <ns3:TrackPointExtension>
            <ns3:hr>163</ns3:hr>
            <ns3:cad>43</ns3:cad>
          </ns3:TrackPointExtension>
        </extensions>
      </trkpt>
      <trkpt lat="47.539019621908664703369140625" lon="10.23783951066434383392333984375">
        <ele>973.20001220703125</ele>
        <time>2026-09-01T07:07:47.000Z</time>
        <extensions>
          <ns3:TrackPointExtension>
            <ns3:hr>162</ns3:hr>
            <ns3:cad>43</ns3:cad>
          </ns3:TrackPointExtension>
        </extensions>
      </trkpt>
      <trkpt lat="47.53901593387126922607421875" lon="10.23781302385032176971435546875">
        <ele>974.4000244140625</ele>
        <time>2026-09-01T07:07:49.000Z</time>
        <extensions>
          <ns3:TrackPointExtension>
            <ns3:hr>162</ns3:hr>
            <ns3:cad>0</ns3:cad>
          </ns3:TrackPointExtension>
        </extensions>
      </trkpt>
      <trkpt lat="47.5390171073377132415771484375" lon="10.2377760596573352813720703125">
        <ele>975.79998779296875</ele>
        <time>2026-09-01T07:07:52.000Z</time>
        <extensions>
          <ns3:TrackPointExtension>
            <ns3:hr>163</ns3:hr>
            <ns3:cad>0</ns3:cad>
          </ns3:TrackPointExtension>
        </extensions>
      </trkpt>
      <trkpt lat="47.53900654613971710205078125" lon="10.23772132582962512969970703125">
        <ele>977.20001220703125</ele>
        <time>2026-09-01T07:07:55.000Z</time>
        <extensions>
          <ns3:TrackPointExtension>
            <ns3:hr>163</ns3:hr>
            <ns3:cad>0</ns3:cad>
          </ns3:TrackPointExtension>
        </extensions>
      </trkpt>
      <trkpt lat="47.5390016846358776092529296875" lon="10.23770690895617008209228515625">
        <ele>977.79998779296875</ele>
        <time>2026-09-01T07:07:56.000Z</time>
        <extensions>
          <ns3:TrackPointExtension>
            <ns3:hr>162</ns3:hr>
            <ns3:cad>0</ns3:cad>
          </ns3:TrackPointExtension>
        </extensions>
      </trkpt>
      <trkpt lat="47.53899673931300640106201171875" lon="10.2376634068787097930908203125">
        <ele>978.5999755859375</ele>
        <time>2026-09-01T07:07:58.000Z</time>
        <extensions>
          <ns3:TrackPointExtension>
            <ns3:hr>163</ns3:hr>
            <ns3:cad>0</ns3:cad>
          </ns3:TrackPointExtension>
        </extensions>
      </trkpt>
      <trkpt lat="47.5390140898525714874267578125" lon="10.237627364695072174072265625">
        <ele>979.79998779296875</ele>
        <time>2026-09-01T07:08:01.000Z</time>
        <extensions>
          <ns3:TrackPointExtension>
            <ns3:hr>163</ns3:hr>
            <ns3:cad>0</ns3:cad>
          </ns3:TrackPointExtension>
        </extensions>
      </trkpt>
      <trkpt lat="47.5390098989009857177734375" lon="10.237613953649997711181640625">
        <ele>980.5999755859375</ele>
        <time>2026-09-01T07:08:03.000Z</time>
        <extensions>
          <ns3:TrackPointExtension>
            <ns3:hr>164</ns3:hr>
            <ns3:cad>0</ns3:cad>
          </ns3:TrackPointExtension>
        </extensions>
      </trkpt>
      <trkpt lat="47.53901098854839801788330078125" lon="10.2376050688326358795166015625">
        <ele>981</ele>
        <time>2026-09-01T07:08:04.000Z</time>
        <extensions>
          <ns3:TrackPointExtension>
            <ns3:hr>164</ns3:hr>
            <ns3:cad>0</ns3:cad>
          </ns3:TrackPointExtension>
        </extensions>
      </trkpt>
      <trkpt lat="47.539011575281620025634765625" lon="10.23758268915116786956787109375">
        <ele>982</ele>
        <time>2026-09-01T07:08:06.000Z</time>
        <extensions>
          <ns3:TrackPointExtension>
            <ns3:hr>164</ns3:hr>
            <ns3:cad>60</ns3:cad>
          </ns3:TrackPointExtension>
        </extensions>
      </trkpt>
      <trkpt lat="47.539010234177112579345703125" lon="10.2375658415257930755615234375">
        <ele>982.4000244140625</ele>
        <time>2026-09-01T07:08:07.000Z</time>
        <extensions>
          <ns3:TrackPointExtension>
            <ns3:hr>164</ns3:hr>
            <ns3:cad>60</ns3:cad>
          </ns3:TrackPointExtension>
        </extensions>
      </trkpt>
      <trkpt lat="47.5390080548822879791259765625" lon="10.23752870969474315643310546875">
        <ele>983.5999755859375</ele>
        <time>2026-09-01T07:08:10.000Z</time>
        <extensions>
          <ns3:TrackPointExtension>
            <ns3:hr>164</ns3:hr>
            <ns3:cad>0</ns3:cad>
          </ns3:TrackPointExtension>
        </extensions>
      </trkpt>
      <trkpt lat="47.5390006788074970245361328125" lon="10.2375041507184505462646484375">
        <ele>984.4000244140625</ele>
        <time>2026-09-01T07:08:12.000Z</time>
        <extensions>
          <ns3:TrackPointExtension>
            <ns3:hr>164</ns3:hr>
            <ns3:cad>0</ns3:cad>
          </ns3:TrackPointExtension>
        </extensions>
      </trkpt>
      <trkpt lat="47.5389949791133403778076171875" lon="10.23748596198856830596923828125">
        <ele>984.79998779296875</ele>
        <time>2026-09-01T07:08:13.000Z</time>
        <extensions>
          <ns3:TrackPointExtension>
            <ns3:hr>163</ns3:hr>
            <ns3:cad>0</ns3:cad>
          </ns3:TrackPointExtension>
        </extensions>
      </trkpt>
      <trkpt lat="47.538990117609500885009765625" lon="10.2374406158924102783203125">
        <ele>986</ele>
        <time>2026-09-01T07:08:16.000Z</time>
        <extensions>
          <ns3:TrackPointExtension>
            <ns3:hr>164</ns3:hr>
            <ns3:cad>0</ns3:cad>
          </ns3:TrackPointExtension>
        </extensions>
      </trkpt>
      <trkpt lat="47.53899556584656238555908203125" lon="10.23740708827972412109375">
        <ele>987</ele>
        <time>2026-09-01T07:08:18.000Z</time>
        <extensions>
          <ns3:TrackPointExtension>
            <ns3:hr>164</ns3:hr>
            <ns3:cad>43</ns3:cad>
          </ns3:TrackPointExtension>
        </extensions>
      </trkpt>
      <trkpt lat="47.53899305127561092376708984375" lon="10.2373978681862354278564453125">
        <ele>987.20001220703125</ele>
        <time>2026-09-01T07:08:19.000Z</time>
        <extensions>
          <ns3:TrackPointExtension>
            <ns3:hr>164</ns3:hr>
            <ns3:cad>0</ns3:cad>
          </ns3:TrackPointExtension>
        </extensions>
      </trkpt>
      <trkpt lat="47.5390073843300342559814453125" lon="10.237367860972881317138671875">
        <ele>988.4000244140625</ele>
        <time>2026-09-01T07:08:22.000Z</time>
        <extensions>
          <ns3:TrackPointExtension>
            <ns3:hr>165</ns3:hr>
            <ns3:cad>0</ns3:cad>
          </ns3:TrackPointExtension>
        </extensions>
      </trkpt>
      <trkpt lat="47.53902305848896503448486328125" lon="10.2373448945581912994384765625">
        <ele>989.79998779296875</ele>
        <time>2026-09-01T07:08:25.000Z</time>
        <extensions>
          <ns3:TrackPointExtension>
            <ns3:hr>165</ns3:hr>
            <ns3:cad>0</ns3:cad>
          </ns3:TrackPointExtension>
        </extensions>
      </trkpt>
      <trkpt lat="47.5390332005918025970458984375" lon="10.23729686625301837921142578125">
        <ele>991</ele>
        <time>2026-09-01T07:08:28.000Z</time>
        <extensions>
          <ns3:TrackPointExtension>
            <ns3:hr>166</ns3:hr>
            <ns3:cad>57</ns3:cad>
          </ns3:TrackPointExtension>
        </extensions>
      </trkpt>
      <trkpt lat="47.53902775235474109649658203125" lon="10.23726602084934711456298828125">
        <ele>991.79998779296875</ele>
        <time>2026-09-01T07:08:30.000Z</time>
        <extensions>
          <ns3:TrackPointExtension>
            <ns3:hr>166</ns3:hr>
            <ns3:cad>0</ns3:cad>
          </ns3:TrackPointExtension>
        </extensions>
      </trkpt>
      <trkpt lat="47.53902708180248737335205078125" lon="10.23723819293081760406494140625">
        <ele>992</ele>
        <time>2026-09-01T07:08:31.000Z</time>
        <extensions>
          <ns3:TrackPointExtension>
            <ns3:hr>166</ns3:hr>
            <ns3:cad>0</ns3:cad>
          </ns3:TrackPointExtension>
        </extensions>
      </trkpt>
      <trkpt lat="47.53902154974639415740966796875" lon="10.23719988763332366943359375">
        <ele>992.79998779296875</ele>
        <time>2026-09-01T07:08:33.000Z</time>
        <extensions>
          <ns3:TrackPointExtension>
            <ns3:hr>166</ns3:hr>
            <ns3:cad>0</ns3:cad>
          </ns3:TrackPointExtension>
        </extensions>
      </trkpt>
      <trkpt lat="47.53902154974639415740966796875" lon="10.2371749095618724822998046875">
        <ele>993.20001220703125</ele>
        <time>2026-09-01T07:08:34.000Z</time>
        <extensions>
          <ns3:TrackPointExtension>
            <ns3:hr>166</ns3:hr>
            <ns3:cad>0</ns3:cad>
          </ns3:TrackPointExtension>
        </extensions>
      </trkpt>
      <trkpt lat="47.539021968841552734375" lon="10.23706602863967418670654296875">
        <ele>994.20001220703125</ele>
        <time>2026-09-01T07:08:38.000Z</time>
        <extensions>
          <ns3:TrackPointExtension>
            <ns3:hr>165</ns3:hr>
            <ns3:cad>0</ns3:cad>
          </ns3:TrackPointExtension>
        </extensions>
      </trkpt>
      <trkpt lat="47.5390419177711009979248046875" lon="10.2369631826877593994140625">
        <ele>995.4000244140625</ele>
        <time>2026-09-01T07:08:42.000Z</time>
        <extensions>
          <ns3:TrackPointExtension>
            <ns3:hr>165</ns3:hr>
            <ns3:cad>0</ns3:cad>
          </ns3:TrackPointExtension>
        </extensions>
      </trkpt>
      <trkpt lat="47.53904971294105052947998046875" lon="10.2369439043104648590087890625">
        <ele>995.79998779296875</ele>
        <time>2026-09-01T07:08:43.000Z</time>
        <extensions>
          <ns3:TrackPointExtension>
            <ns3:hr>165</ns3:hr>
            <ns3:cad>0</ns3:cad>
          </ns3:TrackPointExtension>
        </extensions>
      </trkpt>
      <trkpt lat="47.53907452337443828582763671875" lon="10.2369133941829204559326171875">
        <ele>996.5999755859375</ele>
        <time>2026-09-01T07:08:45.000Z</time>
        <extensions>
          <ns3:TrackPointExtension>
            <ns3:hr>164</ns3:hr>
            <ns3:cad>0</ns3:cad>
          </ns3:TrackPointExtension>
        </extensions>
      </trkpt>
      <trkpt lat="47.5390888564288616180419921875" lon="10.23684340529143810272216796875">
        <ele>997</ele>
        <time>2026-09-01T07:08:47.000Z</time>
        <extensions>
          <ns3:TrackPointExtension>
            <ns3:hr>164</ns3:hr>
            <ns3:cad>0</ns3:cad>
          </ns3:TrackPointExtension>
        </extensions>
      </trkpt>
      <trkpt lat="47.53908240236341953277587890625" lon="10.23680183105170726776123046875">
        <ele>997.20001220703125</ele>
        <time>2026-09-01T07:08:48.000Z</time>
        <extensions>
          <ns3:TrackPointExtension>
            <ns3:hr>164</ns3:hr>
            <ns3:cad>42</ns3:cad>
          </ns3:TrackPointExtension>
        </extensions>
      </trkpt>
      <trkpt lat="47.53905750811100006103515625" lon="10.2365814708173274993896484375">
        <ele>997</ele>
        <time>2026-09-01T07:08:54.000Z</time>
        <extensions>
          <ns3:TrackPointExtension>
            <ns3:hr>164</ns3:hr>
            <ns3:cad>42</ns3:cad>
          </ns3:TrackPointExtension>
        </extensions>
      </trkpt>
      <trkpt lat="47.53904870711266994476318359375" lon="10.23651458323001861572265625">
        <ele>997.5999755859375</ele>
        <time>2026-09-01T07:08:56.000Z</time>
        <extensions>
          <ns3:TrackPointExtension>
            <ns3:hr>164</ns3:hr>
            <ns3:cad>42</ns3:cad>
          </ns3:TrackPointExtension>
        </extensions>
      </trkpt>
      <trkpt lat="47.539053149521350860595703125" lon="10.23641626350581645965576171875">
        <ele>998.5999755859375</ele>
        <time>2026-09-01T07:08:59.000Z</time>
        <extensions>
          <ns3:TrackPointExtension>
            <ns3:hr>164</ns3:hr>
            <ns3:cad>43</ns3:cad>
          </ns3:TrackPointExtension>
        </extensions>
      </trkpt>
      <trkpt lat="47.539044432342052459716796875" lon="10.23634937591850757598876953125">
        <ele>999.79998779296875</ele>
        <time>2026-09-01T07:09:02.000Z</time>
        <extensions>
          <ns3:TrackPointExtension>
            <ns3:hr>165</ns3:hr>
            <ns3:cad>84</ns3:cad>
          </ns3:TrackPointExtension>
        </extensions>
      </trkpt>
      <trkpt lat="47.53904677927494049072265625" lon="10.2363320253789424896240234375">
        <ele>1000.20001220703125</ele>
        <time>2026-09-01T07:09:03.000Z</time>
        <extensions>
          <ns3:TrackPointExtension>
            <ns3:hr>164</ns3:hr>
            <ns3:cad>0</ns3:cad>
          </ns3:TrackPointExtension>
        </extensions>
      </trkpt>
      <trkpt lat="47.53905641846358776092529296875" lon="10.236308388411998748779296875">
        <ele>1001.20001220703125</ele>
        <time>2026-09-01T07:09:05.000Z</time>
        <extensions>
          <ns3:TrackPointExtension>
            <ns3:hr>165</ns3:hr>
            <ns3:cad>85</ns3:cad>
          </ns3:TrackPointExtension>
        </extensions>
      </trkpt>
      <trkpt lat="47.53906019032001495361328125" lon="10.23626245558261871337890625">
        <ele>1002.20001220703125</ele>
        <time>2026-09-01T07:09:07.000Z</time>
        <extensions>
          <ns3:TrackPointExtension>
            <ns3:hr>164</ns3:hr>
            <ns3:cad>85</ns3:cad>
          </ns3:TrackPointExtension>
        </extensions>
      </trkpt>
      <trkpt lat="47.5390583463013172149658203125" lon="10.236242674291133880615234375">
        <ele>1002.79998779296875</ele>
        <time>2026-09-01T07:09:08.000Z</time>
        <extensions>
          <ns3:TrackPointExtension>
            <ns3:hr>165</ns3:hr>
            <ns3:cad>85</ns3:cad>
          </ns3:TrackPointExtension>
        </extensions>
      </trkpt>
      <trkpt lat="47.539055831730365753173828125" lon="10.2362173609435558319091796875">
        <ele>1003.4000244140625</ele>
        <time>2026-09-01T07:09:09.000Z</time>
        <extensions>
          <ns3:TrackPointExtension>
            <ns3:hr>165</ns3:hr>
            <ns3:cad>85</ns3:cad>
          </ns3:TrackPointExtension>
        </extensions>
      </trkpt>
      <trkpt lat="47.5390476174652576446533203125" lon="10.2361811511218547821044921875">
        <ele>1004.5999755859375</ele>
        <time>2026-09-01T07:09:12.000Z</time>
        <extensions>
          <ns3:TrackPointExtension>
            <ns3:hr>164</ns3:hr>
            <ns3:cad>0</ns3:cad>
          </ns3:TrackPointExtension>
        </extensions>
      </trkpt>
      <trkpt lat="47.53904803656041622161865234375" lon="10.2361630462110042572021484375">
        <ele>1005</ele>
        <time>2026-09-01T07:09:13.000Z</time>
        <extensions>
          <ns3:TrackPointExtension>
            <ns3:hr>165</ns3:hr>
            <ns3:cad>0</ns3:cad>
          </ns3:TrackPointExtension>
        </extensions>
      </trkpt>
      <trkpt lat="47.5390476174652576446533203125" lon="10.23612692020833492279052734375">
        <ele>1005.79998779296875</ele>
        <time>2026-09-01T07:09:15.000Z</time>
        <extensions>
          <ns3:TrackPointExtension>
            <ns3:hr>165</ns3:hr>
            <ns3:cad>0</ns3:cad>
          </ns3:TrackPointExtension>
        </extensions>
      </trkpt>
      <trkpt lat="47.5390549935400485992431640625" lon="10.23608534596860408782958984375">
        <ele>1007.20001220703125</ele>
        <time>2026-09-01T07:09:18.000Z</time>
        <extensions>
          <ns3:TrackPointExtension>
            <ns3:hr>165</ns3:hr>
            <ns3:cad>0</ns3:cad>
          </ns3:TrackPointExtension>
        </extensions>
      </trkpt>
      <trkpt lat="47.53905692137777805328369140625" lon="10.2360765449702739715576171875">
        <ele>1007.5999755859375</ele>
        <time>2026-09-01T07:09:19.000Z</time>
        <extensions>
          <ns3:TrackPointExtension>
            <ns3:hr>165</ns3:hr>
            <ns3:cad>0</ns3:cad>
          </ns3:TrackPointExtension>
        </extensions>
      </trkpt>
      <trkpt lat="47.539051808416843414306640625" lon="10.236041843891143798828125">
        <ele>1008.4000244140625</ele>
        <time>2026-09-01T07:09:21.000Z</time>
        <extensions>
          <ns3:TrackPointExtension>
            <ns3:hr>165</ns3:hr>
            <ns3:cad>0</ns3:cad>
          </ns3:TrackPointExtension>
        </extensions>
      </trkpt>
      <trkpt lat="47.53903529606759548187255859375" lon="10.23599850945174694061279296875">
        <ele>1009.5999755859375</ele>
        <time>2026-09-01T07:09:24.000Z</time>
        <extensions>
          <ns3:TrackPointExtension>
            <ns3:hr>165</ns3:hr>
            <ns3:cad>0</ns3:cad>
          </ns3:TrackPointExtension>
        </extensions>
      </trkpt>
      <trkpt lat="47.539035715162754058837890625" lon="10.2359498105943202972412109375">
        <ele>1010.79998779296875</ele>
        <time>2026-09-01T07:09:27.000Z</time>
        <extensions>
          <ns3:TrackPointExtension>
            <ns3:hr>164</ns3:hr>
            <ns3:cad>0</ns3:cad>
          </ns3:TrackPointExtension>
        </extensions>
      </trkpt>
      <trkpt lat="47.5390367209911346435546875" lon="10.23594553582370281219482421875">
        <ele>1011.20001220703125</ele>
        <time>2026-09-01T07:09:28.000Z</time>
        <extensions>
          <ns3:TrackPointExtension>
            <ns3:hr>164</ns3:hr>
            <ns3:cad>0</ns3:cad>
          </ns3:TrackPointExtension>
        </extensions>
      </trkpt>
      <trkpt lat="47.53903336822986602783203125" lon="10.235933549702167510986328125">
        <ele>1011.5999755859375</ele>
        <time>2026-09-01T07:09:29.000Z</time>
        <extensions>
          <ns3:TrackPointExtension>
            <ns3:hr>163</ns3:hr>
            <ns3:cad>0</ns3:cad>
          </ns3:TrackPointExtension>
        </extensions>
      </trkpt>
      <trkpt lat="47.5390326976776123046875" lon="10.23593388497829437255859375">
        <ele>1012</ele>
        <time>2026-09-01T07:09:30.000Z</time>
        <extensions>
          <ns3:TrackPointExtension>
            <ns3:hr>163</ns3:hr>
            <ns3:cad>0</ns3:cad>
          </ns3:TrackPointExtension>
        </extensions>
      </trkpt>
      <trkpt lat="47.53903194330632686614990234375" lon="10.23587915115058422088623046875">
        <ele>1013.20001220703125</ele>
        <time>2026-09-01T07:09:33.000Z</time>
        <extensions>
          <ns3:TrackPointExtension>
            <ns3:hr>162</ns3:hr>
            <ns3:cad>0</ns3:cad>
          </ns3:TrackPointExtension>
        </extensions>
      </trkpt>
      <trkpt lat="47.5390315242111682891845703125" lon="10.23583489470183849334716796875">
        <ele>1014.4000244140625</ele>
        <time>2026-09-01T07:09:36.000Z</time>
        <extensions>
          <ns3:TrackPointExtension>
            <ns3:hr>161</ns3:hr>
            <ns3:cad>0</ns3:cad>
          </ns3:TrackPointExtension>
        </extensions>
      </trkpt>
      <trkpt lat="47.53903144039213657379150390625" lon="10.2357979305088520050048828125">
        <ele>1015.5999755859375</ele>
        <time>2026-09-01T07:09:39.000Z</time>
        <extensions>
          <ns3:TrackPointExtension>
            <ns3:hr>160</ns3:hr>
            <ns3:cad>0</ns3:cad>
          </ns3:TrackPointExtension>
        </extensions>
      </trkpt>
      <trkpt lat="47.5390251539647579193115234375" lon="10.23573900572955608367919921875">
        <ele>1016.79998779296875</ele>
        <time>2026-09-01T07:09:42.000Z</time>
        <extensions>
          <ns3:TrackPointExtension>
            <ns3:hr>160</ns3:hr>
            <ns3:cad>0</ns3:cad>
          </ns3:TrackPointExtension>
        </extensions>
      </trkpt>
      <trkpt lat="47.53902490250766277313232421875" lon="10.23570732213556766510009765625">
        <ele>1017.5999755859375</ele>
        <time>2026-09-01T07:09:44.000Z</time>
        <extensions>
          <ns3:TrackPointExtension>
            <ns3:hr>160</ns3:hr>
            <ns3:cad>0</ns3:cad>
          </ns3:TrackPointExtension>
        </extensions>
      </trkpt>
      <trkpt lat="47.53902791999280452728271484375" lon="10.23569240234792232513427734375">
        <ele>1018</ele>
        <time>2026-09-01T07:09:45.000Z</time>
        <extensions>
          <ns3:TrackPointExtension>
            <ns3:hr>160</ns3:hr>
            <ns3:cad>0</ns3:cad>
          </ns3:TrackPointExtension>
        </extensions>
      </trkpt>
      <trkpt lat="47.539044432342052459716796875" lon="10.235665999352931976318359375">
        <ele>1018.79998779296875</ele>
        <time>2026-09-01T07:09:47.000Z</time>
        <extensions>
          <ns3:TrackPointExtension>
            <ns3:hr>161</ns3:hr>
            <ns3:cad>0</ns3:cad>
          </ns3:TrackPointExtension>
        </extensions>
      </trkpt>
      <trkpt lat="47.5390372239053249359130859375" lon="10.235637165606021881103515625">
        <ele>1019.4000244140625</ele>
        <time>2026-09-01T07:09:49.000Z</time>
        <extensions>
          <ns3:TrackPointExtension>
            <ns3:hr>161</ns3:hr>
            <ns3:cad>0</ns3:cad>
          </ns3:TrackPointExtension>
        </extensions>
      </trkpt>
      <trkpt lat="47.53901953808963298797607421875" lon="10.2355333976447582244873046875">
        <ele>1020.4000244140625</ele>
        <time>2026-09-01T07:09:53.000Z</time>
        <extensions>
          <ns3:TrackPointExtension>
            <ns3:hr>162</ns3:hr>
            <ns3:cad>0</ns3:cad>
          </ns3:TrackPointExtension>
        </extensions>
      </trkpt>
      <trkpt lat="47.53901995718479156494140625" lon="10.23551135323941707611083984375">
        <ele>1020.79998779296875</ele>
        <time>2026-09-01T07:09:54.000Z</time>
        <extensions>
          <ns3:TrackPointExtension>
            <ns3:hr>162</ns3:hr>
            <ns3:cad>0</ns3:cad>
          </ns3:TrackPointExtension>
        </extensions>
      </trkpt>
      <trkpt lat="47.5390197895467281341552734375" lon="10.23545687086880207061767578125">
        <ele>1021.4000244140625</ele>
        <time>2026-09-01T07:09:56.000Z</time>
        <extensions>
          <ns3:TrackPointExtension>
            <ns3:hr>162</ns3:hr>
            <ns3:cad>0</ns3:cad>
          </ns3:TrackPointExtension>
        </extensions>
      </trkpt>
      <trkpt lat="47.5390098989009857177734375" lon="10.23541982285678386688232421875">
        <ele>1022.20001220703125</ele>
        <time>2026-09-01T07:09:58.000Z</time>
        <extensions>
          <ns3:TrackPointExtension>
            <ns3:hr>162</ns3:hr>
            <ns3:cad>41</ns3:cad>
          </ns3:TrackPointExtension>
        </extensions>
      </trkpt>
      <trkpt lat="47.53901232965290546417236328125" lon="10.2354002930223941802978515625">
        <ele>1022.4000244140625</ele>
        <time>2026-09-01T07:09:59.000Z</time>
        <extensions>
          <ns3:TrackPointExtension>
            <ns3:hr>163</ns3:hr>
            <ns3:cad>83</ns3:cad>
          </ns3:TrackPointExtension>
        </extensions>
      </trkpt>
      <trkpt lat="47.5390233099460601806640625" lon="10.235295854508876800537109375">
        <ele>1023.79998779296875</ele>
        <time>2026-09-01T07:10:03.000Z</time>
        <extensions>
          <ns3:TrackPointExtension>
            <ns3:hr>162</ns3:hr>
            <ns3:cad>41</ns3:cad>
          </ns3:TrackPointExtension>
        </extensions>
      </trkpt>
      <trkpt lat="47.53900646232068538665771484375" lon="10.23525536991655826568603515625">
        <ele>1025</ele>
        <time>2026-09-01T07:10:06.000Z</time>
        <extensions>
          <ns3:TrackPointExtension>
            <ns3:hr>163</ns3:hr>
            <ns3:cad>81</ns3:cad>
          </ns3:TrackPointExtension>
        </extensions>
      </trkpt>
      <trkpt lat="47.539016939699649810791015625" lon="10.23513458669185638427734375">
        <ele>1026.199951171875</ele>
        <time>2026-09-01T07:10:10.000Z</time>
        <extensions>
          <ns3:TrackPointExtension>
            <ns3:hr>163</ns3:hr>
            <ns3:cad>40</ns3:cad>
          </ns3:TrackPointExtension>
        </extensions>
      </trkpt>
      <trkpt lat="47.53902071155607700347900390625" lon="10.235105417668819427490234375">
        <ele>1026.4000244140625</ele>
        <time>2026-09-01T07:10:11.000Z</time>
        <extensions>
          <ns3:TrackPointExtension>
            <ns3:hr>163</ns3:hr>
            <ns3:cad>40</ns3:cad>
          </ns3:TrackPointExtension>
        </extensions>
      </trkpt>
      <trkpt lat="47.53900461830198764801025390625" lon="10.23504381068050861358642578125">
        <ele>1027.199951171875</ele>
        <time>2026-09-01T07:10:14.000Z</time>
        <extensions>
          <ns3:TrackPointExtension>
            <ns3:hr>164</ns3:hr>
            <ns3:cad>40</ns3:cad>
          </ns3:TrackPointExtension>
        </extensions>
      </trkpt>
      <trkpt lat="47.5390026904642581939697265625" lon="10.23500709794461727142333984375">
        <ele>1027.800048828125</ele>
        <time>2026-09-01T07:10:16.000Z</time>
        <extensions>
          <ns3:TrackPointExtension>
            <ns3:hr>163</ns3:hr>
            <ns3:cad>41</ns3:cad>
          </ns3:TrackPointExtension>
        </extensions>
      </trkpt>
      <trkpt lat="47.53900411538779735565185546875" lon="10.234962590038776397705078125">
        <ele>1028.199951171875</ele>
        <time>2026-09-01T07:10:18.000Z</time>
        <extensions>
          <ns3:TrackPointExtension>
            <ns3:hr>164</ns3:hr>
            <ns3:cad>83</ns3:cad>
          </ns3:TrackPointExtension>
        </extensions>
      </trkpt>
      <trkpt lat="47.53900361247360706329345703125" lon="10.23488690145313739776611328125">
        <ele>1028.800048828125</ele>
        <time>2026-09-01T07:10:21.000Z</time>
        <extensions>
          <ns3:TrackPointExtension>
            <ns3:hr>163</ns3:hr>
            <ns3:cad>83</ns3:cad>
          </ns3:TrackPointExtension>
        </extensions>
      </trkpt>
      <trkpt lat="47.5389782153069972991943359375" lon="10.23470409214496612548828125">
        <ele>1029.4000244140625</ele>
        <time>2026-09-01T07:10:26.000Z</time>
        <extensions>
          <ns3:TrackPointExtension>
            <ns3:hr>163</ns3:hr>
            <ns3:cad>83</ns3:cad>
          </ns3:TrackPointExtension>
        </extensions>
      </trkpt>
      <trkpt lat="47.5389698334038257598876953125" lon="10.2346698939800262451171875">
        <ele>1029.5999755859375</ele>
        <time>2026-09-01T07:10:27.000Z</time>
        <extensions>
          <ns3:TrackPointExtension>
            <ns3:hr>163</ns3:hr>
            <ns3:cad>83</ns3:cad>
          </ns3:TrackPointExtension>
        </extensions>
      </trkpt>
      <trkpt lat="47.53896094858646392822265625" lon="10.23458213545382022857666015625">
        <ele>1030.5999755859375</ele>
        <time>2026-09-01T07:10:30.000Z</time>
        <extensions>
          <ns3:TrackPointExtension>
            <ns3:hr>163</ns3:hr>
            <ns3:cad>82</ns3:cad>
          </ns3:TrackPointExtension>
        </extensions>
      </trkpt>
      <trkpt lat="47.53896153531968593597412109375" lon="10.234546177089214324951171875">
        <ele>1031.4000244140625</ele>
        <time>2026-09-01T07:10:32.000Z</time>
        <extensions>
          <ns3:TrackPointExtension>
            <ns3:hr>162</ns3:hr>
            <ns3:cad>82</ns3:cad>
          </ns3:TrackPointExtension>
        </extensions>
      </trkpt>
      <trkpt lat="47.538962624967098236083984375" lon="10.2345285750925540924072265625">
        <ele>1031.800048828125</ele>
        <time>2026-09-01T07:10:33.000Z</time>
        <extensions>
          <ns3:TrackPointExtension>
            <ns3:hr>162</ns3:hr>
            <ns3:cad>82</ns3:cad>
          </ns3:TrackPointExtension>
        </extensions>
      </trkpt>
      <trkpt lat="47.538972683250904083251953125" lon="10.23447769694030284881591796875">
        <ele>1033.199951171875</ele>
        <time>2026-09-01T07:10:36.000Z</time>
        <extensions>
          <ns3:TrackPointExtension>
            <ns3:hr>162</ns3:hr>
            <ns3:cad>82</ns3:cad>
          </ns3:TrackPointExtension>
        </extensions>
      </trkpt>
      <trkpt lat="47.53897645510733127593994140625" lon="10.23444165475666522979736328125">
        <ele>1034.199951171875</ele>
        <time>2026-09-01T07:10:38.000Z</time>
        <extensions>
          <ns3:TrackPointExtension>
            <ns3:hr>162</ns3:hr>
            <ns3:cad>45</ns3:cad>
          </ns3:TrackPointExtension>
        </extensions>
      </trkpt>
      <trkpt lat="47.53897947259247303009033203125" lon="10.23443059064447879791259765625">
        <ele>1034.5999755859375</ele>
        <time>2026-09-01T07:10:39.000Z</time>
        <extensions>
          <ns3:TrackPointExtension>
            <ns3:hr>162</ns3:hr>
            <ns3:cad>45</ns3:cad>
          </ns3:TrackPointExtension>
        </extensions>
      </trkpt>
      <trkpt lat="47.53897611983120441436767578125" lon="10.23438532836735248565673828125">
        <ele>1036</ele>
        <time>2026-09-01T07:10:42.000Z</time>
        <extensions>
          <ns3:TrackPointExtension>
            <ns3:hr>162</ns3:hr>
            <ns3:cad>0</ns3:cad>
          </ns3:TrackPointExtension>
        </extensions>
      </trkpt>
      <trkpt lat="47.5389748625457286834716796875" lon="10.23436655290424823760986328125">
        <ele>1036.4000244140625</ele>
        <time>2026-09-01T07:10:43.000Z</time>
        <extensions>
          <ns3:TrackPointExtension>
            <ns3:hr>162</ns3:hr>
            <ns3:cad>0</ns3:cad>
          </ns3:TrackPointExtension>
        </extensions>
      </trkpt>
      <trkpt lat="47.53897209651768207550048828125" lon="10.23433922789990901947021484375">
        <ele>1037.199951171875</ele>
        <time>2026-09-01T07:10:45.000Z</time>
        <extensions>
          <ns3:TrackPointExtension>
            <ns3:hr>162</ns3:hr>
            <ns3:cad>0</ns3:cad>
          </ns3:TrackPointExtension>
        </extensions>
      </trkpt>
      <trkpt lat="47.53897092305123805999755859375" lon="10.23429731838405132293701171875">
        <ele>1038.4000244140625</ele>
        <time>2026-09-01T07:10:48.000Z</time>
        <extensions>
          <ns3:TrackPointExtension>
            <ns3:hr>161</ns3:hr>
            <ns3:cad>0</ns3:cad>
          </ns3:TrackPointExtension>
        </extensions>
      </trkpt>
      <trkpt lat="47.53896522335708141326904296875" lon="10.23424266837537288665771484375">
        <ele>1039.4000244140625</ele>
        <time>2026-09-01T07:10:51.000Z</time>
        <extensions>
          <ns3:TrackPointExtension>
            <ns3:hr>162</ns3:hr>
            <ns3:cad>0</ns3:cad>
          </ns3:TrackPointExtension>
        </extensions>
      </trkpt>
      <trkpt lat="47.53896757028996944427490234375" lon="10.23421701975166797637939453125">
        <ele>1040.4000244140625</ele>
        <time>2026-09-01T07:10:53.000Z</time>
        <extensions>
          <ns3:TrackPointExtension>
            <ns3:hr>161</ns3:hr>
            <ns3:cad>0</ns3:cad>
          </ns3:TrackPointExtension>
        </extensions>
      </trkpt>
      <trkpt lat="47.53896790556609630584716796875" lon="10.2342033572494983673095703125">
        <ele>1040.800048828125</ele>
        <time>2026-09-01T07:10:54.000Z</time>
        <extensions>
          <ns3:TrackPointExtension>
            <ns3:hr>162</ns3:hr>
            <ns3:cad>0</ns3:cad>
          </ns3:TrackPointExtension>
        </extensions>
      </trkpt>
      <trkpt lat="47.5389664806425571441650390625" lon="10.23415633477270603179931640625">
        <ele>1042.199951171875</ele>
        <time>2026-09-01T07:10:57.000Z</time>
        <extensions>
          <ns3:TrackPointExtension>
            <ns3:hr>162</ns3:hr>
            <ns3:cad>0</ns3:cad>
          </ns3:TrackPointExtension>
        </extensions>
      </trkpt>
      <trkpt lat="47.5389705039560794830322265625" lon="10.23412347771227359771728515625">
        <ele>1043.4000244140625</ele>
        <time>2026-09-01T07:11:00.000Z</time>
        <extensions>
          <ns3:TrackPointExtension>
            <ns3:hr>162</ns3:hr>
            <ns3:cad>0</ns3:cad>
          </ns3:TrackPointExtension>
        </extensions>
      </trkpt>
      <trkpt lat="47.538973353803157806396484375" lon="10.2340752817690372467041015625">
        <ele>1044.4000244140625</ele>
        <time>2026-09-01T07:11:03.000Z</time>
        <extensions>
          <ns3:TrackPointExtension>
            <ns3:hr>162</ns3:hr>
            <ns3:cad>0</ns3:cad>
          </ns3:TrackPointExtension>
        </extensions>
      </trkpt>
      <trkpt lat="47.53896589390933513641357421875" lon="10.2340618707239627838134765625">
        <ele>1044.800048828125</ele>
        <time>2026-09-01T07:11:04.000Z</time>
        <extensions>
          <ns3:TrackPointExtension>
            <ns3:hr>162</ns3:hr>
            <ns3:cad>0</ns3:cad>
          </ns3:TrackPointExtension>
        </extensions>
      </trkpt>
      <trkpt lat="47.53896421752870082855224609375" lon="10.23404988460242748260498046875">
        <ele>1045.199951171875</ele>
        <time>2026-09-01T07:11:05.000Z</time>
        <extensions>
          <ns3:TrackPointExtension>
            <ns3:hr>163</ns3:hr>
            <ns3:cad>0</ns3:cad>
          </ns3:TrackPointExtension>
        </extensions>
      </trkpt>
      <trkpt lat="47.5389644689857959747314453125" lon="10.23404619656503200531005859375">
        <ele>1045.800048828125</ele>
        <time>2026-09-01T07:11:06.000Z</time>
        <extensions>
          <ns3:TrackPointExtension>
            <ns3:hr>163</ns3:hr>
            <ns3:cad>0</ns3:cad>
          </ns3:TrackPointExtension>
        </extensions>
      </trkpt>
      <trkpt lat="47.53896974958479404449462890625" lon="10.23403211496770381927490234375">
        <ele>1046.800048828125</ele>
        <time>2026-09-01T07:11:08.000Z</time>
        <extensions>
          <ns3:TrackPointExtension>
            <ns3:hr>163</ns3:hr>
            <ns3:cad>0</ns3:cad>
          </ns3:TrackPointExtension>
        </extensions>
      </trkpt>
      <trkpt lat="47.53896824084222316741943359375" lon="10.23399188183248043060302734375">
        <ele>1047.199951171875</ele>
        <time>2026-09-01T07:11:09.000Z</time>
        <extensions>
          <ns3:TrackPointExtension>
            <ns3:hr>163</ns3:hr>
            <ns3:cad>0</ns3:cad>
          </ns3:TrackPointExtension>
        </extensions>
      </trkpt>
      <trkpt lat="47.53897125832736492156982421875" lon="10.233954079449176788330078125">
        <ele>1047.800048828125</ele>
        <time>2026-09-01T07:11:11.000Z</time>
        <extensions>
          <ns3:TrackPointExtension>
            <ns3:hr>163</ns3:hr>
            <ns3:cad>0</ns3:cad>
          </ns3:TrackPointExtension>
        </extensions>
      </trkpt>
      <trkpt lat="47.53897846676409244537353515625" lon="10.23391225375235080718994140625">
        <ele>1048.4000244140625</ele>
        <time>2026-09-01T07:11:13.000Z</time>
        <extensions>
          <ns3:TrackPointExtension>
            <ns3:hr>163</ns3:hr>
            <ns3:cad>0</ns3:cad>
          </ns3:TrackPointExtension>
        </extensions>
      </trkpt>
      <trkpt lat="47.53898567520081996917724609375" lon="10.23389666341245174407958984375">
        <ele>1049</ele>
        <time>2026-09-01T07:11:14.000Z</time>
        <extensions>
          <ns3:TrackPointExtension>
            <ns3:hr>163</ns3:hr>
            <ns3:cad>0</ns3:cad>
          </ns3:TrackPointExtension>
        </extensions>
      </trkpt>
      <trkpt lat="47.53900780342519283294677734375" lon="10.23382072336971759796142578125">
        <ele>1050.199951171875</ele>
        <time>2026-09-01T07:11:18.000Z</time>
        <extensions>
          <ns3:TrackPointExtension>
            <ns3:hr>163</ns3:hr>
            <ns3:cad>0</ns3:cad>
          </ns3:TrackPointExtension>
        </extensions>
      </trkpt>
      <trkpt lat="47.53901266492903232574462890625" lon="10.2337752096354961395263671875">
        <ele>1051.4000244140625</ele>
        <time>2026-09-01T07:11:21.000Z</time>
        <extensions>
          <ns3:TrackPointExtension>
            <ns3:hr>162</ns3:hr>
            <ns3:cad>0</ns3:cad>
          </ns3:TrackPointExtension>
        </extensions>
      </trkpt>
      <trkpt lat="47.53901333548128604888916015625" lon="10.23375232703983783721923828125">
        <ele>1052.4000244140625</ele>
        <time>2026-09-01T07:11:23.000Z</time>
        <extensions>
          <ns3:TrackPointExtension>
            <ns3:hr>163</ns3:hr>
            <ns3:cad>15</ns3:cad>
          </ns3:TrackPointExtension>
        </extensions>
      </trkpt>
      <trkpt lat="47.5390134193003177642822265625" lon="10.233739502727985382080078125">
        <ele>1052.800048828125</ele>
        <time>2026-09-01T07:11:24.000Z</time>
        <extensions>
          <ns3:TrackPointExtension>
            <ns3:hr>162</ns3:hr>
            <ns3:cad>15</ns3:cad>
          </ns3:TrackPointExtension>
        </extensions>
      </trkpt>
      <trkpt lat="47.53901786170899868011474609375" lon="10.2337054722011089324951171875">
        <ele>1054</ele>
        <time>2026-09-01T07:11:27.000Z</time>
        <extensions>
          <ns3:TrackPointExtension>
            <ns3:hr>162</ns3:hr>
            <ns3:cad>0</ns3:cad>
          </ns3:TrackPointExtension>
        </extensions>
      </trkpt>
      <trkpt lat="47.53902724944055080413818359375" lon="10.23367236368358135223388671875">
        <ele>1055.199951171875</ele>
        <time>2026-09-01T07:11:30.000Z</time>
        <extensions>
          <ns3:TrackPointExtension>
            <ns3:hr>162</ns3:hr>
            <ns3:cad>57</ns3:cad>
          </ns3:TrackPointExtension>
        </extensions>
      </trkpt>
      <trkpt lat="47.5390394032001495361328125" lon="10.23364185355603694915771484375">
        <ele>1056</ele>
        <time>2026-09-01T07:11:32.000Z</time>
        <extensions>
          <ns3:TrackPointExtension>
            <ns3:hr>161</ns3:hr>
            <ns3:cad>0</ns3:cad>
          </ns3:TrackPointExtension>
        </extensions>
      </trkpt>
      <trkpt lat="47.53904367797076702117919921875" lon="10.2336374111473560333251953125">
        <ele>1056.5999755859375</ele>
        <time>2026-09-01T07:11:33.000Z</time>
        <extensions>
          <ns3:TrackPointExtension>
            <ns3:hr>161</ns3:hr>
            <ns3:cad>0</ns3:cad>
          </ns3:TrackPointExtension>
        </extensions>
      </trkpt>
      <trkpt lat="47.53905926831066608428955078125" lon="10.2335884608328342437744140625">
        <ele>1057.5999755859375</ele>
        <time>2026-09-01T07:11:36.000Z</time>
        <extensions>
          <ns3:TrackPointExtension>
            <ns3:hr>160</ns3:hr>
            <ns3:cad>0</ns3:cad>
          </ns3:TrackPointExtension>
        </extensions>
      </trkpt>
      <trkpt lat="47.5390630401670932769775390625" lon="10.23354747332632541656494140625">
        <ele>1058.199951171875</ele>
        <time>2026-09-01T07:11:38.000Z</time>
        <extensions>
          <ns3:TrackPointExtension>
            <ns3:hr>160</ns3:hr>
            <ns3:cad>0</ns3:cad>
          </ns3:TrackPointExtension>
        </extensions>
      </trkpt>
      <trkpt lat="47.53906211815774440765380859375" lon="10.23350112140178680419921875">
        <ele>1059</ele>
        <time>2026-09-01T07:11:40.000Z</time>
        <extensions>
          <ns3:TrackPointExtension>
            <ns3:hr>161</ns3:hr>
            <ns3:cad>0</ns3:cad>
          </ns3:TrackPointExtension>
        </extensions>
      </trkpt>
      <trkpt lat="47.53904954530298709869384765625" lon="10.2334808371961116790771484375">
        <ele>1060</ele>
        <time>2026-09-01T07:11:42.000Z</time>
        <extensions>
          <ns3:TrackPointExtension>
            <ns3:hr>162</ns3:hr>
            <ns3:cad>0</ns3:cad>
          </ns3:TrackPointExtension>
        </extensions>
      </trkpt>
      <trkpt lat="47.53904853947460651397705078125" lon="10.2334694378077983856201171875">
        <ele>1060.4000244140625</ele>
        <time>2026-09-01T07:11:43.000Z</time>
        <extensions>
          <ns3:TrackPointExtension>
            <ns3:hr>161</ns3:hr>
            <ns3:cad>0</ns3:cad>
          </ns3:TrackPointExtension>
        </extensions>
      </trkpt>
      <trkpt lat="47.53905214369297027587890625" lon="10.23345393128693103790283203125">
        <ele>1060.800048828125</ele>
        <time>2026-09-01T07:11:44.000Z</time>
        <extensions>
          <ns3:TrackPointExtension>
            <ns3:hr>162</ns3:hr>
            <ns3:cad>0</ns3:cad>
          </ns3:TrackPointExtension>
        </extensions>
      </trkpt>
      <trkpt lat="47.53904971294105052947998046875" lon="10.23343951441347599029541015625">
        <ele>1061.199951171875</ele>
        <time>2026-09-01T07:11:45.000Z</time>
        <extensions>
          <ns3:TrackPointExtension>
            <ns3:hr>161</ns3:hr>
            <ns3:cad>0</ns3:cad>
          </ns3:TrackPointExtension>
        </extensions>
      </trkpt>
      <trkpt lat="47.5390581786632537841796875" lon="10.2333832718431949615478515625">
        <ele>1062.4000244140625</ele>
        <time>2026-09-01T07:11:49.000Z</time>
        <extensions>
          <ns3:TrackPointExtension>
            <ns3:hr>163</ns3:hr>
            <ns3:cad>0</ns3:cad>
          </ns3:TrackPointExtension>
        </extensions>
      </trkpt>
      <trkpt lat="47.539067231118679046630859375" lon="10.23334044031798839569091796875">
        <ele>1063.5999755859375</ele>
        <time>2026-09-01T07:11:52.000Z</time>
        <extensions>
          <ns3:TrackPointExtension>
            <ns3:hr>163</ns3:hr>
            <ns3:cad>0</ns3:cad>
          </ns3:TrackPointExtension>
        </extensions>
      </trkpt>
      <trkpt lat="47.53907016478478908538818359375" lon="10.23332585580646991729736328125">
        <ele>1064</ele>
        <time>2026-09-01T07:11:53.000Z</time>
        <extensions>
          <ns3:TrackPointExtension>
            <ns3:hr>163</ns3:hr>
            <ns3:cad>0</ns3:cad>
          </ns3:TrackPointExtension>
        </extensions>
      </trkpt>
      <trkpt lat="47.5390754453837871551513671875" lon="10.233289562165737152099609375">
        <ele>1064.800048828125</ele>
        <time>2026-09-01T07:11:56.000Z</time>
        <extensions>
          <ns3:TrackPointExtension>
            <ns3:hr>163</ns3:hr>
            <ns3:cad>0</ns3:cad>
          </ns3:TrackPointExtension>
        </extensions>
      </trkpt>
      <trkpt lat="47.53910050727427005767822265625" lon="10.2332380972802639007568359375">
        <ele>1065.800048828125</ele>
        <time>2026-09-01T07:11:59.000Z</time>
        <extensions>
          <ns3:TrackPointExtension>
            <ns3:hr>162</ns3:hr>
            <ns3:cad>0</ns3:cad>
          </ns3:TrackPointExtension>
        </extensions>
      </trkpt>
      <trkpt lat="47.539119534194469451904296875" lon="10.233178921043872833251953125">
        <ele>1067</ele>
        <time>2026-09-01T07:12:02.000Z</time>
        <extensions>
          <ns3:TrackPointExtension>
            <ns3:hr>162</ns3:hr>
            <ns3:cad>0</ns3:cad>
          </ns3:TrackPointExtension>
        </extensions>
      </trkpt>
      <trkpt lat="47.53909774124622344970703125" lon="10.2331517636775970458984375">
        <ele>1068</ele>
        <time>2026-09-01T07:12:04.000Z</time>
        <extensions>
          <ns3:TrackPointExtension>
            <ns3:hr>162</ns3:hr>
            <ns3:cad>0</ns3:cad>
          </ns3:TrackPointExtension>
        </extensions>
      </trkpt>
      <trkpt lat="47.53908458165824413299560546875" lon="10.23315302096307277679443359375">
        <ele>1068.4000244140625</ele>
        <time>2026-09-01T07:12:05.000Z</time>
        <extensions>
          <ns3:TrackPointExtension>
            <ns3:hr>162</ns3:hr>
            <ns3:cad>0</ns3:cad>
          </ns3:TrackPointExtension>
        </extensions>
      </trkpt>
      <trkpt lat="47.53905457444489002227783203125" lon="10.2331579662859439849853515625">
        <ele>1069.800048828125</ele>
        <time>2026-09-01T07:12:08.000Z</time>
        <extensions>
          <ns3:TrackPointExtension>
            <ns3:hr>162</ns3:hr>
            <ns3:cad>0</ns3:cad>
          </ns3:TrackPointExtension>
        </extensions>
      </trkpt>
      <trkpt lat="47.5390533171594142913818359375" lon="10.233151428401470184326171875">
        <ele>1070.199951171875</ele>
        <time>2026-09-01T07:12:09.000Z</time>
        <extensions>
          <ns3:TrackPointExtension>
            <ns3:hr>162</ns3:hr>
            <ns3:cad>0</ns3:cad>
          </ns3:TrackPointExtension>
        </extensions>
      </trkpt>
      <trkpt lat="47.5390539877116680145263671875" lon="10.23312988691031932830810546875">
        <ele>1070.4000244140625</ele>
        <time>2026-09-01T07:12:10.000Z</time>
        <extensions>
          <ns3:TrackPointExtension>
            <ns3:hr>162</ns3:hr>
            <ns3:cad>59</ns3:cad>
          </ns3:TrackPointExtension>
        </extensions>
      </trkpt>
      <trkpt lat="47.5390680693089962005615234375" lon="10.23311513476073741912841796875">
        <ele>1071.199951171875</ele>
        <time>2026-09-01T07:12:12.000Z</time>
        <extensions>
          <ns3:TrackPointExtension>
            <ns3:hr>162</ns3:hr>
            <ns3:cad>59</ns3:cad>
          </ns3:TrackPointExtension>
        </extensions>
      </trkpt>
      <trkpt lat="47.5390771217644214630126953125" lon="10.23310222662985324859619140625">
        <ele>1071.4000244140625</ele>
        <time>2026-09-01T07:12:13.000Z</time>
        <extensions>
          <ns3:TrackPointExtension>
            <ns3:hr>162</ns3:hr>
            <ns3:cad>59</ns3:cad>
          </ns3:TrackPointExtension>
        </extensions>
      </trkpt>
      <trkpt lat="47.539091370999813079833984375" lon="10.2330805175006389617919921875">
        <ele>1072.199951171875</ele>
        <time>2026-09-01T07:12:15.000Z</time>
        <extensions>
          <ns3:TrackPointExtension>
            <ns3:hr>162</ns3:hr>
            <ns3:cad>59</ns3:cad>
          </ns3:TrackPointExtension>
        </extensions>
      </trkpt>
      <trkpt lat="47.5391250662505626678466796875" lon="10.2330365963280200958251953125">
        <ele>1073.5999755859375</ele>
        <time>2026-09-01T07:12:19.000Z</time>
        <extensions>
          <ns3:TrackPointExtension>
            <ns3:hr>163</ns3:hr>
            <ns3:cad>56</ns3:cad>
          </ns3:TrackPointExtension>
        </extensions>
      </trkpt>
      <trkpt lat="47.53913118503987789154052734375" lon="10.2330225147306919097900390625">
        <ele>1074.199951171875</ele>
        <time>2026-09-01T07:12:20.000Z</time>
        <extensions>
          <ns3:TrackPointExtension>
            <ns3:hr>163</ns3:hr>
            <ns3:cad>0</ns3:cad>
          </ns3:TrackPointExtension>
        </extensions>
      </trkpt>
      <trkpt lat="47.5391314364969730377197265625" lon="10.2330074273049831390380859375">
        <ele>1074.5999755859375</ele>
        <time>2026-09-01T07:12:21.000Z</time>
        <extensions>
          <ns3:TrackPointExtension>
            <ns3:hr>163</ns3:hr>
            <ns3:cad>0</ns3:cad>
          </ns3:TrackPointExtension>
        </extensions>
      </trkpt>
      <trkpt lat="47.53912766464054584503173828125" lon="10.23296861909329891204833984375">
        <ele>1076</ele>
        <time>2026-09-01T07:12:24.000Z</time>
        <extensions>
          <ns3:TrackPointExtension>
            <ns3:hr>164</ns3:hr>
            <ns3:cad>0</ns3:cad>
          </ns3:TrackPointExtension>
        </extensions>
      </trkpt>
      <trkpt lat="47.539126239717006683349609375" lon="10.2329464070498943328857421875">
        <ele>1076.800048828125</ele>
        <time>2026-09-01T07:12:26.000Z</time>
        <extensions>
          <ns3:TrackPointExtension>
            <ns3:hr>164</ns3:hr>
            <ns3:cad>0</ns3:cad>
          </ns3:TrackPointExtension>
        </extensions>
      </trkpt>
      <trkpt lat="47.5391304306685924530029296875" lon="10.23293517529964447021484375">
        <ele>1077.199951171875</ele>
        <time>2026-09-01T07:12:27.000Z</time>
        <extensions>
          <ns3:TrackPointExtension>
            <ns3:hr>164</ns3:hr>
            <ns3:cad>0</ns3:cad>
          </ns3:TrackPointExtension>
        </extensions>
      </trkpt>
      <trkpt lat="47.5391411595046520233154296875" lon="10.23288781754672527313232421875">
        <ele>1078.4000244140625</ele>
        <time>2026-09-01T07:12:30.000Z</time>
        <extensions>
          <ns3:TrackPointExtension>
            <ns3:hr>165</ns3:hr>
            <ns3:cad>0</ns3:cad>
          </ns3:TrackPointExtension>
        </extensions>
      </trkpt>
      <trkpt lat="47.539140321314334869384765625" lon="10.23287306539714336395263671875">
        <ele>1078.800048828125</ele>
        <time>2026-09-01T07:12:31.000Z</time>
        <extensions>
          <ns3:TrackPointExtension>
            <ns3:hr>165</ns3:hr>
            <ns3:cad>0</ns3:cad>
          </ns3:TrackPointExtension>
        </extensions>
      </trkpt>
      <trkpt lat="47.53913797438144683837890625" lon="10.23282260634005069732666015625">
        <ele>1079.5999755859375</ele>
        <time>2026-09-01T07:12:34.000Z</time>
        <extensions>
          <ns3:TrackPointExtension>
            <ns3:hr>165</ns3:hr>
            <ns3:cad>0</ns3:cad>
          </ns3:TrackPointExtension>
        </extensions>
      </trkpt>
      <trkpt lat="47.53913587890565395355224609375" lon="10.2327807806432247161865234375">
        <ele>1081</ele>
        <time>2026-09-01T07:12:37.000Z</time>
        <extensions>
          <ns3:TrackPointExtension>
            <ns3:hr>165</ns3:hr>
            <ns3:cad>59</ns3:cad>
          </ns3:TrackPointExtension>
        </extensions>
      </trkpt>
      <trkpt lat="47.53912934102118015289306640625" lon="10.23276711814105510711669921875">
        <ele>1081.4000244140625</ele>
        <time>2026-09-01T07:12:38.000Z</time>
        <extensions>
          <ns3:TrackPointExtension>
            <ns3:hr>165</ns3:hr>
            <ns3:cad>0</ns3:cad>
          </ns3:TrackPointExtension>
        </extensions>
      </trkpt>
      <trkpt lat="47.539115846157073974609375" lon="10.23274415172636508941650390625">
        <ele>1082.199951171875</ele>
        <time>2026-09-01T07:12:40.000Z</time>
        <extensions>
          <ns3:TrackPointExtension>
            <ns3:hr>165</ns3:hr>
            <ns3:cad>0</ns3:cad>
          </ns3:TrackPointExtension>
        </extensions>
      </trkpt>
      <trkpt lat="47.53909044899046421051025390625" lon="10.2327046729624271392822265625">
        <ele>1083.4000244140625</ele>
        <time>2026-09-01T07:12:43.000Z</time>
        <extensions>
          <ns3:TrackPointExtension>
            <ns3:hr>165</ns3:hr>
            <ns3:cad>0</ns3:cad>
          </ns3:TrackPointExtension>
        </extensions>
      </trkpt>
      <trkpt lat="47.53906798548996448516845703125" lon="10.23268296383321285247802734375">
        <ele>1084.800048828125</ele>
        <time>2026-09-01T07:12:46.000Z</time>
        <extensions>
          <ns3:TrackPointExtension>
            <ns3:hr>165</ns3:hr>
            <ns3:cad>0</ns3:cad>
          </ns3:TrackPointExtension>
        </extensions>
      </trkpt>
      <trkpt lat="47.53906689584255218505859375" lon="10.23267759941518306732177734375">
        <ele>1085</ele>
        <time>2026-09-01T07:12:47.000Z</time>
        <extensions>
          <ns3:TrackPointExtension>
            <ns3:hr>165</ns3:hr>
            <ns3:cad>0</ns3:cad>
          </ns3:TrackPointExtension>
        </extensions>
      </trkpt>
      <trkpt lat="47.53905876539647579193115234375" lon="10.23265354335308074951171875">
        <ele>1085.800048828125</ele>
        <time>2026-09-01T07:12:49.000Z</time>
        <extensions>
          <ns3:TrackPointExtension>
            <ns3:hr>166</ns3:hr>
            <ns3:cad>51</ns3:cad>
          </ns3:TrackPointExtension>
        </extensions>
      </trkpt>
      <trkpt lat="47.5390608608722686767578125" lon="10.2326099574565887451171875">
        <ele>1086.800048828125</ele>
        <time>2026-09-01T07:12:52.000Z</time>
        <extensions>
          <ns3:TrackPointExtension>
            <ns3:hr>165</ns3:hr>
            <ns3:cad>0</ns3:cad>
          </ns3:TrackPointExtension>
        </extensions>
      </trkpt>
      <trkpt lat="47.5390689074993133544921875" lon="10.232597552239894866943359375">
        <ele>1087.199951171875</ele>
        <time>2026-09-01T07:12:53.000Z</time>
        <extensions>
          <ns3:TrackPointExtension>
            <ns3:hr>165</ns3:hr>
            <ns3:cad>0</ns3:cad>
          </ns3:TrackPointExtension>
        </extensions>
      </trkpt>
      <trkpt lat="47.53908441402018070220947265625" lon="10.232571065425872802734375">
        <ele>1088</ele>
        <time>2026-09-01T07:12:56.000Z</time>
        <extensions>
          <ns3:TrackPointExtension>
            <ns3:hr>164</ns3:hr>
            <ns3:cad>0</ns3:cad>
          </ns3:TrackPointExtension>
        </extensions>
      </trkpt>
      <trkpt lat="47.53908659331500530242919921875" lon="10.23254030384123325347900390625">
        <ele>1089</ele>
        <time>2026-09-01T07:12:59.000Z</time>
        <extensions>
          <ns3:TrackPointExtension>
            <ns3:hr>164</ns3:hr>
            <ns3:cad>0</ns3:cad>
          </ns3:TrackPointExtension>
        </extensions>
      </trkpt>
      <trkpt lat="47.53908592276275157928466796875" lon="10.2325068600475788116455078125">
        <ele>1090.4000244140625</ele>
        <time>2026-09-01T07:13:02.000Z</time>
        <extensions>
          <ns3:TrackPointExtension>
            <ns3:hr>164</ns3:hr>
            <ns3:cad>0</ns3:cad>
          </ns3:TrackPointExtension>
        </extensions>
      </trkpt>
      <trkpt lat="47.53909028135240077972412109375" lon="10.2324731647968292236328125">
        <ele>1091.5999755859375</ele>
        <time>2026-09-01T07:13:05.000Z</time>
        <extensions>
          <ns3:TrackPointExtension>
            <ns3:hr>163</ns3:hr>
            <ns3:cad>0</ns3:cad>
          </ns3:TrackPointExtension>
        </extensions>
      </trkpt>
      <trkpt lat="47.53909380175173282623291015625" lon="10.232454054057598114013671875">
        <ele>1092.800048828125</ele>
        <time>2026-09-01T07:13:08.000Z</time>
        <extensions>
          <ns3:TrackPointExtension>
            <ns3:hr>163</ns3:hr>
            <ns3:cad>0</ns3:cad>
          </ns3:TrackPointExtension>
        </extensions>
      </trkpt>
      <trkpt lat="47.5390992499887943267822265625" lon="10.23242278955876827239990234375">
        <ele>1093.5999755859375</ele>
        <time>2026-09-01T07:13:10.000Z</time>
        <extensions>
          <ns3:TrackPointExtension>
            <ns3:hr>162</ns3:hr>
            <ns3:cad>0</ns3:cad>
          </ns3:TrackPointExtension>
        </extensions>
      </trkpt>
      <trkpt lat="47.539102770388126373291015625" lon="10.23239680565893650054931640625">
        <ele>1094</ele>
        <time>2026-09-01T07:13:11.000Z</time>
        <extensions>
          <ns3:TrackPointExtension>
            <ns3:hr>162</ns3:hr>
            <ns3:cad>0</ns3:cad>
          </ns3:TrackPointExtension>
        </extensions>
      </trkpt>
      <trkpt lat="47.539111487567424774169921875" lon="10.2323452569544315338134765625">
        <ele>1095.4000244140625</ele>
        <time>2026-09-01T07:13:14.000Z</time>
        <extensions>
          <ns3:TrackPointExtension>
            <ns3:hr>163</ns3:hr>
            <ns3:cad>0</ns3:cad>
          </ns3:TrackPointExtension>
        </extensions>
      </trkpt>
      <trkpt lat="47.53911140374839305877685546875" lon="10.232311226427555084228515625">
        <ele>1096.800048828125</ele>
        <time>2026-09-01T07:13:17.000Z</time>
        <extensions>
          <ns3:TrackPointExtension>
            <ns3:hr>164</ns3:hr>
            <ns3:cad>0</ns3:cad>
          </ns3:TrackPointExtension>
        </extensions>
      </trkpt>
      <trkpt lat="47.53910486586391925811767578125" lon="10.2323016710579395294189453125">
        <ele>1097.4000244140625</ele>
        <time>2026-09-01T07:13:18.000Z</time>
        <extensions>
          <ns3:TrackPointExtension>
            <ns3:hr>164</ns3:hr>
            <ns3:cad>0</ns3:cad>
          </ns3:TrackPointExtension>
        </extensions>
      </trkpt>
      <trkpt lat="47.53910084255039691925048828125" lon="10.23228901438415050506591796875">
        <ele>1097.800048828125</ele>
        <time>2026-09-01T07:13:19.000Z</time>
        <extensions>
          <ns3:TrackPointExtension>
            <ns3:hr>164</ns3:hr>
            <ns3:cad>0</ns3:cad>
          </ns3:TrackPointExtension>
        </extensions>
      </trkpt>
      <trkpt lat="47.53909866325557231903076171875" lon="10.23227241821587085723876953125">
        <ele>1098.800048828125</ele>
        <time>2026-09-01T07:13:21.000Z</time>
        <extensions>
          <ns3:TrackPointExtension>
            <ns3:hr>164</ns3:hr>
            <ns3:cad>0</ns3:cad>
          </ns3:TrackPointExtension>
        </extensions>
      </trkpt>
      <trkpt lat="47.53910721279680728912353515625" lon="10.2322317659854888916015625">
        <ele>1100.199951171875</ele>
        <time>2026-09-01T07:13:24.000Z</time>
        <extensions>
          <ns3:TrackPointExtension>
            <ns3:hr>165</ns3:hr>
            <ns3:cad>0</ns3:cad>
          </ns3:TrackPointExtension>
        </extensions>
      </trkpt>
      <trkpt lat="47.53911693580448627471923828125" lon="10.23219312541186809539794921875">
        <ele>1101.4000244140625</ele>
        <time>2026-09-01T07:13:28.000Z</time>
        <extensions>
          <ns3:TrackPointExtension>
            <ns3:hr>167</ns3:hr>
            <ns3:cad>0</ns3:cad>
          </ns3:TrackPointExtension>
        </extensions>
      </trkpt>
      <trkpt lat="47.5391171872615814208984375" lon="10.23218591697514057159423828125">
        <ele>1101.800048828125</ele>
        <time>2026-09-01T07:13:29.000Z</time>
        <extensions>
          <ns3:TrackPointExtension>
            <ns3:hr>167</ns3:hr>
            <ns3:cad>0</ns3:cad>
          </ns3:TrackPointExtension>
        </extensions>
      </trkpt>
      <trkpt lat="47.539115846157073974609375" lon="10.23215976543724536895751953125">
        <ele>1102.5999755859375</ele>
        <time>2026-09-01T07:13:31.000Z</time>
        <extensions>
          <ns3:TrackPointExtension>
            <ns3:hr>167</ns3:hr>
            <ns3:cad>0</ns3:cad>
          </ns3:TrackPointExtension>
        </extensions>
      </trkpt>
      <trkpt lat="47.5391220487654209136962890625" lon="10.2321152575314044952392578125">
        <ele>1103.5999755859375</ele>
        <time>2026-09-01T07:13:34.000Z</time>
        <extensions>
          <ns3:TrackPointExtension>
            <ns3:hr>167</ns3:hr>
            <ns3:cad>0</ns3:cad>
          </ns3:TrackPointExtension>
        </extensions>
      </trkpt>
      <trkpt lat="47.539125569164752960205078125" lon="10.23211064748466014862060546875">
        <ele>1104</ele>
        <time>2026-09-01T07:13:35.000Z</time>
        <extensions>
          <ns3:TrackPointExtension>
            <ns3:hr>167</ns3:hr>
            <ns3:cad>0</ns3:cad>
          </ns3:TrackPointExtension>
        </extensions>
      </trkpt>
      <trkpt lat="47.5391297601163387298583984375" lon="10.2320817299187183380126953125">
        <ele>1104.800048828125</ele>
        <time>2026-09-01T07:13:37.000Z</time>
        <extensions>
          <ns3:TrackPointExtension>
            <ns3:hr>166</ns3:hr>
            <ns3:cad>0</ns3:cad>
          </ns3:TrackPointExtension>
        </extensions>
      </trkpt>
      <trkpt lat="47.53912950865924358367919921875" lon="10.232039652764797210693359375">
        <ele>1106</ele>
        <time>2026-09-01T07:13:40.000Z</time>
        <extensions>
          <ns3:TrackPointExtension>
            <ns3:hr>166</ns3:hr>
            <ns3:cad>0</ns3:cad>
          </ns3:TrackPointExtension>
        </extensions>
      </trkpt>
      <trkpt lat="47.53913420252501964569091796875" lon="10.23202414624392986297607421875">
        <ele>1106.4000244140625</ele>
        <time>2026-09-01T07:13:41.000Z</time>
        <extensions>
          <ns3:TrackPointExtension>
            <ns3:hr>165</ns3:hr>
            <ns3:cad>0</ns3:cad>
          </ns3:TrackPointExtension>
        </extensions>
      </trkpt>
      <trkpt lat="47.53913797438144683837890625" lon="10.23200788535177707672119140625">
        <ele>1107</ele>
        <time>2026-09-01T07:13:43.000Z</time>
        <extensions>
          <ns3:TrackPointExtension>
            <ns3:hr>165</ns3:hr>
            <ns3:cad>0</ns3:cad>
          </ns3:TrackPointExtension>
        </extensions>
      </trkpt>
      <trkpt lat="47.53913529217243194580078125" lon="10.23199464194476604461669921875">
        <ele>1107.4000244140625</ele>
        <time>2026-09-01T07:13:44.000Z</time>
        <extensions>
          <ns3:TrackPointExtension>
            <ns3:hr>165</ns3:hr>
            <ns3:cad>0</ns3:cad>
          </ns3:TrackPointExtension>
        </extensions>
      </trkpt>
      <trkpt lat="47.53913738764822483062744140625" lon="10.231970585882663726806640625">
        <ele>1108.199951171875</ele>
        <time>2026-09-01T07:13:46.000Z</time>
        <extensions>
          <ns3:TrackPointExtension>
            <ns3:hr>165</ns3:hr>
            <ns3:cad>0</ns3:cad>
          </ns3:TrackPointExtension>
        </extensions>
      </trkpt>
      <trkpt lat="47.53914199769496917724609375" lon="10.23195625282824039459228515625">
        <ele>1108.5999755859375</ele>
        <time>2026-09-01T07:13:47.000Z</time>
        <extensions>
          <ns3:TrackPointExtension>
            <ns3:hr>165</ns3:hr>
            <ns3:cad>0</ns3:cad>
          </ns3:TrackPointExtension>
        </extensions>
      </trkpt>
      <trkpt lat="47.5391425006091594696044921875" lon="10.2319264970719814300537109375">
        <ele>1109.4000244140625</ele>
        <time>2026-09-01T07:13:49.000Z</time>
        <extensions>
          <ns3:TrackPointExtension>
            <ns3:hr>166</ns3:hr>
            <ns3:cad>0</ns3:cad>
          </ns3:TrackPointExtension>
        </extensions>
      </trkpt>
      <trkpt lat="47.53913856111466884613037109375" lon="10.23187729530036449432373046875">
        <ele>1110.4000244140625</ele>
        <time>2026-09-01T07:13:52.000Z</time>
        <extensions>
          <ns3:TrackPointExtension>
            <ns3:hr>165</ns3:hr>
            <ns3:cad>0</ns3:cad>
          </ns3:TrackPointExtension>
        </extensions>
      </trkpt>
      <trkpt lat="47.53913956694304943084716796875" lon="10.23186472244560718536376953125">
        <ele>1110.5999755859375</ele>
        <time>2026-09-01T07:13:53.000Z</time>
        <extensions>
          <ns3:TrackPointExtension>
            <ns3:hr>165</ns3:hr>
            <ns3:cad>0</ns3:cad>
          </ns3:TrackPointExtension>
        </extensions>
      </trkpt>
      <trkpt lat="47.539144344627857208251953125" lon="10.23185156285762786865234375">
        <ele>1111</ele>
        <time>2026-09-01T07:13:54.000Z</time>
        <extensions>
          <ns3:TrackPointExtension>
            <ns3:hr>165</ns3:hr>
            <ns3:cad>0</ns3:cad>
          </ns3:TrackPointExtension>
        </extensions>
      </trkpt>
      <trkpt lat="47.53914861939847469329833984375" lon="10.23181669414043426513671875">
        <ele>1111.800048828125</ele>
        <time>2026-09-01T07:13:56.000Z</time>
        <extensions>
          <ns3:TrackPointExtension>
            <ns3:hr>165</ns3:hr>
            <ns3:cad>41</ns3:cad>
          </ns3:TrackPointExtension>
        </extensions>
      </trkpt>
      <trkpt lat="47.53914241679012775421142578125" lon="10.2317766286432743072509765625">
        <ele>1112.800048828125</ele>
        <time>2026-09-01T07:13:59.000Z</time>
        <extensions>
          <ns3:TrackPointExtension>
            <ns3:hr>165</ns3:hr>
            <ns3:cad>42</ns3:cad>
          </ns3:TrackPointExtension>
        </extensions>
      </trkpt>
      <trkpt lat="47.53914543427526950836181640625" lon="10.2316944859921932220458984375">
        <ele>1114</ele>
        <time>2026-09-01T07:14:03.000Z</time>
        <extensions>
          <ns3:TrackPointExtension>
            <ns3:hr>165</ns3:hr>
            <ns3:cad>42</ns3:cad>
          </ns3:TrackPointExtension>
        </extensions>
      </trkpt>
      <trkpt lat="47.53914878703653812408447265625" lon="10.231676883995532989501953125">
        <ele>1114.199951171875</ele>
        <time>2026-09-01T07:14:04.000Z</time>
        <extensions>
          <ns3:TrackPointExtension>
            <ns3:hr>165</ns3:hr>
            <ns3:cad>0</ns3:cad>
          </ns3:TrackPointExtension>
        </extensions>
      </trkpt>
      <trkpt lat="47.53915146924555301666259765625" lon="10.2316381596028804779052734375">
        <ele>1115.4000244140625</ele>
        <time>2026-09-01T07:14:07.000Z</time>
        <extensions>
          <ns3:TrackPointExtension>
            <ns3:hr>165</ns3:hr>
            <ns3:cad>0</ns3:cad>
          </ns3:TrackPointExtension>
        </extensions>
      </trkpt>
      <trkpt lat="47.539153061807155609130859375" lon="10.23161343298852443695068359375">
        <ele>1116.199951171875</ele>
        <time>2026-09-01T07:14:09.000Z</time>
        <extensions>
          <ns3:TrackPointExtension>
            <ns3:hr>164</ns3:hr>
            <ns3:cad>0</ns3:cad>
          </ns3:TrackPointExtension>
        </extensions>
      </trkpt>
      <trkpt lat="47.539153397083282470703125" lon="10.23159432224929332733154296875">
        <ele>1116.5999755859375</ele>
        <time>2026-09-01T07:14:10.000Z</time>
        <extensions>
          <ns3:TrackPointExtension>
            <ns3:hr>164</ns3:hr>
            <ns3:cad>0</ns3:cad>
          </ns3:TrackPointExtension>
        </extensions>
      </trkpt>
      <trkpt lat="47.53915515728294849395751953125" lon="10.23157135583460330963134765625">
        <ele>1117.5999755859375</ele>
        <time>2026-09-01T07:14:13.000Z</time>
        <extensions>
          <ns3:TrackPointExtension>
            <ns3:hr>163</ns3:hr>
            <ns3:cad>0</ns3:cad>
          </ns3:TrackPointExtension>
        </extensions>
      </trkpt>
      <trkpt lat="47.53915674984455108642578125" lon="10.23155375383794307708740234375">
        <ele>1118.199951171875</ele>
        <time>2026-09-01T07:14:15.000Z</time>
        <extensions>
          <ns3:TrackPointExtension>
            <ns3:hr>163</ns3:hr>
            <ns3:cad>0</ns3:cad>
          </ns3:TrackPointExtension>
        </extensions>
      </trkpt>
      <trkpt lat="47.53915599547326564788818359375" lon="10.2315389178693294525146484375">
        <ele>1118.800048828125</ele>
        <time>2026-09-01T07:14:16.000Z</time>
        <extensions>
          <ns3:TrackPointExtension>
            <ns3:hr>163</ns3:hr>
            <ns3:cad>0</ns3:cad>
          </ns3:TrackPointExtension>
        </extensions>
      </trkpt>
      <trkpt lat="47.53914610482752323150634765625" lon="10.23149348795413970947265625">
        <ele>1120</ele>
        <time>2026-09-01T07:14:19.000Z</time>
        <extensions>
          <ns3:TrackPointExtension>
            <ns3:hr>163</ns3:hr>
            <ns3:cad>0</ns3:cad>
          </ns3:TrackPointExtension>
        </extensions>
      </trkpt>
      <trkpt lat="47.53914979286491870880126953125" lon="10.23148418404161930084228515625">
        <ele>1120.199951171875</ele>
        <time>2026-09-01T07:14:20.000Z</time>
        <extensions>
          <ns3:TrackPointExtension>
            <ns3:hr>163</ns3:hr>
            <ns3:cad>0</ns3:cad>
          </ns3:TrackPointExtension>
        </extensions>
      </trkpt>
      <trkpt lat="47.53916353918612003326416015625" lon="10.2314906381070613861083984375">
        <ele>1121</ele>
        <time>2026-09-01T07:14:22.000Z</time>
        <extensions>
          <ns3:TrackPointExtension>
            <ns3:hr>162</ns3:hr>
            <ns3:cad>0</ns3:cad>
          </ns3:TrackPointExtension>
        </extensions>
      </trkpt>
      <trkpt lat="47.5391867570579051971435546875" lon="10.23148284293711185455322265625">
        <ele>1122</ele>
        <time>2026-09-01T07:14:25.000Z</time>
        <extensions>
          <ns3:TrackPointExtension>
            <ns3:hr>163</ns3:hr>
            <ns3:cad>0</ns3:cad>
          </ns3:TrackPointExtension>
        </extensions>
      </trkpt>
      <trkpt lat="47.539191283285617828369140625" lon="10.231467671692371368408203125">
        <ele>1122.800048828125</ele>
        <time>2026-09-01T07:14:27.000Z</time>
        <extensions>
          <ns3:TrackPointExtension>
            <ns3:hr>163</ns3:hr>
            <ns3:cad>0</ns3:cad>
          </ns3:TrackPointExtension>
        </extensions>
      </trkpt>
      <trkpt lat="47.539189942181110382080078125" lon="10.23144981823861598968505859375">
        <ele>1123.4000244140625</ele>
        <time>2026-09-01T07:14:28.000Z</time>
        <extensions>
          <ns3:TrackPointExtension>
            <ns3:hr>162</ns3:hr>
            <ns3:cad>0</ns3:cad>
          </ns3:TrackPointExtension>
        </extensions>
      </trkpt>
      <trkpt lat="47.5391934625804424285888671875" lon="10.23142484016716480255126953125">
        <ele>1124.199951171875</ele>
        <time>2026-09-01T07:14:30.000Z</time>
        <extensions>
          <ns3:TrackPointExtension>
            <ns3:hr>162</ns3:hr>
            <ns3:cad>0</ns3:cad>
          </ns3:TrackPointExtension>
        </extensions>
      </trkpt>
      <trkpt lat="47.5391954742372035980224609375" lon="10.231417380273342132568359375">
        <ele>1124.4000244140625</ele>
        <time>2026-09-01T07:14:31.000Z</time>
        <extensions>
          <ns3:TrackPointExtension>
            <ns3:hr>162</ns3:hr>
            <ns3:cad>0</ns3:cad>
          </ns3:TrackPointExtension>
        </extensions>
      </trkpt>
      <trkpt lat="47.5392062030732631683349609375" lon="10.23139835335314273834228515625">
        <ele>1125.800048828125</ele>
        <time>2026-09-01T07:14:34.000Z</time>
        <extensions>
          <ns3:TrackPointExtension>
            <ns3:hr>161</ns3:hr>
            <ns3:cad>0</ns3:cad>
          </ns3:TrackPointExtension>
        </extensions>
      </trkpt>
      <trkpt lat="47.5392058677971363067626953125" lon="10.23137547075748443603515625">
        <ele>1126.199951171875</ele>
        <time>2026-09-01T07:14:35.000Z</time>
        <extensions>
          <ns3:TrackPointExtension>
            <ns3:hr>162</ns3:hr>
            <ns3:cad>0</ns3:cad>
          </ns3:TrackPointExtension>
        </extensions>
      </trkpt>
      <trkpt lat="47.5392057001590728759765625" lon="10.23134420625865459442138671875">
        <ele>1127.199951171875</ele>
        <time>2026-09-01T07:14:37.000Z</time>
        <extensions>
          <ns3:TrackPointExtension>
            <ns3:hr>162</ns3:hr>
            <ns3:cad>0</ns3:cad>
          </ns3:TrackPointExtension>
        </extensions>
      </trkpt>
      <trkpt lat="47.53920880146324634552001953125" lon="10.23129944689571857452392578125">
        <ele>1128.199951171875</ele>
        <time>2026-09-01T07:14:40.000Z</time>
        <extensions>
          <ns3:TrackPointExtension>
            <ns3:hr>161</ns3:hr>
            <ns3:cad>0</ns3:cad>
          </ns3:TrackPointExtension>
        </extensions>
      </trkpt>
      <trkpt lat="47.53920972347259521484375" lon="10.23129458539187908172607421875">
        <ele>1128.5999755859375</ele>
        <time>2026-09-01T07:14:41.000Z</time>
        <extensions>
          <ns3:TrackPointExtension>
            <ns3:hr>162</ns3:hr>
            <ns3:cad>0</ns3:cad>
          </ns3:TrackPointExtension>
        </extensions>
      </trkpt>
      <trkpt lat="47.53921483643352985382080078125" lon="10.23126960732042789459228515625">
        <ele>1129.199951171875</ele>
        <time>2026-09-01T07:14:43.000Z</time>
        <extensions>
          <ns3:TrackPointExtension>
            <ns3:hr>162</ns3:hr>
            <ns3:cad>0</ns3:cad>
          </ns3:TrackPointExtension>
        </extensions>
      </trkpt>
      <trkpt lat="47.53922338597476482391357421875" lon="10.23123289458453655242919921875">
        <ele>1130.4000244140625</ele>
        <time>2026-09-01T07:14:46.000Z</time>
        <extensions>
          <ns3:TrackPointExtension>
            <ns3:hr>162</ns3:hr>
            <ns3:cad>0</ns3:cad>
          </ns3:TrackPointExtension>
        </extensions>
      </trkpt>
      <trkpt lat="47.53922992385923862457275390625" lon="10.23120649158954620361328125">
        <ele>1131.4000244140625</ele>
        <time>2026-09-01T07:14:48.000Z</time>
        <extensions>
          <ns3:TrackPointExtension>
            <ns3:hr>162</ns3:hr>
            <ns3:cad>0</ns3:cad>
          </ns3:TrackPointExtension>
        </extensions>
      </trkpt>
      <trkpt lat="47.53922958858311176300048828125" lon="10.23119039833545684814453125">
        <ele>1131.800048828125</ele>
        <time>2026-09-01T07:14:49.000Z</time>
        <extensions>
          <ns3:TrackPointExtension>
            <ns3:hr>162</ns3:hr>
            <ns3:cad>0</ns3:cad>
          </ns3:TrackPointExtension>
        </extensions>
      </trkpt>
      <trkpt lat="47.539238892495632171630859375" lon="10.231174640357494354248046875">
        <ele>1133</ele>
        <time>2026-09-01T07:14:52.000Z</time>
        <extensions>
          <ns3:TrackPointExtension>
            <ns3:hr>163</ns3:hr>
            <ns3:cad>0</ns3:cad>
          </ns3:TrackPointExtension>
        </extensions>
      </trkpt>
      <trkpt lat="47.53923998214304447174072265625" lon="10.2311654202640056610107421875">
        <ele>1133.5999755859375</ele>
        <time>2026-09-01T07:14:53.000Z</time>
        <extensions>
          <ns3:TrackPointExtension>
            <ns3:hr>163</ns3:hr>
            <ns3:cad>0</ns3:cad>
          </ns3:TrackPointExtension>
        </extensions>
      </trkpt>
      <trkpt lat="47.53925121389329433441162109375" lon="10.2311615645885467529296875">
        <ele>1134.4000244140625</ele>
        <time>2026-09-01T07:14:55.000Z</time>
        <extensions>
          <ns3:TrackPointExtension>
            <ns3:hr>163</ns3:hr>
            <ns3:cad>0</ns3:cad>
          </ns3:TrackPointExtension>
        </extensions>
      </trkpt>
      <trkpt lat="47.53927652724087238311767578125" lon="10.2311489917337894439697265625">
        <ele>1135.5999755859375</ele>
        <time>2026-09-01T07:14:58.000Z</time>
        <extensions>
          <ns3:TrackPointExtension>
            <ns3:hr>163</ns3:hr>
            <ns3:cad>0</ns3:cad>
          </ns3:TrackPointExtension>
        </extensions>
      </trkpt>
      <trkpt lat="47.53929044120013713836669921875" lon="10.23112745024263858795166015625">
        <ele>1137</ele>
        <time>2026-09-01T07:15:01.000Z</time>
        <extensions>
          <ns3:TrackPointExtension>
            <ns3:hr>164</ns3:hr>
            <ns3:cad>0</ns3:cad>
          </ns3:TrackPointExtension>
        </extensions>
      </trkpt>
      <trkpt lat="47.5392890162765979766845703125" lon="10.23108604364097118377685546875">
        <ele>1138</ele>
        <time>2026-09-01T07:15:04.000Z</time>
        <extensions>
          <ns3:TrackPointExtension>
            <ns3:hr>164</ns3:hr>
            <ns3:cad>0</ns3:cad>
          </ns3:TrackPointExtension>
        </extensions>
      </trkpt>
      <trkpt lat="47.53928993828594684600830078125" lon="10.2310730516910552978515625">
        <ele>1138.4000244140625</ele>
        <time>2026-09-01T07:15:05.000Z</time>
        <extensions>
          <ns3:TrackPointExtension>
            <ns3:hr>165</ns3:hr>
            <ns3:cad>0</ns3:cad>
          </ns3:TrackPointExtension>
        </extensions>
      </trkpt>
      <trkpt lat="47.5392967276275157928466796875" lon="10.2310641668736934661865234375">
        <ele>1139.199951171875</ele>
        <time>2026-09-01T07:15:07.000Z</time>
        <extensions>
          <ns3:TrackPointExtension>
            <ns3:hr>164</ns3:hr>
            <ns3:cad>0</ns3:cad>
          </ns3:TrackPointExtension>
        </extensions>
      </trkpt>
      <trkpt lat="47.539308629930019378662109375" lon="10.2310574613511562347412109375">
        <ele>1140.4000244140625</ele>
        <time>2026-09-01T07:15:10.000Z</time>
        <extensions>
          <ns3:TrackPointExtension>
            <ns3:hr>165</ns3:hr>
            <ns3:cad>0</ns3:cad>
          </ns3:TrackPointExtension>
        </extensions>
      </trkpt>
      <trkpt lat="47.53930502571165561676025390625" lon="10.231052599847316741943359375">
        <ele>1140.5999755859375</ele>
        <time>2026-09-01T07:15:11.000Z</time>
        <extensions>
          <ns3:TrackPointExtension>
            <ns3:hr>165</ns3:hr>
            <ns3:cad>0</ns3:cad>
          </ns3:TrackPointExtension>
        </extensions>
      </trkpt>
      <trkpt lat="47.53931491635739803314208984375" lon="10.23101211525499820709228515625">
        <ele>1141.4000244140625</ele>
        <time>2026-09-01T07:15:13.000Z</time>
        <extensions>
          <ns3:TrackPointExtension>
            <ns3:hr>165</ns3:hr>
            <ns3:cad>0</ns3:cad>
          </ns3:TrackPointExtension>
        </extensions>
      </trkpt>
      <trkpt lat="47.53931634128093719482421875" lon="10.23095964454114437103271484375">
        <ele>1142.5999755859375</ele>
        <time>2026-09-01T07:15:16.000Z</time>
        <extensions>
          <ns3:TrackPointExtension>
            <ns3:hr>164</ns3:hr>
            <ns3:cad>0</ns3:cad>
          </ns3:TrackPointExtension>
        </extensions>
      </trkpt>
      <trkpt lat="47.53932598046958446502685546875" lon="10.230911113321781158447265625">
        <ele>1143.800048828125</ele>
        <time>2026-09-01T07:15:19.000Z</time>
        <extensions>
          <ns3:TrackPointExtension>
            <ns3:hr>164</ns3:hr>
            <ns3:cad>0</ns3:cad>
          </ns3:TrackPointExtension>
        </extensions>
      </trkpt>
      <trkpt lat="47.5393272377550601959228515625" lon="10.23087716661393642425537109375">
        <ele>1144.5999755859375</ele>
        <time>2026-09-01T07:15:21.000Z</time>
        <extensions>
          <ns3:TrackPointExtension>
            <ns3:hr>164</ns3:hr>
            <ns3:cad>0</ns3:cad>
          </ns3:TrackPointExtension>
        </extensions>
      </trkpt>
      <trkpt lat="47.53932916559278964996337890625" lon="10.230864845216274261474609375">
        <ele>1145</ele>
        <time>2026-09-01T07:15:22.000Z</time>
        <extensions>
          <ns3:TrackPointExtension>
            <ns3:hr>164</ns3:hr>
            <ns3:cad>75</ns3:cad>
          </ns3:TrackPointExtension>
        </extensions>
      </trkpt>
      <trkpt lat="47.53933184780180454254150390625" lon="10.2308140508830547332763671875">
        <ele>1146.4000244140625</ele>
        <time>2026-09-01T07:15:25.000Z</time>
        <extensions>
          <ns3:TrackPointExtension>
            <ns3:hr>164</ns3:hr>
            <ns3:cad>0</ns3:cad>
          </ns3:TrackPointExtension>
        </extensions>
      </trkpt>
      <trkpt lat="47.5393342785537242889404296875" lon="10.23080122657120227813720703125">
        <ele>1146.800048828125</ele>
        <time>2026-09-01T07:15:26.000Z</time>
        <extensions>
          <ns3:TrackPointExtension>
            <ns3:hr>164</ns3:hr>
            <ns3:cad>0</ns3:cad>
          </ns3:TrackPointExtension>
        </extensions>
      </trkpt>
      <trkpt lat="47.53933779895305633544921875" lon="10.23078270256519317626953125">
        <ele>1147.5999755859375</ele>
        <time>2026-09-01T07:15:28.000Z</time>
        <extensions>
          <ns3:TrackPointExtension>
            <ns3:hr>164</ns3:hr>
            <ns3:cad>0</ns3:cad>
          </ns3:TrackPointExtension>
        </extensions>
      </trkpt>
      <trkpt lat="47.5393413193523883819580078125" lon="10.230741798877716064453125">
        <ele>1148.800048828125</ele>
        <time>2026-09-01T07:15:31.000Z</time>
        <extensions>
          <ns3:TrackPointExtension>
            <ns3:hr>164</ns3:hr>
            <ns3:cad>0</ns3:cad>
          </ns3:TrackPointExtension>
        </extensions>
      </trkpt>
      <trkpt lat="47.5393409840762615203857421875" lon="10.23072679527103900909423828125">
        <ele>1149.199951171875</ele>
        <time>2026-09-01T07:15:32.000Z</time>
        <extensions>
          <ns3:TrackPointExtension>
            <ns3:hr>164</ns3:hr>
            <ns3:cad>0</ns3:cad>
          </ns3:TrackPointExtension>
        </extensions>
      </trkpt>
      <trkpt lat="47.539331428706645965576171875" lon="10.230691842734813690185546875">
        <ele>1149.800048828125</ele>
        <time>2026-09-01T07:15:34.000Z</time>
        <extensions>
          <ns3:TrackPointExtension>
            <ns3:hr>165</ns3:hr>
            <ns3:cad>0</ns3:cad>
          </ns3:TrackPointExtension>
        </extensions>
      </trkpt>
      <trkpt lat="47.53929488360881805419921875" lon="10.23062177002429962158203125">
        <ele>1151</ele>
        <time>2026-09-01T07:15:38.000Z</time>
        <extensions>
          <ns3:TrackPointExtension>
            <ns3:hr>164</ns3:hr>
            <ns3:cad>0</ns3:cad>
          </ns3:TrackPointExtension>
        </extensions>
      </trkpt>
      <trkpt lat="47.53928960300981998443603515625" lon="10.23057055659592151641845703125">
        <ele>1152.4000244140625</ele>
        <time>2026-09-01T07:15:42.000Z</time>
        <extensions>
          <ns3:TrackPointExtension>
            <ns3:hr>165</ns3:hr>
            <ns3:cad>0</ns3:cad>
          </ns3:TrackPointExtension>
        </extensions>
      </trkpt>
      <trkpt lat="47.53929555416107177734375" lon="10.23052294738590717315673828125">
        <ele>1153.5999755859375</ele>
        <time>2026-09-01T07:15:45.000Z</time>
        <extensions>
          <ns3:TrackPointExtension>
            <ns3:hr>163</ns3:hr>
            <ns3:cad>0</ns3:cad>
          </ns3:TrackPointExtension>
        </extensions>
      </trkpt>
      <trkpt lat="47.539298236370086669921875" lon="10.23047399707138538360595703125">
        <ele>1154.800048828125</ele>
        <time>2026-09-01T07:15:48.000Z</time>
        <extensions>
          <ns3:TrackPointExtension>
            <ns3:hr>162</ns3:hr>
            <ns3:cad>0</ns3:cad>
          </ns3:TrackPointExtension>
        </extensions>
      </trkpt>
      <trkpt lat="47.53931005485355854034423828125" lon="10.23043074645102024078369140625">
        <ele>1156</ele>
        <time>2026-09-01T07:15:51.000Z</time>
        <extensions>
          <ns3:TrackPointExtension>
            <ns3:hr>161</ns3:hr>
            <ns3:cad>0</ns3:cad>
          </ns3:TrackPointExtension>
        </extensions>
      </trkpt>
      <trkpt lat="47.53931927494704723358154296875" lon="10.23037903010845184326171875">
        <ele>1157.199951171875</ele>
        <time>2026-09-01T07:15:54.000Z</time>
        <extensions>
          <ns3:TrackPointExtension>
            <ns3:hr>160</ns3:hr>
            <ns3:cad>71</ns3:cad>
          </ns3:TrackPointExtension>
        </extensions>
      </trkpt>
      <trkpt lat="47.5393185205757617950439453125" lon="10.230321027338504791259765625">
        <ele>1158.5999755859375</ele>
        <time>2026-09-01T07:15:57.000Z</time>
        <extensions>
          <ns3:TrackPointExtension>
            <ns3:hr>162</ns3:hr>
            <ns3:cad>71</ns3:cad>
          </ns3:TrackPointExtension>
        </extensions>
      </trkpt>
      <trkpt lat="47.53931826911866664886474609375" lon="10.23027283139526844024658203125">
        <ele>1159.800048828125</ele>
        <time>2026-09-01T07:16:01.000Z</time>
        <extensions>
          <ns3:TrackPointExtension>
            <ns3:hr>162</ns3:hr>
            <ns3:cad>0</ns3:cad>
          </ns3:TrackPointExtension>
        </extensions>
      </trkpt>
      <trkpt lat="47.539319358766078948974609375" lon="10.23024081252515316009521484375">
        <ele>1161</ele>
        <time>2026-09-01T07:16:04.000Z</time>
        <extensions>
          <ns3:TrackPointExtension>
            <ns3:hr>163</ns3:hr>
            <ns3:cad>0</ns3:cad>
          </ns3:TrackPointExtension>
        </extensions>
      </trkpt>
      <trkpt lat="47.5393201969563961029052734375" lon="10.230205692350864410400390625">
        <ele>1162.199951171875</ele>
        <time>2026-09-01T07:16:07.000Z</time>
        <extensions>
          <ns3:TrackPointExtension>
            <ns3:hr>163</ns3:hr>
            <ns3:cad>0</ns3:cad>
          </ns3:TrackPointExtension>
        </extensions>
      </trkpt>
      <trkpt lat="47.5393242202699184417724609375" lon="10.230168811976909637451171875">
        <ele>1163.4000244140625</ele>
        <time>2026-09-01T07:16:10.000Z</time>
        <extensions>
          <ns3:TrackPointExtension>
            <ns3:hr>162</ns3:hr>
            <ns3:cad>0</ns3:cad>
          </ns3:TrackPointExtension>
        </extensions>
      </trkpt>
      <trkpt lat="47.53934207372367382049560546875" lon="10.2301297523081302642822265625">
        <ele>1164.4000244140625</ele>
        <time>2026-09-01T07:16:13.000Z</time>
        <extensions>
          <ns3:TrackPointExtension>
            <ns3:hr>161</ns3:hr>
            <ns3:cad>0</ns3:cad>
          </ns3:TrackPointExtension>
        </extensions>
      </trkpt>
      <trkpt lat="47.53935481421649456024169921875" lon="10.230078957974910736083984375">
        <ele>1165.5999755859375</ele>
        <time>2026-09-01T07:16:16.000Z</time>
        <extensions>
          <ns3:TrackPointExtension>
            <ns3:hr>161</ns3:hr>
            <ns3:cad>0</ns3:cad>
          </ns3:TrackPointExtension>
        </extensions>
      </trkpt>
      <trkpt lat="47.53935514949262142181396484375" lon="10.23006797768175601959228515625">
        <ele>1166</ele>
        <time>2026-09-01T07:16:17.000Z</time>
        <extensions>
          <ns3:TrackPointExtension>
            <ns3:hr>161</ns3:hr>
            <ns3:cad>0</ns3:cad>
          </ns3:TrackPointExtension>
        </extensions>
      </trkpt>
      <trkpt lat="47.53936017863452434539794921875" lon="10.23005104623734951019287109375">
        <ele>1166.800048828125</ele>
        <time>2026-09-01T07:16:19.000Z</time>
        <extensions>
          <ns3:TrackPointExtension>
            <ns3:hr>161</ns3:hr>
            <ns3:cad>0</ns3:cad>
          </ns3:TrackPointExtension>
        </extensions>
      </trkpt>
      <trkpt lat="47.53936487250030040740966796875" lon="10.23003713227808475494384765625">
        <ele>1167.800048828125</ele>
        <time>2026-09-01T07:16:21.000Z</time>
        <extensions>
          <ns3:TrackPointExtension>
            <ns3:hr>160</ns3:hr>
            <ns3:cad>0</ns3:cad>
          </ns3:TrackPointExtension>
        </extensions>
      </trkpt>
      <trkpt lat="47.5393639504909515380859375" lon="10.22999924607574939727783203125">
        <ele>1169.199951171875</ele>
        <time>2026-09-01T07:16:24.000Z</time>
        <extensions>
          <ns3:TrackPointExtension>
            <ns3:hr>161</ns3:hr>
            <ns3:cad>0</ns3:cad>
          </ns3:TrackPointExtension>
        </extensions>
      </trkpt>
      <trkpt lat="47.53936219029128551483154296875" lon="10.2299627847969532012939453125">
        <ele>1170.199951171875</ele>
        <time>2026-09-01T07:16:27.000Z</time>
        <extensions>
          <ns3:TrackPointExtension>
            <ns3:hr>161</ns3:hr>
            <ns3:cad>0</ns3:cad>
          </ns3:TrackPointExtension>
        </extensions>
      </trkpt>
      <trkpt lat="47.5393312610685825347900390625" lon="10.22989514283835887908935546875">
        <ele>1171.4000244140625</ele>
        <time>2026-09-01T07:16:31.000Z</time>
        <extensions>
          <ns3:TrackPointExtension>
            <ns3:hr>163</ns3:hr>
            <ns3:cad>0</ns3:cad>
          </ns3:TrackPointExtension>
        </extensions>
      </trkpt>
      <trkpt lat="47.53931273706257343292236328125" lon="10.2298553287982940673828125">
        <ele>1172.5999755859375</ele>
        <time>2026-09-01T07:16:34.000Z</time>
        <extensions>
          <ns3:TrackPointExtension>
            <ns3:hr>164</ns3:hr>
            <ns3:cad>0</ns3:cad>
          </ns3:TrackPointExtension>
        </extensions>
      </trkpt>
      <trkpt lat="47.539311312139034271240234375" lon="10.229856669902801513671875">
        <ele>1173.199951171875</ele>
        <time>2026-09-01T07:16:35.000Z</time>
        <extensions>
          <ns3:TrackPointExtension>
            <ns3:hr>164</ns3:hr>
            <ns3:cad>0</ns3:cad>
          </ns3:TrackPointExtension>
        </extensions>
      </trkpt>
      <trkpt lat="47.53929312340915203094482421875" lon="10.229836218059062957763671875">
        <ele>1174</ele>
        <time>2026-09-01T07:16:37.000Z</time>
        <extensions>
          <ns3:TrackPointExtension>
            <ns3:hr>164</ns3:hr>
            <ns3:cad>0</ns3:cad>
          </ns3:TrackPointExtension>
        </extensions>
      </trkpt>
      <trkpt lat="47.53927803598344326019287109375" lon="10.22981953807175159454345703125">
        <ele>1175</ele>
        <time>2026-09-01T07:16:39.000Z</time>
        <extensions>
          <ns3:TrackPointExtension>
            <ns3:hr>164</ns3:hr>
            <ns3:cad>0</ns3:cad>
          </ns3:TrackPointExtension>
        </extensions>
      </trkpt>
      <trkpt lat="47.539274431765079498291015625" lon="10.22981534712016582489013671875">
        <ele>1175.4000244140625</ele>
        <time>2026-09-01T07:16:40.000Z</time>
        <extensions>
          <ns3:TrackPointExtension>
            <ns3:hr>165</ns3:hr>
            <ns3:cad>0</ns3:cad>
          </ns3:TrackPointExtension>
        </extensions>
      </trkpt>
      <trkpt lat="47.5392648763954639434814453125" lon="10.2297713421285152435302734375">
        <ele>1176.4000244140625</ele>
        <time>2026-09-01T07:16:43.000Z</time>
        <extensions>
          <ns3:TrackPointExtension>
            <ns3:hr>164</ns3:hr>
            <ns3:cad>0</ns3:cad>
          </ns3:TrackPointExtension>
        </extensions>
      </trkpt>
      <trkpt lat="47.5392620265483856201171875" lon="10.229761786758899688720703125">
        <ele>1176.800048828125</ele>
        <time>2026-09-01T07:16:44.000Z</time>
        <extensions>
          <ns3:TrackPointExtension>
            <ns3:hr>165</ns3:hr>
            <ns3:cad>0</ns3:cad>
          </ns3:TrackPointExtension>
        </extensions>
      </trkpt>
      <trkpt lat="47.539269067347049713134765625" lon="10.2297374792397022247314453125">
        <ele>1177.5999755859375</ele>
        <time>2026-09-01T07:16:46.000Z</time>
        <extensions>
          <ns3:TrackPointExtension>
            <ns3:hr>165</ns3:hr>
            <ns3:cad>0</ns3:cad>
          </ns3:TrackPointExtension>
        </extensions>
      </trkpt>
      <trkpt lat="47.53930200822651386260986328125" lon="10.22969984449446201324462890625">
        <ele>1178.5999755859375</ele>
        <time>2026-09-01T07:16:49.000Z</time>
        <extensions>
          <ns3:TrackPointExtension>
            <ns3:hr>164</ns3:hr>
            <ns3:cad>0</ns3:cad>
          </ns3:TrackPointExtension>
        </extensions>
      </trkpt>
      <trkpt lat="47.53931256942451000213623046875" lon="10.2296868525445461273193359375">
        <ele>1178.800048828125</ele>
        <time>2026-09-01T07:16:50.000Z</time>
        <extensions>
          <ns3:TrackPointExtension>
            <ns3:hr>164</ns3:hr>
            <ns3:cad>0</ns3:cad>
          </ns3:TrackPointExtension>
        </extensions>
      </trkpt>
      <trkpt lat="47.5393366254866123199462890625" lon="10.229583419859409332275390625">
        <ele>1180.199951171875</ele>
        <time>2026-09-01T07:16:54.000Z</time>
        <extensions>
          <ns3:TrackPointExtension>
            <ns3:hr>164</ns3:hr>
            <ns3:cad>41</ns3:cad>
          </ns3:TrackPointExtension>
        </extensions>
      </trkpt>
      <trkpt lat="47.53934894688427448272705078125" lon="10.22953690029680728912353515625">
        <ele>1181.5999755859375</ele>
        <time>2026-09-01T07:16:57.000Z</time>
        <extensions>
          <ns3:TrackPointExtension>
            <ns3:hr>164</ns3:hr>
            <ns3:cad>41</ns3:cad>
          </ns3:TrackPointExtension>
        </extensions>
      </trkpt>
      <trkpt lat="47.53935984335839748382568359375" lon="10.22950731217861175537109375">
        <ele>1182.800048828125</ele>
        <time>2026-09-01T07:17:00.000Z</time>
        <extensions>
          <ns3:TrackPointExtension>
            <ns3:hr>164</ns3:hr>
            <ns3:cad>41</ns3:cad>
          </ns3:TrackPointExtension>
        </extensions>
      </trkpt>
      <trkpt lat="47.5393714942038059234619140625" lon="10.22945844568312168121337890625">
        <ele>1184.199951171875</ele>
        <time>2026-09-01T07:17:03.000Z</time>
        <extensions>
          <ns3:TrackPointExtension>
            <ns3:hr>165</ns3:hr>
            <ns3:cad>41</ns3:cad>
          </ns3:TrackPointExtension>
        </extensions>
      </trkpt>
      <trkpt lat="47.53937610425055027008056640625" lon="10.2294253371655941009521484375">
        <ele>1184.800048828125</ele>
        <time>2026-09-01T07:17:05.000Z</time>
        <extensions>
          <ns3:TrackPointExtension>
            <ns3:hr>165</ns3:hr>
            <ns3:cad>41</ns3:cad>
          </ns3:TrackPointExtension>
        </extensions>
      </trkpt>
      <trkpt lat="47.5393768586218357086181640625" lon="10.22940731607377529144287109375">
        <ele>1185.199951171875</ele>
        <time>2026-09-01T07:17:06.000Z</time>
        <extensions>
          <ns3:TrackPointExtension>
            <ns3:hr>165</ns3:hr>
            <ns3:cad>41</ns3:cad>
          </ns3:TrackPointExtension>
        </extensions>
      </trkpt>
      <trkpt lat="47.5393761880695819854736328125" lon="10.22937781177461147308349609375">
        <ele>1186.199951171875</ele>
        <time>2026-09-01T07:17:09.000Z</time>
        <extensions>
          <ns3:TrackPointExtension>
            <ns3:hr>165</ns3:hr>
            <ns3:cad>0</ns3:cad>
          </ns3:TrackPointExtension>
        </extensions>
      </trkpt>
      <trkpt lat="47.53937426023185253143310546875" lon="10.229358114302158355712890625">
        <ele>1187</ele>
        <time>2026-09-01T07:17:11.000Z</time>
        <extensions>
          <ns3:TrackPointExtension>
            <ns3:hr>166</ns3:hr>
            <ns3:cad>0</ns3:cad>
          </ns3:TrackPointExtension>
        </extensions>
      </trkpt>
      <trkpt lat="47.53937526606023311614990234375" lon="10.22934629581868648529052734375">
        <ele>1187.4000244140625</ele>
        <time>2026-09-01T07:17:12.000Z</time>
        <extensions>
          <ns3:TrackPointExtension>
            <ns3:hr>166</ns3:hr>
            <ns3:cad>0</ns3:cad>
          </ns3:TrackPointExtension>
        </extensions>
      </trkpt>
      <trkpt lat="47.53937224857509136199951171875" lon="10.22932098247110843658447265625">
        <ele>1188.5999755859375</ele>
        <time>2026-09-01T07:17:15.000Z</time>
        <extensions>
          <ns3:TrackPointExtension>
            <ns3:hr>166</ns3:hr>
            <ns3:cad>0</ns3:cad>
          </ns3:TrackPointExtension>
        </extensions>
      </trkpt>
      <trkpt lat="47.53937057219445705413818359375" lon="10.2292607165873050689697265625">
        <ele>1189.800048828125</ele>
        <time>2026-09-01T07:17:18.000Z</time>
        <extensions>
          <ns3:TrackPointExtension>
            <ns3:hr>165</ns3:hr>
            <ns3:cad>0</ns3:cad>
          </ns3:TrackPointExtension>
        </extensions>
      </trkpt>
      <trkpt lat="47.53937669098377227783203125" lon="10.22920547984540462493896484375">
        <ele>1191</ele>
        <time>2026-09-01T07:17:21.000Z</time>
        <extensions>
          <ns3:TrackPointExtension>
            <ns3:hr>164</ns3:hr>
            <ns3:cad>0</ns3:cad>
          </ns3:TrackPointExtension>
        </extensions>
      </trkpt>
      <trkpt lat="47.53937669098377227783203125" lon="10.22918284870684146881103515625">
        <ele>1191.4000244140625</ele>
        <time>2026-09-01T07:17:22.000Z</time>
        <extensions>
          <ns3:TrackPointExtension>
            <ns3:hr>164</ns3:hr>
            <ns3:cad>0</ns3:cad>
          </ns3:TrackPointExtension>
        </extensions>
      </trkpt>
      <trkpt lat="47.53938549198210239410400390625" lon="10.2291507460176944732666015625">
        <ele>1192.199951171875</ele>
        <time>2026-09-01T07:17:24.000Z</time>
        <extensions>
          <ns3:TrackPointExtension>
            <ns3:hr>164</ns3:hr>
            <ns3:cad>0</ns3:cad>
          </ns3:TrackPointExtension>
        </extensions>
      </trkpt>
      <trkpt lat="47.5393922813236713409423828125" lon="10.2290944196283817291259765625">
        <ele>1193.4000244140625</ele>
        <time>2026-09-01T07:17:27.000Z</time>
        <extensions>
          <ns3:TrackPointExtension>
            <ns3:hr>164</ns3:hr>
            <ns3:cad>0</ns3:cad>
          </ns3:TrackPointExtension>
        </extensions>
      </trkpt>
      <trkpt lat="47.53939722664654254913330078125" lon="10.22902275435626506805419921875">
        <ele>1194.5999755859375</ele>
        <time>2026-09-01T07:17:31.000Z</time>
        <extensions>
          <ns3:TrackPointExtension>
            <ns3:hr>164</ns3:hr>
            <ns3:cad>0</ns3:cad>
          </ns3:TrackPointExtension>
        </extensions>
      </trkpt>
      <trkpt lat="47.5393919460475444793701171875" lon="10.228989981114864349365234375">
        <ele>1196</ele>
        <time>2026-09-01T07:17:34.000Z</time>
        <extensions>
          <ns3:TrackPointExtension>
            <ns3:hr>164</ns3:hr>
            <ns3:cad>0</ns3:cad>
          </ns3:TrackPointExtension>
        </extensions>
      </trkpt>
      <trkpt lat="47.53939487971365451812744140625" lon="10.22894002497196197509765625">
        <ele>1197.199951171875</ele>
        <time>2026-09-01T07:17:37.000Z</time>
        <extensions>
          <ns3:TrackPointExtension>
            <ns3:hr>164</ns3:hr>
            <ns3:cad>18</ns3:cad>
          </ns3:TrackPointExtension>
        </extensions>
      </trkpt>
      <trkpt lat="47.53939672373235225677490234375" lon="10.228890068829059600830078125">
        <ele>1198.4000244140625</ele>
        <time>2026-09-01T07:17:40.000Z</time>
        <extensions>
          <ns3:TrackPointExtension>
            <ns3:hr>165</ns3:hr>
            <ns3:cad>18</ns3:cad>
          </ns3:TrackPointExtension>
        </extensions>
      </trkpt>
      <trkpt lat="47.53939705900847911834716796875" lon="10.22883541882038116455078125">
        <ele>1199.4000244140625</ele>
        <time>2026-09-01T07:17:43.000Z</time>
        <extensions>
          <ns3:TrackPointExtension>
            <ns3:hr>165</ns3:hr>
            <ns3:cad>0</ns3:cad>
          </ns3:TrackPointExtension>
        </extensions>
      </trkpt>
      <trkpt lat="47.53939278423786163330078125" lon="10.22879778407514095306396484375">
        <ele>1200.4000244140625</ele>
        <time>2026-09-01T07:17:46.000Z</time>
        <extensions>
          <ns3:TrackPointExtension>
            <ns3:hr>166</ns3:hr>
            <ns3:cad>0</ns3:cad>
          </ns3:TrackPointExtension>
        </extensions>
      </trkpt>
      <trkpt lat="47.5393963046371936798095703125" lon="10.22873793728649616241455078125">
        <ele>1201.800048828125</ele>
        <time>2026-09-01T07:17:49.000Z</time>
        <extensions>
          <ns3:TrackPointExtension>
            <ns3:hr>165</ns3:hr>
            <ns3:cad>0</ns3:cad>
          </ns3:TrackPointExtension>
        </extensions>
      </trkpt>
      <trkpt lat="47.53940024413168430328369140625" lon="10.22872687317430973052978515625">
        <ele>1202.199951171875</ele>
        <time>2026-09-01T07:17:50.000Z</time>
        <extensions>
          <ns3:TrackPointExtension>
            <ns3:hr>165</ns3:hr>
            <ns3:cad>0</ns3:cad>
          </ns3:TrackPointExtension>
        </extensions>
      </trkpt>
      <trkpt lat="47.53940225578844547271728515625" lon="10.22868697531521320343017578125">
        <ele>1203</ele>
        <time>2026-09-01T07:17:52.000Z</time>
        <extensions>
          <ns3:TrackPointExtension>
            <ns3:hr>165</ns3:hr>
            <ns3:cad>0</ns3:cad>
          </ns3:TrackPointExtension>
        </extensions>
      </trkpt>
      <trkpt lat="47.53941047005355358123779296875" lon="10.22864255122840404510498046875">
        <ele>1204.4000244140625</ele>
        <time>2026-09-01T07:17:55.000Z</time>
        <extensions>
          <ns3:TrackPointExtension>
            <ns3:hr>165</ns3:hr>
            <ns3:cad>0</ns3:cad>
          </ns3:TrackPointExtension>
        </extensions>
      </trkpt>
      <trkpt lat="47.53942438401281833648681640625" lon="10.22862427867949008941650390625">
        <ele>1204.5999755859375</ele>
        <time>2026-09-01T07:17:56.000Z</time>
        <extensions>
          <ns3:TrackPointExtension>
            <ns3:hr>165</ns3:hr>
            <ns3:cad>0</ns3:cad>
          </ns3:TrackPointExtension>
        </extensions>
      </trkpt>
      <trkpt lat="47.53942689858376979827880859375" lon="10.22860080935060977935791015625">
        <ele>1205.199951171875</ele>
        <time>2026-09-01T07:17:58.000Z</time>
        <extensions>
          <ns3:TrackPointExtension>
            <ns3:hr>164</ns3:hr>
            <ns3:cad>0</ns3:cad>
          </ns3:TrackPointExtension>
        </extensions>
      </trkpt>
      <trkpt lat="47.53942673094570636749267578125" lon="10.22859259508550167083740234375">
        <ele>1205.5999755859375</ele>
        <time>2026-09-01T07:17:59.000Z</time>
        <extensions>
          <ns3:TrackPointExtension>
            <ns3:hr>164</ns3:hr>
            <ns3:cad>0</ns3:cad>
          </ns3:TrackPointExtension>
        </extensions>
      </trkpt>
      <trkpt lat="47.53942220471799373626708984375" lon="10.22857096977531909942626953125">
        <ele>1206</ele>
        <time>2026-09-01T07:18:00.000Z</time>
        <extensions>
          <ns3:TrackPointExtension>
            <ns3:hr>164</ns3:hr>
            <ns3:cad>0</ns3:cad>
          </ns3:TrackPointExtension>
        </extensions>
      </trkpt>
      <trkpt lat="47.53942388109862804412841796875" lon="10.22853844799101352691650390625">
        <ele>1206.800048828125</ele>
        <time>2026-09-01T07:18:02.000Z</time>
        <extensions>
          <ns3:TrackPointExtension>
            <ns3:hr>163</ns3:hr>
            <ns3:cad>0</ns3:cad>
          </ns3:TrackPointExtension>
        </extensions>
      </trkpt>
      <trkpt lat="47.5394268147647380828857421875" lon="10.2285371907055377960205078125">
        <ele>1207.199951171875</ele>
        <time>2026-09-01T07:18:03.000Z</time>
        <extensions>
          <ns3:TrackPointExtension>
            <ns3:hr>163</ns3:hr>
            <ns3:cad>0</ns3:cad>
          </ns3:TrackPointExtension>
        </extensions>
      </trkpt>
      <trkpt lat="47.53943310119211673736572265625" lon="10.2285100333392620086669921875">
        <ele>1208</ele>
        <time>2026-09-01T07:18:05.000Z</time>
        <extensions>
          <ns3:TrackPointExtension>
            <ns3:hr>164</ns3:hr>
            <ns3:cad>47</ns3:cad>
          </ns3:TrackPointExtension>
        </extensions>
      </trkpt>
      <trkpt lat="47.53944517113268375396728515625" lon="10.22845949046313762664794921875">
        <ele>1209.4000244140625</ele>
        <time>2026-09-01T07:18:08.000Z</time>
        <extensions>
          <ns3:TrackPointExtension>
            <ns3:hr>163</ns3:hr>
            <ns3:cad>0</ns3:cad>
          </ns3:TrackPointExtension>
        </extensions>
      </trkpt>
      <trkpt lat="47.53944936208426952362060546875" lon="10.22844725288450717926025390625">
        <ele>1209.800048828125</ele>
        <time>2026-09-01T07:18:09.000Z</time>
        <extensions>
          <ns3:TrackPointExtension>
            <ns3:hr>163</ns3:hr>
            <ns3:cad>0</ns3:cad>
          </ns3:TrackPointExtension>
        </extensions>
      </trkpt>
      <trkpt lat="47.53946109674870967864990234375" lon="10.2284208498895168304443359375">
        <ele>1210.5999755859375</ele>
        <time>2026-09-01T07:18:11.000Z</time>
        <extensions>
          <ns3:TrackPointExtension>
            <ns3:hr>163</ns3:hr>
            <ns3:cad>0</ns3:cad>
          </ns3:TrackPointExtension>
        </extensions>
      </trkpt>
      <trkpt lat="47.53946729935705661773681640625" lon="10.22836879827082157135009765625">
        <ele>1211.800048828125</ele>
        <time>2026-09-01T07:18:14.000Z</time>
        <extensions>
          <ns3:TrackPointExtension>
            <ns3:hr>163</ns3:hr>
            <ns3:cad>0</ns3:cad>
          </ns3:TrackPointExtension>
        </extensions>
      </trkpt>
      <trkpt lat="47.539464533329010009765625" lon="10.22836410440504550933837890625">
        <ele>1212.199951171875</ele>
        <time>2026-09-01T07:18:15.000Z</time>
        <extensions>
          <ns3:TrackPointExtension>
            <ns3:hr>163</ns3:hr>
            <ns3:cad>0</ns3:cad>
          </ns3:TrackPointExtension>
        </extensions>
      </trkpt>
      <trkpt lat="47.539468891918659210205078125" lon="10.228310711681842803955078125">
        <ele>1213</ele>
        <time>2026-09-01T07:18:17.000Z</time>
        <extensions>
          <ns3:TrackPointExtension>
            <ns3:hr>163</ns3:hr>
            <ns3:cad>0</ns3:cad>
          </ns3:TrackPointExtension>
        </extensions>
      </trkpt>
      <trkpt lat="47.53947182558476924896240234375" lon="10.22827324457466602325439453125">
        <ele>1214</ele>
        <time>2026-09-01T07:18:20.000Z</time>
        <extensions>
          <ns3:TrackPointExtension>
            <ns3:hr>163</ns3:hr>
            <ns3:cad>0</ns3:cad>
          </ns3:TrackPointExtension>
        </extensions>
      </trkpt>
      <trkpt lat="47.53946897573769092559814453125" lon="10.2282558940351009368896484375">
        <ele>1214.4000244140625</ele>
        <time>2026-09-01T07:18:21.000Z</time>
        <extensions>
          <ns3:TrackPointExtension>
            <ns3:hr>163</ns3:hr>
            <ns3:cad>0</ns3:cad>
          </ns3:TrackPointExtension>
        </extensions>
      </trkpt>
      <trkpt lat="47.53945774398744106292724609375" lon="10.2282391302287578582763671875">
        <ele>1215.199951171875</ele>
        <time>2026-09-01T07:18:23.000Z</time>
        <extensions>
          <ns3:TrackPointExtension>
            <ns3:hr>163</ns3:hr>
            <ns3:cad>0</ns3:cad>
          </ns3:TrackPointExtension>
        </extensions>
      </trkpt>
      <trkpt lat="47.53944885917007923126220703125" lon="10.228198729455471038818359375">
        <ele>1216.4000244140625</ele>
        <time>2026-09-01T07:18:26.000Z</time>
        <extensions>
          <ns3:TrackPointExtension>
            <ns3:hr>163</ns3:hr>
            <ns3:cad>16</ns3:cad>
          </ns3:TrackPointExtension>
        </extensions>
      </trkpt>
      <trkpt lat="47.5394444167613983154296875" lon="10.2281643636524677276611328125">
        <ele>1217.800048828125</ele>
        <time>2026-09-01T07:18:29.000Z</time>
        <extensions>
          <ns3:TrackPointExtension>
            <ns3:hr>163</ns3:hr>
            <ns3:cad>16</ns3:cad>
          </ns3:TrackPointExtension>
        </extensions>
      </trkpt>
      <trkpt lat="47.5394502840936183929443359375" lon="10.22815388627350330352783203125">
        <ele>1218.199951171875</ele>
        <time>2026-09-01T07:18:30.000Z</time>
        <extensions>
          <ns3:TrackPointExtension>
            <ns3:hr>163</ns3:hr>
            <ns3:cad>0</ns3:cad>
          </ns3:TrackPointExtension>
        </extensions>
      </trkpt>
      <trkpt lat="47.539456151425838470458984375" lon="10.2281392179429531097412109375">
        <ele>1219.199951171875</ele>
        <time>2026-09-01T07:18:32.000Z</time>
        <extensions>
          <ns3:TrackPointExtension>
            <ns3:hr>162</ns3:hr>
            <ns3:cad>0</ns3:cad>
          </ns3:TrackPointExtension>
        </extensions>
      </trkpt>
      <trkpt lat="47.53945103846490383148193359375" lon="10.22812329232692718505859375">
        <ele>1219.4000244140625</ele>
        <time>2026-09-01T07:18:33.000Z</time>
        <extensions>
          <ns3:TrackPointExtension>
            <ns3:hr>161</ns3:hr>
            <ns3:cad>0</ns3:cad>
          </ns3:TrackPointExtension>
        </extensions>
      </trkpt>
      <trkpt lat="47.53944232128560543060302734375" lon="10.22811046801507472991943359375">
        <ele>1220.4000244140625</ele>
        <time>2026-09-01T07:18:35.000Z</time>
        <extensions>
          <ns3:TrackPointExtension>
            <ns3:hr>161</ns3:hr>
            <ns3:cad>0</ns3:cad>
          </ns3:TrackPointExtension>
        </extensions>
      </trkpt>
      <trkpt lat="47.5394160859286785125732421875" lon="10.2280850708484649658203125">
        <ele>1221.5999755859375</ele>
        <time>2026-09-01T07:18:38.000Z</time>
        <extensions>
          <ns3:TrackPointExtension>
            <ns3:hr>160</ns3:hr>
            <ns3:cad>0</ns3:cad>
          </ns3:TrackPointExtension>
        </extensions>
      </trkpt>
      <trkpt lat="47.53940896131098270416259765625" lon="10.22807526402175426483154296875">
        <ele>1222.199951171875</ele>
        <time>2026-09-01T07:18:39.000Z</time>
        <extensions>
          <ns3:TrackPointExtension>
            <ns3:hr>160</ns3:hr>
            <ns3:cad>0</ns3:cad>
          </ns3:TrackPointExtension>
        </extensions>
      </trkpt>
      <trkpt lat="47.53939873538911342620849609375" lon="10.228049866855144500732421875">
        <ele>1223</ele>
        <time>2026-09-01T07:18:41.000Z</time>
        <extensions>
          <ns3:TrackPointExtension>
            <ns3:hr>160</ns3:hr>
            <ns3:cad>0</ns3:cad>
          </ns3:TrackPointExtension>
        </extensions>
      </trkpt>
      <trkpt lat="47.53938741981983184814453125" lon="10.22801977582275867462158203125">
        <ele>1224.199951171875</ele>
        <time>2026-09-01T07:18:44.000Z</time>
        <extensions>
          <ns3:TrackPointExtension>
            <ns3:hr>160</ns3:hr>
            <ns3:cad>0</ns3:cad>
          </ns3:TrackPointExtension>
        </extensions>
      </trkpt>
      <trkpt lat="47.53937308676540851593017578125" lon="10.22799320518970489501953125">
        <ele>1225.4000244140625</ele>
        <time>2026-09-01T07:18:47.000Z</time>
        <extensions>
          <ns3:TrackPointExtension>
            <ns3:hr>162</ns3:hr>
            <ns3:cad>0</ns3:cad>
          </ns3:TrackPointExtension>
        </extensions>
      </trkpt>
      <trkpt lat="47.5393570773303508758544921875" lon="10.22796965204179286956787109375">
        <ele>1226</ele>
        <time>2026-09-01T07:18:49.000Z</time>
        <extensions>
          <ns3:TrackPointExtension>
            <ns3:hr>162</ns3:hr>
            <ns3:cad>51</ns3:cad>
          </ns3:TrackPointExtension>
        </extensions>
      </trkpt>
      <trkpt lat="47.539347521960735321044921875" lon="10.2279554866254329681396484375">
        <ele>1226.5999755859375</ele>
        <time>2026-09-01T07:18:50.000Z</time>
        <extensions>
          <ns3:TrackPointExtension>
            <ns3:hr>162</ns3:hr>
            <ns3:cad>51</ns3:cad>
          </ns3:TrackPointExtension>
        </extensions>
      </trkpt>
      <trkpt lat="47.53932463936507701873779296875" lon="10.2279229648411273956298828125">
        <ele>1227.800048828125</ele>
        <time>2026-09-01T07:18:53.000Z</time>
        <extensions>
          <ns3:TrackPointExtension>
            <ns3:hr>163</ns3:hr>
            <ns3:cad>0</ns3:cad>
          </ns3:TrackPointExtension>
        </extensions>
      </trkpt>
      <trkpt lat="47.53929622471332550048828125" lon="10.2278864197432994842529296875">
        <ele>1229</ele>
        <time>2026-09-01T07:18:56.000Z</time>
        <extensions>
          <ns3:TrackPointExtension>
            <ns3:hr>164</ns3:hr>
            <ns3:cad>0</ns3:cad>
          </ns3:TrackPointExtension>
        </extensions>
      </trkpt>
      <trkpt lat="47.5392789579927921295166015625" lon="10.227850377559661865234375">
        <ele>1230</ele>
        <time>2026-09-01T07:18:59.000Z</time>
        <extensions>
          <ns3:TrackPointExtension>
            <ns3:hr>164</ns3:hr>
            <ns3:cad>0</ns3:cad>
          </ns3:TrackPointExtension>
        </extensions>
      </trkpt>
      <trkpt lat="47.539283819496631622314453125" lon="10.22781659848988056182861328125">
        <ele>1231.199951171875</ele>
        <time>2026-09-01T07:19:02.000Z</time>
        <extensions>
          <ns3:TrackPointExtension>
            <ns3:hr>165</ns3:hr>
            <ns3:cad>0</ns3:cad>
          </ns3:TrackPointExtension>
        </extensions>
      </trkpt>
      <trkpt lat="47.53928323276340961456298828125" lon="10.2277992479503154754638671875">
        <ele>1231.5999755859375</ele>
        <time>2026-09-01T07:19:03.000Z</time>
        <extensions>
          <ns3:TrackPointExtension>
            <ns3:hr>165</ns3:hr>
            <ns3:cad>0</ns3:cad>
          </ns3:TrackPointExtension>
        </extensions>
      </trkpt>
      <trkpt lat="47.53929044120013713836669921875" lon="10.22776798345148563385009765625">
        <ele>1232.5999755859375</ele>
        <time>2026-09-01T07:19:05.000Z</time>
        <extensions>
          <ns3:TrackPointExtension>
            <ns3:hr>165</ns3:hr>
            <ns3:cad>0</ns3:cad>
          </ns3:TrackPointExtension>
        </extensions>
      </trkpt>
      <trkpt lat="47.5392859987914562225341796875" lon="10.22772230207920074462890625">
        <ele>1233.800048828125</ele>
        <time>2026-09-01T07:19:08.000Z</time>
        <extensions>
          <ns3:TrackPointExtension>
            <ns3:hr>165</ns3:hr>
            <ns3:cad>0</ns3:cad>
          </ns3:TrackPointExtension>
        </extensions>
      </trkpt>
      <trkpt lat="47.5392876751720905303955078125" lon="10.22768634371459484100341796875">
        <ele>1235</ele>
        <time>2026-09-01T07:19:11.000Z</time>
        <extensions>
          <ns3:TrackPointExtension>
            <ns3:hr>166</ns3:hr>
            <ns3:cad>0</ns3:cad>
          </ns3:TrackPointExtension>
        </extensions>
      </trkpt>
      <trkpt lat="47.53929764963686466217041015625" lon="10.22767812944948673248291015625">
        <ele>1235.4000244140625</ele>
        <time>2026-09-01T07:19:12.000Z</time>
        <extensions>
          <ns3:TrackPointExtension>
            <ns3:hr>165</ns3:hr>
            <ns3:cad>0</ns3:cad>
          </ns3:TrackPointExtension>
        </extensions>
      </trkpt>
      <trkpt lat="47.53931173123419284820556640625" lon="10.2276688255369663238525390625">
        <ele>1236.199951171875</ele>
        <time>2026-09-01T07:19:14.000Z</time>
        <extensions>
          <ns3:TrackPointExtension>
            <ns3:hr>165</ns3:hr>
            <ns3:cad>0</ns3:cad>
          </ns3:TrackPointExtension>
        </extensions>
      </trkpt>
      <trkpt lat="47.53934257663786411285400390625" lon="10.22767628543078899383544921875">
        <ele>1237.199951171875</ele>
        <time>2026-09-01T07:19:17.000Z</time>
        <extensions>
          <ns3:TrackPointExtension>
            <ns3:hr>165</ns3:hr>
            <ns3:cad>0</ns3:cad>
          </ns3:TrackPointExtension>
        </extensions>
      </trkpt>
      <trkpt lat="47.53936654888093471527099609375" lon="10.227673016488552093505859375">
        <ele>1238</ele>
        <time>2026-09-01T07:19:19.000Z</time>
        <extensions>
          <ns3:TrackPointExtension>
            <ns3:hr>165</ns3:hr>
            <ns3:cad>0</ns3:cad>
          </ns3:TrackPointExtension>
        </extensions>
      </trkpt>
      <trkpt lat="47.53937266767024993896484375" lon="10.2276681549847126007080078125">
        <ele>1238.4000244140625</ele>
        <time>2026-09-01T07:19:20.000Z</time>
        <extensions>
          <ns3:TrackPointExtension>
            <ns3:hr>165</ns3:hr>
            <ns3:cad>0</ns3:cad>
          </ns3:TrackPointExtension>
        </extensions>
      </trkpt>
      <trkpt lat="47.53937744535505771636962890625" lon="10.227651894092559814453125">
        <ele>1239</ele>
        <time>2026-09-01T07:19:22.000Z</time>
        <extensions>
          <ns3:TrackPointExtension>
            <ns3:hr>165</ns3:hr>
            <ns3:cad>0</ns3:cad>
          </ns3:TrackPointExtension>
        </extensions>
      </trkpt>
      <trkpt lat="47.53938146866858005523681640625" lon="10.22764208726584911346435546875">
        <ele>1239.4000244140625</ele>
        <time>2026-09-01T07:19:23.000Z</time>
        <extensions>
          <ns3:TrackPointExtension>
            <ns3:hr>165</ns3:hr>
            <ns3:cad>0</ns3:cad>
          </ns3:TrackPointExtension>
        </extensions>
      </trkpt>
      <trkpt lat="47.53938918001949787139892578125" lon="10.2276118285953998565673828125">
        <ele>1240.4000244140625</ele>
        <time>2026-09-01T07:19:25.000Z</time>
        <extensions>
          <ns3:TrackPointExtension>
            <ns3:hr>165</ns3:hr>
            <ns3:cad>0</ns3:cad>
          </ns3:TrackPointExtension>
        </extensions>
      </trkpt>
      <trkpt lat="47.5393926165997982025146484375" lon="10.2276022732257843017578125">
        <ele>1240.800048828125</ele>
        <time>2026-09-01T07:19:26.000Z</time>
        <extensions>
          <ns3:TrackPointExtension>
            <ns3:hr>165</ns3:hr>
            <ns3:cad>0</ns3:cad>
          </ns3:TrackPointExtension>
        </extensions>
      </trkpt>
      <trkpt lat="47.53941449336707592010498046875" lon="10.22758014500141143798828125">
        <ele>1242.199951171875</ele>
        <time>2026-09-01T07:19:29.000Z</time>
        <extensions>
          <ns3:TrackPointExtension>
            <ns3:hr>165</ns3:hr>
            <ns3:cad>0</ns3:cad>
          </ns3:TrackPointExtension>
        </extensions>
      </trkpt>
      <trkpt lat="47.5394375436007976531982421875" lon="10.22755960933864116668701171875">
        <ele>1242.800048828125</ele>
        <time>2026-09-01T07:19:31.000Z</time>
        <extensions>
          <ns3:TrackPointExtension>
            <ns3:hr>165</ns3:hr>
            <ns3:cad>0</ns3:cad>
          </ns3:TrackPointExtension>
        </extensions>
      </trkpt>
      <trkpt lat="47.539446763694286346435546875" lon="10.2275481261312961578369140625">
        <ele>1243.199951171875</ele>
        <time>2026-09-01T07:19:32.000Z</time>
        <extensions>
          <ns3:TrackPointExtension>
            <ns3:hr>164</ns3:hr>
            <ns3:cad>0</ns3:cad>
          </ns3:TrackPointExtension>
        </extensions>
      </trkpt>
      <trkpt lat="47.53944433294236660003662109375" lon="10.2275206334888935089111328125">
        <ele>1244</ele>
        <time>2026-09-01T07:19:34.000Z</time>
        <extensions>
          <ns3:TrackPointExtension>
            <ns3:hr>165</ns3:hr>
            <ns3:cad>0</ns3:cad>
          </ns3:TrackPointExtension>
        </extensions>
      </trkpt>
      <trkpt lat="47.5394405610859394073486328125" lon="10.2275149337947368621826171875">
        <ele>1244.4000244140625</ele>
        <time>2026-09-01T07:19:35.000Z</time>
        <extensions>
          <ns3:TrackPointExtension>
            <ns3:hr>165</ns3:hr>
            <ns3:cad>0</ns3:cad>
          </ns3:TrackPointExtension>
        </extensions>
      </trkpt>
      <trkpt lat="47.53943243063986301422119140625" lon="10.22749305702745914459228515625">
        <ele>1244.800048828125</ele>
        <time>2026-09-01T07:19:36.000Z</time>
        <extensions>
          <ns3:TrackPointExtension>
            <ns3:hr>164</ns3:hr>
            <ns3:cad>0</ns3:cad>
          </ns3:TrackPointExtension>
        </extensions>
      </trkpt>
      <trkpt lat="47.53941952250897884368896484375" lon="10.22746573202311992645263671875">
        <ele>1245.4000244140625</ele>
        <time>2026-09-01T07:19:38.000Z</time>
        <extensions>
          <ns3:TrackPointExtension>
            <ns3:hr>165</ns3:hr>
            <ns3:cad>0</ns3:cad>
          </ns3:TrackPointExtension>
        </extensions>
      </trkpt>
      <trkpt lat="47.5394122302532196044921875" lon="10.227445699274539947509765625">
        <ele>1246.199951171875</ele>
        <time>2026-09-01T07:19:40.000Z</time>
        <extensions>
          <ns3:TrackPointExtension>
            <ns3:hr>165</ns3:hr>
            <ns3:cad>0</ns3:cad>
          </ns3:TrackPointExtension>
        </extensions>
      </trkpt>
      <trkpt lat="47.53941047005355358123779296875" lon="10.22743958048522472381591796875">
        <ele>1246.5999755859375</ele>
        <time>2026-09-01T07:19:41.000Z</time>
        <extensions>
          <ns3:TrackPointExtension>
            <ns3:hr>165</ns3:hr>
            <ns3:cad>0</ns3:cad>
          </ns3:TrackPointExtension>
        </extensions>
      </trkpt>
      <trkpt lat="47.5394160859286785125732421875" lon="10.227414183318614959716796875">
        <ele>1247.800048828125</ele>
        <time>2026-09-01T07:19:44.000Z</time>
        <extensions>
          <ns3:TrackPointExtension>
            <ns3:hr>165</ns3:hr>
            <ns3:cad>0</ns3:cad>
          </ns3:TrackPointExtension>
        </extensions>
      </trkpt>
      <trkpt lat="47.5394258089363574981689453125" lon="10.22738560102880001068115234375">
        <ele>1248.4000244140625</ele>
        <time>2026-09-01T07:19:46.000Z</time>
        <extensions>
          <ns3:TrackPointExtension>
            <ns3:hr>165</ns3:hr>
            <ns3:cad>0</ns3:cad>
          </ns3:TrackPointExtension>
        </extensions>
      </trkpt>
      <trkpt lat="47.539431340992450714111328125" lon="10.22736883722245693206787109375">
        <ele>1248.800048828125</ele>
        <time>2026-09-01T07:19:47.000Z</time>
        <extensions>
          <ns3:TrackPointExtension>
            <ns3:hr>165</ns3:hr>
            <ns3:cad>0</ns3:cad>
          </ns3:TrackPointExtension>
        </extensions>
      </trkpt>
      <trkpt lat="47.5394331850111484527587890625" lon="10.227329023182392120361328125">
        <ele>1250</ele>
        <time>2026-09-01T07:19:50.000Z</time>
        <extensions>
          <ns3:TrackPointExtension>
            <ns3:hr>165</ns3:hr>
            <ns3:cad>0</ns3:cad>
          </ns3:TrackPointExtension>
        </extensions>
      </trkpt>
      <trkpt lat="47.53942790441215038299560546875" lon="10.22731368429958820343017578125">
        <ele>1250.4000244140625</ele>
        <time>2026-09-01T07:19:51.000Z</time>
        <extensions>
          <ns3:TrackPointExtension>
            <ns3:hr>164</ns3:hr>
            <ns3:cad>0</ns3:cad>
          </ns3:TrackPointExtension>
        </extensions>
      </trkpt>
      <trkpt lat="47.53941784612834453582763671875" lon="10.22727998904883861541748046875">
        <ele>1251.199951171875</ele>
        <time>2026-09-01T07:19:53.000Z</time>
        <extensions>
          <ns3:TrackPointExtension>
            <ns3:hr>164</ns3:hr>
            <ns3:cad>71</ns3:cad>
          </ns3:TrackPointExtension>
        </extensions>
      </trkpt>
      <trkpt lat="47.53942455165088176727294921875" lon="10.22723942063748836517333984375">
        <ele>1252.199951171875</ele>
        <time>2026-09-01T07:19:56.000Z</time>
        <extensions>
          <ns3:TrackPointExtension>
            <ns3:hr>164</ns3:hr>
            <ns3:cad>0</ns3:cad>
          </ns3:TrackPointExtension>
        </extensions>
      </trkpt>
      <trkpt lat="47.5394281558692455291748046875" lon="10.22722600959241390228271484375">
        <ele>1252.5999755859375</ele>
        <time>2026-09-01T07:19:57.000Z</time>
        <extensions>
          <ns3:TrackPointExtension>
            <ns3:hr>164</ns3:hr>
            <ns3:cad>0</ns3:cad>
          </ns3:TrackPointExtension>
        </extensions>
      </trkpt>
      <trkpt lat="47.53943561576306819915771484375" lon="10.2271970920264720916748046875">
        <ele>1253.4000244140625</ele>
        <time>2026-09-01T07:19:59.000Z</time>
        <extensions>
          <ns3:TrackPointExtension>
            <ns3:hr>163</ns3:hr>
            <ns3:cad>0</ns3:cad>
          </ns3:TrackPointExtension>
        </extensions>
      </trkpt>
      <trkpt lat="47.53944332711398601531982421875" lon="10.22714654915034770965576171875">
        <ele>1254.5999755859375</ele>
        <time>2026-09-01T07:20:02.000Z</time>
        <extensions>
          <ns3:TrackPointExtension>
            <ns3:hr>163</ns3:hr>
            <ns3:cad>0</ns3:cad>
          </ns3:TrackPointExtension>
        </extensions>
      </trkpt>
      <trkpt lat="47.53944508731365203857421875" lon="10.227110087871551513671875">
        <ele>1255.800048828125</ele>
        <time>2026-09-01T07:20:05.000Z</time>
        <extensions>
          <ns3:TrackPointExtension>
            <ns3:hr>163</ns3:hr>
            <ns3:cad>50</ns3:cad>
          </ns3:TrackPointExtension>
        </extensions>
      </trkpt>
      <trkpt lat="47.53944098018109798431396484375" lon="10.2270693518221378326416015625">
        <ele>1257</ele>
        <time>2026-09-01T07:20:08.000Z</time>
        <extensions>
          <ns3:TrackPointExtension>
            <ns3:hr>164</ns3:hr>
            <ns3:cad>52</ns3:cad>
          </ns3:TrackPointExtension>
        </extensions>
      </trkpt>
      <trkpt lat="47.53943662159144878387451171875" lon="10.22704781033098697662353515625">
        <ele>1257.4000244140625</ele>
        <time>2026-09-01T07:20:09.000Z</time>
        <extensions>
          <ns3:TrackPointExtension>
            <ns3:hr>164</ns3:hr>
            <ns3:cad>52</ns3:cad>
          </ns3:TrackPointExtension>
        </extensions>
      </trkpt>
      <trkpt lat="47.5394244678318500518798828125" lon="10.22700875066220760345458984375">
        <ele>1258.199951171875</ele>
        <time>2026-09-01T07:20:11.000Z</time>
        <extensions>
          <ns3:TrackPointExtension>
            <ns3:hr>164</ns3:hr>
            <ns3:cad>52</ns3:cad>
          </ns3:TrackPointExtension>
        </extensions>
      </trkpt>
      <trkpt lat="47.539409883320331573486328125" lon="10.22695493884384632110595703125">
        <ele>1259.199951171875</ele>
        <time>2026-09-01T07:20:14.000Z</time>
        <extensions>
          <ns3:TrackPointExtension>
            <ns3:hr>164</ns3:hr>
            <ns3:cad>0</ns3:cad>
          </ns3:TrackPointExtension>
        </extensions>
      </trkpt>
      <trkpt lat="47.5394066981971263885498046875" lon="10.22693716920912265777587890625">
        <ele>1259.5999755859375</ele>
        <time>2026-09-01T07:20:15.000Z</time>
        <extensions>
          <ns3:TrackPointExtension>
            <ns3:hr>165</ns3:hr>
            <ns3:cad>0</ns3:cad>
          </ns3:TrackPointExtension>
        </extensions>
      </trkpt>
      <trkpt lat="47.5393979810178279876708984375" lon="10.2269027195870876312255859375">
        <ele>1260.199951171875</ele>
        <time>2026-09-01T07:20:17.000Z</time>
        <extensions>
          <ns3:TrackPointExtension>
            <ns3:hr>165</ns3:hr>
            <ns3:cad>0</ns3:cad>
          </ns3:TrackPointExtension>
        </extensions>
      </trkpt>
      <trkpt lat="47.53937744535505771636962890625" lon="10.22680406458675861358642578125">
        <ele>1261.4000244140625</ele>
        <time>2026-09-01T07:20:20.000Z</time>
        <extensions>
          <ns3:TrackPointExtension>
            <ns3:hr>165</ns3:hr>
            <ns3:cad>0</ns3:cad>
          </ns3:TrackPointExtension>
        </extensions>
      </trkpt>
      <trkpt lat="47.53937442786991596221923828125" lon="10.22678579203784465789794921875">
        <ele>1261.5999755859375</ele>
        <time>2026-09-01T07:20:21.000Z</time>
        <extensions>
          <ns3:TrackPointExtension>
            <ns3:hr>164</ns3:hr>
            <ns3:cad>0</ns3:cad>
          </ns3:TrackPointExtension>
        </extensions>
      </trkpt>
      <trkpt lat="47.53938113339245319366455078125" lon="10.22671471349895000457763671875">
        <ele>1262.4000244140625</ele>
        <time>2026-09-01T07:20:23.000Z</time>
        <extensions>
          <ns3:TrackPointExtension>
            <ns3:hr>164</ns3:hr>
            <ns3:cad>0</ns3:cad>
          </ns3:TrackPointExtension>
        </extensions>
      </trkpt>
      <trkpt lat="47.5393838994204998016357421875" lon="10.22666844539344310760498046875">
        <ele>1263</ele>
        <time>2026-09-01T07:20:25.000Z</time>
        <extensions>
          <ns3:TrackPointExtension>
            <ns3:hr>163</ns3:hr>
            <ns3:cad>0</ns3:cad>
          </ns3:TrackPointExtension>
        </extensions>
      </trkpt>
      <trkpt lat="47.539384067058563232421875" lon="10.22662636823952198028564453125">
        <ele>1263.5999755859375</ele>
        <time>2026-09-01T07:20:27.000Z</time>
        <extensions>
          <ns3:TrackPointExtension>
            <ns3:hr>164</ns3:hr>
            <ns3:cad>41</ns3:cad>
          </ns3:TrackPointExtension>
        </extensions>
      </trkpt>
      <trkpt lat="47.53936193883419036865234375" lon="10.2265526913106441497802734375">
        <ele>1264.5999755859375</ele>
        <time>2026-09-01T07:20:30.000Z</time>
        <extensions>
          <ns3:TrackPointExtension>
            <ns3:hr>165</ns3:hr>
            <ns3:cad>41</ns3:cad>
          </ns3:TrackPointExtension>
        </extensions>
      </trkpt>
      <trkpt lat="47.53935967572033405303955078125" lon="10.22653031162917613983154296875">
        <ele>1265</ele>
        <time>2026-09-01T07:20:31.000Z</time>
        <extensions>
          <ns3:TrackPointExtension>
            <ns3:hr>165</ns3:hr>
            <ns3:cad>41</ns3:cad>
          </ns3:TrackPointExtension>
        </extensions>
      </trkpt>
      <trkpt lat="47.5393473543226718902587890625" lon="10.226451270282268524169921875">
        <ele>1266</ele>
        <time>2026-09-01T07:20:34.000Z</time>
        <extensions>
          <ns3:TrackPointExtension>
            <ns3:hr>165</ns3:hr>
            <ns3:cad>83</ns3:cad>
          </ns3:TrackPointExtension>
        </extensions>
      </trkpt>
      <trkpt lat="47.53933670930564403533935546875" lon="10.22639301605522632598876953125">
        <ele>1266.5999755859375</ele>
        <time>2026-09-01T07:20:36.000Z</time>
        <extensions>
          <ns3:TrackPointExtension>
            <ns3:hr>165</ns3:hr>
            <ns3:cad>83</ns3:cad>
          </ns3:TrackPointExtension>
        </extensions>
      </trkpt>
      <trkpt lat="47.53933385945856571197509765625" lon="10.2263713069260120391845703125">
        <ele>1267</ele>
        <time>2026-09-01T07:20:37.000Z</time>
        <extensions>
          <ns3:TrackPointExtension>
            <ns3:hr>165</ns3:hr>
            <ns3:cad>41</ns3:cad>
          </ns3:TrackPointExtension>
        </extensions>
      </trkpt>
      <trkpt lat="47.5393131561577320098876953125" lon="10.22628254257142543792724609375">
        <ele>1268.4000244140625</ele>
        <time>2026-09-01T07:20:41.000Z</time>
        <extensions>
          <ns3:TrackPointExtension>
            <ns3:hr>166</ns3:hr>
            <ns3:cad>42</ns3:cad>
          </ns3:TrackPointExtension>
        </extensions>
      </trkpt>
      <trkpt lat="47.53929278813302516937255859375" lon="10.22620978765189647674560546875">
        <ele>1269.4000244140625</ele>
        <time>2026-09-01T07:20:44.000Z</time>
        <extensions>
          <ns3:TrackPointExtension>
            <ns3:hr>167</ns3:hr>
            <ns3:cad>42</ns3:cad>
          </ns3:TrackPointExtension>
        </extensions>
      </trkpt>
      <trkpt lat="47.5392834842205047607421875" lon="10.22618698887526988983154296875">
        <ele>1269.800048828125</ele>
        <time>2026-09-01T07:20:45.000Z</time>
        <extensions>
          <ns3:TrackPointExtension>
            <ns3:hr>167</ns3:hr>
            <ns3:cad>42</ns3:cad>
          </ns3:TrackPointExtension>
        </extensions>
      </trkpt>
      <trkpt lat="47.53928407095372676849365234375" lon="10.22616662085056304931640625">
        <ele>1270</ele>
        <time>2026-09-01T07:20:46.000Z</time>
        <extensions>
          <ns3:TrackPointExtension>
            <ns3:hr>167</ns3:hr>
            <ns3:cad>42</ns3:cad>
          </ns3:TrackPointExtension>
        </extensions>
      </trkpt>
      <trkpt lat="47.53925976343452930450439453125" lon="10.226117670536041259765625">
        <ele>1270.5999755859375</ele>
        <time>2026-09-01T07:20:48.000Z</time>
        <extensions>
          <ns3:TrackPointExtension>
            <ns3:hr>166</ns3:hr>
            <ns3:cad>83</ns3:cad>
          </ns3:TrackPointExtension>
        </extensions>
      </trkpt>
      <trkpt lat="47.5392258167266845703125" lon="10.22606193087995052337646484375">
        <ele>1271.199951171875</ele>
        <time>2026-09-01T07:20:50.000Z</time>
        <extensions>
          <ns3:TrackPointExtension>
            <ns3:hr>166</ns3:hr>
            <ns3:cad>83</ns3:cad>
          </ns3:TrackPointExtension>
        </extensions>
      </trkpt>
      <trkpt lat="47.53921114839613437652587890625" lon="10.22603561170399188995361328125">
        <ele>1271.5999755859375</ele>
        <time>2026-09-01T07:20:51.000Z</time>
        <extensions>
          <ns3:TrackPointExtension>
            <ns3:hr>166</ns3:hr>
            <ns3:cad>83</ns3:cad>
          </ns3:TrackPointExtension>
        </extensions>
      </trkpt>
      <trkpt lat="47.5391867570579051971435546875" lon="10.22595112212002277374267578125">
        <ele>1272.5999755859375</ele>
        <time>2026-09-01T07:20:54.000Z</time>
        <extensions>
          <ns3:TrackPointExtension>
            <ns3:hr>165</ns3:hr>
            <ns3:cad>83</ns3:cad>
          </ns3:TrackPointExtension>
        </extensions>
      </trkpt>
      <trkpt lat="47.53917460329830646514892578125" lon="10.22592253983020782470703125">
        <ele>1273</ele>
        <time>2026-09-01T07:20:55.000Z</time>
        <extensions>
          <ns3:TrackPointExtension>
            <ns3:hr>165</ns3:hr>
            <ns3:cad>83</ns3:cad>
          </ns3:TrackPointExtension>
        </extensions>
      </trkpt>
      <trkpt lat="47.53916437737643718719482421875" lon="10.22590317763388156890869140625">
        <ele>1273.4000244140625</ele>
        <time>2026-09-01T07:20:56.000Z</time>
        <extensions>
          <ns3:TrackPointExtension>
            <ns3:hr>165</ns3:hr>
            <ns3:cad>41</ns3:cad>
          </ns3:TrackPointExtension>
        </extensions>
      </trkpt>
      <trkpt lat="47.5391549058258533477783203125" lon="10.22588498890399932861328125">
        <ele>1273.800048828125</ele>
        <time>2026-09-01T07:20:57.000Z</time>
        <extensions>
          <ns3:TrackPointExtension>
            <ns3:hr>165</ns3:hr>
            <ns3:cad>41</ns3:cad>
          </ns3:TrackPointExtension>
        </extensions>
      </trkpt>
      <trkpt lat="47.539121210575103759765625" lon="10.2258274890482425689697265625">
        <ele>1275</ele>
        <time>2026-09-01T07:21:00.000Z</time>
        <extensions>
          <ns3:TrackPointExtension>
            <ns3:hr>165</ns3:hr>
            <ns3:cad>40</ns3:cad>
          </ns3:TrackPointExtension>
        </extensions>
      </trkpt>
      <trkpt lat="47.53910704515874385833740234375" lon="10.225810892879962921142578125">
        <ele>1275.199951171875</ele>
        <time>2026-09-01T07:21:01.000Z</time>
        <extensions>
          <ns3:TrackPointExtension>
            <ns3:hr>165</ns3:hr>
            <ns3:cad>40</ns3:cad>
          </ns3:TrackPointExtension>
        </extensions>
      </trkpt>
      <trkpt lat="47.5390888564288616180419921875" lon="10.2257664687931537628173828125">
        <ele>1276.199951171875</ele>
        <time>2026-09-01T07:21:04.000Z</time>
        <extensions>
          <ns3:TrackPointExtension>
            <ns3:hr>165</ns3:hr>
            <ns3:cad>0</ns3:cad>
          </ns3:TrackPointExtension>
        </extensions>
      </trkpt>
      <trkpt lat="47.53905843012034893035888671875" lon="10.22571265697479248046875">
        <ele>1276.800048828125</ele>
        <time>2026-09-01T07:21:06.000Z</time>
        <extensions>
          <ns3:TrackPointExtension>
            <ns3:hr>165</ns3:hr>
            <ns3:cad>0</ns3:cad>
          </ns3:TrackPointExtension>
        </extensions>
      </trkpt>
      <trkpt lat="47.53904904238879680633544921875" lon="10.2256952226161956787109375">
        <ele>1277.4000244140625</ele>
        <time>2026-09-01T07:21:07.000Z</time>
        <extensions>
          <ns3:TrackPointExtension>
            <ns3:hr>165</ns3:hr>
            <ns3:cad>42</ns3:cad>
          </ns3:TrackPointExtension>
        </extensions>
      </trkpt>
      <trkpt lat="47.53901450894773006439208984375" lon="10.225645601749420166015625">
        <ele>1278.5999755859375</ele>
        <time>2026-09-01T07:21:10.000Z</time>
        <extensions>
          <ns3:TrackPointExtension>
            <ns3:hr>166</ns3:hr>
            <ns3:cad>42</ns3:cad>
          </ns3:TrackPointExtension>
        </extensions>
      </trkpt>
      <trkpt lat="47.53898316062986850738525390625" lon="10.22559262812137603759765625">
        <ele>1279.5999755859375</ele>
        <time>2026-09-01T07:21:13.000Z</time>
        <extensions>
          <ns3:TrackPointExtension>
            <ns3:hr>166</ns3:hr>
            <ns3:cad>41</ns3:cad>
          </ns3:TrackPointExtension>
        </extensions>
      </trkpt>
      <trkpt lat="47.53897846676409244537353515625" lon="10.22558768279850482940673828125">
        <ele>1280</ele>
        <time>2026-09-01T07:21:14.000Z</time>
        <extensions>
          <ns3:TrackPointExtension>
            <ns3:hr>166</ns3:hr>
            <ns3:cad>41</ns3:cad>
          </ns3:TrackPointExtension>
        </extensions>
      </trkpt>
      <trkpt lat="47.5389604456722736358642578125" lon="10.22557326592504978179931640625">
        <ele>1280.5999755859375</ele>
        <time>2026-09-01T07:21:16.000Z</time>
        <extensions>
          <ns3:TrackPointExtension>
            <ns3:hr>167</ns3:hr>
            <ns3:cad>41</ns3:cad>
          </ns3:TrackPointExtension>
        </extensions>
      </trkpt>
      <trkpt lat="47.538948543369770050048828125" lon="10.2255555801093578338623046875">
        <ele>1281.800048828125</ele>
        <time>2026-09-01T07:21:19.000Z</time>
        <extensions>
          <ns3:TrackPointExtension>
            <ns3:hr>166</ns3:hr>
            <ns3:cad>41</ns3:cad>
          </ns3:TrackPointExtension>
        </extensions>
      </trkpt>
      <trkpt lat="47.53893186338245868682861328125" lon="10.225494392216205596923828125">
        <ele>1283</ele>
        <time>2026-09-01T07:21:23.000Z</time>
        <extensions>
          <ns3:TrackPointExtension>
            <ns3:hr>165</ns3:hr>
            <ns3:cad>57</ns3:cad>
          </ns3:TrackPointExtension>
        </extensions>
      </trkpt>
      <trkpt lat="47.5389161892235279083251953125" lon="10.22545273415744304656982421875">
        <ele>1283.4000244140625</ele>
        <time>2026-09-01T07:21:25.000Z</time>
        <extensions>
          <ns3:TrackPointExtension>
            <ns3:hr>165</ns3:hr>
            <ns3:cad>56</ns3:cad>
          </ns3:TrackPointExtension>
        </extensions>
      </trkpt>
      <trkpt lat="47.53889464773237705230712890625" lon="10.2253949828445911407470703125">
        <ele>1284.199951171875</ele>
        <time>2026-09-01T07:21:28.000Z</time>
        <extensions>
          <ns3:TrackPointExtension>
            <ns3:hr>164</ns3:hr>
            <ns3:cad>56</ns3:cad>
          </ns3:TrackPointExtension>
        </extensions>
      </trkpt>
      <trkpt lat="47.53887788392603397369384765625" lon="10.22534762509167194366455078125">
        <ele>1285.199951171875</ele>
        <time>2026-09-01T07:21:31.000Z</time>
        <extensions>
          <ns3:TrackPointExtension>
            <ns3:hr>164</ns3:hr>
            <ns3:cad>56</ns3:cad>
          </ns3:TrackPointExtension>
        </extensions>
      </trkpt>
      <trkpt lat="47.53886966966092586517333984375" lon="10.225322060286998748779296875">
        <ele>1285.800048828125</ele>
        <time>2026-09-01T07:21:33.000Z</time>
        <extensions>
          <ns3:TrackPointExtension>
            <ns3:hr>163</ns3:hr>
            <ns3:cad>57</ns3:cad>
          </ns3:TrackPointExtension>
        </extensions>
      </trkpt>
      <trkpt lat="47.53886304795742034912109375" lon="10.22529247216880321502685546875">
        <ele>1286.4000244140625</ele>
        <time>2026-09-01T07:21:35.000Z</time>
        <extensions>
          <ns3:TrackPointExtension>
            <ns3:hr>162</ns3:hr>
            <ns3:cad>57</ns3:cad>
          </ns3:TrackPointExtension>
        </extensions>
      </trkpt>
      <trkpt lat="47.538847289979457855224609375" lon="10.22525005973875522613525390625">
        <ele>1287.4000244140625</ele>
        <time>2026-09-01T07:21:39.000Z</time>
        <extensions>
          <ns3:TrackPointExtension>
            <ns3:hr>162</ns3:hr>
            <ns3:cad>56</ns3:cad>
          </ns3:TrackPointExtension>
        </extensions>
      </trkpt>
      <trkpt lat="47.5388350524008274078369140625" lon="10.22522759623825550079345703125">
        <ele>1288.199951171875</ele>
        <time>2026-09-01T07:21:41.000Z</time>
        <extensions>
          <ns3:TrackPointExtension>
            <ns3:hr>161</ns3:hr>
            <ns3:cad>56</ns3:cad>
          </ns3:TrackPointExtension>
        </extensions>
      </trkpt>
      <trkpt lat="47.53882541321218013763427734375" lon="10.2252122573554515838623046875">
        <ele>1288.5999755859375</ele>
        <time>2026-09-01T07:21:42.000Z</time>
        <extensions>
          <ns3:TrackPointExtension>
            <ns3:hr>161</ns3:hr>
            <ns3:cad>55</ns3:cad>
          </ns3:TrackPointExtension>
        </extensions>
      </trkpt>
      <trkpt lat="47.53879758529365062713623046875" lon="10.2251770533621311187744140625">
        <ele>1289.5999755859375</ele>
        <time>2026-09-01T07:21:45.000Z</time>
        <extensions>
          <ns3:TrackPointExtension>
            <ns3:hr>161</ns3:hr>
            <ns3:cad>51</ns3:cad>
          </ns3:TrackPointExtension>
        </extensions>
      </trkpt>
      <trkpt lat="47.5387716852128505706787109375" lon="10.2251167036592960357666015625">
        <ele>1290.5999755859375</ele>
        <time>2026-09-01T07:21:49.000Z</time>
        <extensions>
          <ns3:TrackPointExtension>
            <ns3:hr>161</ns3:hr>
            <ns3:cad>53</ns3:cad>
          </ns3:TrackPointExtension>
        </extensions>
      </trkpt>
      <trkpt lat="47.538766153156757354736328125" lon="10.2251022867858409881591796875">
        <ele>1290.800048828125</ele>
        <time>2026-09-01T07:21:50.000Z</time>
        <extensions>
          <ns3:TrackPointExtension>
            <ns3:hr>161</ns3:hr>
            <ns3:cad>53</ns3:cad>
          </ns3:TrackPointExtension>
        </extensions>
      </trkpt>
      <trkpt lat="47.5387443602085113525390625" lon="10.22504738532006740570068359375">
        <ele>1291.800048828125</ele>
        <time>2026-09-01T07:21:53.000Z</time>
        <extensions>
          <ns3:TrackPointExtension>
            <ns3:hr>161</ns3:hr>
            <ns3:cad>53</ns3:cad>
          </ns3:TrackPointExtension>
        </extensions>
      </trkpt>
      <trkpt lat="47.53874092362821102142333984375" lon="10.22500866092741489410400390625">
        <ele>1293</ele>
        <time>2026-09-01T07:21:56.000Z</time>
        <extensions>
          <ns3:TrackPointExtension>
            <ns3:hr>160</ns3:hr>
            <ns3:cad>55</ns3:cad>
          </ns3:TrackPointExtension>
        </extensions>
      </trkpt>
      <trkpt lat="47.538734637200832366943359375" lon="10.224970690906047821044921875">
        <ele>1293.4000244140625</ele>
        <time>2026-09-01T07:21:58.000Z</time>
        <extensions>
          <ns3:TrackPointExtension>
            <ns3:hr>160</ns3:hr>
            <ns3:cad>57</ns3:cad>
          </ns3:TrackPointExtension>
        </extensions>
      </trkpt>
      <trkpt lat="47.5387291051447391510009765625" lon="10.22493121214210987091064453125">
        <ele>1294</ele>
        <time>2026-09-01T07:22:00.000Z</time>
        <extensions>
          <ns3:TrackPointExtension>
            <ns3:hr>160</ns3:hr>
            <ns3:cad>57</ns3:cad>
          </ns3:TrackPointExtension>
        </extensions>
      </trkpt>
      <trkpt lat="47.53872365690767765045166015625" lon="10.22487689740955829620361328125">
        <ele>1295</ele>
        <time>2026-09-01T07:22:03.000Z</time>
        <extensions>
          <ns3:TrackPointExtension>
            <ns3:hr>159</ns3:hr>
            <ns3:cad>58</ns3:cad>
          </ns3:TrackPointExtension>
        </extensions>
      </trkpt>
      <trkpt lat="47.5387227348983287811279296875" lon="10.2248504944145679473876953125">
        <ele>1295.4000244140625</ele>
        <time>2026-09-01T07:22:04.000Z</time>
        <extensions>
          <ns3:TrackPointExtension>
            <ns3:hr>159</ns3:hr>
            <ns3:cad>0</ns3:cad>
          </ns3:TrackPointExtension>
        </extensions>
      </trkpt>
      <trkpt lat="47.53872198052704334259033203125" lon="10.22480900399386882781982421875">
        <ele>1296.199951171875</ele>
        <time>2026-09-01T07:22:06.000Z</time>
        <extensions>
          <ns3:TrackPointExtension>
            <ns3:hr>159</ns3:hr>
            <ns3:cad>0</ns3:cad>
          </ns3:TrackPointExtension>
        </extensions>
      </trkpt>
      <trkpt lat="47.53871996887028217315673828125" lon="10.22476491518318653106689453125">
        <ele>1297.4000244140625</ele>
        <time>2026-09-01T07:22:09.000Z</time>
        <extensions>
          <ns3:TrackPointExtension>
            <ns3:hr>159</ns3:hr>
            <ns3:cad>0</ns3:cad>
          </ns3:TrackPointExtension>
        </extensions>
      </trkpt>
      <trkpt lat="47.53870890475809574127197265625" lon="10.22470708005130290985107421875">
        <ele>1298.5999755859375</ele>
        <time>2026-09-01T07:22:12.000Z</time>
        <extensions>
          <ns3:TrackPointExtension>
            <ns3:hr>160</ns3:hr>
            <ns3:cad>0</ns3:cad>
          </ns3:TrackPointExtension>
        </extensions>
      </trkpt>
      <trkpt lat="47.53870907239615917205810546875" lon="10.22467573173344135284423828125">
        <ele>1299</ele>
        <time>2026-09-01T07:22:14.000Z</time>
        <extensions>
          <ns3:TrackPointExtension>
            <ns3:hr>161</ns3:hr>
            <ns3:cad>0</ns3:cad>
          </ns3:TrackPointExtension>
        </extensions>
      </trkpt>
      <trkpt lat="47.5387053005397319793701171875" lon="10.22464371286332607269287109375">
        <ele>1299.5999755859375</ele>
        <time>2026-09-01T07:22:16.000Z</time>
        <extensions>
          <ns3:TrackPointExtension>
            <ns3:hr>161</ns3:hr>
            <ns3:cad>0</ns3:cad>
          </ns3:TrackPointExtension>
        </extensions>
      </trkpt>
      <trkpt lat="47.53870521672070026397705078125" lon="10.22461337037384510040283203125">
        <ele>1300.4000244140625</ele>
        <time>2026-09-01T07:22:18.000Z</time>
        <extensions>
          <ns3:TrackPointExtension>
            <ns3:hr>160</ns3:hr>
            <ns3:cad>0</ns3:cad>
          </ns3:TrackPointExtension>
        </extensions>
      </trkpt>
      <trkpt lat="47.53870538435876369476318359375" lon="10.2245847880840301513671875">
        <ele>1300.800048828125</ele>
        <time>2026-09-01T07:22:19.000Z</time>
        <extensions>
          <ns3:TrackPointExtension>
            <ns3:hr>160</ns3:hr>
            <ns3:cad>0</ns3:cad>
          </ns3:TrackPointExtension>
        </extensions>
      </trkpt>
      <trkpt lat="47.53870337270200252532958984375" lon="10.22455017082393169403076171875">
        <ele>1301.800048828125</ele>
        <time>2026-09-01T07:22:21.000Z</time>
        <extensions>
          <ns3:TrackPointExtension>
            <ns3:hr>161</ns3:hr>
            <ns3:cad>0</ns3:cad>
          </ns3:TrackPointExtension>
        </extensions>
      </trkpt>
      <trkpt lat="47.53870270214974880218505859375" lon="10.224536843597888946533203125">
        <ele>1302.199951171875</ele>
        <time>2026-09-01T07:22:22.000Z</time>
        <extensions>
          <ns3:TrackPointExtension>
            <ns3:hr>161</ns3:hr>
            <ns3:cad>0</ns3:cad>
          </ns3:TrackPointExtension>
        </extensions>
      </trkpt>
      <trkpt lat="47.53869800828397274017333984375" lon="10.2244816906750202178955078125">
        <ele>1303.4000244140625</ele>
        <time>2026-09-01T07:22:25.000Z</time>
        <extensions>
          <ns3:TrackPointExtension>
            <ns3:hr>161</ns3:hr>
            <ns3:cad>0</ns3:cad>
          </ns3:TrackPointExtension>
        </extensions>
      </trkpt>
      <trkpt lat="47.5386955775320529937744140625" lon="10.2244198322296142578125">
        <ele>1304.5999755859375</ele>
        <time>2026-09-01T07:22:28.000Z</time>
        <extensions>
          <ns3:TrackPointExtension>
            <ns3:hr>161</ns3:hr>
            <ns3:cad>0</ns3:cad>
          </ns3:TrackPointExtension>
        </extensions>
      </trkpt>
      <trkpt lat="47.53869809210300445556640625" lon="10.22438772954046726226806640625">
        <ele>1306</ele>
        <time>2026-09-01T07:22:31.000Z</time>
        <extensions>
          <ns3:TrackPointExtension>
            <ns3:hr>160</ns3:hr>
            <ns3:cad>0</ns3:cad>
          </ns3:TrackPointExtension>
        </extensions>
      </trkpt>
      <trkpt lat="47.53869314678013324737548828125" lon="10.2243653498589992523193359375">
        <ele>1306.4000244140625</ele>
        <time>2026-09-01T07:22:32.000Z</time>
        <extensions>
          <ns3:TrackPointExtension>
            <ns3:hr>160</ns3:hr>
            <ns3:cad>0</ns3:cad>
          </ns3:TrackPointExtension>
        </extensions>
      </trkpt>
      <trkpt lat="47.538687698543071746826171875" lon="10.22432922385632991790771484375">
        <ele>1307</ele>
        <time>2026-09-01T07:22:34.000Z</time>
        <extensions>
          <ns3:TrackPointExtension>
            <ns3:hr>160</ns3:hr>
            <ns3:cad>0</ns3:cad>
          </ns3:TrackPointExtension>
        </extensions>
      </trkpt>
      <trkpt lat="47.538683675229549407958984375" lon="10.22431832738220691680908203125">
        <ele>1307.4000244140625</ele>
        <time>2026-09-01T07:22:35.000Z</time>
        <extensions>
          <ns3:TrackPointExtension>
            <ns3:hr>160</ns3:hr>
            <ns3:cad>0</ns3:cad>
          </ns3:TrackPointExtension>
        </extensions>
      </trkpt>
      <trkpt lat="47.53866850398480892181396484375" lon="10.22425512783229351043701171875">
        <ele>1308.199951171875</ele>
        <time>2026-09-01T07:22:38.000Z</time>
        <extensions>
          <ns3:TrackPointExtension>
            <ns3:hr>160</ns3:hr>
            <ns3:cad>0</ns3:cad>
          </ns3:TrackPointExtension>
        </extensions>
      </trkpt>
      <trkpt lat="47.53865878097712993621826171875" lon="10.2242334187030792236328125">
        <ele>1308.800048828125</ele>
        <time>2026-09-01T07:22:39.000Z</time>
        <extensions>
          <ns3:TrackPointExtension>
            <ns3:hr>160</ns3:hr>
            <ns3:cad>0</ns3:cad>
          </ns3:TrackPointExtension>
        </extensions>
      </trkpt>
      <trkpt lat="47.53864201717078685760498046875" lon="10.22418907843530178070068359375">
        <ele>1309.5999755859375</ele>
        <time>2026-09-01T07:22:41.000Z</time>
        <extensions>
          <ns3:TrackPointExtension>
            <ns3:hr>160</ns3:hr>
            <ns3:cad>0</ns3:cad>
          </ns3:TrackPointExtension>
        </extensions>
      </trkpt>
      <trkpt lat="47.53863765858113765716552734375" lon="10.22415630519390106201171875">
        <ele>1310.199951171875</ele>
        <time>2026-09-01T07:22:43.000Z</time>
        <extensions>
          <ns3:TrackPointExtension>
            <ns3:hr>160</ns3:hr>
            <ns3:cad>0</ns3:cad>
          </ns3:TrackPointExtension>
        </extensions>
      </trkpt>
      <trkpt lat="47.5386382453143596649169921875" lon="10.2241475880146026611328125">
        <ele>1310.5999755859375</ele>
        <time>2026-09-01T07:22:44.000Z</time>
        <extensions>
          <ns3:TrackPointExtension>
            <ns3:hr>161</ns3:hr>
            <ns3:cad>50</ns3:cad>
          </ns3:TrackPointExtension>
        </extensions>
      </trkpt>
      <trkpt lat="47.53862977959215641021728515625" lon="10.224087238311767578125">
        <ele>1311.4000244140625</ele>
        <time>2026-09-01T07:22:47.000Z</time>
        <extensions>
          <ns3:TrackPointExtension>
            <ns3:hr>161</ns3:hr>
            <ns3:cad>0</ns3:cad>
          </ns3:TrackPointExtension>
        </extensions>
      </trkpt>
      <trkpt lat="47.5386251695454120635986328125" lon="10.22406854666769504547119140625">
        <ele>1311.800048828125</ele>
        <time>2026-09-01T07:22:48.000Z</time>
        <extensions>
          <ns3:TrackPointExtension>
            <ns3:hr>162</ns3:hr>
            <ns3:cad>0</ns3:cad>
          </ns3:TrackPointExtension>
        </extensions>
      </trkpt>
      <trkpt lat="47.53860463388264179229736328125" lon="10.2240099571645259857177734375">
        <ele>1313</ele>
        <time>2026-09-01T07:22:51.000Z</time>
        <extensions>
          <ns3:TrackPointExtension>
            <ns3:hr>162</ns3:hr>
            <ns3:cad>0</ns3:cad>
          </ns3:TrackPointExtension>
        </extensions>
      </trkpt>
      <trkpt lat="47.5386003591120243072509765625" lon="10.22399310953915119171142578125">
        <ele>1313.4000244140625</ele>
        <time>2026-09-01T07:22:52.000Z</time>
        <extensions>
          <ns3:TrackPointExtension>
            <ns3:hr>162</ns3:hr>
            <ns3:cad>0</ns3:cad>
          </ns3:TrackPointExtension>
        </extensions>
      </trkpt>
      <trkpt lat="47.5385866127908229827880859375" lon="10.22393242456018924713134765625">
        <ele>1314.4000244140625</ele>
        <time>2026-09-01T07:22:55.000Z</time>
        <extensions>
          <ns3:TrackPointExtension>
            <ns3:hr>162</ns3:hr>
            <ns3:cad>0</ns3:cad>
          </ns3:TrackPointExtension>
        </extensions>
      </trkpt>
      <trkpt lat="47.5385517440736293792724609375" lon="10.2238822169601917266845703125">
        <ele>1315.199951171875</ele>
        <time>2026-09-01T07:22:58.000Z</time>
        <extensions>
          <ns3:TrackPointExtension>
            <ns3:hr>163</ns3:hr>
            <ns3:cad>0</ns3:cad>
          </ns3:TrackPointExtension>
        </extensions>
      </trkpt>
      <trkpt lat="47.5385391712188720703125" lon="10.22386587224900722503662109375">
        <ele>1315.4000244140625</ele>
        <time>2026-09-01T07:22:59.000Z</time>
        <extensions>
          <ns3:TrackPointExtension>
            <ns3:hr>163</ns3:hr>
            <ns3:cad>0</ns3:cad>
          </ns3:TrackPointExtension>
        </extensions>
      </trkpt>
      <trkpt lat="47.53849751316010951995849609375" lon="10.223828740417957305908203125">
        <ele>1316.800048828125</ele>
        <time>2026-09-01T07:23:02.000Z</time>
        <extensions>
          <ns3:TrackPointExtension>
            <ns3:hr>162</ns3:hr>
            <ns3:cad>0</ns3:cad>
          </ns3:TrackPointExtension>
        </extensions>
      </trkpt>
      <trkpt lat="47.53848326392471790313720703125" lon="10.2238195203244686126708984375">
        <ele>1317</ele>
        <time>2026-09-01T07:23:03.000Z</time>
        <extensions>
          <ns3:TrackPointExtension>
            <ns3:hr>162</ns3:hr>
            <ns3:cad>0</ns3:cad>
          </ns3:TrackPointExtension>
        </extensions>
      </trkpt>
      <trkpt lat="47.53845124505460262298583984375" lon="10.2237854897975921630859375">
        <ele>1318.199951171875</ele>
        <time>2026-09-01T07:23:06.000Z</time>
        <extensions>
          <ns3:TrackPointExtension>
            <ns3:hr>163</ns3:hr>
            <ns3:cad>0</ns3:cad>
          </ns3:TrackPointExtension>
        </extensions>
      </trkpt>
      <trkpt lat="47.53843397833406925201416015625" lon="10.2237546443939208984375">
        <ele>1319</ele>
        <time>2026-09-01T07:23:08.000Z</time>
        <extensions>
          <ns3:TrackPointExtension>
            <ns3:hr>163</ns3:hr>
            <ns3:cad>0</ns3:cad>
          </ns3:TrackPointExtension>
        </extensions>
      </trkpt>
      <trkpt lat="47.53843062557280063629150390625" lon="10.22375087253749370574951171875">
        <ele>1319.4000244140625</ele>
        <time>2026-09-01T07:23:09.000Z</time>
        <extensions>
          <ns3:TrackPointExtension>
            <ns3:hr>163</ns3:hr>
            <ns3:cad>0</ns3:cad>
          </ns3:TrackPointExtension>
        </extensions>
      </trkpt>
      <trkpt lat="47.53842408768832683563232421875" lon="10.22370276041328907012939453125">
        <ele>1320.199951171875</ele>
        <time>2026-09-01T07:23:11.000Z</time>
        <extensions>
          <ns3:TrackPointExtension>
            <ns3:hr>163</ns3:hr>
            <ns3:cad>0</ns3:cad>
          </ns3:TrackPointExtension>
        </extensions>
      </trkpt>
      <trkpt lat="47.53842174075543880462646484375" lon="10.223634280264377593994140625">
        <ele>1320.5999755859375</ele>
        <time>2026-09-01T07:23:13.000Z</time>
        <extensions>
          <ns3:TrackPointExtension>
            <ns3:hr>163</ns3:hr>
            <ns3:cad>0</ns3:cad>
          </ns3:TrackPointExtension>
        </extensions>
      </trkpt>
      <trkpt lat="47.53842375241219997406005859375" lon="10.2235231362283229827880859375">
        <ele>1321</ele>
        <time>2026-09-01T07:23:16.000Z</time>
        <extensions>
          <ns3:TrackPointExtension>
            <ns3:hr>163</ns3:hr>
            <ns3:cad>0</ns3:cad>
          </ns3:TrackPointExtension>
        </extensions>
      </trkpt>
      <trkpt lat="47.5384286977350711822509765625" lon="10.22346538491547107696533203125">
        <ele>1321.800048828125</ele>
        <time>2026-09-01T07:23:18.000Z</time>
        <extensions>
          <ns3:TrackPointExtension>
            <ns3:hr>163</ns3:hr>
            <ns3:cad>0</ns3:cad>
          </ns3:TrackPointExtension>
        </extensions>
      </trkpt>
      <trkpt lat="47.538435570895671844482421875" lon="10.22343504242599010467529296875">
        <ele>1322.199951171875</ele>
        <time>2026-09-01T07:23:19.000Z</time>
        <extensions>
          <ns3:TrackPointExtension>
            <ns3:hr>163</ns3:hr>
            <ns3:cad>0</ns3:cad>
          </ns3:TrackPointExtension>
        </extensions>
      </trkpt>
      <trkpt lat="47.53844386897981166839599609375" lon="10.2233658917248249053955078125">
        <ele>1323</ele>
        <time>2026-09-01T07:23:21.000Z</time>
        <extensions>
          <ns3:TrackPointExtension>
            <ns3:hr>164</ns3:hr>
            <ns3:cad>0</ns3:cad>
          </ns3:TrackPointExtension>
        </extensions>
      </trkpt>
      <trkpt lat="47.5384421087801456451416015625" lon="10.2232911251485347747802734375">
        <ele>1323.5999755859375</ele>
        <time>2026-09-01T07:23:23.000Z</time>
        <extensions>
          <ns3:TrackPointExtension>
            <ns3:hr>164</ns3:hr>
            <ns3:cad>0</ns3:cad>
          </ns3:TrackPointExtension>
        </extensions>
      </trkpt>
      <trkpt lat="47.53843699581921100616455078125" lon="10.22326103411614894866943359375">
        <ele>1324</ele>
        <time>2026-09-01T07:23:24.000Z</time>
        <extensions>
          <ns3:TrackPointExtension>
            <ns3:hr>165</ns3:hr>
            <ns3:cad>44</ns3:cad>
          </ns3:TrackPointExtension>
        </extensions>
      </trkpt>
      <trkpt lat="47.5384169630706310272216796875" lon="10.2231912128627300262451171875">
        <ele>1325.199951171875</ele>
        <time>2026-09-01T07:23:27.000Z</time>
        <extensions>
          <ns3:TrackPointExtension>
            <ns3:hr>165</ns3:hr>
            <ns3:cad>44</ns3:cad>
          </ns3:TrackPointExtension>
        </extensions>
      </trkpt>
      <trkpt lat="47.53839240409433841705322265625" lon="10.22312524728477001190185546875">
        <ele>1326.4000244140625</ele>
        <time>2026-09-01T07:23:30.000Z</time>
        <extensions>
          <ns3:TrackPointExtension>
            <ns3:hr>165</ns3:hr>
            <ns3:cad>43</ns3:cad>
          </ns3:TrackPointExtension>
        </extensions>
      </trkpt>
      <trkpt lat="47.53837530501186847686767578125" lon="10.22307847626507282257080078125">
        <ele>1327.199951171875</ele>
        <time>2026-09-01T07:23:32.000Z</time>
        <extensions>
          <ns3:TrackPointExtension>
            <ns3:hr>164</ns3:hr>
            <ns3:cad>43</ns3:cad>
          </ns3:TrackPointExtension>
        </extensions>
      </trkpt>
      <trkpt lat="47.53836281597614288330078125" lon="10.2230503968894481658935546875">
        <ele>1327.5999755859375</ele>
        <time>2026-09-01T07:23:33.000Z</time>
        <extensions>
          <ns3:TrackPointExtension>
            <ns3:hr>165</ns3:hr>
            <ns3:cad>43</ns3:cad>
          </ns3:TrackPointExtension>
        </extensions>
      </trkpt>
      <trkpt lat="47.5383284501731395721435546875" lon="10.22295844741165637969970703125">
        <ele>1328.5999755859375</ele>
        <time>2026-09-01T07:23:36.000Z</time>
        <extensions>
          <ns3:TrackPointExtension>
            <ns3:hr>166</ns3:hr>
            <ns3:cad>43</ns3:cad>
          </ns3:TrackPointExtension>
        </extensions>
      </trkpt>
      <trkpt lat="47.538306154310703277587890625" lon="10.22284411825239658355712890625">
        <ele>1329.800048828125</ele>
        <time>2026-09-01T07:23:40.000Z</time>
        <extensions>
          <ns3:TrackPointExtension>
            <ns3:hr>166</ns3:hr>
            <ns3:cad>43</ns3:cad>
          </ns3:TrackPointExtension>
        </extensions>
      </trkpt>
      <trkpt lat="47.53830037079751491546630859375" lon="10.22281193174421787261962890625">
        <ele>1330</ele>
        <time>2026-09-01T07:23:41.000Z</time>
        <extensions>
          <ns3:TrackPointExtension>
            <ns3:hr>167</ns3:hr>
            <ns3:cad>43</ns3:cad>
          </ns3:TrackPointExtension>
        </extensions>
      </trkpt>
      <trkpt lat="47.53829332999885082244873046875" lon="10.2227734588086605072021484375">
        <ele>1330.800048828125</ele>
        <time>2026-09-01T07:23:43.000Z</time>
        <extensions>
          <ns3:TrackPointExtension>
            <ns3:hr>167</ns3:hr>
            <ns3:cad>43</ns3:cad>
          </ns3:TrackPointExtension>
        </extensions>
      </trkpt>
      <trkpt lat="47.538284696638584136962890625" lon="10.2227382548153400421142578125">
        <ele>1331.4000244140625</ele>
        <time>2026-09-01T07:23:45.000Z</time>
        <extensions>
          <ns3:TrackPointExtension>
            <ns3:hr>166</ns3:hr>
            <ns3:cad>43</ns3:cad>
          </ns3:TrackPointExtension>
        </extensions>
      </trkpt>
      <trkpt lat="47.5382828526198863983154296875" lon="10.22271621040999889373779296875">
        <ele>1331.800048828125</ele>
        <time>2026-09-01T07:23:46.000Z</time>
        <extensions>
          <ns3:TrackPointExtension>
            <ns3:hr>166</ns3:hr>
            <ns3:cad>43</ns3:cad>
          </ns3:TrackPointExtension>
        </extensions>
      </trkpt>
      <trkpt lat="47.5382709503173828125" lon="10.22264027036726474761962890625">
        <ele>1332.800048828125</ele>
        <time>2026-09-01T07:23:49.000Z</time>
        <extensions>
          <ns3:TrackPointExtension>
            <ns3:hr>165</ns3:hr>
            <ns3:cad>43</ns3:cad>
          </ns3:TrackPointExtension>
        </extensions>
      </trkpt>
      <trkpt lat="47.5382634066045284271240234375" lon="10.222613029181957244873046875">
        <ele>1333.199951171875</ele>
        <time>2026-09-01T07:23:50.000Z</time>
        <extensions>
          <ns3:TrackPointExtension>
            <ns3:hr>166</ns3:hr>
            <ns3:cad>42</ns3:cad>
          </ns3:TrackPointExtension>
        </extensions>
      </trkpt>
      <trkpt lat="47.5382409431040287017822265625" lon="10.2225632406771183013916015625">
        <ele>1334</ele>
        <time>2026-09-01T07:23:52.000Z</time>
        <extensions>
          <ns3:TrackPointExtension>
            <ns3:hr>165</ns3:hr>
            <ns3:cad>43</ns3:cad>
          </ns3:TrackPointExtension>
        </extensions>
      </trkpt>
      <trkpt lat="47.53820179961621761322021484375" lon="10.22249174304306507110595703125">
        <ele>1335</ele>
        <time>2026-09-01T07:23:55.000Z</time>
        <extensions>
          <ns3:TrackPointExtension>
            <ns3:hr>165</ns3:hr>
            <ns3:cad>43</ns3:cad>
          </ns3:TrackPointExtension>
        </extensions>
      </trkpt>
      <trkpt lat="47.53816307522356510162353515625" lon="10.2224023081362247467041015625">
        <ele>1336.4000244140625</ele>
        <time>2026-09-01T07:23:59.000Z</time>
        <extensions>
          <ns3:TrackPointExtension>
            <ns3:hr>165</ns3:hr>
            <ns3:cad>43</ns3:cad>
          </ns3:TrackPointExtension>
        </extensions>
      </trkpt>
      <trkpt lat="47.53814396448433399200439453125" lon="10.22232159040868282318115234375">
        <ele>1337.5999755859375</ele>
        <time>2026-09-01T07:24:02.000Z</time>
        <extensions>
          <ns3:TrackPointExtension>
            <ns3:hr>165</ns3:hr>
            <ns3:cad>43</ns3:cad>
          </ns3:TrackPointExtension>
        </extensions>
      </trkpt>
      <trkpt lat="47.53813683986663818359375" lon="10.22227599285542964935302734375">
        <ele>1338.4000244140625</ele>
        <time>2026-09-01T07:24:04.000Z</time>
        <extensions>
          <ns3:TrackPointExtension>
            <ns3:hr>165</ns3:hr>
            <ns3:cad>43</ns3:cad>
          </ns3:TrackPointExtension>
        </extensions>
      </trkpt>
      <trkpt lat="47.53813088871538639068603515625" lon="10.22224280051887035369873046875">
        <ele>1338.800048828125</ele>
        <time>2026-09-01T07:24:05.000Z</time>
        <extensions>
          <ns3:TrackPointExtension>
            <ns3:hr>165</ns3:hr>
            <ns3:cad>43</ns3:cad>
          </ns3:TrackPointExtension>
        </extensions>
      </trkpt>
      <trkpt lat="47.538122422993183135986328125" lon="10.22215495817363262176513671875">
        <ele>1339.800048828125</ele>
        <time>2026-09-01T07:24:08.000Z</time>
        <extensions>
          <ns3:TrackPointExtension>
            <ns3:hr>166</ns3:hr>
            <ns3:cad>42</ns3:cad>
          </ns3:TrackPointExtension>
        </extensions>
      </trkpt>
      <trkpt lat="47.5381199084222316741943359375" lon="10.22211690433323383331298828125">
        <ele>1340.199951171875</ele>
        <time>2026-09-01T07:24:09.000Z</time>
        <extensions>
          <ns3:TrackPointExtension>
            <ns3:hr>166</ns3:hr>
            <ns3:cad>42</ns3:cad>
          </ns3:TrackPointExtension>
        </extensions>
      </trkpt>
      <trkpt lat="47.5381059944629669189453125" lon="10.22205906920135021209716796875">
        <ele>1341</ele>
        <time>2026-09-01T07:24:11.000Z</time>
        <extensions>
          <ns3:TrackPointExtension>
            <ns3:hr>166</ns3:hr>
            <ns3:cad>43</ns3:cad>
          </ns3:TrackPointExtension>
        </extensions>
      </trkpt>
      <trkpt lat="47.53809283487498760223388671875" lon="10.221999473869800567626953125">
        <ele>1341.5999755859375</ele>
        <time>2026-09-01T07:24:13.000Z</time>
        <extensions>
          <ns3:TrackPointExtension>
            <ns3:hr>167</ns3:hr>
            <ns3:cad>43</ns3:cad>
          </ns3:TrackPointExtension>
        </extensions>
      </trkpt>
      <trkpt lat="47.53808579407632350921630859375" lon="10.22197164595127105712890625">
        <ele>1342</ele>
        <time>2026-09-01T07:24:14.000Z</time>
        <extensions>
          <ns3:TrackPointExtension>
            <ns3:hr>167</ns3:hr>
            <ns3:cad>43</ns3:cad>
          </ns3:TrackPointExtension>
        </extensions>
      </trkpt>
      <trkpt lat="47.5380657613277435302734375" lon="10.2218998968601226806640625">
        <ele>1343</ele>
        <time>2026-09-01T07:24:17.000Z</time>
        <extensions>
          <ns3:TrackPointExtension>
            <ns3:hr>167</ns3:hr>
            <ns3:cad>43</ns3:cad>
          </ns3:TrackPointExtension>
        </extensions>
      </trkpt>
      <trkpt lat="47.538058049976825714111328125" lon="10.2218769304454326629638671875">
        <ele>1343.4000244140625</ele>
        <time>2026-09-01T07:24:18.000Z</time>
        <extensions>
          <ns3:TrackPointExtension>
            <ns3:hr>167</ns3:hr>
            <ns3:cad>42</ns3:cad>
          </ns3:TrackPointExtension>
        </extensions>
      </trkpt>
      <trkpt lat="47.5380417890846729278564453125" lon="10.22183443419635295867919921875">
        <ele>1344.199951171875</ele>
        <time>2026-09-01T07:24:20.000Z</time>
        <extensions>
          <ns3:TrackPointExtension>
            <ns3:hr>167</ns3:hr>
            <ns3:cad>43</ns3:cad>
          </ns3:TrackPointExtension>
        </extensions>
      </trkpt>
      <trkpt lat="47.53800599835813045501708984375" lon="10.221762098371982574462890625">
        <ele>1345.199951171875</ele>
        <time>2026-09-01T07:24:23.000Z</time>
        <extensions>
          <ns3:TrackPointExtension>
            <ns3:hr>166</ns3:hr>
            <ns3:cad>42</ns3:cad>
          </ns3:TrackPointExtension>
        </extensions>
      </trkpt>
      <trkpt lat="47.53797381184995174407958984375" lon="10.22165539674460887908935546875">
        <ele>1346.5999755859375</ele>
        <time>2026-09-01T07:24:27.000Z</time>
        <extensions>
          <ns3:TrackPointExtension>
            <ns3:hr>166</ns3:hr>
            <ns3:cad>42</ns3:cad>
          </ns3:TrackPointExtension>
        </extensions>
      </trkpt>
      <trkpt lat="47.53795914351940155029296875" lon="10.22158138453960418701171875">
        <ele>1347.800048828125</ele>
        <time>2026-09-01T07:24:30.000Z</time>
        <extensions>
          <ns3:TrackPointExtension>
            <ns3:hr>166</ns3:hr>
            <ns3:cad>87</ns3:cad>
          </ns3:TrackPointExtension>
        </extensions>
      </trkpt>
      <trkpt lat="47.53795243799686431884765625" lon="10.221536122262477874755859375">
        <ele>1348.5999755859375</ele>
        <time>2026-09-01T07:24:32.000Z</time>
        <extensions>
          <ns3:TrackPointExtension>
            <ns3:hr>166</ns3:hr>
            <ns3:cad>87</ns3:cad>
          </ns3:TrackPointExtension>
        </extensions>
      </trkpt>
      <trkpt lat="47.53795000724494457244873046875" lon="10.22151776589453220367431640625">
        <ele>1349</ele>
        <time>2026-09-01T07:24:33.000Z</time>
        <extensions>
          <ns3:TrackPointExtension>
            <ns3:hr>166</ns3:hr>
            <ns3:cad>0</ns3:cad>
          </ns3:TrackPointExtension>
        </extensions>
      </trkpt>
      <trkpt lat="47.5379368476569652557373046875" lon="10.2214278280735015869140625">
        <ele>1350.199951171875</ele>
        <time>2026-09-01T07:24:37.000Z</time>
        <extensions>
          <ns3:TrackPointExtension>
            <ns3:hr>164</ns3:hr>
            <ns3:cad>0</ns3:cad>
          </ns3:TrackPointExtension>
        </extensions>
      </trkpt>
      <trkpt lat="47.53792821429669857025146484375" lon="10.2213669754564762115478515625">
        <ele>1351.199951171875</ele>
        <time>2026-09-01T07:24:40.000Z</time>
        <extensions>
          <ns3:TrackPointExtension>
            <ns3:hr>164</ns3:hr>
            <ns3:cad>0</ns3:cad>
          </ns3:TrackPointExtension>
        </extensions>
      </trkpt>
      <trkpt lat="47.53792301751673221588134765625" lon="10.22133462131023406982421875">
        <ele>1351.5999755859375</ele>
        <time>2026-09-01T07:24:41.000Z</time>
        <extensions>
          <ns3:TrackPointExtension>
            <ns3:hr>164</ns3:hr>
            <ns3:cad>0</ns3:cad>
          </ns3:TrackPointExtension>
        </extensions>
      </trkpt>
      <trkpt lat="47.53791161812841892242431640625" lon="10.22128902375698089599609375">
        <ele>1352.199951171875</ele>
        <time>2026-09-01T07:24:43.000Z</time>
        <extensions>
          <ns3:TrackPointExtension>
            <ns3:hr>164</ns3:hr>
            <ns3:cad>42</ns3:cad>
          </ns3:TrackPointExtension>
        </extensions>
      </trkpt>
      <trkpt lat="47.53789518959820270538330078125" lon="10.22124334238469600677490234375">
        <ele>1352.800048828125</ele>
        <time>2026-09-01T07:24:45.000Z</time>
        <extensions>
          <ns3:TrackPointExtension>
            <ns3:hr>164</ns3:hr>
            <ns3:cad>42</ns3:cad>
          </ns3:TrackPointExtension>
        </extensions>
      </trkpt>
      <trkpt lat="47.53788144327700138092041015625" lon="10.221197493374347686767578125">
        <ele>1353.4000244140625</ele>
        <time>2026-09-01T07:24:47.000Z</time>
        <extensions>
          <ns3:TrackPointExtension>
            <ns3:hr>164</ns3:hr>
            <ns3:cad>42</ns3:cad>
          </ns3:TrackPointExtension>
        </extensions>
      </trkpt>
      <trkpt lat="47.53786861896514892578125" lon="10.22112465463578701019287109375">
        <ele>1354.5999755859375</ele>
        <time>2026-09-01T07:24:50.000Z</time>
        <extensions>
          <ns3:TrackPointExtension>
            <ns3:hr>164</ns3:hr>
            <ns3:cad>43</ns3:cad>
          </ns3:TrackPointExtension>
        </extensions>
      </trkpt>
      <trkpt lat="47.5378592312335968017578125" lon="10.22109230048954486846923828125">
        <ele>1355</ele>
        <time>2026-09-01T07:24:51.000Z</time>
        <extensions>
          <ns3:TrackPointExtension>
            <ns3:hr>163</ns3:hr>
            <ns3:cad>43</ns3:cad>
          </ns3:TrackPointExtension>
        </extensions>
      </trkpt>
      <trkpt lat="47.5378458201885223388671875" lon="10.2210451103746891021728515625">
        <ele>1355.5999755859375</ele>
        <time>2026-09-01T07:24:53.000Z</time>
        <extensions>
          <ns3:TrackPointExtension>
            <ns3:hr>163</ns3:hr>
            <ns3:cad>42</ns3:cad>
          </ns3:TrackPointExtension>
        </extensions>
      </trkpt>
      <trkpt lat="47.5378335826098918914794921875" lon="10.22099758498370647430419921875">
        <ele>1356.4000244140625</ele>
        <time>2026-09-01T07:24:55.000Z</time>
        <extensions>
          <ns3:TrackPointExtension>
            <ns3:hr>163</ns3:hr>
            <ns3:cad>42</ns3:cad>
          </ns3:TrackPointExtension>
        </extensions>
      </trkpt>
      <trkpt lat="47.5378298945724964141845703125" lon="10.2209780551493167877197265625">
        <ele>1356.800048828125</ele>
        <time>2026-09-01T07:24:56.000Z</time>
        <extensions>
          <ns3:TrackPointExtension>
            <ns3:hr>164</ns3:hr>
            <ns3:cad>42</ns3:cad>
          </ns3:TrackPointExtension>
        </extensions>
      </trkpt>
      <trkpt lat="47.5378161482512950897216796875" lon="10.22090320475399494171142578125">
        <ele>1358</ele>
        <time>2026-09-01T07:24:59.000Z</time>
        <extensions>
          <ns3:TrackPointExtension>
            <ns3:hr>164</ns3:hr>
            <ns3:cad>43</ns3:cad>
          </ns3:TrackPointExtension>
        </extensions>
      </trkpt>
      <trkpt lat="47.53781120292842388153076171875" lon="10.2208771370351314544677734375">
        <ele>1358.199951171875</ele>
        <time>2026-09-01T07:25:00.000Z</time>
        <extensions>
          <ns3:TrackPointExtension>
            <ns3:hr>164</ns3:hr>
            <ns3:cad>43</ns3:cad>
          </ns3:TrackPointExtension>
        </extensions>
      </trkpt>
      <trkpt lat="47.5377973727881908416748046875" lon="10.22079306654632091522216796875">
        <ele>1359.199951171875</ele>
        <time>2026-09-01T07:25:03.000Z</time>
        <extensions>
          <ns3:TrackPointExtension>
            <ns3:hr>166</ns3:hr>
            <ns3:cad>42</ns3:cad>
          </ns3:TrackPointExtension>
        </extensions>
      </trkpt>
      <trkpt lat="47.53778521902859210968017578125" lon="10.2207358181476593017578125">
        <ele>1360</ele>
        <time>2026-09-01T07:25:05.000Z</time>
        <extensions>
          <ns3:TrackPointExtension>
            <ns3:hr>165</ns3:hr>
            <ns3:cad>42</ns3:cad>
          </ns3:TrackPointExtension>
        </extensions>
      </trkpt>
      <trkpt lat="47.53778086043894290924072265625" lon="10.22071930579841136932373046875">
        <ele>1360.4000244140625</ele>
        <time>2026-09-01T07:25:06.000Z</time>
        <extensions>
          <ns3:TrackPointExtension>
            <ns3:hr>165</ns3:hr>
            <ns3:cad>42</ns3:cad>
          </ns3:TrackPointExtension>
        </extensions>
      </trkpt>
      <trkpt lat="47.537748254835605621337890625" lon="10.22063733078539371490478515625">
        <ele>1361.4000244140625</ele>
        <time>2026-09-01T07:25:09.000Z</time>
        <extensions>
          <ns3:TrackPointExtension>
            <ns3:hr>166</ns3:hr>
            <ns3:cad>42</ns3:cad>
          </ns3:TrackPointExtension>
        </extensions>
      </trkpt>
      <trkpt lat="47.537720762193202972412109375" lon="10.22056390531361103057861328125">
        <ele>1362.4000244140625</ele>
        <time>2026-09-01T07:25:12.000Z</time>
        <extensions>
          <ns3:TrackPointExtension>
            <ns3:hr>165</ns3:hr>
            <ns3:cad>42</ns3:cad>
          </ns3:TrackPointExtension>
        </extensions>
      </trkpt>
      <trkpt lat="47.53771380521357059478759765625" lon="10.2205234207212924957275390625">
        <ele>1363.199951171875</ele>
        <time>2026-09-01T07:25:14.000Z</time>
        <extensions>
          <ns3:TrackPointExtension>
            <ns3:hr>166</ns3:hr>
            <ns3:cad>42</ns3:cad>
          </ns3:TrackPointExtension>
        </extensions>
      </trkpt>
      <trkpt lat="47.53771028481423854827880859375" lon="10.2204898931086063385009765625">
        <ele>1363.4000244140625</ele>
        <time>2026-09-01T07:25:15.000Z</time>
        <extensions>
          <ns3:TrackPointExtension>
            <ns3:hr>166</ns3:hr>
            <ns3:cad>42</ns3:cad>
          </ns3:TrackPointExtension>
        </extensions>
      </trkpt>
      <trkpt lat="47.537706680595874786376953125" lon="10.22041873075067996978759765625">
        <ele>1364.800048828125</ele>
        <time>2026-09-01T07:25:18.000Z</time>
        <extensions>
          <ns3:TrackPointExtension>
            <ns3:hr>165</ns3:hr>
            <ns3:cad>43</ns3:cad>
          </ns3:TrackPointExtension>
        </extensions>
      </trkpt>
      <trkpt lat="47.53770978190004825592041015625" lon="10.2203527651727199554443359375">
        <ele>1365.800048828125</ele>
        <time>2026-09-01T07:25:21.000Z</time>
        <extensions>
          <ns3:TrackPointExtension>
            <ns3:hr>166</ns3:hr>
            <ns3:cad>43</ns3:cad>
          </ns3:TrackPointExtension>
        </extensions>
      </trkpt>
      <trkpt lat="47.53770508803427219390869140625" lon="10.22030021063983440399169921875">
        <ele>1366.5999755859375</ele>
        <time>2026-09-01T07:25:23.000Z</time>
        <extensions>
          <ns3:TrackPointExtension>
            <ns3:hr>166</ns3:hr>
            <ns3:cad>43</ns3:cad>
          </ns3:TrackPointExtension>
        </extensions>
      </trkpt>
      <trkpt lat="47.53770089708268642425537109375" lon="10.2202712930738925933837890625">
        <ele>1367</ele>
        <time>2026-09-01T07:25:24.000Z</time>
        <extensions>
          <ns3:TrackPointExtension>
            <ns3:hr>166</ns3:hr>
            <ns3:cad>43</ns3:cad>
          </ns3:TrackPointExtension>
        </extensions>
      </trkpt>
      <trkpt lat="47.537683546543121337890625" lon="10.22017029114067554473876953125">
        <ele>1368</ele>
        <time>2026-09-01T07:25:27.000Z</time>
        <extensions>
          <ns3:TrackPointExtension>
            <ns3:hr>166</ns3:hr>
            <ns3:cad>43</ns3:cad>
          </ns3:TrackPointExtension>
        </extensions>
      </trkpt>
      <trkpt lat="47.53765094093978404998779296875" lon="10.2200786769390106201171875">
        <ele>1369</ele>
        <time>2026-09-01T07:25:30.000Z</time>
        <extensions>
          <ns3:TrackPointExtension>
            <ns3:hr>166</ns3:hr>
            <ns3:cad>43</ns3:cad>
          </ns3:TrackPointExtension>
        </extensions>
      </trkpt>
      <trkpt lat="47.5376394577324390411376953125" lon="10.220050178468227386474609375">
        <ele>1369.4000244140625</ele>
        <time>2026-09-01T07:25:31.000Z</time>
        <extensions>
          <ns3:TrackPointExtension>
            <ns3:hr>166</ns3:hr>
            <ns3:cad>43</ns3:cad>
          </ns3:TrackPointExtension>
        </extensions>
      </trkpt>
      <trkpt lat="47.53761422820389270782470703125" lon="10.21999376825988292694091796875">
        <ele>1370.199951171875</ele>
        <time>2026-09-01T07:25:33.000Z</time>
        <extensions>
          <ns3:TrackPointExtension>
            <ns3:hr>166</ns3:hr>
            <ns3:cad>43</ns3:cad>
          </ns3:TrackPointExtension>
        </extensions>
      </trkpt>
      <trkpt lat="47.537576258182525634765625" lon="10.2199219353497028350830078125">
        <ele>1371</ele>
        <time>2026-09-01T07:25:36.000Z</time>
        <extensions>
          <ns3:TrackPointExtension>
            <ns3:hr>166</ns3:hr>
            <ns3:cad>43</ns3:cad>
          </ns3:TrackPointExtension>
        </extensions>
      </trkpt>
      <trkpt lat="47.53756812773644924163818359375" lon="10.21990709938108921051025390625">
        <ele>1371.4000244140625</ele>
        <time>2026-09-01T07:25:37.000Z</time>
        <extensions>
          <ns3:TrackPointExtension>
            <ns3:hr>166</ns3:hr>
            <ns3:cad>43</ns3:cad>
          </ns3:TrackPointExtension>
        </extensions>
      </trkpt>
      <trkpt lat="47.53752890042960643768310546875" lon="10.21982579492032527923583984375">
        <ele>1372.4000244140625</ele>
        <time>2026-09-01T07:25:40.000Z</time>
        <extensions>
          <ns3:TrackPointExtension>
            <ns3:hr>165</ns3:hr>
            <ns3:cad>43</ns3:cad>
          </ns3:TrackPointExtension>
        </extensions>
      </trkpt>
      <trkpt lat="47.5375164113938808441162109375" lon="10.21980266086757183074951171875">
        <ele>1372.5999755859375</ele>
        <time>2026-09-01T07:25:41.000Z</time>
        <extensions>
          <ns3:TrackPointExtension>
            <ns3:hr>165</ns3:hr>
            <ns3:cad>43</ns3:cad>
          </ns3:TrackPointExtension>
        </extensions>
      </trkpt>
      <trkpt lat="47.53747827373445034027099609375" lon="10.21971465088427066802978515625">
        <ele>1373.4000244140625</ele>
        <time>2026-09-01T07:25:44.000Z</time>
        <extensions>
          <ns3:TrackPointExtension>
            <ns3:hr>163</ns3:hr>
            <ns3:cad>43</ns3:cad>
          </ns3:TrackPointExtension>
        </extensions>
      </trkpt>
      <trkpt lat="47.537464611232280731201171875" lon="10.21967978216707706451416015625">
        <ele>1373.800048828125</ele>
        <time>2026-09-01T07:25:45.000Z</time>
        <extensions>
          <ns3:TrackPointExtension>
            <ns3:hr>163</ns3:hr>
            <ns3:cad>43</ns3:cad>
          </ns3:TrackPointExtension>
        </extensions>
      </trkpt>
      <trkpt lat="47.5374181754887104034423828125" lon="10.21957953460514545440673828125">
        <ele>1374.800048828125</ele>
        <time>2026-09-01T07:25:49.000Z</time>
        <extensions>
          <ns3:TrackPointExtension>
            <ns3:hr>163</ns3:hr>
            <ns3:cad>43</ns3:cad>
          </ns3:TrackPointExtension>
        </extensions>
      </trkpt>
      <trkpt lat="47.53739194013178348541259765625" lon="10.21947207860648632049560546875">
        <ele>1376.199951171875</ele>
        <time>2026-09-01T07:25:53.000Z</time>
        <extensions>
          <ns3:TrackPointExtension>
            <ns3:hr>164</ns3:hr>
            <ns3:cad>43</ns3:cad>
          </ns3:TrackPointExtension>
        </extensions>
      </trkpt>
      <trkpt lat="47.5373672135174274444580078125" lon="10.21939747966825962066650390625">
        <ele>1377.199951171875</ele>
        <time>2026-09-01T07:25:56.000Z</time>
        <extensions>
          <ns3:TrackPointExtension>
            <ns3:hr>164</ns3:hr>
            <ns3:cad>43</ns3:cad>
          </ns3:TrackPointExtension>
        </extensions>
      </trkpt>
      <trkpt lat="47.53736092709004878997802734375" lon="10.219357497990131378173828125">
        <ele>1377.5999755859375</ele>
        <time>2026-09-01T07:25:57.000Z</time>
        <extensions>
          <ns3:TrackPointExtension>
            <ns3:hr>164</ns3:hr>
            <ns3:cad>43</ns3:cad>
          </ns3:TrackPointExtension>
        </extensions>
      </trkpt>
      <trkpt lat="47.53734952770173549652099609375" lon="10.21930712275207042694091796875">
        <ele>1378.5999755859375</ele>
        <time>2026-09-01T07:25:59.000Z</time>
        <extensions>
          <ns3:TrackPointExtension>
            <ns3:hr>163</ns3:hr>
            <ns3:cad>43</ns3:cad>
          </ns3:TrackPointExtension>
        </extensions>
      </trkpt>
      <trkpt lat="47.5373226217925548553466796875" lon="10.21925062872469425201416015625">
        <ele>1379.4000244140625</ele>
        <time>2026-09-01T07:26:01.000Z</time>
        <extensions>
          <ns3:TrackPointExtension>
            <ns3:hr>163</ns3:hr>
            <ns3:cad>43</ns3:cad>
          </ns3:TrackPointExtension>
        </extensions>
      </trkpt>
      <trkpt lat="47.5373149104416370391845703125" lon="10.21923369728028774261474609375">
        <ele>1379.5999755859375</ele>
        <time>2026-09-01T07:26:02.000Z</time>
        <extensions>
          <ns3:TrackPointExtension>
            <ns3:hr>164</ns3:hr>
            <ns3:cad>43</ns3:cad>
          </ns3:TrackPointExtension>
        </extensions>
      </trkpt>
      <trkpt lat="47.537290938198566436767578125" lon="10.21917401812970638275146484375">
        <ele>1380.199951171875</ele>
        <time>2026-09-01T07:26:04.000Z</time>
        <extensions>
          <ns3:TrackPointExtension>
            <ns3:hr>164</ns3:hr>
            <ns3:cad>43</ns3:cad>
          </ns3:TrackPointExtension>
        </extensions>
      </trkpt>
      <trkpt lat="47.537260092794895172119140625" lon="10.21913428790867328643798828125">
        <ele>1381</ele>
        <time>2026-09-01T07:26:06.000Z</time>
        <extensions>
          <ns3:TrackPointExtension>
            <ns3:hr>164</ns3:hr>
            <ns3:cad>42</ns3:cad>
          </ns3:TrackPointExtension>
        </extensions>
      </trkpt>
      <trkpt lat="47.53724860958755016326904296875" lon="10.2191186137497425079345703125">
        <ele>1381.4000244140625</ele>
        <time>2026-09-01T07:26:07.000Z</time>
        <extensions>
          <ns3:TrackPointExtension>
            <ns3:hr>164</ns3:hr>
            <ns3:cad>42</ns3:cad>
          </ns3:TrackPointExtension>
        </extensions>
      </trkpt>
      <trkpt lat="47.5372153334319591522216796875" lon="10.21907796151936054229736328125">
        <ele>1382.199951171875</ele>
        <time>2026-09-01T07:26:09.000Z</time>
        <extensions>
          <ns3:TrackPointExtension>
            <ns3:hr>164</ns3:hr>
            <ns3:cad>43</ns3:cad>
          </ns3:TrackPointExtension>
        </extensions>
      </trkpt>
      <trkpt lat="47.53718239255249500274658203125" lon="10.2190299332141876220703125">
        <ele>1382.800048828125</ele>
        <time>2026-09-01T07:26:11.000Z</time>
        <extensions>
          <ns3:TrackPointExtension>
            <ns3:hr>163</ns3:hr>
            <ns3:cad>43</ns3:cad>
          </ns3:TrackPointExtension>
        </extensions>
      </trkpt>
      <trkpt lat="47.53715003840625286102294921875" lon="10.2189727686345577239990234375">
        <ele>1383.4000244140625</ele>
        <time>2026-09-01T07:26:13.000Z</time>
        <extensions>
          <ns3:TrackPointExtension>
            <ns3:hr>164</ns3:hr>
            <ns3:cad>43</ns3:cad>
          </ns3:TrackPointExtension>
        </extensions>
      </trkpt>
      <trkpt lat="47.5371432490646839141845703125" lon="10.218959189951419830322265625">
        <ele>1383.800048828125</ele>
        <time>2026-09-01T07:26:14.000Z</time>
        <extensions>
          <ns3:TrackPointExtension>
            <ns3:hr>163</ns3:hr>
            <ns3:cad>43</ns3:cad>
          </ns3:TrackPointExtension>
        </extensions>
      </trkpt>
      <trkpt lat="47.53710745833814144134521484375" lon="10.21888417191803455352783203125">
        <ele>1384.5999755859375</ele>
        <time>2026-09-01T07:26:17.000Z</time>
        <extensions>
          <ns3:TrackPointExtension>
            <ns3:hr>164</ns3:hr>
            <ns3:cad>86</ns3:cad>
          </ns3:TrackPointExtension>
        </extensions>
      </trkpt>
      <trkpt lat="47.53709756769239902496337890625" lon="10.21885919384658336639404296875">
        <ele>1384.800048828125</ele>
        <time>2026-09-01T07:26:18.000Z</time>
        <extensions>
          <ns3:TrackPointExtension>
            <ns3:hr>164</ns3:hr>
            <ns3:cad>86</ns3:cad>
          </ns3:TrackPointExtension>
        </extensions>
      </trkpt>
      <trkpt lat="47.53707225434482097625732421875" lon="10.21877445280551910400390625">
        <ele>1385.800048828125</ele>
        <time>2026-09-01T07:26:21.000Z</time>
        <extensions>
          <ns3:TrackPointExtension>
            <ns3:hr>165</ns3:hr>
            <ns3:cad>86</ns3:cad>
          </ns3:TrackPointExtension>
        </extensions>
      </trkpt>
      <trkpt lat="47.53706085495650768280029296875" lon="10.2187431044876575469970703125">
        <ele>1386</ele>
        <time>2026-09-01T07:26:22.000Z</time>
        <extensions>
          <ns3:TrackPointExtension>
            <ns3:hr>165</ns3:hr>
            <ns3:cad>86</ns3:cad>
          </ns3:TrackPointExtension>
        </extensions>
      </trkpt>
      <trkpt lat="47.537023387849330902099609375" lon="10.21865014918148517608642578125">
        <ele>1386.800048828125</ele>
        <time>2026-09-01T07:26:25.000Z</time>
        <extensions>
          <ns3:TrackPointExtension>
            <ns3:hr>165</ns3:hr>
            <ns3:cad>43</ns3:cad>
          </ns3:TrackPointExtension>
        </extensions>
      </trkpt>
      <trkpt lat="47.53698692657053470611572265625" lon="10.21857186220586299896240234375">
        <ele>1387.800048828125</ele>
        <time>2026-09-01T07:26:28.000Z</time>
        <extensions>
          <ns3:TrackPointExtension>
            <ns3:hr>165</ns3:hr>
            <ns3:cad>43</ns3:cad>
          </ns3:TrackPointExtension>
        </extensions>
      </trkpt>
      <trkpt lat="47.5369742698967456817626953125" lon="10.21854001097381114959716796875">
        <ele>1388</ele>
        <time>2026-09-01T07:26:29.000Z</time>
        <extensions>
          <ns3:TrackPointExtension>
            <ns3:hr>165</ns3:hr>
            <ns3:cad>43</ns3:cad>
          </ns3:TrackPointExtension>
        </extensions>
      </trkpt>
      <trkpt lat="47.53692238591611385345458984375" lon="10.21842442452907562255859375">
        <ele>1389</ele>
        <time>2026-09-01T07:26:33.000Z</time>
        <extensions>
          <ns3:TrackPointExtension>
            <ns3:hr>164</ns3:hr>
            <ns3:cad>43</ns3:cad>
          </ns3:TrackPointExtension>
        </extensions>
      </trkpt>
      <trkpt lat="47.5369062088429927825927734375" lon="10.21839047782123088836669921875">
        <ele>1389.4000244140625</ele>
        <time>2026-09-01T07:26:34.000Z</time>
        <extensions>
          <ns3:TrackPointExtension>
            <ns3:hr>164</ns3:hr>
            <ns3:cad>85</ns3:cad>
          </ns3:TrackPointExtension>
        </extensions>
      </trkpt>
      <trkpt lat="47.53688651137053966522216796875" lon="10.2183427847921848297119140625">
        <ele>1390</ele>
        <time>2026-09-01T07:26:36.000Z</time>
        <extensions>
          <ns3:TrackPointExtension>
            <ns3:hr>163</ns3:hr>
            <ns3:cad>85</ns3:cad>
          </ns3:TrackPointExtension>
        </extensions>
      </trkpt>
      <trkpt lat="47.5368720106780529022216796875" lon="10.2183109335601329803466796875">
        <ele>1390.4000244140625</ele>
        <time>2026-09-01T07:26:37.000Z</time>
        <extensions>
          <ns3:TrackPointExtension>
            <ns3:hr>163</ns3:hr>
            <ns3:cad>85</ns3:cad>
          </ns3:TrackPointExtension>
        </extensions>
      </trkpt>
      <trkpt lat="47.53681719303131103515625" lon="10.21820071153342723846435546875">
        <ele>1391.199951171875</ele>
        <time>2026-09-01T07:26:41.000Z</time>
        <extensions>
          <ns3:TrackPointExtension>
            <ns3:hr>163</ns3:hr>
            <ns3:cad>86</ns3:cad>
          </ns3:TrackPointExtension>
        </extensions>
      </trkpt>
      <trkpt lat="47.53681182861328125" lon="10.21819174289703369140625">
        <ele>1391.5999755859375</ele>
        <time>2026-09-01T07:26:42.000Z</time>
        <extensions>
          <ns3:TrackPointExtension>
            <ns3:hr>164</ns3:hr>
            <ns3:cad>86</ns3:cad>
          </ns3:TrackPointExtension>
        </extensions>
      </trkpt>
      <trkpt lat="47.5367593578994274139404296875" lon="10.21812133491039276123046875">
        <ele>1392.5999755859375</ele>
        <time>2026-09-01T07:26:45.000Z</time>
        <extensions>
          <ns3:TrackPointExtension>
            <ns3:hr>163</ns3:hr>
            <ns3:cad>85</ns3:cad>
          </ns3:TrackPointExtension>
        </extensions>
      </trkpt>
      <trkpt lat="47.5367432646453380584716796875" lon="10.2181000448763370513916015625">
        <ele>1393</ele>
        <time>2026-09-01T07:26:46.000Z</time>
        <extensions>
          <ns3:TrackPointExtension>
            <ns3:hr>163</ns3:hr>
            <ns3:cad>43</ns3:cad>
          </ns3:TrackPointExtension>
        </extensions>
      </trkpt>
      <trkpt lat="47.53669640980660915374755859375" lon="10.2180339954793453216552734375">
        <ele>1394</ele>
        <time>2026-09-01T07:26:49.000Z</time>
        <extensions>
          <ns3:TrackPointExtension>
            <ns3:hr>163</ns3:hr>
            <ns3:cad>43</ns3:cad>
          </ns3:TrackPointExtension>
        </extensions>
      </trkpt>
      <trkpt lat="47.53667528741061687469482421875" lon="10.218009017407894134521484375">
        <ele>1394.4000244140625</ele>
        <time>2026-09-01T07:26:50.000Z</time>
        <extensions>
          <ns3:TrackPointExtension>
            <ns3:hr>163</ns3:hr>
            <ns3:cad>43</ns3:cad>
          </ns3:TrackPointExtension>
        </extensions>
      </trkpt>
      <trkpt lat="47.53663991577923297882080078125" lon="10.21796400658786296844482421875">
        <ele>1395.199951171875</ele>
        <time>2026-09-01T07:26:52.000Z</time>
        <extensions>
          <ns3:TrackPointExtension>
            <ns3:hr>163</ns3:hr>
            <ns3:cad>43</ns3:cad>
          </ns3:TrackPointExtension>
        </extensions>
      </trkpt>
      <trkpt lat="47.536599598824977874755859375" lon="10.217901058495044708251953125">
        <ele>1396.4000244140625</ele>
        <time>2026-09-01T07:26:55.000Z</time>
        <extensions>
          <ns3:TrackPointExtension>
            <ns3:hr>164</ns3:hr>
            <ns3:cad>43</ns3:cad>
          </ns3:TrackPointExtension>
        </extensions>
      </trkpt>
      <trkpt lat="47.53659683279693126678466796875" lon="10.2178926765918731689453125">
        <ele>1396.800048828125</ele>
        <time>2026-09-01T07:26:56.000Z</time>
        <extensions>
          <ns3:TrackPointExtension>
            <ns3:hr>164</ns3:hr>
            <ns3:cad>43</ns3:cad>
          </ns3:TrackPointExtension>
        </extensions>
      </trkpt>
      <trkpt lat="47.536584176123142242431640625" lon="10.2178358472883701324462890625">
        <ele>1397.5999755859375</ele>
        <time>2026-09-01T07:26:58.000Z</time>
        <extensions>
          <ns3:TrackPointExtension>
            <ns3:hr>165</ns3:hr>
            <ns3:cad>43</ns3:cad>
          </ns3:TrackPointExtension>
        </extensions>
      </trkpt>
      <trkpt lat="47.536572776734828948974609375" lon="10.2178026549518108367919921875">
        <ele>1398.5999755859375</ele>
        <time>2026-09-01T07:27:00.000Z</time>
        <extensions>
          <ns3:TrackPointExtension>
            <ns3:hr>164</ns3:hr>
            <ns3:cad>42</ns3:cad>
          </ns3:TrackPointExtension>
        </extensions>
      </trkpt>
      <trkpt lat="47.53658451139926910400390625" lon="10.217752866446971893310546875">
        <ele>1400</ele>
        <time>2026-09-01T07:27:03.000Z</time>
        <extensions>
          <ns3:TrackPointExtension>
            <ns3:hr>164</ns3:hr>
            <ns3:cad>42</ns3:cad>
          </ns3:TrackPointExtension>
        </extensions>
      </trkpt>
      <trkpt lat="47.5365883670747280120849609375" lon="10.2177288942039012908935546875">
        <ele>1400.4000244140625</ele>
        <time>2026-09-01T07:27:04.000Z</time>
        <extensions>
          <ns3:TrackPointExtension>
            <ns3:hr>164</ns3:hr>
            <ns3:cad>42</ns3:cad>
          </ns3:TrackPointExtension>
        </extensions>
      </trkpt>
      <trkpt lat="47.5366078130900859832763671875" lon="10.21768203936517238616943359375">
        <ele>1401.199951171875</ele>
        <time>2026-09-01T07:27:06.000Z</time>
        <extensions>
          <ns3:TrackPointExtension>
            <ns3:hr>164</ns3:hr>
            <ns3:cad>42</ns3:cad>
          </ns3:TrackPointExtension>
        </extensions>
      </trkpt>
      <trkpt lat="47.53661929629743099212646484375" lon="10.2176608331501483917236328125">
        <ele>1401.5999755859375</ele>
        <time>2026-09-01T07:27:07.000Z</time>
        <extensions>
          <ns3:TrackPointExtension>
            <ns3:hr>164</ns3:hr>
            <ns3:cad>42</ns3:cad>
          </ns3:TrackPointExtension>
        </extensions>
      </trkpt>
      <trkpt lat="47.53663874231278896331787109375" lon="10.21761548705399036407470703125">
        <ele>1402.4000244140625</ele>
        <time>2026-09-01T07:27:09.000Z</time>
        <extensions>
          <ns3:TrackPointExtension>
            <ns3:hr>164</ns3:hr>
            <ns3:cad>42</ns3:cad>
          </ns3:TrackPointExtension>
        </extensions>
      </trkpt>
      <trkpt lat="47.5366725213825702667236328125" lon="10.217540971934795379638671875">
        <ele>1403.5999755859375</ele>
        <time>2026-09-01T07:27:12.000Z</time>
        <extensions>
          <ns3:TrackPointExtension>
            <ns3:hr>165</ns3:hr>
            <ns3:cad>42</ns3:cad>
          </ns3:TrackPointExtension>
        </extensions>
      </trkpt>
      <trkpt lat="47.536706887185573577880859375" lon="10.2175153233110904693603515625">
        <ele>1404.5999755859375</ele>
        <time>2026-09-01T07:27:15.000Z</time>
        <extensions>
          <ns3:TrackPointExtension>
            <ns3:hr>165</ns3:hr>
            <ns3:cad>0</ns3:cad>
          </ns3:TrackPointExtension>
        </extensions>
      </trkpt>
      <trkpt lat="47.53672457300126552581787109375" lon="10.21750752814114093780517578125">
        <ele>1405.4000244140625</ele>
        <time>2026-09-01T07:27:17.000Z</time>
        <extensions>
          <ns3:TrackPointExtension>
            <ns3:hr>164</ns3:hr>
            <ns3:cad>0</ns3:cad>
          </ns3:TrackPointExtension>
        </extensions>
      </trkpt>
      <trkpt lat="47.5367291830480098724365234375" lon="10.21750467829406261444091796875">
        <ele>1405.800048828125</ele>
        <time>2026-09-01T07:27:18.000Z</time>
        <extensions>
          <ns3:TrackPointExtension>
            <ns3:hr>164</ns3:hr>
            <ns3:cad>0</ns3:cad>
          </ns3:TrackPointExtension>
        </extensions>
      </trkpt>
      <trkpt lat="47.53676296211779117584228515625" lon="10.21751004271209239959716796875">
        <ele>1407</ele>
        <time>2026-09-01T07:27:21.000Z</time>
        <extensions>
          <ns3:TrackPointExtension>
            <ns3:hr>165</ns3:hr>
            <ns3:cad>0</ns3:cad>
          </ns3:TrackPointExtension>
        </extensions>
      </trkpt>
      <trkpt lat="47.53678123466670513153076171875" lon="10.2175226993858814239501953125">
        <ele>1407.5999755859375</ele>
        <time>2026-09-01T07:27:22.000Z</time>
        <extensions>
          <ns3:TrackPointExtension>
            <ns3:hr>165</ns3:hr>
            <ns3:cad>0</ns3:cad>
          </ns3:TrackPointExtension>
        </extensions>
      </trkpt>
      <trkpt lat="47.5368019379675388336181640625" lon="10.2175283990800380706787109375">
        <ele>1408.4000244140625</ele>
        <time>2026-09-01T07:27:24.000Z</time>
        <extensions>
          <ns3:TrackPointExtension>
            <ns3:hr>164</ns3:hr>
            <ns3:cad>0</ns3:cad>
          </ns3:TrackPointExtension>
        </extensions>
      </trkpt>
      <trkpt lat="47.53681275062263011932373046875" lon="10.21753082983195781707763671875">
        <ele>1408.800048828125</ele>
        <time>2026-09-01T07:27:25.000Z</time>
        <extensions>
          <ns3:TrackPointExtension>
            <ns3:hr>165</ns3:hr>
            <ns3:cad>0</ns3:cad>
          </ns3:TrackPointExtension>
        </extensions>
      </trkpt>
      <trkpt lat="47.53685164265334606170654296875" lon="10.21753552369773387908935546875">
        <ele>1409.4000244140625</ele>
        <time>2026-09-01T07:27:27.000Z</time>
        <extensions>
          <ns3:TrackPointExtension>
            <ns3:hr>164</ns3:hr>
            <ns3:cad>0</ns3:cad>
          </ns3:TrackPointExtension>
        </extensions>
      </trkpt>
      <trkpt lat="47.53686874173581600189208984375" lon="10.2175226993858814239501953125">
        <ele>1409.800048828125</ele>
        <time>2026-09-01T07:27:28.000Z</time>
        <extensions>
          <ns3:TrackPointExtension>
            <ns3:hr>164</ns3:hr>
            <ns3:cad>0</ns3:cad>
          </ns3:TrackPointExtension>
        </extensions>
      </trkpt>
      <trkpt lat="47.53686974756419658660888671875" lon="10.2174675464630126953125">
        <ele>1410.5999755859375</ele>
        <time>2026-09-01T07:27:30.000Z</time>
        <extensions>
          <ns3:TrackPointExtension>
            <ns3:hr>163</ns3:hr>
            <ns3:cad>0</ns3:cad>
          </ns3:TrackPointExtension>
        </extensions>
      </trkpt>
      <trkpt lat="47.5368026085197925567626953125" lon="10.2173748426139354705810546875">
        <ele>1411.199951171875</ele>
        <time>2026-09-01T07:27:34.000Z</time>
        <extensions>
          <ns3:TrackPointExtension>
            <ns3:hr>165</ns3:hr>
            <ns3:cad>0</ns3:cad>
          </ns3:TrackPointExtension>
        </extensions>
      </trkpt>
      <trkpt lat="47.53675072453916072845458984375" lon="10.2172769419848918914794921875">
        <ele>1411.5999755859375</ele>
        <time>2026-09-01T07:27:37.000Z</time>
        <extensions>
          <ns3:TrackPointExtension>
            <ns3:hr>164</ns3:hr>
            <ns3:cad>0</ns3:cad>
          </ns3:TrackPointExtension>
        </extensions>
      </trkpt>
      <trkpt lat="47.53672976978123188018798828125" lon="10.217244587838649749755859375">
        <ele>1411.800048828125</ele>
        <time>2026-09-01T07:27:38.000Z</time>
        <extensions>
          <ns3:TrackPointExtension>
            <ns3:hr>164</ns3:hr>
            <ns3:cad>85</ns3:cad>
          </ns3:TrackPointExtension>
        </extensions>
      </trkpt>
      <trkpt lat="47.5366361439228057861328125" lon="10.2171059511601924896240234375">
        <ele>1412.5999755859375</ele>
        <time>2026-09-01T07:27:43.000Z</time>
        <extensions>
          <ns3:TrackPointExtension>
            <ns3:hr>164</ns3:hr>
            <ns3:cad>85</ns3:cad>
          </ns3:TrackPointExtension>
        </extensions>
      </trkpt>
      <trkpt lat="47.536618709564208984375" lon="10.217077620327472686767578125">
        <ele>1412.800048828125</ele>
        <time>2026-09-01T07:27:44.000Z</time>
        <extensions>
          <ns3:TrackPointExtension>
            <ns3:hr>163</ns3:hr>
            <ns3:cad>85</ns3:cad>
          </ns3:TrackPointExtension>
        </extensions>
      </trkpt>
      <trkpt lat="47.53656565211713314056396484375" lon="10.2170181088149547576904296875">
        <ele>1413.800048828125</ele>
        <time>2026-09-01T07:27:47.000Z</time>
        <extensions>
          <ns3:TrackPointExtension>
            <ns3:hr>164</ns3:hr>
            <ns3:cad>85</ns3:cad>
          </ns3:TrackPointExtension>
        </extensions>
      </trkpt>
      <trkpt lat="47.53655358217656612396240234375" lon="10.2170021831989288330078125">
        <ele>1414.199951171875</ele>
        <time>2026-09-01T07:27:48.000Z</time>
        <extensions>
          <ns3:TrackPointExtension>
            <ns3:hr>164</ns3:hr>
            <ns3:cad>85</ns3:cad>
          </ns3:TrackPointExtension>
        </extensions>
      </trkpt>
      <trkpt lat="47.53652642481029033660888671875" lon="10.21696639247238636016845703125">
        <ele>1415.199951171875</ele>
        <time>2026-09-01T07:27:50.000Z</time>
        <extensions>
          <ns3:TrackPointExtension>
            <ns3:hr>164</ns3:hr>
            <ns3:cad>85</ns3:cad>
          </ns3:TrackPointExtension>
        </extensions>
      </trkpt>
      <trkpt lat="47.53651385195553302764892578125" lon="10.216944180428981781005859375">
        <ele>1415.5999755859375</ele>
        <time>2026-09-01T07:27:51.000Z</time>
        <extensions>
          <ns3:TrackPointExtension>
            <ns3:hr>164</ns3:hr>
            <ns3:cad>85</ns3:cad>
          </ns3:TrackPointExtension>
        </extensions>
      </trkpt>
      <trkpt lat="47.53647764213383197784423828125" lon="10.2169056236743927001953125">
        <ele>1416.5999755859375</ele>
        <time>2026-09-01T07:27:53.000Z</time>
        <extensions>
          <ns3:TrackPointExtension>
            <ns3:hr>164</ns3:hr>
            <ns3:cad>85</ns3:cad>
          </ns3:TrackPointExtension>
        </extensions>
      </trkpt>
      <trkpt lat="47.5364462099969387054443359375" lon="10.21688357926905155181884765625">
        <ele>1417.199951171875</ele>
        <time>2026-09-01T07:27:55.000Z</time>
        <extensions>
          <ns3:TrackPointExtension>
            <ns3:hr>163</ns3:hr>
            <ns3:cad>43</ns3:cad>
          </ns3:TrackPointExtension>
        </extensions>
      </trkpt>
      <trkpt lat="47.5364210642874240875244140625" lon="10.216868408024311065673828125">
        <ele>1417.800048828125</ele>
        <time>2026-09-01T07:27:56.000Z</time>
        <extensions>
          <ns3:TrackPointExtension>
            <ns3:hr>163</ns3:hr>
            <ns3:cad>43</ns3:cad>
          </ns3:TrackPointExtension>
        </extensions>
      </trkpt>
      <trkpt lat="47.536355517804622650146484375" lon="10.21679699420928955078125">
        <ele>1418.4000244140625</ele>
        <time>2026-09-01T07:27:59.000Z</time>
        <extensions>
          <ns3:TrackPointExtension>
            <ns3:hr>163</ns3:hr>
            <ns3:cad>43</ns3:cad>
          </ns3:TrackPointExtension>
        </extensions>
      </trkpt>
      <trkpt lat="47.5362654961645603179931640625" lon="10.21669934503734111785888671875">
        <ele>1418.800048828125</ele>
        <time>2026-09-01T07:28:03.000Z</time>
        <extensions>
          <ns3:TrackPointExtension>
            <ns3:hr>164</ns3:hr>
            <ns3:cad>43</ns3:cad>
          </ns3:TrackPointExtension>
        </extensions>
      </trkpt>
      <trkpt lat="47.53618880175054073333740234375" lon="10.21661770530045032501220703125">
        <ele>1419.800048828125</ele>
        <time>2026-09-01T07:28:07.000Z</time>
        <extensions>
          <ns3:TrackPointExtension>
            <ns3:hr>164</ns3:hr>
            <ns3:cad>84</ns3:cad>
          </ns3:TrackPointExtension>
        </extensions>
      </trkpt>
      <trkpt lat="47.53614102490246295928955078125" lon="10.2165322937071323394775390625">
        <ele>1421</ele>
        <time>2026-09-01T07:28:11.000Z</time>
        <extensions>
          <ns3:TrackPointExtension>
            <ns3:hr>164</ns3:hr>
            <ns3:cad>85</ns3:cad>
          </ns3:TrackPointExtension>
        </extensions>
      </trkpt>
      <trkpt lat="47.5361266918480396270751953125" lon="10.21645844914019107818603515625">
        <ele>1422.4000244140625</ele>
        <time>2026-09-01T07:28:14.000Z</time>
        <extensions>
          <ns3:TrackPointExtension>
            <ns3:hr>164</ns3:hr>
            <ns3:cad>85</ns3:cad>
          </ns3:TrackPointExtension>
        </extensions>
      </trkpt>
      <trkpt lat="47.5361149571835994720458984375" lon="10.216372199356555938720703125">
        <ele>1423.5999755859375</ele>
        <time>2026-09-01T07:28:17.000Z</time>
        <extensions>
          <ns3:TrackPointExtension>
            <ns3:hr>163</ns3:hr>
            <ns3:cad>85</ns3:cad>
          </ns3:TrackPointExtension>
        </extensions>
      </trkpt>
      <trkpt lat="47.536112107336521148681640625" lon="10.21635233424603939056396484375">
        <ele>1424</ele>
        <time>2026-09-01T07:28:18.000Z</time>
        <extensions>
          <ns3:TrackPointExtension>
            <ns3:hr>163</ns3:hr>
            <ns3:cad>42</ns3:cad>
          </ns3:TrackPointExtension>
        </extensions>
      </trkpt>
      <trkpt lat="47.53609475679695606231689453125" lon="10.2162955887615680694580078125">
        <ele>1424.5999755859375</ele>
        <time>2026-09-01T07:28:20.000Z</time>
        <extensions>
          <ns3:TrackPointExtension>
            <ns3:hr>163</ns3:hr>
            <ns3:cad>42</ns3:cad>
          </ns3:TrackPointExtension>
        </extensions>
      </trkpt>
      <trkpt lat="47.53608318977057933807373046875" lon="10.21625795401632785797119140625">
        <ele>1425.4000244140625</ele>
        <time>2026-09-01T07:28:22.000Z</time>
        <extensions>
          <ns3:TrackPointExtension>
            <ns3:hr>163</ns3:hr>
            <ns3:cad>42</ns3:cad>
          </ns3:TrackPointExtension>
        </extensions>
      </trkpt>
      <trkpt lat="47.5360701978206634521484375" lon="10.21619911305606365203857421875">
        <ele>1426</ele>
        <time>2026-09-01T07:28:24.000Z</time>
        <extensions>
          <ns3:TrackPointExtension>
            <ns3:hr>163</ns3:hr>
            <ns3:cad>42</ns3:cad>
          </ns3:TrackPointExtension>
        </extensions>
      </trkpt>
      <trkpt lat="47.536056451499462127685546875" lon="10.21614965982735157012939453125">
        <ele>1426.5999755859375</ele>
        <time>2026-09-01T07:28:26.000Z</time>
        <extensions>
          <ns3:TrackPointExtension>
            <ns3:hr>162</ns3:hr>
            <ns3:cad>41</ns3:cad>
          </ns3:TrackPointExtension>
        </extensions>
      </trkpt>
      <trkpt lat="47.5360435433685779571533203125" lon="10.216119401156902313232421875">
        <ele>1427</ele>
        <time>2026-09-01T07:28:27.000Z</time>
        <extensions>
          <ns3:TrackPointExtension>
            <ns3:hr>163</ns3:hr>
            <ns3:cad>42</ns3:cad>
          </ns3:TrackPointExtension>
        </extensions>
      </trkpt>
      <trkpt lat="47.53601856529712677001953125" lon="10.2160417847335338592529296875">
        <ele>1428</ele>
        <time>2026-09-01T07:28:30.000Z</time>
        <extensions>
          <ns3:TrackPointExtension>
            <ns3:hr>163</ns3:hr>
            <ns3:cad>43</ns3:cad>
          </ns3:TrackPointExtension>
        </extensions>
      </trkpt>
      <trkpt lat="47.536015547811985015869140625" lon="10.21602946333587169647216796875">
        <ele>1428.4000244140625</ele>
        <time>2026-09-01T07:28:31.000Z</time>
        <extensions>
          <ns3:TrackPointExtension>
            <ns3:hr>163</ns3:hr>
            <ns3:cad>43</ns3:cad>
          </ns3:TrackPointExtension>
        </extensions>
      </trkpt>
      <trkpt lat="47.5360033102333545684814453125" lon="10.2159720472991466522216796875">
        <ele>1429.199951171875</ele>
        <time>2026-09-01T07:28:33.000Z</time>
        <extensions>
          <ns3:TrackPointExtension>
            <ns3:hr>163</ns3:hr>
            <ns3:cad>42</ns3:cad>
          </ns3:TrackPointExtension>
        </extensions>
      </trkpt>
      <trkpt lat="47.5359945930540561676025390625" lon="10.21594279445707798004150390625">
        <ele>1429.5999755859375</ele>
        <time>2026-09-01T07:28:34.000Z</time>
        <extensions>
          <ns3:TrackPointExtension>
            <ns3:hr>162</ns3:hr>
            <ns3:cad>42</ns3:cad>
          </ns3:TrackPointExtension>
        </extensions>
      </trkpt>
      <trkpt lat="47.535977996885776519775390625" lon="10.21586182527244091033935546875">
        <ele>1430.800048828125</ele>
        <time>2026-09-01T07:28:37.000Z</time>
        <extensions>
          <ns3:TrackPointExtension>
            <ns3:hr>162</ns3:hr>
            <ns3:cad>42</ns3:cad>
          </ns3:TrackPointExtension>
        </extensions>
      </trkpt>
      <trkpt lat="47.5359774939715862274169921875" lon="10.215847156941890716552734375">
        <ele>1431.199951171875</ele>
        <time>2026-09-01T07:28:38.000Z</time>
        <extensions>
          <ns3:TrackPointExtension>
            <ns3:hr>162</ns3:hr>
            <ns3:cad>42</ns3:cad>
          </ns3:TrackPointExtension>
        </extensions>
      </trkpt>
      <trkpt lat="47.53596902824938297271728515625" lon="10.21578622050583362579345703125">
        <ele>1432</ele>
        <time>2026-09-01T07:28:40.000Z</time>
        <extensions>
          <ns3:TrackPointExtension>
            <ns3:hr>163</ns3:hr>
            <ns3:cad>42</ns3:cad>
          </ns3:TrackPointExtension>
        </extensions>
      </trkpt>
      <trkpt lat="47.535963244736194610595703125" lon="10.21574565209448337554931640625">
        <ele>1432.5999755859375</ele>
        <time>2026-09-01T07:28:42.000Z</time>
        <extensions>
          <ns3:TrackPointExtension>
            <ns3:hr>163</ns3:hr>
            <ns3:cad>42</ns3:cad>
          </ns3:TrackPointExtension>
        </extensions>
      </trkpt>
      <trkpt lat="47.5359580479562282562255859375" lon="10.21572134457528591156005859375">
        <ele>1433</ele>
        <time>2026-09-01T07:28:43.000Z</time>
        <extensions>
          <ns3:TrackPointExtension>
            <ns3:hr>163</ns3:hr>
            <ns3:cad>42</ns3:cad>
          </ns3:TrackPointExtension>
        </extensions>
      </trkpt>
      <trkpt lat="47.5359253585338592529296875" lon="10.21562729962170124053955078125">
        <ele>1434.4000244140625</ele>
        <time>2026-09-01T07:28:46.000Z</time>
        <extensions>
          <ns3:TrackPointExtension>
            <ns3:hr>164</ns3:hr>
            <ns3:cad>43</ns3:cad>
          </ns3:TrackPointExtension>
        </extensions>
      </trkpt>
      <trkpt lat="47.53585201688110828399658203125" lon="10.215474665164947509765625">
        <ele>1434.800048828125</ele>
        <time>2026-09-01T07:28:51.000Z</time>
        <extensions>
          <ns3:TrackPointExtension>
            <ns3:hr>165</ns3:hr>
            <ns3:cad>85</ns3:cad>
          </ns3:TrackPointExtension>
        </extensions>
      </trkpt>
      <trkpt lat="47.5357565470039844512939453125" lon="10.21525128744542598724365234375">
        <ele>1435.4000244140625</ele>
        <time>2026-09-01T07:28:57.000Z</time>
        <extensions>
          <ns3:TrackPointExtension>
            <ns3:hr>166</ns3:hr>
            <ns3:cad>86</ns3:cad>
          </ns3:TrackPointExtension>
        </extensions>
      </trkpt>
      <trkpt lat="47.53569938242435455322265625" lon="10.21512530744075775146484375">
        <ele>1435.4000244140625</ele>
        <time>2026-09-01T07:29:00.000Z</time>
        <extensions>
          <ns3:TrackPointExtension>
            <ns3:hr>165</ns3:hr>
            <ns3:cad>86</ns3:cad>
          </ns3:TrackPointExtension>
        </extensions>
      </trkpt>
      <trkpt lat="47.53564774990081787109375" lon="10.21500670351088047027587890625">
        <ele>1435.5999755859375</ele>
        <time>2026-09-01T07:29:03.000Z</time>
        <extensions>
          <ns3:TrackPointExtension>
            <ns3:hr>164</ns3:hr>
            <ns3:cad>88</ns3:cad>
          </ns3:TrackPointExtension>
        </extensions>
      </trkpt>
      <trkpt lat="47.53559435717761516571044921875" lon="10.21487678401172161102294921875">
        <ele>1435.4000244140625</ele>
        <time>2026-09-01T07:29:06.000Z</time>
        <extensions>
          <ns3:TrackPointExtension>
            <ns3:hr>164</ns3:hr>
            <ns3:cad>85</ns3:cad>
          </ns3:TrackPointExtension>
        </extensions>
      </trkpt>
      <trkpt lat="47.53553702495992183685302734375" lon="10.21473236382007598876953125">
        <ele>1434</ele>
        <time>2026-09-01T07:29:09.000Z</time>
        <extensions>
          <ns3:TrackPointExtension>
            <ns3:hr>165</ns3:hr>
            <ns3:cad>84</ns3:cad>
          </ns3:TrackPointExtension>
        </extensions>
      </trkpt>
      <trkpt lat="47.535478770732879638671875" lon="10.214644856750965118408203125">
        <ele>1432.5999755859375</ele>
        <time>2026-09-01T07:29:11.000Z</time>
        <extensions>
          <ns3:TrackPointExtension>
            <ns3:hr>165</ns3:hr>
            <ns3:cad>83</ns3:cad>
          </ns3:TrackPointExtension>
        </extensions>
      </trkpt>
      <trkpt lat="47.535422779619693756103515625" lon="10.21456497721374034881591796875">
        <ele>1431</ele>
        <time>2026-09-01T07:29:13.000Z</time>
        <extensions>
          <ns3:TrackPointExtension>
            <ns3:hr>165</ns3:hr>
            <ns3:cad>83</ns3:cad>
          </ns3:TrackPointExtension>
        </extensions>
      </trkpt>
      <trkpt lat="47.53536410629749298095703125" lon="10.2144770510494709014892578125">
        <ele>1429.5999755859375</ele>
        <time>2026-09-01T07:29:15.000Z</time>
        <extensions>
          <ns3:TrackPointExtension>
            <ns3:hr>164</ns3:hr>
            <ns3:cad>86</ns3:cad>
          </ns3:TrackPointExtension>
        </extensions>
      </trkpt>
      <trkpt lat="47.535305432975292205810546875" lon="10.21439415402710437774658203125">
        <ele>1428.5999755859375</ele>
        <time>2026-09-01T07:29:17.000Z</time>
        <extensions>
          <ns3:TrackPointExtension>
            <ns3:hr>164</ns3:hr>
            <ns3:cad>87</ns3:cad>
          </ns3:TrackPointExtension>
        </extensions>
      </trkpt>
      <trkpt lat="47.5352184288203716278076171875" lon="10.214305557310581207275390625">
        <ele>1427.5999755859375</ele>
        <time>2026-09-01T07:29:20.000Z</time>
        <extensions>
          <ns3:TrackPointExtension>
            <ns3:hr>163</ns3:hr>
            <ns3:cad>85</ns3:cad>
          </ns3:TrackPointExtension>
        </extensions>
      </trkpt>
      <trkpt lat="47.53512513823807239532470703125" lon="10.21421075798571109771728515625">
        <ele>1425.800048828125</ele>
        <time>2026-09-01T07:29:23.000Z</time>
        <extensions>
          <ns3:TrackPointExtension>
            <ns3:hr>163</ns3:hr>
            <ns3:cad>85</ns3:cad>
          </ns3:TrackPointExtension>
        </extensions>
      </trkpt>
      <trkpt lat="47.53509412519633769989013671875" lon="10.21417974494397640228271484375">
        <ele>1425.199951171875</ele>
        <time>2026-09-01T07:29:24.000Z</time>
        <extensions>
          <ns3:TrackPointExtension>
            <ns3:hr>163</ns3:hr>
            <ns3:cad>86</ns3:cad>
          </ns3:TrackPointExtension>
        </extensions>
      </trkpt>
      <trkpt lat="47.53505674190819263458251953125" lon="10.21413045935332775115966796875">
        <ele>1424.199951171875</ele>
        <time>2026-09-01T07:29:25.000Z</time>
        <extensions>
          <ns3:TrackPointExtension>
            <ns3:hr>163</ns3:hr>
            <ns3:cad>87</ns3:cad>
          </ns3:TrackPointExtension>
        </extensions>
      </trkpt>
      <trkpt lat="47.53500527702271938323974609375" lon="10.21402032114565372467041015625">
        <ele>1422.5999755859375</ele>
        <time>2026-09-01T07:29:27.000Z</time>
        <extensions>
          <ns3:TrackPointExtension>
            <ns3:hr>163</ns3:hr>
            <ns3:cad>89</ns3:cad>
          </ns3:TrackPointExtension>
        </extensions>
      </trkpt>
      <trkpt lat="47.5349300913512706756591796875" lon="10.2138172276318073272705078125">
        <ele>1421.800048828125</ele>
        <time>2026-09-01T07:29:31.000Z</time>
        <extensions>
          <ns3:TrackPointExtension>
            <ns3:hr>162</ns3:hr>
            <ns3:cad>90</ns3:cad>
          </ns3:TrackPointExtension>
        </extensions>
      </trkpt>
      <trkpt lat="47.53488407470285892486572265625" lon="10.21370516158640384674072265625">
        <ele>1422.5999755859375</ele>
        <time>2026-09-01T07:29:34.000Z</time>
        <extensions>
          <ns3:TrackPointExtension>
            <ns3:hr>161</ns3:hr>
            <ns3:cad>89</ns3:cad>
          </ns3:TrackPointExtension>
        </extensions>
      </trkpt>
      <trkpt lat="47.53479287959635257720947265625" lon="10.2135144732892513275146484375">
        <ele>1423</ele>
        <time>2026-09-01T07:29:39.000Z</time>
        <extensions>
          <ns3:TrackPointExtension>
            <ns3:hr>161</ns3:hr>
            <ns3:cad>86</ns3:cad>
          </ns3:TrackPointExtension>
        </extensions>
      </trkpt>
      <trkpt lat="47.53472171723842620849609375" lon="10.21337223239243030548095703125">
        <ele>1422</ele>
        <time>2026-09-01T07:29:42.000Z</time>
        <extensions>
          <ns3:TrackPointExtension>
            <ns3:hr>161</ns3:hr>
            <ns3:cad>86</ns3:cad>
          </ns3:TrackPointExtension>
        </extensions>
      </trkpt>
      <trkpt lat="47.53464049659669399261474609375" lon="10.21322839893400669097900390625">
        <ele>1421.4000244140625</ele>
        <time>2026-09-01T07:29:45.000Z</time>
        <extensions>
          <ns3:TrackPointExtension>
            <ns3:hr>162</ns3:hr>
            <ns3:cad>86</ns3:cad>
          </ns3:TrackPointExtension>
        </extensions>
      </trkpt>
      <trkpt lat="47.53461685962975025177001953125" lon="10.21319621242582798004150390625">
        <ele>1421.4000244140625</ele>
        <time>2026-09-01T07:29:46.000Z</time>
        <extensions>
          <ns3:TrackPointExtension>
            <ns3:hr>161</ns3:hr>
            <ns3:cad>86</ns3:cad>
          </ns3:TrackPointExtension>
        </extensions>
      </trkpt>
      <trkpt lat="47.5345042906701564788818359375" lon="10.2130244672298431396484375">
        <ele>1420.4000244140625</ele>
        <time>2026-09-01T07:29:50.000Z</time>
        <extensions>
          <ns3:TrackPointExtension>
            <ns3:hr>160</ns3:hr>
            <ns3:cad>85</ns3:cad>
          </ns3:TrackPointExtension>
        </extensions>
      </trkpt>
      <trkpt lat="47.53438887186348438262939453125" lon="10.2129455097019672393798828125">
        <ele>1419</ele>
        <time>2026-09-01T07:29:53.000Z</time>
        <extensions>
          <ns3:TrackPointExtension>
            <ns3:hr>160</ns3:hr>
            <ns3:cad>86</ns3:cad>
          </ns3:TrackPointExtension>
        </extensions>
      </trkpt>
      <trkpt lat="47.534284181892871856689453125" lon="10.2128516323864459991455078125">
        <ele>1418</ele>
        <time>2026-09-01T07:29:56.000Z</time>
        <extensions>
          <ns3:TrackPointExtension>
            <ns3:hr>160</ns3:hr>
            <ns3:cad>86</ns3:cad>
          </ns3:TrackPointExtension>
        </extensions>
      </trkpt>
      <trkpt lat="47.5342652387917041778564453125" lon="10.21282531321048736572265625">
        <ele>1418</ele>
        <time>2026-09-01T07:29:57.000Z</time>
        <extensions>
          <ns3:TrackPointExtension>
            <ns3:hr>159</ns3:hr>
            <ns3:cad>86</ns3:cad>
          </ns3:TrackPointExtension>
        </extensions>
      </trkpt>
      <trkpt lat="47.5342048890888690948486328125" lon="10.21274258382618427276611328125">
        <ele>1419</ele>
        <time>2026-09-01T07:30:00.000Z</time>
        <extensions>
          <ns3:TrackPointExtension>
            <ns3:hr>159</ns3:hr>
            <ns3:cad>89</ns3:cad>
          </ns3:TrackPointExtension>
        </extensions>
      </trkpt>
      <trkpt lat="47.53419122658669948577880859375" lon="10.2127238921821117401123046875">
        <ele>1419.4000244140625</ele>
        <time>2026-09-01T07:30:01.000Z</time>
        <extensions>
          <ns3:TrackPointExtension>
            <ns3:hr>159</ns3:hr>
            <ns3:cad>88</ns3:cad>
          </ns3:TrackPointExtension>
        </extensions>
      </trkpt>
      <trkpt lat="47.53414311446249485015869140625" lon="10.2126585133373737335205078125">
        <ele>1420.5999755859375</ele>
        <time>2026-09-01T07:30:04.000Z</time>
        <extensions>
          <ns3:TrackPointExtension>
            <ns3:hr>157</ns3:hr>
            <ns3:cad>88</ns3:cad>
          </ns3:TrackPointExtension>
        </extensions>
      </trkpt>
      <trkpt lat="47.534077651798725128173828125" lon="10.2125693298876285552978515625">
        <ele>1422</ele>
        <time>2026-09-01T07:30:08.000Z</time>
        <extensions>
          <ns3:TrackPointExtension>
            <ns3:hr>158</ns3:hr>
            <ns3:cad>87</ns3:cad>
          </ns3:TrackPointExtension>
        </extensions>
      </trkpt>
      <trkpt lat="47.53401185385882854461669921875" lon="10.2124563418328762054443359375">
        <ele>1423.199951171875</ele>
        <time>2026-09-01T07:30:12.000Z</time>
        <extensions>
          <ns3:TrackPointExtension>
            <ns3:hr>157</ns3:hr>
            <ns3:cad>87</ns3:cad>
          </ns3:TrackPointExtension>
        </extensions>
      </trkpt>
      <trkpt lat="47.533949911594390869140625" lon="10.212389118969440460205078125">
        <ele>1424.4000244140625</ele>
        <time>2026-09-01T07:30:15.000Z</time>
        <extensions>
          <ns3:TrackPointExtension>
            <ns3:hr>157</ns3:hr>
            <ns3:cad>86</ns3:cad>
          </ns3:TrackPointExtension>
        </extensions>
      </trkpt>
      <trkpt lat="47.53391437232494354248046875" lon="10.21238786168396472930908203125">
        <ele>1424.800048828125</ele>
        <time>2026-09-01T07:30:16.000Z</time>
        <extensions>
          <ns3:TrackPointExtension>
            <ns3:hr>158</ns3:hr>
            <ns3:cad>86</ns3:cad>
          </ns3:TrackPointExtension>
        </extensions>
      </trkpt>
      <trkpt lat="47.53388662822544574737548828125" lon="10.21237671375274658203125">
        <ele>1425.4000244140625</ele>
        <time>2026-09-01T07:30:17.000Z</time>
        <extensions>
          <ns3:TrackPointExtension>
            <ns3:hr>158</ns3:hr>
            <ns3:cad>86</ns3:cad>
          </ns3:TrackPointExtension>
        </extensions>
      </trkpt>
      <trkpt lat="47.53380666486918926239013671875" lon="10.212342180311679840087890625">
        <ele>1426.4000244140625</ele>
        <time>2026-09-01T07:30:20.000Z</time>
        <extensions>
          <ns3:TrackPointExtension>
            <ns3:hr>158</ns3:hr>
            <ns3:cad>86</ns3:cad>
          </ns3:TrackPointExtension>
        </extensions>
      </trkpt>
      <trkpt lat="47.53378235734999179840087890625" lon="10.21231661550700664520263671875">
        <ele>1426.5999755859375</ele>
        <time>2026-09-01T07:30:21.000Z</time>
        <extensions>
          <ns3:TrackPointExtension>
            <ns3:hr>159</ns3:hr>
            <ns3:cad>86</ns3:cad>
          </ns3:TrackPointExtension>
        </extensions>
      </trkpt>
      <trkpt lat="47.53369317390024662017822265625" lon="10.21217730827629566192626953125">
        <ele>1427</ele>
        <time>2026-09-01T07:30:26.000Z</time>
        <extensions>
          <ns3:TrackPointExtension>
            <ns3:hr>161</ns3:hr>
            <ns3:cad>88</ns3:cad>
          </ns3:TrackPointExtension>
        </extensions>
      </trkpt>
      <trkpt lat="47.53364749252796173095703125" lon="10.212093405425548553466796875">
        <ele>1427.5999755859375</ele>
        <time>2026-09-01T07:30:29.000Z</time>
        <extensions>
          <ns3:TrackPointExtension>
            <ns3:hr>163</ns3:hr>
            <ns3:cad>85</ns3:cad>
          </ns3:TrackPointExtension>
        </extensions>
      </trkpt>
      <trkpt lat="47.53356258384883403778076171875" lon="10.21194420754909515380859375">
        <ele>1428.5999755859375</ele>
        <time>2026-09-01T07:30:34.000Z</time>
        <extensions>
          <ns3:TrackPointExtension>
            <ns3:hr>165</ns3:hr>
            <ns3:cad>85</ns3:cad>
          </ns3:TrackPointExtension>
        </extensions>
      </trkpt>
      <trkpt lat="47.533542551100254058837890625" lon="10.21192082203924655914306640625">
        <ele>1428.800048828125</ele>
        <time>2026-09-01T07:30:35.000Z</time>
        <extensions>
          <ns3:TrackPointExtension>
            <ns3:hr>164</ns3:hr>
            <ns3:cad>85</ns3:cad>
          </ns3:TrackPointExtension>
        </extensions>
      </trkpt>
      <trkpt lat="47.5334998033940792083740234375" lon="10.21181521005928516387939453125">
        <ele>1429.5999755859375</ele>
        <time>2026-09-01T07:30:38.000Z</time>
        <extensions>
          <ns3:TrackPointExtension>
            <ns3:hr>164</ns3:hr>
            <ns3:cad>84</ns3:cad>
          </ns3:TrackPointExtension>
        </extensions>
      </trkpt>
      <trkpt lat="47.5334850512444972991943359375" lon="10.211787633597850799560546875">
        <ele>1429.800048828125</ele>
        <time>2026-09-01T07:30:39.000Z</time>
        <extensions>
          <ns3:TrackPointExtension>
            <ns3:hr>164</ns3:hr>
            <ns3:cad>84</ns3:cad>
          </ns3:TrackPointExtension>
        </extensions>
      </trkpt>
      <trkpt lat="47.533442638814449310302734375" lon="10.2116939239203929901123046875">
        <ele>1430.4000244140625</ele>
        <time>2026-09-01T07:30:42.000Z</time>
        <extensions>
          <ns3:TrackPointExtension>
            <ns3:hr>164</ns3:hr>
            <ns3:cad>84</ns3:cad>
          </ns3:TrackPointExtension>
        </extensions>
      </trkpt>
      <trkpt lat="47.53341414034366607666015625" lon="10.2116458117961883544921875">
        <ele>1431</ele>
        <time>2026-09-01T07:30:44.000Z</time>
        <extensions>
          <ns3:TrackPointExtension>
            <ns3:hr>164</ns3:hr>
            <ns3:cad>86</ns3:cad>
          </ns3:TrackPointExtension>
        </extensions>
      </trkpt>
      <trkpt lat="47.5333665311336517333984375" lon="10.21157808601856231689453125">
        <ele>1432</ele>
        <time>2026-09-01T07:30:47.000Z</time>
        <extensions>
          <ns3:TrackPointExtension>
            <ns3:hr>164</ns3:hr>
            <ns3:cad>86</ns3:cad>
          </ns3:TrackPointExtension>
        </extensions>
      </trkpt>
      <trkpt lat="47.53334800712764263153076171875" lon="10.21153810434043407440185546875">
        <ele>1432.199951171875</ele>
        <time>2026-09-01T07:30:48.000Z</time>
        <extensions>
          <ns3:TrackPointExtension>
            <ns3:hr>165</ns3:hr>
            <ns3:cad>86</ns3:cad>
          </ns3:TrackPointExtension>
        </extensions>
      </trkpt>
      <trkpt lat="47.533304505050182342529296875" lon="10.21148680709302425384521484375">
        <ele>1432.800048828125</ele>
        <time>2026-09-01T07:30:50.000Z</time>
        <extensions>
          <ns3:TrackPointExtension>
            <ns3:hr>164</ns3:hr>
            <ns3:cad>86</ns3:cad>
          </ns3:TrackPointExtension>
        </extensions>
      </trkpt>
      <trkpt lat="47.53323099575936794281005859375" lon="10.21139167249202728271484375">
        <ele>1433.199951171875</ele>
        <time>2026-09-01T07:30:53.000Z</time>
        <extensions>
          <ns3:TrackPointExtension>
            <ns3:hr>165</ns3:hr>
            <ns3:cad>86</ns3:cad>
          </ns3:TrackPointExtension>
        </extensions>
      </trkpt>
      <trkpt lat="47.53318321891129016876220703125" lon="10.21133190952241420745849609375">
        <ele>1433.5999755859375</ele>
        <time>2026-09-01T07:30:55.000Z</time>
        <extensions>
          <ns3:TrackPointExtension>
            <ns3:hr>165</ns3:hr>
            <ns3:cad>84</ns3:cad>
          </ns3:TrackPointExtension>
        </extensions>
      </trkpt>
      <trkpt lat="47.53311968408524990081787109375" lon="10.2112567238509654998779296875">
        <ele>1433.4000244140625</ele>
        <time>2026-09-01T07:30:58.000Z</time>
        <extensions>
          <ns3:TrackPointExtension>
            <ns3:hr>165</ns3:hr>
            <ns3:cad>84</ns3:cad>
          </ns3:TrackPointExtension>
        </extensions>
      </trkpt>
      <trkpt lat="47.5330294109880924224853515625" lon="10.21114499308168888092041015625">
        <ele>1434.4000244140625</ele>
        <time>2026-09-01T07:31:03.000Z</time>
        <extensions>
          <ns3:TrackPointExtension>
            <ns3:hr>165</ns3:hr>
            <ns3:cad>84</ns3:cad>
          </ns3:TrackPointExtension>
        </extensions>
      </trkpt>
      <trkpt lat="47.5329596735537052154541015625" lon="10.21105547435581684112548828125">
        <ele>1435.800048828125</ele>
        <time>2026-09-01T07:31:07.000Z</time>
        <extensions>
          <ns3:TrackPointExtension>
            <ns3:hr>164</ns3:hr>
            <ns3:cad>84</ns3:cad>
          </ns3:TrackPointExtension>
        </extensions>
      </trkpt>
      <trkpt lat="47.53291332162916660308837890625" lon="10.21099680103361606597900390625">
        <ele>1437</ele>
        <time>2026-09-01T07:31:10.000Z</time>
        <extensions>
          <ns3:TrackPointExtension>
            <ns3:hr>164</ns3:hr>
            <ns3:cad>87</ns3:cad>
          </ns3:TrackPointExtension>
        </extensions>
      </trkpt>
      <trkpt lat="47.5328944623470306396484375" lon="10.21097014658153057098388671875">
        <ele>1437.199951171875</ele>
        <time>2026-09-01T07:31:11.000Z</time>
        <extensions>
          <ns3:TrackPointExtension>
            <ns3:hr>164</ns3:hr>
            <ns3:cad>87</ns3:cad>
          </ns3:TrackPointExtension>
        </extensions>
      </trkpt>
      <trkpt lat="47.53284542821347713470458984375" lon="10.21090325899422168731689453125">
        <ele>1438.199951171875</ele>
        <time>2026-09-01T07:31:14.000Z</time>
        <extensions>
          <ns3:TrackPointExtension>
            <ns3:hr>163</ns3:hr>
            <ns3:cad>86</ns3:cad>
          </ns3:TrackPointExtension>
        </extensions>
      </trkpt>
      <trkpt lat="47.53282028250396251678466796875" lon="10.2108855731785297393798828125">
        <ele>1438.5999755859375</ele>
        <time>2026-09-01T07:31:15.000Z</time>
        <extensions>
          <ns3:TrackPointExtension>
            <ns3:hr>163</ns3:hr>
            <ns3:cad>86</ns3:cad>
          </ns3:TrackPointExtension>
        </extensions>
      </trkpt>
      <trkpt lat="47.53271919675171375274658203125" lon="10.210838131606578826904296875">
        <ele>1439.199951171875</ele>
        <time>2026-09-01T07:31:19.000Z</time>
        <extensions>
          <ns3:TrackPointExtension>
            <ns3:hr>164</ns3:hr>
            <ns3:cad>86</ns3:cad>
          </ns3:TrackPointExtension>
        </extensions>
      </trkpt>
      <trkpt lat="47.5326860882341861724853515625" lon="10.2108282409608364105224609375">
        <ele>1439.4000244140625</ele>
        <time>2026-09-01T07:31:20.000Z</time>
        <extensions>
          <ns3:TrackPointExtension>
            <ns3:hr>164</ns3:hr>
            <ns3:cad>86</ns3:cad>
          </ns3:TrackPointExtension>
        </extensions>
      </trkpt>
      <trkpt lat="47.53260872326791286468505859375" lon="10.21078758873045444488525390625">
        <ele>1440.4000244140625</ele>
        <time>2026-09-01T07:31:23.000Z</time>
        <extensions>
          <ns3:TrackPointExtension>
            <ns3:hr>165</ns3:hr>
            <ns3:cad>86</ns3:cad>
          </ns3:TrackPointExtension>
        </extensions>
      </trkpt>
      <trkpt lat="47.532585002481937408447265625" lon="10.21077384240925312042236328125">
        <ele>1440.5999755859375</ele>
        <time>2026-09-01T07:31:24.000Z</time>
        <extensions>
          <ns3:TrackPointExtension>
            <ns3:hr>165</ns3:hr>
            <ns3:cad>86</ns3:cad>
          </ns3:TrackPointExtension>
        </extensions>
      </trkpt>
      <trkpt lat="47.53248349763453006744384765625" lon="10.2107092179358005523681640625">
        <ele>1442</ele>
        <time>2026-09-01T07:31:29.000Z</time>
        <extensions>
          <ns3:TrackPointExtension>
            <ns3:hr>164</ns3:hr>
            <ns3:cad>86</ns3:cad>
          </ns3:TrackPointExtension>
        </extensions>
      </trkpt>
      <trkpt lat="47.53244242630898952484130859375" lon="10.21065817214548587799072265625">
        <ele>1443.199951171875</ele>
        <time>2026-09-01T07:31:32.000Z</time>
        <extensions>
          <ns3:TrackPointExtension>
            <ns3:hr>164</ns3:hr>
            <ns3:cad>43</ns3:cad>
          </ns3:TrackPointExtension>
        </extensions>
      </trkpt>
      <trkpt lat="47.53242163918912410736083984375" lon="10.21064140833914279937744140625">
        <ele>1443.4000244140625</ele>
        <time>2026-09-01T07:31:33.000Z</time>
        <extensions>
          <ns3:TrackPointExtension>
            <ns3:hr>164</ns3:hr>
            <ns3:cad>43</ns3:cad>
          </ns3:TrackPointExtension>
        </extensions>
      </trkpt>
      <trkpt lat="47.53238274715840816497802734375" lon="10.2106113173067569732666015625">
        <ele>1444.199951171875</ele>
        <time>2026-09-01T07:31:35.000Z</time>
        <extensions>
          <ns3:TrackPointExtension>
            <ns3:hr>164</ns3:hr>
            <ns3:cad>43</ns3:cad>
          </ns3:TrackPointExtension>
        </extensions>
      </trkpt>
      <trkpt lat="47.53231720067560672760009765625" lon="10.21055339835584163665771484375">
        <ele>1445.4000244140625</ele>
        <time>2026-09-01T07:31:38.000Z</time>
        <extensions>
          <ns3:TrackPointExtension>
            <ns3:hr>165</ns3:hr>
            <ns3:cad>86</ns3:cad>
          </ns3:TrackPointExtension>
        </extensions>
      </trkpt>
      <trkpt lat="47.53230194561183452606201171875" lon="10.21054384298622608184814453125">
        <ele>1445.800048828125</ele>
        <time>2026-09-01T07:31:39.000Z</time>
        <extensions>
          <ns3:TrackPointExtension>
            <ns3:hr>165</ns3:hr>
            <ns3:cad>86</ns3:cad>
          </ns3:TrackPointExtension>
        </extensions>
      </trkpt>
      <trkpt lat="47.53227797336876392364501953125" lon="10.210524313151836395263671875">
        <ele>1446.5999755859375</ele>
        <time>2026-09-01T07:31:41.000Z</time>
        <extensions>
          <ns3:TrackPointExtension>
            <ns3:hr>164</ns3:hr>
            <ns3:cad>86</ns3:cad>
          </ns3:TrackPointExtension>
        </extensions>
      </trkpt>
      <trkpt lat="47.5322411768138408660888671875" lon="10.2104963175952434539794921875">
        <ele>1447.4000244140625</ele>
        <time>2026-09-01T07:31:43.000Z</time>
        <extensions>
          <ns3:TrackPointExtension>
            <ns3:hr>165</ns3:hr>
            <ns3:cad>86</ns3:cad>
          </ns3:TrackPointExtension>
        </extensions>
      </trkpt>
      <trkpt lat="47.5322244130074977874755859375" lon="10.21047729067504405975341796875">
        <ele>1448</ele>
        <time>2026-09-01T07:31:44.000Z</time>
        <extensions>
          <ns3:TrackPointExtension>
            <ns3:hr>164</ns3:hr>
            <ns3:cad>86</ns3:cad>
          </ns3:TrackPointExtension>
        </extensions>
      </trkpt>
      <trkpt lat="47.532171271741390228271484375" lon="10.21043387241661548614501953125">
        <ele>1449.199951171875</ele>
        <time>2026-09-01T07:31:47.000Z</time>
        <extensions>
          <ns3:TrackPointExtension>
            <ns3:hr>165</ns3:hr>
            <ns3:cad>0</ns3:cad>
          </ns3:TrackPointExtension>
        </extensions>
      </trkpt>
      <trkpt lat="47.5321188010275363922119140625" lon="10.210413001477718353271484375">
        <ele>1449.800048828125</ele>
        <time>2026-09-01T07:31:50.000Z</time>
        <extensions>
          <ns3:TrackPointExtension>
            <ns3:hr>166</ns3:hr>
            <ns3:cad>0</ns3:cad>
          </ns3:TrackPointExtension>
        </extensions>
      </trkpt>
      <trkpt lat="47.532073371112346649169921875" lon="10.2103947289288043975830078125">
        <ele>1450.5999755859375</ele>
        <time>2026-09-01T07:31:52.000Z</time>
        <extensions>
          <ns3:TrackPointExtension>
            <ns3:hr>166</ns3:hr>
            <ns3:cad>0</ns3:cad>
          </ns3:TrackPointExtension>
        </extensions>
      </trkpt>
      <trkpt lat="47.53202651627361774444580078125" lon="10.21034695208072662353515625">
        <ele>1451.5999755859375</ele>
        <time>2026-09-01T07:31:55.000Z</time>
        <extensions>
          <ns3:TrackPointExtension>
            <ns3:hr>167</ns3:hr>
            <ns3:cad>43</ns3:cad>
          </ns3:TrackPointExtension>
        </extensions>
      </trkpt>
      <trkpt lat="47.5320333056151866912841796875" lon="10.2103233151137828826904296875">
        <ele>1452</ele>
        <time>2026-09-01T07:31:56.000Z</time>
        <extensions>
          <ns3:TrackPointExtension>
            <ns3:hr>167</ns3:hr>
            <ns3:cad>43</ns3:cad>
          </ns3:TrackPointExtension>
        </extensions>
      </trkpt>
      <trkpt lat="47.53206255845725536346435546875" lon="10.21024427376687526702880859375">
        <ele>1452.800048828125</ele>
        <time>2026-09-01T07:31:59.000Z</time>
        <extensions>
          <ns3:TrackPointExtension>
            <ns3:hr>167</ns3:hr>
            <ns3:cad>85</ns3:cad>
          </ns3:TrackPointExtension>
        </extensions>
      </trkpt>
      <trkpt lat="47.53214788623154163360595703125" lon="10.21008166484534740447998046875">
        <ele>1452.4000244140625</ele>
        <time>2026-09-01T07:32:03.000Z</time>
        <extensions>
          <ns3:TrackPointExtension>
            <ns3:hr>168</ns3:hr>
            <ns3:cad>85</ns3:cad>
          </ns3:TrackPointExtension>
        </extensions>
      </trkpt>
      <trkpt lat="47.53219633363187313079833984375" lon="10.20998493768274784088134765625">
        <ele>1451.4000244140625</ele>
        <time>2026-09-01T07:32:05.000Z</time>
        <extensions>
          <ns3:TrackPointExtension>
            <ns3:hr>168</ns3:hr>
            <ns3:cad>83</ns3:cad>
          </ns3:TrackPointExtension>
        </extensions>
      </trkpt>
      <trkpt lat="47.532263137400150299072265625" lon="10.20986817777156829833984375">
        <ele>1450.4000244140625</ele>
        <time>2026-09-01T07:32:08.000Z</time>
        <extensions>
          <ns3:TrackPointExtension>
            <ns3:hr>168</ns3:hr>
            <ns3:cad>82</ns3:cad>
          </ns3:TrackPointExtension>
        </extensions>
      </trkpt>
      <trkpt lat="47.53232273273169994354248046875" lon="10.20971319638192653656005859375">
        <ele>1450.5999755859375</ele>
        <time>2026-09-01T07:32:12.000Z</time>
        <extensions>
          <ns3:TrackPointExtension>
            <ns3:hr>166</ns3:hr>
            <ns3:cad>85</ns3:cad>
          </ns3:TrackPointExtension>
        </extensions>
      </trkpt>
      <trkpt lat="47.53235693089663982391357421875" lon="10.20952326245605945587158203125">
        <ele>1450.199951171875</ele>
        <time>2026-09-01T07:32:16.000Z</time>
        <extensions>
          <ns3:TrackPointExtension>
            <ns3:hr>166</ns3:hr>
            <ns3:cad>83</ns3:cad>
          </ns3:TrackPointExtension>
        </extensions>
      </trkpt>
      <trkpt lat="47.53233631141483783721923828125" lon="10.20937305875122547149658203125">
        <ele>1450</ele>
        <time>2026-09-01T07:32:19.000Z</time>
        <extensions>
          <ns3:TrackPointExtension>
            <ns3:hr>166</ns3:hr>
            <ns3:cad>85</ns3:cad>
          </ns3:TrackPointExtension>
        </extensions>
      </trkpt>
      <trkpt lat="47.53233497031033039093017578125" lon="10.2091796882450580596923828125">
        <ele>1449.5999755859375</ele>
        <time>2026-09-01T07:32:23.000Z</time>
        <extensions>
          <ns3:TrackPointExtension>
            <ns3:hr>165</ns3:hr>
            <ns3:cad>84</ns3:cad>
          </ns3:TrackPointExtension>
        </extensions>
      </trkpt>
      <trkpt lat="47.53233212046325206756591796875" lon="10.20906846038997173309326171875">
        <ele>1449.4000244140625</ele>
        <time>2026-09-01T07:32:25.000Z</time>
        <extensions>
          <ns3:TrackPointExtension>
            <ns3:hr>165</ns3:hr>
            <ns3:cad>85</ns3:cad>
          </ns3:TrackPointExtension>
        </extensions>
      </trkpt>
      <trkpt lat="47.53232072107493877410888671875" lon="10.2089984714984893798828125">
        <ele>1449</ele>
        <time>2026-09-01T07:32:26.000Z</time>
        <extensions>
          <ns3:TrackPointExtension>
            <ns3:hr>164</ns3:hr>
            <ns3:cad>85</ns3:cad>
          </ns3:TrackPointExtension>
        </extensions>
      </trkpt>
      <trkpt lat="47.53230982460081577301025390625" lon="10.2088843099772930145263671875">
        <ele>1448.4000244140625</ele>
        <time>2026-09-01T07:32:28.000Z</time>
        <extensions>
          <ns3:TrackPointExtension>
            <ns3:hr>164</ns3:hr>
            <ns3:cad>87</ns3:cad>
          </ns3:TrackPointExtension>
        </extensions>
      </trkpt>
      <trkpt lat="47.532293312251567840576171875" lon="10.20876889117062091827392578125">
        <ele>1447.5999755859375</ele>
        <time>2026-09-01T07:32:30.000Z</time>
        <extensions>
          <ns3:TrackPointExtension>
            <ns3:hr>164</ns3:hr>
            <ns3:cad>88</ns3:cad>
          </ns3:TrackPointExtension>
        </extensions>
      </trkpt>
      <trkpt lat="47.53226255066692829132080078125" lon="10.208660848438739776611328125">
        <ele>1447</ele>
        <time>2026-09-01T07:32:32.000Z</time>
        <extensions>
          <ns3:TrackPointExtension>
            <ns3:hr>163</ns3:hr>
            <ns3:cad>86</ns3:cad>
          </ns3:TrackPointExtension>
        </extensions>
      </trkpt>
      <trkpt lat="47.53224201500415802001953125" lon="10.2086120657622814178466796875">
        <ele>1446.800048828125</ele>
        <time>2026-09-01T07:32:33.000Z</time>
        <extensions>
          <ns3:TrackPointExtension>
            <ns3:hr>163</ns3:hr>
            <ns3:cad>85</ns3:cad>
          </ns3:TrackPointExtension>
        </extensions>
      </trkpt>
      <trkpt lat="47.53221259452402591705322265625" lon="10.20851575769484043121337890625">
        <ele>1446</ele>
        <time>2026-09-01T07:32:35.000Z</time>
        <extensions>
          <ns3:TrackPointExtension>
            <ns3:hr>163</ns3:hr>
            <ns3:cad>84</ns3:cad>
          </ns3:TrackPointExtension>
        </extensions>
      </trkpt>
      <trkpt lat="47.5322002731263637542724609375" lon="10.2084137499332427978515625">
        <ele>1445.5999755859375</ele>
        <time>2026-09-01T07:32:37.000Z</time>
        <extensions>
          <ns3:TrackPointExtension>
            <ns3:hr>163</ns3:hr>
            <ns3:cad>84</ns3:cad>
          </ns3:TrackPointExtension>
        </extensions>
      </trkpt>
      <trkpt lat="47.53217889927327632904052734375" lon="10.20825189538300037384033203125">
        <ele>1445</ele>
        <time>2026-09-01T07:32:40.000Z</time>
        <extensions>
          <ns3:TrackPointExtension>
            <ns3:hr>162</ns3:hr>
            <ns3:cad>84</ns3:cad>
          </ns3:TrackPointExtension>
        </extensions>
      </trkpt>
      <trkpt lat="47.5321380794048309326171875" lon="10.20808878354728221893310546875">
        <ele>1444.800048828125</ele>
        <time>2026-09-01T07:32:43.000Z</time>
        <extensions>
          <ns3:TrackPointExtension>
            <ns3:hr>161</ns3:hr>
            <ns3:cad>84</ns3:cad>
          </ns3:TrackPointExtension>
        </extensions>
      </trkpt>
      <trkpt lat="47.53208669833838939666748046875" lon="10.207885019481182098388671875">
        <ele>1444.199951171875</ele>
        <time>2026-09-01T07:32:47.000Z</time>
        <extensions>
          <ns3:TrackPointExtension>
            <ns3:hr>161</ns3:hr>
            <ns3:cad>83</ns3:cad>
          </ns3:TrackPointExtension>
        </extensions>
      </trkpt>
      <trkpt lat="47.5320683419704437255859375" lon="10.2078248374164104461669921875">
        <ele>1444</ele>
        <time>2026-09-01T07:32:48.000Z</time>
        <extensions>
          <ns3:TrackPointExtension>
            <ns3:hr>161</ns3:hr>
            <ns3:cad>83</ns3:cad>
          </ns3:TrackPointExtension>
        </extensions>
      </trkpt>
      <trkpt lat="47.53203213214874267578125" lon="10.20773422904312610626220703125">
        <ele>1443.5999755859375</ele>
        <time>2026-09-01T07:32:50.000Z</time>
        <extensions>
          <ns3:TrackPointExtension>
            <ns3:hr>159</ns3:hr>
            <ns3:cad>85</ns3:cad>
          </ns3:TrackPointExtension>
        </extensions>
      </trkpt>
      <trkpt lat="47.53200531005859375" lon="10.2076350711286067962646484375">
        <ele>1442.4000244140625</ele>
        <time>2026-09-01T07:32:52.000Z</time>
        <extensions>
          <ns3:TrackPointExtension>
            <ns3:hr>159</ns3:hr>
            <ns3:cad>84</ns3:cad>
          </ns3:TrackPointExtension>
        </extensions>
      </trkpt>
      <trkpt lat="47.53197035752236843109130859375" lon="10.2075375057756900787353515625">
        <ele>1441.199951171875</ele>
        <time>2026-09-01T07:32:54.000Z</time>
        <extensions>
          <ns3:TrackPointExtension>
            <ns3:hr>158</ns3:hr>
            <ns3:cad>84</ns3:cad>
          </ns3:TrackPointExtension>
        </extensions>
      </trkpt>
      <trkpt lat="47.53192953765392303466796875" lon="10.20737548358738422393798828125">
        <ele>1440</ele>
        <time>2026-09-01T07:32:57.000Z</time>
        <extensions>
          <ns3:TrackPointExtension>
            <ns3:hr>157</ns3:hr>
            <ns3:cad>85</ns3:cad>
          </ns3:TrackPointExtension>
        </extensions>
      </trkpt>
      <trkpt lat="47.53191570751368999481201171875" lon="10.20731873810291290283203125">
        <ele>1439.800048828125</ele>
        <time>2026-09-01T07:32:58.000Z</time>
        <extensions>
          <ns3:TrackPointExtension>
            <ns3:hr>158</ns3:hr>
            <ns3:cad>85</ns3:cad>
          </ns3:TrackPointExtension>
        </extensions>
      </trkpt>
      <trkpt lat="47.5318934954702854156494140625" lon="10.20716090686619281768798828125">
        <ele>1439.199951171875</ele>
        <time>2026-09-01T07:33:01.000Z</time>
        <extensions>
          <ns3:TrackPointExtension>
            <ns3:hr>157</ns3:hr>
            <ns3:cad>87</ns3:cad>
          </ns3:TrackPointExtension>
        </extensions>
      </trkpt>
      <trkpt lat="47.53188251517713069915771484375" lon="10.20708739757537841796875">
        <ele>1439</ele>
        <time>2026-09-01T07:33:02.000Z</time>
        <extensions>
          <ns3:TrackPointExtension>
            <ns3:hr>158</ns3:hr>
            <ns3:cad>87</ns3:cad>
          </ns3:TrackPointExtension>
        </extensions>
      </trkpt>
      <trkpt lat="47.5318730436265468597412109375" lon="10.20697382278740406036376953125">
        <ele>1438.4000244140625</ele>
        <time>2026-09-01T07:33:04.000Z</time>
        <extensions>
          <ns3:TrackPointExtension>
            <ns3:hr>157</ns3:hr>
            <ns3:cad>85</ns3:cad>
          </ns3:TrackPointExtension>
        </extensions>
      </trkpt>
      <trkpt lat="47.53185770474374294281005859375" lon="10.20679838955402374267578125">
        <ele>1438</ele>
        <time>2026-09-01T07:33:07.000Z</time>
        <extensions>
          <ns3:TrackPointExtension>
            <ns3:hr>156</ns3:hr>
            <ns3:cad>86</ns3:cad>
          </ns3:TrackPointExtension>
        </extensions>
      </trkpt>
      <trkpt lat="47.53184379078447818756103515625" lon="10.20667903125286102294921875">
        <ele>1437.5999755859375</ele>
        <time>2026-09-01T07:33:09.000Z</time>
        <extensions>
          <ns3:TrackPointExtension>
            <ns3:hr>156</ns3:hr>
            <ns3:cad>86</ns3:cad>
          </ns3:TrackPointExtension>
        </extensions>
      </trkpt>
      <trkpt lat="47.5318108499050140380859375" lon="10.2065350301563739776611328125">
        <ele>1436.800048828125</ele>
        <time>2026-09-01T07:33:12.000Z</time>
        <extensions>
          <ns3:TrackPointExtension>
            <ns3:hr>155</ns3:hr>
            <ns3:cad>87</ns3:cad>
          </ns3:TrackPointExtension>
        </extensions>
      </trkpt>
      <trkpt lat="47.53179349936544895172119140625" lon="10.20637719891965389251708984375">
        <ele>1435.5999755859375</ele>
        <time>2026-09-01T07:33:15.000Z</time>
        <extensions>
          <ns3:TrackPointExtension>
            <ns3:hr>154</ns3:hr>
            <ns3:cad>85</ns3:cad>
          </ns3:TrackPointExtension>
        </extensions>
      </trkpt>
      <trkpt lat="47.531788051128387451171875" lon="10.20627376623451709747314453125">
        <ele>1434.5999755859375</ele>
        <time>2026-09-01T07:33:17.000Z</time>
        <extensions>
          <ns3:TrackPointExtension>
            <ns3:hr>155</ns3:hr>
            <ns3:cad>85</ns3:cad>
          </ns3:TrackPointExtension>
        </extensions>
      </trkpt>
      <trkpt lat="47.53177941776812076568603515625" lon="10.2062034420669078826904296875">
        <ele>1434.199951171875</ele>
        <time>2026-09-01T07:33:18.000Z</time>
        <extensions>
          <ns3:TrackPointExtension>
            <ns3:hr>156</ns3:hr>
            <ns3:cad>85</ns3:cad>
          </ns3:TrackPointExtension>
        </extensions>
      </trkpt>
      <trkpt lat="47.5317652523517608642578125" lon="10.20608425140380859375">
        <ele>1433.4000244140625</ele>
        <time>2026-09-01T07:33:20.000Z</time>
        <extensions>
          <ns3:TrackPointExtension>
            <ns3:hr>156</ns3:hr>
            <ns3:cad>87</ns3:cad>
          </ns3:TrackPointExtension>
        </extensions>
      </trkpt>
      <trkpt lat="47.5317577086389064788818359375" lon="10.20603706128895282745361328125">
        <ele>1432.5999755859375</ele>
        <time>2026-09-01T07:33:21.000Z</time>
        <extensions>
          <ns3:TrackPointExtension>
            <ns3:hr>156</ns3:hr>
            <ns3:cad>87</ns3:cad>
          </ns3:TrackPointExtension>
        </extensions>
      </trkpt>
      <trkpt lat="47.53173373639583587646484375" lon="10.20592172630131244659423828125">
        <ele>1431.199951171875</ele>
        <time>2026-09-01T07:33:23.000Z</time>
        <extensions>
          <ns3:TrackPointExtension>
            <ns3:hr>156</ns3:hr>
            <ns3:cad>89</ns3:cad>
          </ns3:TrackPointExtension>
        </extensions>
      </trkpt>
      <trkpt lat="47.5317003764212131500244140625" lon="10.20580773241817951202392578125">
        <ele>1429.5999755859375</ele>
        <time>2026-09-01T07:33:25.000Z</time>
        <extensions>
          <ns3:TrackPointExtension>
            <ns3:hr>156</ns3:hr>
            <ns3:cad>90</ns3:cad>
          </ns3:TrackPointExtension>
        </extensions>
      </trkpt>
      <trkpt lat="47.53167875111103057861328125" lon="10.20574922673404216766357421875">
        <ele>1429</ele>
        <time>2026-09-01T07:33:26.000Z</time>
        <extensions>
          <ns3:TrackPointExtension>
            <ns3:hr>156</ns3:hr>
            <ns3:cad>90</ns3:cad>
          </ns3:TrackPointExtension>
        </extensions>
      </trkpt>
      <trkpt lat="47.53165788017213344573974609375" lon="10.2057011984288692474365234375">
        <ele>1428.199951171875</ele>
        <time>2026-09-01T07:33:27.000Z</time>
        <extensions>
          <ns3:TrackPointExtension>
            <ns3:hr>155</ns3:hr>
            <ns3:cad>90</ns3:cad>
          </ns3:TrackPointExtension>
        </extensions>
      </trkpt>
      <trkpt lat="47.53162586130201816558837890625" lon="10.20559550262987613677978515625">
        <ele>1427.199951171875</ele>
        <time>2026-09-01T07:33:29.000Z</time>
        <extensions>
          <ns3:TrackPointExtension>
            <ns3:hr>155</ns3:hr>
            <ns3:cad>91</ns3:cad>
          </ns3:TrackPointExtension>
        </extensions>
      </trkpt>
      <trkpt lat="47.5316028110682964324951171875" lon="10.2054893039166927337646484375">
        <ele>1425.800048828125</ele>
        <time>2026-09-01T07:33:31.000Z</time>
        <extensions>
          <ns3:TrackPointExtension>
            <ns3:hr>153</ns3:hr>
            <ns3:cad>91</ns3:cad>
          </ns3:TrackPointExtension>
        </extensions>
      </trkpt>
      <trkpt lat="47.53159048967063426971435546875" lon="10.2054413594305515289306640625">
        <ele>1425.199951171875</ele>
        <time>2026-09-01T07:33:32.000Z</time>
        <extensions>
          <ns3:TrackPointExtension>
            <ns3:hr>153</ns3:hr>
            <ns3:cad>88</ns3:cad>
          </ns3:TrackPointExtension>
        </extensions>
      </trkpt>
      <trkpt lat="47.53157422877848148345947265625" lon="10.20539735443890094757080078125">
        <ele>1424.5999755859375</ele>
        <time>2026-09-01T07:33:33.000Z</time>
        <extensions>
          <ns3:TrackPointExtension>
            <ns3:hr>153</ns3:hr>
            <ns3:cad>88</ns3:cad>
          </ns3:TrackPointExtension>
        </extensions>
      </trkpt>
      <trkpt lat="47.5315602310001850128173828125" lon="10.20528470166027545928955078125">
        <ele>1423.4000244140625</ele>
        <time>2026-09-01T07:33:35.000Z</time>
        <extensions>
          <ns3:TrackPointExtension>
            <ns3:hr>151</ns3:hr>
            <ns3:cad>89</ns3:cad>
          </ns3:TrackPointExtension>
        </extensions>
      </trkpt>
      <trkpt lat="47.5315548665821552276611328125" lon="10.20521990954875946044921875">
        <ele>1422.800048828125</ele>
        <time>2026-09-01T07:33:36.000Z</time>
        <extensions>
          <ns3:TrackPointExtension>
            <ns3:hr>151</ns3:hr>
            <ns3:cad>89</ns3:cad>
          </ns3:TrackPointExtension>
        </extensions>
      </trkpt>
      <trkpt lat="47.53154891543090343475341796875" lon="10.20516333170235157012939453125">
        <ele>1422.4000244140625</ele>
        <time>2026-09-01T07:33:37.000Z</time>
        <extensions>
          <ns3:TrackPointExtension>
            <ns3:hr>150</ns3:hr>
            <ns3:cad>90</ns3:cad>
          </ns3:TrackPointExtension>
        </extensions>
      </trkpt>
      <trkpt lat="47.531547658145427703857421875" lon="10.205059982836246490478515625">
        <ele>1421.199951171875</ele>
        <time>2026-09-01T07:33:39.000Z</time>
        <extensions>
          <ns3:TrackPointExtension>
            <ns3:hr>150</ns3:hr>
            <ns3:cad>90</ns3:cad>
          </ns3:TrackPointExtension>
        </extensions>
      </trkpt>
      <trkpt lat="47.5315709598362445831298828125" lon="10.2049656026065349578857421875">
        <ele>1420</ele>
        <time>2026-09-01T07:33:41.000Z</time>
        <extensions>
          <ns3:TrackPointExtension>
            <ns3:hr>150</ns3:hr>
            <ns3:cad>90</ns3:cad>
          </ns3:TrackPointExtension>
        </extensions>
      </trkpt>
      <trkpt lat="47.53158613108098506927490234375" lon="10.20492612384259700775146484375">
        <ele>1419.5999755859375</ele>
        <time>2026-09-01T07:33:42.000Z</time>
        <extensions>
          <ns3:TrackPointExtension>
            <ns3:hr>151</ns3:hr>
            <ns3:cad>88</ns3:cad>
          </ns3:TrackPointExtension>
        </extensions>
      </trkpt>
      <trkpt lat="47.53159920684993267059326171875" lon="10.20476183854043483734130859375">
        <ele>1418.800048828125</ele>
        <time>2026-09-01T07:33:45.000Z</time>
        <extensions>
          <ns3:TrackPointExtension>
            <ns3:hr>152</ns3:hr>
            <ns3:cad>86</ns3:cad>
          </ns3:TrackPointExtension>
        </extensions>
      </trkpt>
      <trkpt lat="47.53159384243190288543701171875" lon="10.20470760762691497802734375">
        <ele>1418.5999755859375</ele>
        <time>2026-09-01T07:33:46.000Z</time>
        <extensions>
          <ns3:TrackPointExtension>
            <ns3:hr>152</ns3:hr>
            <ns3:cad>86</ns3:cad>
          </ns3:TrackPointExtension>
        </extensions>
      </trkpt>
      <trkpt lat="47.53158411942422389984130859375" lon="10.20459252409636974334716796875">
        <ele>1417.800048828125</ele>
        <time>2026-09-01T07:33:48.000Z</time>
        <extensions>
          <ns3:TrackPointExtension>
            <ns3:hr>153</ns3:hr>
            <ns3:cad>85</ns3:cad>
          </ns3:TrackPointExtension>
        </extensions>
      </trkpt>
      <trkpt lat="47.5315345823764801025390625" lon="10.20445807836949825286865234375">
        <ele>1416.199951171875</ele>
        <time>2026-09-01T07:33:51.000Z</time>
        <extensions>
          <ns3:TrackPointExtension>
            <ns3:hr>152</ns3:hr>
            <ns3:cad>84</ns3:cad>
          </ns3:TrackPointExtension>
        </extensions>
      </trkpt>
      <trkpt lat="47.53152091987431049346923828125" lon="10.20440108142793178558349609375">
        <ele>1415.4000244140625</ele>
        <time>2026-09-01T07:33:52.000Z</time>
        <extensions>
          <ns3:TrackPointExtension>
            <ns3:hr>152</ns3:hr>
            <ns3:cad>84</ns3:cad>
          </ns3:TrackPointExtension>
        </extensions>
      </trkpt>
      <trkpt lat="47.53151111304759979248046875" lon="10.20435648970305919647216796875">
        <ele>1414.5999755859375</ele>
        <time>2026-09-01T07:33:53.000Z</time>
        <extensions>
          <ns3:TrackPointExtension>
            <ns3:hr>152</ns3:hr>
            <ns3:cad>84</ns3:cad>
          </ns3:TrackPointExtension>
        </extensions>
      </trkpt>
      <trkpt lat="47.531499378383159637451171875" lon="10.2042427472770214080810546875">
        <ele>1413.4000244140625</ele>
        <time>2026-09-01T07:33:55.000Z</time>
        <extensions>
          <ns3:TrackPointExtension>
            <ns3:hr>153</ns3:hr>
            <ns3:cad>89</ns3:cad>
          </ns3:TrackPointExtension>
        </extensions>
      </trkpt>
      <trkpt lat="47.53147230483591556549072265625" lon="10.20414141006767749786376953125">
        <ele>1411.800048828125</ele>
        <time>2026-09-01T07:33:57.000Z</time>
        <extensions>
          <ns3:TrackPointExtension>
            <ns3:hr>153</ns3:hr>
            <ns3:cad>91</ns3:cad>
          </ns3:TrackPointExtension>
        </extensions>
      </trkpt>
      <trkpt lat="47.5314573012292385101318359375" lon="10.20407502539455890655517578125">
        <ele>1411</ele>
        <time>2026-09-01T07:33:58.000Z</time>
        <extensions>
          <ns3:TrackPointExtension>
            <ns3:hr>153</ns3:hr>
            <ns3:cad>91</ns3:cad>
          </ns3:TrackPointExtension>
        </extensions>
      </trkpt>
      <trkpt lat="47.53145101480185985565185546875" lon="10.20402288995683193206787109375">
        <ele>1410.199951171875</ele>
        <time>2026-09-01T07:33:59.000Z</time>
        <extensions>
          <ns3:TrackPointExtension>
            <ns3:hr>153</ns3:hr>
            <ns3:cad>91</ns3:cad>
          </ns3:TrackPointExtension>
        </extensions>
      </trkpt>
      <trkpt lat="47.5314559601247310638427734375" lon="10.20390051417052745819091796875">
        <ele>1409</ele>
        <time>2026-09-01T07:34:01.000Z</time>
        <extensions>
          <ns3:TrackPointExtension>
            <ns3:hr>153</ns3:hr>
            <ns3:cad>91</ns3:cad>
          </ns3:TrackPointExtension>
        </extensions>
      </trkpt>
      <trkpt lat="47.53145034424960613250732421875" lon="10.2037773840129375457763671875">
        <ele>1407.5999755859375</ele>
        <time>2026-09-01T07:34:03.000Z</time>
        <extensions>
          <ns3:TrackPointExtension>
            <ns3:hr>153</ns3:hr>
            <ns3:cad>90</ns3:cad>
          </ns3:TrackPointExtension>
        </extensions>
      </trkpt>
      <trkpt lat="47.5314509309828281402587890625" lon="10.2036187984049320220947265625">
        <ele>1406.4000244140625</ele>
        <time>2026-09-01T07:34:06.000Z</time>
        <extensions>
          <ns3:TrackPointExtension>
            <ns3:hr>154</ns3:hr>
            <ns3:cad>90</ns3:cad>
          </ns3:TrackPointExtension>
        </extensions>
      </trkpt>
      <trkpt lat="47.5314643420279026031494140625" lon="10.20346616394817829132080078125">
        <ele>1406</ele>
        <time>2026-09-01T07:34:09.000Z</time>
        <extensions>
          <ns3:TrackPointExtension>
            <ns3:hr>155</ns3:hr>
            <ns3:cad>85</ns3:cad>
          </ns3:TrackPointExtension>
        </extensions>
      </trkpt>
      <trkpt lat="47.53149242140352725982666015625" lon="10.20329408347606658935546875">
        <ele>1405</ele>
        <time>2026-09-01T07:34:12.000Z</time>
        <extensions>
          <ns3:TrackPointExtension>
            <ns3:hr>155</ns3:hr>
            <ns3:cad>84</ns3:cad>
          </ns3:TrackPointExtension>
        </extensions>
      </trkpt>
      <trkpt lat="47.531497366726398468017578125" lon="10.2032436244189739227294921875">
        <ele>1404.800048828125</ele>
        <time>2026-09-01T07:34:13.000Z</time>
        <extensions>
          <ns3:TrackPointExtension>
            <ns3:hr>155</ns3:hr>
            <ns3:cad>84</ns3:cad>
          </ns3:TrackPointExtension>
        </extensions>
      </trkpt>
      <trkpt lat="47.53150708973407745361328125" lon="10.20306475460529327392578125">
        <ele>1404</ele>
        <time>2026-09-01T07:34:16.000Z</time>
        <extensions>
          <ns3:TrackPointExtension>
            <ns3:hr>155</ns3:hr>
            <ns3:cad>84</ns3:cad>
          </ns3:TrackPointExtension>
        </extensions>
      </trkpt>
      <trkpt lat="47.53150616772472858428955078125" lon="10.2029982022941112518310546875">
        <ele>1403.800048828125</ele>
        <time>2026-09-01T07:34:17.000Z</time>
        <extensions>
          <ns3:TrackPointExtension>
            <ns3:hr>155</ns3:hr>
            <ns3:cad>84</ns3:cad>
          </ns3:TrackPointExtension>
        </extensions>
      </trkpt>
      <trkpt lat="47.53147951327264308929443359375" lon="10.2029023133218288421630859375">
        <ele>1403.5999755859375</ele>
        <time>2026-09-01T07:34:19.000Z</time>
        <extensions>
          <ns3:TrackPointExtension>
            <ns3:hr>155</ns3:hr>
            <ns3:cad>84</ns3:cad>
          </ns3:TrackPointExtension>
        </extensions>
      </trkpt>
      <trkpt lat="47.53146551549434661865234375" lon="10.20285478793084621429443359375">
        <ele>1403.4000244140625</ele>
        <time>2026-09-01T07:34:20.000Z</time>
        <extensions>
          <ns3:TrackPointExtension>
            <ns3:hr>155</ns3:hr>
            <ns3:cad>84</ns3:cad>
          </ns3:TrackPointExtension>
        </extensions>
      </trkpt>
      <trkpt lat="47.5314031541347503662109375" lon="10.20262143574655055999755859375">
        <ele>1403.4000244140625</ele>
        <time>2026-09-01T07:34:25.000Z</time>
        <extensions>
          <ns3:TrackPointExtension>
            <ns3:hr>154</ns3:hr>
            <ns3:cad>86</ns3:cad>
          </ns3:TrackPointExtension>
        </extensions>
      </trkpt>
      <trkpt lat="47.53138211555778980255126953125" lon="10.20237718708813190460205078125">
        <ele>1403.5999755859375</ele>
        <time>2026-09-01T07:34:30.000Z</time>
        <extensions>
          <ns3:TrackPointExtension>
            <ns3:hr>154</ns3:hr>
            <ns3:cad>84</ns3:cad>
          </ns3:TrackPointExtension>
        </extensions>
      </trkpt>
      <trkpt lat="47.53134087659418582916259765625" lon="10.20220066420733928680419921875">
        <ele>1404.199951171875</ele>
        <time>2026-09-01T07:34:34.000Z</time>
        <extensions>
          <ns3:TrackPointExtension>
            <ns3:hr>155</ns3:hr>
            <ns3:cad>87</ns3:cad>
          </ns3:TrackPointExtension>
        </extensions>
      </trkpt>
      <trkpt lat="47.5312896631658077239990234375" lon="10.20204660482704639434814453125">
        <ele>1404.800048828125</ele>
        <time>2026-09-01T07:34:38.000Z</time>
        <extensions>
          <ns3:TrackPointExtension>
            <ns3:hr>155</ns3:hr>
            <ns3:cad>86</ns3:cad>
          </ns3:TrackPointExtension>
        </extensions>
      </trkpt>
      <trkpt lat="47.53124155104160308837890625" lon="10.2019461058080196380615234375">
        <ele>1404.5999755859375</ele>
        <time>2026-09-01T07:34:42.000Z</time>
        <extensions>
          <ns3:TrackPointExtension>
            <ns3:hr>155</ns3:hr>
            <ns3:cad>84</ns3:cad>
          </ns3:TrackPointExtension>
        </extensions>
      </trkpt>
      <trkpt lat="47.531191594898700714111328125" lon="10.2018488757312297821044921875">
        <ele>1405.4000244140625</ele>
        <time>2026-09-01T07:34:46.000Z</time>
        <extensions>
          <ns3:TrackPointExtension>
            <ns3:hr>155</ns3:hr>
            <ns3:cad>81</ns3:cad>
          </ns3:TrackPointExtension>
        </extensions>
      </trkpt>
      <trkpt lat="47.53118162043392658233642578125" lon="10.20181878469884395599365234375">
        <ele>1405.800048828125</ele>
        <time>2026-09-01T07:34:47.000Z</time>
        <extensions>
          <ns3:TrackPointExtension>
            <ns3:hr>155</ns3:hr>
            <ns3:cad>83</ns3:cad>
          </ns3:TrackPointExtension>
        </extensions>
      </trkpt>
      <trkpt lat="47.53115848638117313385009765625" lon="10.2017657272517681121826171875">
        <ele>1406.4000244140625</ele>
        <time>2026-09-01T07:34:49.000Z</time>
        <extensions>
          <ns3:TrackPointExtension>
            <ns3:hr>156</ns3:hr>
            <ns3:cad>83</ns3:cad>
          </ns3:TrackPointExtension>
        </extensions>
      </trkpt>
      <trkpt lat="47.53112495876848697662353515625" lon="10.20166464149951934814453125">
        <ele>1407.199951171875</ele>
        <time>2026-09-01T07:34:52.000Z</time>
        <extensions>
          <ns3:TrackPointExtension>
            <ns3:hr>155</ns3:hr>
            <ns3:cad>84</ns3:cad>
          </ns3:TrackPointExtension>
        </extensions>
      </trkpt>
      <trkpt lat="47.53110408782958984375" lon="10.20161904394626617431640625">
        <ele>1407.800048828125</ele>
        <time>2026-09-01T07:34:54.000Z</time>
        <extensions>
          <ns3:TrackPointExtension>
            <ns3:hr>155</ns3:hr>
            <ns3:cad>85</ns3:cad>
          </ns3:TrackPointExtension>
        </extensions>
      </trkpt>
      <trkpt lat="47.53108464181423187255859375" lon="10.2015716023743152618408203125">
        <ele>1408.4000244140625</ele>
        <time>2026-09-01T07:34:56.000Z</time>
        <extensions>
          <ns3:TrackPointExtension>
            <ns3:hr>155</ns3:hr>
            <ns3:cad>87</ns3:cad>
          </ns3:TrackPointExtension>
        </extensions>
      </trkpt>
      <trkpt lat="47.531074918806552886962890625" lon="10.20155475474894046783447265625">
        <ele>1409</ele>
        <time>2026-09-01T07:34:57.000Z</time>
        <extensions>
          <ns3:TrackPointExtension>
            <ns3:hr>155</ns3:hr>
            <ns3:cad>87</ns3:cad>
          </ns3:TrackPointExtension>
        </extensions>
      </trkpt>
      <trkpt lat="47.53106980584561824798583984375" lon="10.20147311501204967498779296875">
        <ele>1410</ele>
        <time>2026-09-01T07:35:00.000Z</time>
        <extensions>
          <ns3:TrackPointExtension>
            <ns3:hr>158</ns3:hr>
            <ns3:cad>87</ns3:cad>
          </ns3:TrackPointExtension>
        </extensions>
      </trkpt>
      <trkpt lat="47.5310663692653179168701171875" lon="10.20142449997365474700927734375">
        <ele>1411</ele>
        <time>2026-09-01T07:35:03.000Z</time>
        <extensions>
          <ns3:TrackPointExtension>
            <ns3:hr>159</ns3:hr>
            <ns3:cad>87</ns3:cad>
          </ns3:TrackPointExtension>
        </extensions>
      </trkpt>
      <trkpt lat="47.53105840645730495452880859375" lon="10.20136892795562744140625">
        <ele>1412.199951171875</ele>
        <time>2026-09-01T07:35:06.000Z</time>
        <extensions>
          <ns3:TrackPointExtension>
            <ns3:hr>160</ns3:hr>
            <ns3:cad>87</ns3:cad>
          </ns3:TrackPointExtension>
        </extensions>
      </trkpt>
      <trkpt lat="47.53105673007667064666748046875" lon="10.20135627128183841705322265625">
        <ele>1412.5999755859375</ele>
        <time>2026-09-01T07:35:07.000Z</time>
        <extensions>
          <ns3:TrackPointExtension>
            <ns3:hr>161</ns3:hr>
            <ns3:cad>87</ns3:cad>
          </ns3:TrackPointExtension>
        </extensions>
      </trkpt>
      <trkpt lat="47.53105086274445056915283203125" lon="10.20133196376264095306396484375">
        <ele>1413.800048828125</ele>
        <time>2026-09-01T07:35:09.000Z</time>
        <extensions>
          <ns3:TrackPointExtension>
            <ns3:hr>161</ns3:hr>
            <ns3:cad>15</ns3:cad>
          </ns3:TrackPointExtension>
        </extensions>
      </trkpt>
      <trkpt lat="47.5310382060706615447998046875" lon="10.20129583775997161865234375">
        <ele>1414.800048828125</ele>
        <time>2026-09-01T07:35:11.000Z</time>
        <extensions>
          <ns3:TrackPointExtension>
            <ns3:hr>162</ns3:hr>
            <ns3:cad>0</ns3:cad>
          </ns3:TrackPointExtension>
        </extensions>
      </trkpt>
      <trkpt lat="47.53101532347500324249267578125" lon="10.201272033154964447021484375">
        <ele>1415.5999755859375</ele>
        <time>2026-09-01T07:35:13.000Z</time>
        <extensions>
          <ns3:TrackPointExtension>
            <ns3:hr>161</ns3:hr>
            <ns3:cad>0</ns3:cad>
          </ns3:TrackPointExtension>
        </extensions>
      </trkpt>
      <trkpt lat="47.5309954583644866943359375" lon="10.20126792602241039276123046875">
        <ele>1416</ele>
        <time>2026-09-01T07:35:14.000Z</time>
        <extensions>
          <ns3:TrackPointExtension>
            <ns3:hr>161</ns3:hr>
            <ns3:cad>0</ns3:cad>
          </ns3:TrackPointExtension>
        </extensions>
      </trkpt>
      <trkpt lat="47.530968971550464630126953125" lon="10.20126474089920520782470703125">
        <ele>1416.800048828125</ele>
        <time>2026-09-01T07:35:16.000Z</time>
        <extensions>
          <ns3:TrackPointExtension>
            <ns3:hr>161</ns3:hr>
            <ns3:cad>0</ns3:cad>
          </ns3:TrackPointExtension>
        </extensions>
      </trkpt>
      <trkpt lat="47.53095589578151702880859375" lon="10.201263986527919769287109375">
        <ele>1417.199951171875</ele>
        <time>2026-09-01T07:35:17.000Z</time>
        <extensions>
          <ns3:TrackPointExtension>
            <ns3:hr>162</ns3:hr>
            <ns3:cad>0</ns3:cad>
          </ns3:TrackPointExtension>
        </extensions>
      </trkpt>
      <trkpt lat="47.530936114490032196044921875" lon="10.2012483961880207061767578125">
        <ele>1418</ele>
        <time>2026-09-01T07:35:19.000Z</time>
        <extensions>
          <ns3:TrackPointExtension>
            <ns3:hr>162</ns3:hr>
            <ns3:cad>0</ns3:cad>
          </ns3:TrackPointExtension>
        </extensions>
      </trkpt>
      <trkpt lat="47.5309305824339389801025390625" lon="10.20123523660004138946533203125">
        <ele>1418.4000244140625</ele>
        <time>2026-09-01T07:35:20.000Z</time>
        <extensions>
          <ns3:TrackPointExtension>
            <ns3:hr>162</ns3:hr>
            <ns3:cad>0</ns3:cad>
          </ns3:TrackPointExtension>
        </extensions>
      </trkpt>
      <trkpt lat="47.53090484999120235443115234375" lon="10.20121696405112743377685546875">
        <ele>1418.800048828125</ele>
        <time>2026-09-01T07:35:22.000Z</time>
        <extensions>
          <ns3:TrackPointExtension>
            <ns3:hr>162</ns3:hr>
            <ns3:cad>0</ns3:cad>
          </ns3:TrackPointExtension>
        </extensions>
      </trkpt>
      <trkpt lat="47.5308853201568126678466796875" lon="10.201204977929592132568359375">
        <ele>1419.5999755859375</ele>
        <time>2026-09-01T07:35:24.000Z</time>
        <extensions>
          <ns3:TrackPointExtension>
            <ns3:hr>163</ns3:hr>
            <ns3:cad>0</ns3:cad>
          </ns3:TrackPointExtension>
        </extensions>
      </trkpt>
      <trkpt lat="47.53085531294345855712890625" lon="10.20116851665079593658447265625">
        <ele>1420.5999755859375</ele>
        <time>2026-09-01T07:35:27.000Z</time>
        <extensions>
          <ns3:TrackPointExtension>
            <ns3:hr>164</ns3:hr>
            <ns3:cad>0</ns3:cad>
          </ns3:TrackPointExtension>
        </extensions>
      </trkpt>
      <trkpt lat="47.53084466792643070220947265625" lon="10.20115108229219913482666015625">
        <ele>1420.800048828125</ele>
        <time>2026-09-01T07:35:28.000Z</time>
        <extensions>
          <ns3:TrackPointExtension>
            <ns3:hr>164</ns3:hr>
            <ns3:cad>0</ns3:cad>
          </ns3:TrackPointExtension>
        </extensions>
      </trkpt>
      <trkpt lat="47.53082354553043842315673828125" lon="10.20110003650188446044921875">
        <ele>1421.800048828125</ele>
        <time>2026-09-01T07:35:31.000Z</time>
        <extensions>
          <ns3:TrackPointExtension>
            <ns3:hr>165</ns3:hr>
            <ns3:cad>0</ns3:cad>
          </ns3:TrackPointExtension>
        </extensions>
      </trkpt>
      <trkpt lat="47.53081399016082286834716796875" lon="10.20107480697333812713623046875">
        <ele>1422</ele>
        <time>2026-09-01T07:35:32.000Z</time>
        <extensions>
          <ns3:TrackPointExtension>
            <ns3:hr>166</ns3:hr>
            <ns3:cad>0</ns3:cad>
          </ns3:TrackPointExtension>
        </extensions>
      </trkpt>
      <trkpt lat="47.53079856745898723602294921875" lon="10.2010137028992176055908203125">
        <ele>1423.199951171875</ele>
        <time>2026-09-01T07:35:35.000Z</time>
        <extensions>
          <ns3:TrackPointExtension>
            <ns3:hr>166</ns3:hr>
            <ns3:cad>0</ns3:cad>
          </ns3:TrackPointExtension>
        </extensions>
      </trkpt>
      <trkpt lat="47.530790269374847412109375" lon="10.20096517167985439300537109375">
        <ele>1424.4000244140625</ele>
        <time>2026-09-01T07:35:38.000Z</time>
        <extensions>
          <ns3:TrackPointExtension>
            <ns3:hr>166</ns3:hr>
            <ns3:cad>0</ns3:cad>
          </ns3:TrackPointExtension>
        </extensions>
      </trkpt>
      <trkpt lat="47.53079068847000598907470703125" lon="10.2009375952184200286865234375">
        <ele>1425.199951171875</ele>
        <time>2026-09-01T07:35:40.000Z</time>
        <extensions>
          <ns3:TrackPointExtension>
            <ns3:hr>166</ns3:hr>
            <ns3:cad>0</ns3:cad>
          </ns3:TrackPointExtension>
        </extensions>
      </trkpt>
      <trkpt lat="47.53078649751842021942138671875" lon="10.20091370679438114166259765625">
        <ele>1425.4000244140625</ele>
        <time>2026-09-01T07:35:41.000Z</time>
        <extensions>
          <ns3:TrackPointExtension>
            <ns3:hr>166</ns3:hr>
            <ns3:cad>0</ns3:cad>
          </ns3:TrackPointExtension>
        </extensions>
      </trkpt>
      <trkpt lat="47.53078348003327846527099609375" lon="10.20086894743144512176513671875">
        <ele>1426.800048828125</ele>
        <time>2026-09-01T07:35:44.000Z</time>
        <extensions>
          <ns3:TrackPointExtension>
            <ns3:hr>166</ns3:hr>
            <ns3:cad>0</ns3:cad>
          </ns3:TrackPointExtension>
        </extensions>
      </trkpt>
      <trkpt lat="47.530783228576183319091796875" lon="10.2008202485740184783935546875">
        <ele>1428.199951171875</ele>
        <time>2026-09-01T07:35:47.000Z</time>
        <extensions>
          <ns3:TrackPointExtension>
            <ns3:hr>166</ns3:hr>
            <ns3:cad>0</ns3:cad>
          </ns3:TrackPointExtension>
        </extensions>
      </trkpt>
      <trkpt lat="47.53078884445130825042724609375" lon="10.200810022652149200439453125">
        <ele>1428.5999755859375</ele>
        <time>2026-09-01T07:35:48.000Z</time>
        <extensions>
          <ns3:TrackPointExtension>
            <ns3:hr>166</ns3:hr>
            <ns3:cad>0</ns3:cad>
          </ns3:TrackPointExtension>
        </extensions>
      </trkpt>
      <trkpt lat="47.5307840667665004730224609375" lon="10.200788564980030059814453125">
        <ele>1429.5999755859375</ele>
        <time>2026-09-01T07:35:50.000Z</time>
        <extensions>
          <ns3:TrackPointExtension>
            <ns3:hr>166</ns3:hr>
            <ns3:cad>0</ns3:cad>
          </ns3:TrackPointExtension>
        </extensions>
      </trkpt>
      <trkpt lat="47.5307827256619930267333984375" lon="10.2007592283189296722412109375">
        <ele>1430.5999755859375</ele>
        <time>2026-09-01T07:35:52.000Z</time>
        <extensions>
          <ns3:TrackPointExtension>
            <ns3:hr>167</ns3:hr>
            <ns3:cad>0</ns3:cad>
          </ns3:TrackPointExtension>
        </extensions>
      </trkpt>
      <trkpt lat="47.53078012727200984954833984375" lon="10.2007535286247730255126953125">
        <ele>1430.800048828125</ele>
        <time>2026-09-01T07:35:53.000Z</time>
        <extensions>
          <ns3:TrackPointExtension>
            <ns3:hr>167</ns3:hr>
            <ns3:cad>0</ns3:cad>
          </ns3:TrackPointExtension>
        </extensions>
      </trkpt>
      <trkpt lat="47.53076537512242794036865234375" lon="10.20069099962711334228515625">
        <ele>1431.800048828125</ele>
        <time>2026-09-01T07:35:56.000Z</time>
        <extensions>
          <ns3:TrackPointExtension>
            <ns3:hr>168</ns3:hr>
            <ns3:cad>0</ns3:cad>
          </ns3:TrackPointExtension>
        </extensions>
      </trkpt>
      <trkpt lat="47.530761100351810455322265625" lon="10.20067800767719745635986328125">
        <ele>1432.199951171875</ele>
        <time>2026-09-01T07:35:57.000Z</time>
        <extensions>
          <ns3:TrackPointExtension>
            <ns3:hr>168</ns3:hr>
            <ns3:cad>0</ns3:cad>
          </ns3:TrackPointExtension>
        </extensions>
      </trkpt>
      <trkpt lat="47.530733607709407806396484375" lon="10.20063861273229122161865234375">
        <ele>1432.800048828125</ele>
        <time>2026-09-01T07:35:59.000Z</time>
        <extensions>
          <ns3:TrackPointExtension>
            <ns3:hr>168</ns3:hr>
            <ns3:cad>0</ns3:cad>
          </ns3:TrackPointExtension>
        </extensions>
      </trkpt>
      <trkpt lat="47.53071910701692104339599609375" lon="10.20063006319105625152587890625">
        <ele>1433.199951171875</ele>
        <time>2026-09-01T07:36:00.000Z</time>
        <extensions>
          <ns3:TrackPointExtension>
            <ns3:hr>168</ns3:hr>
            <ns3:cad>0</ns3:cad>
          </ns3:TrackPointExtension>
        </extensions>
      </trkpt>
      <trkpt lat="47.5306787900626659393310546875" lon="10.20059041678905487060546875">
        <ele>1434.4000244140625</ele>
        <time>2026-09-01T07:36:04.000Z</time>
        <extensions>
          <ns3:TrackPointExtension>
            <ns3:hr>167</ns3:hr>
            <ns3:cad>0</ns3:cad>
          </ns3:TrackPointExtension>
        </extensions>
      </trkpt>
      <trkpt lat="47.53064098767936229705810546875" lon="10.2005481719970703125">
        <ele>1435.4000244140625</ele>
        <time>2026-09-01T07:36:07.000Z</time>
        <extensions>
          <ns3:TrackPointExtension>
            <ns3:hr>167</ns3:hr>
            <ns3:cad>0</ns3:cad>
          </ns3:TrackPointExtension>
        </extensions>
      </trkpt>
      <trkpt lat="47.53062120638787746429443359375" lon="10.2005221880972385406494140625">
        <ele>1436.199951171875</ele>
        <time>2026-09-01T07:36:09.000Z</time>
        <extensions>
          <ns3:TrackPointExtension>
            <ns3:hr>167</ns3:hr>
            <ns3:cad>0</ns3:cad>
          </ns3:TrackPointExtension>
        </extensions>
      </trkpt>
      <trkpt lat="47.5306211225688457489013671875" lon="10.2005253732204437255859375">
        <ele>1436.5999755859375</ele>
        <time>2026-09-01T07:36:10.000Z</time>
        <extensions>
          <ns3:TrackPointExtension>
            <ns3:hr>167</ns3:hr>
            <ns3:cad>0</ns3:cad>
          </ns3:TrackPointExtension>
        </extensions>
      </trkpt>
      <trkpt lat="47.530626319348812103271484375" lon="10.200509615242481231689453125">
        <ele>1437</ele>
        <time>2026-09-01T07:36:11.000Z</time>
        <extensions>
          <ns3:TrackPointExtension>
            <ns3:hr>167</ns3:hr>
            <ns3:cad>0</ns3:cad>
          </ns3:TrackPointExtension>
        </extensions>
      </trkpt>
      <trkpt lat="47.53062942065298557281494140625" lon="10.20049662329256534576416015625">
        <ele>1437.199951171875</ele>
        <time>2026-09-01T07:36:12.000Z</time>
        <extensions>
          <ns3:TrackPointExtension>
            <ns3:hr>167</ns3:hr>
            <ns3:cad>41</ns3:cad>
          </ns3:TrackPointExtension>
        </extensions>
      </trkpt>
      <trkpt lat="47.53065020777285099029541015625" lon="10.20046032965183258056640625">
        <ele>1437.800048828125</ele>
        <time>2026-09-01T07:36:14.000Z</time>
        <extensions>
          <ns3:TrackPointExtension>
            <ns3:hr>166</ns3:hr>
            <ns3:cad>0</ns3:cad>
          </ns3:TrackPointExtension>
        </extensions>
      </trkpt>
      <trkpt lat="47.530670575797557830810546875" lon="10.2004524506628513336181640625">
        <ele>1438.5999755859375</ele>
        <time>2026-09-01T07:36:16.000Z</time>
        <extensions>
          <ns3:TrackPointExtension>
            <ns3:hr>166</ns3:hr>
            <ns3:cad>0</ns3:cad>
          </ns3:TrackPointExtension>
        </extensions>
      </trkpt>
      <trkpt lat="47.5306771136820316314697265625" lon="10.2004400454461574554443359375">
        <ele>1439</ele>
        <time>2026-09-01T07:36:17.000Z</time>
        <extensions>
          <ns3:TrackPointExtension>
            <ns3:hr>166</ns3:hr>
            <ns3:cad>0</ns3:cad>
          </ns3:TrackPointExtension>
        </extensions>
      </trkpt>
      <trkpt lat="47.53067962825298309326171875" lon="10.2004065178334712982177734375">
        <ele>1440.4000244140625</ele>
        <time>2026-09-01T07:36:20.000Z</time>
        <extensions>
          <ns3:TrackPointExtension>
            <ns3:hr>167</ns3:hr>
            <ns3:cad>0</ns3:cad>
          </ns3:TrackPointExtension>
        </extensions>
      </trkpt>
      <trkpt lat="47.53066864795982837677001953125" lon="10.20037022419273853302001953125">
        <ele>1441.5999755859375</ele>
        <time>2026-09-01T07:36:23.000Z</time>
        <extensions>
          <ns3:TrackPointExtension>
            <ns3:hr>167</ns3:hr>
            <ns3:cad>0</ns3:cad>
          </ns3:TrackPointExtension>
        </extensions>
      </trkpt>
      <trkpt lat="47.53065959550440311431884765625" lon="10.20035329274833202362060546875">
        <ele>1442.4000244140625</ele>
        <time>2026-09-01T07:36:25.000Z</time>
        <extensions>
          <ns3:TrackPointExtension>
            <ns3:hr>167</ns3:hr>
            <ns3:cad>0</ns3:cad>
          </ns3:TrackPointExtension>
        </extensions>
      </trkpt>
      <trkpt lat="47.5306563265621662139892578125" lon="10.2003448270261287689208984375">
        <ele>1442.800048828125</ele>
        <time>2026-09-01T07:36:26.000Z</time>
        <extensions>
          <ns3:TrackPointExtension>
            <ns3:hr>167</ns3:hr>
            <ns3:cad>0</ns3:cad>
          </ns3:TrackPointExtension>
        </extensions>
      </trkpt>
      <trkpt lat="47.53063528798520565032958984375" lon="10.20031088031828403472900390625">
        <ele>1444</ele>
        <time>2026-09-01T07:36:29.000Z</time>
        <extensions>
          <ns3:TrackPointExtension>
            <ns3:hr>167</ns3:hr>
            <ns3:cad>0</ns3:cad>
          </ns3:TrackPointExtension>
        </extensions>
      </trkpt>
      <trkpt lat="47.53061198629438877105712890625" lon="10.2002683840692043304443359375">
        <ele>1445</ele>
        <time>2026-09-01T07:36:32.000Z</time>
        <extensions>
          <ns3:TrackPointExtension>
            <ns3:hr>167</ns3:hr>
            <ns3:cad>0</ns3:cad>
          </ns3:TrackPointExtension>
        </extensions>
      </trkpt>
      <trkpt lat="47.53061014227569103240966796875" lon="10.20024240016937255859375">
        <ele>1445.800048828125</ele>
        <time>2026-09-01T07:36:34.000Z</time>
        <extensions>
          <ns3:TrackPointExtension>
            <ns3:hr>167</ns3:hr>
            <ns3:cad>0</ns3:cad>
          </ns3:TrackPointExtension>
        </extensions>
      </trkpt>
      <trkpt lat="47.5306117348372936248779296875" lon="10.2002368681132793426513671875">
        <ele>1446.199951171875</ele>
        <time>2026-09-01T07:36:35.000Z</time>
        <extensions>
          <ns3:TrackPointExtension>
            <ns3:hr>168</ns3:hr>
            <ns3:cad>0</ns3:cad>
          </ns3:TrackPointExtension>
        </extensions>
      </trkpt>
      <trkpt lat="47.530610561370849609375" lon="10.20018598996102809906005859375">
        <ele>1447.4000244140625</ele>
        <time>2026-09-01T07:36:38.000Z</time>
        <extensions>
          <ns3:TrackPointExtension>
            <ns3:hr>167</ns3:hr>
            <ns3:cad>0</ns3:cad>
          </ns3:TrackPointExtension>
        </extensions>
      </trkpt>
      <trkpt lat="47.530620954930782318115234375" lon="10.20017676986753940582275390625">
        <ele>1448.199951171875</ele>
        <time>2026-09-01T07:36:40.000Z</time>
        <extensions>
          <ns3:TrackPointExtension>
            <ns3:hr>167</ns3:hr>
            <ns3:cad>0</ns3:cad>
          </ns3:TrackPointExtension>
        </extensions>
      </trkpt>
      <trkpt lat="47.530631013214588165283203125" lon="10.2001701481640338897705078125">
        <ele>1448.800048828125</ele>
        <time>2026-09-01T07:36:41.000Z</time>
        <extensions>
          <ns3:TrackPointExtension>
            <ns3:hr>167</ns3:hr>
            <ns3:cad>0</ns3:cad>
          </ns3:TrackPointExtension>
        </extensions>
      </trkpt>
      <trkpt lat="47.5306308455765247344970703125" lon="10.2001661248505115509033203125">
        <ele>1449.5999755859375</ele>
        <time>2026-09-01T07:36:43.000Z</time>
        <extensions>
          <ns3:TrackPointExtension>
            <ns3:hr>167</ns3:hr>
            <ns3:cad>0</ns3:cad>
          </ns3:TrackPointExtension>
        </extensions>
      </trkpt>
      <trkpt lat="47.5306271575391292572021484375" lon="10.20011700689792633056640625">
        <ele>1449.800048828125</ele>
        <time>2026-09-01T07:36:46.000Z</time>
        <extensions>
          <ns3:TrackPointExtension>
            <ns3:hr>166</ns3:hr>
            <ns3:cad>0</ns3:cad>
          </ns3:TrackPointExtension>
        </extensions>
      </trkpt>
      <trkpt lat="47.53062036819756031036376953125" lon="10.200093202292919158935546875">
        <ele>1450</ele>
        <time>2026-09-01T07:36:47.000Z</time>
        <extensions>
          <ns3:TrackPointExtension>
            <ns3:hr>166</ns3:hr>
            <ns3:cad>0</ns3:cad>
          </ns3:TrackPointExtension>
        </extensions>
      </trkpt>
      <trkpt lat="47.53061927855014801025390625" lon="10.20006612874567508697509765625">
        <ele>1451.199951171875</ele>
        <time>2026-09-01T07:36:50.000Z</time>
        <extensions>
          <ns3:TrackPointExtension>
            <ns3:hr>166</ns3:hr>
            <ns3:cad>0</ns3:cad>
          </ns3:TrackPointExtension>
        </extensions>
      </trkpt>
      <trkpt lat="47.53061969764530658721923828125" lon="10.2000340260565280914306640625">
        <ele>1452.4000244140625</ele>
        <time>2026-09-01T07:36:52.000Z</time>
        <extensions>
          <ns3:TrackPointExtension>
            <ns3:hr>165</ns3:hr>
            <ns3:cad>0</ns3:cad>
          </ns3:TrackPointExtension>
        </extensions>
      </trkpt>
      <trkpt lat="47.5306023471057415008544921875" lon="10.199981220066547393798828125">
        <ele>1453.800048828125</ele>
        <time>2026-09-01T07:36:55.000Z</time>
        <extensions>
          <ns3:TrackPointExtension>
            <ns3:hr>166</ns3:hr>
            <ns3:cad>0</ns3:cad>
          </ns3:TrackPointExtension>
        </extensions>
      </trkpt>
      <trkpt lat="47.5305983237922191619873046875" lon="10.19997426308691501617431640625">
        <ele>1454.199951171875</ele>
        <time>2026-09-01T07:36:56.000Z</time>
        <extensions>
          <ns3:TrackPointExtension>
            <ns3:hr>166</ns3:hr>
            <ns3:cad>0</ns3:cad>
          </ns3:TrackPointExtension>
        </extensions>
      </trkpt>
      <trkpt lat="47.5305818952620029449462890625" lon="10.19993461668491363525390625">
        <ele>1454.800048828125</ele>
        <time>2026-09-01T07:36:58.000Z</time>
        <extensions>
          <ns3:TrackPointExtension>
            <ns3:hr>167</ns3:hr>
            <ns3:cad>0</ns3:cad>
          </ns3:TrackPointExtension>
        </extensions>
      </trkpt>
      <trkpt lat="47.53056990914046764373779296875" lon="10.1998928748071193695068359375">
        <ele>1455.4000244140625</ele>
        <time>2026-09-01T07:37:00.000Z</time>
        <extensions>
          <ns3:TrackPointExtension>
            <ns3:hr>167</ns3:hr>
            <ns3:cad>0</ns3:cad>
          </ns3:TrackPointExtension>
        </extensions>
      </trkpt>
      <trkpt lat="47.53055616281926631927490234375" lon="10.19985255785286426544189453125">
        <ele>1456</ele>
        <time>2026-09-01T07:37:02.000Z</time>
        <extensions>
          <ns3:TrackPointExtension>
            <ns3:hr>168</ns3:hr>
            <ns3:cad>0</ns3:cad>
          </ns3:TrackPointExtension>
        </extensions>
      </trkpt>
      <trkpt lat="47.53054241649806499481201171875" lon="10.19980126060545444488525390625">
        <ele>1457.199951171875</ele>
        <time>2026-09-01T07:37:05.000Z</time>
        <extensions>
          <ns3:TrackPointExtension>
            <ns3:hr>168</ns3:hr>
            <ns3:cad>0</ns3:cad>
          </ns3:TrackPointExtension>
        </extensions>
      </trkpt>
      <trkpt lat="47.53053604625165462493896484375" lon="10.199794135987758636474609375">
        <ele>1457.5999755859375</ele>
        <time>2026-09-01T07:37:06.000Z</time>
        <extensions>
          <ns3:TrackPointExtension>
            <ns3:hr>169</ns3:hr>
            <ns3:cad>0</ns3:cad>
          </ns3:TrackPointExtension>
        </extensions>
      </trkpt>
      <trkpt lat="47.53051735460758209228515625" lon="10.19978466443717479705810546875">
        <ele>1458.4000244140625</ele>
        <time>2026-09-01T07:37:08.000Z</time>
        <extensions>
          <ns3:TrackPointExtension>
            <ns3:hr>169</ns3:hr>
            <ns3:cad>0</ns3:cad>
          </ns3:TrackPointExtension>
        </extensions>
      </trkpt>
      <trkpt lat="47.5304886884987354278564453125" lon="10.19974677823483943939208984375">
        <ele>1459.199951171875</ele>
        <time>2026-09-01T07:37:11.000Z</time>
        <extensions>
          <ns3:TrackPointExtension>
            <ns3:hr>168</ns3:hr>
            <ns3:cad>0</ns3:cad>
          </ns3:TrackPointExtension>
        </extensions>
      </trkpt>
      <trkpt lat="47.53048156388103961944580078125" lon="10.19972833804786205291748046875">
        <ele>1459.5999755859375</ele>
        <time>2026-09-01T07:37:12.000Z</time>
        <extensions>
          <ns3:TrackPointExtension>
            <ns3:hr>168</ns3:hr>
            <ns3:cad>0</ns3:cad>
          </ns3:TrackPointExtension>
        </extensions>
      </trkpt>
      <trkpt lat="47.5304722599685192108154296875" lon="10.19967821426689624786376953125">
        <ele>1460.800048828125</ele>
        <time>2026-09-01T07:37:15.000Z</time>
        <extensions>
          <ns3:TrackPointExtension>
            <ns3:hr>168</ns3:hr>
            <ns3:cad>0</ns3:cad>
          </ns3:TrackPointExtension>
        </extensions>
      </trkpt>
      <trkpt lat="47.53046429716050624847412109375" lon="10.199635885655879974365234375">
        <ele>1462</ele>
        <time>2026-09-01T07:37:18.000Z</time>
        <extensions>
          <ns3:TrackPointExtension>
            <ns3:hr>168</ns3:hr>
            <ns3:cad>0</ns3:cad>
          </ns3:TrackPointExtension>
        </extensions>
      </trkpt>
      <trkpt lat="47.53046010620892047882080078125" lon="10.19962239079177379608154296875">
        <ele>1462.4000244140625</ele>
        <time>2026-09-01T07:37:19.000Z</time>
        <extensions>
          <ns3:TrackPointExtension>
            <ns3:hr>168</ns3:hr>
            <ns3:cad>0</ns3:cad>
          </ns3:TrackPointExtension>
        </extensions>
      </trkpt>
      <trkpt lat="47.53044753335416316986083984375" lon="10.19957578741014003753662109375">
        <ele>1463.199951171875</ele>
        <time>2026-09-01T07:37:21.000Z</time>
        <extensions>
          <ns3:TrackPointExtension>
            <ns3:hr>167</ns3:hr>
            <ns3:cad>0</ns3:cad>
          </ns3:TrackPointExtension>
        </extensions>
      </trkpt>
      <trkpt lat="47.53042071126401424407958984375" lon="10.19951828755438327789306640625">
        <ele>1464.4000244140625</ele>
        <time>2026-09-01T07:37:24.000Z</time>
        <extensions>
          <ns3:TrackPointExtension>
            <ns3:hr>167</ns3:hr>
            <ns3:cad>0</ns3:cad>
          </ns3:TrackPointExtension>
        </extensions>
      </trkpt>
      <trkpt lat="47.530397661030292510986328125" lon="10.1994627155363559722900390625">
        <ele>1465.5999755859375</ele>
        <time>2026-09-01T07:37:27.000Z</time>
        <extensions>
          <ns3:TrackPointExtension>
            <ns3:hr>167</ns3:hr>
            <ns3:cad>0</ns3:cad>
          </ns3:TrackPointExtension>
        </extensions>
      </trkpt>
      <trkpt lat="47.53038726747035980224609375" lon="10.19943815656006336212158203125">
        <ele>1466.800048828125</ele>
        <time>2026-09-01T07:37:30.000Z</time>
        <extensions>
          <ns3:TrackPointExtension>
            <ns3:hr>168</ns3:hr>
            <ns3:cad>0</ns3:cad>
          </ns3:TrackPointExtension>
        </extensions>
      </trkpt>
      <trkpt lat="47.5303894467651844024658203125" lon="10.19942088983952999114990234375">
        <ele>1467.199951171875</ele>
        <time>2026-09-01T07:37:31.000Z</time>
        <extensions>
          <ns3:TrackPointExtension>
            <ns3:hr>167</ns3:hr>
            <ns3:cad>0</ns3:cad>
          </ns3:TrackPointExtension>
        </extensions>
      </trkpt>
      <trkpt lat="47.5303894467651844024658203125" lon="10.1993973366916179656982421875">
        <ele>1468</ele>
        <time>2026-09-01T07:37:33.000Z</time>
        <extensions>
          <ns3:TrackPointExtension>
            <ns3:hr>167</ns3:hr>
            <ns3:cad>0</ns3:cad>
          </ns3:TrackPointExtension>
        </extensions>
      </trkpt>
      <trkpt lat="47.530384249985218048095703125" lon="10.19937043078243732452392578125">
        <ele>1468.5999755859375</ele>
        <time>2026-09-01T07:37:35.000Z</time>
        <extensions>
          <ns3:TrackPointExtension>
            <ns3:hr>168</ns3:hr>
            <ns3:cad>0</ns3:cad>
          </ns3:TrackPointExtension>
        </extensions>
      </trkpt>
      <trkpt lat="47.53038165159523487091064453125" lon="10.19936087541282176971435546875">
        <ele>1469</ele>
        <time>2026-09-01T07:37:36.000Z</time>
        <extensions>
          <ns3:TrackPointExtension>
            <ns3:hr>168</ns3:hr>
            <ns3:cad>0</ns3:cad>
          </ns3:TrackPointExtension>
        </extensions>
      </trkpt>
      <trkpt lat="47.53036606125533580780029296875" lon="10.19929851405322551727294921875">
        <ele>1469.800048828125</ele>
        <time>2026-09-01T07:37:39.000Z</time>
        <extensions>
          <ns3:TrackPointExtension>
            <ns3:hr>168</ns3:hr>
            <ns3:cad>0</ns3:cad>
          </ns3:TrackPointExtension>
        </extensions>
      </trkpt>
      <trkpt lat="47.53036119975149631500244140625" lon="10.1992915570735931396484375">
        <ele>1470.199951171875</ele>
        <time>2026-09-01T07:37:40.000Z</time>
        <extensions>
          <ns3:TrackPointExtension>
            <ns3:hr>168</ns3:hr>
            <ns3:cad>0</ns3:cad>
          </ns3:TrackPointExtension>
        </extensions>
      </trkpt>
      <trkpt lat="47.53034510649740695953369140625" lon="10.1992353983223438262939453125">
        <ele>1471</ele>
        <time>2026-09-01T07:37:43.000Z</time>
        <extensions>
          <ns3:TrackPointExtension>
            <ns3:hr>167</ns3:hr>
            <ns3:cad>0</ns3:cad>
          </ns3:TrackPointExtension>
        </extensions>
      </trkpt>
      <trkpt lat="47.53034007735550403594970703125" lon="10.19921846687793731689453125">
        <ele>1471.199951171875</ele>
        <time>2026-09-01T07:37:44.000Z</time>
        <extensions>
          <ns3:TrackPointExtension>
            <ns3:hr>167</ns3:hr>
            <ns3:cad>0</ns3:cad>
          </ns3:TrackPointExtension>
        </extensions>
      </trkpt>
      <trkpt lat="47.53032264299690723419189453125" lon="10.1991535909473896026611328125">
        <ele>1472.199951171875</ele>
        <time>2026-09-01T07:37:47.000Z</time>
        <extensions>
          <ns3:TrackPointExtension>
            <ns3:hr>167</ns3:hr>
            <ns3:cad>0</ns3:cad>
          </ns3:TrackPointExtension>
        </extensions>
      </trkpt>
      <trkpt lat="47.5302989222109317779541015625" lon="10.1991314627230167388916015625">
        <ele>1473</ele>
        <time>2026-09-01T07:37:49.000Z</time>
        <extensions>
          <ns3:TrackPointExtension>
            <ns3:hr>166</ns3:hr>
            <ns3:cad>0</ns3:cad>
          </ns3:TrackPointExtension>
        </extensions>
      </trkpt>
      <trkpt lat="47.53027855418622493743896484375" lon="10.1991334743797779083251953125">
        <ele>1473.199951171875</ele>
        <time>2026-09-01T07:37:50.000Z</time>
        <extensions>
          <ns3:TrackPointExtension>
            <ns3:hr>166</ns3:hr>
            <ns3:cad>0</ns3:cad>
          </ns3:TrackPointExtension>
        </extensions>
      </trkpt>
      <trkpt lat="47.53024267964065074920654296875" lon="10.1991224102675914764404296875">
        <ele>1473.800048828125</ele>
        <time>2026-09-01T07:37:53.000Z</time>
        <extensions>
          <ns3:TrackPointExtension>
            <ns3:hr>166</ns3:hr>
            <ns3:cad>0</ns3:cad>
          </ns3:TrackPointExtension>
        </extensions>
      </trkpt>
      <trkpt lat="47.5302271731197834014892578125" lon="10.1991016231477260589599609375">
        <ele>1474.5999755859375</ele>
        <time>2026-09-01T07:37:55.000Z</time>
        <extensions>
          <ns3:TrackPointExtension>
            <ns3:hr>165</ns3:hr>
            <ns3:cad>16</ns3:cad>
          </ns3:TrackPointExtension>
        </extensions>
      </trkpt>
      <trkpt lat="47.53023882396519184112548828125" lon="10.19907220266759395599365234375">
        <ele>1476</ele>
        <time>2026-09-01T07:37:58.000Z</time>
        <extensions>
          <ns3:TrackPointExtension>
            <ns3:hr>165</ns3:hr>
            <ns3:cad>16</ns3:cad>
          </ns3:TrackPointExtension>
        </extensions>
      </trkpt>
      <trkpt lat="47.530249468982219696044921875" lon="10.19904873333871364593505859375">
        <ele>1477</ele>
        <time>2026-09-01T07:38:01.000Z</time>
        <extensions>
          <ns3:TrackPointExtension>
            <ns3:hr>165</ns3:hr>
            <ns3:cad>0</ns3:cad>
          </ns3:TrackPointExtension>
        </extensions>
      </trkpt>
      <trkpt lat="47.5302498042583465576171875" lon="10.1990231685340404510498046875">
        <ele>1477.4000244140625</ele>
        <time>2026-09-01T07:38:02.000Z</time>
        <extensions>
          <ns3:TrackPointExtension>
            <ns3:hr>165</ns3:hr>
            <ns3:cad>0</ns3:cad>
          </ns3:TrackPointExtension>
        </extensions>
      </trkpt>
      <trkpt lat="47.53024267964065074920654296875" lon="10.19900380633771419525146484375">
        <ele>1478.199951171875</ele>
        <time>2026-09-01T07:38:04.000Z</time>
        <extensions>
          <ns3:TrackPointExtension>
            <ns3:hr>164</ns3:hr>
            <ns3:cad>0</ns3:cad>
          </ns3:TrackPointExtension>
        </extensions>
      </trkpt>
      <trkpt lat="47.53023697994649410247802734375" lon="10.19897229038178920745849609375">
        <ele>1479</ele>
        <time>2026-09-01T07:38:06.000Z</time>
        <extensions>
          <ns3:TrackPointExtension>
            <ns3:hr>164</ns3:hr>
            <ns3:cad>0</ns3:cad>
          </ns3:TrackPointExtension>
        </extensions>
      </trkpt>
      <trkpt lat="47.5302335433661937713623046875" lon="10.198961980640888214111328125">
        <ele>1479.4000244140625</ele>
        <time>2026-09-01T07:38:07.000Z</time>
        <extensions>
          <ns3:TrackPointExtension>
            <ns3:hr>164</ns3:hr>
            <ns3:cad>0</ns3:cad>
          </ns3:TrackPointExtension>
        </extensions>
      </trkpt>
      <trkpt lat="47.53022742457687854766845703125" lon="10.1989209093153476715087890625">
        <ele>1480.5999755859375</ele>
        <time>2026-09-01T07:38:10.000Z</time>
        <extensions>
          <ns3:TrackPointExtension>
            <ns3:hr>165</ns3:hr>
            <ns3:cad>0</ns3:cad>
          </ns3:TrackPointExtension>
        </extensions>
      </trkpt>
      <trkpt lat="47.53021636046469211578369140625" lon="10.19889526069164276123046875">
        <ele>1481.4000244140625</ele>
        <time>2026-09-01T07:38:12.000Z</time>
        <extensions>
          <ns3:TrackPointExtension>
            <ns3:hr>164</ns3:hr>
            <ns3:cad>0</ns3:cad>
          </ns3:TrackPointExtension>
        </extensions>
      </trkpt>
      <trkpt lat="47.53020814619958400726318359375" lon="10.19887858070433139801025390625">
        <ele>1481.5999755859375</ele>
        <time>2026-09-01T07:38:13.000Z</time>
        <extensions>
          <ns3:TrackPointExtension>
            <ns3:hr>164</ns3:hr>
            <ns3:cad>0</ns3:cad>
          </ns3:TrackPointExtension>
        </extensions>
      </trkpt>
      <trkpt lat="47.530164979398250579833984375" lon="10.198825858533382415771484375">
        <ele>1482.800048828125</ele>
        <time>2026-09-01T07:38:17.000Z</time>
        <extensions>
          <ns3:TrackPointExtension>
            <ns3:hr>164</ns3:hr>
            <ns3:cad>0</ns3:cad>
          </ns3:TrackPointExtension>
        </extensions>
      </trkpt>
      <trkpt lat="47.5301597826182842254638671875" lon="10.19881345331668853759765625">
        <ele>1483</ele>
        <time>2026-09-01T07:38:18.000Z</time>
        <extensions>
          <ns3:TrackPointExtension>
            <ns3:hr>164</ns3:hr>
            <ns3:cad>0</ns3:cad>
          </ns3:TrackPointExtension>
        </extensions>
      </trkpt>
      <trkpt lat="47.5301473774015903472900390625" lon="10.1987549476325511932373046875">
        <ele>1483.800048828125</ele>
        <time>2026-09-01T07:38:21.000Z</time>
        <extensions>
          <ns3:TrackPointExtension>
            <ns3:hr>164</ns3:hr>
            <ns3:cad>0</ns3:cad>
          </ns3:TrackPointExtension>
        </extensions>
      </trkpt>
      <trkpt lat="47.53014184534549713134765625" lon="10.1986795105040073394775390625">
        <ele>1484.5999755859375</ele>
        <time>2026-09-01T07:38:24.000Z</time>
        <extensions>
          <ns3:TrackPointExtension>
            <ns3:hr>163</ns3:hr>
            <ns3:cad>0</ns3:cad>
          </ns3:TrackPointExtension>
        </extensions>
      </trkpt>
      <trkpt lat="47.53014452755451202392578125" lon="10.19865126349031925201416015625">
        <ele>1485</ele>
        <time>2026-09-01T07:38:25.000Z</time>
        <extensions>
          <ns3:TrackPointExtension>
            <ns3:hr>163</ns3:hr>
            <ns3:cad>0</ns3:cad>
          </ns3:TrackPointExtension>
        </extensions>
      </trkpt>
      <trkpt lat="47.53015265800058841705322265625" lon="10.19861354492604732513427734375">
        <ele>1486.199951171875</ele>
        <time>2026-09-01T07:38:28.000Z</time>
        <extensions>
          <ns3:TrackPointExtension>
            <ns3:hr>163</ns3:hr>
            <ns3:cad>0</ns3:cad>
          </ns3:TrackPointExtension>
        </extensions>
      </trkpt>
      <trkpt lat="47.53016062080860137939453125" lon="10.1986087672412395477294921875">
        <ele>1486.800048828125</ele>
        <time>2026-09-01T07:38:29.000Z</time>
        <extensions>
          <ns3:TrackPointExtension>
            <ns3:hr>163</ns3:hr>
            <ns3:cad>0</ns3:cad>
          </ns3:TrackPointExtension>
        </extensions>
      </trkpt>
      <trkpt lat="47.53017076291143894195556640625" lon="10.19861354492604732513427734375">
        <ele>1487.5999755859375</ele>
        <time>2026-09-01T07:38:31.000Z</time>
        <extensions>
          <ns3:TrackPointExtension>
            <ns3:hr>163</ns3:hr>
            <ns3:cad>0</ns3:cad>
          </ns3:TrackPointExtension>
        </extensions>
      </trkpt>
      <trkpt lat="47.53020077012479305267333984375" lon="10.1985849626362323760986328125">
        <ele>1488.5999755859375</ele>
        <time>2026-09-01T07:38:34.000Z</time>
        <extensions>
          <ns3:TrackPointExtension>
            <ns3:hr>164</ns3:hr>
            <ns3:cad>0</ns3:cad>
          </ns3:TrackPointExtension>
        </extensions>
      </trkpt>
      <trkpt lat="47.5301956571638584136962890625" lon="10.19852888770401477813720703125">
        <ele>1489.800048828125</ele>
        <time>2026-09-01T07:38:37.000Z</time>
        <extensions>
          <ns3:TrackPointExtension>
            <ns3:hr>165</ns3:hr>
            <ns3:cad>0</ns3:cad>
          </ns3:TrackPointExtension>
        </extensions>
      </trkpt>
      <trkpt lat="47.53019188530743122100830078125" lon="10.19850458018481731414794921875">
        <ele>1490.199951171875</ele>
        <time>2026-09-01T07:38:38.000Z</time>
        <extensions>
          <ns3:TrackPointExtension>
            <ns3:hr>165</ns3:hr>
            <ns3:cad>0</ns3:cad>
          </ns3:TrackPointExtension>
        </extensions>
      </trkpt>
      <trkpt lat="47.53019037656486034393310546875" lon="10.19845135509967803955078125">
        <ele>1491.199951171875</ele>
        <time>2026-09-01T07:38:41.000Z</time>
        <extensions>
          <ns3:TrackPointExtension>
            <ns3:hr>165</ns3:hr>
            <ns3:cad>0</ns3:cad>
          </ns3:TrackPointExtension>
        </extensions>
      </trkpt>
      <trkpt lat="47.5302040390670299530029296875" lon="10.198412127792835235595703125">
        <ele>1491.800048828125</ele>
        <time>2026-09-01T07:38:43.000Z</time>
        <extensions>
          <ns3:TrackPointExtension>
            <ns3:hr>165</ns3:hr>
            <ns3:cad>0</ns3:cad>
          </ns3:TrackPointExtension>
        </extensions>
      </trkpt>
      <trkpt lat="47.53021518699824810028076171875" lon="10.198378600180149078369140625">
        <ele>1492.4000244140625</ele>
        <time>2026-09-01T07:38:45.000Z</time>
        <extensions>
          <ns3:TrackPointExtension>
            <ns3:hr>165</ns3:hr>
            <ns3:cad>0</ns3:cad>
          </ns3:TrackPointExtension>
        </extensions>
      </trkpt>
      <trkpt lat="47.5302275083959102630615234375" lon="10.19833912141621112823486328125">
        <ele>1493.5999755859375</ele>
        <time>2026-09-01T07:38:48.000Z</time>
        <extensions>
          <ns3:TrackPointExtension>
            <ns3:hr>165</ns3:hr>
            <ns3:cad>55</ns3:cad>
          </ns3:TrackPointExtension>
        </extensions>
      </trkpt>
      <trkpt lat="47.53023438155651092529296875" lon="10.19832151941955089569091796875">
        <ele>1494.199951171875</ele>
        <time>2026-09-01T07:38:49.000Z</time>
        <extensions>
          <ns3:TrackPointExtension>
            <ns3:hr>165</ns3:hr>
            <ns3:cad>55</ns3:cad>
          </ns3:TrackPointExtension>
        </extensions>
      </trkpt>
      <trkpt lat="47.53024167381227016448974609375" lon="10.19828815944492816925048828125">
        <ele>1495</ele>
        <time>2026-09-01T07:38:51.000Z</time>
        <extensions>
          <ns3:TrackPointExtension>
            <ns3:hr>166</ns3:hr>
            <ns3:cad>55</ns3:cad>
          </ns3:TrackPointExtension>
        </extensions>
      </trkpt>
      <trkpt lat="47.5302281789481639862060546875" lon="10.1982268877327442169189453125">
        <ele>1495.800048828125</ele>
        <time>2026-09-01T07:38:54.000Z</time>
        <extensions>
          <ns3:TrackPointExtension>
            <ns3:hr>164</ns3:hr>
            <ns3:cad>0</ns3:cad>
          </ns3:TrackPointExtension>
        </extensions>
      </trkpt>
      <trkpt lat="47.530217953026294708251953125" lon="10.198204256594181060791015625">
        <ele>1496</ele>
        <time>2026-09-01T07:38:55.000Z</time>
        <extensions>
          <ns3:TrackPointExtension>
            <ns3:hr>165</ns3:hr>
            <ns3:cad>0</ns3:cad>
          </ns3:TrackPointExtension>
        </extensions>
      </trkpt>
      <trkpt lat="47.53017964772880077362060546875" lon="10.19813879393041133880615234375">
        <ele>1497.199951171875</ele>
        <time>2026-09-01T07:38:59.000Z</time>
        <extensions>
          <ns3:TrackPointExtension>
            <ns3:hr>164</ns3:hr>
            <ns3:cad>0</ns3:cad>
          </ns3:TrackPointExtension>
        </extensions>
      </trkpt>
      <trkpt lat="47.5301681645214557647705078125" lon="10.1981232874095439910888671875">
        <ele>1497.5999755859375</ele>
        <time>2026-09-01T07:39:00.000Z</time>
        <extensions>
          <ns3:TrackPointExtension>
            <ns3:hr>164</ns3:hr>
            <ns3:cad>0</ns3:cad>
          </ns3:TrackPointExtension>
        </extensions>
      </trkpt>
      <trkpt lat="47.5301467068493366241455078125" lon="10.19809721969068050384521484375">
        <ele>1498.199951171875</ele>
        <time>2026-09-01T07:39:02.000Z</time>
        <extensions>
          <ns3:TrackPointExtension>
            <ns3:hr>163</ns3:hr>
            <ns3:cad>0</ns3:cad>
          </ns3:TrackPointExtension>
        </extensions>
      </trkpt>
      <trkpt lat="47.5301343016326427459716796875" lon="10.198063440620899200439453125">
        <ele>1499.199951171875</ele>
        <time>2026-09-01T07:39:05.000Z</time>
        <extensions>
          <ns3:TrackPointExtension>
            <ns3:hr>163</ns3:hr>
            <ns3:cad>0</ns3:cad>
          </ns3:TrackPointExtension>
        </extensions>
      </trkpt>
      <trkpt lat="47.53013958223164081573486328125" lon="10.1980528794229030609130859375">
        <ele>1500</ele>
        <time>2026-09-01T07:39:07.000Z</time>
        <extensions>
          <ns3:TrackPointExtension>
            <ns3:hr>162</ns3:hr>
            <ns3:cad>0</ns3:cad>
          </ns3:TrackPointExtension>
        </extensions>
      </trkpt>
      <trkpt lat="47.53014075569808483123779296875" lon="10.1980481855571269989013671875">
        <ele>1500.199951171875</ele>
        <time>2026-09-01T07:39:08.000Z</time>
        <extensions>
          <ns3:TrackPointExtension>
            <ns3:hr>163</ns3:hr>
            <ns3:cad>0</ns3:cad>
          </ns3:TrackPointExtension>
        </extensions>
      </trkpt>
      <trkpt lat="47.530147545039653778076171875" lon="10.19803737290203571319580078125">
        <ele>1500.5999755859375</ele>
        <time>2026-09-01T07:39:09.000Z</time>
        <extensions>
          <ns3:TrackPointExtension>
            <ns3:hr>163</ns3:hr>
            <ns3:cad>0</ns3:cad>
          </ns3:TrackPointExtension>
        </extensions>
      </trkpt>
      <trkpt lat="47.53016464412212371826171875" lon="10.19801138900220394134521484375">
        <ele>1501.4000244140625</ele>
        <time>2026-09-01T07:39:11.000Z</time>
        <extensions>
          <ns3:TrackPointExtension>
            <ns3:hr>163</ns3:hr>
            <ns3:cad>0</ns3:cad>
          </ns3:TrackPointExtension>
        </extensions>
      </trkpt>
      <trkpt lat="47.53017813898622989654541015625" lon="10.19798574037849903106689453125">
        <ele>1502.199951171875</ele>
        <time>2026-09-01T07:39:13.000Z</time>
        <extensions>
          <ns3:TrackPointExtension>
            <ns3:hr>163</ns3:hr>
            <ns3:cad>45</ns3:cad>
          </ns3:TrackPointExtension>
        </extensions>
      </trkpt>
      <trkpt lat="47.5301832519471645355224609375" lon="10.197976939380168914794921875">
        <ele>1502.5999755859375</ele>
        <time>2026-09-01T07:39:14.000Z</time>
        <extensions>
          <ns3:TrackPointExtension>
            <ns3:hr>163</ns3:hr>
            <ns3:cad>45</ns3:cad>
          </ns3:TrackPointExtension>
        </extensions>
      </trkpt>
      <trkpt lat="47.530180402100086212158203125" lon="10.19793058745563030242919921875">
        <ele>1503.4000244140625</ele>
        <time>2026-09-01T07:39:17.000Z</time>
        <extensions>
          <ns3:TrackPointExtension>
            <ns3:hr>163</ns3:hr>
            <ns3:cad>55</ns3:cad>
          </ns3:TrackPointExtension>
        </extensions>
      </trkpt>
      <trkpt lat="47.5301688350737094879150390625" lon="10.1979264803230762481689453125">
        <ele>1503.5999755859375</ele>
        <time>2026-09-01T07:39:18.000Z</time>
        <extensions>
          <ns3:TrackPointExtension>
            <ns3:hr>163</ns3:hr>
            <ns3:cad>55</ns3:cad>
          </ns3:TrackPointExtension>
        </extensions>
      </trkpt>
      <trkpt lat="47.5301229022443294525146484375" lon="10.19791088998317718505859375">
        <ele>1505</ele>
        <time>2026-09-01T07:39:22.000Z</time>
        <extensions>
          <ns3:TrackPointExtension>
            <ns3:hr>163</ns3:hr>
            <ns3:cad>55</ns3:cad>
          </ns3:TrackPointExtension>
        </extensions>
      </trkpt>
      <trkpt lat="47.53011426888406276702880859375" lon="10.19789219833910465240478515625">
        <ele>1506</ele>
        <time>2026-09-01T07:39:26.000Z</time>
        <extensions>
          <ns3:TrackPointExtension>
            <ns3:hr>163</ns3:hr>
            <ns3:cad>0</ns3:cad>
          </ns3:TrackPointExtension>
        </extensions>
      </trkpt>
      <trkpt lat="47.5301076471805572509765625" lon="10.1978510431945323944091796875">
        <ele>1507.4000244140625</ele>
        <time>2026-09-01T07:39:29.000Z</time>
        <extensions>
          <ns3:TrackPointExtension>
            <ns3:hr>163</ns3:hr>
            <ns3:cad>0</ns3:cad>
          </ns3:TrackPointExtension>
        </extensions>
      </trkpt>
      <trkpt lat="47.5300930626690387725830078125" lon="10.19782464019954204559326171875">
        <ele>1507.5999755859375</ele>
        <time>2026-09-01T07:39:30.000Z</time>
        <extensions>
          <ns3:TrackPointExtension>
            <ns3:hr>164</ns3:hr>
            <ns3:cad>0</ns3:cad>
          </ns3:TrackPointExtension>
        </extensions>
      </trkpt>
      <trkpt lat="47.53003832884132862091064453125" lon="10.1976512186229228973388671875">
        <ele>1508.199951171875</ele>
        <time>2026-09-01T07:39:36.000Z</time>
        <extensions>
          <ns3:TrackPointExtension>
            <ns3:hr>163</ns3:hr>
            <ns3:cad>83</ns3:cad>
          </ns3:TrackPointExtension>
        </extensions>
      </trkpt>
      <trkpt lat="47.53003631718456745147705078125" lon="10.1976250670850276947021484375">
        <ele>1508.5999755859375</ele>
        <time>2026-09-01T07:39:37.000Z</time>
        <extensions>
          <ns3:TrackPointExtension>
            <ns3:hr>163</ns3:hr>
            <ns3:cad>83</ns3:cad>
          </ns3:TrackPointExtension>
        </extensions>
      </trkpt>
      <trkpt lat="47.53002491779625415802001953125" lon="10.19759363494813442230224609375">
        <ele>1510</ele>
        <time>2026-09-01T07:39:40.000Z</time>
        <extensions>
          <ns3:TrackPointExtension>
            <ns3:hr>163</ns3:hr>
            <ns3:cad>42</ns3:cad>
          </ns3:TrackPointExtension>
        </extensions>
      </trkpt>
      <trkpt lat="47.53001385368406772613525390625" lon="10.19755549728870391845703125">
        <ele>1511.199951171875</ele>
        <time>2026-09-01T07:39:43.000Z</time>
        <extensions>
          <ns3:TrackPointExtension>
            <ns3:hr>163</ns3:hr>
            <ns3:cad>42</ns3:cad>
          </ns3:TrackPointExtension>
        </extensions>
      </trkpt>
      <trkpt lat="47.5300030410289764404296875" lon="10.19751928746700286865234375">
        <ele>1511.800048828125</ele>
        <time>2026-09-01T07:39:45.000Z</time>
        <extensions>
          <ns3:TrackPointExtension>
            <ns3:hr>163</ns3:hr>
            <ns3:cad>42</ns3:cad>
          </ns3:TrackPointExtension>
        </extensions>
      </trkpt>
      <trkpt lat="47.5299961678683757781982421875" lon="10.1974902860820293426513671875">
        <ele>1512.199951171875</ele>
        <time>2026-09-01T07:39:46.000Z</time>
        <extensions>
          <ns3:TrackPointExtension>
            <ns3:hr>163</ns3:hr>
            <ns3:cad>42</ns3:cad>
          </ns3:TrackPointExtension>
        </extensions>
      </trkpt>
      <trkpt lat="47.5299861095845699310302734375" lon="10.19740998744964599609375">
        <ele>1513</ele>
        <time>2026-09-01T07:39:49.000Z</time>
        <extensions>
          <ns3:TrackPointExtension>
            <ns3:hr>163</ns3:hr>
            <ns3:cad>42</ns3:cad>
          </ns3:TrackPointExtension>
        </extensions>
      </trkpt>
      <trkpt lat="47.529991306364536285400390625" lon="10.197377465665340423583984375">
        <ele>1513.199951171875</ele>
        <time>2026-09-01T07:39:50.000Z</time>
        <extensions>
          <ns3:TrackPointExtension>
            <ns3:hr>164</ns3:hr>
            <ns3:cad>42</ns3:cad>
          </ns3:TrackPointExtension>
        </extensions>
      </trkpt>
      <trkpt lat="47.5299978442490100860595703125" lon="10.19737310707569122314453125">
        <ele>1513.800048828125</ele>
        <time>2026-09-01T07:39:52.000Z</time>
        <extensions>
          <ns3:TrackPointExtension>
            <ns3:hr>164</ns3:hr>
            <ns3:cad>42</ns3:cad>
          </ns3:TrackPointExtension>
        </extensions>
      </trkpt>
      <trkpt lat="47.530003376305103302001953125" lon="10.19737620837986469268798828125">
        <ele>1514.199951171875</ele>
        <time>2026-09-01T07:39:53.000Z</time>
        <extensions>
          <ns3:TrackPointExtension>
            <ns3:hr>163</ns3:hr>
            <ns3:cad>42</ns3:cad>
          </ns3:TrackPointExtension>
        </extensions>
      </trkpt>
      <trkpt lat="47.530021481215953826904296875" lon="10.19739699549973011016845703125">
        <ele>1515.4000244140625</ele>
        <time>2026-09-01T07:39:56.000Z</time>
        <extensions>
          <ns3:TrackPointExtension>
            <ns3:hr>163</ns3:hr>
            <ns3:cad>0</ns3:cad>
          </ns3:TrackPointExtension>
        </extensions>
      </trkpt>
      <trkpt lat="47.530025504529476165771484375" lon="10.19740889780223369598388671875">
        <ele>1516</ele>
        <time>2026-09-01T07:39:57.000Z</time>
        <extensions>
          <ns3:TrackPointExtension>
            <ns3:hr>163</ns3:hr>
            <ns3:cad>0</ns3:cad>
          </ns3:TrackPointExtension>
        </extensions>
      </trkpt>
      <trkpt lat="47.53004654310643672943115234375" lon="10.19743806682527065277099609375">
        <ele>1516.5999755859375</ele>
        <time>2026-09-01T07:39:59.000Z</time>
        <extensions>
          <ns3:TrackPointExtension>
            <ns3:hr>163</ns3:hr>
            <ns3:cad>0</ns3:cad>
          </ns3:TrackPointExtension>
        </extensions>
      </trkpt>
      <trkpt lat="47.530069090425968170166015625" lon="10.19746405072510242462158203125">
        <ele>1517.199951171875</ele>
        <time>2026-09-01T07:40:01.000Z</time>
        <extensions>
          <ns3:TrackPointExtension>
            <ns3:hr>163</ns3:hr>
            <ns3:cad>0</ns3:cad>
          </ns3:TrackPointExtension>
        </extensions>
      </trkpt>
      <trkpt lat="47.5300942361354827880859375" lon="10.19748014397919178009033203125">
        <ele>1517.800048828125</ele>
        <time>2026-09-01T07:40:03.000Z</time>
        <extensions>
          <ns3:TrackPointExtension>
            <ns3:hr>163</ns3:hr>
            <ns3:cad>0</ns3:cad>
          </ns3:TrackPointExtension>
        </extensions>
      </trkpt>
      <trkpt lat="47.53013203851878643035888671875" lon="10.19749036990106105804443359375">
        <ele>1518.5999755859375</ele>
        <time>2026-09-01T07:40:06.000Z</time>
        <extensions>
          <ns3:TrackPointExtension>
            <ns3:hr>164</ns3:hr>
            <ns3:cad>41</ns3:cad>
          </ns3:TrackPointExtension>
        </extensions>
      </trkpt>
      <trkpt lat="47.5301440246403217315673828125" lon="10.1974876038730144500732421875">
        <ele>1519</ele>
        <time>2026-09-01T07:40:07.000Z</time>
        <extensions>
          <ns3:TrackPointExtension>
            <ns3:hr>164</ns3:hr>
            <ns3:cad>41</ns3:cad>
          </ns3:TrackPointExtension>
        </extensions>
      </trkpt>
      <trkpt lat="47.530162297189235687255859375" lon="10.19745198078453540802001953125">
        <ele>1520</ele>
        <time>2026-09-01T07:40:10.000Z</time>
        <extensions>
          <ns3:TrackPointExtension>
            <ns3:hr>163</ns3:hr>
            <ns3:cad>0</ns3:cad>
          </ns3:TrackPointExtension>
        </extensions>
      </trkpt>
      <trkpt lat="47.53016531467437744140625" lon="10.1974192075431346893310546875">
        <ele>1520.800048828125</ele>
        <time>2026-09-01T07:40:12.000Z</time>
        <extensions>
          <ns3:TrackPointExtension>
            <ns3:hr>163</ns3:hr>
            <ns3:cad>0</ns3:cad>
          </ns3:TrackPointExtension>
        </extensions>
      </trkpt>
      <trkpt lat="47.5301641412079334259033203125" lon="10.197396241128444671630859375">
        <ele>1521</ele>
        <time>2026-09-01T07:40:13.000Z</time>
        <extensions>
          <ns3:TrackPointExtension>
            <ns3:hr>164</ns3:hr>
            <ns3:cad>0</ns3:cad>
          </ns3:TrackPointExtension>
        </extensions>
      </trkpt>
      <trkpt lat="47.5301317870616912841796875" lon="10.1972716860473155975341796875">
        <ele>1522.199951171875</ele>
        <time>2026-09-01T07:40:18.000Z</time>
        <extensions>
          <ns3:TrackPointExtension>
            <ns3:hr>165</ns3:hr>
            <ns3:cad>0</ns3:cad>
          </ns3:TrackPointExtension>
        </extensions>
      </trkpt>
      <trkpt lat="47.53009046427905559539794921875" lon="10.19712860696017742156982421875">
        <ele>1523</ele>
        <time>2026-09-01T07:40:23.000Z</time>
        <extensions>
          <ns3:TrackPointExtension>
            <ns3:hr>164</ns3:hr>
            <ns3:cad>0</ns3:cad>
          </ns3:TrackPointExtension>
        </extensions>
      </trkpt>
      <trkpt lat="47.53006464801728725433349609375" lon="10.19707714207470417022705078125">
        <ele>1523.4000244140625</ele>
        <time>2026-09-01T07:40:25.000Z</time>
        <extensions>
          <ns3:TrackPointExtension>
            <ns3:hr>165</ns3:hr>
            <ns3:cad>0</ns3:cad>
          </ns3:TrackPointExtension>
        </extensions>
      </trkpt>
      <trkpt lat="47.53005660139024257659912109375" lon="10.19704378210008144378662109375">
        <ele>1523.5999755859375</ele>
        <time>2026-09-01T07:40:26.000Z</time>
        <extensions>
          <ns3:TrackPointExtension>
            <ns3:hr>165</ns3:hr>
            <ns3:cad>0</ns3:cad>
          </ns3:TrackPointExtension>
        </extensions>
      </trkpt>
      <trkpt lat="47.530039586126804351806640625" lon="10.1969632320106029510498046875">
        <ele>1524.4000244140625</ele>
        <time>2026-09-01T07:40:29.000Z</time>
        <extensions>
          <ns3:TrackPointExtension>
            <ns3:hr>165</ns3:hr>
            <ns3:cad>0</ns3:cad>
          </ns3:TrackPointExtension>
        </extensions>
      </trkpt>
      <trkpt lat="47.5300353951752185821533203125" lon="10.19694118760526180267333984375">
        <ele>1524.800048828125</ele>
        <time>2026-09-01T07:40:30.000Z</time>
        <extensions>
          <ns3:TrackPointExtension>
            <ns3:hr>165</ns3:hr>
            <ns3:cad>41</ns3:cad>
          </ns3:TrackPointExtension>
        </extensions>
      </trkpt>
      <trkpt lat="47.5300065614283084869384765625" lon="10.19688167609274387359619140625">
        <ele>1525.4000244140625</ele>
        <time>2026-09-01T07:40:33.000Z</time>
        <extensions>
          <ns3:TrackPointExtension>
            <ns3:hr>165</ns3:hr>
            <ns3:cad>42</ns3:cad>
          </ns3:TrackPointExtension>
        </extensions>
      </trkpt>
      <trkpt lat="47.5299891270697116851806640625" lon="10.19681260921061038970947265625">
        <ele>1526</ele>
        <time>2026-09-01T07:40:36.000Z</time>
        <extensions>
          <ns3:TrackPointExtension>
            <ns3:hr>165</ns3:hr>
            <ns3:cad>41</ns3:cad>
          </ns3:TrackPointExtension>
        </extensions>
      </trkpt>
      <trkpt lat="47.52997060306370258331298828125" lon="10.196768604218959808349609375">
        <ele>1526.4000244140625</ele>
        <time>2026-09-01T07:40:38.000Z</time>
        <extensions>
          <ns3:TrackPointExtension>
            <ns3:hr>164</ns3:hr>
            <ns3:cad>41</ns3:cad>
          </ns3:TrackPointExtension>
        </extensions>
      </trkpt>
      <trkpt lat="47.52994813956320285797119140625" lon="10.1967327296733856201171875">
        <ele>1527</ele>
        <time>2026-09-01T07:40:40.000Z</time>
        <extensions>
          <ns3:TrackPointExtension>
            <ns3:hr>163</ns3:hr>
            <ns3:cad>41</ns3:cad>
          </ns3:TrackPointExtension>
        </extensions>
      </trkpt>
      <trkpt lat="47.529926933348178863525390625" lon="10.19671336747705936431884765625">
        <ele>1527.4000244140625</ele>
        <time>2026-09-01T07:40:41.000Z</time>
        <extensions>
          <ns3:TrackPointExtension>
            <ns3:hr>163</ns3:hr>
            <ns3:cad>41</ns3:cad>
          </ns3:TrackPointExtension>
        </extensions>
      </trkpt>
      <trkpt lat="47.5298959203064441680908203125" lon="10.19668604247272014617919921875">
        <ele>1528.199951171875</ele>
        <time>2026-09-01T07:40:43.000Z</time>
        <extensions>
          <ns3:TrackPointExtension>
            <ns3:hr>163</ns3:hr>
            <ns3:cad>41</ns3:cad>
          </ns3:TrackPointExtension>
        </extensions>
      </trkpt>
      <trkpt lat="47.529871948063373565673828125" lon="10.1966453902423381805419921875">
        <ele>1528.800048828125</ele>
        <time>2026-09-01T07:40:45.000Z</time>
        <extensions>
          <ns3:TrackPointExtension>
            <ns3:hr>163</ns3:hr>
            <ns3:cad>41</ns3:cad>
          </ns3:TrackPointExtension>
        </extensions>
      </trkpt>
      <trkpt lat="47.52982274629175662994384765625" lon="10.1965699531137943267822265625">
        <ele>1529.800048828125</ele>
        <time>2026-09-01T07:40:49.000Z</time>
        <extensions>
          <ns3:TrackPointExtension>
            <ns3:hr>164</ns3:hr>
            <ns3:cad>42</ns3:cad>
          </ns3:TrackPointExtension>
        </extensions>
      </trkpt>
      <trkpt lat="47.52976943738758563995361328125" lon="10.19649677909910678863525390625">
        <ele>1531</ele>
        <time>2026-09-01T07:40:53.000Z</time>
        <extensions>
          <ns3:TrackPointExtension>
            <ns3:hr>164</ns3:hr>
            <ns3:cad>41</ns3:cad>
          </ns3:TrackPointExtension>
        </extensions>
      </trkpt>
      <trkpt lat="47.529756613075733184814453125" lon="10.19646626897156238555908203125">
        <ele>1531.199951171875</ele>
        <time>2026-09-01T07:40:54.000Z</time>
        <extensions>
          <ns3:TrackPointExtension>
            <ns3:hr>164</ns3:hr>
            <ns3:cad>41</ns3:cad>
          </ns3:TrackPointExtension>
        </extensions>
      </trkpt>
      <trkpt lat="47.5297487340867519378662109375" lon="10.19642888568341732025146484375">
        <ele>1531.800048828125</ele>
        <time>2026-09-01T07:40:56.000Z</time>
        <extensions>
          <ns3:TrackPointExtension>
            <ns3:hr>164</ns3:hr>
            <ns3:cad>41</ns3:cad>
          </ns3:TrackPointExtension>
        </extensions>
      </trkpt>
      <trkpt lat="47.52974462695419788360595703125" lon="10.196397118270397186279296875">
        <ele>1532.199951171875</ele>
        <time>2026-09-01T07:40:57.000Z</time>
        <extensions>
          <ns3:TrackPointExtension>
            <ns3:hr>164</ns3:hr>
            <ns3:cad>41</ns3:cad>
          </ns3:TrackPointExtension>
        </extensions>
      </trkpt>
      <trkpt lat="47.52973909489810466766357421875" lon="10.1963141374289989471435546875">
        <ele>1533.199951171875</ele>
        <time>2026-09-01T07:41:00.000Z</time>
        <extensions>
          <ns3:TrackPointExtension>
            <ns3:hr>165</ns3:hr>
            <ns3:cad>41</ns3:cad>
          </ns3:TrackPointExtension>
        </extensions>
      </trkpt>
      <trkpt lat="47.5297477282583713531494140625" lon="10.19628773443400859832763671875">
        <ele>1533.800048828125</ele>
        <time>2026-09-01T07:41:02.000Z</time>
        <extensions>
          <ns3:TrackPointExtension>
            <ns3:hr>166</ns3:hr>
            <ns3:cad>0</ns3:cad>
          </ns3:TrackPointExtension>
        </extensions>
      </trkpt>
      <trkpt lat="47.52975485287606716156005859375" lon="10.19625194370746612548828125">
        <ele>1534.5999755859375</ele>
        <time>2026-09-01T07:41:04.000Z</time>
        <extensions>
          <ns3:TrackPointExtension>
            <ns3:hr>165</ns3:hr>
            <ns3:cad>0</ns3:cad>
          </ns3:TrackPointExtension>
        </extensions>
      </trkpt>
      <trkpt lat="47.5297437049448490142822265625" lon="10.19617793150246143341064453125">
        <ele>1535.4000244140625</ele>
        <time>2026-09-01T07:41:07.000Z</time>
        <extensions>
          <ns3:TrackPointExtension>
            <ns3:hr>165</ns3:hr>
            <ns3:cad>0</ns3:cad>
          </ns3:TrackPointExtension>
        </extensions>
      </trkpt>
      <trkpt lat="47.52973523922264575958251953125" lon="10.19612680189311504364013671875">
        <ele>1535.800048828125</ele>
        <time>2026-09-01T07:41:09.000Z</time>
        <extensions>
          <ns3:TrackPointExtension>
            <ns3:hr>164</ns3:hr>
            <ns3:cad>0</ns3:cad>
          </ns3:TrackPointExtension>
        </extensions>
      </trkpt>
      <trkpt lat="47.52970271743834018707275390625" lon="10.19602303393185138702392578125">
        <ele>1536.800048828125</ele>
        <time>2026-09-01T07:41:13.000Z</time>
        <extensions>
          <ns3:TrackPointExtension>
            <ns3:hr>164</ns3:hr>
            <ns3:cad>0</ns3:cad>
          </ns3:TrackPointExtension>
        </extensions>
      </trkpt>
      <trkpt lat="47.52969567663967609405517578125" lon="10.19598774611949920654296875">
        <ele>1537</ele>
        <time>2026-09-01T07:41:14.000Z</time>
        <extensions>
          <ns3:TrackPointExtension>
            <ns3:hr>164</ns3:hr>
            <ns3:cad>0</ns3:cad>
          </ns3:TrackPointExtension>
        </extensions>
      </trkpt>
      <trkpt lat="47.52965913154184818267822265625" lon="10.19590099342167377471923828125">
        <ele>1538.4000244140625</ele>
        <time>2026-09-01T07:41:18.000Z</time>
        <extensions>
          <ns3:TrackPointExtension>
            <ns3:hr>164</ns3:hr>
            <ns3:cad>41</ns3:cad>
          </ns3:TrackPointExtension>
        </extensions>
      </trkpt>
      <trkpt lat="47.52965175546705722808837890625" lon="10.19589110277593135833740234375">
        <ele>1538.800048828125</ele>
        <time>2026-09-01T07:41:19.000Z</time>
        <extensions>
          <ns3:TrackPointExtension>
            <ns3:hr>164</ns3:hr>
            <ns3:cad>42</ns3:cad>
          </ns3:TrackPointExtension>
        </extensions>
      </trkpt>
      <trkpt lat="47.5296384282410144805908203125" lon="10.19582656212151050567626953125">
        <ele>1539.5999755859375</ele>
        <time>2026-09-01T07:41:22.000Z</time>
        <extensions>
          <ns3:TrackPointExtension>
            <ns3:hr>163</ns3:hr>
            <ns3:cad>42</ns3:cad>
          </ns3:TrackPointExtension>
        </extensions>
      </trkpt>
      <trkpt lat="47.52962979488074779510498046875" lon="10.19580426625907421112060546875">
        <ele>1539.800048828125</ele>
        <time>2026-09-01T07:41:23.000Z</time>
        <extensions>
          <ns3:TrackPointExtension>
            <ns3:hr>163</ns3:hr>
            <ns3:cad>41</ns3:cad>
          </ns3:TrackPointExtension>
        </extensions>
      </trkpt>
      <trkpt lat="47.52960884012281894683837890625" lon="10.19572614692151546478271484375">
        <ele>1540.800048828125</ele>
        <time>2026-09-01T07:41:26.000Z</time>
        <extensions>
          <ns3:TrackPointExtension>
            <ns3:hr>163</ns3:hr>
            <ns3:cad>41</ns3:cad>
          </ns3:TrackPointExtension>
        </extensions>
      </trkpt>
      <trkpt lat="47.52960012294352054595947265625" lon="10.195699743926525115966796875">
        <ele>1541</ele>
        <time>2026-09-01T07:41:27.000Z</time>
        <extensions>
          <ns3:TrackPointExtension>
            <ns3:hr>163</ns3:hr>
            <ns3:cad>41</ns3:cad>
          </ns3:TrackPointExtension>
        </extensions>
      </trkpt>
      <trkpt lat="47.52958838827908039093017578125" lon="10.19564249552786350250244140625">
        <ele>1542</ele>
        <time>2026-09-01T07:41:30.000Z</time>
        <extensions>
          <ns3:TrackPointExtension>
            <ns3:hr>163</ns3:hr>
            <ns3:cad>41</ns3:cad>
          </ns3:TrackPointExtension>
        </extensions>
      </trkpt>
      <trkpt lat="47.529587633907794952392578125" lon="10.1956201158463954925537109375">
        <ele>1542.4000244140625</ele>
        <time>2026-09-01T07:41:31.000Z</time>
        <extensions>
          <ns3:TrackPointExtension>
            <ns3:hr>162</ns3:hr>
            <ns3:cad>0</ns3:cad>
          </ns3:TrackPointExtension>
        </extensions>
      </trkpt>
      <trkpt lat="47.52958872355520725250244140625" lon="10.1955785416066646575927734375">
        <ele>1543.199951171875</ele>
        <time>2026-09-01T07:41:33.000Z</time>
        <extensions>
          <ns3:TrackPointExtension>
            <ns3:hr>163</ns3:hr>
            <ns3:cad>0</ns3:cad>
          </ns3:TrackPointExtension>
        </extensions>
      </trkpt>
      <trkpt lat="47.5295827724039554595947265625" lon="10.195546187460422515869140625">
        <ele>1543.800048828125</ele>
        <time>2026-09-01T07:41:35.000Z</time>
        <extensions>
          <ns3:TrackPointExtension>
            <ns3:hr>163</ns3:hr>
            <ns3:cad>0</ns3:cad>
          </ns3:TrackPointExtension>
        </extensions>
      </trkpt>
      <trkpt lat="47.52956793643534183502197265625" lon="10.19551525823771953582763671875">
        <ele>1544.4000244140625</ele>
        <time>2026-09-01T07:41:37.000Z</time>
        <extensions>
          <ns3:TrackPointExtension>
            <ns3:hr>163</ns3:hr>
            <ns3:cad>0</ns3:cad>
          </ns3:TrackPointExtension>
        </extensions>
      </trkpt>
      <trkpt lat="47.5295539386570453643798828125" lon="10.19550838507711887359619140625">
        <ele>1544.800048828125</ele>
        <time>2026-09-01T07:41:38.000Z</time>
        <extensions>
          <ns3:TrackPointExtension>
            <ns3:hr>163</ns3:hr>
            <ns3:cad>0</ns3:cad>
          </ns3:TrackPointExtension>
        </extensions>
      </trkpt>
      <trkpt lat="47.52953826449811458587646484375" lon="10.19547033123672008514404296875">
        <ele>1545.4000244140625</ele>
        <time>2026-09-01T07:41:40.000Z</time>
        <extensions>
          <ns3:TrackPointExtension>
            <ns3:hr>163</ns3:hr>
            <ns3:cad>0</ns3:cad>
          </ns3:TrackPointExtension>
        </extensions>
      </trkpt>
      <trkpt lat="47.5295257754623889923095703125" lon="10.1954414136707782745361328125">
        <ele>1545.5999755859375</ele>
        <time>2026-09-01T07:41:41.000Z</time>
        <extensions>
          <ns3:TrackPointExtension>
            <ns3:hr>163</ns3:hr>
            <ns3:cad>0</ns3:cad>
          </ns3:TrackPointExtension>
        </extensions>
      </trkpt>
      <trkpt lat="47.52950054593384265899658203125" lon="10.19539204426109790802001953125">
        <ele>1545.800048828125</ele>
        <time>2026-09-01T07:41:43.000Z</time>
        <extensions>
          <ns3:TrackPointExtension>
            <ns3:hr>164</ns3:hr>
            <ns3:cad>0</ns3:cad>
          </ns3:TrackPointExtension>
        </extensions>
      </trkpt>
      <trkpt lat="47.52942158840596675872802734375" lon="10.1952888630330562591552734375">
        <ele>1544.199951171875</ele>
        <time>2026-09-01T07:41:48.000Z</time>
        <extensions>
          <ns3:TrackPointExtension>
            <ns3:hr>164</ns3:hr>
            <ns3:cad>80</ns3:cad>
          </ns3:TrackPointExtension>
        </extensions>
      </trkpt>
      <trkpt lat="47.5293856300413608551025390625" lon="10.19526698626577854156494140625">
        <ele>1543</ele>
        <time>2026-09-01T07:41:50.000Z</time>
        <extensions>
          <ns3:TrackPointExtension>
            <ns3:hr>165</ns3:hr>
            <ns3:cad>82</ns3:cad>
          </ns3:TrackPointExtension>
        </extensions>
      </trkpt>
      <trkpt lat="47.5293578021228313446044921875" lon="10.1952285133302211761474609375">
        <ele>1541.5999755859375</ele>
        <time>2026-09-01T07:41:52.000Z</time>
        <extensions>
          <ns3:TrackPointExtension>
            <ns3:hr>165</ns3:hr>
            <ns3:cad>81</ns3:cad>
          </ns3:TrackPointExtension>
        </extensions>
      </trkpt>
      <trkpt lat="47.5293182395398616790771484375" lon="10.19517327658832073211669921875">
        <ele>1540</ele>
        <time>2026-09-01T07:41:54.000Z</time>
        <extensions>
          <ns3:TrackPointExtension>
            <ns3:hr>164</ns3:hr>
            <ns3:cad>80</ns3:cad>
          </ns3:TrackPointExtension>
        </extensions>
      </trkpt>
      <trkpt lat="47.52929418347775936126708984375" lon="10.1950729452073574066162109375">
        <ele>1538.800048828125</ele>
        <time>2026-09-01T07:41:56.000Z</time>
        <extensions>
          <ns3:TrackPointExtension>
            <ns3:hr>164</ns3:hr>
            <ns3:cad>78</ns3:cad>
          </ns3:TrackPointExtension>
        </extensions>
      </trkpt>
      <trkpt lat="47.52927456982433795928955078125" lon="10.19500094465911388397216796875">
        <ele>1538.800048828125</ele>
        <time>2026-09-01T07:41:58.000Z</time>
        <extensions>
          <ns3:TrackPointExtension>
            <ns3:hr>163</ns3:hr>
            <ns3:cad>78</ns3:cad>
          </ns3:TrackPointExtension>
        </extensions>
      </trkpt>
      <trkpt lat="47.52924674190580844879150390625" lon="10.19492936320602893829345703125">
        <ele>1540.199951171875</ele>
        <time>2026-09-01T07:42:01.000Z</time>
        <extensions>
          <ns3:TrackPointExtension>
            <ns3:hr>162</ns3:hr>
            <ns3:cad>87</ns3:cad>
          </ns3:TrackPointExtension>
        </extensions>
      </trkpt>
      <trkpt lat="47.529242299497127532958984375" lon="10.19489935599267482757568359375">
        <ele>1540.5999755859375</ele>
        <time>2026-09-01T07:42:02.000Z</time>
        <extensions>
          <ns3:TrackPointExtension>
            <ns3:hr>161</ns3:hr>
            <ns3:cad>87</ns3:cad>
          </ns3:TrackPointExtension>
        </extensions>
      </trkpt>
      <trkpt lat="47.5292265415191650390625" lon="10.19485560245811939239501953125">
        <ele>1541.4000244140625</ele>
        <time>2026-09-01T07:42:04.000Z</time>
        <extensions>
          <ns3:TrackPointExtension>
            <ns3:hr>161</ns3:hr>
            <ns3:cad>87</ns3:cad>
          </ns3:TrackPointExtension>
        </extensions>
      </trkpt>
      <trkpt lat="47.529224865138530731201171875" lon="10.1948178000748157501220703125">
        <ele>1542.5999755859375</ele>
        <time>2026-09-01T07:42:07.000Z</time>
        <extensions>
          <ns3:TrackPointExtension>
            <ns3:hr>160</ns3:hr>
            <ns3:cad>87</ns3:cad>
          </ns3:TrackPointExtension>
        </extensions>
      </trkpt>
      <trkpt lat="47.52922796644270420074462890625" lon="10.19477882422506809234619140625">
        <ele>1544</ele>
        <time>2026-09-01T07:42:11.000Z</time>
        <extensions>
          <ns3:TrackPointExtension>
            <ns3:hr>159</ns3:hr>
            <ns3:cad>44</ns3:cad>
          </ns3:TrackPointExtension>
        </extensions>
      </trkpt>
      <trkpt lat="47.5292230211198329925537109375" lon="10.19475585781037807464599609375">
        <ele>1544.4000244140625</ele>
        <time>2026-09-01T07:42:12.000Z</time>
        <extensions>
          <ns3:TrackPointExtension>
            <ns3:hr>159</ns3:hr>
            <ns3:cad>47</ns3:cad>
          </ns3:TrackPointExtension>
        </extensions>
      </trkpt>
      <trkpt lat="47.52922184765338897705078125" lon="10.19471948035061359405517578125">
        <ele>1545</ele>
        <time>2026-09-01T07:42:14.000Z</time>
        <extensions>
          <ns3:TrackPointExtension>
            <ns3:hr>159</ns3:hr>
            <ns3:cad>47</ns3:cad>
          </ns3:TrackPointExtension>
        </extensions>
      </trkpt>
      <trkpt lat="47.52921991981565952301025390625" lon="10.1947078295052051544189453125">
        <ele>1545.4000244140625</ele>
        <time>2026-09-01T07:42:15.000Z</time>
        <extensions>
          <ns3:TrackPointExtension>
            <ns3:hr>159</ns3:hr>
            <ns3:cad>47</ns3:cad>
          </ns3:TrackPointExtension>
        </extensions>
      </trkpt>
      <trkpt lat="47.52921522594988346099853515625" lon="10.19467405043542385101318359375">
        <ele>1546</ele>
        <time>2026-09-01T07:42:17.000Z</time>
        <extensions>
          <ns3:TrackPointExtension>
            <ns3:hr>159</ns3:hr>
            <ns3:cad>0</ns3:cad>
          </ns3:TrackPointExtension>
        </extensions>
      </trkpt>
      <trkpt lat="47.529212795197963714599609375" lon="10.19463951699435710906982421875">
        <ele>1546.800048828125</ele>
        <time>2026-09-01T07:42:19.000Z</time>
        <extensions>
          <ns3:TrackPointExtension>
            <ns3:hr>159</ns3:hr>
            <ns3:cad>0</ns3:cad>
          </ns3:TrackPointExtension>
        </extensions>
      </trkpt>
      <trkpt lat="47.5292079336941242218017578125" lon="10.1946189813315868377685546875">
        <ele>1547.199951171875</ele>
        <time>2026-09-01T07:42:20.000Z</time>
        <extensions>
          <ns3:TrackPointExtension>
            <ns3:hr>159</ns3:hr>
            <ns3:cad>67</ns3:cad>
          </ns3:TrackPointExtension>
        </extensions>
      </trkpt>
      <trkpt lat="47.52919393591582775115966796875" lon="10.19458050839602947235107421875">
        <ele>1548.199951171875</ele>
        <time>2026-09-01T07:42:23.000Z</time>
        <extensions>
          <ns3:TrackPointExtension>
            <ns3:hr>159</ns3:hr>
            <ns3:cad>67</ns3:cad>
          </ns3:TrackPointExtension>
        </extensions>
      </trkpt>
      <trkpt lat="47.5291660241782665252685546875" lon="10.19450188614428043365478515625">
        <ele>1549.199951171875</ele>
        <time>2026-09-01T07:42:27.000Z</time>
        <extensions>
          <ns3:TrackPointExtension>
            <ns3:hr>159</ns3:hr>
            <ns3:cad>67</ns3:cad>
          </ns3:TrackPointExtension>
        </extensions>
      </trkpt>
      <trkpt lat="47.5291609950363636016845703125" lon="10.194472633302211761474609375">
        <ele>1549.5999755859375</ele>
        <time>2026-09-01T07:42:29.000Z</time>
        <extensions>
          <ns3:TrackPointExtension>
            <ns3:hr>160</ns3:hr>
            <ns3:cad>67</ns3:cad>
          </ns3:TrackPointExtension>
        </extensions>
      </trkpt>
      <trkpt lat="47.52915705554187297821044921875" lon="10.1944345794618129730224609375">
        <ele>1550.5999755859375</ele>
        <time>2026-09-01T07:42:32.000Z</time>
        <extensions>
          <ns3:TrackPointExtension>
            <ns3:hr>159</ns3:hr>
            <ns3:cad>67</ns3:cad>
          </ns3:TrackPointExtension>
        </extensions>
      </trkpt>
      <trkpt lat="47.529138363897800445556640625" lon="10.1943846233189105987548828125">
        <ele>1551.5999755859375</ele>
        <time>2026-09-01T07:42:35.000Z</time>
        <extensions>
          <ns3:TrackPointExtension>
            <ns3:hr>159</ns3:hr>
            <ns3:cad>67</ns3:cad>
          </ns3:TrackPointExtension>
        </extensions>
      </trkpt>
      <trkpt lat="47.52913274802267551422119140625" lon="10.19436358474195003509521484375">
        <ele>1551.800048828125</ele>
        <time>2026-09-01T07:42:36.000Z</time>
        <extensions>
          <ns3:TrackPointExtension>
            <ns3:hr>159</ns3:hr>
            <ns3:cad>51</ns3:cad>
          </ns3:TrackPointExtension>
        </extensions>
      </trkpt>
      <trkpt lat="47.529124282300472259521484375" lon="10.194302313029766082763671875">
        <ele>1552.5999755859375</ele>
        <time>2026-09-01T07:42:39.000Z</time>
        <extensions>
          <ns3:TrackPointExtension>
            <ns3:hr>158</ns3:hr>
            <ns3:cad>51</ns3:cad>
          </ns3:TrackPointExtension>
        </extensions>
      </trkpt>
      <trkpt lat="47.52910575829446315765380859375" lon="10.1942203380167484283447265625">
        <ele>1553.800048828125</ele>
        <time>2026-09-01T07:42:43.000Z</time>
        <extensions>
          <ns3:TrackPointExtension>
            <ns3:hr>158</ns3:hr>
            <ns3:cad>0</ns3:cad>
          </ns3:TrackPointExtension>
        </extensions>
      </trkpt>
      <trkpt lat="47.52910106442868709564208984375" lon="10.19420407712459564208984375">
        <ele>1554.199951171875</ele>
        <time>2026-09-01T07:42:44.000Z</time>
        <extensions>
          <ns3:TrackPointExtension>
            <ns3:hr>158</ns3:hr>
            <ns3:cad>0</ns3:cad>
          </ns3:TrackPointExtension>
        </extensions>
      </trkpt>
      <trkpt lat="47.5290895812213420867919921875" lon="10.1941717229783535003662109375">
        <ele>1555</ele>
        <time>2026-09-01T07:42:46.000Z</time>
        <extensions>
          <ns3:TrackPointExtension>
            <ns3:hr>159</ns3:hr>
            <ns3:cad>62</ns3:cad>
          </ns3:TrackPointExtension>
        </extensions>
      </trkpt>
      <trkpt lat="47.52906988374888896942138671875" lon="10.194089412689208984375">
        <ele>1556.199951171875</ele>
        <time>2026-09-01T07:42:50.000Z</time>
        <extensions>
          <ns3:TrackPointExtension>
            <ns3:hr>158</ns3:hr>
            <ns3:cad>62</ns3:cad>
          </ns3:TrackPointExtension>
        </extensions>
      </trkpt>
      <trkpt lat="47.52907139249145984649658203125" lon="10.194066949188709259033203125">
        <ele>1556.4000244140625</ele>
        <time>2026-09-01T07:42:51.000Z</time>
        <extensions>
          <ns3:TrackPointExtension>
            <ns3:hr>159</ns3:hr>
            <ns3:cad>62</ns3:cad>
          </ns3:TrackPointExtension>
        </extensions>
      </trkpt>
      <trkpt lat="47.5290744937956333160400390625" lon="10.194030739367008209228515625">
        <ele>1557.199951171875</ele>
        <time>2026-09-01T07:42:53.000Z</time>
        <extensions>
          <ns3:TrackPointExtension>
            <ns3:hr>159</ns3:hr>
            <ns3:cad>62</ns3:cad>
          </ns3:TrackPointExtension>
        </extensions>
      </trkpt>
      <trkpt lat="47.5290614180266857147216796875" lon="10.19395404495298862457275390625">
        <ele>1558.4000244140625</ele>
        <time>2026-09-01T07:42:57.000Z</time>
        <extensions>
          <ns3:TrackPointExtension>
            <ns3:hr>159</ns3:hr>
            <ns3:cad>41</ns3:cad>
          </ns3:TrackPointExtension>
        </extensions>
      </trkpt>
      <trkpt lat="47.52904037944972515106201171875" lon="10.19394918344914913177490234375">
        <ele>1558.800048828125</ele>
        <time>2026-09-01T07:42:58.000Z</time>
        <extensions>
          <ns3:TrackPointExtension>
            <ns3:hr>159</ns3:hr>
            <ns3:cad>41</ns3:cad>
          </ns3:TrackPointExtension>
        </extensions>
      </trkpt>
      <trkpt lat="47.52900031395256519317626953125" lon="10.19393359310925006866455078125">
        <ele>1559.5999755859375</ele>
        <time>2026-09-01T07:43:00.000Z</time>
        <extensions>
          <ns3:TrackPointExtension>
            <ns3:hr>159</ns3:hr>
            <ns3:cad>19</ns3:cad>
          </ns3:TrackPointExtension>
        </extensions>
      </trkpt>
      <trkpt lat="47.5289843045175075531005859375" lon="10.193922109901905059814453125">
        <ele>1560</ele>
        <time>2026-09-01T07:43:01.000Z</time>
        <extensions>
          <ns3:TrackPointExtension>
            <ns3:hr>159</ns3:hr>
            <ns3:cad>19</ns3:cad>
          </ns3:TrackPointExtension>
        </extensions>
      </trkpt>
      <trkpt lat="47.528980784118175506591796875" lon="10.19389771856367588043212890625">
        <ele>1560.199951171875</ele>
        <time>2026-09-01T07:43:02.000Z</time>
        <extensions>
          <ns3:TrackPointExtension>
            <ns3:hr>160</ns3:hr>
            <ns3:cad>19</ns3:cad>
          </ns3:TrackPointExtension>
        </extensions>
      </trkpt>
      <trkpt lat="47.5289739109575748443603515625" lon="10.19385497085750102996826171875">
        <ele>1560.5999755859375</ele>
        <time>2026-09-01T07:43:04.000Z</time>
        <extensions>
          <ns3:TrackPointExtension>
            <ns3:hr>160</ns3:hr>
            <ns3:cad>19</ns3:cad>
          </ns3:TrackPointExtension>
        </extensions>
      </trkpt>
      <trkpt lat="47.5289729051291942596435546875" lon="10.19382429309189319610595703125">
        <ele>1561</ele>
        <time>2026-09-01T07:43:05.000Z</time>
        <extensions>
          <ns3:TrackPointExtension>
            <ns3:hr>160</ns3:hr>
            <ns3:cad>86</ns3:cad>
          </ns3:TrackPointExtension>
        </extensions>
      </trkpt>
      <trkpt lat="47.5289685465395450592041015625" lon="10.1937895081937313079833984375">
        <ele>1561.800048828125</ele>
        <time>2026-09-01T07:43:07.000Z</time>
        <extensions>
          <ns3:TrackPointExtension>
            <ns3:hr>160</ns3:hr>
            <ns3:cad>86</ns3:cad>
          </ns3:TrackPointExtension>
        </extensions>
      </trkpt>
      <trkpt lat="47.5289623439311981201171875" lon="10.193749777972698211669921875">
        <ele>1562.4000244140625</ele>
        <time>2026-09-01T07:43:09.000Z</time>
        <extensions>
          <ns3:TrackPointExtension>
            <ns3:hr>160</ns3:hr>
            <ns3:cad>43</ns3:cad>
          </ns3:TrackPointExtension>
        </extensions>
      </trkpt>
      <trkpt lat="47.5289623439311981201171875" lon="10.19374072551727294921875">
        <ele>1562.800048828125</ele>
        <time>2026-09-01T07:43:10.000Z</time>
        <extensions>
          <ns3:TrackPointExtension>
            <ns3:hr>160</ns3:hr>
            <ns3:cad>43</ns3:cad>
          </ns3:TrackPointExtension>
        </extensions>
      </trkpt>
      <trkpt lat="47.5289527885615825653076171875" lon="10.19368213601410388946533203125">
        <ele>1563.800048828125</ele>
        <time>2026-09-01T07:43:13.000Z</time>
        <extensions>
          <ns3:TrackPointExtension>
            <ns3:hr>160</ns3:hr>
            <ns3:cad>0</ns3:cad>
          </ns3:TrackPointExtension>
        </extensions>
      </trkpt>
      <trkpt lat="47.52895438112318515777587890625" lon="10.19366897642612457275390625">
        <ele>1564.199951171875</ele>
        <time>2026-09-01T07:43:14.000Z</time>
        <extensions>
          <ns3:TrackPointExtension>
            <ns3:hr>159</ns3:hr>
            <ns3:cad>0</ns3:cad>
          </ns3:TrackPointExtension>
        </extensions>
      </trkpt>
      <trkpt lat="47.52896226011216640472412109375" lon="10.19360938109457492828369140625">
        <ele>1565</ele>
        <time>2026-09-01T07:43:17.000Z</time>
        <extensions>
          <ns3:TrackPointExtension>
            <ns3:hr>159</ns3:hr>
            <ns3:cad>0</ns3:cad>
          </ns3:TrackPointExtension>
        </extensions>
      </trkpt>
      <trkpt lat="47.52896259538829326629638671875" lon="10.193588845431804656982421875">
        <ele>1565.4000244140625</ele>
        <time>2026-09-01T07:43:18.000Z</time>
        <extensions>
          <ns3:TrackPointExtension>
            <ns3:hr>159</ns3:hr>
            <ns3:cad>0</ns3:cad>
          </ns3:TrackPointExtension>
        </extensions>
      </trkpt>
      <trkpt lat="47.52894817851483821868896484375" lon="10.19353687763214111328125">
        <ele>1566.199951171875</ele>
        <time>2026-09-01T07:43:21.000Z</time>
        <extensions>
          <ns3:TrackPointExtension>
            <ns3:hr>160</ns3:hr>
            <ns3:cad>0</ns3:cad>
          </ns3:TrackPointExtension>
        </extensions>
      </trkpt>
      <trkpt lat="47.52894113771617412567138671875" lon="10.1935132406651973724365234375">
        <ele>1566.5999755859375</ele>
        <time>2026-09-01T07:43:22.000Z</time>
        <extensions>
          <ns3:TrackPointExtension>
            <ns3:hr>160</ns3:hr>
            <ns3:cad>0</ns3:cad>
          </ns3:TrackPointExtension>
        </extensions>
      </trkpt>
      <trkpt lat="47.5289464183151721954345703125" lon="10.19346286542713642120361328125">
        <ele>1567.5999755859375</ele>
        <time>2026-09-01T07:43:25.000Z</time>
        <extensions>
          <ns3:TrackPointExtension>
            <ns3:hr>161</ns3:hr>
            <ns3:cad>0</ns3:cad>
          </ns3:TrackPointExtension>
        </extensions>
      </trkpt>
      <trkpt lat="47.5289440713822841644287109375" lon="10.19344492815434932708740234375">
        <ele>1567.800048828125</ele>
        <time>2026-09-01T07:43:26.000Z</time>
        <extensions>
          <ns3:TrackPointExtension>
            <ns3:hr>161</ns3:hr>
            <ns3:cad>0</ns3:cad>
          </ns3:TrackPointExtension>
        </extensions>
      </trkpt>
      <trkpt lat="47.5289236195385456085205078125" lon="10.19338960759341716766357421875">
        <ele>1568.5999755859375</ele>
        <time>2026-09-01T07:43:28.000Z</time>
        <extensions>
          <ns3:TrackPointExtension>
            <ns3:hr>162</ns3:hr>
            <ns3:cad>0</ns3:cad>
          </ns3:TrackPointExtension>
        </extensions>
      </trkpt>
      <trkpt lat="47.5289185903966426849365234375" lon="10.193383991718292236328125">
        <ele>1568.800048828125</ele>
        <time>2026-09-01T07:43:29.000Z</time>
        <extensions>
          <ns3:TrackPointExtension>
            <ns3:hr>162</ns3:hr>
            <ns3:cad>0</ns3:cad>
          </ns3:TrackPointExtension>
        </extensions>
      </trkpt>
      <trkpt lat="47.5288944505155086517333984375" lon="10.1933450996875762939453125">
        <ele>1569.5999755859375</ele>
        <time>2026-09-01T07:43:31.000Z</time>
        <extensions>
          <ns3:TrackPointExtension>
            <ns3:hr>162</ns3:hr>
            <ns3:cad>83</ns3:cad>
          </ns3:TrackPointExtension>
        </extensions>
      </trkpt>
      <trkpt lat="47.5288760103285312652587890625" lon="10.1932919584214687347412109375">
        <ele>1570.199951171875</ele>
        <time>2026-09-01T07:43:33.000Z</time>
        <extensions>
          <ns3:TrackPointExtension>
            <ns3:hr>162</ns3:hr>
            <ns3:cad>83</ns3:cad>
          </ns3:TrackPointExtension>
        </extensions>
      </trkpt>
      <trkpt lat="47.528868801891803741455078125" lon="10.193270333111286163330078125">
        <ele>1570.5999755859375</ele>
        <time>2026-09-01T07:43:34.000Z</time>
        <extensions>
          <ns3:TrackPointExtension>
            <ns3:hr>162</ns3:hr>
            <ns3:cad>83</ns3:cad>
          </ns3:TrackPointExtension>
        </extensions>
      </trkpt>
      <trkpt lat="47.5288592465221881866455078125" lon="10.19324292428791522979736328125">
        <ele>1570.800048828125</ele>
        <time>2026-09-01T07:43:35.000Z</time>
        <extensions>
          <ns3:TrackPointExtension>
            <ns3:hr>162</ns3:hr>
            <ns3:cad>83</ns3:cad>
          </ns3:TrackPointExtension>
        </extensions>
      </trkpt>
      <trkpt lat="47.52883887849748134613037109375" lon="10.19319179467856884002685546875">
        <ele>1571</ele>
        <time>2026-09-01T07:43:37.000Z</time>
        <extensions>
          <ns3:TrackPointExtension>
            <ns3:hr>163</ns3:hr>
            <ns3:cad>83</ns3:cad>
          </ns3:TrackPointExtension>
        </extensions>
      </trkpt>
      <trkpt lat="47.5288404710590839385986328125" lon="10.1931491307914257049560546875">
        <ele>1572</ele>
        <time>2026-09-01T07:43:40.000Z</time>
        <extensions>
          <ns3:TrackPointExtension>
            <ns3:hr>163</ns3:hr>
            <ns3:cad>40</ns3:cad>
          </ns3:TrackPointExtension>
        </extensions>
      </trkpt>
      <trkpt lat="47.528832256793975830078125" lon="10.1931256614625453948974609375">
        <ele>1572.4000244140625</ele>
        <time>2026-09-01T07:43:41.000Z</time>
        <extensions>
          <ns3:TrackPointExtension>
            <ns3:hr>163</ns3:hr>
            <ns3:cad>40</ns3:cad>
          </ns3:TrackPointExtension>
        </extensions>
      </trkpt>
      <trkpt lat="47.52882462926208972930908203125" lon="10.19311635755002498626708984375">
        <ele>1573</ele>
        <time>2026-09-01T07:43:42.000Z</time>
        <extensions>
          <ns3:TrackPointExtension>
            <ns3:hr>162</ns3:hr>
            <ns3:cad>0</ns3:cad>
          </ns3:TrackPointExtension>
        </extensions>
      </trkpt>
      <trkpt lat="47.5287824682891368865966796875" lon="10.19306573085486888885498046875">
        <ele>1573.4000244140625</ele>
        <time>2026-09-01T07:43:44.000Z</time>
        <extensions>
          <ns3:TrackPointExtension>
            <ns3:hr>162</ns3:hr>
            <ns3:cad>0</ns3:cad>
          </ns3:TrackPointExtension>
        </extensions>
      </trkpt>
      <trkpt lat="47.52873108722269535064697265625" lon="10.19295039586722850799560546875">
        <ele>1573.5999755859375</ele>
        <time>2026-09-01T07:43:48.000Z</time>
        <extensions>
          <ns3:TrackPointExtension>
            <ns3:hr>160</ns3:hr>
            <ns3:cad>88</ns3:cad>
          </ns3:TrackPointExtension>
        </extensions>
      </trkpt>
      <trkpt lat="47.52870895899832248687744140625" lon="10.19290748052299022674560546875">
        <ele>1574.199951171875</ele>
        <time>2026-09-01T07:43:50.000Z</time>
        <extensions>
          <ns3:TrackPointExtension>
            <ns3:hr>160</ns3:hr>
            <ns3:cad>41</ns3:cad>
          </ns3:TrackPointExtension>
        </extensions>
      </trkpt>
      <trkpt lat="47.52869051881134510040283203125" lon="10.19289474003016948699951171875">
        <ele>1574.4000244140625</ele>
        <time>2026-09-01T07:43:51.000Z</time>
        <extensions>
          <ns3:TrackPointExtension>
            <ns3:hr>160</ns3:hr>
            <ns3:cad>41</ns3:cad>
          </ns3:TrackPointExtension>
        </extensions>
      </trkpt>
      <trkpt lat="47.52867727540433406829833984375" lon="10.192883424460887908935546875">
        <ele>1575</ele>
        <time>2026-09-01T07:43:52.000Z</time>
        <extensions>
          <ns3:TrackPointExtension>
            <ns3:hr>160</ns3:hr>
            <ns3:cad>41</ns3:cad>
          </ns3:TrackPointExtension>
        </extensions>
      </trkpt>
      <trkpt lat="47.52865456044673919677734375" lon="10.1928735338151454925537109375">
        <ele>1575.4000244140625</ele>
        <time>2026-09-01T07:43:53.000Z</time>
        <extensions>
          <ns3:TrackPointExtension>
            <ns3:hr>160</ns3:hr>
            <ns3:cad>0</ns3:cad>
          </ns3:TrackPointExtension>
        </extensions>
      </trkpt>
      <trkpt lat="47.5286109745502471923828125" lon="10.1928145252168178558349609375">
        <ele>1576</ele>
        <time>2026-09-01T07:43:56.000Z</time>
        <extensions>
          <ns3:TrackPointExtension>
            <ns3:hr>160</ns3:hr>
            <ns3:cad>0</ns3:cad>
          </ns3:TrackPointExtension>
        </extensions>
      </trkpt>
      <trkpt lat="47.52860384993255138397216796875" lon="10.1927699334919452667236328125">
        <ele>1576.4000244140625</ele>
        <time>2026-09-01T07:43:58.000Z</time>
        <extensions>
          <ns3:TrackPointExtension>
            <ns3:hr>160</ns3:hr>
            <ns3:cad>0</ns3:cad>
          </ns3:TrackPointExtension>
        </extensions>
      </trkpt>
      <trkpt lat="47.52859018743038177490234375" lon="10.19273615442216396331787109375">
        <ele>1577</ele>
        <time>2026-09-01T07:44:00.000Z</time>
        <extensions>
          <ns3:TrackPointExtension>
            <ns3:hr>160</ns3:hr>
            <ns3:cad>0</ns3:cad>
          </ns3:TrackPointExtension>
        </extensions>
      </trkpt>
      <trkpt lat="47.52856847830116748809814453125" lon="10.19272022880613803863525390625">
        <ele>1577.4000244140625</ele>
        <time>2026-09-01T07:44:01.000Z</time>
        <extensions>
          <ns3:TrackPointExtension>
            <ns3:hr>160</ns3:hr>
            <ns3:cad>41</ns3:cad>
          </ns3:TrackPointExtension>
        </extensions>
      </trkpt>
      <trkpt lat="47.528547607362270355224609375" lon="10.1926965080201625823974609375">
        <ele>1577.5999755859375</ele>
        <time>2026-09-01T07:44:02.000Z</time>
        <extensions>
          <ns3:TrackPointExtension>
            <ns3:hr>160</ns3:hr>
            <ns3:cad>41</ns3:cad>
          </ns3:TrackPointExtension>
        </extensions>
      </trkpt>
      <trkpt lat="47.52853143028914928436279296875" lon="10.19267655909061431884765625">
        <ele>1578</ele>
        <time>2026-09-01T07:44:03.000Z</time>
        <extensions>
          <ns3:TrackPointExtension>
            <ns3:hr>160</ns3:hr>
            <ns3:cad>41</ns3:cad>
          </ns3:TrackPointExtension>
        </extensions>
      </trkpt>
      <trkpt lat="47.5284572504460811614990234375" lon="10.192550159990787506103515625">
        <ele>1578.4000244140625</ele>
        <time>2026-09-01T07:44:08.000Z</time>
        <extensions>
          <ns3:TrackPointExtension>
            <ns3:hr>160</ns3:hr>
            <ns3:cad>82</ns3:cad>
          </ns3:TrackPointExtension>
        </extensions>
      </trkpt>
      <trkpt lat="47.52840134315192699432373046875" lon="10.19240791909396648406982421875">
        <ele>1578</ele>
        <time>2026-09-01T07:44:12.000Z</time>
        <extensions>
          <ns3:TrackPointExtension>
            <ns3:hr>161</ns3:hr>
            <ns3:cad>83</ns3:cad>
          </ns3:TrackPointExtension>
        </extensions>
      </trkpt>
      <trkpt lat="47.5283633731305599212646484375" lon="10.19237489439547061920166015625">
        <ele>1578.199951171875</ele>
        <time>2026-09-01T07:44:14.000Z</time>
        <extensions>
          <ns3:TrackPointExtension>
            <ns3:hr>161</ns3:hr>
            <ns3:cad>83</ns3:cad>
          </ns3:TrackPointExtension>
        </extensions>
      </trkpt>
      <trkpt lat="47.52834887243807315826416015625" lon="10.19236986525356769561767578125">
        <ele>1578.800048828125</ele>
        <time>2026-09-01T07:44:15.000Z</time>
        <extensions>
          <ns3:TrackPointExtension>
            <ns3:hr>161</ns3:hr>
            <ns3:cad>83</ns3:cad>
          </ns3:TrackPointExtension>
        </extensions>
      </trkpt>
      <trkpt lat="47.52834283746778964996337890625" lon="10.192368440330028533935546875">
        <ele>1579.4000244140625</ele>
        <time>2026-09-01T07:44:16.000Z</time>
        <extensions>
          <ns3:TrackPointExtension>
            <ns3:hr>161</ns3:hr>
            <ns3:cad>83</ns3:cad>
          </ns3:TrackPointExtension>
        </extensions>
      </trkpt>
      <trkpt lat="47.52833529375493526458740234375" lon="10.19236718304455280303955078125">
        <ele>1579.800048828125</ele>
        <time>2026-09-01T07:44:17.000Z</time>
        <extensions>
          <ns3:TrackPointExtension>
            <ns3:hr>160</ns3:hr>
            <ns3:cad>83</ns3:cad>
          </ns3:TrackPointExtension>
        </extensions>
      </trkpt>
      <trkpt lat="47.52829891629517078399658203125" lon="10.19232611171901226043701171875">
        <ele>1580</ele>
        <time>2026-09-01T07:44:20.000Z</time>
        <extensions>
          <ns3:TrackPointExtension>
            <ns3:hr>160</ns3:hr>
            <ns3:cad>0</ns3:cad>
          </ns3:TrackPointExtension>
        </extensions>
      </trkpt>
      <trkpt lat="47.5282540731132030487060546875" lon="10.19225637428462505340576171875">
        <ele>1579.199951171875</ele>
        <time>2026-09-01T07:44:24.000Z</time>
        <extensions>
          <ns3:TrackPointExtension>
            <ns3:hr>159</ns3:hr>
            <ns3:cad>80</ns3:cad>
          </ns3:TrackPointExtension>
        </extensions>
      </trkpt>
      <trkpt lat="47.5282363034784793853759765625" lon="10.1922452263534069061279296875">
        <ele>1579.4000244140625</ele>
        <time>2026-09-01T07:44:27.000Z</time>
        <extensions>
          <ns3:TrackPointExtension>
            <ns3:hr>158</ns3:hr>
            <ns3:cad>40</ns3:cad>
          </ns3:TrackPointExtension>
        </extensions>
      </trkpt>
      <trkpt lat="47.52822666428983211517333984375" lon="10.19224497489631175994873046875">
        <ele>1579.4000244140625</ele>
        <time>2026-09-01T07:44:28.000Z</time>
        <extensions>
          <ns3:TrackPointExtension>
            <ns3:hr>158</ns3:hr>
            <ns3:cad>0</ns3:cad>
          </ns3:TrackPointExtension>
        </extensions>
      </trkpt>
      <trkpt lat="47.528174109756946563720703125" lon="10.1922542788088321685791015625">
        <ele>1579</ele>
        <time>2026-09-01T07:44:31.000Z</time>
        <extensions>
          <ns3:TrackPointExtension>
            <ns3:hr>158</ns3:hr>
            <ns3:cad>0</ns3:cad>
          </ns3:TrackPointExtension>
        </extensions>
      </trkpt>
      <trkpt lat="47.52816430293023586273193359375" lon="10.19226190634071826934814453125">
        <ele>1578.800048828125</ele>
        <time>2026-09-01T07:44:32.000Z</time>
        <extensions>
          <ns3:TrackPointExtension>
            <ns3:hr>157</ns3:hr>
            <ns3:cad>0</ns3:cad>
          </ns3:TrackPointExtension>
        </extensions>
      </trkpt>
      <trkpt lat="47.52809800207614898681640625" lon="10.192295350134372711181640625">
        <ele>1578</ele>
        <time>2026-09-01T07:44:35.000Z</time>
        <extensions>
          <ns3:TrackPointExtension>
            <ns3:hr>156</ns3:hr>
            <ns3:cad>0</ns3:cad>
          </ns3:TrackPointExtension>
        </extensions>
      </trkpt>
      <trkpt lat="47.528032958507537841796875" lon="10.1923256926238536834716796875">
        <ele>1577.5999755859375</ele>
        <time>2026-09-01T07:44:37.000Z</time>
        <extensions>
          <ns3:TrackPointExtension>
            <ns3:hr>155</ns3:hr>
            <ns3:cad>85</ns3:cad>
          </ns3:TrackPointExtension>
        </extensions>
      </trkpt>
      <trkpt lat="47.5278993509709835052490234375" lon="10.19240833818912506103515625">
        <ele>1576.800048828125</ele>
        <time>2026-09-01T07:44:41.000Z</time>
        <extensions>
          <ns3:TrackPointExtension>
            <ns3:hr>154</ns3:hr>
            <ns3:cad>84</ns3:cad>
          </ns3:TrackPointExtension>
        </extensions>
      </trkpt>
      <trkpt lat="47.527795247733592987060546875" lon="10.19252300262451171875">
        <ele>1577.199951171875</ele>
        <time>2026-09-01T07:44:46.000Z</time>
        <extensions>
          <ns3:TrackPointExtension>
            <ns3:hr>152</ns3:hr>
            <ns3:cad>86</ns3:cad>
          </ns3:TrackPointExtension>
        </extensions>
      </trkpt>
      <trkpt lat="47.52776850946247577667236328125" lon="10.192526690661907196044921875">
        <ele>1577.5999755859375</ele>
        <time>2026-09-01T07:44:47.000Z</time>
        <extensions>
          <ns3:TrackPointExtension>
            <ns3:hr>152</ns3:hr>
            <ns3:cad>86</ns3:cad>
          </ns3:TrackPointExtension>
        </extensions>
      </trkpt>
      <trkpt lat="47.52772961743175983428955078125" lon="10.19250766374170780181884765625">
        <ele>1578.5999755859375</ele>
        <time>2026-09-01T07:44:49.000Z</time>
        <extensions>
          <ns3:TrackPointExtension>
            <ns3:hr>152</ns3:hr>
            <ns3:cad>86</ns3:cad>
          </ns3:TrackPointExtension>
        </extensions>
      </trkpt>
      <trkpt lat="47.527722828090190887451171875" lon="10.19250799901783466339111328125">
        <ele>1579</ele>
        <time>2026-09-01T07:44:50.000Z</time>
        <extensions>
          <ns3:TrackPointExtension>
            <ns3:hr>152</ns3:hr>
            <ns3:cad>86</ns3:cad>
          </ns3:TrackPointExtension>
        </extensions>
      </trkpt>
      <trkpt lat="47.527699358761310577392578125" lon="10.1924819312989711761474609375">
        <ele>1580</ele>
        <time>2026-09-01T07:44:52.000Z</time>
        <extensions>
          <ns3:TrackPointExtension>
            <ns3:hr>153</ns3:hr>
            <ns3:cad>86</ns3:cad>
          </ns3:TrackPointExtension>
        </extensions>
      </trkpt>
      <trkpt lat="47.52768921665847301483154296875" lon="10.19248285330832004547119140625">
        <ele>1580.5999755859375</ele>
        <time>2026-09-01T07:44:53.000Z</time>
        <extensions>
          <ns3:TrackPointExtension>
            <ns3:hr>154</ns3:hr>
            <ns3:cad>86</ns3:cad>
          </ns3:TrackPointExtension>
        </extensions>
      </trkpt>
      <trkpt lat="47.527673877775669097900390625" lon="10.192493498325347900390625">
        <ele>1581.199951171875</ele>
        <time>2026-09-01T07:44:54.000Z</time>
        <extensions>
          <ns3:TrackPointExtension>
            <ns3:hr>153</ns3:hr>
            <ns3:cad>86</ns3:cad>
          </ns3:TrackPointExtension>
        </extensions>
      </trkpt>
      <trkpt lat="47.52765786834061145782470703125" lon="10.19249659962952136993408203125">
        <ele>1581.5999755859375</ele>
        <time>2026-09-01T07:44:55.000Z</time>
        <extensions>
          <ns3:TrackPointExtension>
            <ns3:hr>154</ns3:hr>
            <ns3:cad>86</ns3:cad>
          </ns3:TrackPointExtension>
        </extensions>
      </trkpt>
      <trkpt lat="47.52765099518001079559326171875" lon="10.192495174705982208251953125">
        <ele>1582</ele>
        <time>2026-09-01T07:44:56.000Z</time>
        <extensions>
          <ns3:TrackPointExtension>
            <ns3:hr>154</ns3:hr>
            <ns3:cad>86</ns3:cad>
          </ns3:TrackPointExtension>
        </extensions>
      </trkpt>
      <trkpt lat="47.52765032462775707244873046875" lon="10.19247547723352909088134765625">
        <ele>1582.5999755859375</ele>
        <time>2026-09-01T07:44:57.000Z</time>
        <extensions>
          <ns3:TrackPointExtension>
            <ns3:hr>154</ns3:hr>
            <ns3:cad>86</ns3:cad>
          </ns3:TrackPointExtension>
        </extensions>
      </trkpt>
      <trkpt lat="47.5276545993983745574951171875" lon="10.19246868789196014404296875">
        <ele>1582.800048828125</ele>
        <time>2026-09-01T07:44:58.000Z</time>
        <extensions>
          <ns3:TrackPointExtension>
            <ns3:hr>155</ns3:hr>
            <ns3:cad>86</ns3:cad>
          </ns3:TrackPointExtension>
        </extensions>
      </trkpt>
      <trkpt lat="47.52764428965747356414794921875" lon="10.19247413612902164459228515625">
        <ele>1583.5999755859375</ele>
        <time>2026-09-01T07:45:00.000Z</time>
        <extensions>
          <ns3:TrackPointExtension>
            <ns3:hr>156</ns3:hr>
            <ns3:cad>0</ns3:cad>
          </ns3:TrackPointExtension>
        </extensions>
      </trkpt>
      <trkpt lat="47.52763540484011173248291015625" lon="10.192479081451892852783203125">
        <ele>1584</ele>
        <time>2026-09-01T07:45:01.000Z</time>
        <extensions>
          <ns3:TrackPointExtension>
            <ns3:hr>156</ns3:hr>
            <ns3:cad>0</ns3:cad>
          </ns3:TrackPointExtension>
        </extensions>
      </trkpt>
      <trkpt lat="47.52760724164545536041259765625" lon="10.19247916527092456817626953125">
        <ele>1585.4000244140625</ele>
        <time>2026-09-01T07:45:05.000Z</time>
        <extensions>
          <ns3:TrackPointExtension>
            <ns3:hr>158</ns3:hr>
            <ns3:cad>75</ns3:cad>
          </ns3:TrackPointExtension>
        </extensions>
      </trkpt>
      <trkpt lat="47.5275942496955394744873046875" lon="10.19245770759880542755126953125">
        <ele>1586</ele>
        <time>2026-09-01T07:45:07.000Z</time>
        <extensions>
          <ns3:TrackPointExtension>
            <ns3:hr>158</ns3:hr>
            <ns3:cad>75</ns3:cad>
          </ns3:TrackPointExtension>
        </extensions>
      </trkpt>
      <trkpt lat="47.52758729271590709686279296875" lon="10.1924479007720947265625">
        <ele>1586.4000244140625</ele>
        <time>2026-09-01T07:45:08.000Z</time>
        <extensions>
          <ns3:TrackPointExtension>
            <ns3:hr>159</ns3:hr>
            <ns3:cad>58</ns3:cad>
          </ns3:TrackPointExtension>
        </extensions>
      </trkpt>
      <trkpt lat="47.5275536812841892242431640625" lon="10.19244798459112644195556640625">
        <ele>1587.4000244140625</ele>
        <time>2026-09-01T07:45:12.000Z</time>
        <extensions>
          <ns3:TrackPointExtension>
            <ns3:hr>159</ns3:hr>
            <ns3:cad>58</ns3:cad>
          </ns3:TrackPointExtension>
        </extensions>
      </trkpt>
      <trkpt lat="47.527534067630767822265625" lon="10.19247765652835369110107421875">
        <ele>1588.5999755859375</ele>
        <time>2026-09-01T07:45:15.000Z</time>
        <extensions>
          <ns3:TrackPointExtension>
            <ns3:hr>159</ns3:hr>
            <ns3:cad>51</ns3:cad>
          </ns3:TrackPointExtension>
        </extensions>
      </trkpt>
      <trkpt lat="47.52751571126282215118408203125" lon="10.1925597153604030609130859375">
        <ele>1589.800048828125</ele>
        <time>2026-09-01T07:45:20.000Z</time>
        <extensions>
          <ns3:TrackPointExtension>
            <ns3:hr>159</ns3:hr>
            <ns3:cad>62</ns3:cad>
          </ns3:TrackPointExtension>
        </extensions>
      </trkpt>
      <trkpt lat="47.52750330604612827301025390625" lon="10.1925825141370296478271484375">
        <ele>1590.4000244140625</ele>
        <time>2026-09-01T07:45:22.000Z</time>
        <extensions>
          <ns3:TrackPointExtension>
            <ns3:hr>158</ns3:hr>
            <ns3:cad>62</ns3:cad>
          </ns3:TrackPointExtension>
        </extensions>
      </trkpt>
      <trkpt lat="47.52749576233327388763427734375" lon="10.19258863292634487152099609375">
        <ele>1590.800048828125</ele>
        <time>2026-09-01T07:45:23.000Z</time>
        <extensions>
          <ns3:TrackPointExtension>
            <ns3:hr>158</ns3:hr>
            <ns3:cad>62</ns3:cad>
          </ns3:TrackPointExtension>
        </extensions>
      </trkpt>
      <trkpt lat="47.52748302184045314788818359375" lon="10.192595757544040679931640625">
        <ele>1592</ele>
        <time>2026-09-01T07:45:25.000Z</time>
        <extensions>
          <ns3:TrackPointExtension>
            <ns3:hr>157</ns3:hr>
            <ns3:cad>62</ns3:cad>
          </ns3:TrackPointExtension>
        </extensions>
      </trkpt>
      <trkpt lat="47.52747631631791591644287109375" lon="10.19260489381849765777587890625">
        <ele>1593</ele>
        <time>2026-09-01T07:45:27.000Z</time>
        <extensions>
          <ns3:TrackPointExtension>
            <ns3:hr>157</ns3:hr>
            <ns3:cad>79</ns3:cad>
          </ns3:TrackPointExtension>
        </extensions>
      </trkpt>
      <trkpt lat="47.52747044898569583892822265625" lon="10.19263439811766147613525390625">
        <ele>1594.4000244140625</ele>
        <time>2026-09-01T07:45:30.000Z</time>
        <extensions>
          <ns3:TrackPointExtension>
            <ns3:hr>157</ns3:hr>
            <ns3:cad>79</ns3:cad>
          </ns3:TrackPointExtension>
        </extensions>
      </trkpt>
      <trkpt lat="47.52744547091424465179443359375" lon="10.1926851086318492889404296875">
        <ele>1595.199951171875</ele>
        <time>2026-09-01T07:45:33.000Z</time>
        <extensions>
          <ns3:TrackPointExtension>
            <ns3:hr>160</ns3:hr>
            <ns3:cad>40</ns3:cad>
          </ns3:TrackPointExtension>
        </extensions>
      </trkpt>
      <trkpt lat="47.5274299643933773040771484375" lon="10.1926995255053043365478515625">
        <ele>1595</ele>
        <time>2026-09-01T07:45:35.000Z</time>
        <extensions>
          <ns3:TrackPointExtension>
            <ns3:hr>161</ns3:hr>
            <ns3:cad>59</ns3:cad>
          </ns3:TrackPointExtension>
        </extensions>
      </trkpt>
      <trkpt lat="47.5274138711392879486083984375" lon="10.19268971867859363555908203125">
        <ele>1595.5999755859375</ele>
        <time>2026-09-01T07:45:38.000Z</time>
        <extensions>
          <ns3:TrackPointExtension>
            <ns3:hr>162</ns3:hr>
            <ns3:cad>59</ns3:cad>
          </ns3:TrackPointExtension>
        </extensions>
      </trkpt>
      <trkpt lat="47.527421079576015472412109375" lon="10.19266407005488872528076171875">
        <ele>1596.5999755859375</ele>
        <time>2026-09-01T07:45:40.000Z</time>
        <extensions>
          <ns3:TrackPointExtension>
            <ns3:hr>163</ns3:hr>
            <ns3:cad>59</ns3:cad>
          </ns3:TrackPointExtension>
        </extensions>
      </trkpt>
      <trkpt lat="47.5274259410798549652099609375" lon="10.1926478929817676544189453125">
        <ele>1597</ele>
        <time>2026-09-01T07:45:41.000Z</time>
        <extensions>
          <ns3:TrackPointExtension>
            <ns3:hr>162</ns3:hr>
            <ns3:cad>57</ns3:cad>
          </ns3:TrackPointExtension>
        </extensions>
      </trkpt>
      <trkpt lat="47.527431137859821319580078125" lon="10.19259165041148662567138671875">
        <ele>1598.199951171875</ele>
        <time>2026-09-01T07:45:44.000Z</time>
        <extensions>
          <ns3:TrackPointExtension>
            <ns3:hr>162</ns3:hr>
            <ns3:cad>0</ns3:cad>
          </ns3:TrackPointExtension>
        </extensions>
      </trkpt>
      <trkpt lat="47.527417726814746856689453125" lon="10.19258201122283935546875">
        <ele>1599.4000244140625</ele>
        <time>2026-09-01T07:45:47.000Z</time>
        <extensions>
          <ns3:TrackPointExtension>
            <ns3:hr>162</ns3:hr>
            <ns3:cad>0</ns3:cad>
          </ns3:TrackPointExtension>
        </extensions>
      </trkpt>
      <trkpt lat="47.527411691844463348388671875" lon="10.19255829043686389923095703125">
        <ele>1600.5999755859375</ele>
        <time>2026-09-01T07:45:50.000Z</time>
        <extensions>
          <ns3:TrackPointExtension>
            <ns3:hr>162</ns3:hr>
            <ns3:cad>59</ns3:cad>
          </ns3:TrackPointExtension>
        </extensions>
      </trkpt>
      <trkpt lat="47.52740196883678436279296875" lon="10.1925224997103214263916015625">
        <ele>1601.800048828125</ele>
        <time>2026-09-01T07:45:53.000Z</time>
        <extensions>
          <ns3:TrackPointExtension>
            <ns3:hr>162</ns3:hr>
            <ns3:cad>59</ns3:cad>
          </ns3:TrackPointExtension>
        </extensions>
      </trkpt>
      <trkpt lat="47.52739735879004001617431640625" lon="10.19251369871199131011962890625">
        <ele>1602.4000244140625</ele>
        <time>2026-09-01T07:45:54.000Z</time>
        <extensions>
          <ns3:TrackPointExtension>
            <ns3:hr>162</ns3:hr>
            <ns3:cad>59</ns3:cad>
          </ns3:TrackPointExtension>
        </extensions>
      </trkpt>
      <trkpt lat="47.527394592761993408203125" lon="10.19250716082751750946044921875">
        <ele>1603.199951171875</ele>
        <time>2026-09-01T07:45:56.000Z</time>
        <extensions>
          <ns3:TrackPointExtension>
            <ns3:hr>162</ns3:hr>
            <ns3:cad>0</ns3:cad>
          </ns3:TrackPointExtension>
        </extensions>
      </trkpt>
      <trkpt lat="47.527398280799388885498046875" lon="10.1924869604408740997314453125">
        <ele>1604.5999755859375</ele>
        <time>2026-09-01T07:45:59.000Z</time>
        <extensions>
          <ns3:TrackPointExtension>
            <ns3:hr>162</ns3:hr>
            <ns3:cad>45</ns3:cad>
          </ns3:TrackPointExtension>
        </extensions>
      </trkpt>
      <trkpt lat="47.52739953808486461639404296875" lon="10.19247011281549930572509765625">
        <ele>1605.5999755859375</ele>
        <time>2026-09-01T07:46:01.000Z</time>
        <extensions>
          <ns3:TrackPointExtension>
            <ns3:hr>163</ns3:hr>
            <ns3:cad>45</ns3:cad>
          </ns3:TrackPointExtension>
        </extensions>
      </trkpt>
      <trkpt lat="47.5274148769676685333251953125" lon="10.19244932569563388824462890625">
        <ele>1606.800048828125</ele>
        <time>2026-09-01T07:46:04.000Z</time>
        <extensions>
          <ns3:TrackPointExtension>
            <ns3:hr>164</ns3:hr>
            <ns3:cad>45</ns3:cad>
          </ns3:TrackPointExtension>
        </extensions>
      </trkpt>
      <trkpt lat="47.52739585004746913909912109375" lon="10.1924353279173374176025390625">
        <ele>1607.4000244140625</ele>
        <time>2026-09-01T07:46:07.000Z</time>
        <extensions>
          <ns3:TrackPointExtension>
            <ns3:hr>164</ns3:hr>
            <ns3:cad>51</ns3:cad>
          </ns3:TrackPointExtension>
        </extensions>
      </trkpt>
      <trkpt lat="47.5273853726685047149658203125" lon="10.19243088550865650177001953125">
        <ele>1608</ele>
        <time>2026-09-01T07:46:09.000Z</time>
        <extensions>
          <ns3:TrackPointExtension>
            <ns3:hr>164</ns3:hr>
            <ns3:cad>51</ns3:cad>
          </ns3:TrackPointExtension>
        </extensions>
      </trkpt>
      <trkpt lat="47.52741429023444652557373046875" lon="10.1924170553684234619140625">
        <ele>1609.199951171875</ele>
        <time>2026-09-01T07:46:12.000Z</time>
        <extensions>
          <ns3:TrackPointExtension>
            <ns3:hr>163</ns3:hr>
            <ns3:cad>47</ns3:cad>
          </ns3:TrackPointExtension>
        </extensions>
      </trkpt>
      <trkpt lat="47.52744220197200775146484375" lon="10.1923766545951366424560546875">
        <ele>1610.199951171875</ele>
        <time>2026-09-01T07:46:16.000Z</time>
        <extensions>
          <ns3:TrackPointExtension>
            <ns3:hr>162</ns3:hr>
            <ns3:cad>45</ns3:cad>
          </ns3:TrackPointExtension>
        </extensions>
      </trkpt>
      <trkpt lat="47.527445890009403228759765625" lon="10.19236986525356769561767578125">
        <ele>1610.800048828125</ele>
        <time>2026-09-01T07:46:17.000Z</time>
        <extensions>
          <ns3:TrackPointExtension>
            <ns3:hr>162</ns3:hr>
            <ns3:cad>50</ns3:cad>
          </ns3:TrackPointExtension>
        </extensions>
      </trkpt>
      <trkpt lat="47.52745184116065502166748046875" lon="10.1923662610352039337158203125">
        <ele>1611.4000244140625</ele>
        <time>2026-09-01T07:46:18.000Z</time>
        <extensions>
          <ns3:TrackPointExtension>
            <ns3:hr>162</ns3:hr>
            <ns3:cad>50</ns3:cad>
          </ns3:TrackPointExtension>
        </extensions>
      </trkpt>
      <trkpt lat="47.52746634185314178466796875" lon="10.19233516417443752288818359375">
        <ele>1612.4000244140625</ele>
        <time>2026-09-01T07:46:20.000Z</time>
        <extensions>
          <ns3:TrackPointExtension>
            <ns3:hr>161</ns3:hr>
            <ns3:cad>50</ns3:cad>
          </ns3:TrackPointExtension>
        </extensions>
      </trkpt>
      <trkpt lat="47.527481429278850555419921875" lon="10.1923132874071598052978515625">
        <ele>1613</ele>
        <time>2026-09-01T07:46:22.000Z</time>
        <extensions>
          <ns3:TrackPointExtension>
            <ns3:hr>161</ns3:hr>
            <ns3:cad>51</ns3:cad>
          </ns3:TrackPointExtension>
        </extensions>
      </trkpt>
      <trkpt lat="47.527478747069835662841796875" lon="10.19229442812502384185791015625">
        <ele>1613.5999755859375</ele>
        <time>2026-09-01T07:46:24.000Z</time>
        <extensions>
          <ns3:TrackPointExtension>
            <ns3:hr>160</ns3:hr>
            <ns3:cad>55</ns3:cad>
          </ns3:TrackPointExtension>
        </extensions>
      </trkpt>
      <trkpt lat="47.52746776677668094635009765625" lon="10.19229526631534099578857421875">
        <ele>1613.800048828125</ele>
        <time>2026-09-01T07:46:25.000Z</time>
        <extensions>
          <ns3:TrackPointExtension>
            <ns3:hr>160</ns3:hr>
            <ns3:cad>56</ns3:cad>
          </ns3:TrackPointExtension>
        </extensions>
      </trkpt>
      <trkpt lat="47.5274430401623249053955078125" lon="10.19229861907660961151123046875">
        <ele>1614.4000244140625</ele>
        <time>2026-09-01T07:46:27.000Z</time>
        <extensions>
          <ns3:TrackPointExtension>
            <ns3:hr>160</ns3:hr>
            <ns3:cad>53</ns3:cad>
          </ns3:TrackPointExtension>
        </extensions>
      </trkpt>
      <trkpt lat="47.52742837183177471160888671875" lon="10.19229912199079990386962890625">
        <ele>1614.5999755859375</ele>
        <time>2026-09-01T07:46:28.000Z</time>
        <extensions>
          <ns3:TrackPointExtension>
            <ns3:hr>160</ns3:hr>
            <ns3:cad>53</ns3:cad>
          </ns3:TrackPointExtension>
        </extensions>
      </trkpt>
      <trkpt lat="47.527429796755313873291015625" lon="10.19228017888963222503662109375">
        <ele>1615</ele>
        <time>2026-09-01T07:46:30.000Z</time>
        <extensions>
          <ns3:TrackPointExtension>
            <ns3:hr>160</ns3:hr>
            <ns3:cad>53</ns3:cad>
          </ns3:TrackPointExtension>
        </extensions>
      </trkpt>
      <trkpt lat="47.5274473987519741058349609375" lon="10.19226073287427425384521484375">
        <ele>1615.5999755859375</ele>
        <time>2026-09-01T07:46:32.000Z</time>
        <extensions>
          <ns3:TrackPointExtension>
            <ns3:hr>160</ns3:hr>
            <ns3:cad>50</ns3:cad>
          </ns3:TrackPointExtension>
        </extensions>
      </trkpt>
      <trkpt lat="47.52745334990322589874267578125" lon="10.19224614836275577545166015625">
        <ele>1615.800048828125</ele>
        <time>2026-09-01T07:46:33.000Z</time>
        <extensions>
          <ns3:TrackPointExtension>
            <ns3:hr>161</ns3:hr>
            <ns3:cad>50</ns3:cad>
          </ns3:TrackPointExtension>
        </extensions>
      </trkpt>
      <trkpt lat="47.52744429744780063629150390625" lon="10.19222955219447612762451171875">
        <ele>1616.800048828125</ele>
        <time>2026-09-01T07:46:35.000Z</time>
        <extensions>
          <ns3:TrackPointExtension>
            <ns3:hr>161</ns3:hr>
            <ns3:cad>0</ns3:cad>
          </ns3:TrackPointExtension>
        </extensions>
      </trkpt>
      <trkpt lat="47.527433149516582489013671875" lon="10.19223407842218875885009765625">
        <ele>1617.4000244140625</ele>
        <time>2026-09-01T07:46:36.000Z</time>
        <extensions>
          <ns3:TrackPointExtension>
            <ns3:hr>161</ns3:hr>
            <ns3:cad>0</ns3:cad>
          </ns3:TrackPointExtension>
        </extensions>
      </trkpt>
      <trkpt lat="47.52740909345448017120361328125" lon="10.1922412030398845672607421875">
        <ele>1618.4000244140625</ele>
        <time>2026-09-01T07:46:38.000Z</time>
        <extensions>
          <ns3:TrackPointExtension>
            <ns3:hr>161</ns3:hr>
            <ns3:cad>41</ns3:cad>
          </ns3:TrackPointExtension>
        </extensions>
      </trkpt>
      <trkpt lat="47.527386881411075592041015625" lon="10.1922207511961460113525390625">
        <ele>1619.5999755859375</ele>
        <time>2026-09-01T07:46:41.000Z</time>
        <extensions>
          <ns3:TrackPointExtension>
            <ns3:hr>161</ns3:hr>
            <ns3:cad>41</ns3:cad>
          </ns3:TrackPointExtension>
        </extensions>
      </trkpt>
      <trkpt lat="47.52739434130489826202392578125" lon="10.19219585694372653961181640625">
        <ele>1620.4000244140625</ele>
        <time>2026-09-01T07:46:44.000Z</time>
        <extensions>
          <ns3:TrackPointExtension>
            <ns3:hr>161</ns3:hr>
            <ns3:cad>0</ns3:cad>
          </ns3:TrackPointExtension>
        </extensions>
      </trkpt>
      <trkpt lat="47.52739735879004001617431640625" lon="10.192190743982791900634765625">
        <ele>1620.800048828125</ele>
        <time>2026-09-01T07:46:45.000Z</time>
        <extensions>
          <ns3:TrackPointExtension>
            <ns3:hr>162</ns3:hr>
            <ns3:cad>0</ns3:cad>
          </ns3:TrackPointExtension>
        </extensions>
      </trkpt>
      <trkpt lat="47.52740976400673389434814453125" lon="10.192166604101657867431640625">
        <ele>1622.199951171875</ele>
        <time>2026-09-01T07:46:48.000Z</time>
        <extensions>
          <ns3:TrackPointExtension>
            <ns3:hr>162</ns3:hr>
            <ns3:cad>68</ns3:cad>
          </ns3:TrackPointExtension>
        </extensions>
      </trkpt>
      <trkpt lat="47.5274128653109073638916015625" lon="10.1921325735747814178466796875">
        <ele>1623.199951171875</ele>
        <time>2026-09-01T07:46:51.000Z</time>
        <extensions>
          <ns3:TrackPointExtension>
            <ns3:hr>163</ns3:hr>
            <ns3:cad>68</ns3:cad>
          </ns3:TrackPointExtension>
        </extensions>
      </trkpt>
      <trkpt lat="47.527425773441791534423828125" lon="10.19210684113204479217529296875">
        <ele>1624.4000244140625</ele>
        <time>2026-09-01T07:46:54.000Z</time>
        <extensions>
          <ns3:TrackPointExtension>
            <ns3:hr>162</ns3:hr>
            <ns3:cad>76</ns3:cad>
          </ns3:TrackPointExtension>
        </extensions>
      </trkpt>
      <trkpt lat="47.52743759192526340484619140625" lon="10.19209510646760463714599609375">
        <ele>1624.800048828125</ele>
        <time>2026-09-01T07:46:55.000Z</time>
        <extensions>
          <ns3:TrackPointExtension>
            <ns3:hr>162</ns3:hr>
            <ns3:cad>76</ns3:cad>
          </ns3:TrackPointExtension>
        </extensions>
      </trkpt>
      <trkpt lat="47.5274353288114070892333984375" lon="10.19205286167562007904052734375">
        <ele>1625.5999755859375</ele>
        <time>2026-09-01T07:46:57.000Z</time>
        <extensions>
          <ns3:TrackPointExtension>
            <ns3:hr>162</ns3:hr>
            <ns3:cad>78</ns3:cad>
          </ns3:TrackPointExtension>
        </extensions>
      </trkpt>
      <trkpt lat="47.52739467658102512359619140625" lon="10.19204556941986083984375">
        <ele>1626.800048828125</ele>
        <time>2026-09-01T07:47:00.000Z</time>
        <extensions>
          <ns3:TrackPointExtension>
            <ns3:hr>162</ns3:hr>
            <ns3:cad>79</ns3:cad>
          </ns3:TrackPointExtension>
        </extensions>
      </trkpt>
      <trkpt lat="47.52737891860306262969970703125" lon="10.192055962979793548583984375">
        <ele>1627.800048828125</ele>
        <time>2026-09-01T07:47:04.000Z</time>
        <extensions>
          <ns3:TrackPointExtension>
            <ns3:hr>163</ns3:hr>
            <ns3:cad>0</ns3:cad>
          </ns3:TrackPointExtension>
        </extensions>
      </trkpt>
      <trkpt lat="47.527382187545299530029296875" lon="10.1920420490205287933349609375">
        <ele>1628.199951171875</ele>
        <time>2026-09-01T07:47:05.000Z</time>
        <extensions>
          <ns3:TrackPointExtension>
            <ns3:hr>163</ns3:hr>
            <ns3:cad>59</ns3:cad>
          </ns3:TrackPointExtension>
        </extensions>
      </trkpt>
      <trkpt lat="47.52738445065915584564208984375" lon="10.19201262854039669036865234375">
        <ele>1628.800048828125</ele>
        <time>2026-09-01T07:47:07.000Z</time>
        <extensions>
          <ns3:TrackPointExtension>
            <ns3:hr>163</ns3:hr>
            <ns3:cad>59</ns3:cad>
          </ns3:TrackPointExtension>
        </extensions>
      </trkpt>
      <trkpt lat="47.52738361246883869171142578125" lon="10.19201229326426982879638671875">
        <ele>1629.5999755859375</ele>
        <time>2026-09-01T07:47:09.000Z</time>
        <extensions>
          <ns3:TrackPointExtension>
            <ns3:hr>163</ns3:hr>
            <ns3:cad>0</ns3:cad>
          </ns3:TrackPointExtension>
        </extensions>
      </trkpt>
      <trkpt lat="47.52738445065915584564208984375" lon="10.1920125447213649749755859375">
        <ele>1630</ele>
        <time>2026-09-01T07:47:10.000Z</time>
        <extensions>
          <ns3:TrackPointExtension>
            <ns3:hr>164</ns3:hr>
            <ns3:cad>0</ns3:cad>
          </ns3:TrackPointExtension>
        </extensions>
      </trkpt>
      <trkpt lat="47.52739015035331249237060546875" lon="10.1920055039227008819580078125">
        <ele>1631</ele>
        <time>2026-09-01T07:47:13.000Z</time>
        <extensions>
          <ns3:TrackPointExtension>
            <ns3:hr>164</ns3:hr>
            <ns3:cad>0</ns3:cad>
          </ns3:TrackPointExtension>
        </extensions>
      </trkpt>
      <trkpt lat="47.52741537988185882568359375" lon="10.19198815338313579559326171875">
        <ele>1632.4000244140625</ele>
        <time>2026-09-01T07:47:18.000Z</time>
        <extensions>
          <ns3:TrackPointExtension>
            <ns3:hr>163</ns3:hr>
            <ns3:cad>0</ns3:cad>
          </ns3:TrackPointExtension>
        </extensions>
      </trkpt>
      <trkpt lat="47.527398951351642608642578125" lon="10.19197138957679271697998046875">
        <ele>1633.800048828125</ele>
        <time>2026-09-01T07:47:21.000Z</time>
        <extensions>
          <ns3:TrackPointExtension>
            <ns3:hr>163</ns3:hr>
            <ns3:cad>0</ns3:cad>
          </ns3:TrackPointExtension>
        </extensions>
      </trkpt>
      <trkpt lat="47.52739668823778629302978515625" lon="10.19196233712136745452880859375">
        <ele>1635</ele>
        <time>2026-09-01T07:47:24.000Z</time>
        <extensions>
          <ns3:TrackPointExtension>
            <ns3:hr>163</ns3:hr>
            <ns3:cad>45</ns3:cad>
          </ns3:TrackPointExtension>
        </extensions>
      </trkpt>
      <trkpt lat="47.52738185226917266845703125" lon="10.19195244647562503814697265625">
        <ele>1636.199951171875</ele>
        <time>2026-09-01T07:47:27.000Z</time>
        <extensions>
          <ns3:TrackPointExtension>
            <ns3:hr>163</ns3:hr>
            <ns3:cad>44</ns3:cad>
          </ns3:TrackPointExtension>
        </extensions>
      </trkpt>
      <trkpt lat="47.5273733027279376983642578125" lon="10.1919562183320522308349609375">
        <ele>1637.199951171875</ele>
        <time>2026-09-01T07:47:30.000Z</time>
        <extensions>
          <ns3:TrackPointExtension>
            <ns3:hr>164</ns3:hr>
            <ns3:cad>43</ns3:cad>
          </ns3:TrackPointExtension>
        </extensions>
      </trkpt>
      <trkpt lat="47.52736751921474933624267578125" lon="10.19195361994206905364990234375">
        <ele>1637.5999755859375</ele>
        <time>2026-09-01T07:47:31.000Z</time>
        <extensions>
          <ns3:TrackPointExtension>
            <ns3:hr>164</ns3:hr>
            <ns3:cad>42</ns3:cad>
          </ns3:TrackPointExtension>
        </extensions>
      </trkpt>
      <trkpt lat="47.52735905349254608154296875" lon="10.19194792024791240692138671875">
        <ele>1638.4000244140625</ele>
        <time>2026-09-01T07:47:34.000Z</time>
        <extensions>
          <ns3:TrackPointExtension>
            <ns3:hr>165</ns3:hr>
            <ns3:cad>0</ns3:cad>
          </ns3:TrackPointExtension>
        </extensions>
      </trkpt>
      <trkpt lat="47.52735092304646968841552734375" lon="10.191946327686309814453125">
        <ele>1639.5999755859375</ele>
        <time>2026-09-01T07:47:38.000Z</time>
        <extensions>
          <ns3:TrackPointExtension>
            <ns3:hr>164</ns3:hr>
            <ns3:cad>0</ns3:cad>
          </ns3:TrackPointExtension>
        </extensions>
      </trkpt>
      <trkpt lat="47.52734941430389881134033203125" lon="10.19195965491235256195068359375">
        <ele>1640.800048828125</ele>
        <time>2026-09-01T07:47:41.000Z</time>
        <extensions>
          <ns3:TrackPointExtension>
            <ns3:hr>164</ns3:hr>
            <ns3:cad>0</ns3:cad>
          </ns3:TrackPointExtension>
        </extensions>
      </trkpt>
      <trkpt lat="47.52734103240072727203369140625" lon="10.19196434877812862396240234375">
        <ele>1642</ele>
        <time>2026-09-01T07:47:44.000Z</time>
        <extensions>
          <ns3:TrackPointExtension>
            <ns3:hr>164</ns3:hr>
            <ns3:cad>0</ns3:cad>
          </ns3:TrackPointExtension>
        </extensions>
      </trkpt>
      <trkpt lat="47.52732996828854084014892578125" lon="10.1919615827500820159912109375">
        <ele>1642.5999755859375</ele>
        <time>2026-09-01T07:47:46.000Z</time>
        <extensions>
          <ns3:TrackPointExtension>
            <ns3:hr>164</ns3:hr>
            <ns3:cad>0</ns3:cad>
          </ns3:TrackPointExtension>
        </extensions>
      </trkpt>
      <trkpt lat="47.52732560969889163970947265625" lon="10.19196099601686000823974609375">
        <ele>1643</ele>
        <time>2026-09-01T07:47:47.000Z</time>
        <extensions>
          <ns3:TrackPointExtension>
            <ns3:hr>165</ns3:hr>
            <ns3:cad>0</ns3:cad>
          </ns3:TrackPointExtension>
        </extensions>
      </trkpt>
      <trkpt lat="47.52730113454163074493408203125" lon="10.19195546396076679229736328125">
        <ele>1644.199951171875</ele>
        <time>2026-09-01T07:47:50.000Z</time>
        <extensions>
          <ns3:TrackPointExtension>
            <ns3:hr>164</ns3:hr>
            <ns3:cad>0</ns3:cad>
          </ns3:TrackPointExtension>
        </extensions>
      </trkpt>
      <trkpt lat="47.52727188169956207275390625" lon="10.1919555477797985076904296875">
        <ele>1644.800048828125</ele>
        <time>2026-09-01T07:47:54.000Z</time>
        <extensions>
          <ns3:TrackPointExtension>
            <ns3:hr>164</ns3:hr>
            <ns3:cad>0</ns3:cad>
          </ns3:TrackPointExtension>
        </extensions>
      </trkpt>
      <trkpt lat="47.52727682702243328094482421875" lon="10.19190098159015178680419921875">
        <ele>1645.199951171875</ele>
        <time>2026-09-01T07:47:57.000Z</time>
        <extensions>
          <ns3:TrackPointExtension>
            <ns3:hr>164</ns3:hr>
            <ns3:cad>50</ns3:cad>
          </ns3:TrackPointExtension>
        </extensions>
      </trkpt>
      <trkpt lat="47.5272790901362895965576171875" lon="10.191878266632556915283203125">
        <ele>1645.5999755859375</ele>
        <time>2026-09-01T07:47:58.000Z</time>
        <extensions>
          <ns3:TrackPointExtension>
            <ns3:hr>164</ns3:hr>
            <ns3:cad>50</ns3:cad>
          </ns3:TrackPointExtension>
        </extensions>
      </trkpt>
      <trkpt lat="47.52727900631725788116455078125" lon="10.191817581653594970703125">
        <ele>1646.4000244140625</ele>
        <time>2026-09-01T07:48:00.000Z</time>
        <extensions>
          <ns3:TrackPointExtension>
            <ns3:hr>164</ns3:hr>
            <ns3:cad>83</ns3:cad>
          </ns3:TrackPointExtension>
        </extensions>
      </trkpt>
      <trkpt lat="47.52726458944380283355712890625" lon="10.1917138136923313140869140625">
        <ele>1646.800048828125</ele>
        <time>2026-09-01T07:48:03.000Z</time>
        <extensions>
          <ns3:TrackPointExtension>
            <ns3:hr>164</ns3:hr>
            <ns3:cad>85</ns3:cad>
          </ns3:TrackPointExtension>
        </extensions>
      </trkpt>
      <trkpt lat="47.52723642624914646148681640625" lon="10.19159495830535888671875">
        <ele>1647</ele>
        <time>2026-09-01T07:48:06.000Z</time>
        <extensions>
          <ns3:TrackPointExtension>
            <ns3:hr>165</ns3:hr>
            <ns3:cad>85</ns3:cad>
          </ns3:TrackPointExtension>
        </extensions>
      </trkpt>
      <trkpt lat="47.52717590890824794769287109375" lon="10.19142262637615203857421875">
        <ele>1646.5999755859375</ele>
        <time>2026-09-01T07:48:10.000Z</time>
        <extensions>
          <ns3:TrackPointExtension>
            <ns3:hr>164</ns3:hr>
            <ns3:cad>84</ns3:cad>
          </ns3:TrackPointExtension>
        </extensions>
      </trkpt>
      <trkpt lat="47.52712762914597988128662109375" lon="10.19126244820654392242431640625">
        <ele>1646</ele>
        <time>2026-09-01T07:48:13.000Z</time>
        <extensions>
          <ns3:TrackPointExtension>
            <ns3:hr>163</ns3:hr>
            <ns3:cad>84</ns3:cad>
          </ns3:TrackPointExtension>
        </extensions>
      </trkpt>
      <trkpt lat="47.5270940177142620086669921875" lon="10.19117292948067188262939453125">
        <ele>1645.4000244140625</ele>
        <time>2026-09-01T07:48:15.000Z</time>
        <extensions>
          <ns3:TrackPointExtension>
            <ns3:hr>163</ns3:hr>
            <ns3:cad>84</ns3:cad>
          </ns3:TrackPointExtension>
        </extensions>
      </trkpt>
      <trkpt lat="47.52707851119339466094970703125" lon="10.19112079404294490814208984375">
        <ele>1645.4000244140625</ele>
        <time>2026-09-01T07:48:16.000Z</time>
        <extensions>
          <ns3:TrackPointExtension>
            <ns3:hr>163</ns3:hr>
            <ns3:cad>84</ns3:cad>
          </ns3:TrackPointExtension>
        </extensions>
      </trkpt>
      <trkpt lat="47.52704255282878875732421875" lon="10.1909979991614818572998046875">
        <ele>1645.800048828125</ele>
        <time>2026-09-01T07:48:19.000Z</time>
        <extensions>
          <ns3:TrackPointExtension>
            <ns3:hr>163</ns3:hr>
            <ns3:cad>85</ns3:cad>
          </ns3:TrackPointExtension>
        </extensions>
      </trkpt>
      <trkpt lat="47.5270333327353000640869140625" lon="10.19090856425464153289794921875">
        <ele>1646.199951171875</ele>
        <time>2026-09-01T07:48:22.000Z</time>
        <extensions>
          <ns3:TrackPointExtension>
            <ns3:hr>164</ns3:hr>
            <ns3:cad>85</ns3:cad>
          </ns3:TrackPointExtension>
        </extensions>
      </trkpt>
      <trkpt lat="47.52702805213630199432373046875" lon="10.19087486900389194488525390625">
        <ele>1646.4000244140625</ele>
        <time>2026-09-01T07:48:23.000Z</time>
        <extensions>
          <ns3:TrackPointExtension>
            <ns3:hr>164</ns3:hr>
            <ns3:cad>85</ns3:cad>
          </ns3:TrackPointExtension>
        </extensions>
      </trkpt>
      <trkpt lat="47.527015395462512969970703125" lon="10.19081954844295978546142578125">
        <ele>1646.800048828125</ele>
        <time>2026-09-01T07:48:25.000Z</time>
        <extensions>
          <ns3:TrackPointExtension>
            <ns3:hr>163</ns3:hr>
            <ns3:cad>84</ns3:cad>
          </ns3:TrackPointExtension>
        </extensions>
      </trkpt>
      <trkpt lat="47.52700231969356536865234375" lon="10.190768502652645111083984375">
        <ele>1647.4000244140625</ele>
        <time>2026-09-01T07:48:27.000Z</time>
        <extensions>
          <ns3:TrackPointExtension>
            <ns3:hr>162</ns3:hr>
            <ns3:cad>84</ns3:cad>
          </ns3:TrackPointExtension>
        </extensions>
      </trkpt>
      <trkpt lat="47.52698698081076145172119140625" lon="10.1907059736549854278564453125">
        <ele>1648.199951171875</ele>
        <time>2026-09-01T07:48:29.000Z</time>
        <extensions>
          <ns3:TrackPointExtension>
            <ns3:hr>162</ns3:hr>
            <ns3:cad>84</ns3:cad>
          </ns3:TrackPointExtension>
        </extensions>
      </trkpt>
      <trkpt lat="47.52697415649890899658203125" lon="10.190671943128108978271484375">
        <ele>1648.5999755859375</ele>
        <time>2026-09-01T07:48:30.000Z</time>
        <extensions>
          <ns3:TrackPointExtension>
            <ns3:hr>161</ns3:hr>
            <ns3:cad>84</ns3:cad>
          </ns3:TrackPointExtension>
        </extensions>
      </trkpt>
      <trkpt lat="47.52694054506719112396240234375" lon="10.19057312048971652984619140625">
        <ele>1649.199951171875</ele>
        <time>2026-09-01T07:48:33.000Z</time>
        <extensions>
          <ns3:TrackPointExtension>
            <ns3:hr>161</ns3:hr>
            <ns3:cad>85</ns3:cad>
          </ns3:TrackPointExtension>
        </extensions>
      </trkpt>
      <trkpt lat="47.52692093141376972198486328125" lon="10.19050271250307559967041015625">
        <ele>1649.5999755859375</ele>
        <time>2026-09-01T07:48:35.000Z</time>
        <extensions>
          <ns3:TrackPointExtension>
            <ns3:hr>161</ns3:hr>
            <ns3:cad>84</ns3:cad>
          </ns3:TrackPointExtension>
        </extensions>
      </trkpt>
      <trkpt lat="47.52691137604415416717529296875" lon="10.19047714769840240478515625">
        <ele>1649.5999755859375</ele>
        <time>2026-09-01T07:48:36.000Z</time>
        <extensions>
          <ns3:TrackPointExtension>
            <ns3:hr>161</ns3:hr>
            <ns3:cad>84</ns3:cad>
          </ns3:TrackPointExtension>
        </extensions>
      </trkpt>
      <trkpt lat="47.52686628140509128570556640625" lon="10.19033792428672313690185546875">
        <ele>1650.5999755859375</ele>
        <time>2026-09-01T07:48:40.000Z</time>
        <extensions>
          <ns3:TrackPointExtension>
            <ns3:hr>160</ns3:hr>
            <ns3:cad>84</ns3:cad>
          </ns3:TrackPointExtension>
        </extensions>
      </trkpt>
      <trkpt lat="47.5268365256488323211669921875" lon="10.19025444053113460540771484375">
        <ele>1651.4000244140625</ele>
        <time>2026-09-01T07:48:43.000Z</time>
        <extensions>
          <ns3:TrackPointExtension>
            <ns3:hr>159</ns3:hr>
            <ns3:cad>85</ns3:cad>
          </ns3:TrackPointExtension>
        </extensions>
      </trkpt>
      <trkpt lat="47.52681448124349117279052734375" lon="10.1901832781732082366943359375">
        <ele>1651.800048828125</ele>
        <time>2026-09-01T07:48:45.000Z</time>
        <extensions>
          <ns3:TrackPointExtension>
            <ns3:hr>160</ns3:hr>
            <ns3:cad>86</ns3:cad>
          </ns3:TrackPointExtension>
        </extensions>
      </trkpt>
      <trkpt lat="47.52678765915334224700927734375" lon="10.19010976888239383697509765625">
        <ele>1652.4000244140625</ele>
        <time>2026-09-01T07:48:47.000Z</time>
        <extensions>
          <ns3:TrackPointExtension>
            <ns3:hr>160</ns3:hr>
            <ns3:cad>86</ns3:cad>
          </ns3:TrackPointExtension>
        </extensions>
      </trkpt>
      <trkpt lat="47.52677030861377716064453125" lon="10.19004455767571926116943359375">
        <ele>1653</ele>
        <time>2026-09-01T07:48:49.000Z</time>
        <extensions>
          <ns3:TrackPointExtension>
            <ns3:hr>160</ns3:hr>
            <ns3:cad>85</ns3:cad>
          </ns3:TrackPointExtension>
        </extensions>
      </trkpt>
      <trkpt lat="47.52676217816770076751708984375" lon="10.19001505337655544281005859375">
        <ele>1653.199951171875</ele>
        <time>2026-09-01T07:48:50.000Z</time>
        <extensions>
          <ns3:TrackPointExtension>
            <ns3:hr>160</ns3:hr>
            <ns3:cad>85</ns3:cad>
          </ns3:TrackPointExtension>
        </extensions>
      </trkpt>
      <trkpt lat="47.5267346017062664031982421875" lon="10.18991832621395587921142578125">
        <ele>1654</ele>
        <time>2026-09-01T07:48:53.000Z</time>
        <extensions>
          <ns3:TrackPointExtension>
            <ns3:hr>159</ns3:hr>
            <ns3:cad>85</ns3:cad>
          </ns3:TrackPointExtension>
        </extensions>
      </trkpt>
      <trkpt lat="47.5267159938812255859375" lon="10.1898805238306522369384765625">
        <ele>1654.199951171875</ele>
        <time>2026-09-01T07:48:54.000Z</time>
        <extensions>
          <ns3:TrackPointExtension>
            <ns3:hr>160</ns3:hr>
            <ns3:cad>86</ns3:cad>
          </ns3:TrackPointExtension>
        </extensions>
      </trkpt>
      <trkpt lat="47.52668774686753749847412109375" lon="10.18979980610311031341552734375">
        <ele>1654.4000244140625</ele>
        <time>2026-09-01T07:48:57.000Z</time>
        <extensions>
          <ns3:TrackPointExtension>
            <ns3:hr>160</ns3:hr>
            <ns3:cad>86</ns3:cad>
          </ns3:TrackPointExtension>
        </extensions>
      </trkpt>
      <trkpt lat="47.5266591645777225494384765625" lon="10.1896874047815799713134765625">
        <ele>1654.800048828125</ele>
        <time>2026-09-01T07:49:00.000Z</time>
        <extensions>
          <ns3:TrackPointExtension>
            <ns3:hr>159</ns3:hr>
            <ns3:cad>84</ns3:cad>
          </ns3:TrackPointExtension>
        </extensions>
      </trkpt>
      <trkpt lat="47.5266105495393276214599609375" lon="10.18952890299260616302490234375">
        <ele>1655.199951171875</ele>
        <time>2026-09-01T07:49:04.000Z</time>
        <extensions>
          <ns3:TrackPointExtension>
            <ns3:hr>160</ns3:hr>
            <ns3:cad>84</ns3:cad>
          </ns3:TrackPointExtension>
        </extensions>
      </trkpt>
      <trkpt lat="47.52660677768290042877197265625" lon="10.18950426019728183746337890625">
        <ele>1655.5999755859375</ele>
        <time>2026-09-01T07:49:05.000Z</time>
        <extensions>
          <ns3:TrackPointExtension>
            <ns3:hr>160</ns3:hr>
            <ns3:cad>85</ns3:cad>
          </ns3:TrackPointExtension>
        </extensions>
      </trkpt>
      <trkpt lat="47.52656218595802783966064453125" lon="10.18940770067274570465087890625">
        <ele>1656.4000244140625</ele>
        <time>2026-09-01T07:49:08.000Z</time>
        <extensions>
          <ns3:TrackPointExtension>
            <ns3:hr>160</ns3:hr>
            <ns3:cad>85</ns3:cad>
          </ns3:TrackPointExtension>
        </extensions>
      </trkpt>
      <trkpt lat="47.52654944546520709991455078125" lon="10.18937182612717151641845703125">
        <ele>1656.5999755859375</ele>
        <time>2026-09-01T07:49:09.000Z</time>
        <extensions>
          <ns3:TrackPointExtension>
            <ns3:hr>160</ns3:hr>
            <ns3:cad>85</ns3:cad>
          </ns3:TrackPointExtension>
        </extensions>
      </trkpt>
      <trkpt lat="47.526493370532989501953125" lon="10.18922748975455760955810546875">
        <ele>1657.5999755859375</ele>
        <time>2026-09-01T07:49:13.000Z</time>
        <extensions>
          <ns3:TrackPointExtension>
            <ns3:hr>160</ns3:hr>
            <ns3:cad>86</ns3:cad>
          </ns3:TrackPointExtension>
        </extensions>
      </trkpt>
      <trkpt lat="47.52641935832798480987548828125" lon="10.1890802197158336639404296875">
        <ele>1657.800048828125</ele>
        <time>2026-09-01T07:49:17.000Z</time>
        <extensions>
          <ns3:TrackPointExtension>
            <ns3:hr>161</ns3:hr>
            <ns3:cad>87</ns3:cad>
          </ns3:TrackPointExtension>
        </extensions>
      </trkpt>
      <trkpt lat="47.52637158147990703582763671875" lon="10.188933201134204864501953125">
        <ele>1657.4000244140625</ele>
        <time>2026-09-01T07:49:20.000Z</time>
        <extensions>
          <ns3:TrackPointExtension>
            <ns3:hr>161</ns3:hr>
            <ns3:cad>84</ns3:cad>
          </ns3:TrackPointExtension>
        </extensions>
      </trkpt>
      <trkpt lat="47.52631475217640399932861328125" lon="10.18874603323638439178466796875">
        <ele>1656.199951171875</ele>
        <time>2026-09-01T07:49:24.000Z</time>
        <extensions>
          <ns3:TrackPointExtension>
            <ns3:hr>160</ns3:hr>
            <ns3:cad>84</ns3:cad>
          </ns3:TrackPointExtension>
        </extensions>
      </trkpt>
      <trkpt lat="47.52621375024318695068359375" lon="10.18862784840166568756103515625">
        <ele>1655.4000244140625</ele>
        <time>2026-09-01T07:49:27.000Z</time>
        <extensions>
          <ns3:TrackPointExtension>
            <ns3:hr>160</ns3:hr>
            <ns3:cad>84</ns3:cad>
          </ns3:TrackPointExtension>
        </extensions>
      </trkpt>
      <trkpt lat="47.5261183641850948333740234375" lon="10.188541598618030548095703125">
        <ele>1656.4000244140625</ele>
        <time>2026-09-01T07:49:31.000Z</time>
        <extensions>
          <ns3:TrackPointExtension>
            <ns3:hr>160</ns3:hr>
            <ns3:cad>91</ns3:cad>
          </ns3:TrackPointExtension>
        </extensions>
      </trkpt>
      <trkpt lat="47.52608257345855236053466796875" lon="10.1885082386434078216552734375">
        <ele>1657.4000244140625</ele>
        <time>2026-09-01T07:49:33.000Z</time>
        <extensions>
          <ns3:TrackPointExtension>
            <ns3:hr>161</ns3:hr>
            <ns3:cad>88</ns3:cad>
          </ns3:TrackPointExtension>
        </extensions>
      </trkpt>
      <trkpt lat="47.526033036410808563232421875" lon="10.1885045506060123443603515625">
        <ele>1658.199951171875</ele>
        <time>2026-09-01T07:49:35.000Z</time>
        <extensions>
          <ns3:TrackPointExtension>
            <ns3:hr>161</ns3:hr>
            <ns3:cad>87</ns3:cad>
          </ns3:TrackPointExtension>
        </extensions>
      </trkpt>
      <trkpt lat="47.52601660788059234619140625" lon="10.18849507905542850494384765625">
        <ele>1658.800048828125</ele>
        <time>2026-09-01T07:49:36.000Z</time>
        <extensions>
          <ns3:TrackPointExtension>
            <ns3:hr>161</ns3:hr>
            <ns3:cad>87</ns3:cad>
          </ns3:TrackPointExtension>
        </extensions>
      </trkpt>
      <trkpt lat="47.52599623985588550567626953125" lon="10.188469178974628448486328125">
        <ele>1659.800048828125</ele>
        <time>2026-09-01T07:49:38.000Z</time>
        <extensions>
          <ns3:TrackPointExtension>
            <ns3:hr>161</ns3:hr>
            <ns3:cad>87</ns3:cad>
          </ns3:TrackPointExtension>
        </extensions>
      </trkpt>
      <trkpt lat="47.52598442137241363525390625" lon="10.18845400772988796234130859375">
        <ele>1660.4000244140625</ele>
        <time>2026-09-01T07:49:39.000Z</time>
        <extensions>
          <ns3:TrackPointExtension>
            <ns3:hr>161</ns3:hr>
            <ns3:cad>87</ns3:cad>
          </ns3:TrackPointExtension>
        </extensions>
      </trkpt>
      <trkpt lat="47.52596807666122913360595703125" lon="10.18843791447579860687255859375">
        <ele>1661</ele>
        <time>2026-09-01T07:49:40.000Z</time>
        <extensions>
          <ns3:TrackPointExtension>
            <ns3:hr>162</ns3:hr>
            <ns3:cad>89</ns3:cad>
          </ns3:TrackPointExtension>
        </extensions>
      </trkpt>
      <trkpt lat="47.52590873278677463531494140625" lon="10.18835945986211299896240234375">
        <ele>1662</ele>
        <time>2026-09-01T07:49:43.000Z</time>
        <extensions>
          <ns3:TrackPointExtension>
            <ns3:hr>163</ns3:hr>
            <ns3:cad>89</ns3:cad>
          </ns3:TrackPointExtension>
        </extensions>
      </trkpt>
      <trkpt lat="47.5257924757897853851318359375" lon="10.18830715678632259368896484375">
        <ele>1661.199951171875</ele>
        <time>2026-09-01T07:49:46.000Z</time>
        <extensions>
          <ns3:TrackPointExtension>
            <ns3:hr>164</ns3:hr>
            <ns3:cad>89</ns3:cad>
          </ns3:TrackPointExtension>
        </extensions>
      </trkpt>
      <trkpt lat="47.525698430836200714111328125" lon="10.1882649958133697509765625">
        <ele>1660.5999755859375</ele>
        <time>2026-09-01T07:49:49.000Z</time>
        <extensions>
          <ns3:TrackPointExtension>
            <ns3:hr>164</ns3:hr>
            <ns3:cad>89</ns3:cad>
          </ns3:TrackPointExtension>
        </extensions>
      </trkpt>
      <trkpt lat="47.525629699230194091796875" lon="10.18818654119968414306640625">
        <ele>1660.800048828125</ele>
        <time>2026-09-01T07:49:52.000Z</time>
        <extensions>
          <ns3:TrackPointExtension>
            <ns3:hr>164</ns3:hr>
            <ns3:cad>85</ns3:cad>
          </ns3:TrackPointExtension>
        </extensions>
      </trkpt>
      <trkpt lat="47.52557362429797649383544921875" lon="10.188097693026065826416015625">
        <ele>1660.800048828125</ele>
        <time>2026-09-01T07:49:55.000Z</time>
        <extensions>
          <ns3:TrackPointExtension>
            <ns3:hr>164</ns3:hr>
            <ns3:cad>83</ns3:cad>
          </ns3:TrackPointExtension>
        </extensions>
      </trkpt>
      <trkpt lat="47.5254960916936397552490234375" lon="10.18801731057465076446533203125">
        <ele>1661.800048828125</ele>
        <time>2026-09-01T07:49:59.000Z</time>
        <extensions>
          <ns3:TrackPointExtension>
            <ns3:hr>164</ns3:hr>
            <ns3:cad>84</ns3:cad>
          </ns3:TrackPointExtension>
        </extensions>
      </trkpt>
      <trkpt lat="47.52546248026192188262939453125" lon="10.18801228143274784088134765625">
        <ele>1662.199951171875</ele>
        <time>2026-09-01T07:50:00.000Z</time>
        <extensions>
          <ns3:TrackPointExtension>
            <ns3:hr>164</ns3:hr>
            <ns3:cad>85</ns3:cad>
          </ns3:TrackPointExtension>
        </extensions>
      </trkpt>
      <trkpt lat="47.5254105962812900543212890625" lon="10.188035666942596435546875">
        <ele>1662.4000244140625</ele>
        <time>2026-09-01T07:50:02.000Z</time>
        <extensions>
          <ns3:TrackPointExtension>
            <ns3:hr>164</ns3:hr>
            <ns3:cad>85</ns3:cad>
          </ns3:TrackPointExtension>
        </extensions>
      </trkpt>
      <trkpt lat="47.5253271125257015228271484375" lon="10.188017226755619049072265625">
        <ele>1661.4000244140625</ele>
        <time>2026-09-01T07:50:05.000Z</time>
        <extensions>
          <ns3:TrackPointExtension>
            <ns3:hr>162</ns3:hr>
            <ns3:cad>85</ns3:cad>
          </ns3:TrackPointExtension>
        </extensions>
      </trkpt>
      <trkpt lat="47.52528964541852474212646484375" lon="10.1880294643342494964599609375">
        <ele>1660.800048828125</ele>
        <time>2026-09-01T07:50:06.000Z</time>
        <extensions>
          <ns3:TrackPointExtension>
            <ns3:hr>162</ns3:hr>
            <ns3:cad>85</ns3:cad>
          </ns3:TrackPointExtension>
        </extensions>
      </trkpt>
      <trkpt lat="47.525236420333385467529296875" lon="10.18801496364176273345947265625">
        <ele>1659.199951171875</ele>
        <time>2026-09-01T07:50:08.000Z</time>
        <extensions>
          <ns3:TrackPointExtension>
            <ns3:hr>162</ns3:hr>
            <ns3:cad>85</ns3:cad>
          </ns3:TrackPointExtension>
        </extensions>
      </trkpt>
      <trkpt lat="47.5251924991607666015625" lon="10.1880167238414287567138671875">
        <ele>1658.199951171875</ele>
        <time>2026-09-01T07:50:09.000Z</time>
        <extensions>
          <ns3:TrackPointExtension>
            <ns3:hr>162</ns3:hr>
            <ns3:cad>85</ns3:cad>
          </ns3:TrackPointExtension>
        </extensions>
      </trkpt>
      <trkpt lat="47.52511546947062015533447265625" lon="10.1879962719976902008056640625">
        <ele>1656.4000244140625</ele>
        <time>2026-09-01T07:50:11.000Z</time>
        <extensions>
          <ns3:TrackPointExtension>
            <ns3:hr>162</ns3:hr>
            <ns3:cad>85</ns3:cad>
          </ns3:TrackPointExtension>
        </extensions>
      </trkpt>
      <trkpt lat="47.52503684721887111663818359375" lon="10.187983028590679168701171875">
        <ele>1654.800048828125</ele>
        <time>2026-09-01T07:50:13.000Z</time>
        <extensions>
          <ns3:TrackPointExtension>
            <ns3:hr>162</ns3:hr>
            <ns3:cad>85</ns3:cad>
          </ns3:TrackPointExtension>
        </extensions>
      </trkpt>
      <trkpt lat="47.524956129491329193115234375" lon="10.18796651624143123626708984375">
        <ele>1653.5999755859375</ele>
        <time>2026-09-01T07:50:15.000Z</time>
        <extensions>
          <ns3:TrackPointExtension>
            <ns3:hr>161</ns3:hr>
            <ns3:cad>85</ns3:cad>
          </ns3:TrackPointExtension>
        </extensions>
      </trkpt>
      <trkpt lat="47.52487407065927982330322265625" lon="10.1879781670868396759033203125">
        <ele>1652.4000244140625</ele>
        <time>2026-09-01T07:50:17.000Z</time>
        <extensions>
          <ns3:TrackPointExtension>
            <ns3:hr>162</ns3:hr>
            <ns3:cad>85</ns3:cad>
          </ns3:TrackPointExtension>
        </extensions>
      </trkpt>
      <trkpt lat="47.5248037464916706085205078125" lon="10.1879976131021976470947265625">
        <ele>1651.5999755859375</ele>
        <time>2026-09-01T07:50:19.000Z</time>
        <extensions>
          <ns3:TrackPointExtension>
            <ns3:hr>161</ns3:hr>
            <ns3:cad>84</ns3:cad>
          </ns3:TrackPointExtension>
        </extensions>
      </trkpt>
      <trkpt lat="47.52476812340319156646728515625" lon="10.18800222314894199371337890625">
        <ele>1651.199951171875</ele>
        <time>2026-09-01T07:50:20.000Z</time>
        <extensions>
          <ns3:TrackPointExtension>
            <ns3:hr>161</ns3:hr>
            <ns3:cad>84</ns3:cad>
          </ns3:TrackPointExtension>
        </extensions>
      </trkpt>
      <trkpt lat="47.5246937759220600128173828125" lon="10.18796115182340145111083984375">
        <ele>1650.4000244140625</ele>
        <time>2026-09-01T07:50:22.000Z</time>
        <extensions>
          <ns3:TrackPointExtension>
            <ns3:hr>159</ns3:hr>
            <ns3:cad>83</ns3:cad>
          </ns3:TrackPointExtension>
        </extensions>
      </trkpt>
      <trkpt lat="47.52466837875545024871826171875" lon="10.18794824369251728057861328125">
        <ele>1650.199951171875</ele>
        <time>2026-09-01T07:50:23.000Z</time>
        <extensions>
          <ns3:TrackPointExtension>
            <ns3:hr>158</ns3:hr>
            <ns3:cad>83</ns3:cad>
          </ns3:TrackPointExtension>
        </extensions>
      </trkpt>
      <trkpt lat="47.52465044148266315460205078125" lon="10.1879144646227359771728515625">
        <ele>1649.800048828125</ele>
        <time>2026-09-01T07:50:24.000Z</time>
        <extensions>
          <ns3:TrackPointExtension>
            <ns3:hr>158</ns3:hr>
            <ns3:cad>83</ns3:cad>
          </ns3:TrackPointExtension>
        </extensions>
      </trkpt>
      <trkpt lat="47.52464038319885730743408203125" lon="10.18788118846714496612548828125">
        <ele>1649.4000244140625</ele>
        <time>2026-09-01T07:50:25.000Z</time>
        <extensions>
          <ns3:TrackPointExtension>
            <ns3:hr>158</ns3:hr>
            <ns3:cad>83</ns3:cad>
          </ns3:TrackPointExtension>
        </extensions>
      </trkpt>
      <trkpt lat="47.52462144009768962860107421875" lon="10.187832154333591461181640625">
        <ele>1649</ele>
        <time>2026-09-01T07:50:26.000Z</time>
        <extensions>
          <ns3:TrackPointExtension>
            <ns3:hr>158</ns3:hr>
            <ns3:cad>83</ns3:cad>
          </ns3:TrackPointExtension>
        </extensions>
      </trkpt>
      <trkpt lat="47.5245884992182254791259765625" lon="10.18776132725179195404052734375">
        <ele>1648.4000244140625</ele>
        <time>2026-09-01T07:50:28.000Z</time>
        <extensions>
          <ns3:TrackPointExtension>
            <ns3:hr>157</ns3:hr>
            <ns3:cad>83</ns3:cad>
          </ns3:TrackPointExtension>
        </extensions>
      </trkpt>
      <trkpt lat="47.52455438487231731414794921875" lon="10.18766309134662151336669921875">
        <ele>1648</ele>
        <time>2026-09-01T07:50:30.000Z</time>
        <extensions>
          <ns3:TrackPointExtension>
            <ns3:hr>157</ns3:hr>
            <ns3:cad>83</ns3:cad>
          </ns3:TrackPointExtension>
        </extensions>
      </trkpt>
      <trkpt lat="47.5245355255901813507080078125" lon="10.18761028535664081573486328125">
        <ele>1647.5999755859375</ele>
        <time>2026-09-01T07:50:31.000Z</time>
        <extensions>
          <ns3:TrackPointExtension>
            <ns3:hr>158</ns3:hr>
            <ns3:cad>83</ns3:cad>
          </ns3:TrackPointExtension>
        </extensions>
      </trkpt>
      <trkpt lat="47.5244698114693164825439453125" lon="10.18744968809187412261962890625">
        <ele>1647.199951171875</ele>
        <time>2026-09-01T07:50:35.000Z</time>
        <extensions>
          <ns3:TrackPointExtension>
            <ns3:hr>156</ns3:hr>
            <ns3:cad>84</ns3:cad>
          </ns3:TrackPointExtension>
        </extensions>
      </trkpt>
      <trkpt lat="47.5244267284870147705078125" lon="10.1873535476624965667724609375">
        <ele>1646.800048828125</ele>
        <time>2026-09-01T07:50:37.000Z</time>
        <extensions>
          <ns3:TrackPointExtension>
            <ns3:hr>156</ns3:hr>
            <ns3:cad>84</ns3:cad>
          </ns3:TrackPointExtension>
        </extensions>
      </trkpt>
      <trkpt lat="47.52437082119286060333251953125" lon="10.18727215938270092010498046875">
        <ele>1646.199951171875</ele>
        <time>2026-09-01T07:50:39.000Z</time>
        <extensions>
          <ns3:TrackPointExtension>
            <ns3:hr>156</ns3:hr>
            <ns3:cad>84</ns3:cad>
          </ns3:TrackPointExtension>
        </extensions>
      </trkpt>
      <trkpt lat="47.52432337962090969085693359375" lon="10.187173672020435333251953125">
        <ele>1645.800048828125</ele>
        <time>2026-09-01T07:50:41.000Z</time>
        <extensions>
          <ns3:TrackPointExtension>
            <ns3:hr>155</ns3:hr>
            <ns3:cad>84</ns3:cad>
          </ns3:TrackPointExtension>
        </extensions>
      </trkpt>
      <trkpt lat="47.5243087112903594970703125" lon="10.18713377416133880615234375">
        <ele>1645.5999755859375</ele>
        <time>2026-09-01T07:50:42.000Z</time>
        <extensions>
          <ns3:TrackPointExtension>
            <ns3:hr>155</ns3:hr>
            <ns3:cad>84</ns3:cad>
          </ns3:TrackPointExtension>
        </extensions>
      </trkpt>
      <trkpt lat="47.52422355115413665771484375" lon="10.1869595982134342193603515625">
        <ele>1645</ele>
        <time>2026-09-01T07:50:46.000Z</time>
        <extensions>
          <ns3:TrackPointExtension>
            <ns3:hr>154</ns3:hr>
            <ns3:cad>86</ns3:cad>
          </ns3:TrackPointExtension>
        </extensions>
      </trkpt>
      <trkpt lat="47.52415339462459087371826171875" lon="10.1868878491222858428955078125">
        <ele>1644.5999755859375</ele>
        <time>2026-09-01T07:50:48.000Z</time>
        <extensions>
          <ns3:TrackPointExtension>
            <ns3:hr>153</ns3:hr>
            <ns3:cad>85</ns3:cad>
          </ns3:TrackPointExtension>
        </extensions>
      </trkpt>
      <trkpt lat="47.524127662181854248046875" lon="10.18687494099140167236328125">
        <ele>1644.4000244140625</ele>
        <time>2026-09-01T07:50:49.000Z</time>
        <extensions>
          <ns3:TrackPointExtension>
            <ns3:hr>152</ns3:hr>
            <ns3:cad>85</ns3:cad>
          </ns3:TrackPointExtension>
        </extensions>
      </trkpt>
      <trkpt lat="47.52404987812042236328125" lon="10.18685088492929935455322265625">
        <ele>1644.800048828125</ele>
        <time>2026-09-01T07:50:53.000Z</time>
        <extensions>
          <ns3:TrackPointExtension>
            <ns3:hr>152</ns3:hr>
            <ns3:cad>84</ns3:cad>
          </ns3:TrackPointExtension>
        </extensions>
      </trkpt>
      <trkpt lat="47.524036802351474761962890625" lon="10.1868221350014209747314453125">
        <ele>1644.800048828125</ele>
        <time>2026-09-01T07:50:54.000Z</time>
        <extensions>
          <ns3:TrackPointExtension>
            <ns3:hr>152</ns3:hr>
            <ns3:cad>0</ns3:cad>
          </ns3:TrackPointExtension>
        </extensions>
      </trkpt>
      <trkpt lat="47.5239948928356170654296875" lon="10.18674627877771854400634765625">
        <ele>1643.800048828125</ele>
        <time>2026-09-01T07:50:56.000Z</time>
        <extensions>
          <ns3:TrackPointExtension>
            <ns3:hr>153</ns3:hr>
            <ns3:cad>0</ns3:cad>
          </ns3:TrackPointExtension>
        </extensions>
      </trkpt>
      <trkpt lat="47.52396580763161182403564453125" lon="10.18669950775802135467529296875">
        <ele>1643.5999755859375</ele>
        <time>2026-09-01T07:50:57.000Z</time>
        <extensions>
          <ns3:TrackPointExtension>
            <ns3:hr>153</ns3:hr>
            <ns3:cad>0</ns3:cad>
          </ns3:TrackPointExtension>
        </extensions>
      </trkpt>
      <trkpt lat="47.52391853369772434234619140625" lon="10.18663362599909305572509765625">
        <ele>1643</ele>
        <time>2026-09-01T07:50:59.000Z</time>
        <extensions>
          <ns3:TrackPointExtension>
            <ns3:hr>153</ns3:hr>
            <ns3:cad>0</ns3:cad>
          </ns3:TrackPointExtension>
        </extensions>
      </trkpt>
      <trkpt lat="47.5238364748656749725341796875" lon="10.186432711780071258544921875">
        <ele>1643</ele>
        <time>2026-09-01T07:51:04.000Z</time>
        <extensions>
          <ns3:TrackPointExtension>
            <ns3:hr>153</ns3:hr>
            <ns3:cad>85</ns3:cad>
          </ns3:TrackPointExtension>
        </extensions>
      </trkpt>
      <trkpt lat="47.5237892009317874908447265625" lon="10.1863540895283222198486328125">
        <ele>1642.4000244140625</ele>
        <time>2026-09-01T07:51:06.000Z</time>
        <extensions>
          <ns3:TrackPointExtension>
            <ns3:hr>154</ns3:hr>
            <ns3:cad>85</ns3:cad>
          </ns3:TrackPointExtension>
        </extensions>
      </trkpt>
      <trkpt lat="47.5237519852817058563232421875" lon="10.18628627993166446685791015625">
        <ele>1642.199951171875</ele>
        <time>2026-09-01T07:51:08.000Z</time>
        <extensions>
          <ns3:TrackPointExtension>
            <ns3:hr>153</ns3:hr>
            <ns3:cad>83</ns3:cad>
          </ns3:TrackPointExtension>
        </extensions>
      </trkpt>
      <trkpt lat="47.52367981709539890289306640625" lon="10.18619374372065067291259765625">
        <ele>1641.800048828125</ele>
        <time>2026-09-01T07:51:11.000Z</time>
        <extensions>
          <ns3:TrackPointExtension>
            <ns3:hr>153</ns3:hr>
            <ns3:cad>83</ns3:cad>
          </ns3:TrackPointExtension>
        </extensions>
      </trkpt>
      <trkpt lat="47.5236373208463191986083984375" lon="10.18610020168125629425048828125">
        <ele>1641.199951171875</ele>
        <time>2026-09-01T07:51:13.000Z</time>
        <extensions>
          <ns3:TrackPointExtension>
            <ns3:hr>153</ns3:hr>
            <ns3:cad>84</ns3:cad>
          </ns3:TrackPointExtension>
        </extensions>
      </trkpt>
      <trkpt lat="47.52361779101192951202392578125" lon="10.18605544231832027435302734375">
        <ele>1640.800048828125</ele>
        <time>2026-09-01T07:51:14.000Z</time>
        <extensions>
          <ns3:TrackPointExtension>
            <ns3:hr>152</ns3:hr>
            <ns3:cad>84</ns3:cad>
          </ns3:TrackPointExtension>
        </extensions>
      </trkpt>
      <trkpt lat="47.52358493395149707794189453125" lon="10.185970030725002288818359375">
        <ele>1640</ele>
        <time>2026-09-01T07:51:16.000Z</time>
        <extensions>
          <ns3:TrackPointExtension>
            <ns3:hr>152</ns3:hr>
            <ns3:cad>84</ns3:cad>
          </ns3:TrackPointExtension>
        </extensions>
      </trkpt>
      <trkpt lat="47.52354403026401996612548828125" lon="10.185877494513988494873046875">
        <ele>1639.4000244140625</ele>
        <time>2026-09-01T07:51:18.000Z</time>
        <extensions>
          <ns3:TrackPointExtension>
            <ns3:hr>153</ns3:hr>
            <ns3:cad>84</ns3:cad>
          </ns3:TrackPointExtension>
        </extensions>
      </trkpt>
      <trkpt lat="47.52350731752812862396240234375" lon="10.1857745647430419921875">
        <ele>1638.5999755859375</ele>
        <time>2026-09-01T07:51:20.000Z</time>
        <extensions>
          <ns3:TrackPointExtension>
            <ns3:hr>153</ns3:hr>
            <ns3:cad>86</ns3:cad>
          </ns3:TrackPointExtension>
        </extensions>
      </trkpt>
      <trkpt lat="47.523486949503421783447265625" lon="10.185735337436199188232421875">
        <ele>1638.4000244140625</ele>
        <time>2026-09-01T07:51:21.000Z</time>
        <extensions>
          <ns3:TrackPointExtension>
            <ns3:hr>153</ns3:hr>
            <ns3:cad>86</ns3:cad>
          </ns3:TrackPointExtension>
        </extensions>
      </trkpt>
      <trkpt lat="47.5234224088490009307861328125" lon="10.185631401836872100830078125">
        <ele>1637.5999755859375</ele>
        <time>2026-09-01T07:51:23.000Z</time>
        <extensions>
          <ns3:TrackPointExtension>
            <ns3:hr>153</ns3:hr>
            <ns3:cad>86</ns3:cad>
          </ns3:TrackPointExtension>
        </extensions>
      </trkpt>
      <trkpt lat="47.52339969389140605926513671875" lon="10.1855906657874584197998046875">
        <ele>1637.199951171875</ele>
        <time>2026-09-01T07:51:24.000Z</time>
        <extensions>
          <ns3:TrackPointExtension>
            <ns3:hr>153</ns3:hr>
            <ns3:cad>85</ns3:cad>
          </ns3:TrackPointExtension>
        </extensions>
      </trkpt>
      <trkpt lat="47.52336197532713413238525390625" lon="10.1854910887777805328369140625">
        <ele>1636.4000244140625</ele>
        <time>2026-09-01T07:51:26.000Z</time>
        <extensions>
          <ns3:TrackPointExtension>
            <ns3:hr>153</ns3:hr>
            <ns3:cad>84</ns3:cad>
          </ns3:TrackPointExtension>
        </extensions>
      </trkpt>
      <trkpt lat="47.52334353514015674591064453125" lon="10.18543903715908527374267578125">
        <ele>1636.199951171875</ele>
        <time>2026-09-01T07:51:27.000Z</time>
        <extensions>
          <ns3:TrackPointExtension>
            <ns3:hr>153</ns3:hr>
            <ns3:cad>85</ns3:cad>
          </ns3:TrackPointExtension>
        </extensions>
      </trkpt>
      <trkpt lat="47.5232896395027637481689453125" lon="10.18525430001318454742431640625">
        <ele>1635.800048828125</ele>
        <time>2026-09-01T07:51:31.000Z</time>
        <extensions>
          <ns3:TrackPointExtension>
            <ns3:hr>154</ns3:hr>
            <ns3:cad>85</ns3:cad>
          </ns3:TrackPointExtension>
        </extensions>
      </trkpt>
      <trkpt lat="47.52322736196219921112060546875" lon="10.18512689508497714996337890625">
        <ele>1635.5999755859375</ele>
        <time>2026-09-01T07:51:35.000Z</time>
        <extensions>
          <ns3:TrackPointExtension>
            <ns3:hr>152</ns3:hr>
            <ns3:cad>84</ns3:cad>
          </ns3:TrackPointExtension>
        </extensions>
      </trkpt>
      <trkpt lat="47.5232071615755558013916015625" lon="10.18507115542888641357421875">
        <ele>1635.4000244140625</ele>
        <time>2026-09-01T07:51:37.000Z</time>
        <extensions>
          <ns3:TrackPointExtension>
            <ns3:hr>152</ns3:hr>
            <ns3:cad>84</ns3:cad>
          </ns3:TrackPointExtension>
        </extensions>
      </trkpt>
      <trkpt lat="47.52317790873348712921142578125" lon="10.18498155288398265838623046875">
        <ele>1634.800048828125</ele>
        <time>2026-09-01T07:51:39.000Z</time>
        <extensions>
          <ns3:TrackPointExtension>
            <ns3:hr>151</ns3:hr>
            <ns3:cad>84</ns3:cad>
          </ns3:TrackPointExtension>
        </extensions>
      </trkpt>
      <trkpt lat="47.52313650213181972503662109375" lon="10.1848872564733028411865234375">
        <ele>1634.199951171875</ele>
        <time>2026-09-01T07:51:41.000Z</time>
        <extensions>
          <ns3:TrackPointExtension>
            <ns3:hr>152</ns3:hr>
            <ns3:cad>84</ns3:cad>
          </ns3:TrackPointExtension>
        </extensions>
      </trkpt>
      <trkpt lat="47.5231012143194675445556640625" lon="10.1848624460399150848388671875">
        <ele>1633.800048828125</ele>
        <time>2026-09-01T07:51:42.000Z</time>
        <extensions>
          <ns3:TrackPointExtension>
            <ns3:hr>151</ns3:hr>
            <ns3:cad>84</ns3:cad>
          </ns3:TrackPointExtension>
        </extensions>
      </trkpt>
      <trkpt lat="47.52303441055119037628173828125" lon="10.18485766835510730743408203125">
        <ele>1634</ele>
        <time>2026-09-01T07:51:45.000Z</time>
        <extensions>
          <ns3:TrackPointExtension>
            <ns3:hr>152</ns3:hr>
            <ns3:cad>84</ns3:cad>
          </ns3:TrackPointExtension>
        </extensions>
      </trkpt>
      <trkpt lat="47.522996775805950164794921875" lon="10.18475021235644817352294921875">
        <ele>1634.4000244140625</ele>
        <time>2026-09-01T07:51:49.000Z</time>
        <extensions>
          <ns3:TrackPointExtension>
            <ns3:hr>152</ns3:hr>
            <ns3:cad>82</ns3:cad>
          </ns3:TrackPointExtension>
        </extensions>
      </trkpt>
      <trkpt lat="47.52298344857990741729736328125" lon="10.1846773736178874969482421875">
        <ele>1634.4000244140625</ele>
        <time>2026-09-01T07:51:51.000Z</time>
        <extensions>
          <ns3:TrackPointExtension>
            <ns3:hr>152</ns3:hr>
            <ns3:cad>82</ns3:cad>
          </ns3:TrackPointExtension>
        </extensions>
      </trkpt>
      <trkpt lat="47.522971294820308685302734375" lon="10.18462859094142913818359375">
        <ele>1634.4000244140625</ele>
        <time>2026-09-01T07:51:52.000Z</time>
        <extensions>
          <ns3:TrackPointExtension>
            <ns3:hr>152</ns3:hr>
            <ns3:cad>82</ns3:cad>
          </ns3:TrackPointExtension>
        </extensions>
      </trkpt>
      <trkpt lat="47.52290767617523670196533203125" lon="10.184483416378498077392578125">
        <ele>1634.800048828125</ele>
        <time>2026-09-01T07:51:56.000Z</time>
        <extensions>
          <ns3:TrackPointExtension>
            <ns3:hr>153</ns3:hr>
            <ns3:cad>83</ns3:cad>
          </ns3:TrackPointExtension>
        </extensions>
      </trkpt>
      <trkpt lat="47.52287817187607288360595703125" lon="10.18442348577082157135009765625">
        <ele>1635.4000244140625</ele>
        <time>2026-09-01T07:51:59.000Z</time>
        <extensions>
          <ns3:TrackPointExtension>
            <ns3:hr>155</ns3:hr>
            <ns3:cad>84</ns3:cad>
          </ns3:TrackPointExtension>
        </extensions>
      </trkpt>
      <trkpt lat="47.522876746952533721923828125" lon="10.18441074527800083160400390625">
        <ele>1635.800048828125</ele>
        <time>2026-09-01T07:52:00.000Z</time>
        <extensions>
          <ns3:TrackPointExtension>
            <ns3:hr>155</ns3:hr>
            <ns3:cad>84</ns3:cad>
          </ns3:TrackPointExtension>
        </extensions>
      </trkpt>
      <trkpt lat="47.52287582494318485260009765625" lon="10.18441669642925262451171875">
        <ele>1636.5999755859375</ele>
        <time>2026-09-01T07:52:02.000Z</time>
        <extensions>
          <ns3:TrackPointExtension>
            <ns3:hr>155</ns3:hr>
            <ns3:cad>84</ns3:cad>
          </ns3:TrackPointExtension>
        </extensions>
      </trkpt>
      <trkpt lat="47.52287976443767547607421875" lon="10.1844041235744953155517578125">
        <ele>1637.199951171875</ele>
        <time>2026-09-01T07:52:04.000Z</time>
        <extensions>
          <ns3:TrackPointExtension>
            <ns3:hr>155</ns3:hr>
            <ns3:cad>84</ns3:cad>
          </ns3:TrackPointExtension>
        </extensions>
      </trkpt>
      <trkpt lat="47.5228737294673919677734375" lon="10.18438476137816905975341796875">
        <ele>1638</ele>
        <time>2026-09-01T07:52:06.000Z</time>
        <extensions>
          <ns3:TrackPointExtension>
            <ns3:hr>154</ns3:hr>
            <ns3:cad>84</ns3:cad>
          </ns3:TrackPointExtension>
        </extensions>
      </trkpt>
      <trkpt lat="47.52286409027874469757080078125" lon="10.18435928039252758026123046875">
        <ele>1639</ele>
        <time>2026-09-01T07:52:08.000Z</time>
        <extensions>
          <ns3:TrackPointExtension>
            <ns3:hr>154</ns3:hr>
            <ns3:cad>0</ns3:cad>
          </ns3:TrackPointExtension>
        </extensions>
      </trkpt>
      <trkpt lat="47.52285738475620746612548828125" lon="10.18435827456414699554443359375">
        <ele>1639.5999755859375</ele>
        <time>2026-09-01T07:52:09.000Z</time>
        <extensions>
          <ns3:TrackPointExtension>
            <ns3:hr>154</ns3:hr>
            <ns3:cad>0</ns3:cad>
          </ns3:TrackPointExtension>
        </extensions>
      </trkpt>
      <trkpt lat="47.5228561274707317352294921875" lon="10.1843578554689884185791015625">
        <ele>1640</ele>
        <time>2026-09-01T07:52:10.000Z</time>
        <extensions>
          <ns3:TrackPointExtension>
            <ns3:hr>154</ns3:hr>
            <ns3:cad>0</ns3:cad>
          </ns3:TrackPointExtension>
        </extensions>
      </trkpt>
      <trkpt lat="47.52284212969243526458740234375" lon="10.1843363977968692779541015625">
        <ele>1640.4000244140625</ele>
        <time>2026-09-01T07:52:11.000Z</time>
        <extensions>
          <ns3:TrackPointExtension>
            <ns3:hr>154</ns3:hr>
            <ns3:cad>0</ns3:cad>
          </ns3:TrackPointExtension>
        </extensions>
      </trkpt>
      <trkpt lat="47.5228192470967769622802734375" lon="10.18431317992508411407470703125">
        <ele>1640.4000244140625</ele>
        <time>2026-09-01T07:52:12.000Z</time>
        <extensions>
          <ns3:TrackPointExtension>
            <ns3:hr>155</ns3:hr>
            <ns3:cad>0</ns3:cad>
          </ns3:TrackPointExtension>
        </extensions>
      </trkpt>
      <trkpt lat="47.5227696262300014495849609375" lon="10.1842240802943706512451171875">
        <ele>1639.4000244140625</ele>
        <time>2026-09-01T07:52:15.000Z</time>
        <extensions>
          <ns3:TrackPointExtension>
            <ns3:hr>157</ns3:hr>
            <ns3:cad>0</ns3:cad>
          </ns3:TrackPointExtension>
        </extensions>
      </trkpt>
      <trkpt lat="47.52273467369377613067626953125" lon="10.1841801591217517852783203125">
        <ele>1638.4000244140625</ele>
        <time>2026-09-01T07:52:17.000Z</time>
        <extensions>
          <ns3:TrackPointExtension>
            <ns3:hr>157</ns3:hr>
            <ns3:cad>73</ns3:cad>
          </ns3:TrackPointExtension>
        </extensions>
      </trkpt>
      <trkpt lat="47.52271355129778385162353515625" lon="10.18415543250739574432373046875">
        <ele>1638.199951171875</ele>
        <time>2026-09-01T07:52:18.000Z</time>
        <extensions>
          <ns3:TrackPointExtension>
            <ns3:hr>158</ns3:hr>
            <ns3:cad>73</ns3:cad>
          </ns3:TrackPointExtension>
        </extensions>
      </trkpt>
      <trkpt lat="47.52266108058393001556396484375" lon="10.18403976224362850189208984375">
        <ele>1636.800048828125</ele>
        <time>2026-09-01T07:52:21.000Z</time>
        <extensions>
          <ns3:TrackPointExtension>
            <ns3:hr>159</ns3:hr>
            <ns3:cad>73</ns3:cad>
          </ns3:TrackPointExtension>
        </extensions>
      </trkpt>
      <trkpt lat="47.5226459093391895294189453125" lon="10.18398947082459926605224609375">
        <ele>1636.5999755859375</ele>
        <time>2026-09-01T07:52:22.000Z</time>
        <extensions>
          <ns3:TrackPointExtension>
            <ns3:hr>159</ns3:hr>
            <ns3:cad>73</ns3:cad>
          </ns3:TrackPointExtension>
        </extensions>
      </trkpt>
      <trkpt lat="47.52265823073685169219970703125" lon="10.183955691754817962646484375">
        <ele>1636.4000244140625</ele>
        <time>2026-09-01T07:52:23.000Z</time>
        <extensions>
          <ns3:TrackPointExtension>
            <ns3:hr>159</ns3:hr>
            <ns3:cad>73</ns3:cad>
          </ns3:TrackPointExtension>
        </extensions>
      </trkpt>
      <trkpt lat="47.522644065320491790771484375" lon="10.1838790811598300933837890625">
        <ele>1636.5999755859375</ele>
        <time>2026-09-01T07:52:25.000Z</time>
        <extensions>
          <ns3:TrackPointExtension>
            <ns3:hr>159</ns3:hr>
            <ns3:cad>73</ns3:cad>
          </ns3:TrackPointExtension>
        </extensions>
      </trkpt>
      <trkpt lat="47.5226086936891078948974609375" lon="10.183770619332790374755859375">
        <ele>1638</ele>
        <time>2026-09-01T07:52:29.000Z</time>
        <extensions>
          <ns3:TrackPointExtension>
            <ns3:hr>159</ns3:hr>
            <ns3:cad>86</ns3:cad>
          </ns3:TrackPointExtension>
        </extensions>
      </trkpt>
      <trkpt lat="47.52260391600430011749267578125" lon="10.183706246316432952880859375">
        <ele>1639.199951171875</ele>
        <time>2026-09-01T07:52:32.000Z</time>
        <extensions>
          <ns3:TrackPointExtension>
            <ns3:hr>159</ns3:hr>
            <ns3:cad>86</ns3:cad>
          </ns3:TrackPointExtension>
        </extensions>
      </trkpt>
      <trkpt lat="47.52258849330246448516845703125" lon="10.1836383529007434844970703125">
        <ele>1640.199951171875</ele>
        <time>2026-09-01T07:52:35.000Z</time>
        <extensions>
          <ns3:TrackPointExtension>
            <ns3:hr>159</ns3:hr>
            <ns3:cad>86</ns3:cad>
          </ns3:TrackPointExtension>
        </extensions>
      </trkpt>
      <trkpt lat="47.52254423685371875762939453125" lon="10.18354623578488826751708984375">
        <ele>1641.5999755859375</ele>
        <time>2026-09-01T07:52:39.000Z</time>
        <extensions>
          <ns3:TrackPointExtension>
            <ns3:hr>159</ns3:hr>
            <ns3:cad>85</ns3:cad>
          </ns3:TrackPointExtension>
        </extensions>
      </trkpt>
      <trkpt lat="47.522514648735523223876953125" lon="10.18348789773881435394287109375">
        <ele>1642.5999755859375</ele>
        <time>2026-09-01T07:52:42.000Z</time>
        <extensions>
          <ns3:TrackPointExtension>
            <ns3:hr>159</ns3:hr>
            <ns3:cad>86</ns3:cad>
          </ns3:TrackPointExtension>
        </extensions>
      </trkpt>
      <trkpt lat="47.52251523546874523162841796875" lon="10.18345034681260585784912109375">
        <ele>1643</ele>
        <time>2026-09-01T07:52:43.000Z</time>
        <extensions>
          <ns3:TrackPointExtension>
            <ns3:hr>159</ns3:hr>
            <ns3:cad>86</ns3:cad>
          </ns3:TrackPointExtension>
        </extensions>
      </trkpt>
      <trkpt lat="47.52249562181532382965087890625" lon="10.18343056552112102508544921875">
        <ele>1643.800048828125</ele>
        <time>2026-09-01T07:52:45.000Z</time>
        <extensions>
          <ns3:TrackPointExtension>
            <ns3:hr>159</ns3:hr>
            <ns3:cad>86</ns3:cad>
          </ns3:TrackPointExtension>
        </extensions>
      </trkpt>
      <trkpt lat="47.522481791675090789794921875" lon="10.1834093593060970306396484375">
        <ele>1644.199951171875</ele>
        <time>2026-09-01T07:52:46.000Z</time>
        <extensions>
          <ns3:TrackPointExtension>
            <ns3:hr>160</ns3:hr>
            <ns3:cad>86</ns3:cad>
          </ns3:TrackPointExtension>
        </extensions>
      </trkpt>
      <trkpt lat="47.5224467553198337554931640625" lon="10.18328673206269741058349609375">
        <ele>1644.199951171875</ele>
        <time>2026-09-01T07:52:49.000Z</time>
        <extensions>
          <ns3:TrackPointExtension>
            <ns3:hr>161</ns3:hr>
            <ns3:cad>84</ns3:cad>
          </ns3:TrackPointExtension>
        </extensions>
      </trkpt>
      <trkpt lat="47.52237894572317600250244140625" lon="10.18317927606403827667236328125">
        <ele>1643.5999755859375</ele>
        <time>2026-09-01T07:52:53.000Z</time>
        <extensions>
          <ns3:TrackPointExtension>
            <ns3:hr>162</ns3:hr>
            <ns3:cad>82</ns3:cad>
          </ns3:TrackPointExtension>
        </extensions>
      </trkpt>
      <trkpt lat="47.52232027240097522735595703125" lon="10.18308070488274097442626953125">
        <ele>1644</ele>
        <time>2026-09-01T07:52:57.000Z</time>
        <extensions>
          <ns3:TrackPointExtension>
            <ns3:hr>162</ns3:hr>
            <ns3:cad>86</ns3:cad>
          </ns3:TrackPointExtension>
        </extensions>
      </trkpt>
      <trkpt lat="47.522237710654735565185546875" lon="10.1829667948186397552490234375">
        <ele>1642.800048828125</ele>
        <time>2026-09-01T07:53:01.000Z</time>
        <extensions>
          <ns3:TrackPointExtension>
            <ns3:hr>162</ns3:hr>
            <ns3:cad>83</ns3:cad>
          </ns3:TrackPointExtension>
        </extensions>
      </trkpt>
      <trkpt lat="47.522190771996974945068359375" lon="10.18293385393917560577392578125">
        <ele>1641.5999755859375</ele>
        <time>2026-09-01T07:53:03.000Z</time>
        <extensions>
          <ns3:TrackPointExtension>
            <ns3:hr>161</ns3:hr>
            <ns3:cad>85</ns3:cad>
          </ns3:TrackPointExtension>
        </extensions>
      </trkpt>
      <trkpt lat="47.5221709907054901123046875" lon="10.18293838016688823699951171875">
        <ele>1640.800048828125</ele>
        <time>2026-09-01T07:53:04.000Z</time>
        <extensions>
          <ns3:TrackPointExtension>
            <ns3:hr>161</ns3:hr>
            <ns3:cad>85</ns3:cad>
          </ns3:TrackPointExtension>
        </extensions>
      </trkpt>
      <trkpt lat="47.52215498127043247222900390625" lon="10.18294860608875751495361328125">
        <ele>1640.199951171875</ele>
        <time>2026-09-01T07:53:05.000Z</time>
        <extensions>
          <ns3:TrackPointExtension>
            <ns3:hr>161</ns3:hr>
            <ns3:cad>85</ns3:cad>
          </ns3:TrackPointExtension>
        </extensions>
      </trkpt>
      <trkpt lat="47.5221171788871288299560546875" lon="10.1829783618450164794921875">
        <ele>1638.800048828125</ele>
        <time>2026-09-01T07:53:07.000Z</time>
        <extensions>
          <ns3:TrackPointExtension>
            <ns3:hr>161</ns3:hr>
            <ns3:cad>85</ns3:cad>
          </ns3:TrackPointExtension>
        </extensions>
      </trkpt>
      <trkpt lat="47.5220900215208530426025390625" lon="10.18299085088074207305908203125">
        <ele>1638.199951171875</ele>
        <time>2026-09-01T07:53:08.000Z</time>
        <extensions>
          <ns3:TrackPointExtension>
            <ns3:hr>160</ns3:hr>
            <ns3:cad>85</ns3:cad>
          </ns3:TrackPointExtension>
        </extensions>
      </trkpt>
      <trkpt lat="47.52207669429481029510498046875" lon="10.182996131479740142822265625">
        <ele>1637.4000244140625</ele>
        <time>2026-09-01T07:53:09.000Z</time>
        <extensions>
          <ns3:TrackPointExtension>
            <ns3:hr>160</ns3:hr>
            <ns3:cad>85</ns3:cad>
          </ns3:TrackPointExtension>
        </extensions>
      </trkpt>
      <trkpt lat="47.52204718999564647674560546875" lon="10.183015577495098114013671875">
        <ele>1635.5999755859375</ele>
        <time>2026-09-01T07:53:11.000Z</time>
        <extensions>
          <ns3:TrackPointExtension>
            <ns3:hr>161</ns3:hr>
            <ns3:cad>85</ns3:cad>
          </ns3:TrackPointExtension>
        </extensions>
      </trkpt>
      <trkpt lat="47.5220397301018238067626953125" lon="10.18300719559192657470703125">
        <ele>1634.800048828125</ele>
        <time>2026-09-01T07:53:12.000Z</time>
        <extensions>
          <ns3:TrackPointExtension>
            <ns3:hr>161</ns3:hr>
            <ns3:cad>85</ns3:cad>
          </ns3:TrackPointExtension>
        </extensions>
      </trkpt>
      <trkpt lat="47.522034533321857452392578125" lon="10.18299168907105922698974609375">
        <ele>1634.199951171875</ele>
        <time>2026-09-01T07:53:13.000Z</time>
        <extensions>
          <ns3:TrackPointExtension>
            <ns3:hr>161</ns3:hr>
            <ns3:cad>85</ns3:cad>
          </ns3:TrackPointExtension>
        </extensions>
      </trkpt>
      <trkpt lat="47.5220165960490703582763671875" lon="10.1829718239605426788330078125">
        <ele>1633.199951171875</ele>
        <time>2026-09-01T07:53:15.000Z</time>
        <extensions>
          <ns3:TrackPointExtension>
            <ns3:hr>159</ns3:hr>
            <ns3:cad>0</ns3:cad>
          </ns3:TrackPointExtension>
        </extensions>
      </trkpt>
      <trkpt lat="47.52200930379331111907958984375" lon="10.18297542817890644073486328125">
        <ele>1632.800048828125</ele>
        <time>2026-09-01T07:53:16.000Z</time>
        <extensions>
          <ns3:TrackPointExtension>
            <ns3:hr>158</ns3:hr>
            <ns3:cad>0</ns3:cad>
          </ns3:TrackPointExtension>
        </extensions>
      </trkpt>
      <trkpt lat="47.52198717556893825531005859375" lon="10.18296637572348117828369140625">
        <ele>1631.4000244140625</ele>
        <time>2026-09-01T07:53:19.000Z</time>
        <extensions>
          <ns3:TrackPointExtension>
            <ns3:hr>157</ns3:hr>
            <ns3:cad>0</ns3:cad>
          </ns3:TrackPointExtension>
        </extensions>
      </trkpt>
      <trkpt lat="47.52198717556893825531005859375" lon="10.18296637572348117828369140625">
        <ele>1631</ele>
        <time>2026-09-01T07:53:20.000Z</time>
        <extensions>
          <ns3:TrackPointExtension>
            <ns3:hr>156</ns3:hr>
            <ns3:cad>0</ns3:cad>
          </ns3:TrackPointExtension>
        </extensions>
      </trkpt>
      <trkpt lat="47.5219859182834625244140625" lon="10.18296620808541774749755859375">
        <ele>1630</ele>
        <time>2026-09-01T07:53:22.000Z</time>
        <extensions>
          <ns3:TrackPointExtension>
            <ns3:hr>155</ns3:hr>
            <ns3:cad>0</ns3:cad>
          </ns3:TrackPointExtension>
        </extensions>
      </trkpt>
      <trkpt lat="47.52194828353822231292724609375" lon="10.18293754197657108306884765625">
        <ele>1628.800048828125</ele>
        <time>2026-09-01T07:53:25.000Z</time>
        <extensions>
          <ns3:TrackPointExtension>
            <ns3:hr>153</ns3:hr>
            <ns3:cad>0</ns3:cad>
          </ns3:TrackPointExtension>
        </extensions>
      </trkpt>
      <trkpt lat="47.52192934043705463409423828125" lon="10.182901583611965179443359375">
        <ele>1627.5999755859375</ele>
        <time>2026-09-01T07:53:27.000Z</time>
        <extensions>
          <ns3:TrackPointExtension>
            <ns3:hr>154</ns3:hr>
            <ns3:cad>0</ns3:cad>
          </ns3:TrackPointExtension>
        </extensions>
      </trkpt>
      <trkpt lat="47.521917521953582763671875" lon="10.18283964134752750396728515625">
        <ele>1626.5999755859375</ele>
        <time>2026-09-01T07:53:30.000Z</time>
        <extensions>
          <ns3:TrackPointExtension>
            <ns3:hr>153</ns3:hr>
            <ns3:cad>0</ns3:cad>
          </ns3:TrackPointExtension>
        </extensions>
      </trkpt>
      <trkpt lat="47.52188642509281635284423828125" lon="10.18276973627507686614990234375">
        <ele>1626.199951171875</ele>
        <time>2026-09-01T07:53:34.000Z</time>
        <extensions>
          <ns3:TrackPointExtension>
            <ns3:hr>151</ns3:hr>
            <ns3:cad>0</ns3:cad>
          </ns3:TrackPointExtension>
        </extensions>
      </trkpt>
      <trkpt lat="47.5218462757766246795654296875" lon="10.182693041861057281494140625">
        <ele>1625.4000244140625</ele>
        <time>2026-09-01T07:53:37.000Z</time>
        <extensions>
          <ns3:TrackPointExtension>
            <ns3:hr>150</ns3:hr>
            <ns3:cad>0</ns3:cad>
          </ns3:TrackPointExtension>
        </extensions>
      </trkpt>
      <trkpt lat="47.5218357145786285400390625" lon="10.18265892751514911651611328125">
        <ele>1625</ele>
        <time>2026-09-01T07:53:38.000Z</time>
        <extensions>
          <ns3:TrackPointExtension>
            <ns3:hr>150</ns3:hr>
            <ns3:cad>0</ns3:cad>
          </ns3:TrackPointExtension>
        </extensions>
      </trkpt>
      <trkpt lat="47.52182297408580780029296875" lon="10.1826124079525470733642578125">
        <ele>1624.199951171875</ele>
        <time>2026-09-01T07:53:40.000Z</time>
        <extensions>
          <ns3:TrackPointExtension>
            <ns3:hr>150</ns3:hr>
            <ns3:cad>0</ns3:cad>
          </ns3:TrackPointExtension>
        </extensions>
      </trkpt>
      <trkpt lat="47.52181836403906345367431640625" lon="10.18259136937558650970458984375">
        <ele>1623.5999755859375</ele>
        <time>2026-09-01T07:53:41.000Z</time>
        <extensions>
          <ns3:TrackPointExtension>
            <ns3:hr>149</ns3:hr>
            <ns3:cad>0</ns3:cad>
          </ns3:TrackPointExtension>
        </extensions>
      </trkpt>
      <trkpt lat="47.5218080542981624603271484375" lon="10.1825557462871074676513671875">
        <ele>1622.800048828125</ele>
        <time>2026-09-01T07:53:43.000Z</time>
        <extensions>
          <ns3:TrackPointExtension>
            <ns3:hr>149</ns3:hr>
            <ns3:cad>0</ns3:cad>
          </ns3:TrackPointExtension>
        </extensions>
      </trkpt>
      <trkpt lat="47.52178751863539218902587890625" lon="10.1825098134577274322509765625">
        <ele>1621.5999755859375</ele>
        <time>2026-09-01T07:53:46.000Z</time>
        <extensions>
          <ns3:TrackPointExtension>
            <ns3:hr>148</ns3:hr>
            <ns3:cad>0</ns3:cad>
          </ns3:TrackPointExtension>
        </extensions>
      </trkpt>
      <trkpt lat="47.5217808969318866729736328125" lon="10.18249782733619213104248046875">
        <ele>1621.199951171875</ele>
        <time>2026-09-01T07:53:47.000Z</time>
        <extensions>
          <ns3:TrackPointExtension>
            <ns3:hr>149</ns3:hr>
            <ns3:cad>0</ns3:cad>
          </ns3:TrackPointExtension>
        </extensions>
      </trkpt>
      <trkpt lat="47.5217711739242076873779296875" lon="10.18249548040330410003662109375">
        <ele>1620.199951171875</ele>
        <time>2026-09-01T07:53:49.000Z</time>
        <extensions>
          <ns3:TrackPointExtension>
            <ns3:hr>149</ns3:hr>
            <ns3:cad>0</ns3:cad>
          </ns3:TrackPointExtension>
        </extensions>
      </trkpt>
      <trkpt lat="47.52175994217395782470703125" lon="10.18256052397191524505615234375">
        <ele>1618.800048828125</ele>
        <time>2026-09-01T07:53:51.000Z</time>
        <extensions>
          <ns3:TrackPointExtension>
            <ns3:hr>148</ns3:hr>
            <ns3:cad>0</ns3:cad>
          </ns3:TrackPointExtension>
        </extensions>
      </trkpt>
      <trkpt lat="47.52172331325709819793701171875" lon="10.182667560875415802001953125">
        <ele>1617.4000244140625</ele>
        <time>2026-09-01T07:53:53.000Z</time>
        <extensions>
          <ns3:TrackPointExtension>
            <ns3:hr>148</ns3:hr>
            <ns3:cad>0</ns3:cad>
          </ns3:TrackPointExtension>
        </extensions>
      </trkpt>
      <trkpt lat="47.52168643288314342498779296875" lon="10.18270620144903659820556640625">
        <ele>1616.800048828125</ele>
        <time>2026-09-01T07:53:54.000Z</time>
        <extensions>
          <ns3:TrackPointExtension>
            <ns3:hr>149</ns3:hr>
            <ns3:cad>0</ns3:cad>
          </ns3:TrackPointExtension>
        </extensions>
      </trkpt>
      <trkpt lat="47.5216461159288883209228515625" lon="10.18275146372616291046142578125">
        <ele>1616.199951171875</ele>
        <time>2026-09-01T07:53:55.000Z</time>
        <extensions>
          <ns3:TrackPointExtension>
            <ns3:hr>150</ns3:hr>
            <ns3:cad>0</ns3:cad>
          </ns3:TrackPointExtension>
        </extensions>
      </trkpt>
      <trkpt lat="47.52160781063139438629150390625" lon="10.18284358084201812744140625">
        <ele>1615.5999755859375</ele>
        <time>2026-09-01T07:53:57.000Z</time>
        <extensions>
          <ns3:TrackPointExtension>
            <ns3:hr>151</ns3:hr>
            <ns3:cad>0</ns3:cad>
          </ns3:TrackPointExtension>
        </extensions>
      </trkpt>
      <trkpt lat="47.52159473486244678497314453125" lon="10.18287451006472110748291015625">
        <ele>1615.5999755859375</ele>
        <time>2026-09-01T07:53:58.000Z</time>
        <extensions>
          <ns3:TrackPointExtension>
            <ns3:hr>151</ns3:hr>
            <ns3:cad>0</ns3:cad>
          </ns3:TrackPointExtension>
        </extensions>
      </trkpt>
      <trkpt lat="47.5215368159115314483642578125" lon="10.18292278982698917388916015625">
        <ele>1616.800048828125</ele>
        <time>2026-09-01T07:54:01.000Z</time>
        <extensions>
          <ns3:TrackPointExtension>
            <ns3:hr>151</ns3:hr>
            <ns3:cad>88</ns3:cad>
          </ns3:TrackPointExtension>
        </extensions>
      </trkpt>
      <trkpt lat="47.52151175402104854583740234375" lon="10.18292664550244808197021484375">
        <ele>1617.199951171875</ele>
        <time>2026-09-01T07:54:02.000Z</time>
        <extensions>
          <ns3:TrackPointExtension>
            <ns3:hr>151</ns3:hr>
            <ns3:cad>88</ns3:cad>
          </ns3:TrackPointExtension>
        </extensions>
      </trkpt>
      <trkpt lat="47.52150421030819416046142578125" lon="10.182897560298442840576171875">
        <ele>1617.800048828125</ele>
        <time>2026-09-01T07:54:03.000Z</time>
        <extensions>
          <ns3:TrackPointExtension>
            <ns3:hr>151</ns3:hr>
            <ns3:cad>89</ns3:cad>
          </ns3:TrackPointExtension>
        </extensions>
      </trkpt>
      <trkpt lat="47.52149029634892940521240234375" lon="10.18286059610545635223388671875">
        <ele>1618.4000244140625</ele>
        <time>2026-09-01T07:54:04.000Z</time>
        <extensions>
          <ns3:TrackPointExtension>
            <ns3:hr>151</ns3:hr>
            <ns3:cad>89</ns3:cad>
          </ns3:TrackPointExtension>
        </extensions>
      </trkpt>
      <trkpt lat="47.52145928330719470977783203125" lon="10.1827746815979480743408203125">
        <ele>1619.5999755859375</ele>
        <time>2026-09-01T07:54:07.000Z</time>
        <extensions>
          <ns3:TrackPointExtension>
            <ns3:hr>152</ns3:hr>
            <ns3:cad>89</ns3:cad>
          </ns3:TrackPointExtension>
        </extensions>
      </trkpt>
      <trkpt lat="47.521434389054775238037109375" lon="10.18276034854352474212646484375">
        <ele>1620</ele>
        <time>2026-09-01T07:54:08.000Z</time>
        <extensions>
          <ns3:TrackPointExtension>
            <ns3:hr>153</ns3:hr>
            <ns3:cad>89</ns3:cad>
          </ns3:TrackPointExtension>
        </extensions>
      </trkpt>
      <trkpt lat="47.521403543651103973388671875" lon="10.18272380344569683074951171875">
        <ele>1620.800048828125</ele>
        <time>2026-09-01T07:54:10.000Z</time>
        <extensions>
          <ns3:TrackPointExtension>
            <ns3:hr>153</ns3:hr>
            <ns3:cad>88</ns3:cad>
          </ns3:TrackPointExtension>
        </extensions>
      </trkpt>
      <trkpt lat="47.52138518728315830230712890625" lon="10.18269396387040615081787109375">
        <ele>1621.199951171875</ele>
        <time>2026-09-01T07:54:11.000Z</time>
        <extensions>
          <ns3:TrackPointExtension>
            <ns3:hr>153</ns3:hr>
            <ns3:cad>87</ns3:cad>
          </ns3:TrackPointExtension>
        </extensions>
      </trkpt>
      <trkpt lat="47.52135165967047214508056640625" lon="10.182639062404632568359375">
        <ele>1621.800048828125</ele>
        <time>2026-09-01T07:54:13.000Z</time>
        <extensions>
          <ns3:TrackPointExtension>
            <ns3:hr>153</ns3:hr>
            <ns3:cad>87</ns3:cad>
          </ns3:TrackPointExtension>
        </extensions>
      </trkpt>
      <trkpt lat="47.521342523396015167236328125" lon="10.18262607045471668243408203125">
        <ele>1622</ele>
        <time>2026-09-01T07:54:14.000Z</time>
        <extensions>
          <ns3:TrackPointExtension>
            <ns3:hr>154</ns3:hr>
            <ns3:cad>87</ns3:cad>
          </ns3:TrackPointExtension>
        </extensions>
      </trkpt>
      <trkpt lat="47.52132953144609928131103515625" lon="10.18252196721732616424560546875">
        <ele>1622.199951171875</ele>
        <time>2026-09-01T07:54:17.000Z</time>
        <extensions>
          <ns3:TrackPointExtension>
            <ns3:hr>155</ns3:hr>
            <ns3:cad>86</ns3:cad>
          </ns3:TrackPointExtension>
        </extensions>
      </trkpt>
      <trkpt lat="47.521272785961627960205078125" lon="10.18241954036056995391845703125">
        <ele>1622.4000244140625</ele>
        <time>2026-09-01T07:54:20.000Z</time>
        <extensions>
          <ns3:TrackPointExtension>
            <ns3:hr>156</ns3:hr>
            <ns3:cad>87</ns3:cad>
          </ns3:TrackPointExtension>
        </extensions>
      </trkpt>
      <trkpt lat="47.521201707422733306884765625" lon="10.182334966957569122314453125">
        <ele>1622.199951171875</ele>
        <time>2026-09-01T07:54:23.000Z</time>
        <extensions>
          <ns3:TrackPointExtension>
            <ns3:hr>156</ns3:hr>
            <ns3:cad>85</ns3:cad>
          </ns3:TrackPointExtension>
        </extensions>
      </trkpt>
      <trkpt lat="47.5211304612457752227783203125" lon="10.1822402514517307281494140625">
        <ele>1622.4000244140625</ele>
        <time>2026-09-01T07:54:26.000Z</time>
        <extensions>
          <ns3:TrackPointExtension>
            <ns3:hr>158</ns3:hr>
            <ns3:cad>85</ns3:cad>
          </ns3:TrackPointExtension>
        </extensions>
      </trkpt>
      <trkpt lat="47.52107061445713043212890625" lon="10.182185433804988861083984375">
        <ele>1622.800048828125</ele>
        <time>2026-09-01T07:54:28.000Z</time>
        <extensions>
          <ns3:TrackPointExtension>
            <ns3:hr>158</ns3:hr>
            <ns3:cad>85</ns3:cad>
          </ns3:TrackPointExtension>
        </extensions>
      </trkpt>
      <trkpt lat="47.5210248492658138275146484375" lon="10.18212080933153629302978515625">
        <ele>1623</ele>
        <time>2026-09-01T07:54:30.000Z</time>
        <extensions>
          <ns3:TrackPointExtension>
            <ns3:hr>159</ns3:hr>
            <ns3:cad>85</ns3:cad>
          </ns3:TrackPointExtension>
        </extensions>
      </trkpt>
      <trkpt lat="47.52098134718835353851318359375" lon="10.1820793189108371734619140625">
        <ele>1622.4000244140625</ele>
        <time>2026-09-01T07:54:33.000Z</time>
        <extensions>
          <ns3:TrackPointExtension>
            <ns3:hr>159</ns3:hr>
            <ns3:cad>82</ns3:cad>
          </ns3:TrackPointExtension>
        </extensions>
      </trkpt>
      <trkpt lat="47.52092988230288028717041015625" lon="10.18198871053755283355712890625">
        <ele>1621.800048828125</ele>
        <time>2026-09-01T07:54:36.000Z</time>
        <extensions>
          <ns3:TrackPointExtension>
            <ns3:hr>159</ns3:hr>
            <ns3:cad>81</ns3:cad>
          </ns3:TrackPointExtension>
        </extensions>
      </trkpt>
      <trkpt lat="47.5209148786962032318115234375" lon="10.18194562755525112152099609375">
        <ele>1621.4000244140625</ele>
        <time>2026-09-01T07:54:37.000Z</time>
        <extensions>
          <ns3:TrackPointExtension>
            <ns3:hr>159</ns3:hr>
            <ns3:cad>81</ns3:cad>
          </ns3:TrackPointExtension>
        </extensions>
      </trkpt>
      <trkpt lat="47.52087757922708988189697265625" lon="10.1818392612040042877197265625">
        <ele>1620.5999755859375</ele>
        <time>2026-09-01T07:54:39.000Z</time>
        <extensions>
          <ns3:TrackPointExtension>
            <ns3:hr>158</ns3:hr>
            <ns3:cad>81</ns3:cad>
          </ns3:TrackPointExtension>
        </extensions>
      </trkpt>
      <trkpt lat="47.52085628919303417205810546875" lon="10.1817903108894824981689453125">
        <ele>1620.5999755859375</ele>
        <time>2026-09-01T07:54:40.000Z</time>
        <extensions>
          <ns3:TrackPointExtension>
            <ns3:hr>159</ns3:hr>
            <ns3:cad>81</ns3:cad>
          </ns3:TrackPointExtension>
        </extensions>
      </trkpt>
      <trkpt lat="47.52081354148685932159423828125" lon="10.18163683824241161346435546875">
        <ele>1621</ele>
        <time>2026-09-01T07:54:44.000Z</time>
        <extensions>
          <ns3:TrackPointExtension>
            <ns3:hr>158</ns3:hr>
            <ns3:cad>81</ns3:cad>
          </ns3:TrackPointExtension>
        </extensions>
      </trkpt>
      <trkpt lat="47.52078688703477382659912109375" lon="10.1816075854003429412841796875">
        <ele>1621</ele>
        <time>2026-09-01T07:54:45.000Z</time>
        <extensions>
          <ns3:TrackPointExtension>
            <ns3:hr>158</ns3:hr>
            <ns3:cad>81</ns3:cad>
          </ns3:TrackPointExtension>
        </extensions>
      </trkpt>
      <trkpt lat="47.5207217596471309661865234375" lon="10.18152125179767608642578125">
        <ele>1621.4000244140625</ele>
        <time>2026-09-01T07:54:48.000Z</time>
        <extensions>
          <ns3:TrackPointExtension>
            <ns3:hr>158</ns3:hr>
            <ns3:cad>86</ns3:cad>
          </ns3:TrackPointExtension>
        </extensions>
      </trkpt>
      <trkpt lat="47.52070222981274127960205078125" lon="10.18147473223507404327392578125">
        <ele>1621.5999755859375</ele>
        <time>2026-09-01T07:54:49.000Z</time>
        <extensions>
          <ns3:TrackPointExtension>
            <ns3:hr>157</ns3:hr>
            <ns3:cad>86</ns3:cad>
          </ns3:TrackPointExtension>
        </extensions>
      </trkpt>
      <trkpt lat="47.52069602720439434051513671875" lon="10.18141807056963443756103515625">
        <ele>1622.4000244140625</ele>
        <time>2026-09-01T07:54:51.000Z</time>
        <extensions>
          <ns3:TrackPointExtension>
            <ns3:hr>158</ns3:hr>
            <ns3:cad>86</ns3:cad>
          </ns3:TrackPointExtension>
        </extensions>
      </trkpt>
      <trkpt lat="47.52069066278636455535888671875" lon="10.18136291764676570892333984375">
        <ele>1622.800048828125</ele>
        <time>2026-09-01T07:54:53.000Z</time>
        <extensions>
          <ns3:TrackPointExtension>
            <ns3:hr>158</ns3:hr>
            <ns3:cad>87</ns3:cad>
          </ns3:TrackPointExtension>
        </extensions>
      </trkpt>
      <trkpt lat="47.52067088149487972259521484375" lon="10.1812773384153842926025390625">
        <ele>1623.199951171875</ele>
        <time>2026-09-01T07:54:55.000Z</time>
        <extensions>
          <ns3:TrackPointExtension>
            <ns3:hr>159</ns3:hr>
            <ns3:cad>87</ns3:cad>
          </ns3:TrackPointExtension>
        </extensions>
      </trkpt>
      <trkpt lat="47.52064640633761882781982421875" lon="10.18106401897966861724853515625">
        <ele>1622.4000244140625</ele>
        <time>2026-09-01T07:55:00.000Z</time>
        <extensions>
          <ns3:TrackPointExtension>
            <ns3:hr>158</ns3:hr>
            <ns3:cad>85</ns3:cad>
          </ns3:TrackPointExtension>
        </extensions>
      </trkpt>
      <trkpt lat="47.52065864391624927520751953125" lon="10.1809460856020450592041015625">
        <ele>1621.800048828125</ele>
        <time>2026-09-01T07:55:03.000Z</time>
        <extensions>
          <ns3:TrackPointExtension>
            <ns3:hr>157</ns3:hr>
            <ns3:cad>82</ns3:cad>
          </ns3:TrackPointExtension>
        </extensions>
      </trkpt>
      <trkpt lat="47.52067842520773410797119140625" lon="10.18091817386448383331298828125">
        <ele>1621.800048828125</ele>
        <time>2026-09-01T07:55:04.000Z</time>
        <extensions>
          <ns3:TrackPointExtension>
            <ns3:hr>156</ns3:hr>
            <ns3:cad>81</ns3:cad>
          </ns3:TrackPointExtension>
        </extensions>
      </trkpt>
      <trkpt lat="47.52068831585347652435302734375" lon="10.18090476281940937042236328125">
        <ele>1621.800048828125</ele>
        <time>2026-09-01T07:55:05.000Z</time>
        <extensions>
          <ns3:TrackPointExtension>
            <ns3:hr>156</ns3:hr>
            <ns3:cad>81</ns3:cad>
          </ns3:TrackPointExtension>
        </extensions>
      </trkpt>
      <trkpt lat="47.52070248126983642578125" lon="10.1808797009289264678955078125">
        <ele>1622.4000244140625</ele>
        <time>2026-09-01T07:55:07.000Z</time>
        <extensions>
          <ns3:TrackPointExtension>
            <ns3:hr>157</ns3:hr>
            <ns3:cad>83</ns3:cad>
          </ns3:TrackPointExtension>
        </extensions>
      </trkpt>
      <trkpt lat="47.52070792950689792633056640625" lon="10.1808602549135684967041015625">
        <ele>1622.800048828125</ele>
        <time>2026-09-01T07:55:08.000Z</time>
        <extensions>
          <ns3:TrackPointExtension>
            <ns3:hr>156</ns3:hr>
            <ns3:cad>83</ns3:cad>
          </ns3:TrackPointExtension>
        </extensions>
      </trkpt>
      <trkpt lat="47.5207090191543102264404296875" lon="10.1808364503085613250732421875">
        <ele>1623.199951171875</ele>
        <time>2026-09-01T07:55:09.000Z</time>
        <extensions>
          <ns3:TrackPointExtension>
            <ns3:hr>156</ns3:hr>
            <ns3:cad>83</ns3:cad>
          </ns3:TrackPointExtension>
        </extensions>
      </trkpt>
      <trkpt lat="47.52067959867417812347412109375" lon="10.18069253303110599517822265625">
        <ele>1623.800048828125</ele>
        <time>2026-09-01T07:55:12.000Z</time>
        <extensions>
          <ns3:TrackPointExtension>
            <ns3:hr>157</ns3:hr>
            <ns3:cad>87</ns3:cad>
          </ns3:TrackPointExtension>
        </extensions>
      </trkpt>
      <trkpt lat="47.5206526927649974822998046875" lon="10.180520452558994293212890625">
        <ele>1623.199951171875</ele>
        <time>2026-09-01T07:55:16.000Z</time>
        <extensions>
          <ns3:TrackPointExtension>
            <ns3:hr>158</ns3:hr>
            <ns3:cad>84</ns3:cad>
          </ns3:TrackPointExtension>
        </extensions>
      </trkpt>
      <trkpt lat="47.5206604041159152984619140625" lon="10.1804329454898834228515625">
        <ele>1624</ele>
        <time>2026-09-01T07:55:19.000Z</time>
        <extensions>
          <ns3:TrackPointExtension>
            <ns3:hr>159</ns3:hr>
            <ns3:cad>86</ns3:cad>
          </ns3:TrackPointExtension>
        </extensions>
      </trkpt>
      <trkpt lat="47.52067574299871921539306640625" lon="10.18036580644547939300537109375">
        <ele>1624.199951171875</ele>
        <time>2026-09-01T07:55:21.000Z</time>
        <extensions>
          <ns3:TrackPointExtension>
            <ns3:hr>160</ns3:hr>
            <ns3:cad>87</ns3:cad>
          </ns3:TrackPointExtension>
        </extensions>
      </trkpt>
      <trkpt lat="47.520636431872844696044921875" lon="10.18015324138104915618896484375">
        <ele>1623</ele>
        <time>2026-09-01T07:55:25.000Z</time>
        <extensions>
          <ns3:TrackPointExtension>
            <ns3:hr>159</ns3:hr>
            <ns3:cad>87</ns3:cad>
          </ns3:TrackPointExtension>
        </extensions>
      </trkpt>
      <trkpt lat="47.52062159590423107147216796875" lon="10.18008199520409107208251953125">
        <ele>1623.5999755859375</ele>
        <time>2026-09-01T07:55:28.000Z</time>
        <extensions>
          <ns3:TrackPointExtension>
            <ns3:hr>159</ns3:hr>
            <ns3:cad>89</ns3:cad>
          </ns3:TrackPointExtension>
        </extensions>
      </trkpt>
      <trkpt lat="47.52063165418803691864013671875" lon="10.1799912191927433013916015625">
        <ele>1624.800048828125</ele>
        <time>2026-09-01T07:55:31.000Z</time>
        <extensions>
          <ns3:TrackPointExtension>
            <ns3:hr>159</ns3:hr>
            <ns3:cad>89</ns3:cad>
          </ns3:TrackPointExtension>
        </extensions>
      </trkpt>
      <trkpt lat="47.5206389464437961578369140625" lon="10.17996682785451412200927734375">
        <ele>1625.199951171875</ele>
        <time>2026-09-01T07:55:32.000Z</time>
        <extensions>
          <ns3:TrackPointExtension>
            <ns3:hr>160</ns3:hr>
            <ns3:cad>89</ns3:cad>
          </ns3:TrackPointExtension>
        </extensions>
      </trkpt>
      <trkpt lat="47.5206308998167514801025390625" lon="10.17991083674132823944091796875">
        <ele>1626.5999755859375</ele>
        <time>2026-09-01T07:55:35.000Z</time>
        <extensions>
          <ns3:TrackPointExtension>
            <ns3:hr>160</ns3:hr>
            <ns3:cad>88</ns3:cad>
          </ns3:TrackPointExtension>
        </extensions>
      </trkpt>
      <trkpt lat="47.52061807550489902496337890625" lon="10.179833807051181793212890625">
        <ele>1628</ele>
        <time>2026-09-01T07:55:38.000Z</time>
        <extensions>
          <ns3:TrackPointExtension>
            <ns3:hr>160</ns3:hr>
            <ns3:cad>88</ns3:cad>
          </ns3:TrackPointExtension>
        </extensions>
      </trkpt>
      <trkpt lat="47.520590163767337799072265625" lon="10.179753005504608154296875">
        <ele>1629.199951171875</ele>
        <time>2026-09-01T07:55:41.000Z</time>
        <extensions>
          <ns3:TrackPointExtension>
            <ns3:hr>161</ns3:hr>
            <ns3:cad>84</ns3:cad>
          </ns3:TrackPointExtension>
        </extensions>
      </trkpt>
      <trkpt lat="47.52054934389889240264892578125" lon="10.17959819175302982330322265625">
        <ele>1630</ele>
        <time>2026-09-01T07:55:45.000Z</time>
        <extensions>
          <ns3:TrackPointExtension>
            <ns3:hr>162</ns3:hr>
            <ns3:cad>84</ns3:cad>
          </ns3:TrackPointExtension>
        </extensions>
      </trkpt>
      <trkpt lat="47.5205329991877079010009765625" lon="10.1795344054698944091796875">
        <ele>1630.199951171875</ele>
        <time>2026-09-01T07:55:47.000Z</time>
        <extensions>
          <ns3:TrackPointExtension>
            <ns3:hr>162</ns3:hr>
            <ns3:cad>85</ns3:cad>
          </ns3:TrackPointExtension>
        </extensions>
      </trkpt>
      <trkpt lat="47.5205356813967227935791015625" lon="10.17935394309461116790771484375">
        <ele>1629.5999755859375</ele>
        <time>2026-09-01T07:55:51.000Z</time>
        <extensions>
          <ns3:TrackPointExtension>
            <ns3:hr>163</ns3:hr>
            <ns3:cad>85</ns3:cad>
          </ns3:TrackPointExtension>
        </extensions>
      </trkpt>
      <trkpt lat="47.52052822150290012359619140625" lon="10.1792304776608943939208984375">
        <ele>1629.199951171875</ele>
        <time>2026-09-01T07:55:54.000Z</time>
        <extensions>
          <ns3:TrackPointExtension>
            <ns3:hr>162</ns3:hr>
            <ns3:cad>83</ns3:cad>
          </ns3:TrackPointExtension>
        </extensions>
      </trkpt>
      <trkpt lat="47.5205222703516483306884765625" lon="10.17919485457241535186767578125">
        <ele>1629</ele>
        <time>2026-09-01T07:55:55.000Z</time>
        <extensions>
          <ns3:TrackPointExtension>
            <ns3:hr>162</ns3:hr>
            <ns3:cad>83</ns3:cad>
          </ns3:TrackPointExtension>
        </extensions>
      </trkpt>
      <trkpt lat="47.5205427221953868865966796875" lon="10.17919443547725677490234375">
        <ele>1628.199951171875</ele>
        <time>2026-09-01T07:55:57.000Z</time>
        <extensions>
          <ns3:TrackPointExtension>
            <ns3:hr>163</ns3:hr>
            <ns3:cad>83</ns3:cad>
          </ns3:TrackPointExtension>
        </extensions>
      </trkpt>
      <trkpt lat="47.520557977259159088134765625" lon="10.179183371365070343017578125">
        <ele>1627.5999755859375</ele>
        <time>2026-09-01T07:55:58.000Z</time>
        <extensions>
          <ns3:TrackPointExtension>
            <ns3:hr>162</ns3:hr>
            <ns3:cad>83</ns3:cad>
          </ns3:TrackPointExtension>
        </extensions>
      </trkpt>
      <trkpt lat="47.52056996338069438934326171875" lon="10.17916023731231689453125">
        <ele>1627</ele>
        <time>2026-09-01T07:55:59.000Z</time>
        <extensions>
          <ns3:TrackPointExtension>
            <ns3:hr>162</ns3:hr>
            <ns3:cad>83</ns3:cad>
          </ns3:TrackPointExtension>
        </extensions>
      </trkpt>
      <trkpt lat="47.520588152110576629638671875" lon="10.17911019735038280487060546875">
        <ele>1625.4000244140625</ele>
        <time>2026-09-01T07:56:01.000Z</time>
        <extensions>
          <ns3:TrackPointExtension>
            <ns3:hr>162</ns3:hr>
            <ns3:cad>83</ns3:cad>
          </ns3:TrackPointExtension>
        </extensions>
      </trkpt>
      <trkpt lat="47.5205715559422969818115234375" lon="10.17910919152200222015380859375">
        <ele>1624.5999755859375</ele>
        <time>2026-09-01T07:56:02.000Z</time>
        <extensions>
          <ns3:TrackPointExtension>
            <ns3:hr>162</ns3:hr>
            <ns3:cad>83</ns3:cad>
          </ns3:TrackPointExtension>
        </extensions>
      </trkpt>
      <trkpt lat="47.52055697143077850341796875" lon="10.1790943555533885955810546875">
        <ele>1623.5999755859375</ele>
        <time>2026-09-01T07:56:03.000Z</time>
        <extensions>
          <ns3:TrackPointExtension>
            <ns3:hr>162</ns3:hr>
            <ns3:cad>88</ns3:cad>
          </ns3:TrackPointExtension>
        </extensions>
      </trkpt>
      <trkpt lat="47.52053861506283283233642578125" lon="10.1790202595293521881103515625">
        <ele>1622.4000244140625</ele>
        <time>2026-09-01T07:56:05.000Z</time>
        <extensions>
          <ns3:TrackPointExtension>
            <ns3:hr>161</ns3:hr>
            <ns3:cad>88</ns3:cad>
          </ns3:TrackPointExtension>
        </extensions>
      </trkpt>
      <trkpt lat="47.5205350108444690704345703125" lon="10.17897390760481357574462890625">
        <ele>1622.199951171875</ele>
        <time>2026-09-01T07:56:06.000Z</time>
        <extensions>
          <ns3:TrackPointExtension>
            <ns3:hr>160</ns3:hr>
            <ns3:cad>0</ns3:cad>
          </ns3:TrackPointExtension>
        </extensions>
      </trkpt>
      <trkpt lat="47.52053677104413509368896484375" lon="10.1788764260709285736083984375">
        <ele>1622.4000244140625</ele>
        <time>2026-09-01T07:56:09.000Z</time>
        <extensions>
          <ns3:TrackPointExtension>
            <ns3:hr>159</ns3:hr>
            <ns3:cad>0</ns3:cad>
          </ns3:TrackPointExtension>
        </extensions>
      </trkpt>
      <trkpt lat="47.52054934389889240264892578125" lon="10.178866200149059295654296875">
        <ele>1624</ele>
        <time>2026-09-01T07:56:12.000Z</time>
        <extensions>
          <ns3:TrackPointExtension>
            <ns3:hr>159</ns3:hr>
            <ns3:cad>87</ns3:cad>
          </ns3:TrackPointExtension>
        </extensions>
      </trkpt>
      <trkpt lat="47.52054884098470211029052734375" lon="10.17885102890431880950927734375">
        <ele>1624.4000244140625</ele>
        <time>2026-09-01T07:56:13.000Z</time>
        <extensions>
          <ns3:TrackPointExtension>
            <ns3:hr>159</ns3:hr>
            <ns3:cad>87</ns3:cad>
          </ns3:TrackPointExtension>
        </extensions>
      </trkpt>
      <trkpt lat="47.52055822871625423431396484375" lon="10.17882320098578929901123046875">
        <ele>1624.800048828125</ele>
        <time>2026-09-01T07:56:14.000Z</time>
        <extensions>
          <ns3:TrackPointExtension>
            <ns3:hr>159</ns3:hr>
            <ns3:cad>86</ns3:cad>
          </ns3:TrackPointExtension>
        </extensions>
      </trkpt>
      <trkpt lat="47.5205670297145843505859375" lon="10.17880425788462162017822265625">
        <ele>1625.4000244140625</ele>
        <time>2026-09-01T07:56:15.000Z</time>
        <extensions>
          <ns3:TrackPointExtension>
            <ns3:hr>159</ns3:hr>
            <ns3:cad>86</ns3:cad>
          </ns3:TrackPointExtension>
        </extensions>
      </trkpt>
      <trkpt lat="47.52059410326182842254638671875" lon="10.17868674360215663909912109375">
        <ele>1626</ele>
        <time>2026-09-01T07:56:18.000Z</time>
        <extensions>
          <ns3:TrackPointExtension>
            <ns3:hr>159</ns3:hr>
            <ns3:cad>83</ns3:cad>
          </ns3:TrackPointExtension>
        </extensions>
      </trkpt>
      <trkpt lat="47.52059091813862323760986328125" lon="10.17864449881017208099365234375">
        <ele>1626</ele>
        <time>2026-09-01T07:56:19.000Z</time>
        <extensions>
          <ns3:TrackPointExtension>
            <ns3:hr>159</ns3:hr>
            <ns3:cad>83</ns3:cad>
          </ns3:TrackPointExtension>
        </extensions>
      </trkpt>
      <trkpt lat="47.520596198737621307373046875" lon="10.17859806306660175323486328125">
        <ele>1626</ele>
        <time>2026-09-01T07:56:21.000Z</time>
        <extensions>
          <ns3:TrackPointExtension>
            <ns3:hr>159</ns3:hr>
            <ns3:cad>83</ns3:cad>
          </ns3:TrackPointExtension>
        </extensions>
      </trkpt>
      <trkpt lat="47.52060164697468280792236328125" lon="10.1785575784742832183837890625">
        <ele>1626.5999755859375</ele>
        <time>2026-09-01T07:56:23.000Z</time>
        <extensions>
          <ns3:TrackPointExtension>
            <ns3:hr>159</ns3:hr>
            <ns3:cad>83</ns3:cad>
          </ns3:TrackPointExtension>
        </extensions>
      </trkpt>
      <trkpt lat="47.52059158869087696075439453125" lon="10.178504101932048797607421875">
        <ele>1627.199951171875</ele>
        <time>2026-09-01T07:56:25.000Z</time>
        <extensions>
          <ns3:TrackPointExtension>
            <ns3:hr>160</ns3:hr>
            <ns3:cad>86</ns3:cad>
          </ns3:TrackPointExtension>
        </extensions>
      </trkpt>
      <trkpt lat="47.5205777585506439208984375" lon="10.17846529372036457061767578125">
        <ele>1627.5999755859375</ele>
        <time>2026-09-01T07:56:26.000Z</time>
        <extensions>
          <ns3:TrackPointExtension>
            <ns3:hr>160</ns3:hr>
            <ns3:cad>86</ns3:cad>
          </ns3:TrackPointExtension>
        </extensions>
      </trkpt>
      <trkpt lat="47.5205705501139163970947265625" lon="10.17843729816377162933349609375">
        <ele>1627.800048828125</ele>
        <time>2026-09-01T07:56:27.000Z</time>
        <extensions>
          <ns3:TrackPointExtension>
            <ns3:hr>160</ns3:hr>
            <ns3:cad>86</ns3:cad>
          </ns3:TrackPointExtension>
        </extensions>
      </trkpt>
      <trkpt lat="47.52057038247585296630859375" lon="10.17841449938714504241943359375">
        <ele>1628</ele>
        <time>2026-09-01T07:56:28.000Z</time>
        <extensions>
          <ns3:TrackPointExtension>
            <ns3:hr>160</ns3:hr>
            <ns3:cad>83</ns3:cad>
          </ns3:TrackPointExtension>
        </extensions>
      </trkpt>
      <trkpt lat="47.52057172358036041259765625" lon="10.17839354462921619415283203125">
        <ele>1628.199951171875</ele>
        <time>2026-09-01T07:56:29.000Z</time>
        <extensions>
          <ns3:TrackPointExtension>
            <ns3:hr>160</ns3:hr>
            <ns3:cad>83</ns3:cad>
          </ns3:TrackPointExtension>
        </extensions>
      </trkpt>
      <trkpt lat="47.5205638445913791656494140625" lon="10.17834895290434360504150390625">
        <ele>1629</ele>
        <time>2026-09-01T07:56:32.000Z</time>
        <extensions>
          <ns3:TrackPointExtension>
            <ns3:hr>159</ns3:hr>
            <ns3:cad>86</ns3:cad>
          </ns3:TrackPointExtension>
        </extensions>
      </trkpt>
      <trkpt lat="47.5205544568598270416259765625" lon="10.17827049829065799713134765625">
        <ele>1629.800048828125</ele>
        <time>2026-09-01T07:56:35.000Z</time>
        <extensions>
          <ns3:TrackPointExtension>
            <ns3:hr>159</ns3:hr>
            <ns3:cad>0</ns3:cad>
          </ns3:TrackPointExtension>
        </extensions>
      </trkpt>
      <trkpt lat="47.52055772580206394195556640625" lon="10.17825658433139324188232421875">
        <ele>1630.199951171875</ele>
        <time>2026-09-01T07:56:36.000Z</time>
        <extensions>
          <ns3:TrackPointExtension>
            <ns3:hr>160</ns3:hr>
            <ns3:cad>0</ns3:cad>
          </ns3:TrackPointExtension>
        </extensions>
      </trkpt>
      <trkpt lat="47.5205537863075733184814453125" lon="10.1782280020415782928466796875">
        <ele>1630.199951171875</ele>
        <time>2026-09-01T07:56:37.000Z</time>
        <extensions>
          <ns3:TrackPointExtension>
            <ns3:hr>160</ns3:hr>
            <ns3:cad>0</ns3:cad>
          </ns3:TrackPointExtension>
        </extensions>
      </trkpt>
      <trkpt lat="47.52050927840173244476318359375" lon="10.17814661376178264617919921875">
        <ele>1630.5999755859375</ele>
        <time>2026-09-01T07:56:41.000Z</time>
        <extensions>
          <ns3:TrackPointExtension>
            <ns3:hr>161</ns3:hr>
            <ns3:cad>0</ns3:cad>
          </ns3:TrackPointExtension>
        </extensions>
      </trkpt>
      <trkpt lat="47.52049704082310199737548828125" lon="10.17804779112339019775390625">
        <ele>1630.800048828125</ele>
        <time>2026-09-01T07:56:45.000Z</time>
        <extensions>
          <ns3:TrackPointExtension>
            <ns3:hr>161</ns3:hr>
            <ns3:cad>0</ns3:cad>
          </ns3:TrackPointExtension>
        </extensions>
      </trkpt>
      <trkpt lat="47.52050341106951236724853515625" lon="10.17804586328566074371337890625">
        <ele>1631.199951171875</ele>
        <time>2026-09-01T07:56:47.000Z</time>
        <extensions>
          <ns3:TrackPointExtension>
            <ns3:hr>161</ns3:hr>
            <ns3:cad>41</ns3:cad>
          </ns3:TrackPointExtension>
        </extensions>
      </trkpt>
      <trkpt lat="47.5205011479556560516357421875" lon="10.17798450775444507598876953125">
        <ele>1632.199951171875</ele>
        <time>2026-09-01T07:56:50.000Z</time>
        <extensions>
          <ns3:TrackPointExtension>
            <ns3:hr>161</ns3:hr>
            <ns3:cad>41</ns3:cad>
          </ns3:TrackPointExtension>
        </extensions>
      </trkpt>
      <trkpt lat="47.520469129085540771484375" lon="10.177803374826908111572265625">
        <ele>1632.5999755859375</ele>
        <time>2026-09-01T07:56:54.000Z</time>
        <extensions>
          <ns3:TrackPointExtension>
            <ns3:hr>159</ns3:hr>
            <ns3:cad>0</ns3:cad>
          </ns3:TrackPointExtension>
        </extensions>
      </trkpt>
      <trkpt lat="47.5204367749392986297607421875" lon="10.17757966183125972747802734375">
        <ele>1632.199951171875</ele>
        <time>2026-09-01T07:56:59.000Z</time>
        <extensions>
          <ns3:TrackPointExtension>
            <ns3:hr>161</ns3:hr>
            <ns3:cad>83</ns3:cad>
          </ns3:TrackPointExtension>
        </extensions>
      </trkpt>
      <trkpt lat="47.5203819572925567626953125" lon="10.1774625666439533233642578125">
        <ele>1632.199951171875</ele>
        <time>2026-09-01T07:57:03.000Z</time>
        <extensions>
          <ns3:TrackPointExtension>
            <ns3:hr>162</ns3:hr>
            <ns3:cad>84</ns3:cad>
          </ns3:TrackPointExtension>
        </extensions>
      </trkpt>
      <trkpt lat="47.5203395448625087738037109375" lon="10.17735418863594532012939453125">
        <ele>1633.4000244140625</ele>
        <time>2026-09-01T07:57:07.000Z</time>
        <extensions>
          <ns3:TrackPointExtension>
            <ns3:hr>161</ns3:hr>
            <ns3:cad>82</ns3:cad>
          </ns3:TrackPointExtension>
        </extensions>
      </trkpt>
      <trkpt lat="47.5203194282948970794677734375" lon="10.177260898053646087646484375">
        <ele>1634.5999755859375</ele>
        <time>2026-09-01T07:57:11.000Z</time>
        <extensions>
          <ns3:TrackPointExtension>
            <ns3:hr>161</ns3:hr>
            <ns3:cad>82</ns3:cad>
          </ns3:TrackPointExtension>
        </extensions>
      </trkpt>
      <trkpt lat="47.52031532116234302520751953125" lon="10.17716576345264911651611328125">
        <ele>1635.5999755859375</ele>
        <time>2026-09-01T07:57:14.000Z</time>
        <extensions>
          <ns3:TrackPointExtension>
            <ns3:hr>161</ns3:hr>
            <ns3:cad>85</ns3:cad>
          </ns3:TrackPointExtension>
        </extensions>
      </trkpt>
      <trkpt lat="47.52032252959907054901123046875" lon="10.1771155558526515960693359375">
        <ele>1636</ele>
        <time>2026-09-01T07:57:16.000Z</time>
        <extensions>
          <ns3:TrackPointExtension>
            <ns3:hr>162</ns3:hr>
            <ns3:cad>85</ns3:cad>
          </ns3:TrackPointExtension>
        </extensions>
      </trkpt>
      <trkpt lat="47.52033325843513011932373046875" lon="10.17704774625599384307861328125">
        <ele>1636.4000244140625</ele>
        <time>2026-09-01T07:57:18.000Z</time>
        <extensions>
          <ns3:TrackPointExtension>
            <ns3:hr>162</ns3:hr>
            <ns3:cad>85</ns3:cad>
          </ns3:TrackPointExtension>
        </extensions>
      </trkpt>
      <trkpt lat="47.5203512795269489288330078125" lon="10.17702511511743068695068359375">
        <ele>1636.5999755859375</ele>
        <time>2026-09-01T07:57:19.000Z</time>
        <extensions>
          <ns3:TrackPointExtension>
            <ns3:hr>162</ns3:hr>
            <ns3:cad>85</ns3:cad>
          </ns3:TrackPointExtension>
        </extensions>
      </trkpt>
      <trkpt lat="47.52036343328654766082763671875" lon="10.1769891567528247833251953125">
        <ele>1636.800048828125</ele>
        <time>2026-09-01T07:57:20.000Z</time>
        <extensions>
          <ns3:TrackPointExtension>
            <ns3:hr>162</ns3:hr>
            <ns3:cad>85</ns3:cad>
          </ns3:TrackPointExtension>
        </extensions>
      </trkpt>
      <trkpt lat="47.52035656012594699859619140625" lon="10.17695504240691661834716796875">
        <ele>1636.800048828125</ele>
        <time>2026-09-01T07:57:21.000Z</time>
        <extensions>
          <ns3:TrackPointExtension>
            <ns3:hr>162</ns3:hr>
            <ns3:cad>85</ns3:cad>
          </ns3:TrackPointExtension>
        </extensions>
      </trkpt>
      <trkpt lat="47.52034331671893596649169921875" lon="10.17691598273813724517822265625">
        <ele>1636.5999755859375</ele>
        <time>2026-09-01T07:57:22.000Z</time>
        <extensions>
          <ns3:TrackPointExtension>
            <ns3:hr>162</ns3:hr>
            <ns3:cad>85</ns3:cad>
          </ns3:TrackPointExtension>
        </extensions>
      </trkpt>
      <trkpt lat="47.52033124677836894989013671875" lon="10.17679377458989620208740234375">
        <ele>1635.199951171875</ele>
        <time>2026-09-01T07:57:25.000Z</time>
        <extensions>
          <ns3:TrackPointExtension>
            <ns3:hr>162</ns3:hr>
            <ns3:cad>83</ns3:cad>
          </ns3:TrackPointExtension>
        </extensions>
      </trkpt>
      <trkpt lat="47.52033007331192493438720703125" lon="10.1767561398446559906005859375">
        <ele>1634.4000244140625</ele>
        <time>2026-09-01T07:57:26.000Z</time>
        <extensions>
          <ns3:TrackPointExtension>
            <ns3:hr>161</ns3:hr>
            <ns3:cad>0</ns3:cad>
          </ns3:TrackPointExtension>
        </extensions>
      </trkpt>
      <trkpt lat="47.52031884156167507171630859375" lon="10.176699645817279815673828125">
        <ele>1633.5999755859375</ele>
        <time>2026-09-01T07:57:27.000Z</time>
        <extensions>
          <ns3:TrackPointExtension>
            <ns3:hr>161</ns3:hr>
            <ns3:cad>0</ns3:cad>
          </ns3:TrackPointExtension>
        </extensions>
      </trkpt>
      <trkpt lat="47.52027642913162708282470703125" lon="10.1766109652817249298095703125">
        <ele>1632</ele>
        <time>2026-09-01T07:57:29.000Z</time>
        <extensions>
          <ns3:TrackPointExtension>
            <ns3:hr>160</ns3:hr>
            <ns3:cad>85</ns3:cad>
          </ns3:TrackPointExtension>
        </extensions>
      </trkpt>
      <trkpt lat="47.52023451961576938629150390625" lon="10.176526643335819244384765625">
        <ele>1630.199951171875</ele>
        <time>2026-09-01T07:57:31.000Z</time>
        <extensions>
          <ns3:TrackPointExtension>
            <ns3:hr>160</ns3:hr>
            <ns3:cad>91</ns3:cad>
          </ns3:TrackPointExtension>
        </extensions>
      </trkpt>
      <trkpt lat="47.52019244246184825897216796875" lon="10.1764564029872417449951171875">
        <ele>1628.800048828125</ele>
        <time>2026-09-01T07:57:33.000Z</time>
        <extensions>
          <ns3:TrackPointExtension>
            <ns3:hr>160</ns3:hr>
            <ns3:cad>91</ns3:cad>
          </ns3:TrackPointExtension>
        </extensions>
      </trkpt>
      <trkpt lat="47.5201356969773769378662109375" lon="10.176415331661701202392578125">
        <ele>1627</ele>
        <time>2026-09-01T07:57:35.000Z</time>
        <extensions>
          <ns3:TrackPointExtension>
            <ns3:hr>159</ns3:hr>
            <ns3:cad>91</ns3:cad>
          </ns3:TrackPointExtension>
        </extensions>
      </trkpt>
      <trkpt lat="47.5201139040291309356689453125" lon="10.1764114759862422943115234375">
        <ele>1626.199951171875</ele>
        <time>2026-09-01T07:57:37.000Z</time>
        <extensions>
          <ns3:TrackPointExtension>
            <ns3:hr>159</ns3:hr>
            <ns3:cad>91</ns3:cad>
          </ns3:TrackPointExtension>
        </extensions>
      </trkpt>
      <trkpt lat="47.52012119628489017486572265625" lon="10.17638406716287136077880859375">
        <ele>1625.800048828125</ele>
        <time>2026-09-01T07:57:38.000Z</time>
        <extensions>
          <ns3:TrackPointExtension>
            <ns3:hr>158</ns3:hr>
            <ns3:cad>91</ns3:cad>
          </ns3:TrackPointExtension>
        </extensions>
      </trkpt>
      <trkpt lat="47.52014114521443843841552734375" lon="10.1763407327234745025634765625">
        <ele>1625.4000244140625</ele>
        <time>2026-09-01T07:57:40.000Z</time>
        <extensions>
          <ns3:TrackPointExtension>
            <ns3:hr>158</ns3:hr>
            <ns3:cad>91</ns3:cad>
          </ns3:TrackPointExtension>
        </extensions>
      </trkpt>
      <trkpt lat="47.5201641954481601715087890625" lon="10.1762820594012737274169921875">
        <ele>1624.4000244140625</ele>
        <time>2026-09-01T07:57:42.000Z</time>
        <extensions>
          <ns3:TrackPointExtension>
            <ns3:hr>158</ns3:hr>
            <ns3:cad>91</ns3:cad>
          </ns3:TrackPointExtension>
        </extensions>
      </trkpt>
      <trkpt lat="47.520164363086223602294921875" lon="10.17620184458792209625244140625">
        <ele>1623</ele>
        <time>2026-09-01T07:57:44.000Z</time>
        <extensions>
          <ns3:TrackPointExtension>
            <ns3:hr>157</ns3:hr>
            <ns3:cad>91</ns3:cad>
          </ns3:TrackPointExtension>
        </extensions>
      </trkpt>
      <trkpt lat="47.520154975354671478271484375" lon="10.17617066390812397003173828125">
        <ele>1622.4000244140625</ele>
        <time>2026-09-01T07:57:45.000Z</time>
        <extensions>
          <ns3:TrackPointExtension>
            <ns3:hr>157</ns3:hr>
            <ns3:cad>91</ns3:cad>
          </ns3:TrackPointExtension>
        </extensions>
      </trkpt>
      <trkpt lat="47.520146258175373077392578125" lon="10.1761301793158054351806640625">
        <ele>1621.800048828125</ele>
        <time>2026-09-01T07:57:46.000Z</time>
        <extensions>
          <ns3:TrackPointExtension>
            <ns3:hr>157</ns3:hr>
            <ns3:cad>91</ns3:cad>
          </ns3:TrackPointExtension>
        </extensions>
      </trkpt>
      <trkpt lat="47.52011097036302089691162109375" lon="10.17602029256522655487060546875">
        <ele>1620</ele>
        <time>2026-09-01T07:57:49.000Z</time>
        <extensions>
          <ns3:TrackPointExtension>
            <ns3:hr>155</ns3:hr>
            <ns3:cad>90</ns3:cad>
          </ns3:TrackPointExtension>
        </extensions>
      </trkpt>
      <trkpt lat="47.5200917758047580718994140625" lon="10.1759736053645610809326171875">
        <ele>1619.199951171875</ele>
        <time>2026-09-01T07:57:50.000Z</time>
        <extensions>
          <ns3:TrackPointExtension>
            <ns3:hr>155</ns3:hr>
            <ns3:cad>90</ns3:cad>
          </ns3:TrackPointExtension>
        </extensions>
      </trkpt>
      <trkpt lat="47.5200884230434894561767578125" lon="10.17593597061932086944580078125">
        <ele>1618.4000244140625</ele>
        <time>2026-09-01T07:57:51.000Z</time>
        <extensions>
          <ns3:TrackPointExtension>
            <ns3:hr>154</ns3:hr>
            <ns3:cad>90</ns3:cad>
          </ns3:TrackPointExtension>
        </extensions>
      </trkpt>
      <trkpt lat="47.520063109695911407470703125" lon="10.1758182048797607421875">
        <ele>1616.800048828125</ele>
        <time>2026-09-01T07:57:53.000Z</time>
        <extensions>
          <ns3:TrackPointExtension>
            <ns3:hr>154</ns3:hr>
            <ns3:cad>91</ns3:cad>
          </ns3:TrackPointExtension>
        </extensions>
      </trkpt>
      <trkpt lat="47.520029582083225250244140625" lon="10.17572340555489063262939453125">
        <ele>1615.4000244140625</ele>
        <time>2026-09-01T07:57:55.000Z</time>
        <extensions>
          <ns3:TrackPointExtension>
            <ns3:hr>153</ns3:hr>
            <ns3:cad>91</ns3:cad>
          </ns3:TrackPointExtension>
        </extensions>
      </trkpt>
      <trkpt lat="47.520000077784061431884765625" lon="10.1756269298493862152099609375">
        <ele>1614.199951171875</ele>
        <time>2026-09-01T07:57:57.000Z</time>
        <extensions>
          <ns3:TrackPointExtension>
            <ns3:hr>153</ns3:hr>
            <ns3:cad>91</ns3:cad>
          </ns3:TrackPointExtension>
        </extensions>
      </trkpt>
      <trkpt lat="47.519971244037151336669921875" lon="10.1755325496196746826171875">
        <ele>1613.199951171875</ele>
        <time>2026-09-01T07:57:59.000Z</time>
        <extensions>
          <ns3:TrackPointExtension>
            <ns3:hr>152</ns3:hr>
            <ns3:cad>85</ns3:cad>
          </ns3:TrackPointExtension>
        </extensions>
      </trkpt>
      <trkpt lat="47.51996411941945552825927734375" lon="10.17548988573253154754638671875">
        <ele>1613</ele>
        <time>2026-09-01T07:58:00.000Z</time>
        <extensions>
          <ns3:TrackPointExtension>
            <ns3:hr>152</ns3:hr>
            <ns3:cad>85</ns3:cad>
          </ns3:TrackPointExtension>
        </extensions>
      </trkpt>
      <trkpt lat="47.519948445260524749755859375" lon="10.175440013408660888671875">
        <ele>1612.5999755859375</ele>
        <time>2026-09-01T07:58:01.000Z</time>
        <extensions>
          <ns3:TrackPointExtension>
            <ns3:hr>152</ns3:hr>
            <ns3:cad>85</ns3:cad>
          </ns3:TrackPointExtension>
        </extensions>
      </trkpt>
      <trkpt lat="47.5199232995510101318359375" lon="10.17534814774990081787109375">
        <ele>1611.5999755859375</ele>
        <time>2026-09-01T07:58:03.000Z</time>
        <extensions>
          <ns3:TrackPointExtension>
            <ns3:hr>152</ns3:hr>
            <ns3:cad>84</ns3:cad>
          </ns3:TrackPointExtension>
        </extensions>
      </trkpt>
      <trkpt lat="47.519903518259525299072265625" lon="10.17529408447444438934326171875">
        <ele>1611.199951171875</ele>
        <time>2026-09-01T07:58:04.000Z</time>
        <extensions>
          <ns3:TrackPointExtension>
            <ns3:hr>152</ns3:hr>
            <ns3:cad>84</ns3:cad>
          </ns3:TrackPointExtension>
        </extensions>
      </trkpt>
      <trkpt lat="47.51989446580410003662109375" lon="10.17525569535791873931884765625">
        <ele>1610.4000244140625</ele>
        <time>2026-09-01T07:58:05.000Z</time>
        <extensions>
          <ns3:TrackPointExtension>
            <ns3:hr>152</ns3:hr>
            <ns3:cad>84</ns3:cad>
          </ns3:TrackPointExtension>
        </extensions>
      </trkpt>
      <trkpt lat="47.51986454240977764129638671875" lon="10.1751463115215301513671875">
        <ele>1609.4000244140625</ele>
        <time>2026-09-01T07:58:07.000Z</time>
        <extensions>
          <ns3:TrackPointExtension>
            <ns3:hr>151</ns3:hr>
            <ns3:cad>84</ns3:cad>
          </ns3:TrackPointExtension>
        </extensions>
      </trkpt>
      <trkpt lat="47.519834451377391815185546875" lon="10.1750485785305500030517578125">
        <ele>1608.199951171875</ele>
        <time>2026-09-01T07:58:09.000Z</time>
        <extensions>
          <ns3:TrackPointExtension>
            <ns3:hr>150</ns3:hr>
            <ns3:cad>84</ns3:cad>
          </ns3:TrackPointExtension>
        </extensions>
      </trkpt>
      <trkpt lat="47.519814670085906982421875" lon="10.17500692047178745269775390625">
        <ele>1607.800048828125</ele>
        <time>2026-09-01T07:58:10.000Z</time>
        <extensions>
          <ns3:TrackPointExtension>
            <ns3:hr>149</ns3:hr>
            <ns3:cad>84</ns3:cad>
          </ns3:TrackPointExtension>
        </extensions>
      </trkpt>
      <trkpt lat="47.51977401785552501678466796875" lon="10.1749332435429096221923828125">
        <ele>1606.5999755859375</ele>
        <time>2026-09-01T07:58:12.000Z</time>
        <extensions>
          <ns3:TrackPointExtension>
            <ns3:hr>149</ns3:hr>
            <ns3:cad>84</ns3:cad>
          </ns3:TrackPointExtension>
        </extensions>
      </trkpt>
      <trkpt lat="47.519755661487579345703125" lon="10.17489510588347911834716796875">
        <ele>1606</ele>
        <time>2026-09-01T07:58:13.000Z</time>
        <extensions>
          <ns3:TrackPointExtension>
            <ns3:hr>149</ns3:hr>
            <ns3:cad>84</ns3:cad>
          </ns3:TrackPointExtension>
        </extensions>
      </trkpt>
      <trkpt lat="47.51974535174667835235595703125" lon="10.17484716139733791351318359375">
        <ele>1605.4000244140625</ele>
        <time>2026-09-01T07:58:14.000Z</time>
        <extensions>
          <ns3:TrackPointExtension>
            <ns3:hr>149</ns3:hr>
            <ns3:cad>84</ns3:cad>
          </ns3:TrackPointExtension>
        </extensions>
      </trkpt>
      <trkpt lat="47.5197219662368297576904296875" lon="10.17476233653724193572998046875">
        <ele>1604.199951171875</ele>
        <time>2026-09-01T07:58:16.000Z</time>
        <extensions>
          <ns3:TrackPointExtension>
            <ns3:hr>150</ns3:hr>
            <ns3:cad>84</ns3:cad>
          </ns3:TrackPointExtension>
        </extensions>
      </trkpt>
      <trkpt lat="47.51968793570995330810546875" lon="10.17466728575527667999267578125">
        <ele>1603.199951171875</ele>
        <time>2026-09-01T07:58:18.000Z</time>
        <extensions>
          <ns3:TrackPointExtension>
            <ns3:hr>150</ns3:hr>
            <ns3:cad>84</ns3:cad>
          </ns3:TrackPointExtension>
        </extensions>
      </trkpt>
      <trkpt lat="47.5196673162281513214111328125" lon="10.17461900599300861358642578125">
        <ele>1602.5999755859375</ele>
        <time>2026-09-01T07:58:19.000Z</time>
        <extensions>
          <ns3:TrackPointExtension>
            <ns3:hr>150</ns3:hr>
            <ns3:cad>84</ns3:cad>
          </ns3:TrackPointExtension>
        </extensions>
      </trkpt>
      <trkpt lat="47.5196202099323272705078125" lon="10.174550525844097137451171875">
        <ele>1601.4000244140625</ele>
        <time>2026-09-01T07:58:21.000Z</time>
        <extensions>
          <ns3:TrackPointExtension>
            <ns3:hr>149</ns3:hr>
            <ns3:cad>85</ns3:cad>
          </ns3:TrackPointExtension>
        </extensions>
      </trkpt>
      <trkpt lat="47.51960235647857189178466796875" lon="10.17449713312089443206787109375">
        <ele>1601</ele>
        <time>2026-09-01T07:58:22.000Z</time>
        <extensions>
          <ns3:TrackPointExtension>
            <ns3:hr>149</ns3:hr>
            <ns3:cad>85</ns3:cad>
          </ns3:TrackPointExtension>
        </extensions>
      </trkpt>
      <trkpt lat="47.51958257518708705902099609375" lon="10.1744596660137176513671875">
        <ele>1600.4000244140625</ele>
        <time>2026-09-01T07:58:23.000Z</time>
        <extensions>
          <ns3:TrackPointExtension>
            <ns3:hr>149</ns3:hr>
            <ns3:cad>85</ns3:cad>
          </ns3:TrackPointExtension>
        </extensions>
      </trkpt>
      <trkpt lat="47.51955893822014331817626953125" lon="10.174364782869815826416015625">
        <ele>1599.199951171875</ele>
        <time>2026-09-01T07:58:25.000Z</time>
        <extensions>
          <ns3:TrackPointExtension>
            <ns3:hr>149</ns3:hr>
            <ns3:cad>85</ns3:cad>
          </ns3:TrackPointExtension>
        </extensions>
      </trkpt>
      <trkpt lat="47.51954720355570316314697265625" lon="10.17432362772524356842041015625">
        <ele>1598.5999755859375</ele>
        <time>2026-09-01T07:58:26.000Z</time>
        <extensions>
          <ns3:TrackPointExtension>
            <ns3:hr>148</ns3:hr>
            <ns3:cad>85</ns3:cad>
          </ns3:TrackPointExtension>
        </extensions>
      </trkpt>
      <trkpt lat="47.5195328705012798309326171875" lon="10.1742764376103878021240234375">
        <ele>1597.800048828125</ele>
        <time>2026-09-01T07:58:27.000Z</time>
        <extensions>
          <ns3:TrackPointExtension>
            <ns3:hr>148</ns3:hr>
            <ns3:cad>85</ns3:cad>
          </ns3:TrackPointExtension>
        </extensions>
      </trkpt>
      <trkpt lat="47.51950847916305065155029296875" lon="10.17416973598301410675048828125">
        <ele>1596.4000244140625</ele>
        <time>2026-09-01T07:58:29.000Z</time>
        <extensions>
          <ns3:TrackPointExtension>
            <ns3:hr>148</ns3:hr>
            <ns3:cad>85</ns3:cad>
          </ns3:TrackPointExtension>
        </extensions>
      </trkpt>
      <trkpt lat="47.51948601566255092620849609375" lon="10.1740682311356067657470703125">
        <ele>1594.800048828125</ele>
        <time>2026-09-01T07:58:31.000Z</time>
        <extensions>
          <ns3:TrackPointExtension>
            <ns3:hr>148</ns3:hr>
            <ns3:cad>85</ns3:cad>
          </ns3:TrackPointExtension>
        </extensions>
      </trkpt>
      <trkpt lat="47.51945600844919681549072265625" lon="10.17397795803844928741455078125">
        <ele>1593.4000244140625</ele>
        <time>2026-09-01T07:58:33.000Z</time>
        <extensions>
          <ns3:TrackPointExtension>
            <ns3:hr>149</ns3:hr>
            <ns3:cad>85</ns3:cad>
          </ns3:TrackPointExtension>
        </extensions>
      </trkpt>
      <trkpt lat="47.51942910254001617431640625" lon="10.17393730580806732177734375">
        <ele>1592.800048828125</ele>
        <time>2026-09-01T07:58:34.000Z</time>
        <extensions>
          <ns3:TrackPointExtension>
            <ns3:hr>149</ns3:hr>
            <ns3:cad>85</ns3:cad>
          </ns3:TrackPointExtension>
        </extensions>
      </trkpt>
      <trkpt lat="47.5194071419537067413330078125" lon="10.1738958992063999176025390625">
        <ele>1592</ele>
        <time>2026-09-01T07:58:35.000Z</time>
        <extensions>
          <ns3:TrackPointExtension>
            <ns3:hr>150</ns3:hr>
            <ns3:cad>85</ns3:cad>
          </ns3:TrackPointExtension>
        </extensions>
      </trkpt>
      <trkpt lat="47.5193863548338413238525390625" lon="10.1738000102341175079345703125">
        <ele>1590.800048828125</ele>
        <time>2026-09-01T07:58:37.000Z</time>
        <extensions>
          <ns3:TrackPointExtension>
            <ns3:hr>149</ns3:hr>
            <ns3:cad>87</ns3:cad>
          </ns3:TrackPointExtension>
        </extensions>
      </trkpt>
      <trkpt lat="47.519386522471904754638671875" lon="10.173767991364002227783203125">
        <ele>1590</ele>
        <time>2026-09-01T07:58:38.000Z</time>
        <extensions>
          <ns3:TrackPointExtension>
            <ns3:hr>149</ns3:hr>
            <ns3:cad>87</ns3:cad>
          </ns3:TrackPointExtension>
        </extensions>
      </trkpt>
      <trkpt lat="47.5193786434829235076904296875" lon="10.17372214235365390777587890625">
        <ele>1589.4000244140625</ele>
        <time>2026-09-01T07:58:39.000Z</time>
        <extensions>
          <ns3:TrackPointExtension>
            <ns3:hr>149</ns3:hr>
            <ns3:cad>87</ns3:cad>
          </ns3:TrackPointExtension>
        </extensions>
      </trkpt>
      <trkpt lat="47.51932759769260883331298828125" lon="10.17357830889523029327392578125">
        <ele>1587.800048828125</ele>
        <time>2026-09-01T07:58:42.000Z</time>
        <extensions>
          <ns3:TrackPointExtension>
            <ns3:hr>149</ns3:hr>
            <ns3:cad>87</ns3:cad>
          </ns3:TrackPointExtension>
        </extensions>
      </trkpt>
      <trkpt lat="47.51929767429828643798828125" lon="10.17350614070892333984375">
        <ele>1586.5999755859375</ele>
        <time>2026-09-01T07:58:44.000Z</time>
        <extensions>
          <ns3:TrackPointExtension>
            <ns3:hr>149</ns3:hr>
            <ns3:cad>87</ns3:cad>
          </ns3:TrackPointExtension>
        </extensions>
      </trkpt>
      <trkpt lat="47.51928401179611682891845703125" lon="10.17346012406051158905029296875">
        <ele>1586</ele>
        <time>2026-09-01T07:58:45.000Z</time>
        <extensions>
          <ns3:TrackPointExtension>
            <ns3:hr>149</ns3:hr>
            <ns3:cad>87</ns3:cad>
          </ns3:TrackPointExtension>
        </extensions>
      </trkpt>
      <trkpt lat="47.5192701816558837890625" lon="10.17341184429824352264404296875">
        <ele>1585.4000244140625</ele>
        <time>2026-09-01T07:58:46.000Z</time>
        <extensions>
          <ns3:TrackPointExtension>
            <ns3:hr>149</ns3:hr>
            <ns3:cad>87</ns3:cad>
          </ns3:TrackPointExtension>
        </extensions>
      </trkpt>
      <trkpt lat="47.51922181807458400726318359375" lon="10.17325493507087230682373046875">
        <ele>1583.800048828125</ele>
        <time>2026-09-01T07:58:49.000Z</time>
        <extensions>
          <ns3:TrackPointExtension>
            <ns3:hr>149</ns3:hr>
            <ns3:cad>87</ns3:cad>
          </ns3:TrackPointExtension>
        </extensions>
      </trkpt>
      <trkpt lat="47.51920371316373348236083984375" lon="10.17316843383014202117919921875">
        <ele>1582.5999755859375</ele>
        <time>2026-09-01T07:58:51.000Z</time>
        <extensions>
          <ns3:TrackPointExtension>
            <ns3:hr>149</ns3:hr>
            <ns3:cad>82</ns3:cad>
          </ns3:TrackPointExtension>
        </extensions>
      </trkpt>
      <trkpt lat="47.519181333482265472412109375" lon="10.1731217466294765472412109375">
        <ele>1582</ele>
        <time>2026-09-01T07:58:52.000Z</time>
        <extensions>
          <ns3:TrackPointExtension>
            <ns3:hr>150</ns3:hr>
            <ns3:cad>82</ns3:cad>
          </ns3:TrackPointExtension>
        </extensions>
      </trkpt>
      <trkpt lat="47.519173957407474517822265625" lon="10.173085033893585205078125">
        <ele>1581.4000244140625</ele>
        <time>2026-09-01T07:58:53.000Z</time>
        <extensions>
          <ns3:TrackPointExtension>
            <ns3:hr>149</ns3:hr>
            <ns3:cad>82</ns3:cad>
          </ns3:TrackPointExtension>
        </extensions>
      </trkpt>
      <trkpt lat="47.51914369873702526092529296875" lon="10.17299006693065166473388671875">
        <ele>1580.5999755859375</ele>
        <time>2026-09-01T07:58:55.000Z</time>
        <extensions>
          <ns3:TrackPointExtension>
            <ns3:hr>148</ns3:hr>
            <ns3:cad>87</ns3:cad>
          </ns3:TrackPointExtension>
        </extensions>
      </trkpt>
      <trkpt lat="47.5191266834735870361328125" lon="10.172935165464878082275390625">
        <ele>1580</ele>
        <time>2026-09-01T07:58:56.000Z</time>
        <extensions>
          <ns3:TrackPointExtension>
            <ns3:hr>148</ns3:hr>
            <ns3:cad>87</ns3:cad>
          </ns3:TrackPointExtension>
        </extensions>
      </trkpt>
      <trkpt lat="47.51909659244120121002197265625" lon="10.1728303916752338409423828125">
        <ele>1578.5999755859375</ele>
        <time>2026-09-01T07:58:58.000Z</time>
        <extensions>
          <ns3:TrackPointExtension>
            <ns3:hr>148</ns3:hr>
            <ns3:cad>87</ns3:cad>
          </ns3:TrackPointExtension>
        </extensions>
      </trkpt>
      <trkpt lat="47.5190909765660762786865234375" lon="10.1727874763309955596923828125">
        <ele>1578</ele>
        <time>2026-09-01T07:58:59.000Z</time>
        <extensions>
          <ns3:TrackPointExtension>
            <ns3:hr>148</ns3:hr>
            <ns3:cad>87</ns3:cad>
          </ns3:TrackPointExtension>
        </extensions>
      </trkpt>
      <trkpt lat="47.519076727330684661865234375" lon="10.17273089848458766937255859375">
        <ele>1577.4000244140625</ele>
        <time>2026-09-01T07:59:00.000Z</time>
        <extensions>
          <ns3:TrackPointExtension>
            <ns3:hr>149</ns3:hr>
            <ns3:cad>87</ns3:cad>
          </ns3:TrackPointExtension>
        </extensions>
      </trkpt>
      <trkpt lat="47.519047893583774566650390625" lon="10.17259242944419384002685546875">
        <ele>1576.199951171875</ele>
        <time>2026-09-01T07:59:03.000Z</time>
        <extensions>
          <ns3:TrackPointExtension>
            <ns3:hr>150</ns3:hr>
            <ns3:cad>0</ns3:cad>
          </ns3:TrackPointExtension>
        </extensions>
      </trkpt>
      <trkpt lat="47.51902936957776546478271484375" lon="10.172628723084926605224609375">
        <ele>1575</ele>
        <time>2026-09-01T07:59:06.000Z</time>
        <extensions>
          <ns3:TrackPointExtension>
            <ns3:hr>150</ns3:hr>
            <ns3:cad>0</ns3:cad>
          </ns3:TrackPointExtension>
        </extensions>
      </trkpt>
      <trkpt lat="47.51895158551633358001708984375" lon="10.17272226512432098388671875">
        <ele>1575.4000244140625</ele>
        <time>2026-09-01T07:59:10.000Z</time>
        <extensions>
          <ns3:TrackPointExtension>
            <ns3:hr>149</ns3:hr>
            <ns3:cad>0</ns3:cad>
          </ns3:TrackPointExtension>
        </extensions>
      </trkpt>
      <trkpt lat="47.5189340673387050628662109375" lon="10.1727153919637203216552734375">
        <ele>1575.5999755859375</ele>
        <time>2026-09-01T07:59:11.000Z</time>
        <extensions>
          <ns3:TrackPointExtension>
            <ns3:hr>149</ns3:hr>
            <ns3:cad>0</ns3:cad>
          </ns3:TrackPointExtension>
        </extensions>
      </trkpt>
      <trkpt lat="47.518882937729358673095703125" lon="10.17270005308091640472412109375">
        <ele>1576.199951171875</ele>
        <time>2026-09-01T07:59:13.000Z</time>
        <extensions>
          <ns3:TrackPointExtension>
            <ns3:hr>149</ns3:hr>
            <ns3:cad>89</ns3:cad>
          </ns3:TrackPointExtension>
        </extensions>
      </trkpt>
      <trkpt lat="47.51885913312435150146484375" lon="10.172692425549030303955078125">
        <ele>1576.4000244140625</ele>
        <time>2026-09-01T07:59:14.000Z</time>
        <extensions>
          <ns3:TrackPointExtension>
            <ns3:hr>150</ns3:hr>
            <ns3:cad>89</ns3:cad>
          </ns3:TrackPointExtension>
        </extensions>
      </trkpt>
      <trkpt lat="47.51883742399513721466064453125" lon="10.17269317992031574249267578125">
        <ele>1577.199951171875</ele>
        <time>2026-09-01T07:59:16.000Z</time>
        <extensions>
          <ns3:TrackPointExtension>
            <ns3:hr>150</ns3:hr>
            <ns3:cad>89</ns3:cad>
          </ns3:TrackPointExtension>
        </extensions>
      </trkpt>
      <trkpt lat="47.5188209116458892822265625" lon="10.17270927317440509796142578125">
        <ele>1578</ele>
        <time>2026-09-01T07:59:18.000Z</time>
        <extensions>
          <ns3:TrackPointExtension>
            <ns3:hr>151</ns3:hr>
            <ns3:cad>89</ns3:cad>
          </ns3:TrackPointExtension>
        </extensions>
      </trkpt>
      <trkpt lat="47.5188021361827850341796875" lon="10.17271614633500576019287109375">
        <ele>1578.4000244140625</ele>
        <time>2026-09-01T07:59:19.000Z</time>
        <extensions>
          <ns3:TrackPointExtension>
            <ns3:hr>151</ns3:hr>
            <ns3:cad>88</ns3:cad>
          </ns3:TrackPointExtension>
        </extensions>
      </trkpt>
      <trkpt lat="47.51878679729998111724853515625" lon="10.17271245829761028289794921875">
        <ele>1579.4000244140625</ele>
        <time>2026-09-01T07:59:21.000Z</time>
        <extensions>
          <ns3:TrackPointExtension>
            <ns3:hr>150</ns3:hr>
            <ns3:cad>88</ns3:cad>
          </ns3:TrackPointExtension>
        </extensions>
      </trkpt>
      <trkpt lat="47.5187701173126697540283203125" lon="10.17271664924919605255126953125">
        <ele>1579.800048828125</ele>
        <time>2026-09-01T07:59:22.000Z</time>
        <extensions>
          <ns3:TrackPointExtension>
            <ns3:hr>151</ns3:hr>
            <ns3:cad>83</ns3:cad>
          </ns3:TrackPointExtension>
        </extensions>
      </trkpt>
      <trkpt lat="47.51872125081717967987060546875" lon="10.17271396704018115997314453125">
        <ele>1580.800048828125</ele>
        <time>2026-09-01T07:59:25.000Z</time>
        <extensions>
          <ns3:TrackPointExtension>
            <ns3:hr>152</ns3:hr>
            <ns3:cad>83</ns3:cad>
          </ns3:TrackPointExtension>
        </extensions>
      </trkpt>
      <trkpt lat="47.518693506717681884765625" lon="10.17267356626689434051513671875">
        <ele>1581.4000244140625</ele>
        <time>2026-09-01T07:59:27.000Z</time>
        <extensions>
          <ns3:TrackPointExtension>
            <ns3:hr>153</ns3:hr>
            <ns3:cad>82</ns3:cad>
          </ns3:TrackPointExtension>
        </extensions>
      </trkpt>
      <trkpt lat="47.5186708755791187286376953125" lon="10.17262897454202175140380859375">
        <ele>1582.199951171875</ele>
        <time>2026-09-01T07:59:29.000Z</time>
        <extensions>
          <ns3:TrackPointExtension>
            <ns3:hr>154</ns3:hr>
            <ns3:cad>83</ns3:cad>
          </ns3:TrackPointExtension>
        </extensions>
      </trkpt>
      <trkpt lat="47.51863910816609859466552734375" lon="10.17255186103284358978271484375">
        <ele>1583</ele>
        <time>2026-09-01T07:59:32.000Z</time>
        <extensions>
          <ns3:TrackPointExtension>
            <ns3:hr>157</ns3:hr>
            <ns3:cad>82</ns3:cad>
          </ns3:TrackPointExtension>
        </extensions>
      </trkpt>
      <trkpt lat="47.518614046275615692138671875" lon="10.1725229434669017791748046875">
        <ele>1583.199951171875</ele>
        <time>2026-09-01T07:59:33.000Z</time>
        <extensions>
          <ns3:TrackPointExtension>
            <ns3:hr>157</ns3:hr>
            <ns3:cad>82</ns3:cad>
          </ns3:TrackPointExtension>
        </extensions>
      </trkpt>
      <trkpt lat="47.51859434880316257476806640625" lon="10.17250810749828815460205078125">
        <ele>1583.4000244140625</ele>
        <time>2026-09-01T07:59:34.000Z</time>
        <extensions>
          <ns3:TrackPointExtension>
            <ns3:hr>158</ns3:hr>
            <ns3:cad>82</ns3:cad>
          </ns3:TrackPointExtension>
        </extensions>
      </trkpt>
      <trkpt lat="47.518482618033885955810546875" lon="10.17245781607925891876220703125">
        <ele>1583.800048828125</ele>
        <time>2026-09-01T07:59:38.000Z</time>
        <extensions>
          <ns3:TrackPointExtension>
            <ns3:hr>158</ns3:hr>
            <ns3:cad>82</ns3:cad>
          </ns3:TrackPointExtension>
        </extensions>
      </trkpt>
      <trkpt lat="47.51844230107963085174560546875" lon="10.17243669368326663970947265625">
        <ele>1584.199951171875</ele>
        <time>2026-09-01T07:59:40.000Z</time>
        <extensions>
          <ns3:TrackPointExtension>
            <ns3:hr>158</ns3:hr>
            <ns3:cad>83</ns3:cad>
          </ns3:TrackPointExtension>
        </extensions>
      </trkpt>
      <trkpt lat="47.51842201687395572662353515625" lon="10.172412805259227752685546875">
        <ele>1584.800048828125</ele>
        <time>2026-09-01T07:59:42.000Z</time>
        <extensions>
          <ns3:TrackPointExtension>
            <ns3:hr>159</ns3:hr>
            <ns3:cad>85</ns3:cad>
          </ns3:TrackPointExtension>
        </extensions>
      </trkpt>
      <trkpt lat="47.51840852200984954833984375" lon="10.17237097956240177154541015625">
        <ele>1585.5999755859375</ele>
        <time>2026-09-01T07:59:44.000Z</time>
        <extensions>
          <ns3:TrackPointExtension>
            <ns3:hr>158</ns3:hr>
            <ns3:cad>85</ns3:cad>
          </ns3:TrackPointExtension>
        </extensions>
      </trkpt>
      <trkpt lat="47.51841648481786251068115234375" lon="10.17234834842383861541748046875">
        <ele>1586.199951171875</ele>
        <time>2026-09-01T07:59:46.000Z</time>
        <extensions>
          <ns3:TrackPointExtension>
            <ns3:hr>159</ns3:hr>
            <ns3:cad>85</ns3:cad>
          </ns3:TrackPointExtension>
        </extensions>
      </trkpt>
      <trkpt lat="47.518426291644573211669921875" lon="10.172329656779766082763671875">
        <ele>1586.800048828125</ele>
        <time>2026-09-01T07:59:48.000Z</time>
        <extensions>
          <ns3:TrackPointExtension>
            <ns3:hr>159</ns3:hr>
            <ns3:cad>85</ns3:cad>
          </ns3:TrackPointExtension>
        </extensions>
      </trkpt>
      <trkpt lat="47.51842319034039974212646484375" lon="10.1723137311637401580810546875">
        <ele>1587</ele>
        <time>2026-09-01T07:59:49.000Z</time>
        <extensions>
          <ns3:TrackPointExtension>
            <ns3:hr>158</ns3:hr>
            <ns3:cad>85</ns3:cad>
          </ns3:TrackPointExtension>
        </extensions>
      </trkpt>
      <trkpt lat="47.518403828144073486328125" lon="10.172300152480602264404296875">
        <ele>1587.800048828125</ele>
        <time>2026-09-01T07:59:51.000Z</time>
        <extensions>
          <ns3:TrackPointExtension>
            <ns3:hr>159</ns3:hr>
            <ns3:cad>85</ns3:cad>
          </ns3:TrackPointExtension>
        </extensions>
      </trkpt>
      <trkpt lat="47.51838848926126956939697265625" lon="10.17228498123586177825927734375">
        <ele>1588.199951171875</ele>
        <time>2026-09-01T07:59:52.000Z</time>
        <extensions>
          <ns3:TrackPointExtension>
            <ns3:hr>159</ns3:hr>
            <ns3:cad>61</ns3:cad>
          </ns3:TrackPointExtension>
        </extensions>
      </trkpt>
      <trkpt lat="47.5183667801320552825927734375" lon="10.17227961681783199310302734375">
        <ele>1589.199951171875</ele>
        <time>2026-09-01T07:59:54.000Z</time>
        <extensions>
          <ns3:TrackPointExtension>
            <ns3:hr>159</ns3:hr>
            <ns3:cad>61</ns3:cad>
          </ns3:TrackPointExtension>
        </extensions>
      </trkpt>
      <trkpt lat="47.51836803741753101348876953125" lon="10.1722634397447109222412109375">
        <ele>1589.800048828125</ele>
        <time>2026-09-01T07:59:56.000Z</time>
        <extensions>
          <ns3:TrackPointExtension>
            <ns3:hr>160</ns3:hr>
            <ns3:cad>63</ns3:cad>
          </ns3:TrackPointExtension>
        </extensions>
      </trkpt>
      <trkpt lat="47.5183731503784656524658203125" lon="10.17225732095539569854736328125">
        <ele>1590.199951171875</ele>
        <time>2026-09-01T07:59:57.000Z</time>
        <extensions>
          <ns3:TrackPointExtension>
            <ns3:hr>159</ns3:hr>
            <ns3:cad>63</ns3:cad>
          </ns3:TrackPointExtension>
        </extensions>
      </trkpt>
      <trkpt lat="47.51836669631302356719970703125" lon="10.172230415046215057373046875">
        <ele>1591.199951171875</ele>
        <time>2026-09-01T08:00:01.000Z</time>
        <extensions>
          <ns3:TrackPointExtension>
            <ns3:hr>160</ns3:hr>
            <ns3:cad>63</ns3:cad>
          </ns3:TrackPointExtension>
        </extensions>
      </trkpt>
      <trkpt lat="47.51836267299950122833251953125" lon="10.17222069203853607177734375">
        <ele>1591.800048828125</ele>
        <time>2026-09-01T08:00:03.000Z</time>
        <extensions>
          <ns3:TrackPointExtension>
            <ns3:hr>159</ns3:hr>
            <ns3:cad>63</ns3:cad>
          </ns3:TrackPointExtension>
        </extensions>
      </trkpt>
      <trkpt lat="47.51837097108364105224609375" lon="10.17221809364855289459228515625">
        <ele>1592.4000244140625</ele>
        <time>2026-09-01T08:00:05.000Z</time>
        <extensions>
          <ns3:TrackPointExtension>
            <ns3:hr>159</ns3:hr>
            <ns3:cad>50</ns3:cad>
          </ns3:TrackPointExtension>
        </extensions>
      </trkpt>
      <trkpt lat="47.51838262192904949188232421875" lon="10.17220233567059040069580078125">
        <ele>1593.5999755859375</ele>
        <time>2026-09-01T08:00:08.000Z</time>
        <extensions>
          <ns3:TrackPointExtension>
            <ns3:hr>158</ns3:hr>
            <ns3:cad>50</ns3:cad>
          </ns3:TrackPointExtension>
        </extensions>
      </trkpt>
      <trkpt lat="47.51840810291469097137451171875" lon="10.17219252884387969970703125">
        <ele>1594.800048828125</ele>
        <time>2026-09-01T08:00:11.000Z</time>
        <extensions>
          <ns3:TrackPointExtension>
            <ns3:hr>159</ns3:hr>
            <ns3:cad>47</ns3:cad>
          </ns3:TrackPointExtension>
        </extensions>
      </trkpt>
      <trkpt lat="47.5184284709393978118896484375" lon="10.17217920161783695220947265625">
        <ele>1596</ele>
        <time>2026-09-01T08:00:14.000Z</time>
        <extensions>
          <ns3:TrackPointExtension>
            <ns3:hr>159</ns3:hr>
            <ns3:cad>47</ns3:cad>
          </ns3:TrackPointExtension>
        </extensions>
      </trkpt>
      <trkpt lat="47.518440373241901397705078125" lon="10.1721742562949657440185546875">
        <ele>1596.199951171875</ele>
        <time>2026-09-01T08:00:15.000Z</time>
        <extensions>
          <ns3:TrackPointExtension>
            <ns3:hr>160</ns3:hr>
            <ns3:cad>45</ns3:cad>
          </ns3:TrackPointExtension>
        </extensions>
      </trkpt>
      <trkpt lat="47.518444061279296875" lon="10.17215221188962459564208984375">
        <ele>1596.5999755859375</ele>
        <time>2026-09-01T08:00:16.000Z</time>
        <extensions>
          <ns3:TrackPointExtension>
            <ns3:hr>161</ns3:hr>
            <ns3:cad>44</ns3:cad>
          </ns3:TrackPointExtension>
        </extensions>
      </trkpt>
      <trkpt lat="47.51844414509832859039306640625" lon="10.17214567400515079498291015625">
        <ele>1597</ele>
        <time>2026-09-01T08:00:17.000Z</time>
        <extensions>
          <ns3:TrackPointExtension>
            <ns3:hr>161</ns3:hr>
            <ns3:cad>44</ns3:cad>
          </ns3:TrackPointExtension>
        </extensions>
      </trkpt>
      <trkpt lat="47.51843727193772792816162109375" lon="10.172133855521678924560546875">
        <ele>1597.4000244140625</ele>
        <time>2026-09-01T08:00:18.000Z</time>
        <extensions>
          <ns3:TrackPointExtension>
            <ns3:hr>162</ns3:hr>
            <ns3:cad>44</ns3:cad>
          </ns3:TrackPointExtension>
        </extensions>
      </trkpt>
      <trkpt lat="47.51843802630901336669921875" lon="10.172125808894634246826171875">
        <ele>1597.800048828125</ele>
        <time>2026-09-01T08:00:19.000Z</time>
        <extensions>
          <ns3:TrackPointExtension>
            <ns3:hr>162</ns3:hr>
            <ns3:cad>44</ns3:cad>
          </ns3:TrackPointExtension>
        </extensions>
      </trkpt>
      <trkpt lat="47.51843811012804508209228515625" lon="10.17212019301950931549072265625">
        <ele>1598.199951171875</ele>
        <time>2026-09-01T08:00:20.000Z</time>
        <extensions>
          <ns3:TrackPointExtension>
            <ns3:hr>162</ns3:hr>
            <ns3:cad>44</ns3:cad>
          </ns3:TrackPointExtension>
        </extensions>
      </trkpt>
      <trkpt lat="47.5184261240065097808837890625" lon="10.17208213917911052703857421875">
        <ele>1599.199951171875</ele>
        <time>2026-09-01T08:00:23.000Z</time>
        <extensions>
          <ns3:TrackPointExtension>
            <ns3:hr>163</ns3:hr>
            <ns3:cad>44</ns3:cad>
          </ns3:TrackPointExtension>
        </extensions>
      </trkpt>
      <trkpt lat="47.5184117071330547332763671875" lon="10.1720716618001461029052734375">
        <ele>1600</ele>
        <time>2026-09-01T08:00:25.000Z</time>
        <extensions>
          <ns3:TrackPointExtension>
            <ns3:hr>164</ns3:hr>
            <ns3:cad>44</ns3:cad>
          </ns3:TrackPointExtension>
        </extensions>
      </trkpt>
      <trkpt lat="47.5184105336666107177734375" lon="10.17205799929797649383544921875">
        <ele>1600.4000244140625</ele>
        <time>2026-09-01T08:00:26.000Z</time>
        <extensions>
          <ns3:TrackPointExtension>
            <ns3:hr>164</ns3:hr>
            <ns3:cad>44</ns3:cad>
          </ns3:TrackPointExtension>
        </extensions>
      </trkpt>
      <trkpt lat="47.5183781795203685760498046875" lon="10.17198557965457439422607421875">
        <ele>1601.4000244140625</ele>
        <time>2026-09-01T08:00:30.000Z</time>
        <extensions>
          <ns3:TrackPointExtension>
            <ns3:hr>164</ns3:hr>
            <ns3:cad>49</ns3:cad>
          </ns3:TrackPointExtension>
        </extensions>
      </trkpt>
      <trkpt lat="47.5183704681694507598876953125" lon="10.171973593533039093017578125">
        <ele>1601.5999755859375</ele>
        <time>2026-09-01T08:00:31.000Z</time>
        <extensions>
          <ns3:TrackPointExtension>
            <ns3:hr>164</ns3:hr>
            <ns3:cad>51</ns3:cad>
          </ns3:TrackPointExtension>
        </extensions>
      </trkpt>
      <trkpt lat="47.518348507583141326904296875" lon="10.17193947918713092803955078125">
        <ele>1602.800048828125</ele>
        <time>2026-09-01T08:00:34.000Z</time>
        <extensions>
          <ns3:TrackPointExtension>
            <ns3:hr>163</ns3:hr>
            <ns3:cad>52</ns3:cad>
          </ns3:TrackPointExtension>
        </extensions>
      </trkpt>
      <trkpt lat="47.51832327805459499359130859375" lon="10.171896480023860931396484375">
        <ele>1603.800048828125</ele>
        <time>2026-09-01T08:00:37.000Z</time>
        <extensions>
          <ns3:TrackPointExtension>
            <ns3:hr>163</ns3:hr>
            <ns3:cad>50</ns3:cad>
          </ns3:TrackPointExtension>
        </extensions>
      </trkpt>
      <trkpt lat="47.51829829998314380645751953125" lon="10.17188767902553081512451171875">
        <ele>1605</ele>
        <time>2026-09-01T08:00:41.000Z</time>
        <extensions>
          <ns3:TrackPointExtension>
            <ns3:hr>163</ns3:hr>
            <ns3:cad>54</ns3:cad>
          </ns3:TrackPointExtension>
        </extensions>
      </trkpt>
      <trkpt lat="47.51828874461352825164794921875" lon="10.17188231460750102996826171875">
        <ele>1605.4000244140625</ele>
        <time>2026-09-01T08:00:42.000Z</time>
        <extensions>
          <ns3:TrackPointExtension>
            <ns3:hr>163</ns3:hr>
            <ns3:cad>54</ns3:cad>
          </ns3:TrackPointExtension>
        </extensions>
      </trkpt>
      <trkpt lat="47.5182695500552654266357421875" lon="10.17186555080115795135498046875">
        <ele>1606.4000244140625</ele>
        <time>2026-09-01T08:00:44.000Z</time>
        <extensions>
          <ns3:TrackPointExtension>
            <ns3:hr>163</ns3:hr>
            <ns3:cad>0</ns3:cad>
          </ns3:TrackPointExtension>
        </extensions>
      </trkpt>
      <trkpt lat="47.51823761500418186187744140625" lon="10.1718069612979888916015625">
        <ele>1607.4000244140625</ele>
        <time>2026-09-01T08:00:47.000Z</time>
        <extensions>
          <ns3:TrackPointExtension>
            <ns3:hr>162</ns3:hr>
            <ns3:cad>0</ns3:cad>
          </ns3:TrackPointExtension>
        </extensions>
      </trkpt>
      <trkpt lat="47.51822504214942455291748046875" lon="10.1717742718756198883056640625">
        <ele>1607.5999755859375</ele>
        <time>2026-09-01T08:00:48.000Z</time>
        <extensions>
          <ns3:TrackPointExtension>
            <ns3:hr>162</ns3:hr>
            <ns3:cad>75</ns3:cad>
          </ns3:TrackPointExtension>
        </extensions>
      </trkpt>
      <trkpt lat="47.518180198967456817626953125" lon="10.17156899906694889068603515625">
        <ele>1607.4000244140625</ele>
        <time>2026-09-01T08:00:53.000Z</time>
        <extensions>
          <ns3:TrackPointExtension>
            <ns3:hr>162</ns3:hr>
            <ns3:cad>83</ns3:cad>
          </ns3:TrackPointExtension>
        </extensions>
      </trkpt>
      <trkpt lat="47.51816184259951114654541015625" lon="10.17144712619483470916748046875">
        <ele>1608.199951171875</ele>
        <time>2026-09-01T08:00:56.000Z</time>
        <extensions>
          <ns3:TrackPointExtension>
            <ns3:hr>163</ns3:hr>
            <ns3:cad>86</ns3:cad>
          </ns3:TrackPointExtension>
        </extensions>
      </trkpt>
      <trkpt lat="47.51813896000385284423828125" lon="10.1713964156806468963623046875">
        <ele>1608.4000244140625</ele>
        <time>2026-09-01T08:00:58.000Z</time>
        <extensions>
          <ns3:TrackPointExtension>
            <ns3:hr>163</ns3:hr>
            <ns3:cad>86</ns3:cad>
          </ns3:TrackPointExtension>
        </extensions>
      </trkpt>
      <trkpt lat="47.51812831498682498931884765625" lon="10.171359367668628692626953125">
        <ele>1608.4000244140625</ele>
        <time>2026-09-01T08:01:00.000Z</time>
        <extensions>
          <ns3:TrackPointExtension>
            <ns3:hr>163</ns3:hr>
            <ns3:cad>83</ns3:cad>
          </ns3:TrackPointExtension>
        </extensions>
      </trkpt>
      <trkpt lat="47.51812714152038097381591796875" lon="10.17132106237113475799560546875">
        <ele>1608.4000244140625</ele>
        <time>2026-09-01T08:01:01.000Z</time>
        <extensions>
          <ns3:TrackPointExtension>
            <ns3:hr>164</ns3:hr>
            <ns3:cad>83</ns3:cad>
          </ns3:TrackPointExtension>
        </extensions>
      </trkpt>
      <trkpt lat="47.51812613569200038909912109375" lon="10.1712830923497676849365234375">
        <ele>1607.4000244140625</ele>
        <time>2026-09-01T08:01:03.000Z</time>
        <extensions>
          <ns3:TrackPointExtension>
            <ns3:hr>163</ns3:hr>
            <ns3:cad>83</ns3:cad>
          </ns3:TrackPointExtension>
        </extensions>
      </trkpt>
      <trkpt lat="47.51813820563256740570068359375" lon="10.171290300786495208740234375">
        <ele>1605.800048828125</ele>
        <time>2026-09-01T08:01:05.000Z</time>
        <extensions>
          <ns3:TrackPointExtension>
            <ns3:hr>163</ns3:hr>
            <ns3:cad>0</ns3:cad>
          </ns3:TrackPointExtension>
        </extensions>
      </trkpt>
      <trkpt lat="47.51816620118916034698486328125" lon="10.17132072709500789642333984375">
        <ele>1604.199951171875</ele>
        <time>2026-09-01T08:01:07.000Z</time>
        <extensions>
          <ns3:TrackPointExtension>
            <ns3:hr>162</ns3:hr>
            <ns3:cad>0</ns3:cad>
          </ns3:TrackPointExtension>
        </extensions>
      </trkpt>
      <trkpt lat="47.51817592419683933258056640625" lon="10.17129792831838130950927734375">
        <ele>1603.4000244140625</ele>
        <time>2026-09-01T08:01:08.000Z</time>
        <extensions>
          <ns3:TrackPointExtension>
            <ns3:hr>163</ns3:hr>
            <ns3:cad>0</ns3:cad>
          </ns3:TrackPointExtension>
        </extensions>
      </trkpt>
      <trkpt lat="47.51817156560719013214111328125" lon="10.17126691527664661407470703125">
        <ele>1602.4000244140625</ele>
        <time>2026-09-01T08:01:09.000Z</time>
        <extensions>
          <ns3:TrackPointExtension>
            <ns3:hr>163</ns3:hr>
            <ns3:cad>0</ns3:cad>
          </ns3:TrackPointExtension>
        </extensions>
      </trkpt>
      <trkpt lat="47.518168799579143524169921875" lon="10.1712401770055294036865234375">
        <ele>1601.800048828125</ele>
        <time>2026-09-01T08:01:10.000Z</time>
        <extensions>
          <ns3:TrackPointExtension>
            <ns3:hr>162</ns3:hr>
            <ns3:cad>0</ns3:cad>
          </ns3:TrackPointExtension>
        </extensions>
      </trkpt>
      <trkpt lat="47.51816653646528720855712890625" lon="10.171218216419219970703125">
        <ele>1601.199951171875</ele>
        <time>2026-09-01T08:01:11.000Z</time>
        <extensions>
          <ns3:TrackPointExtension>
            <ns3:hr>161</ns3:hr>
            <ns3:cad>0</ns3:cad>
          </ns3:TrackPointExtension>
        </extensions>
      </trkpt>
      <trkpt lat="47.518123202025890350341796875" lon="10.1710559427738189697265625">
        <ele>1599.5999755859375</ele>
        <time>2026-09-01T08:01:14.000Z</time>
        <extensions>
          <ns3:TrackPointExtension>
            <ns3:hr>160</ns3:hr>
            <ns3:cad>0</ns3:cad>
          </ns3:TrackPointExtension>
        </extensions>
      </trkpt>
      <trkpt lat="47.5181112997233867645263671875" lon="10.17096131108701229095458984375">
        <ele>1598.199951171875</ele>
        <time>2026-09-01T08:01:16.000Z</time>
        <extensions>
          <ns3:TrackPointExtension>
            <ns3:hr>158</ns3:hr>
            <ns3:cad>80</ns3:cad>
          </ns3:TrackPointExtension>
        </extensions>
      </trkpt>
      <trkpt lat="47.518096379935741424560546875" lon="10.170908086001873016357421875">
        <ele>1597.800048828125</ele>
        <time>2026-09-01T08:01:18.000Z</time>
        <extensions>
          <ns3:TrackPointExtension>
            <ns3:hr>157</ns3:hr>
            <ns3:cad>80</ns3:cad>
          </ns3:TrackPointExtension>
        </extensions>
      </trkpt>
      <trkpt lat="47.5181128084659576416015625" lon="10.17085066996514797210693359375">
        <ele>1597.5999755859375</ele>
        <time>2026-09-01T08:01:20.000Z</time>
        <extensions>
          <ns3:TrackPointExtension>
            <ns3:hr>157</ns3:hr>
            <ns3:cad>80</ns3:cad>
          </ns3:TrackPointExtension>
        </extensions>
      </trkpt>
      <trkpt lat="47.5180968828499317169189453125" lon="10.17074002884328365325927734375">
        <ele>1596.5999755859375</ele>
        <time>2026-09-01T08:01:22.000Z</time>
        <extensions>
          <ns3:TrackPointExtension>
            <ns3:hr>156</ns3:hr>
            <ns3:cad>88</ns3:cad>
          </ns3:TrackPointExtension>
        </extensions>
      </trkpt>
      <trkpt lat="47.5180777721107006072998046875" lon="10.17061941325664520263671875">
        <ele>1595</ele>
        <time>2026-09-01T08:01:24.000Z</time>
        <extensions>
          <ns3:TrackPointExtension>
            <ns3:hr>156</ns3:hr>
            <ns3:cad>0</ns3:cad>
          </ns3:TrackPointExtension>
        </extensions>
      </trkpt>
      <trkpt lat="47.51806159503757953643798828125" lon="10.1705758273601531982421875">
        <ele>1594.199951171875</ele>
        <time>2026-09-01T08:01:25.000Z</time>
        <extensions>
          <ns3:TrackPointExtension>
            <ns3:hr>156</ns3:hr>
            <ns3:cad>0</ns3:cad>
          </ns3:TrackPointExtension>
        </extensions>
      </trkpt>
      <trkpt lat="47.51804776489734649658203125" lon="10.17052151262760162353515625">
        <ele>1593.800048828125</ele>
        <time>2026-09-01T08:01:26.000Z</time>
        <extensions>
          <ns3:TrackPointExtension>
            <ns3:hr>156</ns3:hr>
            <ns3:cad>90</ns3:cad>
          </ns3:TrackPointExtension>
        </extensions>
      </trkpt>
      <trkpt lat="47.51804633997380733489990234375" lon="10.17036619596183300018310546875">
        <ele>1593.4000244140625</ele>
        <time>2026-09-01T08:01:29.000Z</time>
        <extensions>
          <ns3:TrackPointExtension>
            <ns3:hr>156</ns3:hr>
            <ns3:cad>86</ns3:cad>
          </ns3:TrackPointExtension>
        </extensions>
      </trkpt>
      <trkpt lat="47.51801549457013607025146484375" lon="10.1701867394149303436279296875">
        <ele>1593.5999755859375</ele>
        <time>2026-09-01T08:01:33.000Z</time>
        <extensions>
          <ns3:TrackPointExtension>
            <ns3:hr>154</ns3:hr>
            <ns3:cad>85</ns3:cad>
          </ns3:TrackPointExtension>
        </extensions>
      </trkpt>
      <trkpt lat="47.5179728306829929351806640625" lon="10.1700583286583423614501953125">
        <ele>1594.5999755859375</ele>
        <time>2026-09-01T08:01:37.000Z</time>
        <extensions>
          <ns3:TrackPointExtension>
            <ns3:hr>153</ns3:hr>
            <ns3:cad>86</ns3:cad>
          </ns3:TrackPointExtension>
        </extensions>
      </trkpt>
      <trkpt lat="47.51797324977815151214599609375" lon="10.1700315065681934356689453125">
        <ele>1595</ele>
        <time>2026-09-01T08:01:38.000Z</time>
        <extensions>
          <ns3:TrackPointExtension>
            <ns3:hr>153</ns3:hr>
            <ns3:cad>86</ns3:cad>
          </ns3:TrackPointExtension>
        </extensions>
      </trkpt>
      <trkpt lat="47.51795631833374500274658203125" lon="10.16995481215417385101318359375">
        <ele>1595.800048828125</ele>
        <time>2026-09-01T08:01:40.000Z</time>
        <extensions>
          <ns3:TrackPointExtension>
            <ns3:hr>153</ns3:hr>
            <ns3:cad>86</ns3:cad>
          </ns3:TrackPointExtension>
        </extensions>
      </trkpt>
      <trkpt lat="47.5179399736225605010986328125" lon="10.169868059456348419189453125">
        <ele>1596.199951171875</ele>
        <time>2026-09-01T08:01:42.000Z</time>
        <extensions>
          <ns3:TrackPointExtension>
            <ns3:hr>153</ns3:hr>
            <ns3:cad>87</ns3:cad>
          </ns3:TrackPointExtension>
        </extensions>
      </trkpt>
      <trkpt lat="47.51793083734810352325439453125" lon="10.169787593185901641845703125">
        <ele>1596.800048828125</ele>
        <time>2026-09-01T08:01:44.000Z</time>
        <extensions>
          <ns3:TrackPointExtension>
            <ns3:hr>153</ns3:hr>
            <ns3:cad>87</ns3:cad>
          </ns3:TrackPointExtension>
        </extensions>
      </trkpt>
      <trkpt lat="47.51789798028767108917236328125" lon="10.1696529798209667205810546875">
        <ele>1597</ele>
        <time>2026-09-01T08:01:47.000Z</time>
        <extensions>
          <ns3:TrackPointExtension>
            <ns3:hr>154</ns3:hr>
            <ns3:cad>86</ns3:cad>
          </ns3:TrackPointExtension>
        </extensions>
      </trkpt>
      <trkpt lat="47.5178645364940166473388671875" lon="10.1695363037288188934326171875">
        <ele>1597</ele>
        <time>2026-09-01T08:01:50.000Z</time>
        <extensions>
          <ns3:TrackPointExtension>
            <ns3:hr>155</ns3:hr>
            <ns3:cad>84</ns3:cad>
          </ns3:TrackPointExtension>
        </extensions>
      </trkpt>
      <trkpt lat="47.5178638659417629241943359375" lon="10.169477127492427825927734375">
        <ele>1597.199951171875</ele>
        <time>2026-09-01T08:01:52.000Z</time>
        <extensions>
          <ns3:TrackPointExtension>
            <ns3:hr>155</ns3:hr>
            <ns3:cad>84</ns3:cad>
          </ns3:TrackPointExtension>
        </extensions>
      </trkpt>
      <trkpt lat="47.5178561545908451080322265625" lon="10.1694332063198089599609375">
        <ele>1597.4000244140625</ele>
        <time>2026-09-01T08:01:53.000Z</time>
        <extensions>
          <ns3:TrackPointExtension>
            <ns3:hr>156</ns3:hr>
            <ns3:cad>84</ns3:cad>
          </ns3:TrackPointExtension>
        </extensions>
      </trkpt>
      <trkpt lat="47.51783721148967742919921875" lon="10.16933639533817768096923828125">
        <ele>1598.5999755859375</ele>
        <time>2026-09-01T08:01:56.000Z</time>
        <extensions>
          <ns3:TrackPointExtension>
            <ns3:hr>157</ns3:hr>
            <ns3:cad>85</ns3:cad>
          </ns3:TrackPointExtension>
        </extensions>
      </trkpt>
      <trkpt lat="47.51780904829502105712890625" lon="10.1692439429461956024169921875">
        <ele>1599.800048828125</ele>
        <time>2026-09-01T08:02:00.000Z</time>
        <extensions>
          <ns3:TrackPointExtension>
            <ns3:hr>157</ns3:hr>
            <ns3:cad>87</ns3:cad>
          </ns3:TrackPointExtension>
        </extensions>
      </trkpt>
      <trkpt lat="47.5178018398582935333251953125" lon="10.16921653412282466888427734375">
        <ele>1601</ele>
        <time>2026-09-01T08:02:03.000Z</time>
        <extensions>
          <ns3:TrackPointExtension>
            <ns3:hr>157</ns3:hr>
            <ns3:cad>44</ns3:cad>
          </ns3:TrackPointExtension>
        </extensions>
      </trkpt>
      <trkpt lat="47.51780510880053043365478515625" lon="10.16919390298426151275634765625">
        <ele>1601.800048828125</ele>
        <time>2026-09-01T08:02:05.000Z</time>
        <extensions>
          <ns3:TrackPointExtension>
            <ns3:hr>156</ns3:hr>
            <ns3:cad>44</ns3:cad>
          </ns3:TrackPointExtension>
        </extensions>
      </trkpt>
      <trkpt lat="47.5178142450749874114990234375" lon="10.1691775582730770111083984375">
        <ele>1602.199951171875</ele>
        <time>2026-09-01T08:02:06.000Z</time>
        <extensions>
          <ns3:TrackPointExtension>
            <ns3:hr>155</ns3:hr>
            <ns3:cad>44</ns3:cad>
          </ns3:TrackPointExtension>
        </extensions>
      </trkpt>
      <trkpt lat="47.5178199447691440582275390625" lon="10.16913221217691898345947265625">
        <ele>1603.4000244140625</ele>
        <time>2026-09-01T08:02:09.000Z</time>
        <extensions>
          <ns3:TrackPointExtension>
            <ns3:hr>155</ns3:hr>
            <ns3:cad>44</ns3:cad>
          </ns3:TrackPointExtension>
        </extensions>
      </trkpt>
      <trkpt lat="47.51781483180820941925048828125" lon="10.16910052858293056488037109375">
        <ele>1603.800048828125</ele>
        <time>2026-09-01T08:02:10.000Z</time>
        <extensions>
          <ns3:TrackPointExtension>
            <ns3:hr>156</ns3:hr>
            <ns3:cad>44</ns3:cad>
          </ns3:TrackPointExtension>
        </extensions>
      </trkpt>
      <trkpt lat="47.51781114377081394195556640625" lon="10.16906104981899261474609375">
        <ele>1604.5999755859375</ele>
        <time>2026-09-01T08:02:12.000Z</time>
        <extensions>
          <ns3:TrackPointExtension>
            <ns3:hr>157</ns3:hr>
            <ns3:cad>0</ns3:cad>
          </ns3:TrackPointExtension>
        </extensions>
      </trkpt>
      <trkpt lat="47.51780611462891101837158203125" lon="10.16904151998460292816162109375">
        <ele>1605</ele>
        <time>2026-09-01T08:02:13.000Z</time>
        <extensions>
          <ns3:TrackPointExtension>
            <ns3:hr>157</ns3:hr>
            <ns3:cad>0</ns3:cad>
          </ns3:TrackPointExtension>
        </extensions>
      </trkpt>
      <trkpt lat="47.5178075395524501800537109375" lon="10.168994329869747161865234375">
        <ele>1605.5999755859375</ele>
        <time>2026-09-01T08:02:15.000Z</time>
        <extensions>
          <ns3:TrackPointExtension>
            <ns3:hr>157</ns3:hr>
            <ns3:cad>48</ns3:cad>
          </ns3:TrackPointExtension>
        </extensions>
      </trkpt>
      <trkpt lat="47.51778432168066501617431640625" lon="10.16890841536223888397216796875">
        <ele>1605.5999755859375</ele>
        <time>2026-09-01T08:02:17.000Z</time>
        <extensions>
          <ns3:TrackPointExtension>
            <ns3:hr>158</ns3:hr>
            <ns3:cad>48</ns3:cad>
          </ns3:TrackPointExtension>
        </extensions>
      </trkpt>
      <trkpt lat="47.5177668035030364990234375" lon="10.1687842793762683868408203125">
        <ele>1606.4000244140625</ele>
        <time>2026-09-01T08:02:22.000Z</time>
        <extensions>
          <ns3:TrackPointExtension>
            <ns3:hr>161</ns3:hr>
            <ns3:cad>84</ns3:cad>
          </ns3:TrackPointExtension>
        </extensions>
      </trkpt>
      <trkpt lat="47.517764456570148468017578125" lon="10.1687591336667537689208984375">
        <ele>1606.800048828125</ele>
        <time>2026-09-01T08:02:23.000Z</time>
        <extensions>
          <ns3:TrackPointExtension>
            <ns3:hr>161</ns3:hr>
            <ns3:cad>85</ns3:cad>
          </ns3:TrackPointExtension>
        </extensions>
      </trkpt>
      <trkpt lat="47.51774861477315425872802734375" lon="10.16866969875991344451904296875">
        <ele>1607.800048828125</ele>
        <time>2026-09-01T08:02:26.000Z</time>
        <extensions>
          <ns3:TrackPointExtension>
            <ns3:hr>161</ns3:hr>
            <ns3:cad>85</ns3:cad>
          </ns3:TrackPointExtension>
        </extensions>
      </trkpt>
      <trkpt lat="47.517754398286342620849609375" lon="10.1686084270477294921875">
        <ele>1608.5999755859375</ele>
        <time>2026-09-01T08:02:29.000Z</time>
        <extensions>
          <ns3:TrackPointExtension>
            <ns3:hr>162</ns3:hr>
            <ns3:cad>83</ns3:cad>
          </ns3:TrackPointExtension>
        </extensions>
      </trkpt>
      <trkpt lat="47.51775448210537433624267578125" lon="10.16859761439263820648193359375">
        <ele>1608.800048828125</ele>
        <time>2026-09-01T08:02:30.000Z</time>
        <extensions>
          <ns3:TrackPointExtension>
            <ns3:hr>162</ns3:hr>
            <ns3:cad>83</ns3:cad>
          </ns3:TrackPointExtension>
        </extensions>
      </trkpt>
      <trkpt lat="47.51773889176547527313232421875" lon="10.1685381866991519927978515625">
        <ele>1609.800048828125</ele>
        <time>2026-09-01T08:02:33.000Z</time>
        <extensions>
          <ns3:TrackPointExtension>
            <ns3:hr>161</ns3:hr>
            <ns3:cad>83</ns3:cad>
          </ns3:TrackPointExtension>
        </extensions>
      </trkpt>
      <trkpt lat="47.517735622823238372802734375" lon="10.168514214456081390380859375">
        <ele>1610.199951171875</ele>
        <time>2026-09-01T08:02:34.000Z</time>
        <extensions>
          <ns3:TrackPointExtension>
            <ns3:hr>162</ns3:hr>
            <ns3:cad>83</ns3:cad>
          </ns3:TrackPointExtension>
        </extensions>
      </trkpt>
      <trkpt lat="47.5177292525768280029296875" lon="10.1684379391372203826904296875">
        <ele>1611.4000244140625</ele>
        <time>2026-09-01T08:02:37.000Z</time>
        <extensions>
          <ns3:TrackPointExtension>
            <ns3:hr>162</ns3:hr>
            <ns3:cad>83</ns3:cad>
          </ns3:TrackPointExtension>
        </extensions>
      </trkpt>
      <trkpt lat="47.51770838163793087005615234375" lon="10.1683978736400604248046875">
        <ele>1612.4000244140625</ele>
        <time>2026-09-01T08:02:41.000Z</time>
        <extensions>
          <ns3:TrackPointExtension>
            <ns3:hr>162</ns3:hr>
            <ns3:cad>84</ns3:cad>
          </ns3:TrackPointExtension>
        </extensions>
      </trkpt>
      <trkpt lat="47.5176997482776641845703125" lon="10.16836493276059627532958984375">
        <ele>1612.800048828125</ele>
        <time>2026-09-01T08:02:42.000Z</time>
        <extensions>
          <ns3:TrackPointExtension>
            <ns3:hr>162</ns3:hr>
            <ns3:cad>84</ns3:cad>
          </ns3:TrackPointExtension>
        </extensions>
      </trkpt>
      <trkpt lat="47.5176995806396007537841796875" lon="10.16831480897963047027587890625">
        <ele>1613.5999755859375</ele>
        <time>2026-09-01T08:02:44.000Z</time>
        <extensions>
          <ns3:TrackPointExtension>
            <ns3:hr>162</ns3:hr>
            <ns3:cad>83</ns3:cad>
          </ns3:TrackPointExtension>
        </extensions>
      </trkpt>
      <trkpt lat="47.51769681461155414581298828125" lon="10.16826233826577663421630859375">
        <ele>1614</ele>
        <time>2026-09-01T08:02:46.000Z</time>
        <extensions>
          <ns3:TrackPointExtension>
            <ns3:hr>162</ns3:hr>
            <ns3:cad>0</ns3:cad>
          </ns3:TrackPointExtension>
        </extensions>
      </trkpt>
      <trkpt lat="47.5176928751170635223388671875" lon="10.1681898348033428192138671875">
        <ele>1614.800048828125</ele>
        <time>2026-09-01T08:02:49.000Z</time>
        <extensions>
          <ns3:TrackPointExtension>
            <ns3:hr>162</ns3:hr>
            <ns3:cad>83</ns3:cad>
          </ns3:TrackPointExtension>
        </extensions>
      </trkpt>
      <trkpt lat="47.5176844932138919830322265625" lon="10.1680379547178745269775390625">
        <ele>1615.199951171875</ele>
        <time>2026-09-01T08:02:53.000Z</time>
        <extensions>
          <ns3:TrackPointExtension>
            <ns3:hr>162</ns3:hr>
            <ns3:cad>84</ns3:cad>
          </ns3:TrackPointExtension>
        </extensions>
      </trkpt>
      <trkpt lat="47.51764987595379352569580078125" lon="10.1679169200360774993896484375">
        <ele>1614.4000244140625</ele>
        <time>2026-09-01T08:02:56.000Z</time>
        <extensions>
          <ns3:TrackPointExtension>
            <ns3:hr>163</ns3:hr>
            <ns3:cad>83</ns3:cad>
          </ns3:TrackPointExtension>
        </extensions>
      </trkpt>
      <trkpt lat="47.517634369432926177978515625" lon="10.167828910052776336669921875">
        <ele>1615</ele>
        <time>2026-09-01T08:03:00.000Z</time>
        <extensions>
          <ns3:TrackPointExtension>
            <ns3:hr>163</ns3:hr>
            <ns3:cad>83</ns3:cad>
          </ns3:TrackPointExtension>
        </extensions>
      </trkpt>
      <trkpt lat="47.51762288622558116912841796875" lon="10.16767560504376888275146484375">
        <ele>1614</ele>
        <time>2026-09-01T08:03:04.000Z</time>
        <extensions>
          <ns3:TrackPointExtension>
            <ns3:hr>162</ns3:hr>
            <ns3:cad>86</ns3:cad>
          </ns3:TrackPointExtension>
        </extensions>
      </trkpt>
      <trkpt lat="47.5176057033240795135498046875" lon="10.1676312647759914398193359375">
        <ele>1613.4000244140625</ele>
        <time>2026-09-01T08:03:05.000Z</time>
        <extensions>
          <ns3:TrackPointExtension>
            <ns3:hr>162</ns3:hr>
            <ns3:cad>86</ns3:cad>
          </ns3:TrackPointExtension>
        </extensions>
      </trkpt>
      <trkpt lat="47.51758248545229434967041015625" lon="10.167537219822406768798828125">
        <ele>1612.199951171875</ele>
        <time>2026-09-01T08:03:07.000Z</time>
        <extensions>
          <ns3:TrackPointExtension>
            <ns3:hr>162</ns3:hr>
            <ns3:cad>86</ns3:cad>
          </ns3:TrackPointExtension>
        </extensions>
      </trkpt>
      <trkpt lat="47.517527081072330474853515625" lon="10.1674327813088893890380859375">
        <ele>1610.5999755859375</ele>
        <time>2026-09-01T08:03:10.000Z</time>
        <extensions>
          <ns3:TrackPointExtension>
            <ns3:hr>161</ns3:hr>
            <ns3:cad>0</ns3:cad>
          </ns3:TrackPointExtension>
        </extensions>
      </trkpt>
      <trkpt lat="47.517506293952465057373046875" lon="10.16732289455831050872802734375">
        <ele>1609.4000244140625</ele>
        <time>2026-09-01T08:03:12.000Z</time>
        <extensions>
          <ns3:TrackPointExtension>
            <ns3:hr>161</ns3:hr>
            <ns3:cad>0</ns3:cad>
          </ns3:TrackPointExtension>
        </extensions>
      </trkpt>
      <trkpt lat="47.517504952847957611083984375" lon="10.16727796755731105804443359375">
        <ele>1609.199951171875</ele>
        <time>2026-09-01T08:03:13.000Z</time>
        <extensions>
          <ns3:TrackPointExtension>
            <ns3:hr>161</ns3:hr>
            <ns3:cad>0</ns3:cad>
          </ns3:TrackPointExtension>
        </extensions>
      </trkpt>
      <trkpt lat="47.51747469417750835418701171875" lon="10.16713949851691722869873046875">
        <ele>1610</ele>
        <time>2026-09-01T08:03:18.000Z</time>
        <extensions>
          <ns3:TrackPointExtension>
            <ns3:hr>159</ns3:hr>
            <ns3:cad>86</ns3:cad>
          </ns3:TrackPointExtension>
        </extensions>
      </trkpt>
      <trkpt lat="47.51746430061757564544677734375" lon="10.1671273447573184967041015625">
        <ele>1610.4000244140625</ele>
        <time>2026-09-01T08:03:19.000Z</time>
        <extensions>
          <ns3:TrackPointExtension>
            <ns3:hr>159</ns3:hr>
            <ns3:cad>86</ns3:cad>
          </ns3:TrackPointExtension>
        </extensions>
      </trkpt>
      <trkpt lat="47.51745759509503841400146484375" lon="10.16710697673261165618896484375">
        <ele>1611.5999755859375</ele>
        <time>2026-09-01T08:03:21.000Z</time>
        <extensions>
          <ns3:TrackPointExtension>
            <ns3:hr>158</ns3:hr>
            <ns3:cad>86</ns3:cad>
          </ns3:TrackPointExtension>
        </extensions>
      </trkpt>
      <trkpt lat="47.517460696399211883544921875" lon="10.16710094176232814788818359375">
        <ele>1612</ele>
        <time>2026-09-01T08:03:22.000Z</time>
        <extensions>
          <ns3:TrackPointExtension>
            <ns3:hr>158</ns3:hr>
            <ns3:cad>86</ns3:cad>
          </ns3:TrackPointExtension>
        </extensions>
      </trkpt>
      <trkpt lat="47.51745172776281833648681640625" lon="10.16710027121007442474365234375">
        <ele>1612.5999755859375</ele>
        <time>2026-09-01T08:03:23.000Z</time>
        <extensions>
          <ns3:TrackPointExtension>
            <ns3:hr>158</ns3:hr>
            <ns3:cad>86</ns3:cad>
          </ns3:TrackPointExtension>
        </extensions>
      </trkpt>
      <trkpt lat="47.51743328757584095001220703125" lon="10.167075209319591522216796875">
        <ele>1613.4000244140625</ele>
        <time>2026-09-01T08:03:25.000Z</time>
        <extensions>
          <ns3:TrackPointExtension>
            <ns3:hr>157</ns3:hr>
            <ns3:cad>79</ns3:cad>
          </ns3:TrackPointExtension>
        </extensions>
      </trkpt>
      <trkpt lat="47.5174293480813503265380859375" lon="10.16705433838069438934326171875">
        <ele>1613.800048828125</ele>
        <time>2026-09-01T08:03:26.000Z</time>
        <extensions>
          <ns3:TrackPointExtension>
            <ns3:hr>157</ns3:hr>
            <ns3:cad>79</ns3:cad>
          </ns3:TrackPointExtension>
        </extensions>
      </trkpt>
      <trkpt lat="47.51741719432175159454345703125" lon="10.16703790985047817230224609375">
        <ele>1614</ele>
        <time>2026-09-01T08:03:27.000Z</time>
        <extensions>
          <ns3:TrackPointExtension>
            <ns3:hr>158</ns3:hr>
            <ns3:cad>79</ns3:cad>
          </ns3:TrackPointExtension>
        </extensions>
      </trkpt>
      <trkpt lat="47.5173971615731716156005859375" lon="10.16698074527084827423095703125">
        <ele>1615</ele>
        <time>2026-09-01T08:03:30.000Z</time>
        <extensions>
          <ns3:TrackPointExtension>
            <ns3:hr>158</ns3:hr>
            <ns3:cad>0</ns3:cad>
          </ns3:TrackPointExtension>
        </extensions>
      </trkpt>
      <trkpt lat="47.51739942468702793121337890625" lon="10.1669575273990631103515625">
        <ele>1615.4000244140625</ele>
        <time>2026-09-01T08:03:31.000Z</time>
        <extensions>
          <ns3:TrackPointExtension>
            <ns3:hr>158</ns3:hr>
            <ns3:cad>40</ns3:cad>
          </ns3:TrackPointExtension>
        </extensions>
      </trkpt>
      <trkpt lat="47.51738618128001689910888671875" lon="10.16690589487552642822265625">
        <ele>1616</ele>
        <time>2026-09-01T08:03:34.000Z</time>
        <extensions>
          <ns3:TrackPointExtension>
            <ns3:hr>159</ns3:hr>
            <ns3:cad>40</ns3:cad>
          </ns3:TrackPointExtension>
        </extensions>
      </trkpt>
      <trkpt lat="47.51737578772008419036865234375" lon="10.16689508222043514251708984375">
        <ele>1616.199951171875</ele>
        <time>2026-09-01T08:03:35.000Z</time>
        <extensions>
          <ns3:TrackPointExtension>
            <ns3:hr>159</ns3:hr>
            <ns3:cad>68</ns3:cad>
          </ns3:TrackPointExtension>
        </extensions>
      </trkpt>
      <trkpt lat="47.517365477979183197021484375" lon="10.1668198965489864349365234375">
        <ele>1617</ele>
        <time>2026-09-01T08:03:38.000Z</time>
        <extensions>
          <ns3:TrackPointExtension>
            <ns3:hr>160</ns3:hr>
            <ns3:cad>0</ns3:cad>
          </ns3:TrackPointExtension>
        </extensions>
      </trkpt>
      <trkpt lat="47.51736321486532688140869140625" lon="10.16680036671459674835205078125">
        <ele>1617.199951171875</ele>
        <time>2026-09-01T08:03:39.000Z</time>
        <extensions>
          <ns3:TrackPointExtension>
            <ns3:hr>159</ns3:hr>
            <ns3:cad>83</ns3:cad>
          </ns3:TrackPointExtension>
        </extensions>
      </trkpt>
      <trkpt lat="47.51735315658152103424072265625" lon="10.16670682467520236968994140625">
        <ele>1618</ele>
        <time>2026-09-01T08:03:42.000Z</time>
        <extensions>
          <ns3:TrackPointExtension>
            <ns3:hr>159</ns3:hr>
            <ns3:cad>83</ns3:cad>
          </ns3:TrackPointExtension>
        </extensions>
      </trkpt>
      <trkpt lat="47.51735885627567768096923828125" lon="10.16667128540575504302978515625">
        <ele>1618.199951171875</ele>
        <time>2026-09-01T08:03:43.000Z</time>
        <extensions>
          <ns3:TrackPointExtension>
            <ns3:hr>159</ns3:hr>
            <ns3:cad>83</ns3:cad>
          </ns3:TrackPointExtension>
        </extensions>
      </trkpt>
      <trkpt lat="47.5173591077327728271484375" lon="10.16660875640809535980224609375">
        <ele>1618.5999755859375</ele>
        <time>2026-09-01T08:03:45.000Z</time>
        <extensions>
          <ns3:TrackPointExtension>
            <ns3:hr>160</ns3:hr>
            <ns3:cad>83</ns3:cad>
          </ns3:TrackPointExtension>
        </extensions>
      </trkpt>
      <trkpt lat="47.51735382713377475738525390625" lon="10.16658310778439044952392578125">
        <ele>1618.800048828125</ele>
        <time>2026-09-01T08:03:46.000Z</time>
        <extensions>
          <ns3:TrackPointExtension>
            <ns3:hr>161</ns3:hr>
            <ns3:cad>84</ns3:cad>
          </ns3:TrackPointExtension>
        </extensions>
      </trkpt>
      <trkpt lat="47.51735215075314044952392578125" lon="10.1665466465055942535400390625">
        <ele>1619.199951171875</ele>
        <time>2026-09-01T08:03:48.000Z</time>
        <extensions>
          <ns3:TrackPointExtension>
            <ns3:hr>161</ns3:hr>
            <ns3:cad>84</ns3:cad>
          </ns3:TrackPointExtension>
        </extensions>
      </trkpt>
      <trkpt lat="47.5173441879451274871826171875" lon="10.16652426682412624359130859375">
        <ele>1619.800048828125</ele>
        <time>2026-09-01T08:03:50.000Z</time>
        <extensions>
          <ns3:TrackPointExtension>
            <ns3:hr>161</ns3:hr>
            <ns3:cad>84</ns3:cad>
          </ns3:TrackPointExtension>
        </extensions>
      </trkpt>
      <trkpt lat="47.517334632575511932373046875" lon="10.16649023629724979400634765625">
        <ele>1620.5999755859375</ele>
        <time>2026-09-01T08:03:52.000Z</time>
        <extensions>
          <ns3:TrackPointExtension>
            <ns3:hr>160</ns3:hr>
            <ns3:cad>84</ns3:cad>
          </ns3:TrackPointExtension>
        </extensions>
      </trkpt>
      <trkpt lat="47.517327927052974700927734375" lon="10.16645285300910472869873046875">
        <ele>1621.4000244140625</ele>
        <time>2026-09-01T08:03:54.000Z</time>
        <extensions>
          <ns3:TrackPointExtension>
            <ns3:hr>159</ns3:hr>
            <ns3:cad>84</ns3:cad>
          </ns3:TrackPointExtension>
        </extensions>
      </trkpt>
      <trkpt lat="47.51732331700623035430908203125" lon="10.16643910668790340423583984375">
        <ele>1621.5999755859375</ele>
        <time>2026-09-01T08:03:55.000Z</time>
        <extensions>
          <ns3:TrackPointExtension>
            <ns3:hr>159</ns3:hr>
            <ns3:cad>60</ns3:cad>
          </ns3:TrackPointExtension>
        </extensions>
      </trkpt>
      <trkpt lat="47.5173120014369487762451171875" lon="10.1663568802177906036376953125">
        <ele>1623</ele>
        <time>2026-09-01T08:04:00.000Z</time>
        <extensions>
          <ns3:TrackPointExtension>
            <ns3:hr>159</ns3:hr>
            <ns3:cad>59</ns3:cad>
          </ns3:TrackPointExtension>
        </extensions>
      </trkpt>
      <trkpt lat="47.5173116661608219146728515625" lon="10.1663387753069400787353515625">
        <ele>1623.199951171875</ele>
        <time>2026-09-01T08:04:01.000Z</time>
        <extensions>
          <ns3:TrackPointExtension>
            <ns3:hr>158</ns3:hr>
            <ns3:cad>59</ns3:cad>
          </ns3:TrackPointExtension>
        </extensions>
      </trkpt>
      <trkpt lat="47.51731543801724910736083984375" lon="10.16628923825919628143310546875">
        <ele>1624.199951171875</ele>
        <time>2026-09-01T08:04:04.000Z</time>
        <extensions>
          <ns3:TrackPointExtension>
            <ns3:hr>158</ns3:hr>
            <ns3:cad>54</ns3:cad>
          </ns3:TrackPointExtension>
        </extensions>
      </trkpt>
      <trkpt lat="47.51732549630105495452880859375" lon="10.1662334986031055450439453125">
        <ele>1625.199951171875</ele>
        <time>2026-09-01T08:04:07.000Z</time>
        <extensions>
          <ns3:TrackPointExtension>
            <ns3:hr>158</ns3:hr>
            <ns3:cad>55</ns3:cad>
          </ns3:TrackPointExtension>
        </extensions>
      </trkpt>
      <trkpt lat="47.51732625067234039306640625" lon="10.166194103658199310302734375">
        <ele>1626.199951171875</ele>
        <time>2026-09-01T08:04:10.000Z</time>
        <extensions>
          <ns3:TrackPointExtension>
            <ns3:hr>158</ns3:hr>
            <ns3:cad>57</ns3:cad>
          </ns3:TrackPointExtension>
        </extensions>
      </trkpt>
      <trkpt lat="47.5173210538923740386962890625" lon="10.16618035733699798583984375">
        <ele>1626.4000244140625</ele>
        <time>2026-09-01T08:04:11.000Z</time>
        <extensions>
          <ns3:TrackPointExtension>
            <ns3:hr>158</ns3:hr>
            <ns3:cad>57</ns3:cad>
          </ns3:TrackPointExtension>
        </extensions>
      </trkpt>
      <trkpt lat="47.517309486865997314453125" lon="10.16613098792731761932373046875">
        <ele>1627.800048828125</ele>
        <time>2026-09-01T08:04:15.000Z</time>
        <extensions>
          <ns3:TrackPointExtension>
            <ns3:hr>159</ns3:hr>
            <ns3:cad>52</ns3:cad>
          </ns3:TrackPointExtension>
        </extensions>
      </trkpt>
      <trkpt lat="47.517301104962825775146484375" lon="10.16611556522548198699951171875">
        <ele>1628.199951171875</ele>
        <time>2026-09-01T08:04:16.000Z</time>
        <extensions>
          <ns3:TrackPointExtension>
            <ns3:hr>159</ns3:hr>
            <ns3:cad>52</ns3:cad>
          </ns3:TrackPointExtension>
        </extensions>
      </trkpt>
      <trkpt lat="47.51727336086332798004150390625" lon="10.166097544133663177490234375">
        <ele>1629</ele>
        <time>2026-09-01T08:04:19.000Z</time>
        <extensions>
          <ns3:TrackPointExtension>
            <ns3:hr>159</ns3:hr>
            <ns3:cad>49</ns3:cad>
          </ns3:TrackPointExtension>
        </extensions>
      </trkpt>
      <trkpt lat="47.51725056208670139312744140625" lon="10.16607801429927349090576171875">
        <ele>1629.800048828125</ele>
        <time>2026-09-01T08:04:21.000Z</time>
        <extensions>
          <ns3:TrackPointExtension>
            <ns3:hr>158</ns3:hr>
            <ns3:cad>0</ns3:cad>
          </ns3:TrackPointExtension>
        </extensions>
      </trkpt>
      <trkpt lat="47.5172392465174198150634765625" lon="10.1660705544054508209228515625">
        <ele>1630.199951171875</ele>
        <time>2026-09-01T08:04:22.000Z</time>
        <extensions>
          <ns3:TrackPointExtension>
            <ns3:hr>158</ns3:hr>
            <ns3:cad>0</ns3:cad>
          </ns3:TrackPointExtension>
        </extensions>
      </trkpt>
      <trkpt lat="47.51720555126667022705078125" lon="10.16606695018708705902099609375">
        <ele>1631.199951171875</ele>
        <time>2026-09-01T08:04:25.000Z</time>
        <extensions>
          <ns3:TrackPointExtension>
            <ns3:hr>159</ns3:hr>
            <ns3:cad>0</ns3:cad>
          </ns3:TrackPointExtension>
        </extensions>
      </trkpt>
      <trkpt lat="47.51719490624964237213134765625" lon="10.1660702191293239593505859375">
        <ele>1632</ele>
        <time>2026-09-01T08:04:27.000Z</time>
        <extensions>
          <ns3:TrackPointExtension>
            <ns3:hr>159</ns3:hr>
            <ns3:cad>55</ns3:cad>
          </ns3:TrackPointExtension>
        </extensions>
      </trkpt>
      <trkpt lat="47.517191469669342041015625" lon="10.1660745777189731597900390625">
        <ele>1632.4000244140625</ele>
        <time>2026-09-01T08:04:28.000Z</time>
        <extensions>
          <ns3:TrackPointExtension>
            <ns3:hr>159</ns3:hr>
            <ns3:cad>55</ns3:cad>
          </ns3:TrackPointExtension>
        </extensions>
      </trkpt>
      <trkpt lat="47.5171845965087413787841796875" lon="10.1661013998091220855712890625">
        <ele>1633.800048828125</ele>
        <time>2026-09-01T08:04:31.000Z</time>
        <extensions>
          <ns3:TrackPointExtension>
            <ns3:hr>159</ns3:hr>
            <ns3:cad>55</ns3:cad>
          </ns3:TrackPointExtension>
        </extensions>
      </trkpt>
      <trkpt lat="47.517170347273349761962890625" lon="10.166101567447185516357421875">
        <ele>1634.4000244140625</ele>
        <time>2026-09-01T08:04:33.000Z</time>
        <extensions>
          <ns3:TrackPointExtension>
            <ns3:hr>158</ns3:hr>
            <ns3:cad>55</ns3:cad>
          </ns3:TrackPointExtension>
        </extensions>
      </trkpt>
      <trkpt lat="47.5171728618443012237548828125" lon="10.166087485849857330322265625">
        <ele>1634.800048828125</ele>
        <time>2026-09-01T08:04:34.000Z</time>
        <extensions>
          <ns3:TrackPointExtension>
            <ns3:hr>158</ns3:hr>
            <ns3:cad>0</ns3:cad>
          </ns3:TrackPointExtension>
        </extensions>
      </trkpt>
      <trkpt lat="47.51716590486466884613037109375" lon="10.16600308008491992950439453125">
        <ele>1635.800048828125</ele>
        <time>2026-09-01T08:04:39.000Z</time>
        <extensions>
          <ns3:TrackPointExtension>
            <ns3:hr>159</ns3:hr>
            <ns3:cad>56</ns3:cad>
          </ns3:TrackPointExtension>
        </extensions>
      </trkpt>
      <trkpt lat="47.517149560153484344482421875" lon="10.1659786887466907501220703125">
        <ele>1636.199951171875</ele>
        <time>2026-09-01T08:04:41.000Z</time>
        <extensions>
          <ns3:TrackPointExtension>
            <ns3:hr>159</ns3:hr>
            <ns3:cad>57</ns3:cad>
          </ns3:TrackPointExtension>
        </extensions>
      </trkpt>
      <trkpt lat="47.51713715493679046630859375" lon="10.16596117056906223297119140625">
        <ele>1637</ele>
        <time>2026-09-01T08:04:43.000Z</time>
        <extensions>
          <ns3:TrackPointExtension>
            <ns3:hr>160</ns3:hr>
            <ns3:cad>57</ns3:cad>
          </ns3:TrackPointExtension>
        </extensions>
      </trkpt>
      <trkpt lat="47.5171245820820331573486328125" lon="10.16592948697507381439208984375">
        <ele>1638.199951171875</ele>
        <time>2026-09-01T08:04:46.000Z</time>
        <extensions>
          <ns3:TrackPointExtension>
            <ns3:hr>160</ns3:hr>
            <ns3:cad>55</ns3:cad>
          </ns3:TrackPointExtension>
        </extensions>
      </trkpt>
      <trkpt lat="47.51710765063762664794921875" lon="10.1659317500889301300048828125">
        <ele>1639.199951171875</ele>
        <time>2026-09-01T08:04:48.000Z</time>
        <extensions>
          <ns3:TrackPointExtension>
            <ns3:hr>161</ns3:hr>
            <ns3:cad>55</ns3:cad>
          </ns3:TrackPointExtension>
        </extensions>
      </trkpt>
      <trkpt lat="47.51709558069705963134765625" lon="10.16592965461313724517822265625">
        <ele>1639.4000244140625</ele>
        <time>2026-09-01T08:04:49.000Z</time>
        <extensions>
          <ns3:TrackPointExtension>
            <ns3:hr>161</ns3:hr>
            <ns3:cad>55</ns3:cad>
          </ns3:TrackPointExtension>
        </extensions>
      </trkpt>
      <trkpt lat="47.517067082226276397705078125" lon="10.1659277267754077911376953125">
        <ele>1640.5999755859375</ele>
        <time>2026-09-01T08:04:52.000Z</time>
        <extensions>
          <ns3:TrackPointExtension>
            <ns3:hr>161</ns3:hr>
            <ns3:cad>43</ns3:cad>
          </ns3:TrackPointExtension>
        </extensions>
      </trkpt>
      <trkpt lat="47.51704772002995014190673828125" lon="10.16591875813901424407958984375">
        <ele>1641</ele>
        <time>2026-09-01T08:04:54.000Z</time>
        <extensions>
          <ns3:TrackPointExtension>
            <ns3:hr>161</ns3:hr>
            <ns3:cad>0</ns3:cad>
          </ns3:TrackPointExtension>
        </extensions>
      </trkpt>
      <trkpt lat="47.517020814120769500732421875" lon="10.16582018695771694183349609375">
        <ele>1641.5999755859375</ele>
        <time>2026-09-01T08:04:59.000Z</time>
        <extensions>
          <ns3:TrackPointExtension>
            <ns3:hr>160</ns3:hr>
            <ns3:cad>0</ns3:cad>
          </ns3:TrackPointExtension>
        </extensions>
      </trkpt>
      <trkpt lat="47.5170209817588329315185546875" lon="10.16579789109528064727783203125">
        <ele>1642</ele>
        <time>2026-09-01T08:05:00.000Z</time>
        <extensions>
          <ns3:TrackPointExtension>
            <ns3:hr>160</ns3:hr>
            <ns3:cad>0</ns3:cad>
          </ns3:TrackPointExtension>
        </extensions>
      </trkpt>
      <trkpt lat="47.516998015344142913818359375" lon="10.16576637513935565948486328125">
        <ele>1643</ele>
        <time>2026-09-01T08:05:02.000Z</time>
        <extensions>
          <ns3:TrackPointExtension>
            <ns3:hr>160</ns3:hr>
            <ns3:cad>0</ns3:cad>
          </ns3:TrackPointExtension>
        </extensions>
      </trkpt>
      <trkpt lat="47.51699256710708141326904296875" lon="10.1657299138605594635009765625">
        <ele>1643.4000244140625</ele>
        <time>2026-09-01T08:05:04.000Z</time>
        <extensions>
          <ns3:TrackPointExtension>
            <ns3:hr>160</ns3:hr>
            <ns3:cad>0</ns3:cad>
          </ns3:TrackPointExtension>
        </extensions>
      </trkpt>
      <trkpt lat="47.517001368105411529541015625" lon="10.1657156646251678466796875">
        <ele>1643.4000244140625</ele>
        <time>2026-09-01T08:05:05.000Z</time>
        <extensions>
          <ns3:TrackPointExtension>
            <ns3:hr>160</ns3:hr>
            <ns3:cad>0</ns3:cad>
          </ns3:TrackPointExtension>
        </extensions>
      </trkpt>
      <trkpt lat="47.51702710054814815521240234375" lon="10.16566143371164798736572265625">
        <ele>1644.4000244140625</ele>
        <time>2026-09-01T08:05:10.000Z</time>
        <extensions>
          <ns3:TrackPointExtension>
            <ns3:hr>160</ns3:hr>
            <ns3:cad>0</ns3:cad>
          </ns3:TrackPointExtension>
        </extensions>
      </trkpt>
      <trkpt lat="47.517028860747814178466796875" lon="10.16565137542784214019775390625">
        <ele>1644.800048828125</ele>
        <time>2026-09-01T08:05:11.000Z</time>
        <extensions>
          <ns3:TrackPointExtension>
            <ns3:hr>160</ns3:hr>
            <ns3:cad>50</ns3:cad>
          </ns3:TrackPointExtension>
        </extensions>
      </trkpt>
      <trkpt lat="47.51702877692878246307373046875" lon="10.16562589444220066070556640625">
        <ele>1645.5999755859375</ele>
        <time>2026-09-01T08:05:13.000Z</time>
        <extensions>
          <ns3:TrackPointExtension>
            <ns3:hr>160</ns3:hr>
            <ns3:cad>50</ns3:cad>
          </ns3:TrackPointExtension>
        </extensions>
      </trkpt>
      <trkpt lat="47.517018131911754608154296875" lon="10.165592618286609649658203125">
        <ele>1646.800048828125</ele>
        <time>2026-09-01T08:05:16.000Z</time>
        <extensions>
          <ns3:TrackPointExtension>
            <ns3:hr>160</ns3:hr>
            <ns3:cad>50</ns3:cad>
          </ns3:TrackPointExtension>
        </extensions>
      </trkpt>
      <trkpt lat="47.51700011081993579864501953125" lon="10.165581889450550079345703125">
        <ele>1647.4000244140625</ele>
        <time>2026-09-01T08:05:18.000Z</time>
        <extensions>
          <ns3:TrackPointExtension>
            <ns3:hr>160</ns3:hr>
            <ns3:cad>51</ns3:cad>
          </ns3:TrackPointExtension>
        </extensions>
      </trkpt>
      <trkpt lat="47.51699273474514484405517578125" lon="10.16558599658310413360595703125">
        <ele>1647.800048828125</ele>
        <time>2026-09-01T08:05:19.000Z</time>
        <extensions>
          <ns3:TrackPointExtension>
            <ns3:hr>159</ns3:hr>
            <ns3:cad>51</ns3:cad>
          </ns3:TrackPointExtension>
        </extensions>
      </trkpt>
      <trkpt lat="47.51696951687335968017578125" lon="10.1655673049390316009521484375">
        <ele>1648.5999755859375</ele>
        <time>2026-09-01T08:05:22.000Z</time>
        <extensions>
          <ns3:TrackPointExtension>
            <ns3:hr>159</ns3:hr>
            <ns3:cad>51</ns3:cad>
          </ns3:TrackPointExtension>
        </extensions>
      </trkpt>
      <trkpt lat="47.516966164112091064453125" lon="10.16555364243686199188232421875">
        <ele>1649</ele>
        <time>2026-09-01T08:05:23.000Z</time>
        <extensions>
          <ns3:TrackPointExtension>
            <ns3:hr>159</ns3:hr>
            <ns3:cad>41</ns3:cad>
          </ns3:TrackPointExtension>
        </extensions>
      </trkpt>
      <trkpt lat="47.51696675084531307220458984375" lon="10.1655398122966289520263671875">
        <ele>1649.4000244140625</ele>
        <time>2026-09-01T08:05:24.000Z</time>
        <extensions>
          <ns3:TrackPointExtension>
            <ns3:hr>159</ns3:hr>
            <ns3:cad>41</ns3:cad>
          </ns3:TrackPointExtension>
        </extensions>
      </trkpt>
      <trkpt lat="47.5169743783771991729736328125" lon="10.16552715562283992767333984375">
        <ele>1649.800048828125</ele>
        <time>2026-09-01T08:05:25.000Z</time>
        <extensions>
          <ns3:TrackPointExtension>
            <ns3:hr>158</ns3:hr>
            <ns3:cad>41</ns3:cad>
          </ns3:TrackPointExtension>
        </extensions>
      </trkpt>
      <trkpt lat="47.5169757194817066192626953125" lon="10.1655190251767635345458984375">
        <ele>1650.199951171875</ele>
        <time>2026-09-01T08:05:26.000Z</time>
        <extensions>
          <ns3:TrackPointExtension>
            <ns3:hr>158</ns3:hr>
            <ns3:cad>42</ns3:cad>
          </ns3:TrackPointExtension>
        </extensions>
      </trkpt>
      <trkpt lat="47.5169747136533260345458984375" lon="10.165478289127349853515625">
        <ele>1651.199951171875</ele>
        <time>2026-09-01T08:05:29.000Z</time>
        <extensions>
          <ns3:TrackPointExtension>
            <ns3:hr>159</ns3:hr>
            <ns3:cad>42</ns3:cad>
          </ns3:TrackPointExtension>
        </extensions>
      </trkpt>
      <trkpt lat="47.516963817179203033447265625" lon="10.16544182784855365753173828125">
        <ele>1651.199951171875</ele>
        <time>2026-09-01T08:05:30.000Z</time>
        <extensions>
          <ns3:TrackPointExtension>
            <ns3:hr>159</ns3:hr>
            <ns3:cad>43</ns3:cad>
          </ns3:TrackPointExtension>
        </extensions>
      </trkpt>
      <trkpt lat="47.5169442035257816314697265625" lon="10.1653493754565715789794921875">
        <ele>1651.199951171875</ele>
        <time>2026-09-01T08:05:33.000Z</time>
        <extensions>
          <ns3:TrackPointExtension>
            <ns3:hr>159</ns3:hr>
            <ns3:cad>88</ns3:cad>
          </ns3:TrackPointExtension>
        </extensions>
      </trkpt>
      <trkpt lat="47.51692660152912139892578125" lon="10.16534476540982723236083984375">
        <ele>1651.199951171875</ele>
        <time>2026-09-01T08:05:34.000Z</time>
        <extensions>
          <ns3:TrackPointExtension>
            <ns3:hr>160</ns3:hr>
            <ns3:cad>0</ns3:cad>
          </ns3:TrackPointExtension>
        </extensions>
      </trkpt>
      <trkpt lat="47.51686088740825653076171875" lon="10.16529547981917858123779296875">
        <ele>1651.4000244140625</ele>
        <time>2026-09-01T08:05:37.000Z</time>
        <extensions>
          <ns3:TrackPointExtension>
            <ns3:hr>159</ns3:hr>
            <ns3:cad>0</ns3:cad>
          </ns3:TrackPointExtension>
        </extensions>
      </trkpt>
      <trkpt lat="47.516815960407257080078125" lon="10.16529648564755916595458984375">
        <ele>1652.4000244140625</ele>
        <time>2026-09-01T08:05:42.000Z</time>
        <extensions>
          <ns3:TrackPointExtension>
            <ns3:hr>159</ns3:hr>
            <ns3:cad>0</ns3:cad>
          </ns3:TrackPointExtension>
        </extensions>
      </trkpt>
      <trkpt lat="47.5167805887758731842041015625" lon="10.16532607376575469970703125">
        <ele>1653.5999755859375</ele>
        <time>2026-09-01T08:05:46.000Z</time>
        <extensions>
          <ns3:TrackPointExtension>
            <ns3:hr>160</ns3:hr>
            <ns3:cad>0</ns3:cad>
          </ns3:TrackPointExtension>
        </extensions>
      </trkpt>
      <trkpt lat="47.5167453847825527191162109375" lon="10.1653347909450531005859375">
        <ele>1654.4000244140625</ele>
        <time>2026-09-01T08:05:48.000Z</time>
        <extensions>
          <ns3:TrackPointExtension>
            <ns3:hr>159</ns3:hr>
            <ns3:cad>0</ns3:cad>
          </ns3:TrackPointExtension>
        </extensions>
      </trkpt>
      <trkpt lat="47.5167287886142730712890625" lon="10.16531668603420257568359375">
        <ele>1654.800048828125</ele>
        <time>2026-09-01T08:05:50.000Z</time>
        <extensions>
          <ns3:TrackPointExtension>
            <ns3:hr>158</ns3:hr>
            <ns3:cad>80</ns3:cad>
          </ns3:TrackPointExtension>
        </extensions>
      </trkpt>
      <trkpt lat="47.51672652550041675567626953125" lon="10.16530335880815982818603515625">
        <ele>1655</ele>
        <time>2026-09-01T08:05:51.000Z</time>
        <extensions>
          <ns3:TrackPointExtension>
            <ns3:hr>158</ns3:hr>
            <ns3:cad>81</ns3:cad>
          </ns3:TrackPointExtension>
        </extensions>
      </trkpt>
      <trkpt lat="47.51672836951911449432373046875" lon="10.165290534496307373046875">
        <ele>1655.4000244140625</ele>
        <time>2026-09-01T08:05:53.000Z</time>
        <extensions>
          <ns3:TrackPointExtension>
            <ns3:hr>158</ns3:hr>
            <ns3:cad>83</ns3:cad>
          </ns3:TrackPointExtension>
        </extensions>
      </trkpt>
      <trkpt lat="47.51674194820225238800048828125" lon="10.16528475098311901092529296875">
        <ele>1655.800048828125</ele>
        <time>2026-09-01T08:05:55.000Z</time>
        <extensions>
          <ns3:TrackPointExtension>
            <ns3:hr>158</ns3:hr>
            <ns3:cad>83</ns3:cad>
          </ns3:TrackPointExtension>
        </extensions>
      </trkpt>
      <trkpt lat="47.516738511621952056884765625" lon="10.16526346094906330108642578125">
        <ele>1656.5999755859375</ele>
        <time>2026-09-01T08:05:57.000Z</time>
        <extensions>
          <ns3:TrackPointExtension>
            <ns3:hr>157</ns3:hr>
            <ns3:cad>0</ns3:cad>
          </ns3:TrackPointExtension>
        </extensions>
      </trkpt>
      <trkpt lat="47.51673524267971515655517578125" lon="10.1652596890926361083984375">
        <ele>1657</ele>
        <time>2026-09-01T08:05:58.000Z</time>
        <extensions>
          <ns3:TrackPointExtension>
            <ns3:hr>158</ns3:hr>
            <ns3:cad>0</ns3:cad>
          </ns3:TrackPointExtension>
        </extensions>
      </trkpt>
      <trkpt lat="47.5167215801775455474853515625" lon="10.1652306877076625823974609375">
        <ele>1658.4000244140625</ele>
        <time>2026-09-01T08:06:01.000Z</time>
        <extensions>
          <ns3:TrackPointExtension>
            <ns3:hr>157</ns3:hr>
            <ns3:cad>0</ns3:cad>
          </ns3:TrackPointExtension>
        </extensions>
      </trkpt>
      <trkpt lat="47.51670875586569309234619140625" lon="10.1652223058044910430908203125">
        <ele>1658.800048828125</ele>
        <time>2026-09-01T08:06:02.000Z</time>
        <extensions>
          <ns3:TrackPointExtension>
            <ns3:hr>157</ns3:hr>
            <ns3:cad>0</ns3:cad>
          </ns3:TrackPointExtension>
        </extensions>
      </trkpt>
      <trkpt lat="47.51668863929808139801025390625" lon="10.16520847566425800323486328125">
        <ele>1659.4000244140625</ele>
        <time>2026-09-01T08:06:04.000Z</time>
        <extensions>
          <ns3:TrackPointExtension>
            <ns3:hr>157</ns3:hr>
            <ns3:cad>0</ns3:cad>
          </ns3:TrackPointExtension>
        </extensions>
      </trkpt>
      <trkpt lat="47.51665662042796611785888671875" lon="10.16520210541784763336181640625">
        <ele>1660.5999755859375</ele>
        <time>2026-09-01T08:06:08.000Z</time>
        <extensions>
          <ns3:TrackPointExtension>
            <ns3:hr>157</ns3:hr>
            <ns3:cad>45</ns3:cad>
          </ns3:TrackPointExtension>
        </extensions>
      </trkpt>
      <trkpt lat="47.51665561459958553314208984375" lon="10.16516455449163913726806640625">
        <ele>1661.800048828125</ele>
        <time>2026-09-01T08:06:12.000Z</time>
        <extensions>
          <ns3:TrackPointExtension>
            <ns3:hr>157</ns3:hr>
            <ns3:cad>43</ns3:cad>
          </ns3:TrackPointExtension>
        </extensions>
      </trkpt>
      <trkpt lat="47.5166578777134418487548828125" lon="10.165158100426197052001953125">
        <ele>1662.199951171875</ele>
        <time>2026-09-01T08:06:13.000Z</time>
        <extensions>
          <ns3:TrackPointExtension>
            <ns3:hr>158</ns3:hr>
            <ns3:cad>0</ns3:cad>
          </ns3:TrackPointExtension>
        </extensions>
      </trkpt>
      <trkpt lat="47.51667070202529430389404296875" lon="10.165156759321689605712890625">
        <ele>1663</ele>
        <time>2026-09-01T08:06:15.000Z</time>
        <extensions>
          <ns3:TrackPointExtension>
            <ns3:hr>159</ns3:hr>
            <ns3:cad>0</ns3:cad>
          </ns3:TrackPointExtension>
        </extensions>
      </trkpt>
      <trkpt lat="47.51668193377554416656494140625" lon="10.16514980234205722808837890625">
        <ele>1664</ele>
        <time>2026-09-01T08:06:18.000Z</time>
        <extensions>
          <ns3:TrackPointExtension>
            <ns3:cad>0</ns3:cad>
          </ns3:TrackPointExtension>
        </extensions>
      </trkpt>
      <trkpt lat="47.51670531928539276123046875" lon="10.16513253562152385711669921875">
        <ele>1665.4000244140625</ele>
        <time>2026-09-01T08:06:21.000Z</time>
        <extensions>
          <ns3:TrackPointExtension>
            <ns3:cad>77</ns3:cad>
          </ns3:TrackPointExtension>
        </extensions>
      </trkpt>
      <trkpt lat="47.5167219154536724090576171875" lon="10.16511996276676654815673828125">
        <ele>1666.199951171875</ele>
        <time>2026-09-01T08:06:23.000Z</time>
        <extensions>
          <ns3:TrackPointExtension>
            <ns3:cad>0</ns3:cad>
          </ns3:TrackPointExtension>
        </extensions>
      </trkpt>
      <trkpt lat="47.5167319737374782562255859375" lon="10.16510747373104095458984375">
        <ele>1666.800048828125</ele>
        <time>2026-09-01T08:06:24.000Z</time>
        <extensions>
          <ns3:TrackPointExtension>
            <ns3:cad>0</ns3:cad>
          </ns3:TrackPointExtension>
        </extensions>
      </trkpt>
      <trkpt lat="47.5167395174503326416015625" lon="10.165095739066600799560546875">
        <ele>1667.800048828125</ele>
        <time>2026-09-01T08:06:27.000Z</time>
        <extensions>
          <ns3:TrackPointExtension>
            <ns3:cad>0</ns3:cad>
          </ns3:TrackPointExtension>
        </extensions>
      </trkpt>
      <trkpt lat="47.516765333712100982666015625" lon="10.1650848425924777984619140625">
        <ele>1668.4000244140625</ele>
        <time>2026-09-01T08:06:29.000Z</time>
        <extensions>
          <ns3:TrackPointExtension>
            <ns3:cad>0</ns3:cad>
          </ns3:TrackPointExtension>
        </extensions>
      </trkpt>
      <trkpt lat="47.516802214086055755615234375" lon="10.1650372333824634552001953125">
        <ele>1669</ele>
        <time>2026-09-01T08:06:32.000Z</time>
        <extensions>
          <ns3:TrackPointExtension>
            <ns3:hr>160</ns3:hr>
            <ns3:cad>0</ns3:cad>
          </ns3:TrackPointExtension>
        </extensions>
      </trkpt>
      <trkpt lat="47.516808919608592987060546875" lon="10.165000520646572113037109375">
        <ele>1669.800048828125</ele>
        <time>2026-09-01T08:06:34.000Z</time>
        <extensions>
          <ns3:TrackPointExtension>
            <ns3:hr>161</ns3:hr>
            <ns3:cad>0</ns3:cad>
          </ns3:TrackPointExtension>
        </extensions>
      </trkpt>
      <trkpt lat="47.5168017111718654632568359375" lon="10.1649725250899791717529296875">
        <ele>1670.199951171875</ele>
        <time>2026-09-01T08:06:35.000Z</time>
        <extensions>
          <ns3:TrackPointExtension>
            <ns3:hr>161</ns3:hr>
            <ns3:cad>0</ns3:cad>
          </ns3:TrackPointExtension>
        </extensions>
      </trkpt>
      <trkpt lat="47.51680162735283374786376953125" lon="10.16494494862854480743408203125">
        <ele>1670.800048828125</ele>
        <time>2026-09-01T08:06:37.000Z</time>
        <extensions>
          <ns3:TrackPointExtension>
            <ns3:hr>161</ns3:hr>
            <ns3:cad>81</ns3:cad>
          </ns3:TrackPointExtension>
        </extensions>
      </trkpt>
      <trkpt lat="47.51679777167737483978271484375" lon="10.16490052454173564910888671875">
        <ele>1671.4000244140625</ele>
        <time>2026-09-01T08:06:39.000Z</time>
        <extensions>
          <ns3:TrackPointExtension>
            <ns3:hr>161</ns3:hr>
            <ns3:cad>82</ns3:cad>
          </ns3:TrackPointExtension>
        </extensions>
      </trkpt>
      <trkpt lat="47.51675267703831195831298828125" lon="10.16486649401485919952392578125">
        <ele>1672</ele>
        <time>2026-09-01T08:06:41.000Z</time>
        <extensions>
          <ns3:TrackPointExtension>
            <ns3:hr>162</ns3:hr>
            <ns3:cad>82</ns3:cad>
          </ns3:TrackPointExtension>
        </extensions>
      </trkpt>
      <trkpt lat="47.51674597151577472686767578125" lon="10.16485190950334072113037109375">
        <ele>1672</ele>
        <time>2026-09-01T08:06:42.000Z</time>
        <extensions>
          <ns3:TrackPointExtension>
            <ns3:hr>162</ns3:hr>
            <ns3:cad>83</ns3:cad>
          </ns3:TrackPointExtension>
        </extensions>
      </trkpt>
      <trkpt lat="47.51672166399657726287841796875" lon="10.1648427732288837432861328125">
        <ele>1672.199951171875</ele>
        <time>2026-09-01T08:06:43.000Z</time>
        <extensions>
          <ns3:TrackPointExtension>
            <ns3:hr>162</ns3:hr>
            <ns3:cad>83</ns3:cad>
          </ns3:TrackPointExtension>
        </extensions>
      </trkpt>
      <trkpt lat="47.5166676007211208343505859375" lon="10.16481704078614711761474609375">
        <ele>1672.199951171875</ele>
        <time>2026-09-01T08:06:45.000Z</time>
        <extensions>
          <ns3:TrackPointExtension>
            <ns3:hr>161</ns3:hr>
            <ns3:cad>83</ns3:cad>
          </ns3:TrackPointExtension>
        </extensions>
      </trkpt>
      <trkpt lat="47.516633905470371246337890625" lon="10.16474579460918903350830078125">
        <ele>1672.5999755859375</ele>
        <time>2026-09-01T08:06:47.000Z</time>
        <extensions>
          <ns3:TrackPointExtension>
            <ns3:hr>161</ns3:hr>
            <ns3:cad>79</ns3:cad>
          </ns3:TrackPointExtension>
        </extensions>
      </trkpt>
      <trkpt lat="47.5165988691151142120361328125" lon="10.16468527726829051971435546875">
        <ele>1673</ele>
        <time>2026-09-01T08:06:49.000Z</time>
        <extensions>
          <ns3:TrackPointExtension>
            <ns3:hr>161</ns3:hr>
            <ns3:cad>80</ns3:cad>
          </ns3:TrackPointExtension>
        </extensions>
      </trkpt>
      <trkpt lat="47.516588978469371795654296875" lon="10.16462140716612339019775390625">
        <ele>1673.5999755859375</ele>
        <time>2026-09-01T08:06:52.000Z</time>
        <extensions>
          <ns3:TrackPointExtension>
            <ns3:hr>161</ns3:hr>
            <ns3:cad>84</ns3:cad>
          </ns3:TrackPointExtension>
        </extensions>
      </trkpt>
      <trkpt lat="47.51658973284065723419189453125" lon="10.1645913161337375640869140625">
        <ele>1673.800048828125</ele>
        <time>2026-09-01T08:06:53.000Z</time>
        <extensions>
          <ns3:TrackPointExtension>
            <ns3:hr>162</ns3:hr>
            <ns3:cad>84</ns3:cad>
          </ns3:TrackPointExtension>
        </extensions>
      </trkpt>
      <trkpt lat="47.51658034510910511016845703125" lon="10.16453423537313938140869140625">
        <ele>1674.5999755859375</ele>
        <time>2026-09-01T08:06:56.000Z</time>
        <extensions>
          <ns3:TrackPointExtension>
            <ns3:hr>161</ns3:hr>
            <ns3:cad>85</ns3:cad>
          </ns3:TrackPointExtension>
        </extensions>
      </trkpt>
      <trkpt lat="47.5165804289281368255615234375" lon="10.1645121909677982330322265625">
        <ele>1675.4000244140625</ele>
        <time>2026-09-01T08:06:58.000Z</time>
        <extensions>
          <ns3:TrackPointExtension>
            <ns3:hr>161</ns3:hr>
            <ns3:cad>87</ns3:cad>
          </ns3:TrackPointExtension>
        </extensions>
      </trkpt>
      <trkpt lat="47.51657833345234394073486328125" lon="10.1645021326839923858642578125">
        <ele>1675.800048828125</ele>
        <time>2026-09-01T08:06:59.000Z</time>
        <extensions>
          <ns3:TrackPointExtension>
            <ns3:hr>161</ns3:hr>
            <ns3:cad>87</ns3:cad>
          </ns3:TrackPointExtension>
        </extensions>
      </trkpt>
      <trkpt lat="47.51656173728406429290771484375" lon="10.16446240246295928955078125">
        <ele>1677</ele>
        <time>2026-09-01T08:07:02.000Z</time>
        <extensions>
          <ns3:TrackPointExtension>
            <ns3:hr>161</ns3:hr>
            <ns3:cad>50</ns3:cad>
          </ns3:TrackPointExtension>
        </extensions>
      </trkpt>
      <trkpt lat="47.51656718552112579345703125" lon="10.16444304026663303375244140625">
        <ele>1677.4000244140625</ele>
        <time>2026-09-01T08:07:03.000Z</time>
        <extensions>
          <ns3:TrackPointExtension>
            <ns3:hr>161</ns3:hr>
            <ns3:cad>50</ns3:cad>
          </ns3:TrackPointExtension>
        </extensions>
      </trkpt>
      <trkpt lat="47.5165867991745471954345703125" lon="10.16442778520286083221435546875">
        <ele>1678.199951171875</ele>
        <time>2026-09-01T08:07:05.000Z</time>
        <extensions>
          <ns3:TrackPointExtension>
            <ns3:hr>161</ns3:hr>
            <ns3:cad>52</ns3:cad>
          </ns3:TrackPointExtension>
        </extensions>
      </trkpt>
      <trkpt lat="47.5166134536266326904296875" lon="10.1643928326666355133056640625">
        <ele>1679</ele>
        <time>2026-09-01T08:07:07.000Z</time>
        <extensions>
          <ns3:TrackPointExtension>
            <ns3:hr>161</ns3:hr>
            <ns3:cad>0</ns3:cad>
          </ns3:TrackPointExtension>
        </extensions>
      </trkpt>
      <trkpt lat="47.5166199915111064910888671875" lon="10.1643794216215610504150390625">
        <ele>1679.199951171875</ele>
        <time>2026-09-01T08:07:08.000Z</time>
        <extensions>
          <ns3:TrackPointExtension>
            <ns3:hr>161</ns3:hr>
            <ns3:cad>0</ns3:cad>
          </ns3:TrackPointExtension>
        </extensions>
      </trkpt>
      <trkpt lat="47.5166575424373149871826171875" lon="10.16433021984994411468505859375">
        <ele>1680.4000244140625</ele>
        <time>2026-09-01T08:07:12.000Z</time>
        <extensions>
          <ns3:TrackPointExtension>
            <ns3:hr>160</ns3:hr>
            <ns3:cad>80</ns3:cad>
          </ns3:TrackPointExtension>
        </extensions>
      </trkpt>
      <trkpt lat="47.5166790001094341278076171875" lon="10.16430524177849292755126953125">
        <ele>1681.5999755859375</ele>
        <time>2026-09-01T08:07:15.000Z</time>
        <extensions>
          <ns3:TrackPointExtension>
            <ns3:hr>160</ns3:hr>
            <ns3:cad>80</ns3:cad>
          </ns3:TrackPointExtension>
        </extensions>
      </trkpt>
      <trkpt lat="47.5167091749608516693115234375" lon="10.16434329561889171600341796875">
        <ele>1682.4000244140625</ele>
        <time>2026-09-01T08:07:17.000Z</time>
        <extensions>
          <ns3:TrackPointExtension>
            <ns3:hr>160</ns3:hr>
            <ns3:cad>113</ns3:cad>
          </ns3:TrackPointExtension>
        </extensions>
      </trkpt>
      <trkpt lat="47.516715042293071746826171875" lon="10.16434304416179656982421875">
        <ele>1683</ele>
        <time>2026-09-01T08:07:18.000Z</time>
        <extensions>
          <ns3:TrackPointExtension>
            <ns3:hr>161</ns3:hr>
            <ns3:cad>113</ns3:cad>
          </ns3:TrackPointExtension>
        </extensions>
      </trkpt>
      <trkpt lat="47.51672149635851383209228515625" lon="10.16432519070804119110107421875">
        <ele>1683.4000244140625</ele>
        <time>2026-09-01T08:07:19.000Z</time>
        <extensions>
          <ns3:TrackPointExtension>
            <ns3:hr>161</ns3:hr>
            <ns3:cad>113</ns3:cad>
          </ns3:TrackPointExtension>
        </extensions>
      </trkpt>
      <trkpt lat="47.516724765300750732421875" lon="10.16429635696113109588623046875">
        <ele>1683.800048828125</ele>
        <time>2026-09-01T08:07:20.000Z</time>
        <extensions>
          <ns3:TrackPointExtension>
            <ns3:hr>161</ns3:hr>
            <ns3:cad>83</ns3:cad>
          </ns3:TrackPointExtension>
        </extensions>
      </trkpt>
      <trkpt lat="47.51672836951911449432373046875" lon="10.164286382496356964111328125">
        <ele>1684.4000244140625</ele>
        <time>2026-09-01T08:07:21.000Z</time>
        <extensions>
          <ns3:TrackPointExtension>
            <ns3:hr>161</ns3:hr>
            <ns3:cad>82</ns3:cad>
          </ns3:TrackPointExtension>
        </extensions>
      </trkpt>
      <trkpt lat="47.516719065606594085693359375" lon="10.1642456464469432830810546875">
        <ele>1685.199951171875</ele>
        <time>2026-09-01T08:07:23.000Z</time>
        <extensions>
          <ns3:TrackPointExtension>
            <ns3:hr>160</ns3:hr>
            <ns3:cad>81</ns3:cad>
          </ns3:TrackPointExtension>
        </extensions>
      </trkpt>
      <trkpt lat="47.51671847887337207794189453125" lon="10.1642275415360927581787109375">
        <ele>1685.5999755859375</ele>
        <time>2026-09-01T08:07:24.000Z</time>
        <extensions>
          <ns3:TrackPointExtension>
            <ns3:hr>161</ns3:hr>
            <ns3:cad>80</ns3:cad>
          </ns3:TrackPointExtension>
        </extensions>
      </trkpt>
      <trkpt lat="47.51671336591243743896484375" lon="10.16419015824794769287109375">
        <ele>1686.800048828125</ele>
        <time>2026-09-01T08:07:27.000Z</time>
        <extensions>
          <ns3:TrackPointExtension>
            <ns3:hr>160</ns3:hr>
            <ns3:cad>41</ns3:cad>
          </ns3:TrackPointExtension>
        </extensions>
      </trkpt>
      <trkpt lat="47.51671680249273777008056640625" lon="10.16417783685028553009033203125">
        <ele>1687.4000244140625</ele>
        <time>2026-09-01T08:07:28.000Z</time>
        <extensions>
          <ns3:TrackPointExtension>
            <ns3:hr>160</ns3:hr>
            <ns3:cad>41</ns3:cad>
          </ns3:TrackPointExtension>
        </extensions>
      </trkpt>
      <trkpt lat="47.51671764068305492401123046875" lon="10.16417314298450946807861328125">
        <ele>1688.199951171875</ele>
        <time>2026-09-01T08:07:30.000Z</time>
        <extensions>
          <ns3:TrackPointExtension>
            <ns3:hr>160</ns3:hr>
            <ns3:cad>41</ns3:cad>
          </ns3:TrackPointExtension>
        </extensions>
      </trkpt>
      <trkpt lat="47.51672283746302127838134765625" lon="10.16419560648500919342041015625">
        <ele>1689.4000244140625</ele>
        <time>2026-09-01T08:07:33.000Z</time>
        <extensions>
          <ns3:TrackPointExtension>
            <ns3:hr>161</ns3:hr>
            <ns3:cad>44</ns3:cad>
          </ns3:TrackPointExtension>
        </extensions>
      </trkpt>
      <trkpt lat="47.5167333148419857025146484375" lon="10.16416777856647968292236328125">
        <ele>1690.4000244140625</ele>
        <time>2026-09-01T08:07:36.000Z</time>
        <extensions>
          <ns3:TrackPointExtension>
            <ns3:hr>161</ns3:hr>
            <ns3:cad>44</ns3:cad>
          </ns3:TrackPointExtension>
        </extensions>
      </trkpt>
      <trkpt lat="47.5167336501181125640869140625" lon="10.164166353642940521240234375">
        <ele>1691</ele>
        <time>2026-09-01T08:07:37.000Z</time>
        <extensions>
          <ns3:TrackPointExtension>
            <ns3:hr>160</ns3:hr>
            <ns3:cad>0</ns3:cad>
          </ns3:TrackPointExtension>
        </extensions>
      </trkpt>
      <trkpt lat="47.51673323102295398712158203125" lon="10.16415000893175601959228515625">
        <ele>1691.5999755859375</ele>
        <time>2026-09-01T08:07:38.000Z</time>
        <extensions>
          <ns3:TrackPointExtension>
            <ns3:hr>160</ns3:hr>
            <ns3:cad>0</ns3:cad>
          </ns3:TrackPointExtension>
        </extensions>
      </trkpt>
      <trkpt lat="47.51673222519457340240478515625" lon="10.16413123346865177154541015625">
        <ele>1692.5999755859375</ele>
        <time>2026-09-01T08:07:40.000Z</time>
        <extensions>
          <ns3:TrackPointExtension>
            <ns3:hr>159</ns3:hr>
            <ns3:cad>0</ns3:cad>
          </ns3:TrackPointExtension>
        </extensions>
      </trkpt>
      <trkpt lat="47.5167319737374782562255859375" lon="10.164120756089687347412109375">
        <ele>1693</ele>
        <time>2026-09-01T08:07:41.000Z</time>
        <extensions>
          <ns3:TrackPointExtension>
            <ns3:hr>158</ns3:hr>
            <ns3:cad>0</ns3:cad>
          </ns3:TrackPointExtension>
        </extensions>
      </trkpt>
      <trkpt lat="47.51673557795584201812744140625" lon="10.16411363147199153900146484375">
        <ele>1693.800048828125</ele>
        <time>2026-09-01T08:07:43.000Z</time>
        <extensions>
          <ns3:TrackPointExtension>
            <ns3:hr>159</ns3:hr>
            <ns3:cad>0</ns3:cad>
          </ns3:TrackPointExtension>
        </extensions>
      </trkpt>
      <trkpt lat="47.51674513332545757293701171875" lon="10.16409971751272678375244140625">
        <ele>1694.800048828125</ele>
        <time>2026-09-01T08:07:46.000Z</time>
        <extensions>
          <ns3:TrackPointExtension>
            <ns3:hr>160</ns3:hr>
            <ns3:cad>0</ns3:cad>
          </ns3:TrackPointExtension>
        </extensions>
      </trkpt>
      <trkpt lat="47.51674546860158443450927734375" lon="10.16407079994678497314453125">
        <ele>1695.5999755859375</ele>
        <time>2026-09-01T08:07:48.000Z</time>
        <extensions>
          <ns3:TrackPointExtension>
            <ns3:hr>162</ns3:hr>
            <ns3:cad>0</ns3:cad>
          </ns3:TrackPointExtension>
        </extensions>
      </trkpt>
      <trkpt lat="47.51674546860158443450927734375" lon="10.16407079994678497314453125">
        <ele>1696</ele>
        <time>2026-09-01T08:07:49.000Z</time>
        <extensions>
          <ns3:TrackPointExtension>
            <ns3:hr>162</ns3:hr>
            <ns3:cad>0</ns3:cad>
          </ns3:TrackPointExtension>
        </extensions>
      </trkpt>
      <trkpt lat="47.51675033010542392730712890625" lon="10.16404842026531696319580078125">
        <ele>1697</ele>
        <time>2026-09-01T08:07:52.000Z</time>
        <extensions>
          <ns3:TrackPointExtension>
            <ns3:hr>163</ns3:hr>
            <ns3:cad>0</ns3:cad>
          </ns3:TrackPointExtension>
        </extensions>
      </trkpt>
      <trkpt lat="47.5167581252753734588623046875" lon="10.16403048299252986907958984375">
        <ele>1698.199951171875</ele>
        <time>2026-09-01T08:07:55.000Z</time>
        <extensions>
          <ns3:TrackPointExtension>
            <ns3:hr>163</ns3:hr>
            <ns3:cad>0</ns3:cad>
          </ns3:TrackPointExtension>
        </extensions>
      </trkpt>
      <trkpt lat="47.516763322055339813232421875" lon="10.16401455737650394439697265625">
        <ele>1699.199951171875</ele>
        <time>2026-09-01T08:07:58.000Z</time>
        <extensions>
          <ns3:TrackPointExtension>
            <ns3:hr>163</ns3:hr>
            <ns3:cad>0</ns3:cad>
          </ns3:TrackPointExtension>
        </extensions>
      </trkpt>
      <trkpt lat="47.5167665071785449981689453125" lon="10.1639921776950359344482421875">
        <ele>1699.5999755859375</ele>
        <time>2026-09-01T08:07:59.000Z</time>
        <extensions>
          <ns3:TrackPointExtension>
            <ns3:hr>163</ns3:hr>
            <ns3:cad>0</ns3:cad>
          </ns3:TrackPointExtension>
        </extensions>
      </trkpt>
      <trkpt lat="47.5167648307979106903076171875" lon="10.16397046856582164764404296875">
        <ele>1700.4000244140625</ele>
        <time>2026-09-01T08:08:01.000Z</time>
        <extensions>
          <ns3:TrackPointExtension>
            <ns3:hr>164</ns3:hr>
            <ns3:cad>0</ns3:cad>
          </ns3:TrackPointExtension>
        </extensions>
      </trkpt>
      <trkpt lat="47.51676072366535663604736328125" lon="10.16394532285630702972412109375">
        <ele>1701.5999755859375</ele>
        <time>2026-09-01T08:08:04.000Z</time>
        <extensions>
          <ns3:TrackPointExtension>
            <ns3:hr>163</ns3:hr>
            <ns3:cad>0</ns3:cad>
          </ns3:TrackPointExtension>
        </extensions>
      </trkpt>
      <trkpt lat="47.51676055602729320526123046875" lon="10.1638956181704998016357421875">
        <ele>1702.4000244140625</ele>
        <time>2026-09-01T08:08:08.000Z</time>
        <extensions>
          <ns3:TrackPointExtension>
            <ns3:hr>164</ns3:hr>
            <ns3:cad>0</ns3:cad>
          </ns3:TrackPointExtension>
        </extensions>
      </trkpt>
      <trkpt lat="47.516758628189563751220703125" lon="10.16389251686632633209228515625">
        <ele>1702.5999755859375</ele>
        <time>2026-09-01T08:08:09.000Z</time>
        <extensions>
          <ns3:TrackPointExtension>
            <ns3:hr>164</ns3:hr>
            <ns3:cad>59</ns3:cad>
          </ns3:TrackPointExtension>
        </extensions>
      </trkpt>
      <trkpt lat="47.51675871200859546661376953125" lon="10.163867957890033721923828125">
        <ele>1703.5999755859375</ele>
        <time>2026-09-01T08:08:12.000Z</time>
        <extensions>
          <ns3:TrackPointExtension>
            <ns3:hr>164</ns3:hr>
            <ns3:cad>59</ns3:cad>
          </ns3:TrackPointExtension>
        </extensions>
      </trkpt>
      <trkpt lat="47.5167688541114330291748046875" lon="10.16384943388402462005615234375">
        <ele>1705</ele>
        <time>2026-09-01T08:08:16.000Z</time>
        <extensions>
          <ns3:TrackPointExtension>
            <ns3:hr>163</ns3:hr>
            <ns3:cad>0</ns3:cad>
          </ns3:TrackPointExtension>
        </extensions>
      </trkpt>
      <trkpt lat="47.5167728774249553680419921875" lon="10.16383551992475986480712890625">
        <ele>1705.5999755859375</ele>
        <time>2026-09-01T08:08:18.000Z</time>
        <extensions>
          <ns3:TrackPointExtension>
            <ns3:hr>162</ns3:hr>
            <ns3:cad>0</ns3:cad>
          </ns3:TrackPointExtension>
        </extensions>
      </trkpt>
      <trkpt lat="47.51677363179624080657958984375" lon="10.16383233480155467987060546875">
        <ele>1706</ele>
        <time>2026-09-01T08:08:19.000Z</time>
        <extensions>
          <ns3:TrackPointExtension>
            <ns3:hr>162</ns3:hr>
            <ns3:cad>0</ns3:cad>
          </ns3:TrackPointExtension>
        </extensions>
      </trkpt>
      <trkpt lat="47.5167824327945709228515625" lon="10.1638077758252620697021484375">
        <ele>1707</ele>
        <time>2026-09-01T08:08:22.000Z</time>
        <extensions>
          <ns3:TrackPointExtension>
            <ns3:hr>163</ns3:hr>
            <ns3:cad>0</ns3:cad>
          </ns3:TrackPointExtension>
        </extensions>
      </trkpt>
      <trkpt lat="47.51677782274782657623291015625" lon="10.16379453241825103759765625">
        <ele>1707.4000244140625</ele>
        <time>2026-09-01T08:08:23.000Z</time>
        <extensions>
          <ns3:TrackPointExtension>
            <ns3:hr>163</ns3:hr>
            <ns3:cad>0</ns3:cad>
          </ns3:TrackPointExtension>
        </extensions>
      </trkpt>
      <trkpt lat="47.51676910556852817535400390625" lon="10.16373225487768650054931640625">
        <ele>1708</ele>
        <time>2026-09-01T08:08:27.000Z</time>
        <extensions>
          <ns3:TrackPointExtension>
            <ns3:hr>163</ns3:hr>
            <ns3:cad>59</ns3:cad>
          </ns3:TrackPointExtension>
        </extensions>
      </trkpt>
      <trkpt lat="47.516763992607593536376953125" lon="10.16371817328035831451416015625">
        <ele>1708.199951171875</ele>
        <time>2026-09-01T08:08:28.000Z</time>
        <extensions>
          <ns3:TrackPointExtension>
            <ns3:hr>164</ns3:hr>
            <ns3:cad>59</ns3:cad>
          </ns3:TrackPointExtension>
        </extensions>
      </trkpt>
      <trkpt lat="47.51675955019891262054443359375" lon="10.16370509751141071319580078125">
        <ele>1708.4000244140625</ele>
        <time>2026-09-01T08:08:29.000Z</time>
        <extensions>
          <ns3:TrackPointExtension>
            <ns3:hr>164</ns3:hr>
            <ns3:cad>59</ns3:cad>
          </ns3:TrackPointExtension>
        </extensions>
      </trkpt>
      <trkpt lat="47.51675871200859546661376953125" lon="10.16363619826734066009521484375">
        <ele>1709.4000244140625</ele>
        <time>2026-09-01T08:08:33.000Z</time>
        <extensions>
          <ns3:TrackPointExtension>
            <ns3:hr>164</ns3:hr>
            <ns3:cad>52</ns3:cad>
          </ns3:TrackPointExtension>
        </extensions>
      </trkpt>
      <trkpt lat="47.51677195541560649871826171875" lon="10.1636020839214324951171875">
        <ele>1710.199951171875</ele>
        <time>2026-09-01T08:08:37.000Z</time>
        <extensions>
          <ns3:TrackPointExtension>
            <ns3:hr>164</ns3:hr>
            <ns3:cad>52</ns3:cad>
          </ns3:TrackPointExtension>
        </extensions>
      </trkpt>
      <trkpt lat="47.51677882857620716094970703125" lon="10.16360032372176647186279296875">
        <ele>1710.5999755859375</ele>
        <time>2026-09-01T08:08:38.000Z</time>
        <extensions>
          <ns3:TrackPointExtension>
            <ns3:hr>164</ns3:hr>
            <ns3:cad>51</ns3:cad>
          </ns3:TrackPointExtension>
        </extensions>
      </trkpt>
      <trkpt lat="47.5167805887758731842041015625" lon="10.1635861583054065704345703125">
        <ele>1711.4000244140625</ele>
        <time>2026-09-01T08:08:40.000Z</time>
        <extensions>
          <ns3:TrackPointExtension>
            <ns3:hr>164</ns3:hr>
            <ns3:cad>51</ns3:cad>
          </ns3:TrackPointExtension>
        </extensions>
      </trkpt>
      <trkpt lat="47.516783773899078369140625" lon="10.163582302629947662353515625">
        <ele>1711.800048828125</ele>
        <time>2026-09-01T08:08:41.000Z</time>
        <extensions>
          <ns3:TrackPointExtension>
            <ns3:hr>164</ns3:hr>
            <ns3:cad>51</ns3:cad>
          </ns3:TrackPointExtension>
        </extensions>
      </trkpt>
      <trkpt lat="47.51679559238255023956298828125" lon="10.16358104534447193145751953125">
        <ele>1712.5999755859375</ele>
        <time>2026-09-01T08:08:43.000Z</time>
        <extensions>
          <ns3:TrackPointExtension>
            <ns3:hr>164</ns3:hr>
            <ns3:cad>54</ns3:cad>
          </ns3:TrackPointExtension>
        </extensions>
      </trkpt>
      <trkpt lat="47.51680045388638973236083984375" lon="10.16357190907001495361328125">
        <ele>1713</ele>
        <time>2026-09-01T08:08:44.000Z</time>
        <extensions>
          <ns3:TrackPointExtension>
            <ns3:hr>164</ns3:hr>
            <ns3:cad>54</ns3:cad>
          </ns3:TrackPointExtension>
        </extensions>
      </trkpt>
      <trkpt lat="47.51680682413280010223388671875" lon="10.163532681763172149658203125">
        <ele>1714</ele>
        <time>2026-09-01T08:08:47.000Z</time>
        <extensions>
          <ns3:TrackPointExtension>
            <ns3:hr>163</ns3:hr>
            <ns3:cad>48</ns3:cad>
          </ns3:TrackPointExtension>
        </extensions>
      </trkpt>
      <trkpt lat="47.51681202091276645660400390625" lon="10.16350795514881610870361328125">
        <ele>1714.5999755859375</ele>
        <time>2026-09-01T08:08:49.000Z</time>
        <extensions>
          <ns3:TrackPointExtension>
            <ns3:hr>162</ns3:hr>
            <ns3:cad>49</ns3:cad>
          </ns3:TrackPointExtension>
        </extensions>
      </trkpt>
      <trkpt lat="47.51682476140558719635009765625" lon="10.16348817385733127593994140625">
        <ele>1715.199951171875</ele>
        <time>2026-09-01T08:08:51.000Z</time>
        <extensions>
          <ns3:TrackPointExtension>
            <ns3:hr>162</ns3:hr>
            <ns3:cad>49</ns3:cad>
          </ns3:TrackPointExtension>
        </extensions>
      </trkpt>
      <trkpt lat="47.516843788325786590576171875" lon="10.16344827599823474884033203125">
        <ele>1716.199951171875</ele>
        <time>2026-09-01T08:08:55.000Z</time>
        <extensions>
          <ns3:TrackPointExtension>
            <ns3:hr>162</ns3:hr>
            <ns3:cad>49</ns3:cad>
          </ns3:TrackPointExtension>
        </extensions>
      </trkpt>
      <trkpt lat="47.51686398871243000030517578125" lon="10.163387842476367950439453125">
        <ele>1717.4000244140625</ele>
        <time>2026-09-01T08:08:59.000Z</time>
        <extensions>
          <ns3:TrackPointExtension>
            <ns3:hr>163</ns3:hr>
            <ns3:cad>53</ns3:cad>
          </ns3:TrackPointExtension>
        </extensions>
      </trkpt>
      <trkpt lat="47.51686532981693744659423828125" lon="10.163362361490726470947265625">
        <ele>1718</ele>
        <time>2026-09-01T08:09:01.000Z</time>
        <extensions>
          <ns3:TrackPointExtension>
            <ns3:hr>163</ns3:hr>
            <ns3:cad>53</ns3:cad>
          </ns3:TrackPointExtension>
        </extensions>
      </trkpt>
      <trkpt lat="47.51687672920525074005126953125" lon="10.16331902705132961273193359375">
        <ele>1718.4000244140625</ele>
        <time>2026-09-01T08:09:03.000Z</time>
        <extensions>
          <ns3:TrackPointExtension>
            <ns3:hr>162</ns3:hr>
            <ns3:cad>53</ns3:cad>
          </ns3:TrackPointExtension>
        </extensions>
      </trkpt>
      <trkpt lat="47.5168925710022449493408203125" lon="10.1632813923060894012451171875">
        <ele>1719.199951171875</ele>
        <time>2026-09-01T08:09:05.000Z</time>
        <extensions>
          <ns3:TrackPointExtension>
            <ns3:hr>162</ns3:hr>
            <ns3:cad>53</ns3:cad>
          </ns3:TrackPointExtension>
        </extensions>
      </trkpt>
      <trkpt lat="47.51689173281192779541015625" lon="10.1632163487374782562255859375">
        <ele>1719.800048828125</ele>
        <time>2026-09-01T08:09:07.000Z</time>
        <extensions>
          <ns3:TrackPointExtension>
            <ns3:hr>162</ns3:hr>
            <ns3:cad>83</ns3:cad>
          </ns3:TrackPointExtension>
        </extensions>
      </trkpt>
      <trkpt lat="47.5168924033641815185546875" lon="10.16315591521561145782470703125">
        <ele>1720.199951171875</ele>
        <time>2026-09-01T08:09:09.000Z</time>
        <extensions>
          <ns3:TrackPointExtension>
            <ns3:hr>162</ns3:hr>
            <ns3:cad>83</ns3:cad>
          </ns3:TrackPointExtension>
        </extensions>
      </trkpt>
      <trkpt lat="47.516886033117771148681640625" lon="10.16309849917888641357421875">
        <ele>1720.800048828125</ele>
        <time>2026-09-01T08:09:11.000Z</time>
        <extensions>
          <ns3:TrackPointExtension>
            <ns3:hr>162</ns3:hr>
            <ns3:cad>83</ns3:cad>
          </ns3:TrackPointExtension>
        </extensions>
      </trkpt>
      <trkpt lat="47.51688494347035884857177734375" lon="10.16307628713548183441162109375">
        <ele>1721.199951171875</ele>
        <time>2026-09-01T08:09:12.000Z</time>
        <extensions>
          <ns3:TrackPointExtension>
            <ns3:hr>162</ns3:hr>
            <ns3:cad>83</ns3:cad>
          </ns3:TrackPointExtension>
        </extensions>
      </trkpt>
      <trkpt lat="47.51688544638454914093017578125" lon="10.163019709289073944091796875">
        <ele>1722</ele>
        <time>2026-09-01T08:09:15.000Z</time>
        <extensions>
          <ns3:TrackPointExtension>
            <ns3:hr>161</ns3:hr>
            <ns3:cad>83</ns3:cad>
          </ns3:TrackPointExtension>
        </extensions>
      </trkpt>
      <trkpt lat="47.51691344194114208221435546875" lon="10.16298576258122920989990234375">
        <ele>1723</ele>
        <time>2026-09-01T08:09:18.000Z</time>
        <extensions>
          <ns3:TrackPointExtension>
            <ns3:hr>160</ns3:hr>
            <ns3:cad>83</ns3:cad>
          </ns3:TrackPointExtension>
        </extensions>
      </trkpt>
      <trkpt lat="47.51692601479589939117431640625" lon="10.16296430490911006927490234375">
        <ele>1723.4000244140625</ele>
        <time>2026-09-01T08:09:19.000Z</time>
        <extensions>
          <ns3:TrackPointExtension>
            <ns3:hr>160</ns3:hr>
            <ns3:cad>83</ns3:cad>
          </ns3:TrackPointExtension>
        </extensions>
      </trkpt>
      <trkpt lat="47.51696155406534671783447265625" lon="10.1628441922366619110107421875">
        <ele>1724</ele>
        <time>2026-09-01T08:09:22.000Z</time>
        <extensions>
          <ns3:TrackPointExtension>
            <ns3:hr>159</ns3:hr>
            <ns3:cad>0</ns3:cad>
          </ns3:TrackPointExtension>
        </extensions>
      </trkpt>
      <trkpt lat="47.51698921434581279754638671875" lon="10.162746123969554901123046875">
        <ele>1723.800048828125</ele>
        <time>2026-09-01T08:09:25.000Z</time>
        <extensions>
          <ns3:TrackPointExtension>
            <ns3:hr>159</ns3:hr>
            <ns3:cad>81</ns3:cad>
          </ns3:TrackPointExtension>
        </extensions>
      </trkpt>
      <trkpt lat="47.51700296066701412200927734375" lon="10.1626772247254848480224609375">
        <ele>1724.199951171875</ele>
        <time>2026-09-01T08:09:27.000Z</time>
        <extensions>
          <ns3:TrackPointExtension>
            <ns3:hr>159</ns3:hr>
            <ns3:cad>84</ns3:cad>
          </ns3:TrackPointExtension>
        </extensions>
      </trkpt>
      <trkpt lat="47.51702123321592807769775390625" lon="10.1626182161271572113037109375">
        <ele>1724.800048828125</ele>
        <time>2026-09-01T08:09:29.000Z</time>
        <extensions>
          <ns3:TrackPointExtension>
            <ns3:hr>160</ns3:hr>
            <ns3:cad>84</ns3:cad>
          </ns3:TrackPointExtension>
        </extensions>
      </trkpt>
      <trkpt lat="47.51703849993646144866943359375" lon="10.16254336573183536529541015625">
        <ele>1725.199951171875</ele>
        <time>2026-09-01T08:09:31.000Z</time>
        <extensions>
          <ns3:TrackPointExtension>
            <ns3:hr>161</ns3:hr>
            <ns3:cad>84</ns3:cad>
          </ns3:TrackPointExtension>
        </extensions>
      </trkpt>
      <trkpt lat="47.5170672498643398284912109375" lon="10.162463821470737457275390625">
        <ele>1725.5999755859375</ele>
        <time>2026-09-01T08:09:33.000Z</time>
        <extensions>
          <ns3:TrackPointExtension>
            <ns3:hr>160</ns3:hr>
            <ns3:cad>85</ns3:cad>
          </ns3:TrackPointExtension>
        </extensions>
      </trkpt>
      <trkpt lat="47.51711460761725902557373046875" lon="10.1623419485986232757568359375">
        <ele>1725.800048828125</ele>
        <time>2026-09-01T08:09:36.000Z</time>
        <extensions>
          <ns3:TrackPointExtension>
            <ns3:hr>161</ns3:hr>
            <ns3:cad>84</ns3:cad>
          </ns3:TrackPointExtension>
        </extensions>
      </trkpt>
      <trkpt lat="47.51713472418487071990966796875" lon="10.16219015233218669891357421875">
        <ele>1726.4000244140625</ele>
        <time>2026-09-01T08:09:40.000Z</time>
        <extensions>
          <ns3:TrackPointExtension>
            <ns3:hr>160</ns3:hr>
            <ns3:cad>84</ns3:cad>
          </ns3:TrackPointExtension>
        </extensions>
      </trkpt>
      <trkpt lat="47.51713438890874385833740234375" lon="10.16208671964704990386962890625">
        <ele>1727.4000244140625</ele>
        <time>2026-09-01T08:09:43.000Z</time>
        <extensions>
          <ns3:TrackPointExtension>
            <ns3:hr>161</ns3:hr>
            <ns3:cad>84</ns3:cad>
          </ns3:TrackPointExtension>
        </extensions>
      </trkpt>
      <trkpt lat="47.51715366728603839874267578125" lon="10.1619761623442173004150390625">
        <ele>1728</ele>
        <time>2026-09-01T08:09:46.000Z</time>
        <extensions>
          <ns3:TrackPointExtension>
            <ns3:hr>161</ns3:hr>
            <ns3:cad>85</ns3:cad>
          </ns3:TrackPointExtension>
        </extensions>
      </trkpt>
      <trkpt lat="47.5171628035604953765869140625" lon="10.16184867359697818756103515625">
        <ele>1728</ele>
        <time>2026-09-01T08:09:49.000Z</time>
        <extensions>
          <ns3:TrackPointExtension>
            <ns3:hr>160</ns3:hr>
            <ns3:cad>85</ns3:cad>
          </ns3:TrackPointExtension>
        </extensions>
      </trkpt>
      <trkpt lat="47.51719809137284755706787109375" lon="10.1617039181292057037353515625">
        <ele>1727.800048828125</ele>
        <time>2026-09-01T08:09:52.000Z</time>
        <extensions>
          <ns3:TrackPointExtension>
            <ns3:hr>160</ns3:hr>
            <ns3:cad>84</ns3:cad>
          </ns3:TrackPointExtension>
        </extensions>
      </trkpt>
      <trkpt lat="47.51724268309772014617919921875" lon="10.1615828834474086761474609375">
        <ele>1727.800048828125</ele>
        <time>2026-09-01T08:09:55.000Z</time>
        <extensions>
          <ns3:TrackPointExtension>
            <ns3:hr>159</ns3:hr>
            <ns3:cad>85</ns3:cad>
          </ns3:TrackPointExtension>
        </extensions>
      </trkpt>
      <trkpt lat="47.5172291882336139678955078125" lon="10.1615087874233722686767578125">
        <ele>1727.800048828125</ele>
        <time>2026-09-01T08:09:57.000Z</time>
        <extensions>
          <ns3:TrackPointExtension>
            <ns3:hr>160</ns3:hr>
            <ns3:cad>85</ns3:cad>
          </ns3:TrackPointExtension>
        </extensions>
      </trkpt>
      <trkpt lat="47.51722566783428192138671875" lon="10.161497890949249267578125">
        <ele>1727.5999755859375</ele>
        <time>2026-09-01T08:09:58.000Z</time>
        <extensions>
          <ns3:TrackPointExtension>
            <ns3:hr>160</ns3:hr>
            <ns3:cad>85</ns3:cad>
          </ns3:TrackPointExtension>
        </extensions>
      </trkpt>
      <trkpt lat="47.517175711691379547119140625" lon="10.16140468418598175048828125">
        <ele>1726.800048828125</ele>
        <time>2026-09-01T08:10:01.000Z</time>
        <extensions>
          <ns3:TrackPointExtension>
            <ns3:hr>160</ns3:hr>
            <ns3:cad>0</ns3:cad>
          </ns3:TrackPointExtension>
        </extensions>
      </trkpt>
      <trkpt lat="47.51715869642794132232666015625" lon="10.161364786326885223388671875">
        <ele>1725.800048828125</ele>
        <time>2026-09-01T08:10:02.000Z</time>
        <extensions>
          <ns3:TrackPointExtension>
            <ns3:hr>160</ns3:hr>
            <ns3:cad>0</ns3:cad>
          </ns3:TrackPointExtension>
        </extensions>
      </trkpt>
      <trkpt lat="47.51712533645331859588623046875" lon="10.161272585391998291015625">
        <ele>1724.800048828125</ele>
        <time>2026-09-01T08:10:04.000Z</time>
        <extensions>
          <ns3:TrackPointExtension>
            <ns3:hr>160</ns3:hr>
            <ns3:cad>0</ns3:cad>
          </ns3:TrackPointExtension>
        </extensions>
      </trkpt>
      <trkpt lat="47.517098598182201385498046875" lon="10.1611828990280628204345703125">
        <ele>1723.4000244140625</ele>
        <time>2026-09-01T08:10:06.000Z</time>
        <extensions>
          <ns3:TrackPointExtension>
            <ns3:hr>159</ns3:hr>
            <ns3:cad>85</ns3:cad>
          </ns3:TrackPointExtension>
        </extensions>
      </trkpt>
      <trkpt lat="47.5170856900513172149658203125" lon="10.1610754430294036865234375">
        <ele>1722</ele>
        <time>2026-09-01T08:10:08.000Z</time>
        <extensions>
          <ns3:TrackPointExtension>
            <ns3:hr>158</ns3:hr>
            <ns3:cad>85</ns3:cad>
          </ns3:TrackPointExtension>
        </extensions>
      </trkpt>
      <trkpt lat="47.517078816890716552734375" lon="10.1610266603529453277587890625">
        <ele>1721.199951171875</ele>
        <time>2026-09-01T08:10:09.000Z</time>
        <extensions>
          <ns3:TrackPointExtension>
            <ns3:hr>157</ns3:hr>
            <ns3:cad>85</ns3:cad>
          </ns3:TrackPointExtension>
        </extensions>
      </trkpt>
      <trkpt lat="47.517078481614589691162109375" lon="10.16097343526780605316162109375">
        <ele>1720.5999755859375</ele>
        <time>2026-09-01T08:10:10.000Z</time>
        <extensions>
          <ns3:TrackPointExtension>
            <ns3:hr>157</ns3:hr>
            <ns3:cad>85</ns3:cad>
          </ns3:TrackPointExtension>
        </extensions>
      </trkpt>
      <trkpt lat="47.51707278192043304443359375" lon="10.16087838448584079742431640625">
        <ele>1719.199951171875</ele>
        <time>2026-09-01T08:10:12.000Z</time>
        <extensions>
          <ns3:TrackPointExtension>
            <ns3:hr>156</ns3:hr>
            <ns3:cad>85</ns3:cad>
          </ns3:TrackPointExtension>
        </extensions>
      </trkpt>
      <trkpt lat="47.5170692615211009979248046875" lon="10.1608382351696491241455078125">
        <ele>1718.5999755859375</ele>
        <time>2026-09-01T08:10:13.000Z</time>
        <extensions>
          <ns3:TrackPointExtension>
            <ns3:hr>156</ns3:hr>
            <ns3:cad>82</ns3:cad>
          </ns3:TrackPointExtension>
        </extensions>
      </trkpt>
      <trkpt lat="47.5170695967972278594970703125" lon="10.16079171560704708099365234375">
        <ele>1718</ele>
        <time>2026-09-01T08:10:14.000Z</time>
        <extensions>
          <ns3:TrackPointExtension>
            <ns3:hr>156</ns3:hr>
            <ns3:cad>82</ns3:cad>
          </ns3:TrackPointExtension>
        </extensions>
      </trkpt>
      <trkpt lat="47.51704604364931583404541015625" lon="10.16068811528384685516357421875">
        <ele>1717</ele>
        <time>2026-09-01T08:10:16.000Z</time>
        <extensions>
          <ns3:TrackPointExtension>
            <ns3:hr>155</ns3:hr>
            <ns3:cad>82</ns3:cad>
          </ns3:TrackPointExtension>
        </extensions>
      </trkpt>
      <trkpt lat="47.5170313753187656402587890625" lon="10.16062273643910884857177734375">
        <ele>1716.4000244140625</ele>
        <time>2026-09-01T08:10:17.000Z</time>
        <extensions>
          <ns3:TrackPointExtension>
            <ns3:hr>154</ns3:hr>
            <ns3:cad>82</ns3:cad>
          </ns3:TrackPointExtension>
        </extensions>
      </trkpt>
      <trkpt lat="47.5169911421835422515869140625" lon="10.16054327599704265594482421875">
        <ele>1715.4000244140625</ele>
        <time>2026-09-01T08:10:19.000Z</time>
        <extensions>
          <ns3:TrackPointExtension>
            <ns3:hr>153</ns3:hr>
            <ns3:cad>82</ns3:cad>
          </ns3:TrackPointExtension>
        </extensions>
      </trkpt>
      <trkpt lat="47.51695451326668262481689453125" lon="10.16043749637901782989501953125">
        <ele>1714.4000244140625</ele>
        <time>2026-09-01T08:10:21.000Z</time>
        <extensions>
          <ns3:TrackPointExtension>
            <ns3:hr>153</ns3:hr>
            <ns3:cad>82</ns3:cad>
          </ns3:TrackPointExtension>
        </extensions>
      </trkpt>
      <trkpt lat="47.5169307924807071685791015625" lon="10.160381756722927093505859375">
        <ele>1714</ele>
        <time>2026-09-01T08:10:22.000Z</time>
        <extensions>
          <ns3:TrackPointExtension>
            <ns3:hr>153</ns3:hr>
            <ns3:cad>82</ns3:cad>
          </ns3:TrackPointExtension>
        </extensions>
      </trkpt>
      <trkpt lat="47.51690120436251163482666015625" lon="10.16029600985348224639892578125">
        <ele>1713.199951171875</ele>
        <time>2026-09-01T08:10:24.000Z</time>
        <extensions>
          <ns3:TrackPointExtension>
            <ns3:hr>153</ns3:hr>
            <ns3:cad>82</ns3:cad>
          </ns3:TrackPointExtension>
        </extensions>
      </trkpt>
      <trkpt lat="47.51689198426902294158935546875" lon="10.160259716212749481201171875">
        <ele>1712.4000244140625</ele>
        <time>2026-09-01T08:10:25.000Z</time>
        <extensions>
          <ns3:TrackPointExtension>
            <ns3:hr>153</ns3:hr>
            <ns3:cad>83</ns3:cad>
          </ns3:TrackPointExtension>
        </extensions>
      </trkpt>
      <trkpt lat="47.51687488518655300140380859375" lon="10.16015569679439067840576171875">
        <ele>1711</ele>
        <time>2026-09-01T08:10:27.000Z</time>
        <extensions>
          <ns3:TrackPointExtension>
            <ns3:hr>152</ns3:hr>
            <ns3:cad>83</ns3:cad>
          </ns3:TrackPointExtension>
        </extensions>
      </trkpt>
      <trkpt lat="47.51684722490608692169189453125" lon="10.16005176119506359100341796875">
        <ele>1709.5999755859375</ele>
        <time>2026-09-01T08:10:29.000Z</time>
        <extensions>
          <ns3:TrackPointExtension>
            <ns3:hr>152</ns3:hr>
            <ns3:cad>86</ns3:cad>
          </ns3:TrackPointExtension>
        </extensions>
      </trkpt>
      <trkpt lat="47.51681989990174770355224609375" lon="10.1599661819636821746826171875">
        <ele>1708.199951171875</ele>
        <time>2026-09-01T08:10:31.000Z</time>
        <extensions>
          <ns3:TrackPointExtension>
            <ns3:hr>152</ns3:hr>
            <ns3:cad>86</ns3:cad>
          </ns3:TrackPointExtension>
        </extensions>
      </trkpt>
      <trkpt lat="47.51679643057286739349365234375" lon="10.15987775288522243499755859375">
        <ele>1706.800048828125</ele>
        <time>2026-09-01T08:10:33.000Z</time>
        <extensions>
          <ns3:TrackPointExtension>
            <ns3:hr>152</ns3:hr>
            <ns3:cad>86</ns3:cad>
          </ns3:TrackPointExtension>
        </extensions>
      </trkpt>
      <trkpt lat="47.51678042113780975341796875" lon="10.1598391123116016387939453125">
        <ele>1706.199951171875</ele>
        <time>2026-09-01T08:10:34.000Z</time>
        <extensions>
          <ns3:TrackPointExtension>
            <ns3:hr>152</ns3:hr>
            <ns3:cad>86</ns3:cad>
          </ns3:TrackPointExtension>
        </extensions>
      </trkpt>
      <trkpt lat="47.51676692627370357513427734375" lon="10.1597988791763782501220703125">
        <ele>1705.5999755859375</ele>
        <time>2026-09-01T08:10:35.000Z</time>
        <extensions>
          <ns3:TrackPointExtension>
            <ns3:hr>152</ns3:hr>
            <ns3:cad>88</ns3:cad>
          </ns3:TrackPointExtension>
        </extensions>
      </trkpt>
      <trkpt lat="47.5167373381555080413818359375" lon="10.15972687862813472747802734375">
        <ele>1704.4000244140625</ele>
        <time>2026-09-01T08:10:37.000Z</time>
        <extensions>
          <ns3:TrackPointExtension>
            <ns3:hr>151</ns3:hr>
            <ns3:cad>88</ns3:cad>
          </ns3:TrackPointExtension>
        </extensions>
      </trkpt>
      <trkpt lat="47.516725100576877593994140625" lon="10.1596801914274692535400390625">
        <ele>1703.5999755859375</ele>
        <time>2026-09-01T08:10:38.000Z</time>
        <extensions>
          <ns3:TrackPointExtension>
            <ns3:hr>151</ns3:hr>
            <ns3:cad>88</ns3:cad>
          </ns3:TrackPointExtension>
        </extensions>
      </trkpt>
      <trkpt lat="47.5167175568640232086181640625" lon="10.15964808873832225799560546875">
        <ele>1702.800048828125</ele>
        <time>2026-09-01T08:10:39.000Z</time>
        <extensions>
          <ns3:TrackPointExtension>
            <ns3:hr>150</ns3:hr>
            <ns3:cad>88</ns3:cad>
          </ns3:TrackPointExtension>
        </extensions>
      </trkpt>
      <trkpt lat="47.51669459044933319091796875" lon="10.1595712266862392425537109375">
        <ele>1701.199951171875</ele>
        <time>2026-09-01T08:10:41.000Z</time>
        <extensions>
          <ns3:TrackPointExtension>
            <ns3:hr>150</ns3:hr>
            <ns3:cad>88</ns3:cad>
          </ns3:TrackPointExtension>
        </extensions>
      </trkpt>
      <trkpt lat="47.51668143086135387420654296875" lon="10.15952982008457183837890625">
        <ele>1700.5999755859375</ele>
        <time>2026-09-01T08:10:42.000Z</time>
        <extensions>
          <ns3:TrackPointExtension>
            <ns3:hr>149</ns3:hr>
            <ns3:cad>91</ns3:cad>
          </ns3:TrackPointExtension>
        </extensions>
      </trkpt>
      <trkpt lat="47.5166738033294677734375" lon="10.15950836241245269775390625">
        <ele>1700</ele>
        <time>2026-09-01T08:10:43.000Z</time>
        <extensions>
          <ns3:TrackPointExtension>
            <ns3:hr>150</ns3:hr>
            <ns3:cad>91</ns3:cad>
          </ns3:TrackPointExtension>
        </extensions>
      </trkpt>
      <trkpt lat="47.516641952097415924072265625" lon="10.15943166799843311309814453125">
        <ele>1699</ele>
        <time>2026-09-01T08:10:45.000Z</time>
        <extensions>
          <ns3:TrackPointExtension>
            <ns3:hr>149</ns3:hr>
            <ns3:cad>0</ns3:cad>
          </ns3:TrackPointExtension>
        </extensions>
      </trkpt>
      <trkpt lat="47.51659534871578216552734375" lon="10.1593009941279888153076171875">
        <ele>1697.800048828125</ele>
        <time>2026-09-01T08:10:48.000Z</time>
        <extensions>
          <ns3:TrackPointExtension>
            <ns3:hr>148</ns3:hr>
            <ns3:cad>83</ns3:cad>
          </ns3:TrackPointExtension>
        </extensions>
      </trkpt>
      <trkpt lat="47.51658327877521514892578125" lon="10.159265957772731781005859375">
        <ele>1697.199951171875</ele>
        <time>2026-09-01T08:10:49.000Z</time>
        <extensions>
          <ns3:TrackPointExtension>
            <ns3:hr>148</ns3:hr>
            <ns3:cad>83</ns3:cad>
          </ns3:TrackPointExtension>
        </extensions>
      </trkpt>
      <trkpt lat="47.5165665149688720703125" lon="10.1592108048498630523681640625">
        <ele>1696.800048828125</ele>
        <time>2026-09-01T08:10:50.000Z</time>
        <extensions>
          <ns3:TrackPointExtension>
            <ns3:hr>148</ns3:hr>
            <ns3:cad>0</ns3:cad>
          </ns3:TrackPointExtension>
        </extensions>
      </trkpt>
      <trkpt lat="47.516556791961193084716796875" lon="10.159174092113971710205078125">
        <ele>1696.199951171875</ele>
        <time>2026-09-01T08:10:51.000Z</time>
        <extensions>
          <ns3:TrackPointExtension>
            <ns3:hr>148</ns3:hr>
            <ns3:cad>0</ns3:cad>
          </ns3:TrackPointExtension>
        </extensions>
      </trkpt>
      <trkpt lat="47.5165401957929134368896484375" lon="10.15913662500679492950439453125">
        <ele>1695.4000244140625</ele>
        <time>2026-09-01T08:10:52.000Z</time>
        <extensions>
          <ns3:TrackPointExtension>
            <ns3:hr>148</ns3:hr>
            <ns3:cad>85</ns3:cad>
          </ns3:TrackPointExtension>
        </extensions>
      </trkpt>
      <trkpt lat="47.51650289632380008697509765625" lon="10.1590455137193202972412109375">
        <ele>1694.4000244140625</ele>
        <time>2026-09-01T08:10:54.000Z</time>
        <extensions>
          <ns3:TrackPointExtension>
            <ns3:hr>150</ns3:hr>
            <ns3:cad>85</ns3:cad>
          </ns3:TrackPointExtension>
        </extensions>
      </trkpt>
      <trkpt lat="47.5164976157248020172119140625" lon="10.1590066216886043548583984375">
        <ele>1693.199951171875</ele>
        <time>2026-09-01T08:10:55.000Z</time>
        <extensions>
          <ns3:TrackPointExtension>
            <ns3:hr>150</ns3:hr>
            <ns3:cad>85</ns3:cad>
          </ns3:TrackPointExtension>
        </extensions>
      </trkpt>
      <trkpt lat="47.51646433956921100616455078125" lon="10.1589234732091426849365234375">
        <ele>1691.4000244140625</ele>
        <time>2026-09-01T08:10:57.000Z</time>
        <extensions>
          <ns3:TrackPointExtension>
            <ns3:hr>152</ns3:hr>
            <ns3:cad>85</ns3:cad>
          </ns3:TrackPointExtension>
        </extensions>
      </trkpt>
      <trkpt lat="47.5164319016039371490478515625" lon="10.15887812711298465728759765625">
        <ele>1690.5999755859375</ele>
        <time>2026-09-01T08:10:58.000Z</time>
        <extensions>
          <ns3:TrackPointExtension>
            <ns3:hr>152</ns3:hr>
            <ns3:cad>85</ns3:cad>
          </ns3:TrackPointExtension>
        </extensions>
      </trkpt>
      <trkpt lat="47.516399882733821868896484375" lon="10.1588440127670764923095703125">
        <ele>1690</ele>
        <time>2026-09-01T08:10:59.000Z</time>
        <extensions>
          <ns3:TrackPointExtension>
            <ns3:hr>153</ns3:hr>
            <ns3:cad>85</ns3:cad>
          </ns3:TrackPointExtension>
        </extensions>
      </trkpt>
      <trkpt lat="47.516333162784576416015625" lon="10.15877888537943363189697265625">
        <ele>1688</ele>
        <time>2026-09-01T08:11:01.000Z</time>
        <extensions>
          <ns3:TrackPointExtension>
            <ns3:hr>153</ns3:hr>
            <ns3:cad>85</ns3:cad>
          </ns3:TrackPointExtension>
        </extensions>
      </trkpt>
      <trkpt lat="47.51629988662898540496826171875" lon="10.15872859396040439605712890625">
        <ele>1687.4000244140625</ele>
        <time>2026-09-01T08:11:02.000Z</time>
        <extensions>
          <ns3:TrackPointExtension>
            <ns3:hr>153</ns3:hr>
            <ns3:cad>91</ns3:cad>
          </ns3:TrackPointExtension>
        </extensions>
      </trkpt>
      <trkpt lat="47.5162759982049465179443359375" lon="10.15869322232902050018310546875">
        <ele>1686.199951171875</ele>
        <time>2026-09-01T08:11:03.000Z</time>
        <extensions>
          <ns3:TrackPointExtension>
            <ns3:hr>153</ns3:hr>
            <ns3:cad>91</ns3:cad>
          </ns3:TrackPointExtension>
        </extensions>
      </trkpt>
      <trkpt lat="47.51620584167540073394775390625" lon="10.15857604332268238067626953125">
        <ele>1684.800048828125</ele>
        <time>2026-09-01T08:11:05.000Z</time>
        <extensions>
          <ns3:TrackPointExtension>
            <ns3:hr>154</ns3:hr>
            <ns3:cad>91</ns3:cad>
          </ns3:TrackPointExtension>
        </extensions>
      </trkpt>
      <trkpt lat="47.516147084534168243408203125" lon="10.15846431255340576171875">
        <ele>1683</ele>
        <time>2026-09-01T08:11:07.000Z</time>
        <extensions>
          <ns3:TrackPointExtension>
            <ns3:hr>155</ns3:hr>
            <ns3:cad>89</ns3:cad>
          </ns3:TrackPointExtension>
        </extensions>
      </trkpt>
      <trkpt lat="47.51610450446605682373046875" lon="10.158402957022190093994140625">
        <ele>1682.199951171875</ele>
        <time>2026-09-01T08:11:08.000Z</time>
        <extensions>
          <ns3:TrackPointExtension>
            <ns3:hr>155</ns3:hr>
            <ns3:cad>89</ns3:cad>
          </ns3:TrackPointExtension>
        </extensions>
      </trkpt>
      <trkpt lat="47.51608262769877910614013671875" lon="10.15836012549698352813720703125">
        <ele>1681.800048828125</ele>
        <time>2026-09-01T08:11:09.000Z</time>
        <extensions>
          <ns3:TrackPointExtension>
            <ns3:hr>155</ns3:hr>
            <ns3:cad>90</ns3:cad>
          </ns3:TrackPointExtension>
        </extensions>
      </trkpt>
      <trkpt lat="47.51606469042599201202392578125" lon="10.15830161981284618377685546875">
        <ele>1681.4000244140625</ele>
        <time>2026-09-01T08:11:10.000Z</time>
        <extensions>
          <ns3:TrackPointExtension>
            <ns3:hr>155</ns3:hr>
            <ns3:cad>90</ns3:cad>
          </ns3:TrackPointExtension>
        </extensions>
      </trkpt>
      <trkpt lat="47.51604977063834667205810546875" lon="10.1582613028585910797119140625">
        <ele>1681.199951171875</ele>
        <time>2026-09-01T08:11:11.000Z</time>
        <extensions>
          <ns3:TrackPointExtension>
            <ns3:hr>155</ns3:hr>
            <ns3:cad>91</ns3:cad>
          </ns3:TrackPointExtension>
        </extensions>
      </trkpt>
      <trkpt lat="47.516020350158214569091796875" lon="10.15823590569198131561279296875">
        <ele>1680.800048828125</ele>
        <time>2026-09-01T08:11:12.000Z</time>
        <extensions>
          <ns3:TrackPointExtension>
            <ns3:hr>156</ns3:hr>
            <ns3:cad>91</ns3:cad>
          </ns3:TrackPointExtension>
        </extensions>
      </trkpt>
      <trkpt lat="47.5159987248480319976806640625" lon="10.1581815071403980255126953125">
        <ele>1680.800048828125</ele>
        <time>2026-09-01T08:11:13.000Z</time>
        <extensions>
          <ns3:TrackPointExtension>
            <ns3:hr>156</ns3:hr>
            <ns3:cad>91</ns3:cad>
          </ns3:TrackPointExtension>
        </extensions>
      </trkpt>
      <trkpt lat="47.51598137430846691131591796875" lon="10.15814043581485748291015625">
        <ele>1680</ele>
        <time>2026-09-01T08:11:14.000Z</time>
        <extensions>
          <ns3:TrackPointExtension>
            <ns3:hr>155</ns3:hr>
            <ns3:cad>91</ns3:cad>
          </ns3:TrackPointExtension>
        </extensions>
      </trkpt>
      <trkpt lat="47.51595371402800083160400390625" lon="10.15808813273906707763671875">
        <ele>1678.800048828125</ele>
        <time>2026-09-01T08:11:15.000Z</time>
        <extensions>
          <ns3:TrackPointExtension>
            <ns3:hr>156</ns3:hr>
            <ns3:cad>86</ns3:cad>
          </ns3:TrackPointExtension>
        </extensions>
      </trkpt>
      <trkpt lat="47.5159306637942790985107421875" lon="10.15803943388164043426513671875">
        <ele>1677.5999755859375</ele>
        <time>2026-09-01T08:11:16.000Z</time>
        <extensions>
          <ns3:TrackPointExtension>
            <ns3:hr>156</ns3:hr>
            <ns3:cad>86</ns3:cad>
          </ns3:TrackPointExtension>
        </extensions>
      </trkpt>
      <trkpt lat="47.51590560190379619598388671875" lon="10.1579826883971691131591796875">
        <ele>1676.4000244140625</ele>
        <time>2026-09-01T08:11:17.000Z</time>
        <extensions>
          <ns3:TrackPointExtension>
            <ns3:hr>156</ns3:hr>
            <ns3:cad>86</ns3:cad>
          </ns3:TrackPointExtension>
        </extensions>
      </trkpt>
      <trkpt lat="47.51588590443134307861328125" lon="10.1579372584819793701171875">
        <ele>1675.800048828125</ele>
        <time>2026-09-01T08:11:18.000Z</time>
        <extensions>
          <ns3:TrackPointExtension>
            <ns3:hr>156</ns3:hr>
            <ns3:cad>90</ns3:cad>
          </ns3:TrackPointExtension>
        </extensions>
      </trkpt>
      <trkpt lat="47.51586285419762134552001953125" lon="10.15788788907229900360107421875">
        <ele>1675</ele>
        <time>2026-09-01T08:11:19.000Z</time>
        <extensions>
          <ns3:TrackPointExtension>
            <ns3:hr>156</ns3:hr>
            <ns3:cad>90</ns3:cad>
          </ns3:TrackPointExtension>
        </extensions>
      </trkpt>
      <trkpt lat="47.515823543071746826171875" lon="10.15779837034642696380615234375">
        <ele>1673.800048828125</ele>
        <time>2026-09-01T08:11:21.000Z</time>
        <extensions>
          <ns3:TrackPointExtension>
            <ns3:hr>156</ns3:hr>
            <ns3:cad>90</ns3:cad>
          </ns3:TrackPointExtension>
        </extensions>
      </trkpt>
      <trkpt lat="47.515806443989276885986328125" lon="10.157748162746429443359375">
        <ele>1673</ele>
        <time>2026-09-01T08:11:22.000Z</time>
        <extensions>
          <ns3:TrackPointExtension>
            <ns3:hr>155</ns3:hr>
            <ns3:cad>90</ns3:cad>
          </ns3:TrackPointExtension>
        </extensions>
      </trkpt>
      <trkpt lat="47.51579227857291698455810546875" lon="10.15769653022289276123046875">
        <ele>1672.4000244140625</ele>
        <time>2026-09-01T08:11:23.000Z</time>
        <extensions>
          <ns3:TrackPointExtension>
            <ns3:hr>155</ns3:hr>
            <ns3:cad>90</ns3:cad>
          </ns3:TrackPointExtension>
        </extensions>
      </trkpt>
      <trkpt lat="47.5157811306416988372802734375" lon="10.1576125435531139373779296875">
        <ele>1671</ele>
        <time>2026-09-01T08:11:25.000Z</time>
        <extensions>
          <ns3:TrackPointExtension>
            <ns3:hr>155</ns3:hr>
            <ns3:cad>90</ns3:cad>
          </ns3:TrackPointExtension>
        </extensions>
      </trkpt>
      <trkpt lat="47.515776939690113067626953125" lon="10.1575853861868381500244140625">
        <ele>1670.4000244140625</ele>
        <time>2026-09-01T08:11:26.000Z</time>
        <extensions>
          <ns3:TrackPointExtension>
            <ns3:hr>154</ns3:hr>
            <ns3:cad>90</ns3:cad>
          </ns3:TrackPointExtension>
        </extensions>
      </trkpt>
      <trkpt lat="47.5157606787979602813720703125" lon="10.15753970481455326080322265625">
        <ele>1670</ele>
        <time>2026-09-01T08:11:27.000Z</time>
        <extensions>
          <ns3:TrackPointExtension>
            <ns3:hr>154</ns3:hr>
            <ns3:cad>90</ns3:cad>
          </ns3:TrackPointExtension>
        </extensions>
      </trkpt>
      <trkpt lat="47.51574567519128322601318359375" lon="10.157473571598529815673828125">
        <ele>1668.800048828125</ele>
        <time>2026-09-01T08:11:29.000Z</time>
        <extensions>
          <ns3:TrackPointExtension>
            <ns3:hr>153</ns3:hr>
            <ns3:cad>86</ns3:cad>
          </ns3:TrackPointExtension>
        </extensions>
      </trkpt>
      <trkpt lat="47.51570913009345531463623046875" lon="10.15738581307232379913330078125">
        <ele>1667.5999755859375</ele>
        <time>2026-09-01T08:11:31.000Z</time>
        <extensions>
          <ns3:TrackPointExtension>
            <ns3:hr>152</ns3:hr>
            <ns3:cad>86</ns3:cad>
          </ns3:TrackPointExtension>
        </extensions>
      </trkpt>
      <trkpt lat="47.51567803323268890380859375" lon="10.157327391207218170166015625">
        <ele>1667</ele>
        <time>2026-09-01T08:11:32.000Z</time>
        <extensions>
          <ns3:TrackPointExtension>
            <ns3:hr>151</ns3:hr>
            <ns3:cad>86</ns3:cad>
          </ns3:TrackPointExtension>
        </extensions>
      </trkpt>
      <trkpt lat="47.515622042119503021240234375" lon="10.15721976757049560546875">
        <ele>1666.4000244140625</ele>
        <time>2026-09-01T08:11:34.000Z</time>
        <extensions>
          <ns3:TrackPointExtension>
            <ns3:hr>151</ns3:hr>
            <ns3:cad>86</ns3:cad>
          </ns3:TrackPointExtension>
        </extensions>
      </trkpt>
      <trkpt lat="47.51559547148644924163818359375" lon="10.15716805122792720794677734375">
        <ele>1665.800048828125</ele>
        <time>2026-09-01T08:11:35.000Z</time>
        <extensions>
          <ns3:TrackPointExtension>
            <ns3:hr>151</ns3:hr>
            <ns3:cad>86</ns3:cad>
          </ns3:TrackPointExtension>
        </extensions>
      </trkpt>
      <trkpt lat="47.51556362025439739227294921875" lon="10.15712295658886432647705078125">
        <ele>1665.4000244140625</ele>
        <time>2026-09-01T08:11:36.000Z</time>
        <extensions>
          <ns3:TrackPointExtension>
            <ns3:hr>151</ns3:hr>
            <ns3:cad>86</ns3:cad>
          </ns3:TrackPointExtension>
        </extensions>
      </trkpt>
      <trkpt lat="47.515473179519176483154296875" lon="10.15696386806666851043701171875">
        <ele>1664.199951171875</ele>
        <time>2026-09-01T08:11:39.000Z</time>
        <extensions>
          <ns3:TrackPointExtension>
            <ns3:hr>153</ns3:hr>
            <ns3:cad>87</ns3:cad>
          </ns3:TrackPointExtension>
        </extensions>
      </trkpt>
      <trkpt lat="47.51545834355056285858154296875" lon="10.1569225452840328216552734375">
        <ele>1664</ele>
        <time>2026-09-01T08:11:40.000Z</time>
        <extensions>
          <ns3:TrackPointExtension>
            <ns3:hr>154</ns3:hr>
            <ns3:cad>88</ns3:cad>
          </ns3:TrackPointExtension>
        </extensions>
      </trkpt>
      <trkpt lat="47.51539765857160091400146484375" lon="10.156790278851985931396484375">
        <ele>1664</ele>
        <time>2026-09-01T08:11:43.000Z</time>
        <extensions>
          <ns3:TrackPointExtension>
            <ns3:hr>154</ns3:hr>
            <ns3:cad>87</ns3:cad>
          </ns3:TrackPointExtension>
        </extensions>
      </trkpt>
      <trkpt lat="47.51533160917460918426513671875" lon="10.15664510428905487060546875">
        <ele>1664.4000244140625</ele>
        <time>2026-09-01T08:11:47.000Z</time>
        <extensions>
          <ns3:TrackPointExtension>
            <ns3:hr>154</ns3:hr>
            <ns3:cad>86</ns3:cad>
          </ns3:TrackPointExtension>
        </extensions>
      </trkpt>
      <trkpt lat="47.51527880318462848663330078125" lon="10.1565064676105976104736328125">
        <ele>1665</ele>
        <time>2026-09-01T08:11:50.000Z</time>
        <extensions>
          <ns3:TrackPointExtension>
            <ns3:hr>155</ns3:hr>
            <ns3:cad>85</ns3:cad>
          </ns3:TrackPointExtension>
        </extensions>
      </trkpt>
      <trkpt lat="47.51524192281067371368408203125" lon="10.1564233191311359405517578125">
        <ele>1665.199951171875</ele>
        <time>2026-09-01T08:11:52.000Z</time>
        <extensions>
          <ns3:TrackPointExtension>
            <ns3:hr>155</ns3:hr>
            <ns3:cad>85</ns3:cad>
          </ns3:TrackPointExtension>
        </extensions>
      </trkpt>
      <trkpt lat="47.51520956866443157196044921875" lon="10.1563562639057636260986328125">
        <ele>1665.5999755859375</ele>
        <time>2026-09-01T08:11:54.000Z</time>
        <extensions>
          <ns3:TrackPointExtension>
            <ns3:hr>156</ns3:hr>
            <ns3:cad>85</ns3:cad>
          </ns3:TrackPointExtension>
        </extensions>
      </trkpt>
      <trkpt lat="47.51516615040600299835205078125" lon="10.15625710599124431610107421875">
        <ele>1666.4000244140625</ele>
        <time>2026-09-01T08:11:57.000Z</time>
        <extensions>
          <ns3:TrackPointExtension>
            <ns3:hr>156</ns3:hr>
            <ns3:cad>85</ns3:cad>
          </ns3:TrackPointExtension>
        </extensions>
      </trkpt>
      <trkpt lat="47.515159361064434051513671875" lon="10.1561738736927509307861328125">
        <ele>1667.5999755859375</ele>
        <time>2026-09-01T08:12:00.000Z</time>
        <extensions>
          <ns3:TrackPointExtension>
            <ns3:hr>156</ns3:hr>
            <ns3:cad>87</ns3:cad>
          </ns3:TrackPointExtension>
        </extensions>
      </trkpt>
      <trkpt lat="47.515147961676120758056640625" lon="10.156102962791919708251953125">
        <ele>1668.5999755859375</ele>
        <time>2026-09-01T08:12:03.000Z</time>
        <extensions>
          <ns3:TrackPointExtension>
            <ns3:hr>156</ns3:hr>
            <ns3:cad>87</ns3:cad>
          </ns3:TrackPointExtension>
        </extensions>
      </trkpt>
      <trkpt lat="47.515144608914852142333984375" lon="10.15608184039592742919921875">
        <ele>1669</ele>
        <time>2026-09-01T08:12:04.000Z</time>
        <extensions>
          <ns3:TrackPointExtension>
            <ns3:hr>156</ns3:hr>
            <ns3:cad>87</ns3:cad>
          </ns3:TrackPointExtension>
        </extensions>
      </trkpt>
      <trkpt lat="47.5151249952614307403564453125" lon="10.15598930418491363525390625">
        <ele>1669.5999755859375</ele>
        <time>2026-09-01T08:12:07.000Z</time>
        <extensions>
          <ns3:TrackPointExtension>
            <ns3:hr>156</ns3:hr>
            <ns3:cad>87</ns3:cad>
          </ns3:TrackPointExtension>
        </extensions>
      </trkpt>
      <trkpt lat="47.51509758643805980682373046875" lon="10.155922584235668182373046875">
        <ele>1670.800048828125</ele>
        <time>2026-09-01T08:12:10.000Z</time>
        <extensions>
          <ns3:TrackPointExtension>
            <ns3:hr>156</ns3:hr>
            <ns3:cad>84</ns3:cad>
          </ns3:TrackPointExtension>
        </extensions>
      </trkpt>
      <trkpt lat="47.51507378183305263519287109375" lon="10.15588528476655483245849609375">
        <ele>1672</ele>
        <time>2026-09-01T08:12:13.000Z</time>
        <extensions>
          <ns3:TrackPointExtension>
            <ns3:hr>157</ns3:hr>
            <ns3:cad>86</ns3:cad>
          </ns3:TrackPointExtension>
        </extensions>
      </trkpt>
      <trkpt lat="47.51505550928413867950439453125" lon="10.15581085346639156341552734375">
        <ele>1673.199951171875</ele>
        <time>2026-09-01T08:12:16.000Z</time>
        <extensions>
          <ns3:TrackPointExtension>
            <ns3:hr>157</ns3:hr>
            <ns3:cad>86</ns3:cad>
          </ns3:TrackPointExtension>
        </extensions>
      </trkpt>
      <trkpt lat="47.51502986066043376922607421875" lon="10.15572770498692989349365234375">
        <ele>1674.4000244140625</ele>
        <time>2026-09-01T08:12:19.000Z</time>
        <extensions>
          <ns3:TrackPointExtension>
            <ns3:hr>158</ns3:hr>
            <ns3:cad>86</ns3:cad>
          </ns3:TrackPointExtension>
        </extensions>
      </trkpt>
      <trkpt lat="47.5150086544454097747802734375" lon="10.15565427951514720916748046875">
        <ele>1675.199951171875</ele>
        <time>2026-09-01T08:12:22.000Z</time>
        <extensions>
          <ns3:TrackPointExtension>
            <ns3:hr>160</ns3:hr>
            <ns3:cad>83</ns3:cad>
          </ns3:TrackPointExtension>
        </extensions>
      </trkpt>
      <trkpt lat="47.5149962492287158966064453125" lon="10.15565293841063976287841796875">
        <ele>1675.5999755859375</ele>
        <time>2026-09-01T08:12:23.000Z</time>
        <extensions>
          <ns3:TrackPointExtension>
            <ns3:hr>160</ns3:hr>
            <ns3:cad>83</ns3:cad>
          </ns3:TrackPointExtension>
        </extensions>
      </trkpt>
      <trkpt lat="47.51497051678597927093505859375" lon="10.155653692781925201416015625">
        <ele>1676.199951171875</ele>
        <time>2026-09-01T08:12:25.000Z</time>
        <extensions>
          <ns3:TrackPointExtension>
            <ns3:hr>161</ns3:hr>
            <ns3:cad>84</ns3:cad>
          </ns3:TrackPointExtension>
        </extensions>
      </trkpt>
      <trkpt lat="47.51496196724474430084228515625" lon="10.15562393702566623687744140625">
        <ele>1676.5999755859375</ele>
        <time>2026-09-01T08:12:26.000Z</time>
        <extensions>
          <ns3:TrackPointExtension>
            <ns3:hr>161</ns3:hr>
            <ns3:cad>84</ns3:cad>
          </ns3:TrackPointExtension>
        </extensions>
      </trkpt>
      <trkpt lat="47.5149583630263805389404296875" lon="10.15558638609945774078369140625">
        <ele>1677.199951171875</ele>
        <time>2026-09-01T08:12:28.000Z</time>
        <extensions>
          <ns3:TrackPointExtension>
            <ns3:hr>161</ns3:hr>
            <ns3:cad>85</ns3:cad>
          </ns3:TrackPointExtension>
        </extensions>
      </trkpt>
      <trkpt lat="47.5149540044367313385009765625" lon="10.1555455662310123443603515625">
        <ele>1677.800048828125</ele>
        <time>2026-09-01T08:12:30.000Z</time>
        <extensions>
          <ns3:TrackPointExtension>
            <ns3:hr>161</ns3:hr>
            <ns3:cad>85</ns3:cad>
          </ns3:TrackPointExtension>
        </extensions>
      </trkpt>
      <trkpt lat="47.5149478018283843994140625" lon="10.1555194146931171417236328125">
        <ele>1678.4000244140625</ele>
        <time>2026-09-01T08:12:31.000Z</time>
        <extensions>
          <ns3:TrackPointExtension>
            <ns3:hr>161</ns3:hr>
            <ns3:cad>85</ns3:cad>
          </ns3:TrackPointExtension>
        </extensions>
      </trkpt>
      <trkpt lat="47.51493833027780055999755859375" lon="10.15548496507108211517333984375">
        <ele>1679.199951171875</ele>
        <time>2026-09-01T08:12:33.000Z</time>
        <extensions>
          <ns3:TrackPointExtension>
            <ns3:hr>162</ns3:hr>
            <ns3:cad>84</ns3:cad>
          </ns3:TrackPointExtension>
        </extensions>
      </trkpt>
      <trkpt lat="47.51494067721068859100341796875" lon="10.1554459892213344573974609375">
        <ele>1680</ele>
        <time>2026-09-01T08:12:35.000Z</time>
        <extensions>
          <ns3:TrackPointExtension>
            <ns3:hr>162</ns3:hr>
            <ns3:cad>84</ns3:cad>
          </ns3:TrackPointExtension>
        </extensions>
      </trkpt>
      <trkpt lat="47.51493397168815135955810546875" lon="10.15541573055088520050048828125">
        <ele>1680.199951171875</ele>
        <time>2026-09-01T08:12:36.000Z</time>
        <extensions>
          <ns3:TrackPointExtension>
            <ns3:hr>163</ns3:hr>
            <ns3:cad>84</ns3:cad>
          </ns3:TrackPointExtension>
        </extensions>
      </trkpt>
      <trkpt lat="47.514931373298168182373046875" lon="10.15537683852016925811767578125">
        <ele>1681</ele>
        <time>2026-09-01T08:12:38.000Z</time>
        <extensions>
          <ns3:TrackPointExtension>
            <ns3:hr>162</ns3:hr>
            <ns3:cad>85</ns3:cad>
          </ns3:TrackPointExtension>
        </extensions>
      </trkpt>
      <trkpt lat="47.514930702745914459228515625" lon="10.15534465201199054718017578125">
        <ele>1681.4000244140625</ele>
        <time>2026-09-01T08:12:39.000Z</time>
        <extensions>
          <ns3:TrackPointExtension>
            <ns3:hr>163</ns3:hr>
            <ns3:cad>86</ns3:cad>
          </ns3:TrackPointExtension>
        </extensions>
      </trkpt>
      <trkpt lat="47.51492877490818500518798828125" lon="10.155302323400974273681640625">
        <ele>1682</ele>
        <time>2026-09-01T08:12:41.000Z</time>
        <extensions>
          <ns3:TrackPointExtension>
            <ns3:hr>164</ns3:hr>
            <ns3:cad>85</ns3:cad>
          </ns3:TrackPointExtension>
        </extensions>
      </trkpt>
      <trkpt lat="47.514927685260772705078125" lon="10.15527877025306224822998046875">
        <ele>1682.4000244140625</ele>
        <time>2026-09-01T08:12:42.000Z</time>
        <extensions>
          <ns3:TrackPointExtension>
            <ns3:hr>164</ns3:hr>
            <ns3:cad>84</ns3:cad>
          </ns3:TrackPointExtension>
        </extensions>
      </trkpt>
      <trkpt lat="47.51491838134825229644775390625" lon="10.155228562653064727783203125">
        <ele>1683.5999755859375</ele>
        <time>2026-09-01T08:12:45.000Z</time>
        <extensions>
          <ns3:TrackPointExtension>
            <ns3:hr>164</ns3:hr>
            <ns3:cad>83</ns3:cad>
          </ns3:TrackPointExtension>
        </extensions>
      </trkpt>
      <trkpt lat="47.5149137713015079498291015625" lon="10.1552163250744342803955078125">
        <ele>1684</ele>
        <time>2026-09-01T08:12:46.000Z</time>
        <extensions>
          <ns3:TrackPointExtension>
            <ns3:hr>164</ns3:hr>
            <ns3:cad>82</ns3:cad>
          </ns3:TrackPointExtension>
        </extensions>
      </trkpt>
      <trkpt lat="47.51489860005676746368408203125" lon="10.1551938615739345550537109375">
        <ele>1684.800048828125</ele>
        <time>2026-09-01T08:12:48.000Z</time>
        <extensions>
          <ns3:TrackPointExtension>
            <ns3:hr>164</ns3:hr>
            <ns3:cad>82</ns3:cad>
          </ns3:TrackPointExtension>
        </extensions>
      </trkpt>
      <trkpt lat="47.51489005051553249359130859375" lon="10.15513929538428783416748046875">
        <ele>1685.800048828125</ele>
        <time>2026-09-01T08:12:52.000Z</time>
        <extensions>
          <ns3:TrackPointExtension>
            <ns3:hr>163</ns3:hr>
            <ns3:cad>61</ns3:cad>
          </ns3:TrackPointExtension>
        </extensions>
      </trkpt>
      <trkpt lat="47.51488233916461467742919921875" lon="10.1551214419305324554443359375">
        <ele>1686</ele>
        <time>2026-09-01T08:12:53.000Z</time>
        <extensions>
          <ns3:TrackPointExtension>
            <ns3:hr>162</ns3:hr>
            <ns3:cad>61</ns3:cad>
          </ns3:TrackPointExtension>
        </extensions>
      </trkpt>
      <trkpt lat="47.51486356370151042938232421875" lon="10.15503334812819957733154296875">
        <ele>1686.800048828125</ele>
        <time>2026-09-01T08:12:56.000Z</time>
        <extensions>
          <ns3:TrackPointExtension>
            <ns3:hr>163</ns3:hr>
            <ns3:cad>0</ns3:cad>
          </ns3:TrackPointExtension>
        </extensions>
      </trkpt>
      <trkpt lat="47.51486255787312984466552734375" lon="10.155004598200321197509765625">
        <ele>1687.199951171875</ele>
        <time>2026-09-01T08:12:57.000Z</time>
        <extensions>
          <ns3:TrackPointExtension>
            <ns3:hr>163</ns3:hr>
            <ns3:cad>0</ns3:cad>
          </ns3:TrackPointExtension>
        </extensions>
      </trkpt>
      <trkpt lat="47.51484914682805538177490234375" lon="10.15495271421968936920166015625">
        <ele>1688.199951171875</ele>
        <time>2026-09-01T08:13:01.000Z</time>
        <extensions>
          <ns3:TrackPointExtension>
            <ns3:hr>163</ns3:hr>
            <ns3:cad>81</ns3:cad>
          </ns3:TrackPointExtension>
        </extensions>
      </trkpt>
      <trkpt lat="47.51484093256294727325439453125" lon="10.15489672310650348663330078125">
        <ele>1689.4000244140625</ele>
        <time>2026-09-01T08:13:05.000Z</time>
        <extensions>
          <ns3:TrackPointExtension>
            <ns3:hr>162</ns3:hr>
            <ns3:cad>83</ns3:cad>
          </ns3:TrackPointExtension>
        </extensions>
      </trkpt>
      <trkpt lat="47.5148262642323970794677734375" lon="10.15484157018363475799560546875">
        <ele>1690.800048828125</ele>
        <time>2026-09-01T08:13:09.000Z</time>
        <extensions>
          <ns3:TrackPointExtension>
            <ns3:hr>162</ns3:hr>
            <ns3:cad>54</ns3:cad>
          </ns3:TrackPointExtension>
        </extensions>
      </trkpt>
      <trkpt lat="47.51480765640735626220703125" lon="10.154779963195323944091796875">
        <ele>1692.199951171875</ele>
        <time>2026-09-01T08:13:13.000Z</time>
        <extensions>
          <ns3:TrackPointExtension>
            <ns3:hr>160</ns3:hr>
            <ns3:cad>52</ns3:cad>
          </ns3:TrackPointExtension>
        </extensions>
      </trkpt>
      <trkpt lat="47.5148058123886585235595703125" lon="10.1547442562878131866455078125">
        <ele>1692.800048828125</ele>
        <time>2026-09-01T08:13:15.000Z</time>
        <extensions>
          <ns3:TrackPointExtension>
            <ns3:hr>160</ns3:hr>
            <ns3:cad>53</ns3:cad>
          </ns3:TrackPointExtension>
        </extensions>
      </trkpt>
      <trkpt lat="47.514802627265453338623046875" lon="10.154707543551921844482421875">
        <ele>1693.4000244140625</ele>
        <time>2026-09-01T08:13:17.000Z</time>
        <extensions>
          <ns3:TrackPointExtension>
            <ns3:hr>159</ns3:hr>
            <ns3:cad>54</ns3:cad>
          </ns3:TrackPointExtension>
        </extensions>
      </trkpt>
      <trkpt lat="47.5147903896868228912353515625" lon="10.1546379737555980682373046875">
        <ele>1694.5999755859375</ele>
        <time>2026-09-01T08:13:21.000Z</time>
        <extensions>
          <ns3:TrackPointExtension>
            <ns3:hr>159</ns3:hr>
            <ns3:cad>53</ns3:cad>
          </ns3:TrackPointExtension>
        </extensions>
      </trkpt>
      <trkpt lat="47.51477102749049663543701171875" lon="10.15460603870451450347900390625">
        <ele>1695.800048828125</ele>
        <time>2026-09-01T08:13:24.000Z</time>
        <extensions>
          <ns3:TrackPointExtension>
            <ns3:hr>159</ns3:hr>
            <ns3:cad>55</ns3:cad>
          </ns3:TrackPointExtension>
        </extensions>
      </trkpt>
      <trkpt lat="47.51476180739700794219970703125" lon="10.1545477844774723052978515625">
        <ele>1696.800048828125</ele>
        <time>2026-09-01T08:13:28.000Z</time>
        <extensions>
          <ns3:TrackPointExtension>
            <ns3:hr>158</ns3:hr>
            <ns3:cad>53</ns3:cad>
          </ns3:TrackPointExtension>
        </extensions>
      </trkpt>
      <trkpt lat="47.51475510187447071075439453125" lon="10.15451920218765735626220703125">
        <ele>1697.199951171875</ele>
        <time>2026-09-01T08:13:30.000Z</time>
        <extensions>
          <ns3:TrackPointExtension>
            <ns3:hr>157</ns3:hr>
            <ns3:cad>54</ns3:cad>
          </ns3:TrackPointExtension>
        </extensions>
      </trkpt>
      <trkpt lat="47.51473515294492244720458984375" lon="10.1544767059385776519775390625">
        <ele>1698</ele>
        <time>2026-09-01T08:13:33.000Z</time>
        <extensions>
          <ns3:TrackPointExtension>
            <ns3:hr>157</ns3:hr>
            <ns3:cad>54</ns3:cad>
          </ns3:TrackPointExtension>
        </extensions>
      </trkpt>
      <trkpt lat="47.51472375355660915374755859375" lon="10.15440948307514190673828125">
        <ele>1699.199951171875</ele>
        <time>2026-09-01T08:13:37.000Z</time>
        <extensions>
          <ns3:TrackPointExtension>
            <ns3:hr>156</ns3:hr>
            <ns3:cad>55</ns3:cad>
          </ns3:TrackPointExtension>
        </extensions>
      </trkpt>
      <trkpt lat="47.51471905969083309173583984375" lon="10.15438978560268878936767578125">
        <ele>1699.4000244140625</ele>
        <time>2026-09-01T08:13:38.000Z</time>
        <extensions>
          <ns3:TrackPointExtension>
            <ns3:hr>156</ns3:hr>
            <ns3:cad>54</ns3:cad>
          </ns3:TrackPointExtension>
        </extensions>
      </trkpt>
      <trkpt lat="47.51470883376896381378173828125" lon="10.15431636013090610504150390625">
        <ele>1700.199951171875</ele>
        <time>2026-09-01T08:13:42.000Z</time>
        <extensions>
          <ns3:TrackPointExtension>
            <ns3:hr>156</ns3:hr>
            <ns3:cad>54</ns3:cad>
          </ns3:TrackPointExtension>
        </extensions>
      </trkpt>
      <trkpt lat="47.51469408161938190460205078125" lon="10.1542607881128787994384765625">
        <ele>1701.199951171875</ele>
        <time>2026-09-01T08:13:45.000Z</time>
        <extensions>
          <ns3:TrackPointExtension>
            <ns3:hr>155</ns3:hr>
            <ns3:cad>54</ns3:cad>
          </ns3:TrackPointExtension>
        </extensions>
      </trkpt>
      <trkpt lat="47.51468905247747898101806640625" lon="10.15424494631588459014892578125">
        <ele>1701.4000244140625</ele>
        <time>2026-09-01T08:13:46.000Z</time>
        <extensions>
          <ns3:TrackPointExtension>
            <ns3:hr>155</ns3:hr>
            <ns3:cad>54</ns3:cad>
          </ns3:TrackPointExtension>
        </extensions>
      </trkpt>
      <trkpt lat="47.5146777369081974029541015625" lon="10.1541726104915142059326171875">
        <ele>1702.5999755859375</ele>
        <time>2026-09-01T08:13:50.000Z</time>
        <extensions>
          <ns3:TrackPointExtension>
            <ns3:hr>155</ns3:hr>
            <ns3:cad>51</ns3:cad>
          </ns3:TrackPointExtension>
        </extensions>
      </trkpt>
      <trkpt lat="47.51465745270252227783203125" lon="10.1540686748921871185302734375">
        <ele>1703.800048828125</ele>
        <time>2026-09-01T08:13:55.000Z</time>
        <extensions>
          <ns3:TrackPointExtension>
            <ns3:hr>155</ns3:hr>
            <ns3:cad>52</ns3:cad>
          </ns3:TrackPointExtension>
        </extensions>
      </trkpt>
      <trkpt lat="47.51464345492422580718994140625" lon="10.15401008538901805877685546875">
        <ele>1705</ele>
        <time>2026-09-01T08:13:59.000Z</time>
        <extensions>
          <ns3:TrackPointExtension>
            <ns3:hr>156</ns3:hr>
            <ns3:cad>57</ns3:cad>
          </ns3:TrackPointExtension>
        </extensions>
      </trkpt>
      <trkpt lat="47.51462870277464389801025390625" lon="10.15394303016364574432373046875">
        <ele>1705.5999755859375</ele>
        <time>2026-09-01T08:14:02.000Z</time>
        <extensions>
          <ns3:TrackPointExtension>
            <ns3:hr>155</ns3:hr>
            <ns3:cad>57</ns3:cad>
          </ns3:TrackPointExtension>
        </extensions>
      </trkpt>
      <trkpt lat="47.51462266780436038970947265625" lon="10.15392928384244441986083984375">
        <ele>1706</ele>
        <time>2026-09-01T08:14:03.000Z</time>
        <extensions>
          <ns3:TrackPointExtension>
            <ns3:hr>155</ns3:hr>
            <ns3:cad>57</ns3:cad>
          </ns3:TrackPointExtension>
        </extensions>
      </trkpt>
      <trkpt lat="47.51461244188249111175537109375" lon="10.15388435684144496917724609375">
        <ele>1707</ele>
        <time>2026-09-01T08:14:06.000Z</time>
        <extensions>
          <ns3:TrackPointExtension>
            <ns3:hr>155</ns3:hr>
            <ns3:cad>58</ns3:cad>
          </ns3:TrackPointExtension>
        </extensions>
      </trkpt>
      <trkpt lat="47.51459752209484577178955078125" lon="10.15383909456431865692138671875">
        <ele>1707.800048828125</ele>
        <time>2026-09-01T08:14:09.000Z</time>
        <extensions>
          <ns3:TrackPointExtension>
            <ns3:hr>156</ns3:hr>
            <ns3:cad>54</ns3:cad>
          </ns3:TrackPointExtension>
        </extensions>
      </trkpt>
      <trkpt lat="47.5145902298390865325927734375" lon="10.15382568351924419403076171875">
        <ele>1708.199951171875</ele>
        <time>2026-09-01T08:14:10.000Z</time>
        <extensions>
          <ns3:TrackPointExtension>
            <ns3:hr>156</ns3:hr>
            <ns3:cad>54</ns3:cad>
          </ns3:TrackPointExtension>
        </extensions>
      </trkpt>
      <trkpt lat="47.5145815126597881317138671875" lon="10.15375728718936443328857421875">
        <ele>1709.4000244140625</ele>
        <time>2026-09-01T08:14:14.000Z</time>
        <extensions>
          <ns3:TrackPointExtension>
            <ns3:hr>155</ns3:hr>
            <ns3:cad>55</ns3:cad>
          </ns3:TrackPointExtension>
        </extensions>
      </trkpt>
      <trkpt lat="47.514553852379322052001953125" lon="10.1537330634891986846923828125">
        <ele>1710.4000244140625</ele>
        <time>2026-09-01T08:14:17.000Z</time>
        <extensions>
          <ns3:TrackPointExtension>
            <ns3:hr>156</ns3:hr>
            <ns3:cad>54</ns3:cad>
          </ns3:TrackPointExtension>
        </extensions>
      </trkpt>
      <trkpt lat="47.51451604999601840972900390625" lon="10.15372753143310546875">
        <ele>1711.5999755859375</ele>
        <time>2026-09-01T08:14:20.000Z</time>
        <extensions>
          <ns3:TrackPointExtension>
            <ns3:hr>155</ns3:hr>
            <ns3:cad>53</ns3:cad>
          </ns3:TrackPointExtension>
        </extensions>
      </trkpt>
      <trkpt lat="47.514500208199024200439453125" lon="10.15370079316198825836181640625">
        <ele>1712.800048828125</ele>
        <time>2026-09-01T08:14:23.000Z</time>
        <extensions>
          <ns3:TrackPointExtension>
            <ns3:hr>156</ns3:hr>
            <ns3:cad>53</ns3:cad>
          </ns3:TrackPointExtension>
        </extensions>
      </trkpt>
      <trkpt lat="47.51449962146580219268798828125" lon="10.1536857895553112030029296875">
        <ele>1713.199951171875</ele>
        <time>2026-09-01T08:14:24.000Z</time>
        <extensions>
          <ns3:TrackPointExtension>
            <ns3:hr>156</ns3:hr>
            <ns3:cad>53</ns3:cad>
          </ns3:TrackPointExtension>
        </extensions>
      </trkpt>
      <trkpt lat="47.514490149915218353271484375" lon="10.15363222919404506683349609375">
        <ele>1713.800048828125</ele>
        <time>2026-09-01T08:14:26.000Z</time>
        <extensions>
          <ns3:TrackPointExtension>
            <ns3:hr>157</ns3:hr>
            <ns3:cad>53</ns3:cad>
          </ns3:TrackPointExtension>
        </extensions>
      </trkpt>
      <trkpt lat="47.5144759006798267364501953125" lon="10.15356735326349735260009765625">
        <ele>1714.5999755859375</ele>
        <time>2026-09-01T08:14:28.000Z</time>
        <extensions>
          <ns3:TrackPointExtension>
            <ns3:hr>157</ns3:hr>
            <ns3:cad>53</ns3:cad>
          </ns3:TrackPointExtension>
        </extensions>
      </trkpt>
      <trkpt lat="47.5144537724554538726806640625" lon="10.15348286367952823638916015625">
        <ele>1715</ele>
        <time>2026-09-01T08:14:30.000Z</time>
        <extensions>
          <ns3:TrackPointExtension>
            <ns3:hr>158</ns3:hr>
            <ns3:cad>80</ns3:cad>
          </ns3:TrackPointExtension>
        </extensions>
      </trkpt>
      <trkpt lat="47.51444010995328426361083984375" lon="10.1533904112875461578369140625">
        <ele>1714.800048828125</ele>
        <time>2026-09-01T08:14:32.000Z</time>
        <extensions>
          <ns3:TrackPointExtension>
            <ns3:hr>160</ns3:hr>
            <ns3:cad>82</ns3:cad>
          </ns3:TrackPointExtension>
        </extensions>
      </trkpt>
      <trkpt lat="47.51442954875528812408447265625" lon="10.1533002220094203948974609375">
        <ele>1715.199951171875</ele>
        <time>2026-09-01T08:14:35.000Z</time>
        <extensions>
          <ns3:TrackPointExtension>
            <ns3:hr>160</ns3:hr>
            <ns3:cad>85</ns3:cad>
          </ns3:TrackPointExtension>
        </extensions>
      </trkpt>
      <trkpt lat="47.5144135393202304840087890625" lon="10.15320424921810626983642578125">
        <ele>1716.199951171875</ele>
        <time>2026-09-01T08:14:38.000Z</time>
        <extensions>
          <ns3:TrackPointExtension>
            <ns3:hr>161</ns3:hr>
            <ns3:cad>86</ns3:cad>
          </ns3:TrackPointExtension>
        </extensions>
      </trkpt>
      <trkpt lat="47.514427118003368377685546875" lon="10.1531557179987430572509765625">
        <ele>1716.800048828125</ele>
        <time>2026-09-01T08:14:40.000Z</time>
        <extensions>
          <ns3:TrackPointExtension>
            <ns3:hr>161</ns3:hr>
            <ns3:cad>88</ns3:cad>
          </ns3:TrackPointExtension>
        </extensions>
      </trkpt>
      <trkpt lat="47.514415718615055084228515625" lon="10.15312470495700836181640625">
        <ele>1717.199951171875</ele>
        <time>2026-09-01T08:14:41.000Z</time>
        <extensions>
          <ns3:TrackPointExtension>
            <ns3:hr>161</ns3:hr>
            <ns3:cad>90</ns3:cad>
          </ns3:TrackPointExtension>
        </extensions>
      </trkpt>
      <trkpt lat="47.51436500810086727142333984375" lon="10.15307885594666004180908203125">
        <ele>1717.800048828125</ele>
        <time>2026-09-01T08:14:43.000Z</time>
        <extensions>
          <ns3:TrackPointExtension>
            <ns3:hr>161</ns3:hr>
            <ns3:cad>90</ns3:cad>
          </ns3:TrackPointExtension>
        </extensions>
      </trkpt>
      <trkpt lat="47.51424430869519710540771484375" lon="10.1529510319232940673828125">
        <ele>1716.800048828125</ele>
        <time>2026-09-01T08:14:47.000Z</time>
        <extensions>
          <ns3:TrackPointExtension>
            <ns3:hr>162</ns3:hr>
            <ns3:cad>82</ns3:cad>
          </ns3:TrackPointExtension>
        </extensions>
      </trkpt>
      <trkpt lat="47.5142157264053821563720703125" lon="10.1529069431126117706298828125">
        <ele>1716.199951171875</ele>
        <time>2026-09-01T08:14:48.000Z</time>
        <extensions>
          <ns3:TrackPointExtension>
            <ns3:hr>161</ns3:hr>
            <ns3:cad>82</ns3:cad>
          </ns3:TrackPointExtension>
        </extensions>
      </trkpt>
      <trkpt lat="47.5141697935760021209716796875" lon="10.1528422348201274871826171875">
        <ele>1715</ele>
        <time>2026-09-01T08:14:50.000Z</time>
        <extensions>
          <ns3:TrackPointExtension>
            <ns3:hr>163</ns3:hr>
            <ns3:cad>82</ns3:cad>
          </ns3:TrackPointExtension>
        </extensions>
      </trkpt>
      <trkpt lat="47.51410366035997867584228515625" lon="10.15279856510460376739501953125">
        <ele>1714</ele>
        <time>2026-09-01T08:14:52.000Z</time>
        <extensions>
          <ns3:TrackPointExtension>
            <ns3:hr>164</ns3:hr>
            <ns3:cad>82</ns3:cad>
          </ns3:TrackPointExtension>
        </extensions>
      </trkpt>
      <trkpt lat="47.51406610943377017974853515625" lon="10.152777023613452911376953125">
        <ele>1713.4000244140625</ele>
        <time>2026-09-01T08:14:53.000Z</time>
        <extensions>
          <ns3:TrackPointExtension>
            <ns3:hr>163</ns3:hr>
            <ns3:cad>82</ns3:cad>
          </ns3:TrackPointExtension>
        </extensions>
      </trkpt>
      <trkpt lat="47.5140239484608173370361328125" lon="10.15275028534233570098876953125">
        <ele>1712.800048828125</ele>
        <time>2026-09-01T08:14:54.000Z</time>
        <extensions>
          <ns3:TrackPointExtension>
            <ns3:hr>163</ns3:hr>
            <ns3:cad>82</ns3:cad>
          </ns3:TrackPointExtension>
        </extensions>
      </trkpt>
      <trkpt lat="47.51395513303577899932861328125" lon="10.15267384238541126251220703125">
        <ele>1712</ele>
        <time>2026-09-01T08:14:57.000Z</time>
        <extensions>
          <ns3:TrackPointExtension>
            <ns3:hr>163</ns3:hr>
            <ns3:cad>82</ns3:cad>
          </ns3:TrackPointExtension>
        </extensions>
      </trkpt>
      <trkpt lat="47.51387290656566619873046875" lon="10.1525706611573696136474609375">
        <ele>1711.800048828125</ele>
        <time>2026-09-01T08:15:01.000Z</time>
        <extensions>
          <ns3:TrackPointExtension>
            <ns3:hr>162</ns3:hr>
            <ns3:cad>86</ns3:cad>
          </ns3:TrackPointExtension>
        </extensions>
      </trkpt>
      <trkpt lat="47.51386485993862152099609375" lon="10.15256638638675212860107421875">
        <ele>1711.5999755859375</ele>
        <time>2026-09-01T08:15:02.000Z</time>
        <extensions>
          <ns3:TrackPointExtension>
            <ns3:hr>162</ns3:hr>
            <ns3:cad>86</ns3:cad>
          </ns3:TrackPointExtension>
        </extensions>
      </trkpt>
      <trkpt lat="47.5138630159199237823486328125" lon="10.15255129896104335784912109375">
        <ele>1711.4000244140625</ele>
        <time>2026-09-01T08:15:03.000Z</time>
        <extensions>
          <ns3:TrackPointExtension>
            <ns3:hr>162</ns3:hr>
            <ns3:cad>86</ns3:cad>
          </ns3:TrackPointExtension>
        </extensions>
      </trkpt>
      <trkpt lat="47.51385488547384738922119140625" lon="10.1524858362972736358642578125">
        <ele>1711</ele>
        <time>2026-09-01T08:15:05.000Z</time>
        <extensions>
          <ns3:TrackPointExtension>
            <ns3:hr>161</ns3:hr>
            <ns3:cad>83</ns3:cad>
          </ns3:TrackPointExtension>
        </extensions>
      </trkpt>
      <trkpt lat="47.51383694820106029510498046875" lon="10.152451805770397186279296875">
        <ele>1710.4000244140625</ele>
        <time>2026-09-01T08:15:06.000Z</time>
        <extensions>
          <ns3:TrackPointExtension>
            <ns3:hr>161</ns3:hr>
            <ns3:cad>83</ns3:cad>
          </ns3:TrackPointExtension>
        </extensions>
      </trkpt>
      <trkpt lat="47.5137889198958873748779296875" lon="10.15241333283483982086181640625">
        <ele>1708.800048828125</ele>
        <time>2026-09-01T08:15:08.000Z</time>
        <extensions>
          <ns3:TrackPointExtension>
            <ns3:hr>160</ns3:hr>
            <ns3:cad>83</ns3:cad>
          </ns3:TrackPointExtension>
        </extensions>
      </trkpt>
      <trkpt lat="47.5137584097683429718017578125" lon="10.1524160988628864288330078125">
        <ele>1707.800048828125</ele>
        <time>2026-09-01T08:15:09.000Z</time>
        <extensions>
          <ns3:TrackPointExtension>
            <ns3:hr>160</ns3:hr>
            <ns3:cad>0</ns3:cad>
          </ns3:TrackPointExtension>
        </extensions>
      </trkpt>
      <trkpt lat="47.51372404396533966064453125" lon="10.15241266228258609771728515625">
        <ele>1706.5999755859375</ele>
        <time>2026-09-01T08:15:10.000Z</time>
        <extensions>
          <ns3:TrackPointExtension>
            <ns3:hr>160</ns3:hr>
            <ns3:cad>103</ns3:cad>
          </ns3:TrackPointExtension>
        </extensions>
      </trkpt>
      <trkpt lat="47.5136715732514858245849609375" lon="10.15239690430462360382080078125">
        <ele>1704.5999755859375</ele>
        <time>2026-09-01T08:15:12.000Z</time>
        <extensions>
          <ns3:TrackPointExtension>
            <ns3:hr>159</ns3:hr>
            <ns3:cad>103</ns3:cad>
          </ns3:TrackPointExtension>
        </extensions>
      </trkpt>
      <trkpt lat="47.5136450864374637603759765625" lon="10.15236907638609409332275390625">
        <ele>1703.5999755859375</ele>
        <time>2026-09-01T08:15:13.000Z</time>
        <extensions>
          <ns3:TrackPointExtension>
            <ns3:hr>159</ns3:hr>
            <ns3:cad>103</ns3:cad>
          </ns3:TrackPointExtension>
        </extensions>
      </trkpt>
      <trkpt lat="47.51364148221909999847412109375" lon="10.15233638696372509002685546875">
        <ele>1702.4000244140625</ele>
        <time>2026-09-01T08:15:14.000Z</time>
        <extensions>
          <ns3:TrackPointExtension>
            <ns3:hr>159</ns3:hr>
            <ns3:cad>103</ns3:cad>
          </ns3:TrackPointExtension>
        </extensions>
      </trkpt>
      <trkpt lat="47.51363955438137054443359375" lon="10.15228257514536380767822265625">
        <ele>1701.5999755859375</ele>
        <time>2026-09-01T08:15:15.000Z</time>
        <extensions>
          <ns3:TrackPointExtension>
            <ns3:hr>158</ns3:hr>
            <ns3:cad>103</ns3:cad>
          </ns3:TrackPointExtension>
        </extensions>
      </trkpt>
      <trkpt lat="47.51364164985716342926025390625" lon="10.1522333733737468719482421875">
        <ele>1700.5999755859375</ele>
        <time>2026-09-01T08:15:16.000Z</time>
        <extensions>
          <ns3:TrackPointExtension>
            <ns3:hr>158</ns3:hr>
            <ns3:cad>103</ns3:cad>
          </ns3:TrackPointExtension>
        </extensions>
      </trkpt>
      <trkpt lat="47.51364684663712978363037109375" lon="10.1521860994398593902587890625">
        <ele>1699.4000244140625</ele>
        <time>2026-09-01T08:15:17.000Z</time>
        <extensions>
          <ns3:TrackPointExtension>
            <ns3:hr>158</ns3:hr>
            <ns3:cad>103</ns3:cad>
          </ns3:TrackPointExtension>
        </extensions>
      </trkpt>
      <trkpt lat="47.51365003176033496856689453125" lon="10.15214259736239910125732421875">
        <ele>1698.199951171875</ele>
        <time>2026-09-01T08:15:18.000Z</time>
        <extensions>
          <ns3:TrackPointExtension>
            <ns3:hr>158</ns3:hr>
            <ns3:cad>0</ns3:cad>
          </ns3:TrackPointExtension>
        </extensions>
      </trkpt>
      <trkpt lat="47.51362957991659641265869140625" lon="10.1520793139934539794921875">
        <ele>1696.5999755859375</ele>
        <time>2026-09-01T08:15:20.000Z</time>
        <extensions>
          <ns3:TrackPointExtension>
            <ns3:hr>158</ns3:hr>
            <ns3:cad>0</ns3:cad>
          </ns3:TrackPointExtension>
        </extensions>
      </trkpt>
      <trkpt lat="47.51360963098704814910888671875" lon="10.15208727680146694183349609375">
        <ele>1695.800048828125</ele>
        <time>2026-09-01T08:15:21.000Z</time>
        <extensions>
          <ns3:TrackPointExtension>
            <ns3:hr>158</ns3:hr>
            <ns3:cad>0</ns3:cad>
          </ns3:TrackPointExtension>
        </extensions>
      </trkpt>
      <trkpt lat="47.513580881059169769287109375" lon="10.15209515579044818878173828125">
        <ele>1695.4000244140625</ele>
        <time>2026-09-01T08:15:22.000Z</time>
        <extensions>
          <ns3:TrackPointExtension>
            <ns3:hr>157</ns3:hr>
            <ns3:cad>0</ns3:cad>
          </ns3:TrackPointExtension>
        </extensions>
      </trkpt>
      <trkpt lat="47.513505108654499053955078125" lon="10.1521173678338527679443359375">
        <ele>1694.199951171875</ele>
        <time>2026-09-01T08:15:24.000Z</time>
        <extensions>
          <ns3:TrackPointExtension>
            <ns3:hr>157</ns3:hr>
            <ns3:cad>0</ns3:cad>
          </ns3:TrackPointExtension>
        </extensions>
      </trkpt>
      <trkpt lat="47.5134660489857196807861328125" lon="10.15214125625789165496826171875">
        <ele>1693.199951171875</ele>
        <time>2026-09-01T08:15:25.000Z</time>
        <extensions>
          <ns3:TrackPointExtension>
            <ns3:hr>157</ns3:hr>
            <ns3:cad>0</ns3:cad>
          </ns3:TrackPointExtension>
        </extensions>
      </trkpt>
      <trkpt lat="47.51342363655567169189453125" lon="10.15216405503451824188232421875">
        <ele>1692.199951171875</ele>
        <time>2026-09-01T08:15:26.000Z</time>
        <extensions>
          <ns3:TrackPointExtension>
            <ns3:hr>156</ns3:hr>
            <ns3:cad>0</ns3:cad>
          </ns3:TrackPointExtension>
        </extensions>
      </trkpt>
      <trkpt lat="47.5134026817977428436279296875" lon="10.15217042528092861175537109375">
        <ele>1691</ele>
        <time>2026-09-01T08:15:27.000Z</time>
        <extensions>
          <ns3:TrackPointExtension>
            <ns3:hr>156</ns3:hr>
            <ns3:cad>0</ns3:cad>
          </ns3:TrackPointExtension>
        </extensions>
      </trkpt>
      <trkpt lat="47.51337024383246898651123046875" lon="10.1521555893123149871826171875">
        <ele>1690</ele>
        <time>2026-09-01T08:15:28.000Z</time>
        <extensions>
          <ns3:TrackPointExtension>
            <ns3:hr>156</ns3:hr>
            <ns3:cad>0</ns3:cad>
          </ns3:TrackPointExtension>
        </extensions>
      </trkpt>
      <trkpt lat="47.51336806453764438629150390625" lon="10.152112506330013275146484375">
        <ele>1688.800048828125</ele>
        <time>2026-09-01T08:15:29.000Z</time>
        <extensions>
          <ns3:TrackPointExtension>
            <ns3:hr>156</ns3:hr>
            <ns3:cad>0</ns3:cad>
          </ns3:TrackPointExtension>
        </extensions>
      </trkpt>
      <trkpt lat="47.51337510533630847930908203125" lon="10.15200479887425899505615234375">
        <ele>1687.199951171875</ele>
        <time>2026-09-01T08:15:31.000Z</time>
        <extensions>
          <ns3:TrackPointExtension>
            <ns3:hr>155</ns3:hr>
            <ns3:cad>0</ns3:cad>
          </ns3:TrackPointExtension>
        </extensions>
      </trkpt>
      <trkpt lat="47.51337493769824504852294921875" lon="10.15195534564554691314697265625">
        <ele>1686.4000244140625</ele>
        <time>2026-09-01T08:15:32.000Z</time>
        <extensions>
          <ns3:TrackPointExtension>
            <ns3:hr>155</ns3:hr>
            <ns3:cad>94</ns3:cad>
          </ns3:TrackPointExtension>
        </extensions>
      </trkpt>
      <trkpt lat="47.51337896101176738739013671875" lon="10.15189826488494873046875">
        <ele>1685.4000244140625</ele>
        <time>2026-09-01T08:15:33.000Z</time>
        <extensions>
          <ns3:TrackPointExtension>
            <ns3:hr>155</ns3:hr>
            <ns3:cad>94</ns3:cad>
          </ns3:TrackPointExtension>
        </extensions>
      </trkpt>
      <trkpt lat="47.51338616944849491119384765625" lon="10.1517844386398792266845703125">
        <ele>1683.800048828125</ele>
        <time>2026-09-01T08:15:35.000Z</time>
        <extensions>
          <ns3:TrackPointExtension>
            <ns3:hr>155</ns3:hr>
            <ns3:cad>94</ns3:cad>
          </ns3:TrackPointExtension>
        </extensions>
      </trkpt>
      <trkpt lat="47.513401173055171966552734375" lon="10.15174512751400470733642578125">
        <ele>1682.800048828125</ele>
        <time>2026-09-01T08:15:36.000Z</time>
        <extensions>
          <ns3:TrackPointExtension>
            <ns3:hr>155</ns3:hr>
            <ns3:cad>94</ns3:cad>
          </ns3:TrackPointExtension>
        </extensions>
      </trkpt>
      <trkpt lat="47.513409554958343505859375" lon="10.15170321799814701080322265625">
        <ele>1681.800048828125</ele>
        <time>2026-09-01T08:15:37.000Z</time>
        <extensions>
          <ns3:TrackPointExtension>
            <ns3:hr>155</ns3:hr>
            <ns3:cad>94</ns3:cad>
          </ns3:TrackPointExtension>
        </extensions>
      </trkpt>
      <trkpt lat="47.513421289622783660888671875" lon="10.151657871901988983154296875">
        <ele>1680.800048828125</ele>
        <time>2026-09-01T08:15:38.000Z</time>
        <extensions>
          <ns3:TrackPointExtension>
            <ns3:hr>155</ns3:hr>
            <ns3:cad>94</ns3:cad>
          </ns3:TrackPointExtension>
        </extensions>
      </trkpt>
      <trkpt lat="47.51342724077403545379638671875" lon="10.1516094245016574859619140625">
        <ele>1679.800048828125</ele>
        <time>2026-09-01T08:15:39.000Z</time>
        <extensions>
          <ns3:TrackPointExtension>
            <ns3:hr>155</ns3:hr>
            <ns3:cad>95</ns3:cad>
          </ns3:TrackPointExtension>
        </extensions>
      </trkpt>
      <trkpt lat="47.51340343616902828216552734375" lon="10.15157036483287811279296875">
        <ele>1678.800048828125</ele>
        <time>2026-09-01T08:15:40.000Z</time>
        <extensions>
          <ns3:TrackPointExtension>
            <ns3:hr>155</ns3:hr>
            <ns3:cad>96</ns3:cad>
          </ns3:TrackPointExtension>
        </extensions>
      </trkpt>
      <trkpt lat="47.51338080503046512603759765625" lon="10.1515624858438968658447265625">
        <ele>1677.800048828125</ele>
        <time>2026-09-01T08:15:41.000Z</time>
        <extensions>
          <ns3:TrackPointExtension>
            <ns3:hr>155</ns3:hr>
            <ns3:cad>96</ns3:cad>
          </ns3:TrackPointExtension>
        </extensions>
      </trkpt>
      <trkpt lat="47.51334124244749546051025390625" lon="10.1515658386051654815673828125">
        <ele>1677</ele>
        <time>2026-09-01T08:15:42.000Z</time>
        <extensions>
          <ns3:TrackPointExtension>
            <ns3:hr>155</ns3:hr>
            <ns3:cad>96</ns3:cad>
          </ns3:TrackPointExtension>
        </extensions>
      </trkpt>
      <trkpt lat="47.51325331628322601318359375" lon="10.1515815965831279754638671875">
        <ele>1675.5999755859375</ele>
        <time>2026-09-01T08:15:44.000Z</time>
        <extensions>
          <ns3:TrackPointExtension>
            <ns3:hr>154</ns3:hr>
            <ns3:cad>96</ns3:cad>
          </ns3:TrackPointExtension>
        </extensions>
      </trkpt>
      <trkpt lat="47.51317427493631839752197265625" lon="10.15160925686359405517578125">
        <ele>1674.199951171875</ele>
        <time>2026-09-01T08:15:46.000Z</time>
        <extensions>
          <ns3:TrackPointExtension>
            <ns3:hr>154</ns3:hr>
            <ns3:cad>96</ns3:cad>
          </ns3:TrackPointExtension>
        </extensions>
      </trkpt>
      <trkpt lat="47.5130997598171234130859375" lon="10.15165125019848346710205078125">
        <ele>1672.800048828125</ele>
        <time>2026-09-01T08:15:48.000Z</time>
        <extensions>
          <ns3:TrackPointExtension>
            <ns3:hr>154</ns3:hr>
            <ns3:cad>86</ns3:cad>
          </ns3:TrackPointExtension>
        </extensions>
      </trkpt>
      <trkpt lat="47.51302189193665981292724609375" lon="10.1517217420041561126708984375">
        <ele>1671.199951171875</ele>
        <time>2026-09-01T08:15:50.000Z</time>
        <extensions>
          <ns3:TrackPointExtension>
            <ns3:hr>153</ns3:hr>
            <ns3:cad>87</ns3:cad>
          </ns3:TrackPointExtension>
        </extensions>
      </trkpt>
      <trkpt lat="47.5129772163927555084228515625" lon="10.15176214277744293212890625">
        <ele>1670.199951171875</ele>
        <time>2026-09-01T08:15:51.000Z</time>
        <extensions>
          <ns3:TrackPointExtension>
            <ns3:hr>153</ns3:hr>
            <ns3:cad>87</ns3:cad>
          </ns3:TrackPointExtension>
        </extensions>
      </trkpt>
      <trkpt lat="47.5129413418471813201904296875" lon="10.15178955160081386566162109375">
        <ele>1669.199951171875</ele>
        <time>2026-09-01T08:15:52.000Z</time>
        <extensions>
          <ns3:TrackPointExtension>
            <ns3:hr>153</ns3:hr>
            <ns3:cad>87</ns3:cad>
          </ns3:TrackPointExtension>
        </extensions>
      </trkpt>
      <trkpt lat="47.51285777427256107330322265625" lon="10.1518535055220127105712890625">
        <ele>1667.5999755859375</ele>
        <time>2026-09-01T08:15:54.000Z</time>
        <extensions>
          <ns3:TrackPointExtension>
            <ns3:hr>154</ns3:hr>
            <ns3:cad>88</ns3:cad>
          </ns3:TrackPointExtension>
        </extensions>
      </trkpt>
      <trkpt lat="47.5128320418298244476318359375" lon="10.15188041143119335174560546875">
        <ele>1666.5999755859375</ele>
        <time>2026-09-01T08:15:55.000Z</time>
        <extensions>
          <ns3:TrackPointExtension>
            <ns3:hr>153</ns3:hr>
            <ns3:cad>89</ns3:cad>
          </ns3:TrackPointExtension>
        </extensions>
      </trkpt>
      <trkpt lat="47.51278786920011043548583984375" lon="10.15191175974905490875244140625">
        <ele>1665.800048828125</ele>
        <time>2026-09-01T08:15:56.000Z</time>
        <extensions>
          <ns3:TrackPointExtension>
            <ns3:hr>154</ns3:hr>
            <ns3:cad>89</ns3:cad>
          </ns3:TrackPointExtension>
        </extensions>
      </trkpt>
      <trkpt lat="47.51271645538508892059326171875" lon="10.15192550607025623321533203125">
        <ele>1663.5999755859375</ele>
        <time>2026-09-01T08:15:58.000Z</time>
        <extensions>
          <ns3:TrackPointExtension>
            <ns3:hr>153</ns3:hr>
            <ns3:cad>90</ns3:cad>
          </ns3:TrackPointExtension>
        </extensions>
      </trkpt>
      <trkpt lat="47.51263163052499294281005859375" lon="10.15193724073469638824462890625">
        <ele>1661.800048828125</ele>
        <time>2026-09-01T08:16:00.000Z</time>
        <extensions>
          <ns3:TrackPointExtension>
            <ns3:hr>154</ns3:hr>
            <ns3:cad>90</ns3:cad>
          </ns3:TrackPointExtension>
        </extensions>
      </trkpt>
      <trkpt lat="47.5125849433243274688720703125" lon="10.151942186057567596435546875">
        <ele>1660.800048828125</ele>
        <time>2026-09-01T08:16:01.000Z</time>
        <extensions>
          <ns3:TrackPointExtension>
            <ns3:hr>155</ns3:hr>
            <ns3:cad>90</ns3:cad>
          </ns3:TrackPointExtension>
        </extensions>
      </trkpt>
      <trkpt lat="47.51254789531230926513671875" lon="10.15193589963018894195556640625">
        <ele>1659.800048828125</ele>
        <time>2026-09-01T08:16:02.000Z</time>
        <extensions>
          <ns3:TrackPointExtension>
            <ns3:hr>154</ns3:hr>
            <ns3:cad>90</ns3:cad>
          </ns3:TrackPointExtension>
        </extensions>
      </trkpt>
      <trkpt lat="47.5125108473002910614013671875" lon="10.1519222371280193328857421875">
        <ele>1658.800048828125</ele>
        <time>2026-09-01T08:16:03.000Z</time>
        <extensions>
          <ns3:TrackPointExtension>
            <ns3:hr>155</ns3:hr>
            <ns3:cad>90</ns3:cad>
          </ns3:TrackPointExtension>
        </extensions>
      </trkpt>
      <trkpt lat="47.51246667467057704925537109375" lon="10.1519088260829448699951171875">
        <ele>1657.5999755859375</ele>
        <time>2026-09-01T08:16:04.000Z</time>
        <extensions>
          <ns3:TrackPointExtension>
            <ns3:hr>154</ns3:hr>
            <ns3:cad>90</ns3:cad>
          </ns3:TrackPointExtension>
        </extensions>
      </trkpt>
      <trkpt lat="47.5124377571046352386474609375" lon="10.15189365483820438385009765625">
        <ele>1656.5999755859375</ele>
        <time>2026-09-01T08:16:05.000Z</time>
        <extensions>
          <ns3:TrackPointExtension>
            <ns3:hr>154</ns3:hr>
            <ns3:cad>90</ns3:cad>
          </ns3:TrackPointExtension>
        </extensions>
      </trkpt>
      <trkpt lat="47.512409426271915435791015625" lon="10.1518779806792736053466796875">
        <ele>1655.5999755859375</ele>
        <time>2026-09-01T08:16:06.000Z</time>
        <extensions>
          <ns3:TrackPointExtension>
            <ns3:hr>154</ns3:hr>
            <ns3:cad>90</ns3:cad>
          </ns3:TrackPointExtension>
        </extensions>
      </trkpt>
      <trkpt lat="47.51237397082149982452392578125" lon="10.151821486651897430419921875">
        <ele>1654.199951171875</ele>
        <time>2026-09-01T08:16:08.000Z</time>
        <extensions>
          <ns3:TrackPointExtension>
            <ns3:hr>154</ns3:hr>
            <ns3:cad>93</ns3:cad>
          </ns3:TrackPointExtension>
        </extensions>
      </trkpt>
      <trkpt lat="47.51239475794136524200439453125" lon="10.15177957713603973388671875">
        <ele>1653.4000244140625</ele>
        <time>2026-09-01T08:16:09.000Z</time>
        <extensions>
          <ns3:TrackPointExtension>
            <ns3:hr>154</ns3:hr>
            <ns3:cad>93</ns3:cad>
          </ns3:TrackPointExtension>
        </extensions>
      </trkpt>
      <trkpt lat="47.5124149583280086517333984375" lon="10.1517172157764434814453125">
        <ele>1652.5999755859375</ele>
        <time>2026-09-01T08:16:10.000Z</time>
        <extensions>
          <ns3:TrackPointExtension>
            <ns3:hr>154</ns3:hr>
            <ns3:cad>93</ns3:cad>
          </ns3:TrackPointExtension>
        </extensions>
      </trkpt>
      <trkpt lat="47.51243524253368377685546875" lon="10.15167337842285633087158203125">
        <ele>1651.4000244140625</ele>
        <time>2026-09-01T08:16:11.000Z</time>
        <extensions>
          <ns3:TrackPointExtension>
            <ns3:hr>153</ns3:hr>
            <ns3:cad>93</ns3:cad>
          </ns3:TrackPointExtension>
        </extensions>
      </trkpt>
      <trkpt lat="47.51244706101715564727783203125" lon="10.1516077481210231781005859375">
        <ele>1650.5999755859375</ele>
        <time>2026-09-01T08:16:12.000Z</time>
        <extensions>
          <ns3:TrackPointExtension>
            <ns3:hr>154</ns3:hr>
            <ns3:cad>93</ns3:cad>
          </ns3:TrackPointExtension>
        </extensions>
      </trkpt>
      <trkpt lat="47.5124568678438663482666015625" lon="10.151560306549072265625">
        <ele>1649.4000244140625</ele>
        <time>2026-09-01T08:16:13.000Z</time>
        <extensions>
          <ns3:TrackPointExtension>
            <ns3:hr>154</ns3:hr>
            <ns3:cad>93</ns3:cad>
          </ns3:TrackPointExtension>
        </extensions>
      </trkpt>
      <trkpt lat="47.5124662555754184722900390625" lon="10.15145494602620601654052734375">
        <ele>1647.5999755859375</ele>
        <time>2026-09-01T08:16:15.000Z</time>
        <extensions>
          <ns3:TrackPointExtension>
            <ns3:hr>154</ns3:hr>
            <ns3:cad>93</ns3:cad>
          </ns3:TrackPointExtension>
        </extensions>
      </trkpt>
      <trkpt lat="47.51247254200279712677001953125" lon="10.1513539440929889678955078125">
        <ele>1646</ele>
        <time>2026-09-01T08:16:17.000Z</time>
        <extensions>
          <ns3:TrackPointExtension>
            <ns3:hr>154</ns3:hr>
            <ns3:cad>91</ns3:cad>
          </ns3:TrackPointExtension>
        </extensions>
      </trkpt>
      <trkpt lat="47.5124793313443660736083984375" lon="10.1512593962252140045166015625">
        <ele>1644.4000244140625</ele>
        <time>2026-09-01T08:16:19.000Z</time>
        <extensions>
          <ns3:TrackPointExtension>
            <ns3:hr>154</ns3:hr>
            <ns3:cad>91</ns3:cad>
          </ns3:TrackPointExtension>
        </extensions>
      </trkpt>
      <trkpt lat="47.51247958280146121978759765625" lon="10.15115839429199695587158203125">
        <ele>1642.5999755859375</ele>
        <time>2026-09-01T08:16:21.000Z</time>
        <extensions>
          <ns3:TrackPointExtension>
            <ns3:hr>153</ns3:hr>
            <ns3:cad>91</ns3:cad>
          </ns3:TrackPointExtension>
        </extensions>
      </trkpt>
      <trkpt lat="47.51247958280146121978759765625" lon="10.1510589011013507843017578125">
        <ele>1640.5999755859375</ele>
        <time>2026-09-01T08:16:23.000Z</time>
        <extensions>
          <ns3:TrackPointExtension>
            <ns3:hr>153</ns3:hr>
            <ns3:cad>104</ns3:cad>
          </ns3:TrackPointExtension>
        </extensions>
      </trkpt>
      <trkpt lat="47.51247991807758808135986328125" lon="10.151005089282989501953125">
        <ele>1639.5999755859375</ele>
        <time>2026-09-01T08:16:24.000Z</time>
        <extensions>
          <ns3:TrackPointExtension>
            <ns3:hr>154</ns3:hr>
            <ns3:cad>104</ns3:cad>
          </ns3:TrackPointExtension>
        </extensions>
      </trkpt>
      <trkpt lat="47.51247623004019260406494140625" lon="10.150957815349102020263671875">
        <ele>1638.4000244140625</ele>
        <time>2026-09-01T08:16:25.000Z</time>
        <extensions>
          <ns3:TrackPointExtension>
            <ns3:hr>154</ns3:hr>
            <ns3:cad>104</ns3:cad>
          </ns3:TrackPointExtension>
        </extensions>
      </trkpt>
      <trkpt lat="47.51248025335371494293212890625" lon="10.15090559609234333038330078125">
        <ele>1637.4000244140625</ele>
        <time>2026-09-01T08:16:26.000Z</time>
        <extensions>
          <ns3:TrackPointExtension>
            <ns3:hr>154</ns3:hr>
            <ns3:cad>104</ns3:cad>
          </ns3:TrackPointExtension>
        </extensions>
      </trkpt>
      <trkpt lat="47.512481175363063812255859375" lon="10.15087542124092578887939453125">
        <ele>1636.4000244140625</ele>
        <time>2026-09-01T08:16:27.000Z</time>
        <extensions>
          <ns3:TrackPointExtension>
            <ns3:hr>153</ns3:hr>
            <ns3:cad>104</ns3:cad>
          </ns3:TrackPointExtension>
        </extensions>
      </trkpt>
      <trkpt lat="47.512481845915317535400390625" lon="10.1508335955440998077392578125">
        <ele>1635.4000244140625</ele>
        <time>2026-09-01T08:16:28.000Z</time>
        <extensions>
          <ns3:TrackPointExtension>
            <ns3:hr>154</ns3:hr>
            <ns3:cad>104</ns3:cad>
          </ns3:TrackPointExtension>
        </extensions>
      </trkpt>
      <trkpt lat="47.51247874461114406585693359375" lon="10.15080501325428485870361328125">
        <ele>1634.5999755859375</ele>
        <time>2026-09-01T08:16:29.000Z</time>
        <extensions>
          <ns3:TrackPointExtension>
            <ns3:hr>154</ns3:hr>
            <ns3:cad>104</ns3:cad>
          </ns3:TrackPointExtension>
        </extensions>
      </trkpt>
      <trkpt lat="47.512475810945034027099609375" lon="10.1507155783474445343017578125">
        <ele>1632.800048828125</ele>
        <time>2026-09-01T08:16:31.000Z</time>
        <extensions>
          <ns3:TrackPointExtension>
            <ns3:hr>153</ns3:hr>
            <ns3:cad>104</ns3:cad>
          </ns3:TrackPointExtension>
        </extensions>
      </trkpt>
      <trkpt lat="47.5124696083366870880126953125" lon="10.15066637657582759857177734375">
        <ele>1631.800048828125</ele>
        <time>2026-09-01T08:16:32.000Z</time>
        <extensions>
          <ns3:TrackPointExtension>
            <ns3:hr>153</ns3:hr>
            <ns3:cad>104</ns3:cad>
          </ns3:TrackPointExtension>
        </extensions>
      </trkpt>
      <trkpt lat="47.512470446527004241943359375" lon="10.150624215602874755859375">
        <ele>1630.4000244140625</ele>
        <time>2026-09-01T08:16:33.000Z</time>
        <extensions>
          <ns3:TrackPointExtension>
            <ns3:hr>153</ns3:hr>
            <ns3:cad>104</ns3:cad>
          </ns3:TrackPointExtension>
        </extensions>
      </trkpt>
      <trkpt lat="47.5124709494411945343017578125" lon="10.1505774445831775665283203125">
        <ele>1629.199951171875</ele>
        <time>2026-09-01T08:16:34.000Z</time>
        <extensions>
          <ns3:TrackPointExtension>
            <ns3:hr>153</ns3:hr>
            <ns3:cad>104</ns3:cad>
          </ns3:TrackPointExtension>
        </extensions>
      </trkpt>
      <trkpt lat="47.512465752661228179931640625" lon="10.1505298353731632232666015625">
        <ele>1628</ele>
        <time>2026-09-01T08:16:35.000Z</time>
        <extensions>
          <ns3:TrackPointExtension>
            <ns3:hr>153</ns3:hr>
            <ns3:cad>104</ns3:cad>
          </ns3:TrackPointExtension>
        </extensions>
      </trkpt>
      <trkpt lat="47.51246013678610324859619140625" lon="10.150475017726421356201171875">
        <ele>1626.800048828125</ele>
        <time>2026-09-01T08:16:36.000Z</time>
        <extensions>
          <ns3:TrackPointExtension>
            <ns3:hr>153</ns3:hr>
            <ns3:cad>104</ns3:cad>
          </ns3:TrackPointExtension>
        </extensions>
      </trkpt>
      <trkpt lat="47.5124558620154857635498046875" lon="10.15044760890305042266845703125">
        <ele>1626</ele>
        <time>2026-09-01T08:16:37.000Z</time>
        <extensions>
          <ns3:TrackPointExtension>
            <ns3:hr>154</ns3:hr>
            <ns3:cad>104</ns3:cad>
          </ns3:TrackPointExtension>
        </extensions>
      </trkpt>
      <trkpt lat="47.51245460473001003265380859375" lon="10.150399245321750640869140625">
        <ele>1625.199951171875</ele>
        <time>2026-09-01T08:16:38.000Z</time>
        <extensions>
          <ns3:TrackPointExtension>
            <ns3:hr>154</ns3:hr>
            <ns3:cad>104</ns3:cad>
          </ns3:TrackPointExtension>
        </extensions>
      </trkpt>
      <trkpt lat="47.51245535910129547119140625" lon="10.15028768219053745269775390625">
        <ele>1623.4000244140625</ele>
        <time>2026-09-01T08:16:40.000Z</time>
        <extensions>
          <ns3:TrackPointExtension>
            <ns3:hr>154</ns3:hr>
            <ns3:cad>104</ns3:cad>
          </ns3:TrackPointExtension>
        </extensions>
      </trkpt>
      <trkpt lat="47.51245778985321521759033203125" lon="10.15023739077150821685791015625">
        <ele>1622.4000244140625</ele>
        <time>2026-09-01T08:16:41.000Z</time>
        <extensions>
          <ns3:TrackPointExtension>
            <ns3:hr>154</ns3:hr>
            <ns3:cad>104</ns3:cad>
          </ns3:TrackPointExtension>
        </extensions>
      </trkpt>
      <trkpt lat="47.51245561055839061737060546875" lon="10.150190703570842742919921875">
        <ele>1621.4000244140625</ele>
        <time>2026-09-01T08:16:42.000Z</time>
        <extensions>
          <ns3:TrackPointExtension>
            <ns3:hr>154</ns3:hr>
            <ns3:cad>104</ns3:cad>
          </ns3:TrackPointExtension>
        </extensions>
      </trkpt>
      <trkpt lat="47.5124421156942844390869140625" lon="10.1501073874533176422119140625">
        <ele>1619.4000244140625</ele>
        <time>2026-09-01T08:16:44.000Z</time>
        <extensions>
          <ns3:TrackPointExtension>
            <ns3:hr>153</ns3:hr>
            <ns3:cad>104</ns3:cad>
          </ns3:TrackPointExtension>
        </extensions>
      </trkpt>
      <trkpt lat="47.51241470687091350555419921875" lon="10.15004628337919712066650390625">
        <ele>1617.4000244140625</ele>
        <time>2026-09-01T08:16:46.000Z</time>
        <extensions>
          <ns3:TrackPointExtension>
            <ns3:hr>154</ns3:hr>
            <ns3:cad>104</ns3:cad>
          </ns3:TrackPointExtension>
        </extensions>
      </trkpt>
      <trkpt lat="47.51240112818777561187744140625" lon="10.150032453238964080810546875">
        <ele>1616.199951171875</ele>
        <time>2026-09-01T08:16:47.000Z</time>
        <extensions>
          <ns3:TrackPointExtension>
            <ns3:hr>153</ns3:hr>
            <ns3:cad>104</ns3:cad>
          </ns3:TrackPointExtension>
        </extensions>
      </trkpt>
      <trkpt lat="47.51237849704921245574951171875" lon="10.1500046253204345703125">
        <ele>1615</ele>
        <time>2026-09-01T08:16:48.000Z</time>
        <extensions>
          <ns3:TrackPointExtension>
            <ns3:hr>154</ns3:hr>
            <ns3:cad>104</ns3:cad>
          </ns3:TrackPointExtension>
        </extensions>
      </trkpt>
      <trkpt lat="47.5123626552522182464599609375" lon="10.1499840058386325836181640625">
        <ele>1614</ele>
        <time>2026-09-01T08:16:49.000Z</time>
        <extensions>
          <ns3:TrackPointExtension>
            <ns3:hr>154</ns3:hr>
            <ns3:cad>88</ns3:cad>
          </ns3:TrackPointExtension>
        </extensions>
      </trkpt>
      <trkpt lat="47.5123398564755916595458984375" lon="10.1499550044536590576171875">
        <ele>1613</ele>
        <time>2026-09-01T08:16:50.000Z</time>
        <extensions>
          <ns3:TrackPointExtension>
            <ns3:hr>154</ns3:hr>
            <ns3:cad>88</ns3:cad>
          </ns3:TrackPointExtension>
        </extensions>
      </trkpt>
      <trkpt lat="47.512315548956394195556640625" lon="10.14992415904998779296875">
        <ele>1611.800048828125</ele>
        <time>2026-09-01T08:16:51.000Z</time>
        <extensions>
          <ns3:TrackPointExtension>
            <ns3:hr>154</ns3:hr>
            <ns3:cad>86</ns3:cad>
          </ns3:TrackPointExtension>
        </extensions>
      </trkpt>
      <trkpt lat="47.51226366497576236724853515625" lon="10.14986204914748668670654296875">
        <ele>1609.800048828125</ele>
        <time>2026-09-01T08:16:53.000Z</time>
        <extensions>
          <ns3:TrackPointExtension>
            <ns3:hr>154</ns3:hr>
            <ns3:cad>86</ns3:cad>
          </ns3:TrackPointExtension>
        </extensions>
      </trkpt>
      <trkpt lat="47.51221655867993831634521484375" lon="10.14980270527303218841552734375">
        <ele>1607.800048828125</ele>
        <time>2026-09-01T08:16:55.000Z</time>
        <extensions>
          <ns3:TrackPointExtension>
            <ns3:hr>154</ns3:hr>
            <ns3:cad>102</ns3:cad>
          </ns3:TrackPointExtension>
        </extensions>
      </trkpt>
      <trkpt lat="47.512180767953395843505859375" lon="10.1497412659227848052978515625">
        <ele>1605.800048828125</ele>
        <time>2026-09-01T08:16:57.000Z</time>
        <extensions>
          <ns3:TrackPointExtension>
            <ns3:hr>155</ns3:hr>
            <ns3:cad>101</ns3:cad>
          </ns3:TrackPointExtension>
        </extensions>
      </trkpt>
      <trkpt lat="47.51212150789797306060791015625" lon="10.14970161952078342437744140625">
        <ele>1604</ele>
        <time>2026-09-01T08:16:59.000Z</time>
        <extensions>
          <ns3:TrackPointExtension>
            <ns3:hr>154</ns3:hr>
            <ns3:cad>101</ns3:cad>
          </ns3:TrackPointExtension>
        </extensions>
      </trkpt>
      <trkpt lat="47.51209602691233158111572265625" lon="10.14968703500926494598388671875">
        <ele>1602.800048828125</ele>
        <time>2026-09-01T08:17:00.000Z</time>
        <extensions>
          <ns3:TrackPointExtension>
            <ns3:hr>154</ns3:hr>
            <ns3:cad>101</ns3:cad>
          </ns3:TrackPointExtension>
        </extensions>
      </trkpt>
      <trkpt lat="47.51207825727760791778564453125" lon="10.1496618054807186126708984375">
        <ele>1601.800048828125</ele>
        <time>2026-09-01T08:17:01.000Z</time>
        <extensions>
          <ns3:TrackPointExtension>
            <ns3:hr>154</ns3:hr>
            <ns3:cad>101</ns3:cad>
          </ns3:TrackPointExtension>
        </extensions>
      </trkpt>
      <trkpt lat="47.51204540021717548370361328125" lon="10.1496396772563457489013671875">
        <ele>1600.800048828125</ele>
        <time>2026-09-01T08:17:02.000Z</time>
        <extensions>
          <ns3:TrackPointExtension>
            <ns3:hr>154</ns3:hr>
            <ns3:cad>101</ns3:cad>
          </ns3:TrackPointExtension>
        </extensions>
      </trkpt>
      <trkpt lat="47.512011788785457611083984375" lon="10.149597935378551483154296875">
        <ele>1599</ele>
        <time>2026-09-01T08:17:04.000Z</time>
        <extensions>
          <ns3:TrackPointExtension>
            <ns3:hr>153</ns3:hr>
            <ns3:cad>0</ns3:cad>
          </ns3:TrackPointExtension>
        </extensions>
      </trkpt>
      <trkpt lat="47.5119864754378795623779296875" lon="10.14952593483030796051025390625">
        <ele>1597.199951171875</ele>
        <time>2026-09-01T08:17:06.000Z</time>
        <extensions>
          <ns3:TrackPointExtension>
            <ns3:hr>153</ns3:hr>
            <ns3:cad>98</ns3:cad>
          </ns3:TrackPointExtension>
        </extensions>
      </trkpt>
      <trkpt lat="47.51194548793137073516845703125" lon="10.1494566164910793304443359375">
        <ele>1595</ele>
        <time>2026-09-01T08:17:08.000Z</time>
        <extensions>
          <ns3:TrackPointExtension>
            <ns3:hr>153</ns3:hr>
            <ns3:cad>98</ns3:cad>
          </ns3:TrackPointExtension>
        </extensions>
      </trkpt>
      <trkpt lat="47.5119180791079998016357421875" lon="10.149426274001598358154296875">
        <ele>1593.800048828125</ele>
        <time>2026-09-01T08:17:09.000Z</time>
        <extensions>
          <ns3:TrackPointExtension>
            <ns3:hr>153</ns3:hr>
            <ns3:cad>98</ns3:cad>
          </ns3:TrackPointExtension>
        </extensions>
      </trkpt>
      <trkpt lat="47.51191246323287487030029296875" lon="10.14940758235752582550048828125">
        <ele>1592.800048828125</ele>
        <time>2026-09-01T08:17:10.000Z</time>
        <extensions>
          <ns3:TrackPointExtension>
            <ns3:hr>152</ns3:hr>
            <ns3:cad>98</ns3:cad>
          </ns3:TrackPointExtension>
        </extensions>
      </trkpt>
      <trkpt lat="47.51190324313938617706298828125" lon="10.14936785213649272918701171875">
        <ele>1591.800048828125</ele>
        <time>2026-09-01T08:17:11.000Z</time>
        <extensions>
          <ns3:TrackPointExtension>
            <ns3:hr>153</ns3:hr>
            <ns3:cad>98</ns3:cad>
          </ns3:TrackPointExtension>
        </extensions>
      </trkpt>
      <trkpt lat="47.511904500424861907958984375" lon="10.14934069477021694183349609375">
        <ele>1590.800048828125</ele>
        <time>2026-09-01T08:17:12.000Z</time>
        <extensions>
          <ns3:TrackPointExtension>
            <ns3:hr>153</ns3:hr>
            <ns3:cad>98</ns3:cad>
          </ns3:TrackPointExtension>
        </extensions>
      </trkpt>
      <trkpt lat="47.5118793547153472900390625" lon="10.14923994429409503936767578125">
        <ele>1589.4000244140625</ele>
        <time>2026-09-01T08:17:14.000Z</time>
        <extensions>
          <ns3:TrackPointExtension>
            <ns3:hr>152</ns3:hr>
            <ns3:cad>0</ns3:cad>
          </ns3:TrackPointExtension>
        </extensions>
      </trkpt>
      <trkpt lat="47.51184574328362941741943359375" lon="10.1491664350032806396484375">
        <ele>1587.800048828125</ele>
        <time>2026-09-01T08:17:16.000Z</time>
        <extensions>
          <ns3:TrackPointExtension>
            <ns3:hr>152</ns3:hr>
            <ns3:cad>93</ns3:cad>
          </ns3:TrackPointExtension>
        </extensions>
      </trkpt>
      <trkpt lat="47.51181431114673614501953125" lon="10.14907783828675746917724609375">
        <ele>1586</ele>
        <time>2026-09-01T08:17:18.000Z</time>
        <extensions>
          <ns3:TrackPointExtension>
            <ns3:hr>152</ns3:hr>
            <ns3:cad>93</ns3:cad>
          </ns3:TrackPointExtension>
        </extensions>
      </trkpt>
      <trkpt lat="47.5117685459554195404052734375" lon="10.14902721159160137176513671875">
        <ele>1584</ele>
        <time>2026-09-01T08:17:20.000Z</time>
        <extensions>
          <ns3:TrackPointExtension>
            <ns3:hr>151</ns3:hr>
            <ns3:cad>93</ns3:cad>
          </ns3:TrackPointExtension>
        </extensions>
      </trkpt>
      <trkpt lat="47.51174733974039554595947265625" lon="10.14899033121764659881591796875">
        <ele>1583</ele>
        <time>2026-09-01T08:17:21.000Z</time>
        <extensions>
          <ns3:TrackPointExtension>
            <ns3:hr>151</ns3:hr>
            <ns3:cad>93</ns3:cad>
          </ns3:TrackPointExtension>
        </extensions>
      </trkpt>
      <trkpt lat="47.5117184221744537353515625" lon="10.14895227737724781036376953125">
        <ele>1582</ele>
        <time>2026-09-01T08:17:22.000Z</time>
        <extensions>
          <ns3:TrackPointExtension>
            <ns3:hr>151</ns3:hr>
            <ns3:cad>93</ns3:cad>
          </ns3:TrackPointExtension>
        </extensions>
      </trkpt>
      <trkpt lat="47.51166905276477336883544921875" lon="10.148856975138187408447265625">
        <ele>1580.199951171875</ele>
        <time>2026-09-01T08:17:24.000Z</time>
        <extensions>
          <ns3:TrackPointExtension>
            <ns3:hr>151</ns3:hr>
            <ns3:cad>93</ns3:cad>
          </ns3:TrackPointExtension>
        </extensions>
      </trkpt>
      <trkpt lat="47.511644326150417327880859375" lon="10.14875044114887714385986328125">
        <ele>1578.199951171875</ele>
        <time>2026-09-01T08:17:26.000Z</time>
        <extensions>
          <ns3:TrackPointExtension>
            <ns3:hr>152</ns3:hr>
            <ns3:cad>93</ns3:cad>
          </ns3:TrackPointExtension>
        </extensions>
      </trkpt>
      <trkpt lat="47.5116123072803020477294921875" lon="10.14863728545606136322021484375">
        <ele>1576.5999755859375</ele>
        <time>2026-09-01T08:17:28.000Z</time>
        <extensions>
          <ns3:TrackPointExtension>
            <ns3:hr>152</ns3:hr>
            <ns3:cad>93</ns3:cad>
          </ns3:TrackPointExtension>
        </extensions>
      </trkpt>
      <trkpt lat="47.51158540137112140655517578125" lon="10.14852681197226047515869140625">
        <ele>1575.4000244140625</ele>
        <time>2026-09-01T08:17:30.000Z</time>
        <extensions>
          <ns3:TrackPointExtension>
            <ns3:hr>152</ns3:hr>
            <ns3:cad>93</ns3:cad>
          </ns3:TrackPointExtension>
        </extensions>
      </trkpt>
      <trkpt lat="47.51155690290033817291259765625" lon="10.14842279255390167236328125">
        <ele>1574.4000244140625</ele>
        <time>2026-09-01T08:17:32.000Z</time>
        <extensions>
          <ns3:TrackPointExtension>
            <ns3:hr>153</ns3:hr>
            <ns3:cad>93</ns3:cad>
          </ns3:TrackPointExtension>
        </extensions>
      </trkpt>
      <trkpt lat="47.51152220182120800018310546875" lon="10.1483284123241901397705078125">
        <ele>1573</ele>
        <time>2026-09-01T08:17:34.000Z</time>
        <extensions>
          <ns3:TrackPointExtension>
            <ns3:hr>152</ns3:hr>
            <ns3:cad>85</ns3:cad>
          </ns3:TrackPointExtension>
        </extensions>
      </trkpt>
      <trkpt lat="47.51148968003690242767333984375" lon="10.14823327772319316864013671875">
        <ele>1571.800048828125</ele>
        <time>2026-09-01T08:17:36.000Z</time>
        <extensions>
          <ns3:TrackPointExtension>
            <ns3:hr>151</ns3:hr>
            <ns3:cad>85</ns3:cad>
          </ns3:TrackPointExtension>
        </extensions>
      </trkpt>
      <trkpt lat="47.5114470161497592926025390625" lon="10.1481265760958194732666015625">
        <ele>1570.5999755859375</ele>
        <time>2026-09-01T08:17:38.000Z</time>
        <extensions>
          <ns3:TrackPointExtension>
            <ns3:hr>150</ns3:hr>
            <ns3:cad>87</ns3:cad>
          </ns3:TrackPointExtension>
        </extensions>
      </trkpt>
      <trkpt lat="47.51137635670602321624755859375" lon="10.14803429134190082550048828125">
        <ele>1569.199951171875</ele>
        <time>2026-09-01T08:17:40.000Z</time>
        <extensions>
          <ns3:TrackPointExtension>
            <ns3:hr>150</ns3:hr>
            <ns3:cad>85</ns3:cad>
          </ns3:TrackPointExtension>
        </extensions>
      </trkpt>
      <trkpt lat="47.5113149173557758331298828125" lon="10.14795231632888317108154296875">
        <ele>1568.199951171875</ele>
        <time>2026-09-01T08:17:42.000Z</time>
        <extensions>
          <ns3:TrackPointExtension>
            <ns3:hr>150</ns3:hr>
            <ns3:cad>87</ns3:cad>
          </ns3:TrackPointExtension>
        </extensions>
      </trkpt>
      <trkpt lat="47.51125507056713104248046875" lon="10.14781284146010875701904296875">
        <ele>1567.4000244140625</ele>
        <time>2026-09-01T08:17:45.000Z</time>
        <extensions>
          <ns3:TrackPointExtension>
            <ns3:hr>150</ns3:hr>
            <ns3:cad>86</ns3:cad>
          </ns3:TrackPointExtension>
        </extensions>
      </trkpt>
      <trkpt lat="47.5112114846706390380859375" lon="10.14772147871553897857666015625">
        <ele>1567.199951171875</ele>
        <time>2026-09-01T08:17:47.000Z</time>
        <extensions>
          <ns3:TrackPointExtension>
            <ns3:hr>150</ns3:hr>
            <ns3:cad>85</ns3:cad>
          </ns3:TrackPointExtension>
        </extensions>
      </trkpt>
      <trkpt lat="47.51120000146329402923583984375" lon="10.1476483047008514404296875">
        <ele>1567.4000244140625</ele>
        <time>2026-09-01T08:17:49.000Z</time>
        <extensions>
          <ns3:TrackPointExtension>
            <ns3:hr>151</ns3:hr>
            <ns3:cad>86</ns3:cad>
          </ns3:TrackPointExtension>
        </extensions>
      </trkpt>
      <trkpt lat="47.51117820851504802703857421875" lon="10.14755635522305965423583984375">
        <ele>1568.199951171875</ele>
        <time>2026-09-01T08:17:52.000Z</time>
        <extensions>
          <ns3:TrackPointExtension>
            <ns3:hr>152</ns3:hr>
            <ns3:cad>87</ns3:cad>
          </ns3:TrackPointExtension>
        </extensions>
      </trkpt>
      <trkpt lat="47.5111600197851657867431640625" lon="10.147518217563629150390625">
        <ele>1568.5999755859375</ele>
        <time>2026-09-01T08:17:53.000Z</time>
        <extensions>
          <ns3:TrackPointExtension>
            <ns3:hr>152</ns3:hr>
            <ns3:cad>87</ns3:cad>
          </ns3:TrackPointExtension>
        </extensions>
      </trkpt>
      <trkpt lat="47.5111162662506103515625" lon="10.14743280597031116485595703125">
        <ele>1569.4000244140625</ele>
        <time>2026-09-01T08:17:56.000Z</time>
        <extensions>
          <ns3:TrackPointExtension>
            <ns3:hr>153</ns3:hr>
            <ns3:cad>87</ns3:cad>
          </ns3:TrackPointExtension>
        </extensions>
      </trkpt>
      <trkpt lat="47.511081062257289886474609375" lon="10.1473331451416015625">
        <ele>1570.4000244140625</ele>
        <time>2026-09-01T08:18:00.000Z</time>
        <extensions>
          <ns3:TrackPointExtension>
            <ns3:hr>154</ns3:hr>
            <ns3:cad>85</ns3:cad>
          </ns3:TrackPointExtension>
        </extensions>
      </trkpt>
      <trkpt lat="47.511050887405872344970703125" lon="10.14728528447449207305908203125">
        <ele>1571.800048828125</ele>
        <time>2026-09-01T08:18:03.000Z</time>
        <extensions>
          <ns3:TrackPointExtension>
            <ns3:hr>154</ns3:hr>
            <ns3:cad>87</ns3:cad>
          </ns3:TrackPointExtension>
        </extensions>
      </trkpt>
      <trkpt lat="47.51104041002690792083740234375" lon="10.14726583845913410186767578125">
        <ele>1572.199951171875</ele>
        <time>2026-09-01T08:18:04.000Z</time>
        <extensions>
          <ns3:TrackPointExtension>
            <ns3:hr>154</ns3:hr>
            <ns3:cad>88</ns3:cad>
          </ns3:TrackPointExtension>
        </extensions>
      </trkpt>
      <trkpt lat="47.5110336206853389739990234375" lon="10.147238261997699737548828125">
        <ele>1573</ele>
        <time>2026-09-01T08:18:06.000Z</time>
        <extensions>
          <ns3:TrackPointExtension>
            <ns3:hr>154</ns3:hr>
            <ns3:cad>87</ns3:cad>
          </ns3:TrackPointExtension>
        </extensions>
      </trkpt>
      <trkpt lat="47.51102766953408718109130859375" lon="10.1472136192023754119873046875">
        <ele>1573.800048828125</ele>
        <time>2026-09-01T08:18:08.000Z</time>
        <extensions>
          <ns3:TrackPointExtension>
            <ns3:hr>154</ns3:hr>
            <ns3:cad>87</ns3:cad>
          </ns3:TrackPointExtension>
        </extensions>
      </trkpt>
      <trkpt lat="47.5110255740582942962646484375" lon="10.1472062431275844573974609375">
        <ele>1574</ele>
        <time>2026-09-01T08:18:09.000Z</time>
        <extensions>
          <ns3:TrackPointExtension>
            <ns3:hr>154</ns3:hr>
            <ns3:cad>87</ns3:cad>
          </ns3:TrackPointExtension>
        </extensions>
      </trkpt>
      <trkpt lat="47.511038482189178466796875" lon="10.14715335331857204437255859375">
        <ele>1575.4000244140625</ele>
        <time>2026-09-01T08:18:12.000Z</time>
        <extensions>
          <ns3:TrackPointExtension>
            <ns3:hr>155</ns3:hr>
            <ns3:cad>82</ns3:cad>
          </ns3:TrackPointExtension>
        </extensions>
      </trkpt>
      <trkpt lat="47.5110436789691448211669921875" lon="10.14712820760905742645263671875">
        <ele>1576.199951171875</ele>
        <time>2026-09-01T08:18:14.000Z</time>
        <extensions>
          <ns3:TrackPointExtension>
            <ns3:hr>156</ns3:hr>
            <ns3:cad>82</ns3:cad>
          </ns3:TrackPointExtension>
        </extensions>
      </trkpt>
      <trkpt lat="47.51104225404560565948486328125" lon="10.14711110852658748626708984375">
        <ele>1576.5999755859375</ele>
        <time>2026-09-01T08:18:15.000Z</time>
        <extensions>
          <ns3:TrackPointExtension>
            <ns3:hr>156</ns3:hr>
            <ns3:cad>82</ns3:cad>
          </ns3:TrackPointExtension>
        </extensions>
      </trkpt>
      <trkpt lat="47.511030770838260650634765625" lon="10.14708780683577060699462890625">
        <ele>1577.5999755859375</ele>
        <time>2026-09-01T08:18:18.000Z</time>
        <extensions>
          <ns3:TrackPointExtension>
            <ns3:hr>157</ns3:hr>
            <ns3:cad>0</ns3:cad>
          </ns3:TrackPointExtension>
        </extensions>
      </trkpt>
      <trkpt lat="47.51102532260119915008544921875" lon="10.147086717188358306884765625">
        <ele>1578</ele>
        <time>2026-09-01T08:18:19.000Z</time>
        <extensions>
          <ns3:TrackPointExtension>
            <ns3:hr>157</ns3:hr>
            <ns3:cad>0</ns3:cad>
          </ns3:TrackPointExtension>
        </extensions>
      </trkpt>
      <trkpt lat="47.5110057927668094635009765625" lon="10.14704070053994655609130859375">
        <ele>1578.800048828125</ele>
        <time>2026-09-01T08:18:21.000Z</time>
        <extensions>
          <ns3:TrackPointExtension>
            <ns3:hr>159</ns3:hr>
            <ns3:cad>0</ns3:cad>
          </ns3:TrackPointExtension>
        </extensions>
      </trkpt>
      <trkpt lat="47.51099623739719390869140625" lon="10.1470127888023853302001953125">
        <ele>1579.199951171875</ele>
        <time>2026-09-01T08:18:22.000Z</time>
        <extensions>
          <ns3:TrackPointExtension>
            <ns3:hr>159</ns3:hr>
            <ns3:cad>73</ns3:cad>
          </ns3:TrackPointExtension>
        </extensions>
      </trkpt>
      <trkpt lat="47.51098710112273693084716796875" lon="10.14693257398903369903564453125">
        <ele>1580.199951171875</ele>
        <time>2026-09-01T08:18:25.000Z</time>
        <extensions>
          <ns3:TrackPointExtension>
            <ns3:hr>161</ns3:hr>
            <ns3:cad>83</ns3:cad>
          </ns3:TrackPointExtension>
        </extensions>
      </trkpt>
      <trkpt lat="47.51099581830203533172607421875" lon="10.14689837582409381866455078125">
        <ele>1580.800048828125</ele>
        <time>2026-09-01T08:18:27.000Z</time>
        <extensions>
          <ns3:TrackPointExtension>
            <ns3:hr>162</ns3:hr>
            <ns3:cad>84</ns3:cad>
          </ns3:TrackPointExtension>
        </extensions>
      </trkpt>
      <trkpt lat="47.5109915435314178466796875" lon="10.1468679495155811309814453125">
        <ele>1581.199951171875</ele>
        <time>2026-09-01T08:18:28.000Z</time>
        <extensions>
          <ns3:TrackPointExtension>
            <ns3:hr>162</ns3:hr>
            <ns3:cad>85</ns3:cad>
          </ns3:TrackPointExtension>
        </extensions>
      </trkpt>
      <trkpt lat="47.51096547581255435943603515625" lon="10.1468195021152496337890625">
        <ele>1581.800048828125</ele>
        <time>2026-09-01T08:18:30.000Z</time>
        <extensions>
          <ns3:TrackPointExtension>
            <ns3:hr>163</ns3:hr>
            <ns3:cad>85</ns3:cad>
          </ns3:TrackPointExtension>
        </extensions>
      </trkpt>
      <trkpt lat="47.51093077473342418670654296875" lon="10.14672805555164813995361328125">
        <ele>1582.199951171875</ele>
        <time>2026-09-01T08:18:33.000Z</time>
        <extensions>
          <ns3:TrackPointExtension>
            <ns3:hr>164</ns3:hr>
            <ns3:cad>82</ns3:cad>
          </ns3:TrackPointExtension>
        </extensions>
      </trkpt>
      <trkpt lat="47.5109099037945270538330078125" lon="10.14667533338069915771484375">
        <ele>1582.5999755859375</ele>
        <time>2026-09-01T08:18:35.000Z</time>
        <extensions>
          <ns3:TrackPointExtension>
            <ns3:hr>163</ns3:hr>
            <ns3:cad>83</ns3:cad>
          </ns3:TrackPointExtension>
        </extensions>
      </trkpt>
      <trkpt lat="47.51087461598217487335205078125" lon="10.1465531252324581146240234375">
        <ele>1582.4000244140625</ele>
        <time>2026-09-01T08:18:38.000Z</time>
        <extensions>
          <ns3:TrackPointExtension>
            <ns3:hr>162</ns3:hr>
            <ns3:cad>84</ns3:cad>
          </ns3:TrackPointExtension>
        </extensions>
      </trkpt>
      <trkpt lat="47.510859780013561248779296875" lon="10.146392695605754852294921875">
        <ele>1581.800048828125</ele>
        <time>2026-09-01T08:18:42.000Z</time>
        <extensions>
          <ns3:TrackPointExtension>
            <ns3:hr>163</ns3:hr>
            <ns3:cad>82</ns3:cad>
          </ns3:TrackPointExtension>
        </extensions>
      </trkpt>
      <trkpt lat="47.5108230672776699066162109375" lon="10.14621139504015445709228515625">
        <ele>1582</ele>
        <time>2026-09-01T08:18:47.000Z</time>
        <extensions>
          <ns3:TrackPointExtension>
            <ns3:hr>162</ns3:hr>
            <ns3:cad>82</ns3:cad>
          </ns3:TrackPointExtension>
        </extensions>
      </trkpt>
      <trkpt lat="47.51082113943994045257568359375" lon="10.14604576863348484039306640625">
        <ele>1582.4000244140625</ele>
        <time>2026-09-01T08:18:51.000Z</time>
        <extensions>
          <ns3:TrackPointExtension>
            <ns3:hr>162</ns3:hr>
            <ns3:cad>86</ns3:cad>
          </ns3:TrackPointExtension>
        </extensions>
      </trkpt>
      <trkpt lat="47.51080571673810482025146484375" lon="10.1458879373967647552490234375">
        <ele>1582.199951171875</ele>
        <time>2026-09-01T08:18:55.000Z</time>
        <extensions>
          <ns3:TrackPointExtension>
            <ns3:hr>160</ns3:hr>
            <ns3:cad>83</ns3:cad>
          </ns3:TrackPointExtension>
        </extensions>
      </trkpt>
      <trkpt lat="47.510803453624248504638671875" lon="10.14574234373867511749267578125">
        <ele>1582</ele>
        <time>2026-09-01T08:18:58.000Z</time>
        <extensions>
          <ns3:TrackPointExtension>
            <ns3:hr>159</ns3:hr>
            <ns3:cad>83</ns3:cad>
          </ns3:TrackPointExtension>
        </extensions>
      </trkpt>
      <trkpt lat="47.510812170803546905517578125" lon="10.145569927990436553955078125">
        <ele>1581.4000244140625</ele>
        <time>2026-09-01T08:19:02.000Z</time>
        <extensions>
          <ns3:TrackPointExtension>
            <ns3:hr>158</ns3:hr>
            <ns3:cad>85</ns3:cad>
          </ns3:TrackPointExtension>
        </extensions>
      </trkpt>
      <trkpt lat="47.51079347915947437286376953125" lon="10.145485103130340576171875">
        <ele>1581</ele>
        <time>2026-09-01T08:19:04.000Z</time>
        <extensions>
          <ns3:TrackPointExtension>
            <ns3:hr>158</ns3:hr>
            <ns3:cad>85</ns3:cad>
          </ns3:TrackPointExtension>
        </extensions>
      </trkpt>
      <trkpt lat="47.5107898749411106109619140625" lon="10.1454440318048000335693359375">
        <ele>1580.800048828125</ele>
        <time>2026-09-01T08:19:05.000Z</time>
        <extensions>
          <ns3:TrackPointExtension>
            <ns3:hr>158</ns3:hr>
            <ns3:cad>85</ns3:cad>
          </ns3:TrackPointExtension>
        </extensions>
      </trkpt>
      <trkpt lat="47.51077788881957530975341796875" lon="10.1453414373099803924560546875">
        <ele>1579.800048828125</ele>
        <time>2026-09-01T08:19:07.000Z</time>
        <extensions>
          <ns3:TrackPointExtension>
            <ns3:hr>158</ns3:hr>
            <ns3:cad>81</ns3:cad>
          </ns3:TrackPointExtension>
        </extensions>
      </trkpt>
      <trkpt lat="47.51074218191206455230712890625" lon="10.145251415669918060302734375">
        <ele>1579.199951171875</ele>
        <time>2026-09-01T08:19:09.000Z</time>
        <extensions>
          <ns3:TrackPointExtension>
            <ns3:hr>157</ns3:hr>
            <ns3:cad>82</ns3:cad>
          </ns3:TrackPointExtension>
        </extensions>
      </trkpt>
      <trkpt lat="47.51073380000889301300048828125" lon="10.1452163793146610260009765625">
        <ele>1578.5999755859375</ele>
        <time>2026-09-01T08:19:10.000Z</time>
        <extensions>
          <ns3:TrackPointExtension>
            <ns3:hr>157</ns3:hr>
            <ns3:cad>82</ns3:cad>
          </ns3:TrackPointExtension>
        </extensions>
      </trkpt>
      <trkpt lat="47.5107248313724994659423828125" lon="10.145121999084949493408203125">
        <ele>1577.800048828125</ele>
        <time>2026-09-01T08:19:12.000Z</time>
        <extensions>
          <ns3:TrackPointExtension>
            <ns3:hr>156</ns3:hr>
            <ns3:cad>84</ns3:cad>
          </ns3:TrackPointExtension>
        </extensions>
      </trkpt>
      <trkpt lat="47.510724328458309173583984375" lon="10.14507883228361606597900390625">
        <ele>1577.4000244140625</ele>
        <time>2026-09-01T08:19:13.000Z</time>
        <extensions>
          <ns3:TrackPointExtension>
            <ns3:hr>155</ns3:hr>
            <ns3:cad>84</ns3:cad>
          </ns3:TrackPointExtension>
        </extensions>
      </trkpt>
      <trkpt lat="47.51073866151273250579833984375" lon="10.144875906407833099365234375">
        <ele>1576.4000244140625</ele>
        <time>2026-09-01T08:19:17.000Z</time>
        <extensions>
          <ns3:TrackPointExtension>
            <ns3:hr>153</ns3:hr>
            <ns3:cad>85</ns3:cad>
          </ns3:TrackPointExtension>
        </extensions>
      </trkpt>
      <trkpt lat="47.51074905507266521453857421875" lon="10.14482284896075725555419921875">
        <ele>1576.199951171875</ele>
        <time>2026-09-01T08:19:18.000Z</time>
        <extensions>
          <ns3:TrackPointExtension>
            <ns3:hr>154</ns3:hr>
            <ns3:cad>85</ns3:cad>
          </ns3:TrackPointExtension>
        </extensions>
      </trkpt>
      <trkpt lat="47.51075760461390018463134765625" lon="10.1447081007063388824462890625">
        <ele>1575.800048828125</ele>
        <time>2026-09-01T08:19:21.000Z</time>
        <extensions>
          <ns3:TrackPointExtension>
            <ns3:hr>152</ns3:hr>
            <ns3:cad>85</ns3:cad>
          </ns3:TrackPointExtension>
        </extensions>
      </trkpt>
      <trkpt lat="47.5107610411942005157470703125" lon="10.14458991587162017822265625">
        <ele>1576.5999755859375</ele>
        <time>2026-09-01T08:19:25.000Z</time>
        <extensions>
          <ns3:TrackPointExtension>
            <ns3:hr>151</ns3:hr>
            <ns3:cad>85</ns3:cad>
          </ns3:TrackPointExtension>
        </extensions>
      </trkpt>
      <trkpt lat="47.51076213084161281585693359375" lon="10.14455546624958515167236328125">
        <ele>1577.4000244140625</ele>
        <time>2026-09-01T08:19:27.000Z</time>
        <extensions>
          <ns3:TrackPointExtension>
            <ns3:hr>150</ns3:hr>
            <ns3:cad>89</ns3:cad>
          </ns3:TrackPointExtension>
        </extensions>
      </trkpt>
      <trkpt lat="47.510791383683681488037109375" lon="10.14453199692070484161376953125">
        <ele>1578.4000244140625</ele>
        <time>2026-09-01T08:19:30.000Z</time>
        <extensions>
          <ns3:TrackPointExtension>
            <ns3:hr>149</ns3:hr>
            <ns3:cad>89</ns3:cad>
          </ns3:TrackPointExtension>
        </extensions>
      </trkpt>
      <trkpt lat="47.51079431734979152679443359375" lon="10.14447298832237720489501953125">
        <ele>1579.4000244140625</ele>
        <time>2026-09-01T08:19:32.000Z</time>
        <extensions>
          <ns3:TrackPointExtension>
            <ns3:hr>149</ns3:hr>
            <ns3:cad>82</ns3:cad>
          </ns3:TrackPointExtension>
        </extensions>
      </trkpt>
      <trkpt lat="47.51079373061656951904296875" lon="10.1444402150809764862060546875">
        <ele>1579.5999755859375</ele>
        <time>2026-09-01T08:19:33.000Z</time>
        <extensions>
          <ns3:TrackPointExtension>
            <ns3:hr>150</ns3:hr>
            <ns3:cad>82</ns3:cad>
          </ns3:TrackPointExtension>
        </extensions>
      </trkpt>
      <trkpt lat="47.5108016096055507659912109375" lon="10.14439352788031101226806640625">
        <ele>1579.800048828125</ele>
        <time>2026-09-01T08:19:34.000Z</time>
        <extensions>
          <ns3:TrackPointExtension>
            <ns3:hr>150</ns3:hr>
            <ns3:cad>82</ns3:cad>
          </ns3:TrackPointExtension>
        </extensions>
      </trkpt>
      <trkpt lat="47.51081560738384723663330078125" lon="10.14423209242522716522216796875">
        <ele>1578</ele>
        <time>2026-09-01T08:19:38.000Z</time>
        <extensions>
          <ns3:TrackPointExtension>
            <ns3:hr>152</ns3:hr>
            <ns3:cad>79</ns3:cad>
          </ns3:TrackPointExtension>
        </extensions>
      </trkpt>
      <trkpt lat="47.5108059681951999664306640625" lon="10.1441559009253978729248046875">
        <ele>1576.5999755859375</ele>
        <time>2026-09-01T08:19:40.000Z</time>
        <extensions>
          <ns3:TrackPointExtension>
            <ns3:hr>153</ns3:hr>
            <ns3:cad>79</ns3:cad>
          </ns3:TrackPointExtension>
        </extensions>
      </trkpt>
      <trkpt lat="47.510804124176502227783203125" lon="10.14404115267097949981689453125">
        <ele>1575</ele>
        <time>2026-09-01T08:19:42.000Z</time>
        <extensions>
          <ns3:TrackPointExtension>
            <ns3:hr>153</ns3:hr>
            <ns3:cad>85</ns3:cad>
          </ns3:TrackPointExtension>
        </extensions>
      </trkpt>
      <trkpt lat="47.51083103008568286895751953125" lon="10.14388809911906719207763671875">
        <ele>1574.5999755859375</ele>
        <time>2026-09-01T08:19:46.000Z</time>
        <extensions>
          <ns3:TrackPointExtension>
            <ns3:hr>154</ns3:hr>
            <ns3:cad>88</ns3:cad>
          </ns3:TrackPointExtension>
        </extensions>
      </trkpt>
      <trkpt lat="47.51083287410438060760498046875" lon="10.14379606582224369049072265625">
        <ele>1576.199951171875</ele>
        <time>2026-09-01T08:19:50.000Z</time>
        <extensions>
          <ns3:TrackPointExtension>
            <ns3:hr>154</ns3:hr>
            <ns3:cad>87</ns3:cad>
          </ns3:TrackPointExtension>
        </extensions>
      </trkpt>
      <trkpt lat="47.51084108836948871612548828125" lon="10.14374493621289730072021484375">
        <ele>1577</ele>
        <time>2026-09-01T08:19:52.000Z</time>
        <extensions>
          <ns3:TrackPointExtension>
            <ns3:hr>154</ns3:hr>
            <ns3:cad>87</ns3:cad>
          </ns3:TrackPointExtension>
        </extensions>
      </trkpt>
      <trkpt lat="47.5108468718826770782470703125" lon="10.14370453543961048126220703125">
        <ele>1577.199951171875</ele>
        <time>2026-09-01T08:19:53.000Z</time>
        <extensions>
          <ns3:TrackPointExtension>
            <ns3:hr>155</ns3:hr>
            <ns3:cad>87</ns3:cad>
          </ns3:TrackPointExtension>
        </extensions>
      </trkpt>
      <trkpt lat="47.5108606182038784027099609375" lon="10.14365659095346927642822265625">
        <ele>1578</ele>
        <time>2026-09-01T08:19:55.000Z</time>
        <extensions>
          <ns3:TrackPointExtension>
            <ns3:hr>156</ns3:hr>
            <ns3:cad>88</ns3:cad>
          </ns3:TrackPointExtension>
        </extensions>
      </trkpt>
      <trkpt lat="47.51087042503058910369873046875" lon="10.14363639056682586669921875">
        <ele>1578.4000244140625</ele>
        <time>2026-09-01T08:19:56.000Z</time>
        <extensions>
          <ns3:TrackPointExtension>
            <ns3:hr>156</ns3:hr>
            <ns3:cad>88</ns3:cad>
          </ns3:TrackPointExtension>
        </extensions>
      </trkpt>
      <trkpt lat="47.510894648730754852294921875" lon="10.1435887813568115234375">
        <ele>1579.5999755859375</ele>
        <time>2026-09-01T08:19:59.000Z</time>
        <extensions>
          <ns3:TrackPointExtension>
            <ns3:hr>157</ns3:hr>
            <ns3:cad>84</ns3:cad>
          </ns3:TrackPointExtension>
        </extensions>
      </trkpt>
      <trkpt lat="47.51091501675546169281005859375" lon="10.1435084827244281768798828125">
        <ele>1580.5999755859375</ele>
        <time>2026-09-01T08:20:02.000Z</time>
        <extensions>
          <ns3:TrackPointExtension>
            <ns3:hr>158</ns3:hr>
            <ns3:cad>84</ns3:cad>
          </ns3:TrackPointExtension>
        </extensions>
      </trkpt>
      <trkpt lat="47.51091954298317432403564453125" lon="10.14347839169204235076904296875">
        <ele>1580.800048828125</ele>
        <time>2026-09-01T08:20:03.000Z</time>
        <extensions>
          <ns3:TrackPointExtension>
            <ns3:hr>158</ns3:hr>
            <ns3:cad>84</ns3:cad>
          </ns3:TrackPointExtension>
        </extensions>
      </trkpt>
      <trkpt lat="47.51091753132641315460205078125" lon="10.14335014857351779937744140625">
        <ele>1581.5999755859375</ele>
        <time>2026-09-01T08:20:07.000Z</time>
        <extensions>
          <ns3:TrackPointExtension>
            <ns3:hr>159</ns3:hr>
            <ns3:cad>85</ns3:cad>
          </ns3:TrackPointExtension>
        </extensions>
      </trkpt>
      <trkpt lat="47.51091451384127140045166015625" lon="10.1433103345334529876708984375">
        <ele>1581.800048828125</ele>
        <time>2026-09-01T08:20:08.000Z</time>
        <extensions>
          <ns3:TrackPointExtension>
            <ns3:hr>160</ns3:hr>
            <ns3:cad>85</ns3:cad>
          </ns3:TrackPointExtension>
        </extensions>
      </trkpt>
      <trkpt lat="47.51088618300855159759521484375" lon="10.14315233565866947174072265625">
        <ele>1582.800048828125</ele>
        <time>2026-09-01T08:20:12.000Z</time>
        <extensions>
          <ns3:TrackPointExtension>
            <ns3:hr>159</ns3:hr>
            <ns3:cad>84</ns3:cad>
          </ns3:TrackPointExtension>
        </extensions>
      </trkpt>
      <trkpt lat="47.5108666531741619110107421875" lon="10.143024511635303497314453125">
        <ele>1583.4000244140625</ele>
        <time>2026-09-01T08:20:16.000Z</time>
        <extensions>
          <ns3:TrackPointExtension>
            <ns3:hr>158</ns3:hr>
            <ns3:cad>84</ns3:cad>
          </ns3:TrackPointExtension>
        </extensions>
      </trkpt>
      <trkpt lat="47.51086455769836902618408203125" lon="10.1429794169962406158447265625">
        <ele>1584</ele>
        <time>2026-09-01T08:20:18.000Z</time>
        <extensions>
          <ns3:TrackPointExtension>
            <ns3:hr>158</ns3:hr>
            <ns3:cad>84</ns3:cad>
          </ns3:TrackPointExtension>
        </extensions>
      </trkpt>
      <trkpt lat="47.51086455769836902618408203125" lon="10.14292887412011623382568359375">
        <ele>1585</ele>
        <time>2026-09-01T08:20:21.000Z</time>
        <extensions>
          <ns3:TrackPointExtension>
            <ns3:hr>157</ns3:hr>
            <ns3:cad>84</ns3:cad>
          </ns3:TrackPointExtension>
        </extensions>
      </trkpt>
      <trkpt lat="47.51087679527699947357177734375" lon="10.14291613362729549407958984375">
        <ele>1585.4000244140625</ele>
        <time>2026-09-01T08:20:22.000Z</time>
        <extensions>
          <ns3:TrackPointExtension>
            <ns3:hr>157</ns3:hr>
            <ns3:cad>61</ns3:cad>
          </ns3:TrackPointExtension>
        </extensions>
      </trkpt>
      <trkpt lat="47.51088383607566356658935546875" lon="10.142905153334140777587890625">
        <ele>1586.199951171875</ele>
        <time>2026-09-01T08:20:24.000Z</time>
        <extensions>
          <ns3:TrackPointExtension>
            <ns3:hr>157</ns3:hr>
            <ns3:cad>59</ns3:cad>
          </ns3:TrackPointExtension>
        </extensions>
      </trkpt>
      <trkpt lat="47.51088215969502925872802734375" lon="10.14287590049207210540771484375">
        <ele>1587.199951171875</ele>
        <time>2026-09-01T08:20:27.000Z</time>
        <extensions>
          <ns3:TrackPointExtension>
            <ns3:hr>156</ns3:hr>
            <ns3:cad>59</ns3:cad>
          </ns3:TrackPointExtension>
        </extensions>
      </trkpt>
      <trkpt lat="47.510883249342441558837890625" lon="10.14286265708506107330322265625">
        <ele>1587.5999755859375</ele>
        <time>2026-09-01T08:20:28.000Z</time>
        <extensions>
          <ns3:TrackPointExtension>
            <ns3:hr>156</ns3:hr>
            <ns3:cad>59</ns3:cad>
          </ns3:TrackPointExtension>
        </extensions>
      </trkpt>
      <trkpt lat="47.5108807347714900970458984375" lon="10.1428342424333095550537109375">
        <ele>1588.4000244140625</ele>
        <time>2026-09-01T08:20:30.000Z</time>
        <extensions>
          <ns3:TrackPointExtension>
            <ns3:hr>157</ns3:hr>
            <ns3:cad>57</ns3:cad>
          </ns3:TrackPointExtension>
        </extensions>
      </trkpt>
      <trkpt lat="47.510876543819904327392578125" lon="10.14280146919190883636474609375">
        <ele>1589.4000244140625</ele>
        <time>2026-09-01T08:20:33.000Z</time>
        <extensions>
          <ns3:TrackPointExtension>
            <ns3:hr>156</ns3:hr>
            <ns3:cad>57</ns3:cad>
          </ns3:TrackPointExtension>
        </extensions>
      </trkpt>
      <trkpt lat="47.5108576007187366485595703125" lon="10.14277816750109195709228515625">
        <ele>1590.4000244140625</ele>
        <time>2026-09-01T08:20:36.000Z</time>
        <extensions>
          <ns3:TrackPointExtension>
            <ns3:hr>158</ns3:hr>
            <ns3:cad>0</ns3:cad>
          </ns3:TrackPointExtension>
        </extensions>
      </trkpt>
      <trkpt lat="47.51083605922758579254150390625" lon="10.1427236013114452362060546875">
        <ele>1591.5999755859375</ele>
        <time>2026-09-01T08:20:39.000Z</time>
        <extensions>
          <ns3:TrackPointExtension>
            <ns3:hr>158</ns3:hr>
            <ns3:cad>0</ns3:cad>
          </ns3:TrackPointExtension>
        </extensions>
      </trkpt>
      <trkpt lat="47.5108415074646472930908203125" lon="10.14266735874116420745849609375">
        <ele>1592.800048828125</ele>
        <time>2026-09-01T08:20:43.000Z</time>
        <extensions>
          <ns3:TrackPointExtension>
            <ns3:hr>160</ns3:hr>
            <ns3:cad>0</ns3:cad>
          </ns3:TrackPointExtension>
        </extensions>
      </trkpt>
      <trkpt lat="47.510838322341442108154296875" lon="10.14262813143432140350341796875">
        <ele>1594.199951171875</ele>
        <time>2026-09-01T08:20:46.000Z</time>
        <extensions>
          <ns3:TrackPointExtension>
            <ns3:hr>161</ns3:hr>
            <ns3:cad>0</ns3:cad>
          </ns3:TrackPointExtension>
        </extensions>
      </trkpt>
      <trkpt lat="47.51083706505596637725830078125" lon="10.14261304400861263275146484375">
        <ele>1594.5999755859375</ele>
        <time>2026-09-01T08:20:48.000Z</time>
        <extensions>
          <ns3:TrackPointExtension>
            <ns3:hr>160</ns3:hr>
            <ns3:cad>0</ns3:cad>
          </ns3:TrackPointExtension>
        </extensions>
      </trkpt>
      <trkpt lat="47.5108237378299236297607421875" lon="10.1425918377935886383056640625">
        <ele>1595.199951171875</ele>
        <time>2026-09-01T08:20:50.000Z</time>
        <extensions>
          <ns3:TrackPointExtension>
            <ns3:hr>161</ns3:hr>
            <ns3:cad>0</ns3:cad>
          </ns3:TrackPointExtension>
        </extensions>
      </trkpt>
      <trkpt lat="47.510813511908054351806640625" lon="10.1425599865615367889404296875">
        <ele>1595.5999755859375</ele>
        <time>2026-09-01T08:20:53.000Z</time>
        <extensions>
          <ns3:TrackPointExtension>
            <ns3:hr>161</ns3:hr>
            <ns3:cad>0</ns3:cad>
          </ns3:TrackPointExtension>
        </extensions>
      </trkpt>
      <trkpt lat="47.5108166970312595367431640625" lon="10.14253308065235614776611328125">
        <ele>1595.800048828125</ele>
        <time>2026-09-01T08:20:57.000Z</time>
        <extensions>
          <ns3:TrackPointExtension>
            <ns3:hr>159</ns3:hr>
            <ns3:cad>0</ns3:cad>
          </ns3:TrackPointExtension>
        </extensions>
      </trkpt>
      <trkpt lat="47.51082600094377994537353515625" lon="10.1425291411578655242919921875">
        <ele>1596</ele>
        <time>2026-09-01T08:20:58.000Z</time>
        <extensions>
          <ns3:TrackPointExtension>
            <ns3:hr>160</ns3:hr>
            <ns3:cad>0</ns3:cad>
          </ns3:TrackPointExtension>
        </extensions>
      </trkpt>
      <trkpt lat="47.510824911296367645263671875" lon="10.14252888970077037811279296875">
        <ele>1596.4000244140625</ele>
        <time>2026-09-01T08:20:59.000Z</time>
        <extensions>
          <ns3:TrackPointExtension>
            <ns3:hr>159</ns3:hr>
            <ns3:cad>0</ns3:cad>
          </ns3:TrackPointExtension>
        </extensions>
      </trkpt>
      <trkpt lat="47.51082281582057476043701171875" lon="10.14250609092414379119873046875">
        <ele>1597.199951171875</ele>
        <time>2026-09-01T08:21:01.000Z</time>
        <extensions>
          <ns3:TrackPointExtension>
            <ns3:hr>159</ns3:hr>
            <ns3:cad>0</ns3:cad>
          </ns3:TrackPointExtension>
        </extensions>
      </trkpt>
      <trkpt lat="47.5108180381357669830322265625" lon="10.142491757869720458984375">
        <ele>1597.5999755859375</ele>
        <time>2026-09-01T08:21:02.000Z</time>
        <extensions>
          <ns3:TrackPointExtension>
            <ns3:hr>160</ns3:hr>
            <ns3:cad>0</ns3:cad>
          </ns3:TrackPointExtension>
        </extensions>
      </trkpt>
      <trkpt lat="47.510802447795867919921875" lon="10.142416656017303466796875">
        <ele>1598.800048828125</ele>
        <time>2026-09-01T08:21:06.000Z</time>
        <extensions>
          <ns3:TrackPointExtension>
            <ns3:hr>159</ns3:hr>
            <ns3:cad>51</ns3:cad>
          </ns3:TrackPointExtension>
        </extensions>
      </trkpt>
      <trkpt lat="47.510795406997203826904296875" lon="10.14235907234251499176025390625">
        <ele>1600</ele>
        <time>2026-09-01T08:21:10.000Z</time>
        <extensions>
          <ns3:TrackPointExtension>
            <ns3:hr>159</ns3:hr>
            <ns3:cad>52</ns3:cad>
          </ns3:TrackPointExtension>
        </extensions>
      </trkpt>
      <trkpt lat="47.510782666504383087158203125" lon="10.14232319779694080352783203125">
        <ele>1601.199951171875</ele>
        <time>2026-09-01T08:21:13.000Z</time>
        <extensions>
          <ns3:TrackPointExtension>
            <ns3:hr>159</ns3:hr>
            <ns3:cad>52</ns3:cad>
          </ns3:TrackPointExtension>
        </extensions>
      </trkpt>
      <trkpt lat="47.510763891041278839111328125" lon="10.1422900892794132232666015625">
        <ele>1602.199951171875</ele>
        <time>2026-09-01T08:21:16.000Z</time>
        <extensions>
          <ns3:TrackPointExtension>
            <ns3:hr>160</ns3:hr>
            <ns3:cad>52</ns3:cad>
          </ns3:TrackPointExtension>
        </extensions>
      </trkpt>
      <trkpt lat="47.510755844414234161376953125" lon="10.14227139763534069061279296875">
        <ele>1602.4000244140625</ele>
        <time>2026-09-01T08:21:17.000Z</time>
        <extensions>
          <ns3:TrackPointExtension>
            <ns3:hr>160</ns3:hr>
            <ns3:cad>50</ns3:cad>
          </ns3:TrackPointExtension>
        </extensions>
      </trkpt>
      <trkpt lat="47.5107405893504619598388671875" lon="10.1422143168747425079345703125">
        <ele>1603.4000244140625</ele>
        <time>2026-09-01T08:21:20.000Z</time>
        <extensions>
          <ns3:TrackPointExtension>
            <ns3:hr>160</ns3:hr>
            <ns3:cad>48</ns3:cad>
          </ns3:TrackPointExtension>
        </extensions>
      </trkpt>
      <trkpt lat="47.510729692876338958740234375" lon="10.142148099839687347412109375">
        <ele>1604.4000244140625</ele>
        <time>2026-09-01T08:21:24.000Z</time>
        <extensions>
          <ns3:TrackPointExtension>
            <ns3:hr>161</ns3:hr>
            <ns3:cad>51</ns3:cad>
          </ns3:TrackPointExtension>
        </extensions>
      </trkpt>
      <trkpt lat="47.51072323881089687347412109375" lon="10.142099820077419281005859375">
        <ele>1605.5999755859375</ele>
        <time>2026-09-01T08:21:28.000Z</time>
        <extensions>
          <ns3:TrackPointExtension>
            <ns3:hr>161</ns3:hr>
            <ns3:cad>51</ns3:cad>
          </ns3:TrackPointExtension>
        </extensions>
      </trkpt>
      <trkpt lat="47.51072399318218231201171875" lon="10.14208196662366390228271484375">
        <ele>1606.4000244140625</ele>
        <time>2026-09-01T08:21:30.000Z</time>
        <extensions>
          <ns3:TrackPointExtension>
            <ns3:hr>161</ns3:hr>
            <ns3:cad>47</ns3:cad>
          </ns3:TrackPointExtension>
        </extensions>
      </trkpt>
      <trkpt lat="47.51072038896381855010986328125" lon="10.14207391999661922454833984375">
        <ele>1606.800048828125</ele>
        <time>2026-09-01T08:21:31.000Z</time>
        <extensions>
          <ns3:TrackPointExtension>
            <ns3:hr>161</ns3:hr>
            <ns3:cad>46</ns3:cad>
          </ns3:TrackPointExtension>
        </extensions>
      </trkpt>
      <trkpt lat="47.51070119440555572509765625" lon="10.1420460082590579986572265625">
        <ele>1608.199951171875</ele>
        <time>2026-09-01T08:21:34.000Z</time>
        <extensions>
          <ns3:TrackPointExtension>
            <ns3:hr>160</ns3:hr>
            <ns3:cad>45</ns3:cad>
          </ns3:TrackPointExtension>
        </extensions>
      </trkpt>
      <trkpt lat="47.510695494711399078369140625" lon="10.14203846454620361328125">
        <ele>1608.5999755859375</ele>
        <time>2026-09-01T08:21:35.000Z</time>
        <extensions>
          <ns3:TrackPointExtension>
            <ns3:hr>161</ns3:hr>
            <ns3:cad>45</ns3:cad>
          </ns3:TrackPointExtension>
        </extensions>
      </trkpt>
      <trkpt lat="47.510689459741115570068359375" lon="10.14202161692082881927490234375">
        <ele>1609.199951171875</ele>
        <time>2026-09-01T08:21:37.000Z</time>
        <extensions>
          <ns3:TrackPointExtension>
            <ns3:hr>161</ns3:hr>
            <ns3:cad>45</ns3:cad>
          </ns3:TrackPointExtension>
        </extensions>
      </trkpt>
      <trkpt lat="47.51067998819053173065185546875" lon="10.1420101337134838104248046875">
        <ele>1610.199951171875</ele>
        <time>2026-09-01T08:21:41.000Z</time>
        <extensions>
          <ns3:TrackPointExtension>
            <ns3:hr>161</ns3:hr>
            <ns3:cad>45</ns3:cad>
          </ns3:TrackPointExtension>
        </extensions>
      </trkpt>
      <trkpt lat="47.510670684278011322021484375" lon="10.14199110679328441619873046875">
        <ele>1611.199951171875</ele>
        <time>2026-09-01T08:21:44.000Z</time>
        <extensions>
          <ns3:TrackPointExtension>
            <ns3:hr>162</ns3:hr>
            <ns3:cad>0</ns3:cad>
          </ns3:TrackPointExtension>
        </extensions>
      </trkpt>
      <trkpt lat="47.5106617994606494903564453125" lon="10.14196939766407012939453125">
        <ele>1611.800048828125</ele>
        <time>2026-09-01T08:21:46.000Z</time>
        <extensions>
          <ns3:TrackPointExtension>
            <ns3:hr>162</ns3:hr>
            <ns3:cad>47</ns3:cad>
          </ns3:TrackPointExtension>
        </extensions>
      </trkpt>
      <trkpt lat="47.51065584830939769744873046875" lon="10.141943581402301788330078125">
        <ele>1612.5999755859375</ele>
        <time>2026-09-01T08:21:48.000Z</time>
        <extensions>
          <ns3:TrackPointExtension>
            <ns3:hr>162</ns3:hr>
            <ns3:cad>47</ns3:cad>
          </ns3:TrackPointExtension>
        </extensions>
      </trkpt>
      <trkpt lat="47.510637156665325164794921875" lon="10.14194416813552379608154296875">
        <ele>1613.800048828125</ele>
        <time>2026-09-01T08:21:51.000Z</time>
        <extensions>
          <ns3:TrackPointExtension>
            <ns3:hr>163</ns3:hr>
            <ns3:cad>0</ns3:cad>
          </ns3:TrackPointExtension>
        </extensions>
      </trkpt>
      <trkpt lat="47.5106242485344409942626953125" lon="10.14194064773619174957275390625">
        <ele>1614.5999755859375</ele>
        <time>2026-09-01T08:21:53.000Z</time>
        <extensions>
          <ns3:TrackPointExtension>
            <ns3:hr>163</ns3:hr>
            <ns3:cad>0</ns3:cad>
          </ns3:TrackPointExtension>
        </extensions>
      </trkpt>
      <trkpt lat="47.510615698993206024169921875" lon="10.14193159528076648712158203125">
        <ele>1614.800048828125</ele>
        <time>2026-09-01T08:21:54.000Z</time>
        <extensions>
          <ns3:TrackPointExtension>
            <ns3:hr>163</ns3:hr>
            <ns3:cad>0</ns3:cad>
          </ns3:TrackPointExtension>
        </extensions>
      </trkpt>
      <trkpt lat="47.51060404814779758453369140625" lon="10.14189840294420719146728515625">
        <ele>1616</ele>
        <time>2026-09-01T08:21:58.000Z</time>
        <extensions>
          <ns3:TrackPointExtension>
            <ns3:hr>163</ns3:hr>
            <ns3:cad>0</ns3:cad>
          </ns3:TrackPointExtension>
        </extensions>
      </trkpt>
      <trkpt lat="47.51060865819454193115234375" lon="10.1418840698897838592529296875">
        <ele>1616.4000244140625</ele>
        <time>2026-09-01T08:21:59.000Z</time>
        <extensions>
          <ns3:TrackPointExtension>
            <ns3:hr>162</ns3:hr>
            <ns3:cad>0</ns3:cad>
          </ns3:TrackPointExtension>
        </extensions>
      </trkpt>
      <trkpt lat="47.51060740090906620025634765625" lon="10.1418559066951274871826171875">
        <ele>1617.199951171875</ele>
        <time>2026-09-01T08:22:01.000Z</time>
        <extensions>
          <ns3:TrackPointExtension>
            <ns3:hr>162</ns3:hr>
            <ns3:cad>47</ns3:cad>
          </ns3:TrackPointExtension>
        </extensions>
      </trkpt>
      <trkpt lat="47.51060421578586101531982421875" lon="10.1417985744774341583251953125">
        <ele>1618.4000244140625</ele>
        <time>2026-09-01T08:22:05.000Z</time>
        <extensions>
          <ns3:TrackPointExtension>
            <ns3:hr>162</ns3:hr>
            <ns3:cad>47</ns3:cad>
          </ns3:TrackPointExtension>
        </extensions>
      </trkpt>
      <trkpt lat="47.5106101669371128082275390625" lon="10.14178675599396228790283203125">
        <ele>1619.4000244140625</ele>
        <time>2026-09-01T08:22:08.000Z</time>
        <extensions>
          <ns3:TrackPointExtension>
            <ns3:hr>161</ns3:hr>
            <ns3:cad>0</ns3:cad>
          </ns3:TrackPointExtension>
        </extensions>
      </trkpt>
      <trkpt lat="47.51062315888702869415283203125" lon="10.14177217148244380950927734375">
        <ele>1620.199951171875</ele>
        <time>2026-09-01T08:22:11.000Z</time>
        <extensions>
          <ns3:TrackPointExtension>
            <ns3:hr>161</ns3:hr>
            <ns3:cad>0</ns3:cad>
          </ns3:TrackPointExtension>
        </extensions>
      </trkpt>
      <trkpt lat="47.51062399707734584808349609375" lon="10.14175909571349620819091796875">
        <ele>1621</ele>
        <time>2026-09-01T08:22:13.000Z</time>
        <extensions>
          <ns3:TrackPointExtension>
            <ns3:hr>162</ns3:hr>
            <ns3:cad>0</ns3:cad>
          </ns3:TrackPointExtension>
        </extensions>
      </trkpt>
      <trkpt lat="47.5106242485344409942626953125" lon="10.14172665774822235107421875">
        <ele>1622.199951171875</ele>
        <time>2026-09-01T08:22:16.000Z</time>
        <extensions>
          <ns3:TrackPointExtension>
            <ns3:hr>162</ns3:hr>
            <ns3:cad>77</ns3:cad>
          </ns3:TrackPointExtension>
        </extensions>
      </trkpt>
      <trkpt lat="47.5106265954673290252685546875" lon="10.1417072117328643798828125">
        <ele>1622.800048828125</ele>
        <time>2026-09-01T08:22:18.000Z</time>
        <extensions>
          <ns3:TrackPointExtension>
            <ns3:hr>161</ns3:hr>
            <ns3:cad>77</ns3:cad>
          </ns3:TrackPointExtension>
        </extensions>
      </trkpt>
      <trkpt lat="47.51063338480889797210693359375" lon="10.14168852008879184722900390625">
        <ele>1623.4000244140625</ele>
        <time>2026-09-01T08:22:20.000Z</time>
        <extensions>
          <ns3:TrackPointExtension>
            <ns3:hr>162</ns3:hr>
            <ns3:cad>47</ns3:cad>
          </ns3:TrackPointExtension>
        </extensions>
      </trkpt>
      <trkpt lat="47.51063070259988307952880859375" lon="10.1416728459298610687255859375">
        <ele>1623.800048828125</ele>
        <time>2026-09-01T08:22:21.000Z</time>
        <extensions>
          <ns3:TrackPointExtension>
            <ns3:hr>162</ns3:hr>
            <ns3:cad>45</ns3:cad>
          </ns3:TrackPointExtension>
        </extensions>
      </trkpt>
      <trkpt lat="47.51062148250639438629150390625" lon="10.141625069081783294677734375">
        <ele>1624.5999755859375</ele>
        <time>2026-09-01T08:22:24.000Z</time>
        <extensions>
          <ns3:TrackPointExtension>
            <ns3:hr>162</ns3:hr>
            <ns3:cad>45</ns3:cad>
          </ns3:TrackPointExtension>
        </extensions>
      </trkpt>
      <trkpt lat="47.5106064788997173309326171875" lon="10.1415276713669300079345703125">
        <ele>1625.800048828125</ele>
        <time>2026-09-01T08:22:29.000Z</time>
        <extensions>
          <ns3:TrackPointExtension>
            <ns3:hr>162</ns3:hr>
            <ns3:cad>53</ns3:cad>
          </ns3:TrackPointExtension>
        </extensions>
      </trkpt>
      <trkpt lat="47.510607652366161346435546875" lon="10.1414926350116729736328125">
        <ele>1627</ele>
        <time>2026-09-01T08:22:32.000Z</time>
        <extensions>
          <ns3:TrackPointExtension>
            <ns3:hr>161</ns3:hr>
            <ns3:cad>55</ns3:cad>
          </ns3:TrackPointExtension>
        </extensions>
      </trkpt>
      <trkpt lat="47.51061276532709598541259765625" lon="10.14148266054689884185791015625">
        <ele>1628.4000244140625</ele>
        <time>2026-09-01T08:22:35.000Z</time>
        <extensions>
          <ns3:TrackPointExtension>
            <ns3:hr>161</ns3:hr>
            <ns3:cad>53</ns3:cad>
          </ns3:TrackPointExtension>
        </extensions>
      </trkpt>
      <trkpt lat="47.51061226241290569305419921875" lon="10.14145516790449619293212890625">
        <ele>1629.4000244140625</ele>
        <time>2026-09-01T08:22:38.000Z</time>
        <extensions>
          <ns3:TrackPointExtension>
            <ns3:hr>161</ns3:hr>
            <ns3:cad>53</ns3:cad>
          </ns3:TrackPointExtension>
        </extensions>
      </trkpt>
      <trkpt lat="47.5106162019073963165283203125" lon="10.141449384391307830810546875">
        <ele>1629.5999755859375</ele>
        <time>2026-09-01T08:22:39.000Z</time>
        <extensions>
          <ns3:TrackPointExtension>
            <ns3:hr>160</ns3:hr>
            <ns3:cad>53</ns3:cad>
          </ns3:TrackPointExtension>
        </extensions>
      </trkpt>
      <trkpt lat="47.5106333009898662567138671875" lon="10.14144628308713436126708984375">
        <ele>1630.4000244140625</ele>
        <time>2026-09-01T08:22:41.000Z</time>
        <extensions>
          <ns3:TrackPointExtension>
            <ns3:hr>160</ns3:hr>
            <ns3:cad>0</ns3:cad>
          </ns3:TrackPointExtension>
        </extensions>
      </trkpt>
      <trkpt lat="47.51064143143594264984130859375" lon="10.14142348431050777435302734375">
        <ele>1631.5999755859375</ele>
        <time>2026-09-01T08:22:44.000Z</time>
        <extensions>
          <ns3:TrackPointExtension>
            <ns3:hr>161</ns3:hr>
            <ns3:cad>45</ns3:cad>
          </ns3:TrackPointExtension>
        </extensions>
      </trkpt>
      <trkpt lat="47.510643862187862396240234375" lon="10.1414076425135135650634765625">
        <ele>1632</ele>
        <time>2026-09-01T08:22:45.000Z</time>
        <extensions>
          <ns3:TrackPointExtension>
            <ns3:hr>161</ns3:hr>
            <ns3:cad>45</ns3:cad>
          </ns3:TrackPointExtension>
        </extensions>
      </trkpt>
      <trkpt lat="47.510639168322086334228515625" lon="10.14140135608613491058349609375">
        <ele>1632.800048828125</ele>
        <time>2026-09-01T08:22:47.000Z</time>
        <extensions>
          <ns3:TrackPointExtension>
            <ns3:hr>162</ns3:hr>
            <ns3:cad>0</ns3:cad>
          </ns3:TrackPointExtension>
        </extensions>
      </trkpt>
      <trkpt lat="47.5106195546686649322509765625" lon="10.1413727737963199615478515625">
        <ele>1633.800048828125</ele>
        <time>2026-09-01T08:22:51.000Z</time>
        <extensions>
          <ns3:TrackPointExtension>
            <ns3:hr>162</ns3:hr>
            <ns3:cad>0</ns3:cad>
          </ns3:TrackPointExtension>
        </extensions>
      </trkpt>
      <trkpt lat="47.51061268150806427001953125" lon="10.14133648015558719635009765625">
        <ele>1635.199951171875</ele>
        <time>2026-09-01T08:22:55.000Z</time>
        <extensions>
          <ns3:TrackPointExtension>
            <ns3:hr>162</ns3:hr>
            <ns3:cad>48</ns3:cad>
          </ns3:TrackPointExtension>
        </extensions>
      </trkpt>
      <trkpt lat="47.51061025075614452362060546875" lon="10.14131619594991207122802734375">
        <ele>1636.199951171875</ele>
        <time>2026-09-01T08:22:58.000Z</time>
        <extensions>
          <ns3:TrackPointExtension>
            <ns3:hr>163</ns3:hr>
            <ns3:cad>0</ns3:cad>
          </ns3:TrackPointExtension>
        </extensions>
      </trkpt>
      <trkpt lat="47.5106081552803516387939453125" lon="10.14128275215625762939453125">
        <ele>1637.4000244140625</ele>
        <time>2026-09-01T08:23:02.000Z</time>
        <extensions>
          <ns3:TrackPointExtension>
            <ns3:hr>162</ns3:hr>
            <ns3:cad>0</ns3:cad>
          </ns3:TrackPointExtension>
        </extensions>
      </trkpt>
      <trkpt lat="47.510610334575176239013671875" lon="10.14125668443739414215087890625">
        <ele>1638</ele>
        <time>2026-09-01T08:23:04.000Z</time>
        <extensions>
          <ns3:TrackPointExtension>
            <ns3:hr>161</ns3:hr>
            <ns3:cad>0</ns3:cad>
          </ns3:TrackPointExtension>
        </extensions>
      </trkpt>
      <trkpt lat="47.5106125138700008392333984375" lon="10.14124327339231967926025390625">
        <ele>1638.4000244140625</ele>
        <time>2026-09-01T08:23:05.000Z</time>
        <extensions>
          <ns3:TrackPointExtension>
            <ns3:hr>161</ns3:hr>
            <ns3:cad>0</ns3:cad>
          </ns3:TrackPointExtension>
        </extensions>
      </trkpt>
      <trkpt lat="47.51061008311808109283447265625" lon="10.14118124730885028839111328125">
        <ele>1639.5999755859375</ele>
        <time>2026-09-01T08:23:10.000Z</time>
        <extensions>
          <ns3:TrackPointExtension>
            <ns3:hr>161</ns3:hr>
            <ns3:cad>49</ns3:cad>
          </ns3:TrackPointExtension>
        </extensions>
      </trkpt>
      <trkpt lat="47.51060170121490955352783203125" lon="10.141165740787982940673828125">
        <ele>1640</ele>
        <time>2026-09-01T08:23:11.000Z</time>
        <extensions>
          <ns3:TrackPointExtension>
            <ns3:hr>162</ns3:hr>
            <ns3:cad>49</ns3:cad>
          </ns3:TrackPointExtension>
        </extensions>
      </trkpt>
      <trkpt lat="47.51056373119354248046875" lon="10.14101813547313213348388671875">
        <ele>1640.5999755859375</ele>
        <time>2026-09-01T08:23:16.000Z</time>
        <extensions>
          <ns3:TrackPointExtension>
            <ns3:hr>162</ns3:hr>
            <ns3:cad>49</ns3:cad>
          </ns3:TrackPointExtension>
        </extensions>
      </trkpt>
      <trkpt lat="47.51054336316883563995361328125" lon="10.14097941108047962188720703125">
        <ele>1640.800048828125</ele>
        <time>2026-09-01T08:23:17.000Z</time>
        <extensions>
          <ns3:TrackPointExtension>
            <ns3:hr>162</ns3:hr>
            <ns3:cad>83</ns3:cad>
          </ns3:TrackPointExtension>
        </extensions>
      </trkpt>
      <trkpt lat="47.51053581945598125457763671875" lon="10.140936076641082763671875">
        <ele>1641.4000244140625</ele>
        <time>2026-09-01T08:23:20.000Z</time>
        <extensions>
          <ns3:TrackPointExtension>
            <ns3:hr>162</ns3:hr>
            <ns3:cad>83</ns3:cad>
          </ns3:TrackPointExtension>
        </extensions>
      </trkpt>
      <trkpt lat="47.5105266831815242767333984375" lon="10.140918977558612823486328125">
        <ele>1641.800048828125</ele>
        <time>2026-09-01T08:23:22.000Z</time>
        <extensions>
          <ns3:TrackPointExtension>
            <ns3:hr>161</ns3:hr>
            <ns3:cad>83</ns3:cad>
          </ns3:TrackPointExtension>
        </extensions>
      </trkpt>
      <trkpt lat="47.51052760519087314605712890625" lon="10.14089173637330532073974609375">
        <ele>1642.800048828125</ele>
        <time>2026-09-01T08:23:25.000Z</time>
        <extensions>
          <ns3:TrackPointExtension>
            <ns3:hr>161</ns3:hr>
            <ns3:cad>83</ns3:cad>
          </ns3:TrackPointExtension>
        </extensions>
      </trkpt>
      <trkpt lat="47.51052978448569774627685546875" lon="10.140880756080150604248046875">
        <ele>1643.199951171875</ele>
        <time>2026-09-01T08:23:26.000Z</time>
        <extensions>
          <ns3:TrackPointExtension>
            <ns3:hr>161</ns3:hr>
            <ns3:cad>83</ns3:cad>
          </ns3:TrackPointExtension>
        </extensions>
      </trkpt>
      <trkpt lat="47.51051603816449642181396484375" lon="10.14084714464843273162841796875">
        <ele>1644</ele>
        <time>2026-09-01T08:23:29.000Z</time>
        <extensions>
          <ns3:TrackPointExtension>
            <ns3:hr>161</ns3:hr>
            <ns3:cad>61</ns3:cad>
          </ns3:TrackPointExtension>
        </extensions>
      </trkpt>
      <trkpt lat="47.51050832681357860565185546875" lon="10.14083348214626312255859375">
        <ele>1644.4000244140625</ele>
        <time>2026-09-01T08:23:30.000Z</time>
        <extensions>
          <ns3:TrackPointExtension>
            <ns3:hr>160</ns3:hr>
            <ns3:cad>61</ns3:cad>
          </ns3:TrackPointExtension>
        </extensions>
      </trkpt>
      <trkpt lat="47.510507069528102874755859375" lon="10.1408168859779834747314453125">
        <ele>1644.800048828125</ele>
        <time>2026-09-01T08:23:31.000Z</time>
        <extensions>
          <ns3:TrackPointExtension>
            <ns3:hr>160</ns3:hr>
            <ns3:cad>61</ns3:cad>
          </ns3:TrackPointExtension>
        </extensions>
      </trkpt>
      <trkpt lat="47.51050950028002262115478515625" lon="10.1407635770738124847412109375">
        <ele>1645.4000244140625</ele>
        <time>2026-09-01T08:23:34.000Z</time>
        <extensions>
          <ns3:TrackPointExtension>
            <ns3:hr>159</ns3:hr>
            <ns3:cad>58</ns3:cad>
          </ns3:TrackPointExtension>
        </extensions>
      </trkpt>
      <trkpt lat="47.5105072371661663055419921875" lon="10.14070766977965831756591796875">
        <ele>1646.199951171875</ele>
        <time>2026-09-01T08:23:37.000Z</time>
        <extensions>
          <ns3:TrackPointExtension>
            <ns3:hr>158</ns3:hr>
            <ns3:cad>56</ns3:cad>
          </ns3:TrackPointExtension>
        </extensions>
      </trkpt>
      <trkpt lat="47.51050514169037342071533203125" lon="10.14068772085011005401611328125">
        <ele>1646.4000244140625</ele>
        <time>2026-09-01T08:23:38.000Z</time>
        <extensions>
          <ns3:TrackPointExtension>
            <ns3:hr>158</ns3:hr>
            <ns3:cad>59</ns3:cad>
          </ns3:TrackPointExtension>
        </extensions>
      </trkpt>
      <trkpt lat="47.51050673425197601318359375" lon="10.140621922910213470458984375">
        <ele>1647.4000244140625</ele>
        <time>2026-09-01T08:23:42.000Z</time>
        <extensions>
          <ns3:TrackPointExtension>
            <ns3:hr>158</ns3:hr>
            <ns3:cad>58</ns3:cad>
          </ns3:TrackPointExtension>
        </extensions>
      </trkpt>
      <trkpt lat="47.5105079077184200286865234375" lon="10.14059987850487232208251953125">
        <ele>1648</ele>
        <time>2026-09-01T08:23:44.000Z</time>
        <extensions>
          <ns3:TrackPointExtension>
            <ns3:hr>157</ns3:hr>
            <ns3:cad>56</ns3:cad>
          </ns3:TrackPointExtension>
        </extensions>
      </trkpt>
      <trkpt lat="47.51050380058586597442626953125" lon="10.1405634172260761260986328125">
        <ele>1648.5999755859375</ele>
        <time>2026-09-01T08:23:46.000Z</time>
        <extensions>
          <ns3:TrackPointExtension>
            <ns3:hr>157</ns3:hr>
            <ns3:cad>55</ns3:cad>
          </ns3:TrackPointExtension>
        </extensions>
      </trkpt>
      <trkpt lat="47.5105001963675022125244140625" lon="10.14050197787582874298095703125">
        <ele>1649.800048828125</ele>
        <time>2026-09-01T08:23:50.000Z</time>
        <extensions>
          <ns3:TrackPointExtension>
            <ns3:hr>159</ns3:hr>
            <ns3:cad>52</ns3:cad>
          </ns3:TrackPointExtension>
        </extensions>
      </trkpt>
      <trkpt lat="47.51050136983394622802734375" lon="10.1404913328588008880615234375">
        <ele>1650.199951171875</ele>
        <time>2026-09-01T08:23:51.000Z</time>
        <extensions>
          <ns3:TrackPointExtension>
            <ns3:hr>159</ns3:hr>
            <ns3:cad>52</ns3:cad>
          </ns3:TrackPointExtension>
        </extensions>
      </trkpt>
      <trkpt lat="47.5104955025017261505126953125" lon="10.1404500938951969146728515625">
        <ele>1651</ele>
        <time>2026-09-01T08:23:54.000Z</time>
        <extensions>
          <ns3:TrackPointExtension>
            <ns3:hr>160</ns3:hr>
            <ns3:cad>51</ns3:cad>
          </ns3:TrackPointExtension>
        </extensions>
      </trkpt>
      <trkpt lat="47.51046574674546718597412109375" lon="10.14036149717867374420166015625">
        <ele>1652.199951171875</ele>
        <time>2026-09-01T08:23:58.000Z</time>
        <extensions>
          <ns3:TrackPointExtension>
            <ns3:hr>160</ns3:hr>
            <ns3:cad>50</ns3:cad>
          </ns3:TrackPointExtension>
        </extensions>
      </trkpt>
      <trkpt lat="47.5104224123060703277587890625" lon="10.1402063481509685516357421875">
        <ele>1652.800048828125</ele>
        <time>2026-09-01T08:24:03.000Z</time>
        <extensions>
          <ns3:TrackPointExtension>
            <ns3:hr>161</ns3:hr>
            <ns3:cad>83</ns3:cad>
          </ns3:TrackPointExtension>
        </extensions>
      </trkpt>
      <trkpt lat="47.5104136951267719268798828125" lon="10.14014205895364284515380859375">
        <ele>1653.199951171875</ele>
        <time>2026-09-01T08:24:05.000Z</time>
        <extensions>
          <ns3:TrackPointExtension>
            <ns3:hr>161</ns3:hr>
            <ns3:cad>84</ns3:cad>
          </ns3:TrackPointExtension>
        </extensions>
      </trkpt>
      <trkpt lat="47.510405480861663818359375" lon="10.14005740173161029815673828125">
        <ele>1654</ele>
        <time>2026-09-01T08:24:08.000Z</time>
        <extensions>
          <ns3:TrackPointExtension>
            <ns3:hr>159</ns3:hr>
            <ns3:cad>85</ns3:cad>
          </ns3:TrackPointExtension>
        </extensions>
      </trkpt>
      <trkpt lat="47.5104053132236003875732421875" lon="10.1400363631546497344970703125">
        <ele>1654.4000244140625</ele>
        <time>2026-09-01T08:24:09.000Z</time>
        <extensions>
          <ns3:TrackPointExtension>
            <ns3:hr>159</ns3:hr>
            <ns3:cad>85</ns3:cad>
          </ns3:TrackPointExtension>
        </extensions>
      </trkpt>
      <trkpt lat="47.5104016251862049102783203125" lon="10.13992228545248508453369140625">
        <ele>1655.4000244140625</ele>
        <time>2026-09-01T08:24:13.000Z</time>
        <extensions>
          <ns3:TrackPointExtension>
            <ns3:hr>159</ns3:hr>
            <ns3:cad>87</ns3:cad>
          </ns3:TrackPointExtension>
        </extensions>
      </trkpt>
      <trkpt lat="47.5103952549397945404052734375" lon="10.13989730738103389739990234375">
        <ele>1655.4000244140625</ele>
        <time>2026-09-01T08:24:14.000Z</time>
        <extensions>
          <ns3:TrackPointExtension>
            <ns3:hr>159</ns3:hr>
            <ns3:cad>86</ns3:cad>
          </ns3:TrackPointExtension>
        </extensions>
      </trkpt>
      <trkpt lat="47.5103553570806980133056640625" lon="10.1396829821169376373291015625">
        <ele>1654.199951171875</ele>
        <time>2026-09-01T08:24:19.000Z</time>
        <extensions>
          <ns3:TrackPointExtension>
            <ns3:hr>160</ns3:hr>
            <ns3:cad>85</ns3:cad>
          </ns3:TrackPointExtension>
        </extensions>
      </trkpt>
      <trkpt lat="47.510332725942134857177734375" lon="10.13953370042145252227783203125">
        <ele>1653.199951171875</ele>
        <time>2026-09-01T08:24:22.000Z</time>
        <extensions>
          <ns3:TrackPointExtension>
            <ns3:hr>159</ns3:hr>
            <ns3:cad>85</ns3:cad>
          </ns3:TrackPointExtension>
        </extensions>
      </trkpt>
      <trkpt lat="47.51033482141792774200439453125" lon="10.139481984078884124755859375">
        <ele>1653</ele>
        <time>2026-09-01T08:24:23.000Z</time>
        <extensions>
          <ns3:TrackPointExtension>
            <ns3:hr>160</ns3:hr>
            <ns3:cad>85</ns3:cad>
          </ns3:TrackPointExtension>
        </extensions>
      </trkpt>
      <trkpt lat="47.51033448614180088043212890625" lon="10.13932281173765659332275390625">
        <ele>1653.199951171875</ele>
        <time>2026-09-01T08:24:27.000Z</time>
        <extensions>
          <ns3:TrackPointExtension>
            <ns3:hr>159</ns3:hr>
            <ns3:cad>82</ns3:cad>
          </ns3:TrackPointExtension>
        </extensions>
      </trkpt>
      <trkpt lat="47.5103412754833698272705078125" lon="10.13920244760811328887939453125">
        <ele>1653.800048828125</ele>
        <time>2026-09-01T08:24:30.000Z</time>
        <extensions>
          <ns3:TrackPointExtension>
            <ns3:hr>157</ns3:hr>
            <ns3:cad>85</ns3:cad>
          </ns3:TrackPointExtension>
        </extensions>
      </trkpt>
      <trkpt lat="47.51033096574246883392333984375" lon="10.1391022838652133941650390625">
        <ele>1654.5999755859375</ele>
        <time>2026-09-01T08:24:33.000Z</time>
        <extensions>
          <ns3:TrackPointExtension>
            <ns3:hr>156</ns3:hr>
            <ns3:cad>85</ns3:cad>
          </ns3:TrackPointExtension>
        </extensions>
      </trkpt>
      <trkpt lat="47.5103265233337879180908203125" lon="10.1390791498124599456787109375">
        <ele>1655</ele>
        <time>2026-09-01T08:24:34.000Z</time>
        <extensions>
          <ns3:TrackPointExtension>
            <ns3:hr>156</ns3:hr>
            <ns3:cad>85</ns3:cad>
          </ns3:TrackPointExtension>
        </extensions>
      </trkpt>
      <trkpt lat="47.5103161297738552093505859375" lon="10.13897596858441829681396484375">
        <ele>1655.800048828125</ele>
        <time>2026-09-01T08:24:37.000Z</time>
        <extensions>
          <ns3:TrackPointExtension>
            <ns3:hr>156</ns3:hr>
            <ns3:cad>83</ns3:cad>
          </ns3:TrackPointExtension>
        </extensions>
      </trkpt>
      <trkpt lat="47.51029659993946552276611328125" lon="10.13884437270462512969970703125">
        <ele>1656.199951171875</ele>
        <time>2026-09-01T08:24:41.000Z</time>
        <extensions>
          <ns3:TrackPointExtension>
            <ns3:hr>156</ns3:hr>
            <ns3:cad>83</ns3:cad>
          </ns3:TrackPointExtension>
        </extensions>
      </trkpt>
      <trkpt lat="47.51028972677886486053466796875" lon="10.138731300830841064453125">
        <ele>1656.800048828125</ele>
        <time>2026-09-01T08:24:44.000Z</time>
        <extensions>
          <ns3:TrackPointExtension>
            <ns3:hr>157</ns3:hr>
            <ns3:cad>85</ns3:cad>
          </ns3:TrackPointExtension>
        </extensions>
      </trkpt>
      <trkpt lat="47.51025485806167125701904296875" lon="10.13861353509128093719482421875">
        <ele>1657.199951171875</ele>
        <time>2026-09-01T08:24:47.000Z</time>
        <extensions>
          <ns3:TrackPointExtension>
            <ns3:hr>157</ns3:hr>
            <ns3:cad>85</ns3:cad>
          </ns3:TrackPointExtension>
        </extensions>
      </trkpt>
      <trkpt lat="47.51020900905132293701171875" lon="10.138468779623508453369140625">
        <ele>1656.800048828125</ele>
        <time>2026-09-01T08:24:50.000Z</time>
        <extensions>
          <ns3:TrackPointExtension>
            <ns3:hr>158</ns3:hr>
            <ns3:cad>81</ns3:cad>
          </ns3:TrackPointExtension>
        </extensions>
      </trkpt>
      <trkpt lat="47.510200627148151397705078125" lon="10.1382781751453876495361328125">
        <ele>1656.5999755859375</ele>
        <time>2026-09-01T08:24:54.000Z</time>
        <extensions>
          <ns3:TrackPointExtension>
            <ns3:hr>158</ns3:hr>
            <ns3:cad>82</ns3:cad>
          </ns3:TrackPointExtension>
        </extensions>
      </trkpt>
      <trkpt lat="47.51021579839289188385009765625" lon="10.1381651870906352996826171875">
        <ele>1657.199951171875</ele>
        <time>2026-09-01T08:24:57.000Z</time>
        <extensions>
          <ns3:TrackPointExtension>
            <ns3:hr>158</ns3:hr>
            <ns3:cad>82</ns3:cad>
          </ns3:TrackPointExtension>
        </extensions>
      </trkpt>
      <trkpt lat="47.5102138705551624298095703125" lon="10.1380609162151813507080078125">
        <ele>1658.199951171875</ele>
        <time>2026-09-01T08:25:00.000Z</time>
        <extensions>
          <ns3:TrackPointExtension>
            <ns3:hr>158</ns3:hr>
            <ns3:cad>85</ns3:cad>
          </ns3:TrackPointExtension>
        </extensions>
      </trkpt>
      <trkpt lat="47.5102075003087520599365234375" lon="10.138033591210842132568359375">
        <ele>1658.5999755859375</ele>
        <time>2026-09-01T08:25:01.000Z</time>
        <extensions>
          <ns3:TrackPointExtension>
            <ns3:hr>157</ns3:hr>
            <ns3:cad>85</ns3:cad>
          </ns3:TrackPointExtension>
        </extensions>
      </trkpt>
      <trkpt lat="47.51018646173179149627685546875" lon="10.137908197939395904541015625">
        <ele>1659</ele>
        <time>2026-09-01T08:25:04.000Z</time>
        <extensions>
          <ns3:TrackPointExtension>
            <ns3:hr>157</ns3:hr>
            <ns3:cad>85</ns3:cad>
          </ns3:TrackPointExtension>
        </extensions>
      </trkpt>
      <trkpt lat="47.51018210314214229583740234375" lon="10.1378101296722888946533203125">
        <ele>1659.199951171875</ele>
        <time>2026-09-01T08:25:07.000Z</time>
        <extensions>
          <ns3:TrackPointExtension>
            <ns3:hr>157</ns3:hr>
            <ns3:cad>85</ns3:cad>
          </ns3:TrackPointExtension>
        </extensions>
      </trkpt>
      <trkpt lat="47.51017682254314422607421875" lon="10.13778154738247394561767578125">
        <ele>1659.5999755859375</ele>
        <time>2026-09-01T08:25:08.000Z</time>
        <extensions>
          <ns3:TrackPointExtension>
            <ns3:hr>157</ns3:hr>
            <ns3:cad>85</ns3:cad>
          </ns3:TrackPointExtension>
        </extensions>
      </trkpt>
      <trkpt lat="47.510171793401241302490234375" lon="10.13771348632872104644775390625">
        <ele>1660.4000244140625</ele>
        <time>2026-09-01T08:25:10.000Z</time>
        <extensions>
          <ns3:TrackPointExtension>
            <ns3:hr>157</ns3:hr>
            <ns3:cad>84</ns3:cad>
          </ns3:TrackPointExtension>
        </extensions>
      </trkpt>
      <trkpt lat="47.51016550697386264801025390625" lon="10.13764944858849048614501953125">
        <ele>1661</ele>
        <time>2026-09-01T08:25:12.000Z</time>
        <extensions>
          <ns3:TrackPointExtension>
            <ns3:hr>158</ns3:hr>
            <ns3:cad>84</ns3:cad>
          </ns3:TrackPointExtension>
        </extensions>
      </trkpt>
      <trkpt lat="47.5101568736135959625244140625" lon="10.13760636560618877410888671875">
        <ele>1661.5999755859375</ele>
        <time>2026-09-01T08:25:14.000Z</time>
        <extensions>
          <ns3:TrackPointExtension>
            <ns3:hr>158</ns3:hr>
            <ns3:cad>84</ns3:cad>
          </ns3:TrackPointExtension>
        </extensions>
      </trkpt>
      <trkpt lat="47.5101545266807079315185546875" lon="10.1375851593911647796630859375">
        <ele>1661.800048828125</ele>
        <time>2026-09-01T08:25:15.000Z</time>
        <extensions>
          <ns3:TrackPointExtension>
            <ns3:hr>158</ns3:hr>
            <ns3:cad>84</ns3:cad>
          </ns3:TrackPointExtension>
        </extensions>
      </trkpt>
      <trkpt lat="47.5101592205464839935302734375" lon="10.13752472586929798126220703125">
        <ele>1662.800048828125</ele>
        <time>2026-09-01T08:25:18.000Z</time>
        <extensions>
          <ns3:TrackPointExtension>
            <ns3:hr>157</ns3:hr>
            <ns3:cad>84</ns3:cad>
          </ns3:TrackPointExtension>
        </extensions>
      </trkpt>
      <trkpt lat="47.51015947200357913970947265625" lon="10.13749170117080211639404296875">
        <ele>1663</ele>
        <time>2026-09-01T08:25:19.000Z</time>
        <extensions>
          <ns3:TrackPointExtension>
            <ns3:hr>157</ns3:hr>
            <ns3:cad>84</ns3:cad>
          </ns3:TrackPointExtension>
        </extensions>
      </trkpt>
      <trkpt lat="47.51016567461192607879638671875" lon="10.13744174502789974212646484375">
        <ele>1663.800048828125</ele>
        <time>2026-09-01T08:25:21.000Z</time>
        <extensions>
          <ns3:TrackPointExtension>
            <ns3:hr>157</ns3:hr>
            <ns3:cad>84</ns3:cad>
          </ns3:TrackPointExtension>
        </extensions>
      </trkpt>
      <trkpt lat="47.51017003320157527923583984375" lon="10.13738458044826984405517578125">
        <ele>1664.4000244140625</ele>
        <time>2026-09-01T08:25:23.000Z</time>
        <extensions>
          <ns3:TrackPointExtension>
            <ns3:hr>158</ns3:hr>
            <ns3:cad>83</ns3:cad>
          </ns3:TrackPointExtension>
        </extensions>
      </trkpt>
      <trkpt lat="47.51016751863062381744384765625" lon="10.13735197484493255615234375">
        <ele>1664.800048828125</ele>
        <time>2026-09-01T08:25:24.000Z</time>
        <extensions>
          <ns3:TrackPointExtension>
            <ns3:hr>159</ns3:hr>
            <ns3:cad>83</ns3:cad>
          </ns3:TrackPointExtension>
        </extensions>
      </trkpt>
      <trkpt lat="47.5101779960095882415771484375" lon="10.13723286800086498260498046875">
        <ele>1666</ele>
        <time>2026-09-01T08:25:28.000Z</time>
        <extensions>
          <ns3:TrackPointExtension>
            <ns3:hr>161</ns3:hr>
            <ns3:cad>83</ns3:cad>
          </ns3:TrackPointExtension>
        </extensions>
      </trkpt>
      <trkpt lat="47.51016676425933837890625" lon="10.1371050439774990081787109375">
        <ele>1667.199951171875</ele>
        <time>2026-09-01T08:25:32.000Z</time>
        <extensions>
          <ns3:TrackPointExtension>
            <ns3:hr>161</ns3:hr>
            <ns3:cad>84</ns3:cad>
          </ns3:TrackPointExtension>
        </extensions>
      </trkpt>
      <trkpt lat="47.5101699493825435638427734375" lon="10.13708014972507953643798828125">
        <ele>1667.5999755859375</ele>
        <time>2026-09-01T08:25:33.000Z</time>
        <extensions>
          <ns3:TrackPointExtension>
            <ns3:hr>161</ns3:hr>
            <ns3:cad>84</ns3:cad>
          </ns3:TrackPointExtension>
        </extensions>
      </trkpt>
      <trkpt lat="47.51018084585666656494140625" lon="10.1370286010205745697021484375">
        <ele>1668.199951171875</ele>
        <time>2026-09-01T08:25:35.000Z</time>
        <extensions>
          <ns3:TrackPointExtension>
            <ns3:hr>162</ns3:hr>
            <ns3:cad>84</ns3:cad>
          </ns3:TrackPointExtension>
        </extensions>
      </trkpt>
      <trkpt lat="47.51018889248371124267578125" lon="10.1369762979447841644287109375">
        <ele>1669</ele>
        <time>2026-09-01T08:25:37.000Z</time>
        <extensions>
          <ns3:TrackPointExtension>
            <ns3:hr>162</ns3:hr>
            <ns3:cad>85</ns3:cad>
          </ns3:TrackPointExtension>
        </extensions>
      </trkpt>
      <trkpt lat="47.5101904012262821197509765625" lon="10.136960037052631378173828125">
        <ele>1669.4000244140625</ele>
        <time>2026-09-01T08:25:38.000Z</time>
        <extensions>
          <ns3:TrackPointExtension>
            <ns3:hr>162</ns3:hr>
            <ns3:cad>85</ns3:cad>
          </ns3:TrackPointExtension>
        </extensions>
      </trkpt>
      <trkpt lat="47.510187886655330657958984375" lon="10.13690329156816005706787109375">
        <ele>1670</ele>
        <time>2026-09-01T08:25:40.000Z</time>
        <extensions>
          <ns3:TrackPointExtension>
            <ns3:hr>162</ns3:hr>
            <ns3:cad>85</ns3:cad>
          </ns3:TrackPointExtension>
        </extensions>
      </trkpt>
      <trkpt lat="47.510187216103076934814453125" lon="10.136842690408229827880859375">
        <ele>1670.800048828125</ele>
        <time>2026-09-01T08:25:42.000Z</time>
        <extensions>
          <ns3:TrackPointExtension>
            <ns3:hr>162</ns3:hr>
            <ns3:cad>85</ns3:cad>
          </ns3:TrackPointExtension>
        </extensions>
      </trkpt>
      <trkpt lat="47.51018243841826915740966796875" lon="10.1368210650980472564697265625">
        <ele>1671</ele>
        <time>2026-09-01T08:25:43.000Z</time>
        <extensions>
          <ns3:TrackPointExtension>
            <ns3:hr>162</ns3:hr>
            <ns3:cad>85</ns3:cad>
          </ns3:TrackPointExtension>
        </extensions>
      </trkpt>
      <trkpt lat="47.51018176786601543426513671875" lon="10.13677035458385944366455078125">
        <ele>1671.800048828125</ele>
        <time>2026-09-01T08:25:45.000Z</time>
        <extensions>
          <ns3:TrackPointExtension>
            <ns3:hr>163</ns3:hr>
            <ns3:cad>84</ns3:cad>
          </ns3:TrackPointExtension>
        </extensions>
      </trkpt>
      <trkpt lat="47.51018193550407886505126953125" lon="10.1367451250553131103515625">
        <ele>1672.199951171875</ele>
        <time>2026-09-01T08:25:46.000Z</time>
        <extensions>
          <ns3:TrackPointExtension>
            <ns3:hr>163</ns3:hr>
            <ns3:cad>84</ns3:cad>
          </ns3:TrackPointExtension>
        </extensions>
      </trkpt>
      <trkpt lat="47.51018621027469635009765625" lon="10.13671436347067356109619140625">
        <ele>1672.800048828125</ele>
        <time>2026-09-01T08:25:48.000Z</time>
        <extensions>
          <ns3:TrackPointExtension>
            <ns3:hr>163</ns3:hr>
            <ns3:cad>84</ns3:cad>
          </ns3:TrackPointExtension>
        </extensions>
      </trkpt>
      <trkpt lat="47.51018218696117401123046875" lon="10.1366517506539821624755859375">
        <ele>1674</ele>
        <time>2026-09-01T08:25:52.000Z</time>
        <extensions>
          <ns3:TrackPointExtension>
            <ns3:hr>163</ns3:hr>
            <ns3:cad>84</ns3:cad>
          </ns3:TrackPointExtension>
        </extensions>
      </trkpt>
      <trkpt lat="47.510169111192226409912109375" lon="10.13659534044563770294189453125">
        <ele>1675.199951171875</ele>
        <time>2026-09-01T08:25:55.000Z</time>
        <extensions>
          <ns3:TrackPointExtension>
            <ns3:hr>162</ns3:hr>
            <ns3:cad>57</ns3:cad>
          </ns3:TrackPointExtension>
        </extensions>
      </trkpt>
      <trkpt lat="47.51016600988805294036865234375" lon="10.1365535147488117218017578125">
        <ele>1676.4000244140625</ele>
        <time>2026-09-01T08:25:58.000Z</time>
        <extensions>
          <ns3:TrackPointExtension>
            <ns3:hr>161</ns3:hr>
            <ns3:cad>53</ns3:cad>
          </ns3:TrackPointExtension>
        </extensions>
      </trkpt>
      <trkpt lat="47.5101654231548309326171875" lon="10.13653851114213466644287109375">
        <ele>1676.5999755859375</ele>
        <time>2026-09-01T08:25:59.000Z</time>
        <extensions>
          <ns3:TrackPointExtension>
            <ns3:hr>160</ns3:hr>
            <ns3:cad>52</ns3:cad>
          </ns3:TrackPointExtension>
        </extensions>
      </trkpt>
      <trkpt lat="47.510155029594898223876953125" lon="10.1365018822252750396728515625">
        <ele>1677.4000244140625</ele>
        <time>2026-09-01T08:26:01.000Z</time>
        <extensions>
          <ns3:TrackPointExtension>
            <ns3:hr>161</ns3:hr>
            <ns3:cad>52</ns3:cad>
          </ns3:TrackPointExtension>
        </extensions>
      </trkpt>
      <trkpt lat="47.51014505513012409210205078125" lon="10.136459134519100189208984375">
        <ele>1678.4000244140625</ele>
        <time>2026-09-01T08:26:04.000Z</time>
        <extensions>
          <ns3:TrackPointExtension>
            <ns3:hr>161</ns3:hr>
            <ns3:cad>52</ns3:cad>
          </ns3:TrackPointExtension>
        </extensions>
      </trkpt>
      <trkpt lat="47.5101424567401409149169921875" lon="10.13644446618854999542236328125">
        <ele>1678.800048828125</ele>
        <time>2026-09-01T08:26:05.000Z</time>
        <extensions>
          <ns3:TrackPointExtension>
            <ns3:hr>161</ns3:hr>
            <ns3:cad>50</ns3:cad>
          </ns3:TrackPointExtension>
        </extensions>
      </trkpt>
      <trkpt lat="47.51013348810374736785888671875" lon="10.13641227968037128448486328125">
        <ele>1679.5999755859375</ele>
        <time>2026-09-01T08:26:07.000Z</time>
        <extensions>
          <ns3:TrackPointExtension>
            <ns3:hr>161</ns3:hr>
            <ns3:cad>49</ns3:cad>
          </ns3:TrackPointExtension>
        </extensions>
      </trkpt>
      <trkpt lat="47.51011370681226253509521484375" lon="10.1363922469317913055419921875">
        <ele>1680.199951171875</ele>
        <time>2026-09-01T08:26:09.000Z</time>
        <extensions>
          <ns3:TrackPointExtension>
            <ns3:hr>161</ns3:hr>
            <ns3:cad>49</ns3:cad>
          </ns3:TrackPointExtension>
        </extensions>
      </trkpt>
      <trkpt lat="47.5101090967655181884765625" lon="10.1363731361925601959228515625">
        <ele>1680.5999755859375</ele>
        <time>2026-09-01T08:26:10.000Z</time>
        <extensions>
          <ns3:TrackPointExtension>
            <ns3:hr>161</ns3:hr>
            <ns3:cad>50</ns3:cad>
          </ns3:TrackPointExtension>
        </extensions>
      </trkpt>
      <trkpt lat="47.51011119224131107330322265625" lon="10.13635729439556598663330078125">
        <ele>1681</ele>
        <time>2026-09-01T08:26:11.000Z</time>
        <extensions>
          <ns3:TrackPointExtension>
            <ns3:hr>161</ns3:hr>
            <ns3:cad>50</ns3:cad>
          </ns3:TrackPointExtension>
        </extensions>
      </trkpt>
      <trkpt lat="47.510118819773197174072265625" lon="10.13635092414915561676025390625">
        <ele>1682</ele>
        <time>2026-09-01T08:26:14.000Z</time>
        <extensions>
          <ns3:TrackPointExtension>
            <ns3:hr>161</ns3:hr>
            <ns3:cad>54</ns3:cad>
          </ns3:TrackPointExtension>
        </extensions>
      </trkpt>
      <trkpt lat="47.51012762077152729034423828125" lon="10.13634237460792064666748046875">
        <ele>1682.4000244140625</ele>
        <time>2026-09-01T08:26:15.000Z</time>
        <extensions>
          <ns3:TrackPointExtension>
            <ns3:hr>160</ns3:hr>
            <ns3:cad>55</ns3:cad>
          </ns3:TrackPointExtension>
        </extensions>
      </trkpt>
      <trkpt lat="47.51013801433145999908447265625" lon="10.13633164577186107635498046875">
        <ele>1682.800048828125</ele>
        <time>2026-09-01T08:26:16.000Z</time>
        <extensions>
          <ns3:TrackPointExtension>
            <ns3:hr>160</ns3:hr>
            <ns3:cad>55</ns3:cad>
          </ns3:TrackPointExtension>
        </extensions>
      </trkpt>
      <trkpt lat="47.51014036126434803009033203125" lon="10.13632259331643581390380859375">
        <ele>1683.199951171875</ele>
        <time>2026-09-01T08:26:17.000Z</time>
        <extensions>
          <ns3:TrackPointExtension>
            <ns3:hr>160</ns3:hr>
            <ns3:cad>54</ns3:cad>
          </ns3:TrackPointExtension>
        </extensions>
      </trkpt>
      <trkpt lat="47.510131895542144775390625" lon="10.136306248605251312255859375">
        <ele>1683.800048828125</ele>
        <time>2026-09-01T08:26:19.000Z</time>
        <extensions>
          <ns3:TrackPointExtension>
            <ns3:hr>159</ns3:hr>
            <ns3:cad>53</ns3:cad>
          </ns3:TrackPointExtension>
        </extensions>
      </trkpt>
      <trkpt lat="47.5101307220757007598876953125" lon="10.1362960226833820343017578125">
        <ele>1684.199951171875</ele>
        <time>2026-09-01T08:26:20.000Z</time>
        <extensions>
          <ns3:TrackPointExtension>
            <ns3:hr>159</ns3:hr>
            <ns3:cad>0</ns3:cad>
          </ns3:TrackPointExtension>
        </extensions>
      </trkpt>
      <trkpt lat="47.51013390719890594482421875" lon="10.1362893171608448028564453125">
        <ele>1684.4000244140625</ele>
        <time>2026-09-01T08:26:21.000Z</time>
        <extensions>
          <ns3:TrackPointExtension>
            <ns3:hr>159</ns3:hr>
            <ns3:cad>0</ns3:cad>
          </ns3:TrackPointExtension>
        </extensions>
      </trkpt>
      <trkpt lat="47.51014069654047489166259765625" lon="10.13627850450575351715087890625">
        <ele>1684.800048828125</ele>
        <time>2026-09-01T08:26:22.000Z</time>
        <extensions>
          <ns3:TrackPointExtension>
            <ns3:hr>159</ns3:hr>
            <ns3:cad>0</ns3:cad>
          </ns3:TrackPointExtension>
        </extensions>
      </trkpt>
      <trkpt lat="47.5101493299007415771484375" lon="10.1362722180783748626708984375">
        <ele>1685.199951171875</ele>
        <time>2026-09-01T08:26:23.000Z</time>
        <extensions>
          <ns3:TrackPointExtension>
            <ns3:hr>159</ns3:hr>
            <ns3:cad>0</ns3:cad>
          </ns3:TrackPointExtension>
        </extensions>
      </trkpt>
      <trkpt lat="47.51016047783195972442626953125" lon="10.13623123057186603546142578125">
        <ele>1686.5999755859375</ele>
        <time>2026-09-01T08:26:27.000Z</time>
        <extensions>
          <ns3:TrackPointExtension>
            <ns3:hr>159</ns3:hr>
            <ns3:cad>0</ns3:cad>
          </ns3:TrackPointExtension>
        </extensions>
      </trkpt>
      <trkpt lat="47.5101642496883869171142578125" lon="10.136190243065357208251953125">
        <ele>1688</ele>
        <time>2026-09-01T08:26:30.000Z</time>
        <extensions>
          <ns3:TrackPointExtension>
            <ns3:hr>158</ns3:hr>
            <ns3:cad>0</ns3:cad>
          </ns3:TrackPointExtension>
        </extensions>
      </trkpt>
      <trkpt lat="47.5101655907928943634033203125" lon="10.13616736046969890594482421875">
        <ele>1689</ele>
        <time>2026-09-01T08:26:32.000Z</time>
        <extensions>
          <ns3:TrackPointExtension>
            <ns3:hr>158</ns3:hr>
            <ns3:cad>59</ns3:cad>
          </ns3:TrackPointExtension>
        </extensions>
      </trkpt>
      <trkpt lat="47.510165758430957794189453125" lon="10.13615964911878108978271484375">
        <ele>1689.4000244140625</ele>
        <time>2026-09-01T08:26:33.000Z</time>
        <extensions>
          <ns3:TrackPointExtension>
            <ns3:hr>158</ns3:hr>
            <ns3:cad>59</ns3:cad>
          </ns3:TrackPointExtension>
        </extensions>
      </trkpt>
      <trkpt lat="47.510158717632293701171875" lon="10.1361112855374813079833984375">
        <ele>1690.4000244140625</ele>
        <time>2026-09-01T08:26:37.000Z</time>
        <extensions>
          <ns3:TrackPointExtension>
            <ns3:hr>158</ns3:hr>
            <ns3:cad>59</ns3:cad>
          </ns3:TrackPointExtension>
        </extensions>
      </trkpt>
      <trkpt lat="47.51016064547002315521240234375" lon="10.1360879838466644287109375">
        <ele>1691</ele>
        <time>2026-09-01T08:26:39.000Z</time>
        <extensions>
          <ns3:TrackPointExtension>
            <ns3:hr>160</ns3:hr>
            <ns3:cad>56</ns3:cad>
          </ns3:TrackPointExtension>
        </extensions>
      </trkpt>
      <trkpt lat="47.51016634516417980194091796875" lon="10.13607465662062168121337890625">
        <ele>1691.5999755859375</ele>
        <time>2026-09-01T08:26:41.000Z</time>
        <extensions>
          <ns3:TrackPointExtension>
            <ns3:hr>161</ns3:hr>
            <ns3:cad>56</ns3:cad>
          </ns3:TrackPointExtension>
        </extensions>
      </trkpt>
      <trkpt lat="47.51017087139189243316650390625" lon="10.1360402069985866546630859375">
        <ele>1692.5999755859375</ele>
        <time>2026-09-01T08:26:44.000Z</time>
        <extensions>
          <ns3:TrackPointExtension>
            <ns3:hr>161</ns3:hr>
            <ns3:cad>56</ns3:cad>
          </ns3:TrackPointExtension>
        </extensions>
      </trkpt>
      <trkpt lat="47.5101712904870510101318359375" lon="10.13602671213448047637939453125">
        <ele>1693</ele>
        <time>2026-09-01T08:26:45.000Z</time>
        <extensions>
          <ns3:TrackPointExtension>
            <ns3:hr>161</ns3:hr>
            <ns3:cad>46</ns3:cad>
          </ns3:TrackPointExtension>
        </extensions>
      </trkpt>
      <trkpt lat="47.51016584224998950958251953125" lon="10.1360048353672027587890625">
        <ele>1694</ele>
        <time>2026-09-01T08:26:47.000Z</time>
        <extensions>
          <ns3:TrackPointExtension>
            <ns3:hr>162</ns3:hr>
            <ns3:cad>46</ns3:cad>
          </ns3:TrackPointExtension>
        </extensions>
      </trkpt>
      <trkpt lat="47.51014874316751956939697265625" lon="10.13596736826002597808837890625">
        <ele>1695</ele>
        <time>2026-09-01T08:26:50.000Z</time>
        <extensions>
          <ns3:TrackPointExtension>
            <ns3:hr>163</ns3:hr>
            <ns3:cad>46</ns3:cad>
          </ns3:TrackPointExtension>
        </extensions>
      </trkpt>
      <trkpt lat="47.51013767905533313751220703125" lon="10.13593115843832492828369140625">
        <ele>1696</ele>
        <time>2026-09-01T08:26:53.000Z</time>
        <extensions>
          <ns3:TrackPointExtension>
            <ns3:hr>162</ns3:hr>
            <ns3:cad>49</ns3:cad>
          </ns3:TrackPointExtension>
        </extensions>
      </trkpt>
      <trkpt lat="47.51013935543596744537353515625" lon="10.1359297335147857666015625">
        <ele>1696.4000244140625</ele>
        <time>2026-09-01T08:26:54.000Z</time>
        <extensions>
          <ns3:TrackPointExtension>
            <ns3:hr>163</ns3:hr>
            <ns3:cad>49</ns3:cad>
          </ns3:TrackPointExtension>
        </extensions>
      </trkpt>
      <trkpt lat="47.510148324072360992431640625" lon="10.13592462055385112762451171875">
        <ele>1697.5999755859375</ele>
        <time>2026-09-01T08:26:57.000Z</time>
        <extensions>
          <ns3:TrackPointExtension>
            <ns3:hr>162</ns3:hr>
            <ns3:cad>44</ns3:cad>
          </ns3:TrackPointExtension>
        </extensions>
      </trkpt>
      <trkpt lat="47.5101518444716930389404296875" lon="10.13591472990810871124267578125">
        <ele>1697.800048828125</ele>
        <time>2026-09-01T08:26:58.000Z</time>
        <extensions>
          <ns3:TrackPointExtension>
            <ns3:hr>162</ns3:hr>
            <ns3:cad>44</ns3:cad>
          </ns3:TrackPointExtension>
        </extensions>
      </trkpt>
      <trkpt lat="47.5101538561284542083740234375" lon="10.13589017093181610107421875">
        <ele>1698.800048828125</ele>
        <time>2026-09-01T08:27:01.000Z</time>
        <extensions>
          <ns3:TrackPointExtension>
            <ns3:hr>161</ns3:hr>
            <ns3:cad>0</ns3:cad>
          </ns3:TrackPointExtension>
        </extensions>
      </trkpt>
      <trkpt lat="47.51015461049973964691162109375" lon="10.135869048535823822021484375">
        <ele>1699.4000244140625</ele>
        <time>2026-09-01T08:27:03.000Z</time>
        <extensions>
          <ns3:TrackPointExtension>
            <ns3:hr>162</ns3:hr>
            <ns3:cad>55</ns3:cad>
          </ns3:TrackPointExtension>
        </extensions>
      </trkpt>
      <trkpt lat="47.51015528105199337005615234375" lon="10.13586058281362056732177734375">
        <ele>1699.800048828125</ele>
        <time>2026-09-01T08:27:04.000Z</time>
        <extensions>
          <ns3:TrackPointExtension>
            <ns3:hr>162</ns3:hr>
            <ns3:cad>55</ns3:cad>
          </ns3:TrackPointExtension>
        </extensions>
      </trkpt>
      <trkpt lat="47.51017338596284389495849609375" lon="10.13583719730377197265625">
        <ele>1701</ele>
        <time>2026-09-01T08:27:07.000Z</time>
        <extensions>
          <ns3:TrackPointExtension>
            <ns3:hr>162</ns3:hr>
            <ns3:cad>55</ns3:cad>
          </ns3:TrackPointExtension>
        </extensions>
      </trkpt>
      <trkpt lat="47.510181851685047149658203125" lon="10.13581716455519199371337890625">
        <ele>1701.800048828125</ele>
        <time>2026-09-01T08:27:09.000Z</time>
        <extensions>
          <ns3:TrackPointExtension>
            <ns3:hr>162</ns3:hr>
            <ns3:cad>0</ns3:cad>
          </ns3:TrackPointExtension>
        </extensions>
      </trkpt>
      <trkpt lat="47.51018897630274295806884765625" lon="10.13581766746938228607177734375">
        <ele>1702.199951171875</ele>
        <time>2026-09-01T08:27:10.000Z</time>
        <extensions>
          <ns3:TrackPointExtension>
            <ns3:hr>162</ns3:hr>
            <ns3:cad>0</ns3:cad>
          </ns3:TrackPointExtension>
        </extensions>
      </trkpt>
      <trkpt lat="47.51017103902995586395263671875" lon="10.13577282428741455078125">
        <ele>1703.199951171875</ele>
        <time>2026-09-01T08:27:14.000Z</time>
        <extensions>
          <ns3:TrackPointExtension>
            <ns3:hr>162</ns3:hr>
            <ns3:cad>0</ns3:cad>
          </ns3:TrackPointExtension>
        </extensions>
      </trkpt>
      <trkpt lat="47.51016349531710147857666015625" lon="10.135757066309452056884765625">
        <ele>1703.4000244140625</ele>
        <time>2026-09-01T08:27:15.000Z</time>
        <extensions>
          <ns3:TrackPointExtension>
            <ns3:hr>162</ns3:hr>
            <ns3:cad>0</ns3:cad>
          </ns3:TrackPointExtension>
        </extensions>
      </trkpt>
      <trkpt lat="47.5101562030613422393798828125" lon="10.13569596223533153533935546875">
        <ele>1704.199951171875</ele>
        <time>2026-09-01T08:27:19.000Z</time>
        <extensions>
          <ns3:TrackPointExtension>
            <ns3:hr>162</ns3:hr>
            <ns3:cad>0</ns3:cad>
          </ns3:TrackPointExtension>
        </extensions>
      </trkpt>
      <trkpt lat="47.51014807261526584625244140625" lon="10.1356740854680538177490234375">
        <ele>1704.4000244140625</ele>
        <time>2026-09-01T08:27:20.000Z</time>
        <extensions>
          <ns3:TrackPointExtension>
            <ns3:hr>161</ns3:hr>
            <ns3:cad>0</ns3:cad>
          </ns3:TrackPointExtension>
        </extensions>
      </trkpt>
      <trkpt lat="47.5101417861878871917724609375" lon="10.1356427371501922607421875">
        <ele>1705.199951171875</ele>
        <time>2026-09-01T08:27:22.000Z</time>
        <extensions>
          <ns3:TrackPointExtension>
            <ns3:hr>161</ns3:hr>
            <ns3:cad>51</ns3:cad>
          </ns3:TrackPointExtension>
        </extensions>
      </trkpt>
      <trkpt lat="47.5101417861878871917724609375" lon="10.135628320276737213134765625">
        <ele>1705.800048828125</ele>
        <time>2026-09-01T08:27:23.000Z</time>
        <extensions>
          <ns3:TrackPointExtension>
            <ns3:hr>161</ns3:hr>
            <ns3:cad>51</ns3:cad>
          </ns3:TrackPointExtension>
        </extensions>
      </trkpt>
      <trkpt lat="47.51014622859656810760498046875" lon="10.135577023029327392578125">
        <ele>1706.800048828125</ele>
        <time>2026-09-01T08:27:27.000Z</time>
        <extensions>
          <ns3:TrackPointExtension>
            <ns3:hr>161</ns3:hr>
            <ns3:cad>51</ns3:cad>
          </ns3:TrackPointExtension>
        </extensions>
      </trkpt>
      <trkpt lat="47.510146982967853546142578125" lon="10.1355560682713985443115234375">
        <ele>1707.800048828125</ele>
        <time>2026-09-01T08:27:29.000Z</time>
        <extensions>
          <ns3:TrackPointExtension>
            <ns3:hr>161</ns3:hr>
            <ns3:cad>0</ns3:cad>
          </ns3:TrackPointExtension>
        </extensions>
      </trkpt>
      <trkpt lat="47.51014731824398040771484375" lon="10.1355408132076263427734375">
        <ele>1708.4000244140625</ele>
        <time>2026-09-01T08:27:30.000Z</time>
        <extensions>
          <ns3:TrackPointExtension>
            <ns3:hr>161</ns3:hr>
            <ns3:cad>0</ns3:cad>
          </ns3:TrackPointExtension>
        </extensions>
      </trkpt>
      <trkpt lat="47.5101407803595066070556640625" lon="10.13549362309277057647705078125">
        <ele>1709.4000244140625</ele>
        <time>2026-09-01T08:27:33.000Z</time>
        <extensions>
          <ns3:TrackPointExtension>
            <ns3:hr>159</ns3:hr>
            <ns3:cad>0</ns3:cad>
          </ns3:TrackPointExtension>
        </extensions>
      </trkpt>
      <trkpt lat="47.51014438457787036895751953125" lon="10.13548021204769611358642578125">
        <ele>1710.199951171875</ele>
        <time>2026-09-01T08:27:35.000Z</time>
        <extensions>
          <ns3:TrackPointExtension>
            <ns3:hr>159</ns3:hr>
            <ns3:cad>48</ns3:cad>
          </ns3:TrackPointExtension>
        </extensions>
      </trkpt>
      <trkpt lat="47.51015109010040760040283203125" lon="10.13548423536121845245361328125">
        <ele>1710.5999755859375</ele>
        <time>2026-09-01T08:27:36.000Z</time>
        <extensions>
          <ns3:TrackPointExtension>
            <ns3:hr>159</ns3:hr>
            <ns3:cad>48</ns3:cad>
          </ns3:TrackPointExtension>
        </extensions>
      </trkpt>
      <trkpt lat="47.510195262730121612548828125" lon="10.13549320399761199951171875">
        <ele>1711.800048828125</ele>
        <time>2026-09-01T08:27:40.000Z</time>
        <extensions>
          <ns3:TrackPointExtension>
            <ns3:hr>160</ns3:hr>
            <ns3:cad>48</ns3:cad>
          </ns3:TrackPointExtension>
        </extensions>
      </trkpt>
      <trkpt lat="47.51020439900457859039306640625" lon="10.13548356480896472930908203125">
        <ele>1712.199951171875</ele>
        <time>2026-09-01T08:27:41.000Z</time>
        <extensions>
          <ns3:TrackPointExtension>
            <ns3:hr>160</ns3:hr>
            <ns3:cad>48</ns3:cad>
          </ns3:TrackPointExtension>
        </extensions>
      </trkpt>
      <trkpt lat="47.5102118588984012603759765625" lon="10.13545037247240543365478515625">
        <ele>1713</ele>
        <time>2026-09-01T08:27:43.000Z</time>
        <extensions>
          <ns3:TrackPointExtension>
            <ns3:hr>160</ns3:hr>
            <ns3:cad>48</ns3:cad>
          </ns3:TrackPointExtension>
        </extensions>
      </trkpt>
      <trkpt lat="47.5102205760776996612548828125" lon="10.13543059118092060089111328125">
        <ele>1713.800048828125</ele>
        <time>2026-09-01T08:27:45.000Z</time>
        <extensions>
          <ns3:TrackPointExtension>
            <ns3:hr>161</ns3:hr>
            <ns3:cad>52</ns3:cad>
          </ns3:TrackPointExtension>
        </extensions>
      </trkpt>
      <trkpt lat="47.51022283919155597686767578125" lon="10.1354175992310047149658203125">
        <ele>1714</ele>
        <time>2026-09-01T08:27:46.000Z</time>
        <extensions>
          <ns3:TrackPointExtension>
            <ns3:hr>160</ns3:hr>
            <ns3:cad>52</ns3:cad>
          </ns3:TrackPointExtension>
        </extensions>
      </trkpt>
      <trkpt lat="47.51022133044898509979248046875" lon="10.135374180972576141357421875">
        <ele>1715</ele>
        <time>2026-09-01T08:27:49.000Z</time>
        <extensions>
          <ns3:TrackPointExtension>
            <ns3:hr>161</ns3:hr>
            <ns3:cad>52</ns3:cad>
          </ns3:TrackPointExtension>
        </extensions>
      </trkpt>
      <trkpt lat="47.51022082753479480743408203125" lon="10.13536370359361171722412109375">
        <ele>1715.4000244140625</ele>
        <time>2026-09-01T08:27:50.000Z</time>
        <extensions>
          <ns3:TrackPointExtension>
            <ns3:hr>161</ns3:hr>
            <ns3:cad>52</ns3:cad>
          </ns3:TrackPointExtension>
        </extensions>
      </trkpt>
      <trkpt lat="47.51021747477352619171142578125" lon="10.13534526340663433074951171875">
        <ele>1715.800048828125</ele>
        <time>2026-09-01T08:27:51.000Z</time>
        <extensions>
          <ns3:TrackPointExtension>
            <ns3:hr>161</ns3:hr>
            <ns3:cad>52</ns3:cad>
          </ns3:TrackPointExtension>
        </extensions>
      </trkpt>
      <trkpt lat="47.51021563075482845306396484375" lon="10.13531207107007503509521484375">
        <ele>1717</ele>
        <time>2026-09-01T08:27:53.000Z</time>
        <extensions>
          <ns3:TrackPointExtension>
            <ns3:hr>161</ns3:hr>
            <ns3:cad>52</ns3:cad>
          </ns3:TrackPointExtension>
        </extensions>
      </trkpt>
      <trkpt lat="47.51020858995616436004638671875" lon="10.13526261784136295318603515625">
        <ele>1718.199951171875</ele>
        <time>2026-09-01T08:27:56.000Z</time>
        <extensions>
          <ns3:TrackPointExtension>
            <ns3:hr>161</ns3:hr>
            <ns3:cad>50</ns3:cad>
          </ns3:TrackPointExtension>
        </extensions>
      </trkpt>
      <trkpt lat="47.51019559800624847412109375" lon="10.13524183072149753570556640625">
        <ele>1718.4000244140625</ele>
        <time>2026-09-01T08:27:57.000Z</time>
        <extensions>
          <ns3:TrackPointExtension>
            <ns3:hr>161</ns3:hr>
            <ns3:cad>50</ns3:cad>
          </ns3:TrackPointExtension>
        </extensions>
      </trkpt>
      <trkpt lat="47.51018897630274295806884765625" lon="10.13518936000764369964599609375">
        <ele>1719.199951171875</ele>
        <time>2026-09-01T08:27:59.000Z</time>
        <extensions>
          <ns3:TrackPointExtension>
            <ns3:hr>161</ns3:hr>
            <ns3:cad>50</ns3:cad>
          </ns3:TrackPointExtension>
        </extensions>
      </trkpt>
      <trkpt lat="47.51018847338855266571044921875" lon="10.1351483725011348724365234375">
        <ele>1720</ele>
        <time>2026-09-01T08:28:01.000Z</time>
        <extensions>
          <ns3:TrackPointExtension>
            <ns3:hr>161</ns3:hr>
            <ns3:cad>83</ns3:cad>
          </ns3:TrackPointExtension>
        </extensions>
      </trkpt>
      <trkpt lat="47.51018813811242580413818359375" lon="10.135123729705810546875">
        <ele>1720.4000244140625</ele>
        <time>2026-09-01T08:28:02.000Z</time>
        <extensions>
          <ns3:TrackPointExtension>
            <ns3:hr>162</ns3:hr>
            <ns3:cad>83</ns3:cad>
          </ns3:TrackPointExtension>
        </extensions>
      </trkpt>
      <trkpt lat="47.51019249670207500457763671875" lon="10.13506547547876834869384765625">
        <ele>1721.5999755859375</ele>
        <time>2026-09-01T08:28:05.000Z</time>
        <extensions>
          <ns3:TrackPointExtension>
            <ns3:hr>162</ns3:hr>
            <ns3:cad>81</ns3:cad>
          </ns3:TrackPointExtension>
        </extensions>
      </trkpt>
      <trkpt lat="47.510189227759838104248046875" lon="10.13496254570782184600830078125">
        <ele>1722.5999755859375</ele>
        <time>2026-09-01T08:28:09.000Z</time>
        <extensions>
          <ns3:TrackPointExtension>
            <ns3:hr>163</ns3:hr>
            <ns3:cad>82</ns3:cad>
          </ns3:TrackPointExtension>
        </extensions>
      </trkpt>
      <trkpt lat="47.5101967714726924896240234375" lon="10.13493237085640430450439453125">
        <ele>1723</ele>
        <time>2026-09-01T08:28:10.000Z</time>
        <extensions>
          <ns3:TrackPointExtension>
            <ns3:hr>163</ns3:hr>
            <ns3:cad>82</ns3:cad>
          </ns3:TrackPointExtension>
        </extensions>
      </trkpt>
      <trkpt lat="47.510223090648651123046875" lon="10.13489305973052978515625">
        <ele>1723.800048828125</ele>
        <time>2026-09-01T08:28:12.000Z</time>
        <extensions>
          <ns3:TrackPointExtension>
            <ns3:hr>163</ns3:hr>
            <ns3:cad>83</ns3:cad>
          </ns3:TrackPointExtension>
        </extensions>
      </trkpt>
      <trkpt lat="47.51024412922561168670654296875" lon="10.13486481271684169769287109375">
        <ele>1724</ele>
        <time>2026-09-01T08:28:13.000Z</time>
        <extensions>
          <ns3:TrackPointExtension>
            <ns3:hr>163</ns3:hr>
            <ns3:cad>83</ns3:cad>
          </ns3:TrackPointExtension>
        </extensions>
      </trkpt>
      <trkpt lat="47.510309256613254547119140625" lon="10.1347430236637592315673828125">
        <ele>1724.199951171875</ele>
        <time>2026-09-01T08:28:17.000Z</time>
        <extensions>
          <ns3:TrackPointExtension>
            <ns3:hr>162</ns3:hr>
            <ns3:cad>81</ns3:cad>
          </ns3:TrackPointExtension>
        </extensions>
      </trkpt>
      <trkpt lat="47.51034454442560672760009765625" lon="10.1345328055322170257568359375">
        <ele>1724.4000244140625</ele>
        <time>2026-09-01T08:28:22.000Z</time>
        <extensions>
          <ns3:TrackPointExtension>
            <ns3:hr>162</ns3:hr>
            <ns3:cad>84</ns3:cad>
          </ns3:TrackPointExtension>
        </extensions>
      </trkpt>
      <trkpt lat="47.5103768147528171539306640625" lon="10.1344419457018375396728515625">
        <ele>1724.800048828125</ele>
        <time>2026-09-01T08:28:25.000Z</time>
        <extensions>
          <ns3:TrackPointExtension>
            <ns3:hr>162</ns3:hr>
            <ns3:cad>85</ns3:cad>
          </ns3:TrackPointExtension>
        </extensions>
      </trkpt>
      <trkpt lat="47.510387040674686431884765625" lon="10.134422667324542999267578125">
        <ele>1725</ele>
        <time>2026-09-01T08:28:26.000Z</time>
        <extensions>
          <ns3:TrackPointExtension>
            <ns3:hr>162</ns3:hr>
            <ns3:cad>85</ns3:cad>
          </ns3:TrackPointExtension>
        </extensions>
      </trkpt>
      <trkpt lat="47.51042216084897518157958984375" lon="10.1343279518187046051025390625">
        <ele>1726.199951171875</ele>
        <time>2026-09-01T08:28:29.000Z</time>
        <extensions>
          <ns3:TrackPointExtension>
            <ns3:hr>162</ns3:hr>
            <ns3:cad>86</ns3:cad>
          </ns3:TrackPointExtension>
        </extensions>
      </trkpt>
      <trkpt lat="47.5104737095534801483154296875" lon="10.13422451913356781005859375">
        <ele>1727.199951171875</ele>
        <time>2026-09-01T08:28:33.000Z</time>
        <extensions>
          <ns3:TrackPointExtension>
            <ns3:hr>162</ns3:hr>
            <ns3:cad>84</ns3:cad>
          </ns3:TrackPointExtension>
        </extensions>
      </trkpt>
      <trkpt lat="47.51048787496984004974365234375" lon="10.13407833874225616455078125">
        <ele>1728.5999755859375</ele>
        <time>2026-09-01T08:28:37.000Z</time>
        <extensions>
          <ns3:TrackPointExtension>
            <ns3:hr>161</ns3:hr>
            <ns3:cad>85</ns3:cad>
          </ns3:TrackPointExtension>
        </extensions>
      </trkpt>
      <trkpt lat="47.51052014529705047607421875" lon="10.13398655690252780914306640625">
        <ele>1729.4000244140625</ele>
        <time>2026-09-01T08:28:40.000Z</time>
        <extensions>
          <ns3:TrackPointExtension>
            <ns3:hr>160</ns3:hr>
            <ns3:cad>85</ns3:cad>
          </ns3:TrackPointExtension>
        </extensions>
      </trkpt>
      <trkpt lat="47.51053196378052234649658203125" lon="10.133860073983669281005859375">
        <ele>1729.800048828125</ele>
        <time>2026-09-01T08:28:44.000Z</time>
        <extensions>
          <ns3:TrackPointExtension>
            <ns3:hr>160</ns3:hr>
            <ns3:cad>83</ns3:cad>
          </ns3:TrackPointExtension>
        </extensions>
      </trkpt>
      <trkpt lat="47.51053213141858577728271484375" lon="10.13377080671489238739013671875">
        <ele>1730.800048828125</ele>
        <time>2026-09-01T08:28:47.000Z</time>
        <extensions>
          <ns3:TrackPointExtension>
            <ns3:hr>161</ns3:hr>
            <ns3:cad>85</ns3:cad>
          </ns3:TrackPointExtension>
        </extensions>
      </trkpt>
      <trkpt lat="47.5105434469878673553466796875" lon="10.1336855627596378326416015625">
        <ele>1731.800048828125</ele>
        <time>2026-09-01T08:28:50.000Z</time>
        <extensions>
          <ns3:TrackPointExtension>
            <ns3:hr>160</ns3:hr>
            <ns3:cad>85</ns3:cad>
          </ns3:TrackPointExtension>
        </extensions>
      </trkpt>
      <trkpt lat="47.5105417706072330474853515625" lon="10.13364491052925586700439453125">
        <ele>1732</ele>
        <time>2026-09-01T08:28:51.000Z</time>
        <extensions>
          <ns3:TrackPointExtension>
            <ns3:hr>160</ns3:hr>
            <ns3:cad>85</ns3:cad>
          </ns3:TrackPointExtension>
        </extensions>
      </trkpt>
      <trkpt lat="47.51057169400155544281005859375" lon="10.1335410587489604949951171875">
        <ele>1732.5999755859375</ele>
        <time>2026-09-01T08:28:54.000Z</time>
        <extensions>
          <ns3:TrackPointExtension>
            <ns3:hr>161</ns3:hr>
            <ns3:cad>85</ns3:cad>
          </ns3:TrackPointExtension>
        </extensions>
      </trkpt>
      <trkpt lat="47.5105811655521392822265625" lon="10.13351180590689182281494140625">
        <ele>1732.4000244140625</ele>
        <time>2026-09-01T08:28:55.000Z</time>
        <extensions>
          <ns3:TrackPointExtension>
            <ns3:hr>161</ns3:hr>
            <ns3:cad>85</ns3:cad>
          </ns3:TrackPointExtension>
        </extensions>
      </trkpt>
      <trkpt lat="47.51066473312675952911376953125" lon="10.133333690464496612548828125">
        <ele>1731.800048828125</ele>
        <time>2026-09-01T08:28:59.000Z</time>
        <extensions>
          <ns3:TrackPointExtension>
            <ns3:hr>162</ns3:hr>
            <ns3:cad>83</ns3:cad>
          </ns3:TrackPointExtension>
        </extensions>
      </trkpt>
      <trkpt lat="47.51070379279553890228271484375" lon="10.13317267410457134246826171875">
        <ele>1731.800048828125</ele>
        <time>2026-09-01T08:29:03.000Z</time>
        <extensions>
          <ns3:TrackPointExtension>
            <ns3:hr>161</ns3:hr>
            <ns3:cad>87</ns3:cad>
          </ns3:TrackPointExtension>
        </extensions>
      </trkpt>
      <trkpt lat="47.510707564651966094970703125" lon="10.13308298774063587188720703125">
        <ele>1732.800048828125</ele>
        <time>2026-09-01T08:29:06.000Z</time>
        <extensions>
          <ns3:TrackPointExtension>
            <ns3:hr>162</ns3:hr>
            <ns3:cad>86</ns3:cad>
          </ns3:TrackPointExtension>
        </extensions>
      </trkpt>
      <trkpt lat="47.51072105951607227325439453125" lon="10.133062116801738739013671875">
        <ele>1733</ele>
        <time>2026-09-01T08:29:07.000Z</time>
        <extensions>
          <ns3:TrackPointExtension>
            <ns3:hr>161</ns3:hr>
            <ns3:cad>86</ns3:cad>
          </ns3:TrackPointExtension>
        </extensions>
      </trkpt>
      <trkpt lat="47.51075056381523609161376953125" lon="10.133018530905246734619140625">
        <ele>1734.4000244140625</ele>
        <time>2026-09-01T08:29:10.000Z</time>
        <extensions>
          <ns3:TrackPointExtension>
            <ns3:hr>161</ns3:hr>
            <ns3:cad>85</ns3:cad>
          </ns3:TrackPointExtension>
        </extensions>
      </trkpt>
      <trkpt lat="47.51078191213309764862060546875" lon="10.13292037881910800933837890625">
        <ele>1735.4000244140625</ele>
        <time>2026-09-01T08:29:13.000Z</time>
        <extensions>
          <ns3:TrackPointExtension>
            <ns3:hr>161</ns3:hr>
            <ns3:cad>86</ns3:cad>
          </ns3:TrackPointExtension>
        </extensions>
      </trkpt>
      <trkpt lat="47.51079901121556758880615234375" lon="10.1328922994434833526611328125">
        <ele>1735.800048828125</ele>
        <time>2026-09-01T08:29:14.000Z</time>
        <extensions>
          <ns3:TrackPointExtension>
            <ns3:hr>161</ns3:hr>
            <ns3:cad>83</ns3:cad>
          </ns3:TrackPointExtension>
        </extensions>
      </trkpt>
      <trkpt lat="47.51083337701857089996337890625" lon="10.13271887786686420440673828125">
        <ele>1736.199951171875</ele>
        <time>2026-09-01T08:29:18.000Z</time>
        <extensions>
          <ns3:TrackPointExtension>
            <ns3:hr>161</ns3:hr>
            <ns3:cad>83</ns3:cad>
          </ns3:TrackPointExtension>
        </extensions>
      </trkpt>
      <trkpt lat="47.5108847580850124359130859375" lon="10.13256532140076160430908203125">
        <ele>1736.4000244140625</ele>
        <time>2026-09-01T08:29:22.000Z</time>
        <extensions>
          <ns3:TrackPointExtension>
            <ns3:hr>161</ns3:hr>
            <ns3:cad>86</ns3:cad>
          </ns3:TrackPointExtension>
        </extensions>
      </trkpt>
      <trkpt lat="47.510881237685680389404296875" lon="10.132507570087909698486328125">
        <ele>1736.4000244140625</ele>
        <time>2026-09-01T08:29:23.000Z</time>
        <extensions>
          <ns3:TrackPointExtension>
            <ns3:hr>161</ns3:hr>
            <ns3:cad>84</ns3:cad>
          </ns3:TrackPointExtension>
        </extensions>
      </trkpt>
      <trkpt lat="47.51088090240955352783203125" lon="10.13241461478173732757568359375">
        <ele>1736</ele>
        <time>2026-09-01T08:29:25.000Z</time>
        <extensions>
          <ns3:TrackPointExtension>
            <ns3:hr>161</ns3:hr>
            <ns3:cad>83</ns3:cad>
          </ns3:TrackPointExtension>
        </extensions>
      </trkpt>
      <trkpt lat="47.51090512610971927642822265625" lon="10.1323072426021099090576171875">
        <ele>1736.4000244140625</ele>
        <time>2026-09-01T08:29:28.000Z</time>
        <extensions>
          <ns3:TrackPointExtension>
            <ns3:hr>161</ns3:hr>
            <ns3:cad>83</ns3:cad>
          </ns3:TrackPointExtension>
        </extensions>
      </trkpt>
      <trkpt lat="47.51091116108000278472900390625" lon="10.13226709328591823577880859375">
        <ele>1736.800048828125</ele>
        <time>2026-09-01T08:29:29.000Z</time>
        <extensions>
          <ns3:TrackPointExtension>
            <ns3:hr>161</ns3:hr>
            <ns3:cad>83</ns3:cad>
          </ns3:TrackPointExtension>
        </extensions>
      </trkpt>
      <trkpt lat="47.51091786660254001617431640625" lon="10.13213331811130046844482421875">
        <ele>1737.4000244140625</ele>
        <time>2026-09-01T08:29:32.000Z</time>
        <extensions>
          <ns3:TrackPointExtension>
            <ns3:hr>161</ns3:hr>
            <ns3:cad>83</ns3:cad>
          </ns3:TrackPointExtension>
        </extensions>
      </trkpt>
      <trkpt lat="47.51091283746063709259033203125" lon="10.13206307776272296905517578125">
        <ele>1738</ele>
        <time>2026-09-01T08:29:34.000Z</time>
        <extensions>
          <ns3:TrackPointExtension>
            <ns3:hr>161</ns3:hr>
            <ns3:cad>83</ns3:cad>
          </ns3:TrackPointExtension>
        </extensions>
      </trkpt>
      <trkpt lat="47.5109189562499523162841796875" lon="10.1320366747677326202392578125">
        <ele>1738.199951171875</ele>
        <time>2026-09-01T08:29:35.000Z</time>
        <extensions>
          <ns3:TrackPointExtension>
            <ns3:hr>161</ns3:hr>
            <ns3:cad>84</ns3:cad>
          </ns3:TrackPointExtension>
        </extensions>
      </trkpt>
      <trkpt lat="47.51093111000955104827880859375" lon="10.13197137974202632904052734375">
        <ele>1739.199951171875</ele>
        <time>2026-09-01T08:29:38.000Z</time>
        <extensions>
          <ns3:TrackPointExtension>
            <ns3:hr>161</ns3:hr>
            <ns3:cad>84</ns3:cad>
          </ns3:TrackPointExtension>
        </extensions>
      </trkpt>
      <trkpt lat="47.51093563623726367950439453125" lon="10.1319407857954502105712890625">
        <ele>1739.5999755859375</ele>
        <time>2026-09-01T08:29:39.000Z</time>
        <extensions>
          <ns3:TrackPointExtension>
            <ns3:hr>161</ns3:hr>
            <ns3:cad>84</ns3:cad>
          </ns3:TrackPointExtension>
        </extensions>
      </trkpt>
      <trkpt lat="47.510941922664642333984375" lon="10.13188253156840801239013671875">
        <ele>1740.4000244140625</ele>
        <time>2026-09-01T08:29:41.000Z</time>
        <extensions>
          <ns3:TrackPointExtension>
            <ns3:hr>161</ns3:hr>
            <ns3:cad>84</ns3:cad>
          </ns3:TrackPointExtension>
        </extensions>
      </trkpt>
      <trkpt lat="47.51093924045562744140625" lon="10.13185746967792510986328125">
        <ele>1740.800048828125</ele>
        <time>2026-09-01T08:29:42.000Z</time>
        <extensions>
          <ns3:TrackPointExtension>
            <ns3:hr>161</ns3:hr>
            <ns3:cad>84</ns3:cad>
          </ns3:TrackPointExtension>
        </extensions>
      </trkpt>
      <trkpt lat="47.5109360553324222564697265625" lon="10.1318314857780933380126953125">
        <ele>1741.199951171875</ele>
        <time>2026-09-01T08:29:43.000Z</time>
        <extensions>
          <ns3:TrackPointExtension>
            <ns3:hr>161</ns3:hr>
            <ns3:cad>85</ns3:cad>
          </ns3:TrackPointExtension>
        </extensions>
      </trkpt>
      <trkpt lat="47.510941587388515472412109375" lon="10.13178043998777866363525390625">
        <ele>1741.800048828125</ele>
        <time>2026-09-01T08:29:45.000Z</time>
        <extensions>
          <ns3:TrackPointExtension>
            <ns3:hr>161</ns3:hr>
            <ns3:cad>86</ns3:cad>
          </ns3:TrackPointExtension>
        </extensions>
      </trkpt>
      <trkpt lat="47.51094049774110317230224609375" lon="10.1317463256418704986572265625">
        <ele>1742.199951171875</ele>
        <time>2026-09-01T08:29:46.000Z</time>
        <extensions>
          <ns3:TrackPointExtension>
            <ns3:hr>161</ns3:hr>
            <ns3:cad>86</ns3:cad>
          </ns3:TrackPointExtension>
        </extensions>
      </trkpt>
      <trkpt lat="47.510936893522739410400390625" lon="10.131694860756397247314453125">
        <ele>1743.199951171875</ele>
        <time>2026-09-01T08:29:48.000Z</time>
        <extensions>
          <ns3:TrackPointExtension>
            <ns3:hr>161</ns3:hr>
            <ns3:cad>86</ns3:cad>
          </ns3:TrackPointExtension>
        </extensions>
      </trkpt>
      <trkpt lat="47.51093429513275623321533203125" lon="10.1316792704164981842041015625">
        <ele>1743.5999755859375</ele>
        <time>2026-09-01T08:29:49.000Z</time>
        <extensions>
          <ns3:TrackPointExtension>
            <ns3:hr>161</ns3:hr>
            <ns3:cad>86</ns3:cad>
          </ns3:TrackPointExtension>
        </extensions>
      </trkpt>
      <trkpt lat="47.51092557795345783233642578125" lon="10.1316242851316928863525390625">
        <ele>1744.199951171875</ele>
        <time>2026-09-01T08:29:51.000Z</time>
        <extensions>
          <ns3:TrackPointExtension>
            <ns3:hr>161</ns3:hr>
            <ns3:cad>86</ns3:cad>
          </ns3:TrackPointExtension>
        </extensions>
      </trkpt>
      <trkpt lat="47.51091987825930118560791015625" lon="10.13157323934137821197509765625">
        <ele>1745</ele>
        <time>2026-09-01T08:29:53.000Z</time>
        <extensions>
          <ns3:TrackPointExtension>
            <ns3:hr>161</ns3:hr>
            <ns3:cad>87</ns3:cad>
          </ns3:TrackPointExtension>
        </extensions>
      </trkpt>
      <trkpt lat="47.5109112448990345001220703125" lon="10.13154004700481891632080078125">
        <ele>1745.5999755859375</ele>
        <time>2026-09-01T08:29:55.000Z</time>
        <extensions>
          <ns3:TrackPointExtension>
            <ns3:hr>161</ns3:hr>
            <ns3:cad>86</ns3:cad>
          </ns3:TrackPointExtension>
        </extensions>
      </trkpt>
      <trkpt lat="47.51089003868401050567626953125" lon="10.131459496915340423583984375">
        <ele>1747</ele>
        <time>2026-09-01T08:29:59.000Z</time>
        <extensions>
          <ns3:TrackPointExtension>
            <ns3:hr>161</ns3:hr>
            <ns3:cad>85</ns3:cad>
          </ns3:TrackPointExtension>
        </extensions>
      </trkpt>
      <trkpt lat="47.510865814983844757080078125" lon="10.13140124268829822540283203125">
        <ele>1748</ele>
        <time>2026-09-01T08:30:02.000Z</time>
        <extensions>
          <ns3:TrackPointExtension>
            <ns3:hr>161</ns3:hr>
            <ns3:cad>82</ns3:cad>
          </ns3:TrackPointExtension>
        </extensions>
      </trkpt>
      <trkpt lat="47.51085810363292694091796875" lon="10.131377018988132476806640625">
        <ele>1748.4000244140625</ele>
        <time>2026-09-01T08:30:03.000Z</time>
        <extensions>
          <ns3:TrackPointExtension>
            <ns3:hr>161</ns3:hr>
            <ns3:cad>82</ns3:cad>
          </ns3:TrackPointExtension>
        </extensions>
      </trkpt>
      <trkpt lat="47.51083957962691783905029296875" lon="10.13130619190633296966552734375">
        <ele>1749.4000244140625</ele>
        <time>2026-09-01T08:30:06.000Z</time>
        <extensions>
          <ns3:TrackPointExtension>
            <ns3:hr>161</ns3:hr>
            <ns3:cad>82</ns3:cad>
          </ns3:TrackPointExtension>
        </extensions>
      </trkpt>
      <trkpt lat="47.510834634304046630859375" lon="10.13129378668963909149169921875">
        <ele>1749.5999755859375</ele>
        <time>2026-09-01T08:30:07.000Z</time>
        <extensions>
          <ns3:TrackPointExtension>
            <ns3:hr>160</ns3:hr>
            <ns3:cad>83</ns3:cad>
          </ns3:TrackPointExtension>
        </extensions>
      </trkpt>
      <trkpt lat="47.510826922953128814697265625" lon="10.131237208843231201171875">
        <ele>1750.4000244140625</ele>
        <time>2026-09-01T08:30:09.000Z</time>
        <extensions>
          <ns3:TrackPointExtension>
            <ns3:hr>161</ns3:hr>
            <ns3:cad>83</ns3:cad>
          </ns3:TrackPointExtension>
        </extensions>
      </trkpt>
      <trkpt lat="47.510823570191860198974609375" lon="10.131226144731044769287109375">
        <ele>1750.800048828125</ele>
        <time>2026-09-01T08:30:10.000Z</time>
        <extensions>
          <ns3:TrackPointExtension>
            <ns3:hr>161</ns3:hr>
            <ns3:cad>84</ns3:cad>
          </ns3:TrackPointExtension>
        </extensions>
      </trkpt>
      <trkpt lat="47.51080873422324657440185546875" lon="10.13120208866894245147705078125">
        <ele>1751.199951171875</ele>
        <time>2026-09-01T08:30:11.000Z</time>
        <extensions>
          <ns3:TrackPointExtension>
            <ns3:hr>161</ns3:hr>
            <ns3:cad>84</ns3:cad>
          </ns3:TrackPointExtension>
        </extensions>
      </trkpt>
      <trkpt lat="47.51079264096915721893310546875" lon="10.1311733387410640716552734375">
        <ele>1751.4000244140625</ele>
        <time>2026-09-01T08:30:12.000Z</time>
        <extensions>
          <ns3:TrackPointExtension>
            <ns3:hr>161</ns3:hr>
            <ns3:cad>84</ns3:cad>
          </ns3:TrackPointExtension>
        </extensions>
      </trkpt>
      <trkpt lat="47.510783337056636810302734375" lon="10.1311448402702808380126953125">
        <ele>1751.5999755859375</ele>
        <time>2026-09-01T08:30:13.000Z</time>
        <extensions>
          <ns3:TrackPointExtension>
            <ns3:hr>161</ns3:hr>
            <ns3:cad>84</ns3:cad>
          </ns3:TrackPointExtension>
        </extensions>
      </trkpt>
      <trkpt lat="47.51076296903192996978759765625" lon="10.13104417361319065093994140625">
        <ele>1751.800048828125</ele>
        <time>2026-09-01T08:30:16.000Z</time>
        <extensions>
          <ns3:TrackPointExtension>
            <ns3:hr>161</ns3:hr>
            <ns3:cad>81</ns3:cad>
          </ns3:TrackPointExtension>
        </extensions>
      </trkpt>
      <trkpt lat="47.51068283803761005401611328125" lon="10.13095348142087459564208984375">
        <ele>1751.4000244140625</ele>
        <time>2026-09-01T08:30:19.000Z</time>
        <extensions>
          <ns3:TrackPointExtension>
            <ns3:hr>163</ns3:hr>
            <ns3:cad>81</ns3:cad>
          </ns3:TrackPointExtension>
        </extensions>
      </trkpt>
      <trkpt lat="47.51062919385731220245361328125" lon="10.13093487359583377838134765625">
        <ele>1750.199951171875</ele>
        <time>2026-09-01T08:30:21.000Z</time>
        <extensions>
          <ns3:TrackPointExtension>
            <ns3:hr>162</ns3:hr>
            <ns3:cad>82</ns3:cad>
          </ns3:TrackPointExtension>
        </extensions>
      </trkpt>
      <trkpt lat="47.5106027908623218536376953125" lon="10.1309031061828136444091796875">
        <ele>1749.800048828125</ele>
        <time>2026-09-01T08:30:22.000Z</time>
        <extensions>
          <ns3:TrackPointExtension>
            <ns3:hr>161</ns3:hr>
            <ns3:cad>80</ns3:cad>
          </ns3:TrackPointExtension>
        </extensions>
      </trkpt>
      <trkpt lat="47.51058460213243961334228515625" lon="10.1308829896152019500732421875">
        <ele>1749</ele>
        <time>2026-09-01T08:30:23.000Z</time>
        <extensions>
          <ns3:TrackPointExtension>
            <ns3:hr>162</ns3:hr>
            <ns3:cad>79</ns3:cad>
          </ns3:TrackPointExtension>
        </extensions>
      </trkpt>
      <trkpt lat="47.51054621301591396331787109375" lon="10.1308223046362400054931640625">
        <ele>1747.800048828125</ele>
        <time>2026-09-01T08:30:25.000Z</time>
        <extensions>
          <ns3:TrackPointExtension>
            <ns3:hr>161</ns3:hr>
            <ns3:cad>81</ns3:cad>
          </ns3:TrackPointExtension>
        </extensions>
      </trkpt>
      <trkpt lat="47.51052140258252620697021484375" lon="10.13077829964458942413330078125">
        <ele>1747</ele>
        <time>2026-09-01T08:30:26.000Z</time>
        <extensions>
          <ns3:TrackPointExtension>
            <ns3:hr>161</ns3:hr>
            <ns3:cad>81</ns3:cad>
          </ns3:TrackPointExtension>
        </extensions>
      </trkpt>
      <trkpt lat="47.51050262711942195892333984375" lon="10.13073286972939968109130859375">
        <ele>1746.199951171875</ele>
        <time>2026-09-01T08:30:27.000Z</time>
        <extensions>
          <ns3:TrackPointExtension>
            <ns3:hr>161</ns3:hr>
            <ns3:cad>81</ns3:cad>
          </ns3:TrackPointExtension>
        </extensions>
      </trkpt>
      <trkpt lat="47.5104515813291072845458984375" lon="10.1306576840579509735107421875">
        <ele>1744.5999755859375</ele>
        <time>2026-09-01T08:30:29.000Z</time>
        <extensions>
          <ns3:TrackPointExtension>
            <ns3:hr>160</ns3:hr>
            <ns3:cad>83</ns3:cad>
          </ns3:TrackPointExtension>
        </extensions>
      </trkpt>
      <trkpt lat="47.5104264356195926666259765625" lon="10.1306350529193878173828125">
        <ele>1744.199951171875</ele>
        <time>2026-09-01T08:30:30.000Z</time>
        <extensions>
          <ns3:TrackPointExtension>
            <ns3:hr>160</ns3:hr>
            <ns3:cad>83</ns3:cad>
          </ns3:TrackPointExtension>
        </extensions>
      </trkpt>
      <trkpt lat="47.51036197878420352935791015625" lon="10.1305912993848323822021484375">
        <ele>1743.4000244140625</ele>
        <time>2026-09-01T08:30:32.000Z</time>
        <extensions>
          <ns3:TrackPointExtension>
            <ns3:hr>159</ns3:hr>
            <ns3:cad>83</ns3:cad>
          </ns3:TrackPointExtension>
        </extensions>
      </trkpt>
      <trkpt lat="47.510330714285373687744140625" lon="10.13056808151304721832275390625">
        <ele>1743</ele>
        <time>2026-09-01T08:30:33.000Z</time>
        <extensions>
          <ns3:TrackPointExtension>
            <ns3:hr>158</ns3:hr>
            <ns3:cad>83</ns3:cad>
          </ns3:TrackPointExtension>
        </extensions>
      </trkpt>
      <trkpt lat="47.51027732156217098236083984375" lon="10.1305224001407623291015625">
        <ele>1742.199951171875</ele>
        <time>2026-09-01T08:30:36.000Z</time>
        <extensions>
          <ns3:TrackPointExtension>
            <ns3:hr>157</ns3:hr>
            <ns3:cad>83</ns3:cad>
          </ns3:TrackPointExtension>
        </extensions>
      </trkpt>
      <trkpt lat="47.51025854609906673431396484375" lon="10.13050186447799205780029296875">
        <ele>1742</ele>
        <time>2026-09-01T08:30:37.000Z</time>
        <extensions>
          <ns3:TrackPointExtension>
            <ns3:hr>157</ns3:hr>
            <ns3:cad>83</ns3:cad>
          </ns3:TrackPointExtension>
        </extensions>
      </trkpt>
      <trkpt lat="47.51021496020257472991943359375" lon="10.13042709790170192718505859375">
        <ele>1741.199951171875</ele>
        <time>2026-09-01T08:30:39.000Z</time>
        <extensions>
          <ns3:TrackPointExtension>
            <ns3:hr>156</ns3:hr>
            <ns3:cad>81</ns3:cad>
          </ns3:TrackPointExtension>
        </extensions>
      </trkpt>
      <trkpt lat="47.51016567461192607879638671875" lon="10.13034579344093799591064453125">
        <ele>1739.4000244140625</ele>
        <time>2026-09-01T08:30:41.000Z</time>
        <extensions>
          <ns3:TrackPointExtension>
            <ns3:hr>155</ns3:hr>
            <ns3:cad>81</ns3:cad>
          </ns3:TrackPointExtension>
        </extensions>
      </trkpt>
      <trkpt lat="47.51010113395750522613525390625" lon="10.1302570290863513946533203125">
        <ele>1737.5999755859375</ele>
        <time>2026-09-01T08:30:43.000Z</time>
        <extensions>
          <ns3:TrackPointExtension>
            <ns3:hr>154</ns3:hr>
            <ns3:cad>81</ns3:cad>
          </ns3:TrackPointExtension>
        </extensions>
      </trkpt>
      <trkpt lat="47.51005922444164752960205078125" lon="10.13024051673710346221923828125">
        <ele>1736.800048828125</ele>
        <time>2026-09-01T08:30:44.000Z</time>
        <extensions>
          <ns3:TrackPointExtension>
            <ns3:hr>154</ns3:hr>
            <ns3:cad>81</ns3:cad>
          </ns3:TrackPointExtension>
        </extensions>
      </trkpt>
      <trkpt lat="47.5100230984389781951904296875" lon="10.13021654449403285980224609375">
        <ele>1736</ele>
        <time>2026-09-01T08:30:45.000Z</time>
        <extensions>
          <ns3:TrackPointExtension>
            <ns3:hr>153</ns3:hr>
            <ns3:cad>81</ns3:cad>
          </ns3:TrackPointExtension>
        </extensions>
      </trkpt>
      <trkpt lat="47.5099808536469936370849609375" lon="10.1301710307598114013671875">
        <ele>1735.4000244140625</ele>
        <time>2026-09-01T08:30:47.000Z</time>
        <extensions>
          <ns3:TrackPointExtension>
            <ns3:hr>153</ns3:hr>
            <ns3:cad>81</ns3:cad>
          </ns3:TrackPointExtension>
        </extensions>
      </trkpt>
      <trkpt lat="47.5099590606987476348876953125" lon="10.13012384064495563507080078125">
        <ele>1735.199951171875</ele>
        <time>2026-09-01T08:30:48.000Z</time>
        <extensions>
          <ns3:TrackPointExtension>
            <ns3:hr>153</ns3:hr>
            <ns3:cad>81</ns3:cad>
          </ns3:TrackPointExtension>
        </extensions>
      </trkpt>
      <trkpt lat="47.509890496730804443359375" lon="10.1300260238349437713623046875">
        <ele>1735.199951171875</ele>
        <time>2026-09-01T08:30:51.000Z</time>
        <extensions>
          <ns3:TrackPointExtension>
            <ns3:hr>154</ns3:hr>
            <ns3:cad>87</ns3:cad>
          </ns3:TrackPointExtension>
        </extensions>
      </trkpt>
      <trkpt lat="47.5098407082259654998779296875" lon="10.12994865886867046356201171875">
        <ele>1735</ele>
        <time>2026-09-01T08:30:53.000Z</time>
        <extensions>
          <ns3:TrackPointExtension>
            <ns3:hr>154</ns3:hr>
            <ns3:cad>87</ns3:cad>
          </ns3:TrackPointExtension>
        </extensions>
      </trkpt>
      <trkpt lat="47.50982101075351238250732421875" lon="10.1299130357801914215087890625">
        <ele>1734.5999755859375</ele>
        <time>2026-09-01T08:30:54.000Z</time>
        <extensions>
          <ns3:TrackPointExtension>
            <ns3:hr>154</ns3:hr>
            <ns3:cad>82</ns3:cad>
          </ns3:TrackPointExtension>
        </extensions>
      </trkpt>
      <trkpt lat="47.5097666122019290924072265625" lon="10.12985251843929290771484375">
        <ele>1733.800048828125</ele>
        <time>2026-09-01T08:30:56.000Z</time>
        <extensions>
          <ns3:TrackPointExtension>
            <ns3:hr>155</ns3:hr>
            <ns3:cad>82</ns3:cad>
          </ns3:TrackPointExtension>
        </extensions>
      </trkpt>
      <trkpt lat="47.5097444839775562286376953125" lon="10.129815973341464996337890625">
        <ele>1733.199951171875</ele>
        <time>2026-09-01T08:30:57.000Z</time>
        <extensions>
          <ns3:TrackPointExtension>
            <ns3:hr>155</ns3:hr>
            <ns3:cad>82</ns3:cad>
          </ns3:TrackPointExtension>
        </extensions>
      </trkpt>
      <trkpt lat="47.5097116269171237945556640625" lon="10.1297809369862079620361328125">
        <ele>1732.800048828125</ele>
        <time>2026-09-01T08:30:58.000Z</time>
        <extensions>
          <ns3:TrackPointExtension>
            <ns3:hr>155</ns3:hr>
            <ns3:cad>82</ns3:cad>
          </ns3:TrackPointExtension>
        </extensions>
      </trkpt>
      <trkpt lat="47.509633004665374755859375" lon="10.1297494210302829742431640625">
        <ele>1731.4000244140625</ele>
        <time>2026-09-01T08:31:00.000Z</time>
        <extensions>
          <ns3:TrackPointExtension>
            <ns3:hr>155</ns3:hr>
            <ns3:cad>86</ns3:cad>
          </ns3:TrackPointExtension>
        </extensions>
      </trkpt>
      <trkpt lat="47.50956351868808269500732421875" lon="10.1296977885067462921142578125">
        <ele>1730</ele>
        <time>2026-09-01T08:31:02.000Z</time>
        <extensions>
          <ns3:TrackPointExtension>
            <ns3:hr>155</ns3:hr>
            <ns3:cad>86</ns3:cad>
          </ns3:TrackPointExtension>
        </extensions>
      </trkpt>
      <trkpt lat="47.5095245428383350372314453125" lon="10.1296833716332912445068359375">
        <ele>1729.4000244140625</ele>
        <time>2026-09-01T08:31:03.000Z</time>
        <extensions>
          <ns3:TrackPointExtension>
            <ns3:hr>155</ns3:hr>
            <ns3:cad>86</ns3:cad>
          </ns3:TrackPointExtension>
        </extensions>
      </trkpt>
      <trkpt lat="47.5094739161431789398193359375" lon="10.12967792339622974395751953125">
        <ele>1729</ele>
        <time>2026-09-01T08:31:04.000Z</time>
        <extensions>
          <ns3:TrackPointExtension>
            <ns3:hr>154</ns3:hr>
            <ns3:cad>86</ns3:cad>
          </ns3:TrackPointExtension>
        </extensions>
      </trkpt>
      <trkpt lat="47.50939898192882537841796875" lon="10.12964489869773387908935546875">
        <ele>1728.199951171875</ele>
        <time>2026-09-01T08:31:06.000Z</time>
        <extensions>
          <ns3:TrackPointExtension>
            <ns3:hr>154</ns3:hr>
            <ns3:cad>86</ns3:cad>
          </ns3:TrackPointExtension>
        </extensions>
      </trkpt>
      <trkpt lat="47.50934693031013011932373046875" lon="10.12960617430508136749267578125">
        <ele>1728</ele>
        <time>2026-09-01T08:31:08.000Z</time>
        <extensions>
          <ns3:TrackPointExtension>
            <ns3:hr>154</ns3:hr>
            <ns3:cad>86</ns3:cad>
          </ns3:TrackPointExtension>
        </extensions>
      </trkpt>
      <trkpt lat="47.5093046016991138458251953125" lon="10.12958354316651821136474609375">
        <ele>1728.4000244140625</ele>
        <time>2026-09-01T08:31:10.000Z</time>
        <extensions>
          <ns3:TrackPointExtension>
            <ns3:hr>154</ns3:hr>
            <ns3:cad>86</ns3:cad>
          </ns3:TrackPointExtension>
        </extensions>
      </trkpt>
      <trkpt lat="47.5092938728630542755126953125" lon="10.1295827887952327728271484375">
        <ele>1729</ele>
        <time>2026-09-01T08:31:11.000Z</time>
        <extensions>
          <ns3:TrackPointExtension>
            <ns3:hr>154</ns3:hr>
            <ns3:cad>88</ns3:cad>
          </ns3:TrackPointExtension>
        </extensions>
      </trkpt>
      <trkpt lat="47.509284317493438720703125" lon="10.12958790175616741180419921875">
        <ele>1730.4000244140625</ele>
        <time>2026-09-01T08:31:13.000Z</time>
        <extensions>
          <ns3:TrackPointExtension>
            <ns3:hr>154</ns3:hr>
            <ns3:cad>43</ns3:cad>
          </ns3:TrackPointExtension>
        </extensions>
      </trkpt>
      <trkpt lat="47.509278953075408935546875" lon="10.1295650191605091094970703125">
        <ele>1731</ele>
        <time>2026-09-01T08:31:14.000Z</time>
        <extensions>
          <ns3:TrackPointExtension>
            <ns3:hr>154</ns3:hr>
            <ns3:cad>43</ns3:cad>
          </ns3:TrackPointExtension>
        </extensions>
      </trkpt>
      <trkpt lat="47.50927736051380634307861328125" lon="10.1295586489140987396240234375">
        <ele>1731.5999755859375</ele>
        <time>2026-09-01T08:31:15.000Z</time>
        <extensions>
          <ns3:TrackPointExtension>
            <ns3:hr>154</ns3:hr>
            <ns3:cad>43</ns3:cad>
          </ns3:TrackPointExtension>
        </extensions>
      </trkpt>
      <trkpt lat="47.50926512293517589569091796875" lon="10.12948195450007915496826171875">
        <ele>1732.800048828125</ele>
        <time>2026-09-01T08:31:18.000Z</time>
        <extensions>
          <ns3:TrackPointExtension>
            <ns3:hr>154</ns3:hr>
            <ns3:cad>83</ns3:cad>
          </ns3:TrackPointExtension>
        </extensions>
      </trkpt>
      <trkpt lat="47.50919873826205730438232421875" lon="10.1294000633060932159423828125">
        <ele>1732.800048828125</ele>
        <time>2026-09-01T08:31:21.000Z</time>
        <extensions>
          <ns3:TrackPointExtension>
            <ns3:hr>155</ns3:hr>
            <ns3:cad>83</ns3:cad>
          </ns3:TrackPointExtension>
        </extensions>
      </trkpt>
      <trkpt lat="47.50911089591681957244873046875" lon="10.12932085432112216949462890625">
        <ele>1733</ele>
        <time>2026-09-01T08:31:25.000Z</time>
        <extensions>
          <ns3:TrackPointExtension>
            <ns3:hr>158</ns3:hr>
            <ns3:cad>85</ns3:cad>
          </ns3:TrackPointExtension>
        </extensions>
      </trkpt>
      <trkpt lat="47.50908960588276386260986328125" lon="10.12931331060826778411865234375">
        <ele>1733.199951171875</ele>
        <time>2026-09-01T08:31:26.000Z</time>
        <extensions>
          <ns3:TrackPointExtension>
            <ns3:hr>158</ns3:hr>
            <ns3:cad>85</ns3:cad>
          </ns3:TrackPointExtension>
        </extensions>
      </trkpt>
      <trkpt lat="47.509080804884433746337890625" lon="10.1292870752513408660888671875">
        <ele>1733.5999755859375</ele>
        <time>2026-09-01T08:31:27.000Z</time>
        <extensions>
          <ns3:TrackPointExtension>
            <ns3:hr>159</ns3:hr>
            <ns3:cad>85</ns3:cad>
          </ns3:TrackPointExtension>
        </extensions>
      </trkpt>
      <trkpt lat="47.5090683996677398681640625" lon="10.12923963367938995361328125">
        <ele>1733.800048828125</ele>
        <time>2026-09-01T08:31:29.000Z</time>
        <extensions>
          <ns3:TrackPointExtension>
            <ns3:hr>158</ns3:hr>
            <ns3:cad>85</ns3:cad>
          </ns3:TrackPointExtension>
        </extensions>
      </trkpt>
      <trkpt lat="47.50905565917491912841796875" lon="10.12922488152980804443359375">
        <ele>1734</ele>
        <time>2026-09-01T08:31:30.000Z</time>
        <extensions>
          <ns3:TrackPointExtension>
            <ns3:hr>158</ns3:hr>
            <ns3:cad>85</ns3:cad>
          </ns3:TrackPointExtension>
        </extensions>
      </trkpt>
      <trkpt lat="47.5090467743575572967529296875" lon="10.12916721403598785400390625">
        <ele>1733.5999755859375</ele>
        <time>2026-09-01T08:31:32.000Z</time>
        <extensions>
          <ns3:TrackPointExtension>
            <ns3:hr>157</ns3:hr>
            <ns3:cad>85</ns3:cad>
          </ns3:TrackPointExtension>
        </extensions>
      </trkpt>
      <trkpt lat="47.509018443524837493896484375" lon="10.1290845684707164764404296875">
        <ele>1732.800048828125</ele>
        <time>2026-09-01T08:31:35.000Z</time>
        <extensions>
          <ns3:TrackPointExtension>
            <ns3:hr>156</ns3:hr>
            <ns3:cad>82</ns3:cad>
          </ns3:TrackPointExtension>
        </extensions>
      </trkpt>
      <trkpt lat="47.50899103470146656036376953125" lon="10.12903310358524322509765625">
        <ele>1732.5999755859375</ele>
        <time>2026-09-01T08:31:37.000Z</time>
        <extensions>
          <ns3:TrackPointExtension>
            <ns3:hr>156</ns3:hr>
            <ns3:cad>76</ns3:cad>
          </ns3:TrackPointExtension>
        </extensions>
      </trkpt>
      <trkpt lat="47.508926577866077423095703125" lon="10.1289226301014423370361328125">
        <ele>1731.5999755859375</ele>
        <time>2026-09-01T08:31:41.000Z</time>
        <extensions>
          <ns3:TrackPointExtension>
            <ns3:hr>157</ns3:hr>
            <ns3:cad>75</ns3:cad>
          </ns3:TrackPointExtension>
        </extensions>
      </trkpt>
      <trkpt lat="47.5088831596076488494873046875" lon="10.12885146774351596832275390625">
        <ele>1730.4000244140625</ele>
        <time>2026-09-01T08:31:44.000Z</time>
        <extensions>
          <ns3:TrackPointExtension>
            <ns3:hr>157</ns3:hr>
            <ns3:cad>75</ns3:cad>
          </ns3:TrackPointExtension>
        </extensions>
      </trkpt>
      <trkpt lat="47.50885206274688243865966796875" lon="10.12883570976555347442626953125">
        <ele>1729.800048828125</ele>
        <time>2026-09-01T08:31:45.000Z</time>
        <extensions>
          <ns3:TrackPointExtension>
            <ns3:hr>157</ns3:hr>
            <ns3:cad>75</ns3:cad>
          </ns3:TrackPointExtension>
        </extensions>
      </trkpt>
      <trkpt lat="47.5088288448750972747802734375" lon="10.12883252464234828948974609375">
        <ele>1729.199951171875</ele>
        <time>2026-09-01T08:31:46.000Z</time>
        <extensions>
          <ns3:TrackPointExtension>
            <ns3:hr>156</ns3:hr>
            <ns3:cad>75</ns3:cad>
          </ns3:TrackPointExtension>
        </extensions>
      </trkpt>
      <trkpt lat="47.50880009494721889495849609375" lon="10.1288019306957721710205078125">
        <ele>1728.5999755859375</ele>
        <time>2026-09-01T08:31:47.000Z</time>
        <extensions>
          <ns3:TrackPointExtension>
            <ns3:hr>156</ns3:hr>
            <ns3:cad>75</ns3:cad>
          </ns3:TrackPointExtension>
        </extensions>
      </trkpt>
      <trkpt lat="47.50877813436090946197509765625" lon="10.12876463122665882110595703125">
        <ele>1727.5999755859375</ele>
        <time>2026-09-01T08:31:48.000Z</time>
        <extensions>
          <ns3:TrackPointExtension>
            <ns3:hr>155</ns3:hr>
            <ns3:cad>75</ns3:cad>
          </ns3:TrackPointExtension>
        </extensions>
      </trkpt>
      <trkpt lat="47.5087285973131656646728515625" lon="10.12869103811681270599365234375">
        <ele>1726.199951171875</ele>
        <time>2026-09-01T08:31:50.000Z</time>
        <extensions>
          <ns3:TrackPointExtension>
            <ns3:hr>154</ns3:hr>
            <ns3:cad>86</ns3:cad>
          </ns3:TrackPointExtension>
        </extensions>
      </trkpt>
      <trkpt lat="47.50870973803102970123291015625" lon="10.1286624558269977569580078125">
        <ele>1725.800048828125</ele>
        <time>2026-09-01T08:31:51.000Z</time>
        <extensions>
          <ns3:TrackPointExtension>
            <ns3:hr>154</ns3:hr>
            <ns3:cad>86</ns3:cad>
          </ns3:TrackPointExtension>
        </extensions>
      </trkpt>
      <trkpt lat="47.50867612659931182861328125" lon="10.1286101527512073516845703125">
        <ele>1725.199951171875</ele>
        <time>2026-09-01T08:31:53.000Z</time>
        <extensions>
          <ns3:TrackPointExtension>
            <ns3:hr>153</ns3:hr>
            <ns3:cad>86</ns3:cad>
          </ns3:TrackPointExtension>
        </extensions>
      </trkpt>
      <trkpt lat="47.50862843357026576995849609375" lon="10.12857520021498203277587890625">
        <ele>1724.199951171875</ele>
        <time>2026-09-01T08:31:55.000Z</time>
        <extensions>
          <ns3:TrackPointExtension>
            <ns3:hr>153</ns3:hr>
            <ns3:cad>83</ns3:cad>
          </ns3:TrackPointExtension>
        </extensions>
      </trkpt>
      <trkpt lat="47.50861334614455699920654296875" lon="10.12853161431849002838134765625">
        <ele>1723.5999755859375</ele>
        <time>2026-09-01T08:31:56.000Z</time>
        <extensions>
          <ns3:TrackPointExtension>
            <ns3:hr>153</ns3:hr>
            <ns3:cad>83</ns3:cad>
          </ns3:TrackPointExtension>
        </extensions>
      </trkpt>
      <trkpt lat="47.5085907988250255584716796875" lon="10.1284700073301792144775390625">
        <ele>1722.199951171875</ele>
        <time>2026-09-01T08:31:58.000Z</time>
        <extensions>
          <ns3:TrackPointExtension>
            <ns3:hr>151</ns3:hr>
            <ns3:cad>97</ns3:cad>
          </ns3:TrackPointExtension>
        </extensions>
      </trkpt>
      <trkpt lat="47.5085534155368804931640625" lon="10.12841887772083282470703125">
        <ele>1720.5999755859375</ele>
        <time>2026-09-01T08:32:00.000Z</time>
        <extensions>
          <ns3:TrackPointExtension>
            <ns3:hr>150</ns3:hr>
            <ns3:cad>97</ns3:cad>
          </ns3:TrackPointExtension>
        </extensions>
      </trkpt>
      <trkpt lat="47.5085220672190189361572265625" lon="10.12837135232985019683837890625">
        <ele>1718.800048828125</ele>
        <time>2026-09-01T08:32:02.000Z</time>
        <extensions>
          <ns3:TrackPointExtension>
            <ns3:hr>150</ns3:hr>
            <ns3:cad>97</ns3:cad>
          </ns3:TrackPointExtension>
        </extensions>
      </trkpt>
      <trkpt lat="47.5085029564797878265380859375" lon="10.1283328793942928314208984375">
        <ele>1718</ele>
        <time>2026-09-01T08:32:03.000Z</time>
        <extensions>
          <ns3:TrackPointExtension>
            <ns3:hr>150</ns3:hr>
            <ns3:cad>97</ns3:cad>
          </ns3:TrackPointExtension>
        </extensions>
      </trkpt>
      <trkpt lat="47.5084885396063327789306640625" lon="10.12831703759729862213134765625">
        <ele>1717.4000244140625</ele>
        <time>2026-09-01T08:32:04.000Z</time>
        <extensions>
          <ns3:TrackPointExtension>
            <ns3:hr>150</ns3:hr>
            <ns3:cad>97</ns3:cad>
          </ns3:TrackPointExtension>
        </extensions>
      </trkpt>
      <trkpt lat="47.50845693983137607574462890625" lon="10.1282668299973011016845703125">
        <ele>1715.800048828125</ele>
        <time>2026-09-01T08:32:06.000Z</time>
        <extensions>
          <ns3:TrackPointExtension>
            <ns3:hr>150</ns3:hr>
            <ns3:cad>97</ns3:cad>
          </ns3:TrackPointExtension>
        </extensions>
      </trkpt>
      <trkpt lat="47.50843070447444915771484375" lon="10.12822282500565052032470703125">
        <ele>1714</ele>
        <time>2026-09-01T08:32:08.000Z</time>
        <extensions>
          <ns3:TrackPointExtension>
            <ns3:hr>150</ns3:hr>
            <ns3:cad>97</ns3:cad>
          </ns3:TrackPointExtension>
        </extensions>
      </trkpt>
      <trkpt lat="47.50840463675558567047119140625" lon="10.12822835706174373626708984375">
        <ele>1713.199951171875</ele>
        <time>2026-09-01T08:32:09.000Z</time>
        <extensions>
          <ns3:TrackPointExtension>
            <ns3:hr>150</ns3:hr>
            <ns3:cad>97</ns3:cad>
          </ns3:TrackPointExtension>
        </extensions>
      </trkpt>
      <trkpt lat="47.5083802454173564910888671875" lon="10.1282379962503910064697265625">
        <ele>1712.4000244140625</ele>
        <time>2026-09-01T08:32:10.000Z</time>
        <extensions>
          <ns3:TrackPointExtension>
            <ns3:hr>149</ns3:hr>
            <ns3:cad>97</ns3:cad>
          </ns3:TrackPointExtension>
        </extensions>
      </trkpt>
      <trkpt lat="47.50834160484373569488525390625" lon="10.12823036871850490570068359375">
        <ele>1710.800048828125</ele>
        <time>2026-09-01T08:32:12.000Z</time>
        <extensions>
          <ns3:TrackPointExtension>
            <ns3:hr>148</ns3:hr>
            <ns3:cad>97</ns3:cad>
          </ns3:TrackPointExtension>
        </extensions>
      </trkpt>
      <trkpt lat="47.50833104364573955535888671875" lon="10.12819030322134494781494140625">
        <ele>1710.199951171875</ele>
        <time>2026-09-01T08:32:13.000Z</time>
        <extensions>
          <ns3:TrackPointExtension>
            <ns3:hr>148</ns3:hr>
            <ns3:cad>97</ns3:cad>
          </ns3:TrackPointExtension>
        </extensions>
      </trkpt>
      <trkpt lat="47.5083279423415660858154296875" lon="10.128179825842380523681640625">
        <ele>1709.4000244140625</ele>
        <time>2026-09-01T08:32:14.000Z</time>
        <extensions>
          <ns3:TrackPointExtension>
            <ns3:hr>148</ns3:hr>
            <ns3:cad>97</ns3:cad>
          </ns3:TrackPointExtension>
        </extensions>
      </trkpt>
      <trkpt lat="47.5082944147288799285888671875" lon="10.12812760658562183380126953125">
        <ele>1708</ele>
        <time>2026-09-01T08:32:16.000Z</time>
        <extensions>
          <ns3:TrackPointExtension>
            <ns3:hr>149</ns3:hr>
            <ns3:cad>97</ns3:cad>
          </ns3:TrackPointExtension>
        </extensions>
      </trkpt>
      <trkpt lat="47.50824890099465847015380859375" lon="10.12806356884539127349853515625">
        <ele>1706</ele>
        <time>2026-09-01T08:32:18.000Z</time>
        <extensions>
          <ns3:TrackPointExtension>
            <ns3:hr>148</ns3:hr>
            <ns3:cad>97</ns3:cad>
          </ns3:TrackPointExtension>
        </extensions>
      </trkpt>
      <trkpt lat="47.508223168551921844482421875" lon="10.12802551500499248504638671875">
        <ele>1705</ele>
        <time>2026-09-01T08:32:19.000Z</time>
        <extensions>
          <ns3:TrackPointExtension>
            <ns3:hr>148</ns3:hr>
            <ns3:cad>97</ns3:cad>
          </ns3:TrackPointExtension>
        </extensions>
      </trkpt>
      <trkpt lat="47.50820850022137165069580078125" lon="10.12798276729881763458251953125">
        <ele>1704</ele>
        <time>2026-09-01T08:32:20.000Z</time>
        <extensions>
          <ns3:TrackPointExtension>
            <ns3:hr>148</ns3:hr>
            <ns3:cad>85</ns3:cad>
          </ns3:TrackPointExtension>
        </extensions>
      </trkpt>
      <trkpt lat="47.50818670727312564849853515625" lon="10.12789324857294559478759765625">
        <ele>1702.199951171875</ele>
        <time>2026-09-01T08:32:22.000Z</time>
        <extensions>
          <ns3:TrackPointExtension>
            <ns3:hr>148</ns3:hr>
            <ns3:cad>87</ns3:cad>
          </ns3:TrackPointExtension>
        </extensions>
      </trkpt>
      <trkpt lat="47.5081686861813068389892578125" lon="10.12787296436727046966552734375">
        <ele>1701.5999755859375</ele>
        <time>2026-09-01T08:32:23.000Z</time>
        <extensions>
          <ns3:TrackPointExtension>
            <ns3:hr>148</ns3:hr>
            <ns3:cad>87</ns3:cad>
          </ns3:TrackPointExtension>
        </extensions>
      </trkpt>
      <trkpt lat="47.50814764760434627532958984375" lon="10.12788369320333003997802734375">
        <ele>1701</ele>
        <time>2026-09-01T08:32:24.000Z</time>
        <extensions>
          <ns3:TrackPointExtension>
            <ns3:hr>148</ns3:hr>
            <ns3:cad>87</ns3:cad>
          </ns3:TrackPointExtension>
        </extensions>
      </trkpt>
      <trkpt lat="47.5081009604036808013916015625" lon="10.12790012173354625701904296875">
        <ele>1700</ele>
        <time>2026-09-01T08:32:26.000Z</time>
        <extensions>
          <ns3:TrackPointExtension>
            <ns3:hr>148</ns3:hr>
            <ns3:cad>87</ns3:cad>
          </ns3:TrackPointExtension>
        </extensions>
      </trkpt>
      <trkpt lat="47.508079670369625091552734375" lon="10.12785603292286396026611328125">
        <ele>1699.800048828125</ele>
        <time>2026-09-01T08:32:27.000Z</time>
        <extensions>
          <ns3:TrackPointExtension>
            <ns3:hr>147</ns3:hr>
            <ns3:cad>87</ns3:cad>
          </ns3:TrackPointExtension>
        </extensions>
      </trkpt>
      <trkpt lat="47.508026026189327239990234375" lon="10.1277971081435680389404296875">
        <ele>1699.199951171875</ele>
        <time>2026-09-01T08:32:29.000Z</time>
        <extensions>
          <ns3:TrackPointExtension>
            <ns3:hr>146</ns3:hr>
            <ns3:cad>87</ns3:cad>
          </ns3:TrackPointExtension>
        </extensions>
      </trkpt>
      <trkpt lat="47.5079901516437530517578125" lon="10.1277337409555912017822265625">
        <ele>1699.4000244140625</ele>
        <time>2026-09-01T08:32:32.000Z</time>
        <extensions>
          <ns3:TrackPointExtension>
            <ns3:hr>145</ns3:hr>
            <ns3:cad>85</ns3:cad>
          </ns3:TrackPointExtension>
        </extensions>
      </trkpt>
      <trkpt lat="47.50793977640569210052490234375" lon="10.12757104821503162384033203125">
        <ele>1699.5999755859375</ele>
        <time>2026-09-01T08:32:36.000Z</time>
        <extensions>
          <ns3:TrackPointExtension>
            <ns3:hr>147</ns3:hr>
            <ns3:cad>85</ns3:cad>
          </ns3:TrackPointExtension>
        </extensions>
      </trkpt>
      <trkpt lat="47.5079175643622875213623046875" lon="10.1274554617702960968017578125">
        <ele>1698.4000244140625</ele>
        <time>2026-09-01T08:32:39.000Z</time>
        <extensions>
          <ns3:TrackPointExtension>
            <ns3:hr>148</ns3:hr>
            <ns3:cad>84</ns3:cad>
          </ns3:TrackPointExtension>
        </extensions>
      </trkpt>
      <trkpt lat="47.50789669342339038848876953125" lon="10.12740458361804485321044921875">
        <ele>1698</ele>
        <time>2026-09-01T08:32:40.000Z</time>
        <extensions>
          <ns3:TrackPointExtension>
            <ns3:hr>147</ns3:hr>
            <ns3:cad>84</ns3:cad>
          </ns3:TrackPointExtension>
        </extensions>
      </trkpt>
      <trkpt lat="47.5078813545405864715576171875" lon="10.12735404074192047119140625">
        <ele>1697</ele>
        <time>2026-09-01T08:32:41.000Z</time>
        <extensions>
          <ns3:TrackPointExtension>
            <ns3:hr>147</ns3:hr>
            <ns3:cad>84</ns3:cad>
          </ns3:TrackPointExtension>
        </extensions>
      </trkpt>
      <trkpt lat="47.50784187577664852142333984375" lon="10.1272462494671344757080078125">
        <ele>1695.5999755859375</ele>
        <time>2026-09-01T08:32:43.000Z</time>
        <extensions>
          <ns3:TrackPointExtension>
            <ns3:hr>146</ns3:hr>
            <ns3:cad>84</ns3:cad>
          </ns3:TrackPointExtension>
        </extensions>
      </trkpt>
      <trkpt lat="47.5077911652624607086181640625" lon="10.12709763832390308380126953125">
        <ele>1694.800048828125</ele>
        <time>2026-09-01T08:32:46.000Z</time>
        <extensions>
          <ns3:TrackPointExtension>
            <ns3:hr>148</ns3:hr>
            <ns3:cad>88</ns3:cad>
          </ns3:TrackPointExtension>
        </extensions>
      </trkpt>
      <trkpt lat="47.50775252468883991241455078125" lon="10.1269874162971973419189453125">
        <ele>1694.800048828125</ele>
        <time>2026-09-01T08:32:49.000Z</time>
        <extensions>
          <ns3:TrackPointExtension>
            <ns3:hr>151</ns3:hr>
            <ns3:cad>88</ns3:cad>
          </ns3:TrackPointExtension>
        </extensions>
      </trkpt>
      <trkpt lat="47.50774213112890720367431640625" lon="10.12695573270320892333984375">
        <ele>1694.5999755859375</ele>
        <time>2026-09-01T08:32:50.000Z</time>
        <extensions>
          <ns3:TrackPointExtension>
            <ns3:hr>151</ns3:hr>
            <ns3:cad>88</ns3:cad>
          </ns3:TrackPointExtension>
        </extensions>
      </trkpt>
      <trkpt lat="47.50770105980336666107177734375" lon="10.1268248073756694793701171875">
        <ele>1693.5999755859375</ele>
        <time>2026-09-01T08:32:53.000Z</time>
        <extensions>
          <ns3:TrackPointExtension>
            <ns3:hr>151</ns3:hr>
            <ns3:cad>83</ns3:cad>
          </ns3:TrackPointExtension>
        </extensions>
      </trkpt>
      <trkpt lat="47.50766350887715816497802734375" lon="10.12670000083744525909423828125">
        <ele>1692.199951171875</ele>
        <time>2026-09-01T08:32:56.000Z</time>
        <extensions>
          <ns3:TrackPointExtension>
            <ns3:hr>151</ns3:hr>
            <ns3:cad>84</ns3:cad>
          </ns3:TrackPointExtension>
        </extensions>
      </trkpt>
      <trkpt lat="47.50765093602240085601806640625" lon="10.12664786539971828460693359375">
        <ele>1691.5999755859375</ele>
        <time>2026-09-01T08:32:57.000Z</time>
        <extensions>
          <ns3:TrackPointExtension>
            <ns3:hr>151</ns3:hr>
            <ns3:cad>84</ns3:cad>
          </ns3:TrackPointExtension>
        </extensions>
      </trkpt>
      <trkpt lat="47.507625706493854522705078125" lon="10.12661240994930267333984375">
        <ele>1691</ele>
        <time>2026-09-01T08:32:58.000Z</time>
        <extensions>
          <ns3:TrackPointExtension>
            <ns3:hr>151</ns3:hr>
            <ns3:cad>83</ns3:cad>
          </ns3:TrackPointExtension>
        </extensions>
      </trkpt>
      <trkpt lat="47.5075977109372615814208984375" lon="10.1265428401529788970947265625">
        <ele>1690</ele>
        <time>2026-09-01T08:33:00.000Z</time>
        <extensions>
          <ns3:TrackPointExtension>
            <ns3:hr>151</ns3:hr>
            <ns3:cad>83</ns3:cad>
          </ns3:TrackPointExtension>
        </extensions>
      </trkpt>
      <trkpt lat="47.5075702182948589324951171875" lon="10.12649447657167911529541015625">
        <ele>1688.800048828125</ele>
        <time>2026-09-01T08:33:03.000Z</time>
        <extensions>
          <ns3:TrackPointExtension>
            <ns3:hr>151</ns3:hr>
            <ns3:cad>83</ns3:cad>
          </ns3:TrackPointExtension>
        </extensions>
      </trkpt>
      <trkpt lat="47.50756124965846538543701171875" lon="10.12647335417568683624267578125">
        <ele>1688.5999755859375</ele>
        <time>2026-09-01T08:33:04.000Z</time>
        <extensions>
          <ns3:TrackPointExtension>
            <ns3:hr>150</ns3:hr>
            <ns3:cad>83</ns3:cad>
          </ns3:TrackPointExtension>
        </extensions>
      </trkpt>
      <trkpt lat="47.5075199268758296966552734375" lon="10.1264244876801967620849609375">
        <ele>1687.5999755859375</ele>
        <time>2026-09-01T08:33:06.000Z</time>
        <extensions>
          <ns3:TrackPointExtension>
            <ns3:hr>150</ns3:hr>
            <ns3:cad>83</ns3:cad>
          </ns3:TrackPointExtension>
        </extensions>
      </trkpt>
      <trkpt lat="47.5075024925172328948974609375" lon="10.12637746520340442657470703125">
        <ele>1686.5999755859375</ele>
        <time>2026-09-01T08:33:07.000Z</time>
        <extensions>
          <ns3:TrackPointExtension>
            <ns3:hr>150</ns3:hr>
            <ns3:cad>83</ns3:cad>
          </ns3:TrackPointExtension>
        </extensions>
      </trkpt>
      <trkpt lat="47.507488913834095001220703125" lon="10.12633102945983409881591796875">
        <ele>1685.5999755859375</ele>
        <time>2026-09-01T08:33:08.000Z</time>
        <extensions>
          <ns3:TrackPointExtension>
            <ns3:hr>151</ns3:hr>
            <ns3:cad>83</ns3:cad>
          </ns3:TrackPointExtension>
        </extensions>
      </trkpt>
      <trkpt lat="47.50745882280170917510986328125" lon="10.12624184601008892059326171875">
        <ele>1684.199951171875</ele>
        <time>2026-09-01T08:33:10.000Z</time>
        <extensions>
          <ns3:TrackPointExtension>
            <ns3:hr>150</ns3:hr>
            <ns3:cad>83</ns3:cad>
          </ns3:TrackPointExtension>
        </extensions>
      </trkpt>
      <trkpt lat="47.50741657800972461700439453125" lon="10.126137323677539825439453125">
        <ele>1683.199951171875</ele>
        <time>2026-09-01T08:33:12.000Z</time>
        <extensions>
          <ns3:TrackPointExtension>
            <ns3:hr>149</ns3:hr>
            <ns3:cad>83</ns3:cad>
          </ns3:TrackPointExtension>
        </extensions>
      </trkpt>
      <trkpt lat="47.50739076174795627593994140625" lon="10.1260395906865596771240234375">
        <ele>1682.5999755859375</ele>
        <time>2026-09-01T08:33:15.000Z</time>
        <extensions>
          <ns3:TrackPointExtension>
            <ns3:hr>150</ns3:hr>
            <ns3:cad>83</ns3:cad>
          </ns3:TrackPointExtension>
        </extensions>
      </trkpt>
      <trkpt lat="47.50736494548618793487548828125" lon="10.1258766464889049530029296875">
        <ele>1682.4000244140625</ele>
        <time>2026-09-01T08:33:18.000Z</time>
        <extensions>
          <ns3:TrackPointExtension>
            <ns3:hr>149</ns3:hr>
            <ns3:cad>83</ns3:cad>
          </ns3:TrackPointExtension>
        </extensions>
      </trkpt>
      <trkpt lat="47.50730593688786029815673828125" lon="10.12581906281411647796630859375">
        <ele>1682.4000244140625</ele>
        <time>2026-09-01T08:33:20.000Z</time>
        <extensions>
          <ns3:TrackPointExtension>
            <ns3:hr>150</ns3:hr>
            <ns3:cad>83</ns3:cad>
          </ns3:TrackPointExtension>
        </extensions>
      </trkpt>
      <trkpt lat="47.50727458856999874114990234375" lon="10.1257995329797267913818359375">
        <ele>1682.199951171875</ele>
        <time>2026-09-01T08:33:21.000Z</time>
        <extensions>
          <ns3:TrackPointExtension>
            <ns3:hr>149</ns3:hr>
            <ns3:cad>83</ns3:cad>
          </ns3:TrackPointExtension>
        </extensions>
      </trkpt>
      <trkpt lat="47.50725447200238704681396484375" lon="10.12577748857438564300537109375">
        <ele>1682</ele>
        <time>2026-09-01T08:33:22.000Z</time>
        <extensions>
          <ns3:TrackPointExtension>
            <ns3:hr>150</ns3:hr>
            <ns3:cad>87</ns3:cad>
          </ns3:TrackPointExtension>
        </extensions>
      </trkpt>
      <trkpt lat="47.50719898380339145660400390625" lon="10.12573474086821079254150390625">
        <ele>1682.199951171875</ele>
        <time>2026-09-01T08:33:25.000Z</time>
        <extensions>
          <ns3:TrackPointExtension>
            <ns3:hr>150</ns3:hr>
            <ns3:cad>86</ns3:cad>
          </ns3:TrackPointExtension>
        </extensions>
      </trkpt>
      <trkpt lat="47.50716595910489559173583984375" lon="10.1257090084254741668701171875">
        <ele>1683.199951171875</ele>
        <time>2026-09-01T08:33:27.000Z</time>
        <extensions>
          <ns3:TrackPointExtension>
            <ns3:hr>152</ns3:hr>
            <ns3:cad>91</ns3:cad>
          </ns3:TrackPointExtension>
        </extensions>
      </trkpt>
      <trkpt lat="47.50715439207851886749267578125" lon="10.1256590522825717926025390625">
        <ele>1684.199951171875</ele>
        <time>2026-09-01T08:33:29.000Z</time>
        <extensions>
          <ns3:TrackPointExtension>
            <ns3:hr>153</ns3:hr>
            <ns3:cad>91</ns3:cad>
          </ns3:TrackPointExtension>
        </extensions>
      </trkpt>
      <trkpt lat="47.5071397237479686737060546875" lon="10.125583112239837646484375">
        <ele>1685.4000244140625</ele>
        <time>2026-09-01T08:33:32.000Z</time>
        <extensions>
          <ns3:TrackPointExtension>
            <ns3:hr>154</ns3:hr>
            <ns3:cad>91</ns3:cad>
          </ns3:TrackPointExtension>
        </extensions>
      </trkpt>
      <trkpt lat="47.507117092609405517578125" lon="10.12551270425319671630859375">
        <ele>1686.199951171875</ele>
        <time>2026-09-01T08:33:34.000Z</time>
        <extensions>
          <ns3:TrackPointExtension>
            <ns3:hr>154</ns3:hr>
            <ns3:cad>88</ns3:cad>
          </ns3:TrackPointExtension>
        </extensions>
      </trkpt>
      <trkpt lat="47.50710410065948963165283203125" lon="10.1254723034799098968505859375">
        <ele>1686.5999755859375</ele>
        <time>2026-09-01T08:33:35.000Z</time>
        <extensions>
          <ns3:TrackPointExtension>
            <ns3:hr>154</ns3:hr>
            <ns3:cad>89</ns3:cad>
          </ns3:TrackPointExtension>
        </extensions>
      </trkpt>
      <trkpt lat="47.50708851031959056854248046875" lon="10.12540549971163272857666015625">
        <ele>1687.4000244140625</ele>
        <time>2026-09-01T08:33:37.000Z</time>
        <extensions>
          <ns3:TrackPointExtension>
            <ns3:hr>155</ns3:hr>
            <ns3:cad>89</ns3:cad>
          </ns3:TrackPointExtension>
        </extensions>
      </trkpt>
      <trkpt lat="47.5070797093212604522705078125" lon="10.12537054717540740966796875">
        <ele>1687.800048828125</ele>
        <time>2026-09-01T08:33:38.000Z</time>
        <extensions>
          <ns3:TrackPointExtension>
            <ns3:hr>155</ns3:hr>
            <ns3:cad>88</ns3:cad>
          </ns3:TrackPointExtension>
        </extensions>
      </trkpt>
      <trkpt lat="47.5070594251155853271484375" lon="10.1253234408795833587646484375">
        <ele>1688.4000244140625</ele>
        <time>2026-09-01T08:33:40.000Z</time>
        <extensions>
          <ns3:TrackPointExtension>
            <ns3:hr>156</ns3:hr>
            <ns3:cad>87</ns3:cad>
          </ns3:TrackPointExtension>
        </extensions>
      </trkpt>
      <trkpt lat="47.507044337689876556396484375" lon="10.1253026537597179412841796875">
        <ele>1688.800048828125</ele>
        <time>2026-09-01T08:33:41.000Z</time>
        <extensions>
          <ns3:TrackPointExtension>
            <ns3:hr>156</ns3:hr>
            <ns3:cad>87</ns3:cad>
          </ns3:TrackPointExtension>
        </extensions>
      </trkpt>
      <trkpt lat="47.5070245563983917236328125" lon="10.12516443617641925811767578125">
        <ele>1689.4000244140625</ele>
        <time>2026-09-01T08:33:45.000Z</time>
        <extensions>
          <ns3:TrackPointExtension>
            <ns3:hr>158</ns3:hr>
            <ns3:cad>83</ns3:cad>
          </ns3:TrackPointExtension>
        </extensions>
      </trkpt>
      <trkpt lat="47.507020868360996246337890625" lon="10.12508983723819255828857421875">
        <ele>1690</ele>
        <time>2026-09-01T08:33:48.000Z</time>
        <extensions>
          <ns3:TrackPointExtension>
            <ns3:hr>160</ns3:hr>
            <ns3:cad>84</ns3:cad>
          </ns3:TrackPointExtension>
        </extensions>
      </trkpt>
      <trkpt lat="47.50700552947819232940673828125" lon="10.12502856552600860595703125">
        <ele>1691.199951171875</ele>
        <time>2026-09-01T08:33:51.000Z</time>
        <extensions>
          <ns3:TrackPointExtension>
            <ns3:hr>161</ns3:hr>
            <ns3:cad>84</ns3:cad>
          </ns3:TrackPointExtension>
        </extensions>
      </trkpt>
      <trkpt lat="47.50701181590557098388671875" lon="10.1249868236482143402099609375">
        <ele>1691.5999755859375</ele>
        <time>2026-09-01T08:33:53.000Z</time>
        <extensions>
          <ns3:TrackPointExtension>
            <ns3:hr>161</ns3:hr>
            <ns3:cad>85</ns3:cad>
          </ns3:TrackPointExtension>
        </extensions>
      </trkpt>
      <trkpt lat="47.507017515599727630615234375" lon="10.12495840899646282196044921875">
        <ele>1692.199951171875</ele>
        <time>2026-09-01T08:33:55.000Z</time>
        <extensions>
          <ns3:TrackPointExtension>
            <ns3:hr>162</ns3:hr>
            <ns3:cad>85</ns3:cad>
          </ns3:TrackPointExtension>
        </extensions>
      </trkpt>
      <trkpt lat="47.50703084282577037811279296875" lon="10.124926976859569549560546875">
        <ele>1692.800048828125</ele>
        <time>2026-09-01T08:33:57.000Z</time>
        <extensions>
          <ns3:TrackPointExtension>
            <ns3:hr>161</ns3:hr>
            <ns3:cad>43</ns3:cad>
          </ns3:TrackPointExtension>
        </extensions>
      </trkpt>
      <trkpt lat="47.50703997910022735595703125" lon="10.12490794993937015533447265625">
        <ele>1693.5999755859375</ele>
        <time>2026-09-01T08:34:00.000Z</time>
        <extensions>
          <ns3:TrackPointExtension>
            <ns3:hr>161</ns3:hr>
            <ns3:cad>43</ns3:cad>
          </ns3:TrackPointExtension>
        </extensions>
      </trkpt>
      <trkpt lat="47.50703922472894191741943359375" lon="10.12487727217376232147216796875">
        <ele>1694.5999755859375</ele>
        <time>2026-09-01T08:34:03.000Z</time>
        <extensions>
          <ns3:TrackPointExtension>
            <ns3:hr>160</ns3:hr>
            <ns3:cad>43</ns3:cad>
          </ns3:TrackPointExtension>
        </extensions>
      </trkpt>
      <trkpt lat="47.5070485286414623260498046875" lon="10.124839134514331817626953125">
        <ele>1695.800048828125</ele>
        <time>2026-09-01T08:34:06.000Z</time>
        <extensions>
          <ns3:TrackPointExtension>
            <ns3:hr>160</ns3:hr>
            <ns3:cad>43</ns3:cad>
          </ns3:TrackPointExtension>
        </extensions>
      </trkpt>
      <trkpt lat="47.50703302212059497833251953125" lon="10.12479177676141262054443359375">
        <ele>1696.5999755859375</ele>
        <time>2026-09-01T08:34:09.000Z</time>
        <extensions>
          <ns3:TrackPointExtension>
            <ns3:hr>160</ns3:hr>
            <ns3:cad>54</ns3:cad>
          </ns3:TrackPointExtension>
        </extensions>
      </trkpt>
      <trkpt lat="47.507029585540294647216796875" lon="10.12477803044021129608154296875">
        <ele>1697</ele>
        <time>2026-09-01T08:34:10.000Z</time>
        <extensions>
          <ns3:TrackPointExtension>
            <ns3:hr>160</ns3:hr>
            <ns3:cad>51</ns3:cad>
          </ns3:TrackPointExtension>
        </extensions>
      </trkpt>
      <trkpt lat="47.5070193596184253692626953125" lon="10.12477484531700611114501953125">
        <ele>1697.4000244140625</ele>
        <time>2026-09-01T08:34:11.000Z</time>
        <extensions>
          <ns3:TrackPointExtension>
            <ns3:hr>160</ns3:hr>
            <ns3:cad>51</ns3:cad>
          </ns3:TrackPointExtension>
        </extensions>
      </trkpt>
      <trkpt lat="47.50699848867952823638916015625" lon="10.12477031908929347991943359375">
        <ele>1698</ele>
        <time>2026-09-01T08:34:13.000Z</time>
        <extensions>
          <ns3:TrackPointExtension>
            <ns3:hr>161</ns3:hr>
            <ns3:cad>51</ns3:cad>
          </ns3:TrackPointExtension>
        </extensions>
      </trkpt>
      <trkpt lat="47.50698474235832691192626953125" lon="10.12476495467126369476318359375">
        <ele>1698.199951171875</ele>
        <time>2026-09-01T08:34:14.000Z</time>
        <extensions>
          <ns3:TrackPointExtension>
            <ns3:hr>161</ns3:hr>
            <ns3:cad>51</ns3:cad>
          </ns3:TrackPointExtension>
        </extensions>
      </trkpt>
      <trkpt lat="47.50697770155966281890869140625" lon="10.124749280512332916259765625">
        <ele>1698.4000244140625</ele>
        <time>2026-09-01T08:34:15.000Z</time>
        <extensions>
          <ns3:TrackPointExtension>
            <ns3:hr>161</ns3:hr>
            <ns3:cad>51</ns3:cad>
          </ns3:TrackPointExtension>
        </extensions>
      </trkpt>
      <trkpt lat="47.50696328468620777130126953125" lon="10.1246805489063262939453125">
        <ele>1699</ele>
        <time>2026-09-01T08:34:19.000Z</time>
        <extensions>
          <ns3:TrackPointExtension>
            <ns3:hr>161</ns3:hr>
            <ns3:cad>60</ns3:cad>
          </ns3:TrackPointExtension>
        </extensions>
      </trkpt>
      <trkpt lat="47.506961524486541748046875" lon="10.12466110289096832275390625">
        <ele>1699.199951171875</ele>
        <time>2026-09-01T08:34:20.000Z</time>
        <extensions>
          <ns3:TrackPointExtension>
            <ns3:hr>161</ns3:hr>
            <ns3:cad>60</ns3:cad>
          </ns3:TrackPointExtension>
        </extensions>
      </trkpt>
      <trkpt lat="47.50695289112627506256103515625" lon="10.12459362857043743133544921875">
        <ele>1700.4000244140625</ele>
        <time>2026-09-01T08:34:24.000Z</time>
        <extensions>
          <ns3:TrackPointExtension>
            <ns3:hr>161</ns3:hr>
            <ns3:cad>57</ns3:cad>
          </ns3:TrackPointExtension>
        </extensions>
      </trkpt>
      <trkpt lat="47.50695155002176761627197265625" lon="10.1245479471981525421142578125">
        <ele>1701.4000244140625</ele>
        <time>2026-09-01T08:34:27.000Z</time>
        <extensions>
          <ns3:TrackPointExtension>
            <ns3:hr>160</ns3:hr>
            <ns3:cad>0</ns3:cad>
          </ns3:TrackPointExtension>
        </extensions>
      </trkpt>
      <trkpt lat="47.50694719143211841583251953125" lon="10.12450930662453174591064453125">
        <ele>1702.4000244140625</ele>
        <time>2026-09-01T08:34:30.000Z</time>
        <extensions>
          <ns3:TrackPointExtension>
            <ns3:hr>160</ns3:hr>
            <ns3:cad>0</ns3:cad>
          </ns3:TrackPointExtension>
        </extensions>
      </trkpt>
      <trkpt lat="47.50693545676767826080322265625" lon="10.12444795109331607818603515625">
        <ele>1703.800048828125</ele>
        <time>2026-09-01T08:34:34.000Z</time>
        <extensions>
          <ns3:TrackPointExtension>
            <ns3:hr>160</ns3:hr>
            <ns3:cad>50</ns3:cad>
          </ns3:TrackPointExtension>
        </extensions>
      </trkpt>
      <trkpt lat="47.50693143345415592193603515625" lon="10.12442816980183124542236328125">
        <ele>1704</ele>
        <time>2026-09-01T08:34:35.000Z</time>
        <extensions>
          <ns3:TrackPointExtension>
            <ns3:hr>160</ns3:hr>
            <ns3:cad>50</ns3:cad>
          </ns3:TrackPointExtension>
        </extensions>
      </trkpt>
      <trkpt lat="47.50693830661475658416748046875" lon="10.1243937201797962188720703125">
        <ele>1704.199951171875</ele>
        <time>2026-09-01T08:34:37.000Z</time>
        <extensions>
          <ns3:TrackPointExtension>
            <ns3:hr>160</ns3:hr>
            <ns3:cad>50</ns3:cad>
          </ns3:TrackPointExtension>
        </extensions>
      </trkpt>
      <trkpt lat="47.50693260692059993743896484375" lon="10.12436128221452236175537109375">
        <ele>1705</ele>
        <time>2026-09-01T08:34:40.000Z</time>
        <extensions>
          <ns3:TrackPointExtension>
            <ns3:hr>160</ns3:hr>
            <ns3:cad>57</ns3:cad>
          </ns3:TrackPointExtension>
        </extensions>
      </trkpt>
      <trkpt lat="47.5069244764745235443115234375" lon="10.1242954842746257781982421875">
        <ele>1706.199951171875</ele>
        <time>2026-09-01T08:34:44.000Z</time>
        <extensions>
          <ns3:TrackPointExtension>
            <ns3:hr>160</ns3:hr>
            <ns3:cad>57</ns3:cad>
          </ns3:TrackPointExtension>
        </extensions>
      </trkpt>
      <trkpt lat="47.5069124065339565277099609375" lon="10.1242438517510890960693359375">
        <ele>1707.199951171875</ele>
        <time>2026-09-01T08:34:47.000Z</time>
        <extensions>
          <ns3:TrackPointExtension>
            <ns3:hr>159</ns3:hr>
            <ns3:cad>57</ns3:cad>
          </ns3:TrackPointExtension>
        </extensions>
      </trkpt>
      <trkpt lat="47.506910897791385650634765625" lon="10.1242244057357311248779296875">
        <ele>1707.4000244140625</ele>
        <time>2026-09-01T08:34:48.000Z</time>
        <extensions>
          <ns3:TrackPointExtension>
            <ns3:hr>159</ns3:hr>
            <ns3:cad>57</ns3:cad>
          </ns3:TrackPointExtension>
        </extensions>
      </trkpt>
      <trkpt lat="47.5069194473326206207275390625" lon="10.12417771853506565093994140625">
        <ele>1708.4000244140625</ele>
        <time>2026-09-01T08:34:51.000Z</time>
        <extensions>
          <ns3:TrackPointExtension>
            <ns3:hr>158</ns3:hr>
            <ns3:cad>55</ns3:cad>
          </ns3:TrackPointExtension>
        </extensions>
      </trkpt>
      <trkpt lat="47.50693269073963165283203125" lon="10.1241610385477542877197265625">
        <ele>1708.800048828125</ele>
        <time>2026-09-01T08:34:52.000Z</time>
        <extensions>
          <ns3:TrackPointExtension>
            <ns3:hr>159</ns3:hr>
            <ns3:cad>55</ns3:cad>
          </ns3:TrackPointExtension>
        </extensions>
      </trkpt>
      <trkpt lat="47.50694618560373783111572265625" lon="10.12412122450768947601318359375">
        <ele>1709.800048828125</ele>
        <time>2026-09-01T08:34:55.000Z</time>
        <extensions>
          <ns3:TrackPointExtension>
            <ns3:hr>158</ns3:hr>
            <ns3:cad>52</ns3:cad>
          </ns3:TrackPointExtension>
        </extensions>
      </trkpt>
      <trkpt lat="47.50692422501742839813232421875" lon="10.1240705139935016632080078125">
        <ele>1711</ele>
        <time>2026-09-01T08:34:59.000Z</time>
        <extensions>
          <ns3:TrackPointExtension>
            <ns3:hr>157</ns3:hr>
            <ns3:cad>52</ns3:cad>
          </ns3:TrackPointExtension>
        </extensions>
      </trkpt>
      <trkpt lat="47.5069100596010684967041015625" lon="10.12403489090502262115478515625">
        <ele>1711.5999755859375</ele>
        <time>2026-09-01T08:35:01.000Z</time>
        <extensions>
          <ns3:TrackPointExtension>
            <ns3:hr>158</ns3:hr>
            <ns3:cad>52</ns3:cad>
          </ns3:TrackPointExtension>
        </extensions>
      </trkpt>
      <trkpt lat="47.50689941458404064178466796875" lon="10.12400689534842967987060546875">
        <ele>1712</ele>
        <time>2026-09-01T08:35:03.000Z</time>
        <extensions>
          <ns3:TrackPointExtension>
            <ns3:hr>158</ns3:hr>
            <ns3:cad>52</ns3:cad>
          </ns3:TrackPointExtension>
        </extensions>
      </trkpt>
      <trkpt lat="47.5068631209433078765869140625" lon="10.12399725615978240966796875">
        <ele>1713.4000244140625</ele>
        <time>2026-09-01T08:35:07.000Z</time>
        <extensions>
          <ns3:TrackPointExtension>
            <ns3:hr>158</ns3:hr>
            <ns3:cad>48</ns3:cad>
          </ns3:TrackPointExtension>
        </extensions>
      </trkpt>
      <trkpt lat="47.506850548088550567626953125" lon="10.12400035746395587921142578125">
        <ele>1713.5999755859375</ele>
        <time>2026-09-01T08:35:08.000Z</time>
        <extensions>
          <ns3:TrackPointExtension>
            <ns3:hr>159</ns3:hr>
            <ns3:cad>47</ns3:cad>
          </ns3:TrackPointExtension>
        </extensions>
      </trkpt>
      <trkpt lat="47.50683655031025409698486328125" lon="10.12400127947330474853515625">
        <ele>1714.4000244140625</ele>
        <time>2026-09-01T08:35:10.000Z</time>
        <extensions>
          <ns3:TrackPointExtension>
            <ns3:hr>159</ns3:hr>
            <ns3:cad>44</ns3:cad>
          </ns3:TrackPointExtension>
        </extensions>
      </trkpt>
      <trkpt lat="47.506818361580371856689453125" lon="10.1240126788616180419921875">
        <ele>1715.5999755859375</ele>
        <time>2026-09-01T08:35:13.000Z</time>
        <extensions>
          <ns3:TrackPointExtension>
            <ns3:hr>160</ns3:hr>
            <ns3:cad>44</ns3:cad>
          </ns3:TrackPointExtension>
        </extensions>
      </trkpt>
      <trkpt lat="47.50681190751492977142333984375" lon="10.12402047403156757354736328125">
        <ele>1716</ele>
        <time>2026-09-01T08:35:14.000Z</time>
        <extensions>
          <ns3:TrackPointExtension>
            <ns3:hr>160</ns3:hr>
            <ns3:cad>44</ns3:cad>
          </ns3:TrackPointExtension>
        </extensions>
      </trkpt>
      <trkpt lat="47.50678810290992259979248046875" lon="10.1240185461938381195068359375">
        <ele>1716.800048828125</ele>
        <time>2026-09-01T08:35:16.000Z</time>
        <extensions>
          <ns3:TrackPointExtension>
            <ns3:hr>160</ns3:hr>
            <ns3:cad>0</ns3:cad>
          </ns3:TrackPointExtension>
        </extensions>
      </trkpt>
      <trkpt lat="47.50677854754030704498291015625" lon="10.124002955853939056396484375">
        <ele>1717</ele>
        <time>2026-09-01T08:35:17.000Z</time>
        <extensions>
          <ns3:TrackPointExtension>
            <ns3:hr>160</ns3:hr>
            <ns3:cad>0</ns3:cad>
          </ns3:TrackPointExtension>
        </extensions>
      </trkpt>
      <trkpt lat="47.5067729316651821136474609375" lon="10.12399029918015003204345703125">
        <ele>1717.199951171875</ele>
        <time>2026-09-01T08:35:18.000Z</time>
        <extensions>
          <ns3:TrackPointExtension>
            <ns3:hr>161</ns3:hr>
            <ns3:cad>0</ns3:cad>
          </ns3:TrackPointExtension>
        </extensions>
      </trkpt>
      <trkpt lat="47.50674619339406490325927734375" lon="10.12392844073474407196044921875">
        <ele>1717.800048828125</ele>
        <time>2026-09-01T08:35:22.000Z</time>
        <extensions>
          <ns3:TrackPointExtension>
            <ns3:hr>160</ns3:hr>
            <ns3:cad>55</ns3:cad>
          </ns3:TrackPointExtension>
        </extensions>
      </trkpt>
      <trkpt lat="47.50673613511025905609130859375" lon="10.12386205606162548065185546875">
        <ele>1719</ele>
        <time>2026-09-01T08:35:26.000Z</time>
        <extensions>
          <ns3:TrackPointExtension>
            <ns3:hr>160</ns3:hr>
            <ns3:cad>55</ns3:cad>
          </ns3:TrackPointExtension>
        </extensions>
      </trkpt>
      <trkpt lat="47.5067429244518280029296875" lon="10.1238141953945159912109375">
        <ele>1720.199951171875</ele>
        <time>2026-09-01T08:35:30.000Z</time>
        <extensions>
          <ns3:TrackPointExtension>
            <ns3:hr>160</ns3:hr>
            <ns3:cad>48</ns3:cad>
          </ns3:TrackPointExtension>
        </extensions>
      </trkpt>
      <trkpt lat="47.50672758556902408599853515625" lon="10.1237640716135501861572265625">
        <ele>1721.199951171875</ele>
        <time>2026-09-01T08:35:33.000Z</time>
        <extensions>
          <ns3:TrackPointExtension>
            <ns3:hr>159</ns3:hr>
            <ns3:cad>50</ns3:cad>
          </ns3:TrackPointExtension>
        </extensions>
      </trkpt>
      <trkpt lat="47.50672691501677036285400390625" lon="10.12374420650303363800048828125">
        <ele>1721.5999755859375</ele>
        <time>2026-09-01T08:35:34.000Z</time>
        <extensions>
          <ns3:TrackPointExtension>
            <ns3:hr>160</ns3:hr>
            <ns3:cad>50</ns3:cad>
          </ns3:TrackPointExtension>
        </extensions>
      </trkpt>
      <trkpt lat="47.50672993250191211700439453125" lon="10.1236879639327526092529296875">
        <ele>1722.800048828125</ele>
        <time>2026-09-01T08:35:38.000Z</time>
        <extensions>
          <ns3:TrackPointExtension>
            <ns3:hr>160</ns3:hr>
            <ns3:cad>56</ns3:cad>
          </ns3:TrackPointExtension>
        </extensions>
      </trkpt>
      <trkpt lat="47.50672808848321437835693359375" lon="10.1236289553344249725341796875">
        <ele>1723.800048828125</ele>
        <time>2026-09-01T08:35:42.000Z</time>
        <extensions>
          <ns3:TrackPointExtension>
            <ns3:hr>160</ns3:hr>
            <ns3:cad>55</ns3:cad>
          </ns3:TrackPointExtension>
        </extensions>
      </trkpt>
      <trkpt lat="47.5067223049700260162353515625" lon="10.12359014712274074554443359375">
        <ele>1724.4000244140625</ele>
        <time>2026-09-01T08:35:44.000Z</time>
        <extensions>
          <ns3:TrackPointExtension>
            <ns3:hr>161</ns3:hr>
            <ns3:cad>0</ns3:cad>
          </ns3:TrackPointExtension>
        </extensions>
      </trkpt>
      <trkpt lat="47.50670981593430042266845703125" lon="10.1235810108482837677001953125">
        <ele>1724.800048828125</ele>
        <time>2026-09-01T08:35:45.000Z</time>
        <extensions>
          <ns3:TrackPointExtension>
            <ns3:hr>161</ns3:hr>
            <ns3:cad>0</ns3:cad>
          </ns3:TrackPointExtension>
        </extensions>
      </trkpt>
      <trkpt lat="47.50670042820274829864501953125" lon="10.12357120402157306671142578125">
        <ele>1725.199951171875</ele>
        <time>2026-09-01T08:35:46.000Z</time>
        <extensions>
          <ns3:TrackPointExtension>
            <ns3:hr>161</ns3:hr>
            <ns3:cad>52</ns3:cad>
          </ns3:TrackPointExtension>
        </extensions>
      </trkpt>
      <trkpt lat="47.5066716782748699188232421875" lon="10.12351253069937229156494140625">
        <ele>1726.199951171875</ele>
        <time>2026-09-01T08:35:50.000Z</time>
        <extensions>
          <ns3:TrackPointExtension>
            <ns3:hr>160</ns3:hr>
            <ns3:cad>62</ns3:cad>
          </ns3:TrackPointExtension>
        </extensions>
      </trkpt>
      <trkpt lat="47.50663362443447113037109375" lon="10.12347280047833919525146484375">
        <ele>1726.800048828125</ele>
        <time>2026-09-01T08:35:54.000Z</time>
        <extensions>
          <ns3:TrackPointExtension>
            <ns3:hr>160</ns3:hr>
            <ns3:cad>60</ns3:cad>
          </ns3:TrackPointExtension>
        </extensions>
      </trkpt>
      <trkpt lat="47.5066009350121021270751953125" lon="10.1234532706439495086669921875">
        <ele>1727</ele>
        <time>2026-09-01T08:35:57.000Z</time>
        <extensions>
          <ns3:TrackPointExtension>
            <ns3:hr>158</ns3:hr>
            <ns3:cad>56</ns3:cad>
          </ns3:TrackPointExtension>
        </extensions>
      </trkpt>
      <trkpt lat="47.50657788477838039398193359375" lon="10.12345167808234691619873046875">
        <ele>1727.4000244140625</ele>
        <time>2026-09-01T08:35:59.000Z</time>
        <extensions>
          <ns3:TrackPointExtension>
            <ns3:hr>157</ns3:hr>
            <ns3:cad>58</ns3:cad>
          </ns3:TrackPointExtension>
        </extensions>
      </trkpt>
      <trkpt lat="47.50655927695333957672119140625" lon="10.1234636642038822174072265625">
        <ele>1728.4000244140625</ele>
        <time>2026-09-01T08:36:01.000Z</time>
        <extensions>
          <ns3:TrackPointExtension>
            <ns3:hr>158</ns3:hr>
            <ns3:cad>58</ns3:cad>
          </ns3:TrackPointExtension>
        </extensions>
      </trkpt>
      <trkpt lat="47.50655206851661205291748046875" lon="10.123468525707721710205078125">
        <ele>1729.5999755859375</ele>
        <time>2026-09-01T08:36:03.000Z</time>
        <extensions>
          <ns3:TrackPointExtension>
            <ns3:hr>157</ns3:hr>
            <ns3:cad>0</ns3:cad>
          </ns3:TrackPointExtension>
        </extensions>
      </trkpt>
      <trkpt lat="47.50647160224616527557373046875" lon="10.12337305583059787750244140625">
        <ele>1729.5999755859375</ele>
        <time>2026-09-01T08:36:07.000Z</time>
        <extensions>
          <ns3:TrackPointExtension>
            <ns3:hr>157</ns3:hr>
            <ns3:cad>81</ns3:cad>
          </ns3:TrackPointExtension>
        </extensions>
      </trkpt>
      <trkpt lat="47.5064161978662014007568359375" lon="10.12329828925430774688720703125">
        <ele>1728.4000244140625</ele>
        <time>2026-09-01T08:36:09.000Z</time>
        <extensions>
          <ns3:TrackPointExtension>
            <ns3:hr>158</ns3:hr>
            <ns3:cad>83</ns3:cad>
          </ns3:TrackPointExtension>
        </extensions>
      </trkpt>
      <trkpt lat="47.50634931027889251708984375" lon="10.12325026094913482666015625">
        <ele>1727.4000244140625</ele>
        <time>2026-09-01T08:36:12.000Z</time>
        <extensions>
          <ns3:TrackPointExtension>
            <ns3:hr>159</ns3:hr>
            <ns3:cad>84</ns3:cad>
          </ns3:TrackPointExtension>
        </extensions>
      </trkpt>
      <trkpt lat="47.50631838105618953704833984375" lon="10.123211033642292022705078125">
        <ele>1726.5999755859375</ele>
        <time>2026-09-01T08:36:14.000Z</time>
        <extensions>
          <ns3:TrackPointExtension>
            <ns3:hr>159</ns3:hr>
            <ns3:cad>84</ns3:cad>
          </ns3:TrackPointExtension>
        </extensions>
      </trkpt>
      <trkpt lat="47.50630597583949565887451171875" lon="10.1231766678392887115478515625">
        <ele>1725.800048828125</ele>
        <time>2026-09-01T08:36:15.000Z</time>
        <extensions>
          <ns3:TrackPointExtension>
            <ns3:hr>159</ns3:hr>
            <ns3:cad>84</ns3:cad>
          </ns3:TrackPointExtension>
        </extensions>
      </trkpt>
      <trkpt lat="47.50629742629826068878173828125" lon="10.1231481693685054779052734375">
        <ele>1725</ele>
        <time>2026-09-01T08:36:16.000Z</time>
        <extensions>
          <ns3:TrackPointExtension>
            <ns3:hr>159</ns3:hr>
            <ns3:cad>84</ns3:cad>
          </ns3:TrackPointExtension>
        </extensions>
      </trkpt>
      <trkpt lat="47.5062804110348224639892578125" lon="10.1231240294873714447021484375">
        <ele>1724.199951171875</ele>
        <time>2026-09-01T08:36:17.000Z</time>
        <extensions>
          <ns3:TrackPointExtension>
            <ns3:hr>159</ns3:hr>
            <ns3:cad>84</ns3:cad>
          </ns3:TrackPointExtension>
        </extensions>
      </trkpt>
      <trkpt lat="47.50624202191829681396484375" lon="10.123076252639293670654296875">
        <ele>1722.4000244140625</ele>
        <time>2026-09-01T08:36:19.000Z</time>
        <extensions>
          <ns3:TrackPointExtension>
            <ns3:hr>159</ns3:hr>
            <ns3:cad>84</ns3:cad>
          </ns3:TrackPointExtension>
        </extensions>
      </trkpt>
      <trkpt lat="47.50621126033365726470947265625" lon="10.1230318285524845123291015625">
        <ele>1720.800048828125</ele>
        <time>2026-09-01T08:36:21.000Z</time>
        <extensions>
          <ns3:TrackPointExtension>
            <ns3:hr>159</ns3:hr>
            <ns3:cad>98</ns3:cad>
          </ns3:TrackPointExtension>
        </extensions>
      </trkpt>
      <trkpt lat="47.50616692006587982177734375" lon="10.12297340668737888336181640625">
        <ele>1719.199951171875</ele>
        <time>2026-09-01T08:36:23.000Z</time>
        <extensions>
          <ns3:TrackPointExtension>
            <ns3:hr>158</ns3:hr>
            <ns3:cad>98</ns3:cad>
          </ns3:TrackPointExtension>
        </extensions>
      </trkpt>
      <trkpt lat="47.5061074085533618927001953125" lon="10.12291490100324153900146484375">
        <ele>1717.5999755859375</ele>
        <time>2026-09-01T08:36:25.000Z</time>
        <extensions>
          <ns3:TrackPointExtension>
            <ns3:hr>157</ns3:hr>
            <ns3:cad>98</ns3:cad>
          </ns3:TrackPointExtension>
        </extensions>
      </trkpt>
      <trkpt lat="47.50609575770795345306396484375" lon="10.122828818857669830322265625">
        <ele>1716.199951171875</ele>
        <time>2026-09-01T08:36:27.000Z</time>
        <extensions>
          <ns3:TrackPointExtension>
            <ns3:hr>157</ns3:hr>
            <ns3:cad>96</ns3:cad>
          </ns3:TrackPointExtension>
        </extensions>
      </trkpt>
      <trkpt lat="47.5060872919857501983642578125" lon="10.12278833426535129547119140625">
        <ele>1716</ele>
        <time>2026-09-01T08:36:28.000Z</time>
        <extensions>
          <ns3:TrackPointExtension>
            <ns3:hr>156</ns3:hr>
            <ns3:cad>96</ns3:cad>
          </ns3:TrackPointExtension>
        </extensions>
      </trkpt>
      <trkpt lat="47.50605585984885692596435546875" lon="10.122759081423282623291015625">
        <ele>1716.5999755859375</ele>
        <time>2026-09-01T08:36:30.000Z</time>
        <extensions>
          <ns3:TrackPointExtension>
            <ns3:hr>156</ns3:hr>
            <ns3:cad>96</ns3:cad>
          </ns3:TrackPointExtension>
        </extensions>
      </trkpt>
      <trkpt lat="47.50604814849793910980224609375" lon="10.1227478496730327606201171875">
        <ele>1717</ele>
        <time>2026-09-01T08:36:31.000Z</time>
        <extensions>
          <ns3:TrackPointExtension>
            <ns3:hr>156</ns3:hr>
            <ns3:cad>88</ns3:cad>
          </ns3:TrackPointExtension>
        </extensions>
      </trkpt>
      <trkpt lat="47.506033480167388916015625" lon="10.1227203570306301116943359375">
        <ele>1717.5999755859375</ele>
        <time>2026-09-01T08:36:32.000Z</time>
        <extensions>
          <ns3:TrackPointExtension>
            <ns3:hr>155</ns3:hr>
            <ns3:cad>88</ns3:cad>
          </ns3:TrackPointExtension>
        </extensions>
      </trkpt>
      <trkpt lat="47.5059971027076244354248046875" lon="10.12268431484699249267578125">
        <ele>1718.199951171875</ele>
        <time>2026-09-01T08:36:34.000Z</time>
        <extensions>
          <ns3:TrackPointExtension>
            <ns3:hr>154</ns3:hr>
            <ns3:cad>87</ns3:cad>
          </ns3:TrackPointExtension>
        </extensions>
      </trkpt>
      <trkpt lat="47.50593381933867931365966796875" lon="10.12269278056919574737548828125">
        <ele>1717.4000244140625</ele>
        <time>2026-09-01T08:36:39.000Z</time>
        <extensions>
          <ns3:TrackPointExtension>
            <ns3:hr>155</ns3:hr>
            <ns3:cad>85</ns3:cad>
          </ns3:TrackPointExtension>
        </extensions>
      </trkpt>
      <trkpt lat="47.5058867968618869781494140625" lon="10.12271113693714141845703125">
        <ele>1716.4000244140625</ele>
        <time>2026-09-01T08:36:41.000Z</time>
        <extensions>
          <ns3:TrackPointExtension>
            <ns3:hr>154</ns3:hr>
            <ns3:cad>0</ns3:cad>
          </ns3:TrackPointExtension>
        </extensions>
      </trkpt>
      <trkpt lat="47.50585670582950115203857421875" lon="10.12274323962628841400146484375">
        <ele>1715.5999755859375</ele>
        <time>2026-09-01T08:36:42.000Z</time>
        <extensions>
          <ns3:TrackPointExtension>
            <ns3:hr>154</ns3:hr>
            <ns3:cad>0</ns3:cad>
          </ns3:TrackPointExtension>
        </extensions>
      </trkpt>
      <trkpt lat="47.50583298504352569580078125" lon="10.12277609668672084808349609375">
        <ele>1714.800048828125</ele>
        <time>2026-09-01T08:36:43.000Z</time>
        <extensions>
          <ns3:TrackPointExtension>
            <ns3:hr>154</ns3:hr>
            <ns3:cad>0</ns3:cad>
          </ns3:TrackPointExtension>
        </extensions>
      </trkpt>
      <trkpt lat="47.50580155290663242340087890625" lon="10.1228177547454833984375">
        <ele>1713.199951171875</ele>
        <time>2026-09-01T08:36:45.000Z</time>
        <extensions>
          <ns3:TrackPointExtension>
            <ns3:hr>154</ns3:hr>
            <ns3:cad>0</ns3:cad>
          </ns3:TrackPointExtension>
        </extensions>
      </trkpt>
      <trkpt lat="47.5057961046695709228515625" lon="10.1228095404803752899169921875">
        <ele>1712.4000244140625</ele>
        <time>2026-09-01T08:36:46.000Z</time>
        <extensions>
          <ns3:TrackPointExtension>
            <ns3:hr>154</ns3:hr>
            <ns3:cad>0</ns3:cad>
          </ns3:TrackPointExtension>
        </extensions>
      </trkpt>
      <trkpt lat="47.50579585321247577667236328125" lon="10.12277944944798946380615234375">
        <ele>1711.800048828125</ele>
        <time>2026-09-01T08:36:47.000Z</time>
        <extensions>
          <ns3:TrackPointExtension>
            <ns3:hr>154</ns3:hr>
            <ns3:cad>0</ns3:cad>
          </ns3:TrackPointExtension>
        </extensions>
      </trkpt>
      <trkpt lat="47.50579283572733402252197265625" lon="10.1226710714399814605712890625">
        <ele>1710.5999755859375</ele>
        <time>2026-09-01T08:36:49.000Z</time>
        <extensions>
          <ns3:TrackPointExtension>
            <ns3:hr>154</ns3:hr>
            <ns3:cad>88</ns3:cad>
          </ns3:TrackPointExtension>
        </extensions>
      </trkpt>
      <trkpt lat="47.50579082407057285308837890625" lon="10.12262438423931598663330078125">
        <ele>1710</ele>
        <time>2026-09-01T08:36:50.000Z</time>
        <extensions>
          <ns3:TrackPointExtension>
            <ns3:hr>153</ns3:hr>
            <ns3:cad>88</ns3:cad>
          </ns3:TrackPointExtension>
        </extensions>
      </trkpt>
      <trkpt lat="47.505787722766399383544921875" lon="10.12258197180926799774169921875">
        <ele>1709.4000244140625</ele>
        <time>2026-09-01T08:36:51.000Z</time>
        <extensions>
          <ns3:TrackPointExtension>
            <ns3:hr>153</ns3:hr>
            <ns3:cad>85</ns3:cad>
          </ns3:TrackPointExtension>
        </extensions>
      </trkpt>
      <trkpt lat="47.5057758204638957977294921875" lon="10.122482478618621826171875">
        <ele>1708</ele>
        <time>2026-09-01T08:36:53.000Z</time>
        <extensions>
          <ns3:TrackPointExtension>
            <ns3:hr>151</ns3:hr>
            <ns3:cad>85</ns3:cad>
          </ns3:TrackPointExtension>
        </extensions>
      </trkpt>
      <trkpt lat="47.505775988101959228515625" lon="10.1224464364349842071533203125">
        <ele>1707.199951171875</ele>
        <time>2026-09-01T08:36:54.000Z</time>
        <extensions>
          <ns3:TrackPointExtension>
            <ns3:hr>151</ns3:hr>
            <ns3:cad>85</ns3:cad>
          </ns3:TrackPointExtension>
        </extensions>
      </trkpt>
      <trkpt lat="47.50577397644519805908203125" lon="10.12240343727171421051025390625">
        <ele>1706.199951171875</ele>
        <time>2026-09-01T08:36:55.000Z</time>
        <extensions>
          <ns3:TrackPointExtension>
            <ns3:hr>152</ns3:hr>
            <ns3:cad>85</ns3:cad>
          </ns3:TrackPointExtension>
        </extensions>
      </trkpt>
      <trkpt lat="47.5057612359523773193359375" lon="10.1223877631127834320068359375">
        <ele>1705.199951171875</ele>
        <time>2026-09-01T08:36:56.000Z</time>
        <extensions>
          <ns3:TrackPointExtension>
            <ns3:hr>152</ns3:hr>
            <ns3:cad>85</ns3:cad>
          </ns3:TrackPointExtension>
        </extensions>
      </trkpt>
      <trkpt lat="47.50569409690797328948974609375" lon="10.12240628711879253387451171875">
        <ele>1703.4000244140625</ele>
        <time>2026-09-01T08:36:58.000Z</time>
        <extensions>
          <ns3:TrackPointExtension>
            <ns3:hr>151</ns3:hr>
            <ns3:cad>85</ns3:cad>
          </ns3:TrackPointExtension>
        </extensions>
      </trkpt>
      <trkpt lat="47.50565688125789165496826171875" lon="10.12242506258189678192138671875">
        <ele>1702.199951171875</ele>
        <time>2026-09-01T08:36:59.000Z</time>
        <extensions>
          <ns3:TrackPointExtension>
            <ns3:hr>151</ns3:hr>
            <ns3:cad>85</ns3:cad>
          </ns3:TrackPointExtension>
        </extensions>
      </trkpt>
      <trkpt lat="47.5056272931396961212158203125" lon="10.12243126519024372100830078125">
        <ele>1701.199951171875</ele>
        <time>2026-09-01T08:37:00.000Z</time>
        <extensions>
          <ns3:TrackPointExtension>
            <ns3:hr>150</ns3:hr>
            <ns3:cad>85</ns3:cad>
          </ns3:TrackPointExtension>
        </extensions>
      </trkpt>
      <trkpt lat="47.50557306222617626190185546875" lon="10.12245364487171173095703125">
        <ele>1699.5999755859375</ele>
        <time>2026-09-01T08:37:02.000Z</time>
        <extensions>
          <ns3:TrackPointExtension>
            <ns3:hr>150</ns3:hr>
            <ns3:cad>85</ns3:cad>
          </ns3:TrackPointExtension>
        </extensions>
      </trkpt>
      <trkpt lat="47.505545318126678466796875" lon="10.1224749349057674407958984375">
        <ele>1698.4000244140625</ele>
        <time>2026-09-01T08:37:03.000Z</time>
        <extensions>
          <ns3:TrackPointExtension>
            <ns3:hr>150</ns3:hr>
            <ns3:cad>85</ns3:cad>
          </ns3:TrackPointExtension>
        </extensions>
      </trkpt>
      <trkpt lat="47.50548639334738254547119140625" lon="10.12252581305801868438720703125">
        <ele>1696.4000244140625</ele>
        <time>2026-09-01T08:37:05.000Z</time>
        <extensions>
          <ns3:TrackPointExtension>
            <ns3:hr>150</ns3:hr>
            <ns3:cad>85</ns3:cad>
          </ns3:TrackPointExtension>
        </extensions>
      </trkpt>
      <trkpt lat="47.50545747578144073486328125" lon="10.12253536842763423919677734375">
        <ele>1695.5999755859375</ele>
        <time>2026-09-01T08:37:06.000Z</time>
        <extensions>
          <ns3:TrackPointExtension>
            <ns3:hr>151</ns3:hr>
            <ns3:cad>85</ns3:cad>
          </ns3:TrackPointExtension>
        </extensions>
      </trkpt>
      <trkpt lat="47.5054200924932956695556640625" lon="10.12253955937922000885009765625">
        <ele>1694.5999755859375</ele>
        <time>2026-09-01T08:37:07.000Z</time>
        <extensions>
          <ns3:TrackPointExtension>
            <ns3:hr>150</ns3:hr>
            <ns3:cad>103</ns3:cad>
          </ns3:TrackPointExtension>
        </extensions>
      </trkpt>
      <trkpt lat="47.5053704716265201568603515625" lon="10.12254710309207439422607421875">
        <ele>1692.5999755859375</ele>
        <time>2026-09-01T08:37:09.000Z</time>
        <extensions>
          <ns3:TrackPointExtension>
            <ns3:hr>150</ns3:hr>
            <ns3:cad>103</ns3:cad>
          </ns3:TrackPointExtension>
        </extensions>
      </trkpt>
      <trkpt lat="47.505336105823516845703125" lon="10.122557915747165679931640625">
        <ele>1691.5999755859375</ele>
        <time>2026-09-01T08:37:10.000Z</time>
        <extensions>
          <ns3:TrackPointExtension>
            <ns3:hr>150</ns3:hr>
            <ns3:cad>103</ns3:cad>
          </ns3:TrackPointExtension>
        </extensions>
      </trkpt>
      <trkpt lat="47.50531858764588832855224609375" lon="10.12256495654582977294921875">
        <ele>1690.5999755859375</ele>
        <time>2026-09-01T08:37:11.000Z</time>
        <extensions>
          <ns3:TrackPointExtension>
            <ns3:hr>150</ns3:hr>
            <ns3:cad>103</ns3:cad>
          </ns3:TrackPointExtension>
        </extensions>
      </trkpt>
      <trkpt lat="47.50526192598044872283935546875" lon="10.1225909404456615447998046875">
        <ele>1689</ele>
        <time>2026-09-01T08:37:13.000Z</time>
        <extensions>
          <ns3:TrackPointExtension>
            <ns3:hr>150</ns3:hr>
            <ns3:cad>103</ns3:cad>
          </ns3:TrackPointExtension>
        </extensions>
      </trkpt>
      <trkpt lat="47.50523175112903118133544921875" lon="10.12260979972779750823974609375">
        <ele>1688</ele>
        <time>2026-09-01T08:37:14.000Z</time>
        <extensions>
          <ns3:TrackPointExtension>
            <ns3:hr>151</ns3:hr>
            <ns3:cad>103</ns3:cad>
          </ns3:TrackPointExtension>
        </extensions>
      </trkpt>
      <trkpt lat="47.50516033731400966644287109375" lon="10.12261382304131984710693359375">
        <ele>1686</ele>
        <time>2026-09-01T08:37:16.000Z</time>
        <extensions>
          <ns3:TrackPointExtension>
            <ns3:hr>152</ns3:hr>
            <ns3:cad>103</ns3:cad>
          </ns3:TrackPointExtension>
        </extensions>
      </trkpt>
      <trkpt lat="47.505134604871273040771484375" lon="10.12262958101928234100341796875">
        <ele>1685</ele>
        <time>2026-09-01T08:37:17.000Z</time>
        <extensions>
          <ns3:TrackPointExtension>
            <ns3:hr>152</ns3:hr>
            <ns3:cad>103</ns3:cad>
          </ns3:TrackPointExtension>
        </extensions>
      </trkpt>
      <trkpt lat="47.5050692260265350341796875" lon="10.12263469398021697998046875">
        <ele>1683.4000244140625</ele>
        <time>2026-09-01T08:37:19.000Z</time>
        <extensions>
          <ns3:TrackPointExtension>
            <ns3:hr>151</ns3:hr>
            <ns3:cad>103</ns3:cad>
          </ns3:TrackPointExtension>
        </extensions>
      </trkpt>
      <trkpt lat="47.50500879250466823577880859375" lon="10.1226301677525043487548828125">
        <ele>1681.800048828125</ele>
        <time>2026-09-01T08:37:21.000Z</time>
        <extensions>
          <ns3:TrackPointExtension>
            <ns3:hr>151</ns3:hr>
            <ns3:cad>103</ns3:cad>
          </ns3:TrackPointExtension>
        </extensions>
      </trkpt>
      <trkpt lat="47.50497979111969470977783203125" lon="10.1226331852376461029052734375">
        <ele>1681</ele>
        <time>2026-09-01T08:37:22.000Z</time>
        <extensions>
          <ns3:TrackPointExtension>
            <ns3:hr>151</ns3:hr>
            <ns3:cad>103</ns3:cad>
          </ns3:TrackPointExtension>
        </extensions>
      </trkpt>
      <trkpt lat="47.5049624405801296234130859375" lon="10.12263444252312183380126953125">
        <ele>1680.199951171875</ele>
        <time>2026-09-01T08:37:23.000Z</time>
        <extensions>
          <ns3:TrackPointExtension>
            <ns3:hr>151</ns3:hr>
            <ns3:cad>103</ns3:cad>
          </ns3:TrackPointExtension>
        </extensions>
      </trkpt>
      <trkpt lat="47.5049624405801296234130859375" lon="10.122611559927463531494140625">
        <ele>1679.199951171875</ele>
        <time>2026-09-01T08:37:24.000Z</time>
        <extensions>
          <ns3:TrackPointExtension>
            <ns3:hr>151</ns3:hr>
            <ns3:cad>103</ns3:cad>
          </ns3:TrackPointExtension>
        </extensions>
      </trkpt>
      <trkpt lat="47.50497174449265003204345703125" lon="10.12257945723831653594970703125">
        <ele>1678.4000244140625</ele>
        <time>2026-09-01T08:37:25.000Z</time>
        <extensions>
          <ns3:TrackPointExtension>
            <ns3:hr>151</ns3:hr>
            <ns3:cad>103</ns3:cad>
          </ns3:TrackPointExtension>
        </extensions>
      </trkpt>
      <trkpt lat="47.5049895979464054107666015625" lon="10.122505612671375274658203125">
        <ele>1677</ele>
        <time>2026-09-01T08:37:27.000Z</time>
        <extensions>
          <ns3:TrackPointExtension>
            <ns3:hr>151</ns3:hr>
            <ns3:cad>103</ns3:cad>
          </ns3:TrackPointExtension>
        </extensions>
      </trkpt>
      <trkpt lat="47.5050128996372222900390625" lon="10.1224239729344844818115234375">
        <ele>1675.4000244140625</ele>
        <time>2026-09-01T08:37:29.000Z</time>
        <extensions>
          <ns3:TrackPointExtension>
            <ns3:hr>151</ns3:hr>
            <ns3:cad>103</ns3:cad>
          </ns3:TrackPointExtension>
        </extensions>
      </trkpt>
      <trkpt lat="47.50503226183354854583740234375" lon="10.12236588634550571441650390625">
        <ele>1673.800048828125</ele>
        <time>2026-09-01T08:37:31.000Z</time>
        <extensions>
          <ns3:TrackPointExtension>
            <ns3:hr>151</ns3:hr>
            <ns3:cad>103</ns3:cad>
          </ns3:TrackPointExtension>
        </extensions>
      </trkpt>
      <trkpt lat="47.505062520503997802734375" lon="10.1222905330359935760498046875">
        <ele>1672.199951171875</ele>
        <time>2026-09-01T08:37:33.000Z</time>
        <extensions>
          <ns3:TrackPointExtension>
            <ns3:hr>152</ns3:hr>
            <ns3:cad>103</ns3:cad>
          </ns3:TrackPointExtension>
        </extensions>
      </trkpt>
      <trkpt lat="47.505062855780124664306640625" lon="10.122201852500438690185546875">
        <ele>1670.4000244140625</ele>
        <time>2026-09-01T08:37:35.000Z</time>
        <extensions>
          <ns3:TrackPointExtension>
            <ns3:hr>152</ns3:hr>
            <ns3:cad>103</ns3:cad>
          </ns3:TrackPointExtension>
        </extensions>
      </trkpt>
      <trkpt lat="47.50507433898746967315673828125" lon="10.1221074722707271575927734375">
        <ele>1669</ele>
        <time>2026-09-01T08:37:37.000Z</time>
        <extensions>
          <ns3:TrackPointExtension>
            <ns3:hr>151</ns3:hr>
            <ns3:cad>103</ns3:cad>
          </ns3:TrackPointExtension>
        </extensions>
      </trkpt>
      <trkpt lat="47.50509202480316162109375" lon="10.12200127355754375457763671875">
        <ele>1667.4000244140625</ele>
        <time>2026-09-01T08:37:39.000Z</time>
        <extensions>
          <ns3:TrackPointExtension>
            <ns3:hr>151</ns3:hr>
            <ns3:cad>86</ns3:cad>
          </ns3:TrackPointExtension>
        </extensions>
      </trkpt>
      <trkpt lat="47.50509814359247684478759765625" lon="10.12191896326839923858642578125">
        <ele>1666</ele>
        <time>2026-09-01T08:37:41.000Z</time>
        <extensions>
          <ns3:TrackPointExtension>
            <ns3:hr>151</ns3:hr>
            <ns3:cad>86</ns3:cad>
          </ns3:TrackPointExtension>
        </extensions>
      </trkpt>
      <trkpt lat="47.50510384328663349151611328125" lon="10.1218855194747447967529296875">
        <ele>1665.199951171875</ele>
        <time>2026-09-01T08:37:42.000Z</time>
        <extensions>
          <ns3:TrackPointExtension>
            <ns3:hr>151</ns3:hr>
            <ns3:cad>86</ns3:cad>
          </ns3:TrackPointExtension>
        </extensions>
      </trkpt>
      <trkpt lat="47.5051069445908069610595703125" lon="10.12184637598693370819091796875">
        <ele>1664.5999755859375</ele>
        <time>2026-09-01T08:37:43.000Z</time>
        <extensions>
          <ns3:TrackPointExtension>
            <ns3:hr>151</ns3:hr>
            <ns3:cad>86</ns3:cad>
          </ns3:TrackPointExtension>
        </extensions>
      </trkpt>
      <trkpt lat="47.50511591322720050811767578125" lon="10.12176389805972576141357421875">
        <ele>1663.4000244140625</ele>
        <time>2026-09-01T08:37:45.000Z</time>
        <extensions>
          <ns3:TrackPointExtension>
            <ns3:hr>150</ns3:hr>
            <ns3:cad>86</ns3:cad>
          </ns3:TrackPointExtension>
        </extensions>
      </trkpt>
      <trkpt lat="47.5051106326282024383544921875" lon="10.12168795801699161529541015625">
        <ele>1662</ele>
        <time>2026-09-01T08:37:47.000Z</time>
        <extensions>
          <ns3:TrackPointExtension>
            <ns3:hr>150</ns3:hr>
            <ns3:cad>86</ns3:cad>
          </ns3:TrackPointExtension>
        </extensions>
      </trkpt>
      <trkpt lat="47.50511457212269306182861328125" lon="10.121601037681102752685546875">
        <ele>1660.800048828125</ele>
        <time>2026-09-01T08:37:49.000Z</time>
        <extensions>
          <ns3:TrackPointExtension>
            <ns3:hr>151</ns3:hr>
            <ns3:cad>86</ns3:cad>
          </ns3:TrackPointExtension>
        </extensions>
      </trkpt>
      <trkpt lat="47.5051201879978179931640625" lon="10.12156574986875057220458984375">
        <ele>1660.199951171875</ele>
        <time>2026-09-01T08:37:50.000Z</time>
        <extensions>
          <ns3:TrackPointExtension>
            <ns3:hr>150</ns3:hr>
            <ns3:cad>86</ns3:cad>
          </ns3:TrackPointExtension>
        </extensions>
      </trkpt>
      <trkpt lat="47.50512563623487949371337890625" lon="10.12153188697993755340576171875">
        <ele>1659.5999755859375</ele>
        <time>2026-09-01T08:37:51.000Z</time>
        <extensions>
          <ns3:TrackPointExtension>
            <ns3:hr>150</ns3:hr>
            <ns3:cad>86</ns3:cad>
          </ns3:TrackPointExtension>
        </extensions>
      </trkpt>
      <trkpt lat="47.5051257200539112091064453125" lon="10.12144303880631923675537109375">
        <ele>1658.199951171875</ele>
        <time>2026-09-01T08:37:53.000Z</time>
        <extensions>
          <ns3:TrackPointExtension>
            <ns3:hr>150</ns3:hr>
            <ns3:cad>86</ns3:cad>
          </ns3:TrackPointExtension>
        </extensions>
      </trkpt>
      <trkpt lat="47.5051394663751125335693359375" lon="10.1213795877993106842041015625">
        <ele>1656.199951171875</ele>
        <time>2026-09-01T08:37:55.000Z</time>
        <extensions>
          <ns3:TrackPointExtension>
            <ns3:hr>150</ns3:hr>
            <ns3:cad>86</ns3:cad>
          </ns3:TrackPointExtension>
        </extensions>
      </trkpt>
      <trkpt lat="47.505151368677616119384765625" lon="10.12133491225540637969970703125">
        <ele>1655.199951171875</ele>
        <time>2026-09-01T08:37:56.000Z</time>
        <extensions>
          <ns3:TrackPointExtension>
            <ns3:hr>149</ns3:hr>
            <ns3:cad>86</ns3:cad>
          </ns3:TrackPointExtension>
        </extensions>
      </trkpt>
      <trkpt lat="47.505160085856914520263671875" lon="10.12129962444305419921875">
        <ele>1654</ele>
        <time>2026-09-01T08:37:57.000Z</time>
        <extensions>
          <ns3:TrackPointExtension>
            <ns3:hr>150</ns3:hr>
            <ns3:cad>86</ns3:cad>
          </ns3:TrackPointExtension>
        </extensions>
      </trkpt>
      <trkpt lat="47.50516905449330806732177734375" lon="10.121265761554241180419921875">
        <ele>1653</ele>
        <time>2026-09-01T08:37:58.000Z</time>
        <extensions>
          <ns3:TrackPointExtension>
            <ns3:hr>149</ns3:hr>
            <ns3:cad>86</ns3:cad>
          </ns3:TrackPointExtension>
        </extensions>
      </trkpt>
      <trkpt lat="47.50518447719514369964599609375" lon="10.12122376821935176849365234375">
        <ele>1652.199951171875</ele>
        <time>2026-09-01T08:37:59.000Z</time>
        <extensions>
          <ns3:TrackPointExtension>
            <ns3:hr>149</ns3:hr>
            <ns3:cad>0</ns3:cad>
          </ns3:TrackPointExtension>
        </extensions>
      </trkpt>
      <trkpt lat="47.50518095679581165313720703125" lon="10.1211918331682682037353515625">
        <ele>1651.4000244140625</ele>
        <time>2026-09-01T08:38:00.000Z</time>
        <extensions>
          <ns3:TrackPointExtension>
            <ns3:hr>149</ns3:hr>
            <ns3:cad>0</ns3:cad>
          </ns3:TrackPointExtension>
        </extensions>
      </trkpt>
      <trkpt lat="47.50516285188496112823486328125" lon="10.1211827807128429412841796875">
        <ele>1650.5999755859375</ele>
        <time>2026-09-01T08:38:01.000Z</time>
        <extensions>
          <ns3:TrackPointExtension>
            <ns3:hr>149</ns3:hr>
            <ns3:cad>0</ns3:cad>
          </ns3:TrackPointExtension>
        </extensions>
      </trkpt>
      <trkpt lat="47.505129240453243255615234375" lon="10.12115503661334514617919921875">
        <ele>1649.199951171875</ele>
        <time>2026-09-01T08:38:03.000Z</time>
        <extensions>
          <ns3:TrackPointExtension>
            <ns3:hr>149</ns3:hr>
            <ns3:cad>0</ns3:cad>
          </ns3:TrackPointExtension>
        </extensions>
      </trkpt>
      <trkpt lat="47.50511356629431247711181640625" lon="10.1211210899055004119873046875">
        <ele>1647.5999755859375</ele>
        <time>2026-09-01T08:38:05.000Z</time>
        <extensions>
          <ns3:TrackPointExtension>
            <ns3:hr>150</ns3:hr>
            <ns3:cad>100</ns3:cad>
          </ns3:TrackPointExtension>
        </extensions>
      </trkpt>
      <trkpt lat="47.50511021353304386138916015625" lon="10.1210919208824634552001953125">
        <ele>1646.800048828125</ele>
        <time>2026-09-01T08:38:06.000Z</time>
        <extensions>
          <ns3:TrackPointExtension>
            <ns3:hr>150</ns3:hr>
            <ns3:cad>86</ns3:cad>
          </ns3:TrackPointExtension>
        </extensions>
      </trkpt>
      <trkpt lat="47.50511415302753448486328125" lon="10.12106535024940967559814453125">
        <ele>1645.800048828125</ele>
        <time>2026-09-01T08:38:07.000Z</time>
        <extensions>
          <ns3:TrackPointExtension>
            <ns3:hr>150</ns3:hr>
            <ns3:cad>0</ns3:cad>
          </ns3:TrackPointExtension>
        </extensions>
      </trkpt>
      <trkpt lat="47.50509697012603282928466796875" lon="10.12102444656193256378173828125">
        <ele>1644.199951171875</ele>
        <time>2026-09-01T08:38:09.000Z</time>
        <extensions>
          <ns3:TrackPointExtension>
            <ns3:hr>150</ns3:hr>
            <ns3:cad>0</ns3:cad>
          </ns3:TrackPointExtension>
        </extensions>
      </trkpt>
      <trkpt lat="47.5050824694335460662841796875" lon="10.1210168190300464630126953125">
        <ele>1643.4000244140625</ele>
        <time>2026-09-01T08:38:10.000Z</time>
        <extensions>
          <ns3:TrackPointExtension>
            <ns3:hr>150</ns3:hr>
            <ns3:cad>0</ns3:cad>
          </ns3:TrackPointExtension>
        </extensions>
      </trkpt>
      <trkpt lat="47.5050549767911434173583984375" lon="10.1210057549178600311279296875">
        <ele>1642.4000244140625</ele>
        <time>2026-09-01T08:38:11.000Z</time>
        <extensions>
          <ns3:TrackPointExtension>
            <ns3:hr>150</ns3:hr>
            <ns3:cad>0</ns3:cad>
          </ns3:TrackPointExtension>
        </extensions>
      </trkpt>
      <trkpt lat="47.50500292517244815826416015625" lon="10.120990835130214691162109375">
        <ele>1640.5999755859375</ele>
        <time>2026-09-01T08:38:13.000Z</time>
        <extensions>
          <ns3:TrackPointExtension>
            <ns3:hr>149</ns3:hr>
            <ns3:cad>0</ns3:cad>
          </ns3:TrackPointExtension>
        </extensions>
      </trkpt>
      <trkpt lat="47.5049647875130176544189453125" lon="10.12097331695258617401123046875">
        <ele>1639.199951171875</ele>
        <time>2026-09-01T08:38:15.000Z</time>
        <extensions>
          <ns3:TrackPointExtension>
            <ns3:hr>148</ns3:hr>
            <ns3:cad>77</ns3:cad>
          </ns3:TrackPointExtension>
        </extensions>
      </trkpt>
      <trkpt lat="47.50498431734740734100341796875" lon="10.1209335029125213623046875">
        <ele>1638.5999755859375</ele>
        <time>2026-09-01T08:38:16.000Z</time>
        <extensions>
          <ns3:TrackPointExtension>
            <ns3:hr>148</ns3:hr>
            <ns3:cad>94</ns3:cad>
          </ns3:TrackPointExtension>
        </extensions>
      </trkpt>
      <trkpt lat="47.50499705784022808074951171875" lon="10.1209011487662792205810546875">
        <ele>1638.199951171875</ele>
        <time>2026-09-01T08:38:17.000Z</time>
        <extensions>
          <ns3:TrackPointExtension>
            <ns3:hr>149</ns3:hr>
            <ns3:cad>94</ns3:cad>
          </ns3:TrackPointExtension>
        </extensions>
      </trkpt>
      <trkpt lat="47.50498767010867595672607421875" lon="10.120900981128215789794921875">
        <ele>1637.4000244140625</ele>
        <time>2026-09-01T08:38:18.000Z</time>
        <extensions>
          <ns3:TrackPointExtension>
            <ns3:hr>149</ns3:hr>
            <ns3:cad>94</ns3:cad>
          </ns3:TrackPointExtension>
        </extensions>
      </trkpt>
      <trkpt lat="47.50495984219014644622802734375" lon="10.12089754454791545867919921875">
        <ele>1636.800048828125</ele>
        <time>2026-09-01T08:38:19.000Z</time>
        <extensions>
          <ns3:TrackPointExtension>
            <ns3:hr>149</ns3:hr>
            <ns3:cad>94</ns3:cad>
          </ns3:TrackPointExtension>
        </extensions>
      </trkpt>
      <trkpt lat="47.50493712723255157470703125" lon="10.1208951137959957122802734375">
        <ele>1636</ele>
        <time>2026-09-01T08:38:20.000Z</time>
        <extensions>
          <ns3:TrackPointExtension>
            <ns3:hr>148</ns3:hr>
            <ns3:cad>94</ns3:cad>
          </ns3:TrackPointExtension>
        </extensions>
      </trkpt>
      <trkpt lat="47.50491122715175151824951171875" lon="10.12089435942471027374267578125">
        <ele>1635.199951171875</ele>
        <time>2026-09-01T08:38:21.000Z</time>
        <extensions>
          <ns3:TrackPointExtension>
            <ns3:hr>148</ns3:hr>
            <ns3:cad>94</ns3:cad>
          </ns3:TrackPointExtension>
        </extensions>
      </trkpt>
      <trkpt lat="47.50488155521452426910400390625" lon="10.12087893672287464141845703125">
        <ele>1634</ele>
        <time>2026-09-01T08:38:23.000Z</time>
        <extensions>
          <ns3:TrackPointExtension>
            <ns3:hr>148</ns3:hr>
            <ns3:cad>94</ns3:cad>
          </ns3:TrackPointExtension>
        </extensions>
      </trkpt>
      <trkpt lat="47.50488809309899806976318359375" lon="10.1208528690040111541748046875">
        <ele>1633.4000244140625</ele>
        <time>2026-09-01T08:38:24.000Z</time>
        <extensions>
          <ns3:TrackPointExtension>
            <ns3:hr>148</ns3:hr>
            <ns3:cad>94</ns3:cad>
          </ns3:TrackPointExtension>
        </extensions>
      </trkpt>
      <trkpt lat="47.5048923678696155548095703125" lon="10.120814479887485504150390625">
        <ele>1632.5999755859375</ele>
        <time>2026-09-01T08:38:25.000Z</time>
        <extensions>
          <ns3:TrackPointExtension>
            <ns3:hr>148</ns3:hr>
            <ns3:cad>100</ns3:cad>
          </ns3:TrackPointExtension>
        </extensions>
      </trkpt>
      <trkpt lat="47.50490653328597545623779296875" lon="10.12074013240635395050048828125">
        <ele>1631</ele>
        <time>2026-09-01T08:38:27.000Z</time>
        <extensions>
          <ns3:TrackPointExtension>
            <ns3:hr>148</ns3:hr>
            <ns3:cad>100</ns3:cad>
          </ns3:TrackPointExtension>
        </extensions>
      </trkpt>
      <trkpt lat="47.50489261932671070098876953125" lon="10.12072605080902576446533203125">
        <ele>1630.199951171875</ele>
        <time>2026-09-01T08:38:28.000Z</time>
        <extensions>
          <ns3:TrackPointExtension>
            <ns3:hr>149</ns3:hr>
            <ns3:cad>100</ns3:cad>
          </ns3:TrackPointExtension>
        </extensions>
      </trkpt>
      <trkpt lat="47.50487409532070159912109375" lon="10.12072437442839145660400390625">
        <ele>1629.4000244140625</ele>
        <time>2026-09-01T08:38:29.000Z</time>
        <extensions>
          <ns3:TrackPointExtension>
            <ns3:hr>148</ns3:hr>
            <ns3:cad>100</ns3:cad>
          </ns3:TrackPointExtension>
        </extensions>
      </trkpt>
      <trkpt lat="47.50486093573272228240966796875" lon="10.12071901001036167144775390625">
        <ele>1628.800048828125</ele>
        <time>2026-09-01T08:38:30.000Z</time>
        <extensions>
          <ns3:TrackPointExtension>
            <ns3:hr>148</ns3:hr>
            <ns3:cad>100</ns3:cad>
          </ns3:TrackPointExtension>
        </extensions>
      </trkpt>
      <trkpt lat="47.5048385560512542724609375" lon="10.12071364559233188629150390625">
        <ele>1628.199951171875</ele>
        <time>2026-09-01T08:38:31.000Z</time>
        <extensions>
          <ns3:TrackPointExtension>
            <ns3:hr>147</ns3:hr>
            <ns3:cad>100</ns3:cad>
          </ns3:TrackPointExtension>
        </extensions>
      </trkpt>
      <trkpt lat="47.50479086302220821380615234375" lon="10.1207162439823150634765625">
        <ele>1626.800048828125</ele>
        <time>2026-09-01T08:38:33.000Z</time>
        <extensions>
          <ns3:TrackPointExtension>
            <ns3:hr>148</ns3:hr>
            <ns3:cad>0</ns3:cad>
          </ns3:TrackPointExtension>
        </extensions>
      </trkpt>
      <trkpt lat="47.5047595985233783721923828125" lon="10.1207189261913299560546875">
        <ele>1625.5999755859375</ele>
        <time>2026-09-01T08:38:34.000Z</time>
        <extensions>
          <ns3:TrackPointExtension>
            <ns3:hr>148</ns3:hr>
            <ns3:cad>0</ns3:cad>
          </ns3:TrackPointExtension>
        </extensions>
      </trkpt>
      <trkpt lat="47.5047595985233783721923828125" lon="10.1207189261913299560546875">
        <ele>1624.5999755859375</ele>
        <time>2026-09-01T08:38:35.000Z</time>
        <extensions>
          <ns3:TrackPointExtension>
            <ns3:hr>148</ns3:hr>
            <ns3:cad>0</ns3:cad>
          </ns3:TrackPointExtension>
        </extensions>
      </trkpt>
      <trkpt lat="47.5047076307237148284912109375" lon="10.120721273124217987060546875">
        <ele>1623.5999755859375</ele>
        <time>2026-09-01T08:38:36.000Z</time>
        <extensions>
          <ns3:TrackPointExtension>
            <ns3:hr>147</ns3:hr>
            <ns3:cad>0</ns3:cad>
          </ns3:TrackPointExtension>
        </extensions>
      </trkpt>
      <trkpt lat="47.504657171666622161865234375" lon="10.12075044214725494384765625">
        <ele>1622</ele>
        <time>2026-09-01T08:38:38.000Z</time>
        <extensions>
          <ns3:TrackPointExtension>
            <ns3:hr>147</ns3:hr>
            <ns3:cad>96</ns3:cad>
          </ns3:TrackPointExtension>
        </extensions>
      </trkpt>
      <trkpt lat="47.5046137534081935882568359375" lon="10.12076108716428279876708984375">
        <ele>1620.5999755859375</ele>
        <time>2026-09-01T08:38:40.000Z</time>
        <extensions>
          <ns3:TrackPointExtension>
            <ns3:hr>147</ns3:hr>
            <ns3:cad>96</ns3:cad>
          </ns3:TrackPointExtension>
        </extensions>
      </trkpt>
      <trkpt lat="47.5046191178262233734130859375" lon="10.12070040218532085418701171875">
        <ele>1619.4000244140625</ele>
        <time>2026-09-01T08:38:42.000Z</time>
        <extensions>
          <ns3:TrackPointExtension>
            <ns3:hr>147</ns3:hr>
            <ns3:cad>100</ns3:cad>
          </ns3:TrackPointExtension>
        </extensions>
      </trkpt>
      <trkpt lat="47.50463076867163181304931640625" lon="10.12064055539667606353759765625">
        <ele>1617.800048828125</ele>
        <time>2026-09-01T08:38:44.000Z</time>
        <extensions>
          <ns3:TrackPointExtension>
            <ns3:hr>147</ns3:hr>
            <ns3:cad>100</ns3:cad>
          </ns3:TrackPointExtension>
        </extensions>
      </trkpt>
      <trkpt lat="47.5046325288712978363037109375" lon="10.120579116046428680419921875">
        <ele>1616</ele>
        <time>2026-09-01T08:38:46.000Z</time>
        <extensions>
          <ns3:TrackPointExtension>
            <ns3:hr>147</ns3:hr>
            <ns3:cad>100</ns3:cad>
          </ns3:TrackPointExtension>
        </extensions>
      </trkpt>
      <trkpt lat="47.50463361851871013641357421875" lon="10.1205273158848285675048828125">
        <ele>1614.4000244140625</ele>
        <time>2026-09-01T08:38:48.000Z</time>
        <extensions>
          <ns3:TrackPointExtension>
            <ns3:hr>149</ns3:hr>
            <ns3:cad>79</ns3:cad>
          </ns3:TrackPointExtension>
        </extensions>
      </trkpt>
      <trkpt lat="47.50463093630969524383544921875" lon="10.12046210467815399169921875">
        <ele>1612.800048828125</ele>
        <time>2026-09-01T08:38:50.000Z</time>
        <extensions>
          <ns3:TrackPointExtension>
            <ns3:hr>149</ns3:hr>
            <ns3:cad>80</ns3:cad>
          </ns3:TrackPointExtension>
        </extensions>
      </trkpt>
      <trkpt lat="47.50463294796645641326904296875" lon="10.120400749146938323974609375">
        <ele>1611.199951171875</ele>
        <time>2026-09-01T08:38:52.000Z</time>
        <extensions>
          <ns3:TrackPointExtension>
            <ns3:hr>148</ns3:hr>
            <ns3:cad>80</ns3:cad>
          </ns3:TrackPointExtension>
        </extensions>
      </trkpt>
      <trkpt lat="47.50464669428765773773193359375" lon="10.12033260427415370941162109375">
        <ele>1609.5999755859375</ele>
        <time>2026-09-01T08:38:54.000Z</time>
        <extensions>
          <ns3:TrackPointExtension>
            <ns3:hr>148</ns3:hr>
            <ns3:cad>80</ns3:cad>
          </ns3:TrackPointExtension>
        </extensions>
      </trkpt>
      <trkpt lat="47.50464610755443572998046875" lon="10.1202942989766597747802734375">
        <ele>1609</ele>
        <time>2026-09-01T08:38:55.000Z</time>
        <extensions>
          <ns3:TrackPointExtension>
            <ns3:hr>148</ns3:hr>
            <ns3:cad>80</ns3:cad>
          </ns3:TrackPointExtension>
        </extensions>
      </trkpt>
      <trkpt lat="47.50463864766061305999755859375" lon="10.12026974000036716461181640625">
        <ele>1608.199951171875</ele>
        <time>2026-09-01T08:38:56.000Z</time>
        <extensions>
          <ns3:TrackPointExtension>
            <ns3:hr>148</ns3:hr>
            <ns3:cad>80</ns3:cad>
          </ns3:TrackPointExtension>
        </extensions>
      </trkpt>
      <trkpt lat="47.50463495962321758270263671875" lon="10.120221041142940521240234375">
        <ele>1606.4000244140625</ele>
        <time>2026-09-01T08:38:58.000Z</time>
        <extensions>
          <ns3:TrackPointExtension>
            <ns3:hr>148</ns3:hr>
            <ns3:cad>93</ns3:cad>
          </ns3:TrackPointExtension>
        </extensions>
      </trkpt>
      <trkpt lat="47.50460051000118255615234375" lon="10.12019312940537929534912109375">
        <ele>1604.800048828125</ele>
        <time>2026-09-01T08:39:00.000Z</time>
        <extensions>
          <ns3:TrackPointExtension>
            <ns3:hr>148</ns3:hr>
            <ns3:cad>93</ns3:cad>
          </ns3:TrackPointExtension>
        </extensions>
      </trkpt>
      <trkpt lat="47.50454192049801349639892578125" lon="10.12021643109619617462158203125">
        <ele>1603</ele>
        <time>2026-09-01T08:39:02.000Z</time>
        <extensions>
          <ns3:TrackPointExtension>
            <ns3:hr>148</ns3:hr>
            <ns3:cad>93</ns3:cad>
          </ns3:TrackPointExtension>
        </extensions>
      </trkpt>
      <trkpt lat="47.50447570346295833587646484375" lon="10.12023537419736385345458984375">
        <ele>1601.199951171875</ele>
        <time>2026-09-01T08:39:04.000Z</time>
        <extensions>
          <ns3:TrackPointExtension>
            <ns3:hr>147</ns3:hr>
            <ns3:cad>93</ns3:cad>
          </ns3:TrackPointExtension>
        </extensions>
      </trkpt>
      <trkpt lat="47.50443530268967151641845703125" lon="10.120229423046112060546875">
        <ele>1599.4000244140625</ele>
        <time>2026-09-01T08:39:06.000Z</time>
        <extensions>
          <ns3:TrackPointExtension>
            <ns3:hr>148</ns3:hr>
            <ns3:cad>93</ns3:cad>
          </ns3:TrackPointExtension>
        </extensions>
      </trkpt>
      <trkpt lat="47.50445994548499584197998046875" lon="10.1202124916017055511474609375">
        <ele>1598.800048828125</ele>
        <time>2026-09-01T08:39:07.000Z</time>
        <extensions>
          <ns3:TrackPointExtension>
            <ns3:hr>148</ns3:hr>
            <ns3:cad>92</ns3:cad>
          </ns3:TrackPointExtension>
        </extensions>
      </trkpt>
      <trkpt lat="47.5044719316065311431884765625" lon="10.12016848661005496978759765625">
        <ele>1598.199951171875</ele>
        <time>2026-09-01T08:39:08.000Z</time>
        <extensions>
          <ns3:TrackPointExtension>
            <ns3:hr>148</ns3:hr>
            <ns3:cad>92</ns3:cad>
          </ns3:TrackPointExtension>
        </extensions>
      </trkpt>
      <trkpt lat="47.50449112616479396820068359375" lon="10.1200891099870204925537109375">
        <ele>1597.199951171875</ele>
        <time>2026-09-01T08:39:10.000Z</time>
        <extensions>
          <ns3:TrackPointExtension>
            <ns3:hr>147</ns3:hr>
            <ns3:cad>92</ns3:cad>
          </ns3:TrackPointExtension>
        </extensions>
      </trkpt>
      <trkpt lat="47.5045071355998516082763671875" lon="10.120032615959644317626953125">
        <ele>1596</ele>
        <time>2026-09-01T08:39:12.000Z</time>
        <extensions>
          <ns3:TrackPointExtension>
            <ns3:hr>147</ns3:hr>
            <ns3:cad>88</ns3:cad>
          </ns3:TrackPointExtension>
        </extensions>
      </trkpt>
      <trkpt lat="47.504518367350101470947265625" lon="10.11998643167316913604736328125">
        <ele>1594.800048828125</ele>
        <time>2026-09-01T08:39:14.000Z</time>
        <extensions>
          <ns3:TrackPointExtension>
            <ns3:hr>146</ns3:hr>
            <ns3:cad>88</ns3:cad>
          </ns3:TrackPointExtension>
        </extensions>
      </trkpt>
      <trkpt lat="47.50452314503490924835205078125" lon="10.11995273642241954803466796875">
        <ele>1594.199951171875</ele>
        <time>2026-09-01T08:39:15.000Z</time>
        <extensions>
          <ns3:TrackPointExtension>
            <ns3:hr>146</ns3:hr>
            <ns3:cad>95</ns3:cad>
          </ns3:TrackPointExtension>
        </extensions>
      </trkpt>
      <trkpt lat="47.5045141763985157012939453125" lon="10.11991887353360652923583984375">
        <ele>1593.5999755859375</ele>
        <time>2026-09-01T08:39:16.000Z</time>
        <extensions>
          <ns3:TrackPointExtension>
            <ns3:hr>145</ns3:hr>
            <ns3:cad>96</ns3:cad>
          </ns3:TrackPointExtension>
        </extensions>
      </trkpt>
      <trkpt lat="47.50449590384960174560546875" lon="10.1198686659336090087890625">
        <ele>1592.4000244140625</ele>
        <time>2026-09-01T08:39:18.000Z</time>
        <extensions>
          <ns3:TrackPointExtension>
            <ns3:hr>146</ns3:hr>
            <ns3:cad>96</ns3:cad>
          </ns3:TrackPointExtension>
        </extensions>
      </trkpt>
      <trkpt lat="47.5044799782335758209228515625" lon="10.11984796263277530670166015625">
        <ele>1591.4000244140625</ele>
        <time>2026-09-01T08:39:19.000Z</time>
        <extensions>
          <ns3:TrackPointExtension>
            <ns3:hr>146</ns3:hr>
            <ns3:cad>96</ns3:cad>
          </ns3:TrackPointExtension>
        </extensions>
      </trkpt>
      <trkpt lat="47.50446631573140621185302734375" lon="10.11983178555965423583984375">
        <ele>1590.5999755859375</ele>
        <time>2026-09-01T08:39:20.000Z</time>
        <extensions>
          <ns3:TrackPointExtension>
            <ns3:hr>147</ns3:hr>
            <ns3:cad>96</ns3:cad>
          </ns3:TrackPointExtension>
        </extensions>
      </trkpt>
      <trkpt lat="47.50444494187831878662109375" lon="10.1197937317192554473876953125">
        <ele>1588.5999755859375</ele>
        <time>2026-09-01T08:39:22.000Z</time>
        <extensions>
          <ns3:TrackPointExtension>
            <ns3:hr>147</ns3:hr>
            <ns3:cad>96</ns3:cad>
          </ns3:TrackPointExtension>
        </extensions>
      </trkpt>
      <trkpt lat="47.50442038290202617645263671875" lon="10.11975039727985858917236328125">
        <ele>1586.800048828125</ele>
        <time>2026-09-01T08:39:24.000Z</time>
        <extensions>
          <ns3:TrackPointExtension>
            <ns3:hr>148</ns3:hr>
            <ns3:cad>96</ns3:cad>
          </ns3:TrackPointExtension>
        </extensions>
      </trkpt>
      <trkpt lat="47.50440127216279506683349609375" lon="10.11971301399171352386474609375">
        <ele>1585</ele>
        <time>2026-09-01T08:39:26.000Z</time>
        <extensions>
          <ns3:TrackPointExtension>
            <ns3:hr>148</ns3:hr>
            <ns3:cad>96</ns3:cad>
          </ns3:TrackPointExtension>
        </extensions>
      </trkpt>
      <trkpt lat="47.5043874420225620269775390625" lon="10.11966557241976261138916015625">
        <ele>1583.5999755859375</ele>
        <time>2026-09-01T08:39:28.000Z</time>
        <extensions>
          <ns3:TrackPointExtension>
            <ns3:hr>149</ns3:hr>
            <ns3:cad>96</ns3:cad>
          </ns3:TrackPointExtension>
        </extensions>
      </trkpt>
      <trkpt lat="47.50436875037848949432373046875" lon="10.11962617747485637664794921875">
        <ele>1582</ele>
        <time>2026-09-01T08:39:30.000Z</time>
        <extensions>
          <ns3:TrackPointExtension>
            <ns3:hr>148</ns3:hr>
            <ns3:cad>0</ns3:cad>
          </ns3:TrackPointExtension>
        </extensions>
      </trkpt>
      <trkpt lat="47.5043455325067043304443359375" lon="10.1195868663489818572998046875">
        <ele>1580.199951171875</ele>
        <time>2026-09-01T08:39:32.000Z</time>
        <extensions>
          <ns3:TrackPointExtension>
            <ns3:hr>149</ns3:hr>
            <ns3:cad>0</ns3:cad>
          </ns3:TrackPointExtension>
        </extensions>
      </trkpt>
      <trkpt lat="47.5043307803571224212646484375" lon="10.11955023743212223052978515625">
        <ele>1578.5999755859375</ele>
        <time>2026-09-01T08:39:34.000Z</time>
        <extensions>
          <ns3:TrackPointExtension>
            <ns3:hr>149</ns3:hr>
            <ns3:cad>0</ns3:cad>
          </ns3:TrackPointExtension>
        </extensions>
      </trkpt>
      <trkpt lat="47.50431762076914310455322265625" lon="10.11952911503612995147705078125">
        <ele>1577.5999755859375</ele>
        <time>2026-09-01T08:39:35.000Z</time>
        <extensions>
          <ns3:TrackPointExtension>
            <ns3:hr>149</ns3:hr>
            <ns3:cad>0</ns3:cad>
          </ns3:TrackPointExtension>
        </extensions>
      </trkpt>
      <trkpt lat="47.50430135987699031829833984375" lon="10.11950631625950336456298828125">
        <ele>1575.5999755859375</ele>
        <time>2026-09-01T08:39:37.000Z</time>
        <extensions>
          <ns3:TrackPointExtension>
            <ns3:hr>149</ns3:hr>
            <ns3:cad>0</ns3:cad>
          </ns3:TrackPointExtension>
        </extensions>
      </trkpt>
      <trkpt lat="47.50431996770203113555908203125" lon="10.11945904232561588287353515625">
        <ele>1574.800048828125</ele>
        <time>2026-09-01T08:39:38.000Z</time>
        <extensions>
          <ns3:TrackPointExtension>
            <ns3:hr>149</ns3:hr>
            <ns3:cad>0</ns3:cad>
          </ns3:TrackPointExtension>
        </extensions>
      </trkpt>
      <trkpt lat="47.5043106637895107269287109375" lon="10.11942350305616855621337890625">
        <ele>1574</ele>
        <time>2026-09-01T08:39:39.000Z</time>
        <extensions>
          <ns3:TrackPointExtension>
            <ns3:hr>149</ns3:hr>
            <ns3:cad>0</ns3:cad>
          </ns3:TrackPointExtension>
        </extensions>
      </trkpt>
      <trkpt lat="47.50430555082857608795166015625" lon="10.11940321885049343109130859375">
        <ele>1573.199951171875</ele>
        <time>2026-09-01T08:39:40.000Z</time>
        <extensions>
          <ns3:TrackPointExtension>
            <ns3:hr>149</ns3:hr>
            <ns3:cad>0</ns3:cad>
          </ns3:TrackPointExtension>
        </extensions>
      </trkpt>
      <trkpt lat="47.5043022818863391876220703125" lon="10.11939450167119503021240234375">
        <ele>1572.5999755859375</ele>
        <time>2026-09-01T08:39:41.000Z</time>
        <extensions>
          <ns3:TrackPointExtension>
            <ns3:hr>151</ns3:hr>
            <ns3:cad>0</ns3:cad>
          </ns3:TrackPointExtension>
        </extensions>
      </trkpt>
      <trkpt lat="47.50427906401455402374267578125" lon="10.11934052221477031707763671875">
        <ele>1571</ele>
        <time>2026-09-01T08:39:43.000Z</time>
        <extensions>
          <ns3:TrackPointExtension>
            <ns3:hr>151</ns3:hr>
            <ns3:cad>0</ns3:cad>
          </ns3:TrackPointExtension>
        </extensions>
      </trkpt>
      <trkpt lat="47.504268586635589599609375" lon="10.11932157911360263824462890625">
        <ele>1570</ele>
        <time>2026-09-01T08:39:44.000Z</time>
        <extensions>
          <ns3:TrackPointExtension>
            <ns3:hr>150</ns3:hr>
            <ns3:cad>100</ns3:cad>
          </ns3:TrackPointExtension>
        </extensions>
      </trkpt>
      <trkpt lat="47.50425693579018115997314453125" lon="10.1193095929920673370361328125">
        <ele>1569.199951171875</ele>
        <time>2026-09-01T08:39:45.000Z</time>
        <extensions>
          <ns3:TrackPointExtension>
            <ns3:hr>150</ns3:hr>
            <ns3:cad>100</ns3:cad>
          </ns3:TrackPointExtension>
        </extensions>
      </trkpt>
      <trkpt lat="47.504241764545440673828125" lon="10.1192717067897319793701171875">
        <ele>1567.5999755859375</ele>
        <time>2026-09-01T08:39:47.000Z</time>
        <extensions>
          <ns3:TrackPointExtension>
            <ns3:hr>149</ns3:hr>
            <ns3:cad>100</ns3:cad>
          </ns3:TrackPointExtension>
        </extensions>
      </trkpt>
      <trkpt lat="47.50423028133809566497802734375" lon="10.1192727126181125640869140625">
        <ele>1567</ele>
        <time>2026-09-01T08:39:49.000Z</time>
        <extensions>
          <ns3:TrackPointExtension>
            <ns3:hr>149</ns3:hr>
            <ns3:cad>100</ns3:cad>
          </ns3:TrackPointExtension>
        </extensions>
      </trkpt>
      <trkpt lat="47.5042365677654743194580078125" lon="10.11924027465283870697021484375">
        <ele>1566.4000244140625</ele>
        <time>2026-09-01T08:39:51.000Z</time>
        <extensions>
          <ns3:TrackPointExtension>
            <ns3:hr>148</ns3:hr>
            <ns3:cad>53</ns3:cad>
          </ns3:TrackPointExtension>
        </extensions>
      </trkpt>
      <trkpt lat="47.5042167864739894866943359375" lon="10.11922719888389110565185546875">
        <ele>1565.800048828125</ele>
        <time>2026-09-01T08:39:52.000Z</time>
        <extensions>
          <ns3:TrackPointExtension>
            <ns3:hr>149</ns3:hr>
            <ns3:cad>53</ns3:cad>
          </ns3:TrackPointExtension>
        </extensions>
      </trkpt>
      <trkpt lat="47.5041943229734897613525390625" lon="10.11921060271561145782470703125">
        <ele>1565</ele>
        <time>2026-09-01T08:39:53.000Z</time>
        <extensions>
          <ns3:TrackPointExtension>
            <ns3:hr>149</ns3:hr>
            <ns3:cad>0</ns3:cad>
          </ns3:TrackPointExtension>
        </extensions>
      </trkpt>
      <trkpt lat="47.5041685067117214202880859375" lon="10.1192133687436580657958984375">
        <ele>1564</ele>
        <time>2026-09-01T08:39:54.000Z</time>
        <extensions>
          <ns3:TrackPointExtension>
            <ns3:hr>148</ns3:hr>
            <ns3:cad>0</ns3:cad>
          </ns3:TrackPointExtension>
        </extensions>
      </trkpt>
      <trkpt lat="47.50416054390370845794677734375" lon="10.11920171789824962615966796875">
        <ele>1563.4000244140625</ele>
        <time>2026-09-01T08:39:55.000Z</time>
        <extensions>
          <ns3:TrackPointExtension>
            <ns3:hr>148</ns3:hr>
            <ns3:cad>0</ns3:cad>
          </ns3:TrackPointExtension>
        </extensions>
      </trkpt>
      <trkpt lat="47.504168339073657989501953125" lon="10.1191808469593524932861328125">
        <ele>1562.5999755859375</ele>
        <time>2026-09-01T08:39:56.000Z</time>
        <extensions>
          <ns3:TrackPointExtension>
            <ns3:hr>147</ns3:hr>
            <ns3:cad>0</ns3:cad>
          </ns3:TrackPointExtension>
        </extensions>
      </trkpt>
      <trkpt lat="47.50418166629970073699951171875" lon="10.11917221359908580780029296875">
        <ele>1562</ele>
        <time>2026-09-01T08:39:57.000Z</time>
        <extensions>
          <ns3:TrackPointExtension>
            <ns3:hr>148</ns3:hr>
            <ns3:cad>0</ns3:cad>
          </ns3:TrackPointExtension>
        </extensions>
      </trkpt>
      <trkpt lat="47.50419843010604381561279296875" lon="10.11916768737137317657470703125">
        <ele>1561.4000244140625</ele>
        <time>2026-09-01T08:39:58.000Z</time>
        <extensions>
          <ns3:TrackPointExtension>
            <ns3:hr>147</ns3:hr>
            <ns3:cad>0</ns3:cad>
          </ns3:TrackPointExtension>
        </extensions>
      </trkpt>
      <trkpt lat="47.504209913313388824462890625" lon="10.1191104389727115631103515625">
        <ele>1560.5999755859375</ele>
        <time>2026-09-01T08:40:00.000Z</time>
        <extensions>
          <ns3:TrackPointExtension>
            <ns3:hr>147</ns3:hr>
            <ns3:cad>0</ns3:cad>
          </ns3:TrackPointExtension>
        </extensions>
      </trkpt>
      <trkpt lat="47.504200525581836700439453125" lon="10.11907900683581829071044921875">
        <ele>1560</ele>
        <time>2026-09-01T08:40:01.000Z</time>
        <extensions>
          <ns3:TrackPointExtension>
            <ns3:hr>147</ns3:hr>
            <ns3:cad>0</ns3:cad>
          </ns3:TrackPointExtension>
        </extensions>
      </trkpt>
      <trkpt lat="47.50418610870838165283203125" lon="10.1190554536879062652587890625">
        <ele>1559.4000244140625</ele>
        <time>2026-09-01T08:40:02.000Z</time>
        <extensions>
          <ns3:TrackPointExtension>
            <ns3:hr>148</ns3:hr>
            <ns3:cad>0</ns3:cad>
          </ns3:TrackPointExtension>
        </extensions>
      </trkpt>
      <trkpt lat="47.504154257476329803466796875" lon="10.118992589414119720458984375">
        <ele>1557.800048828125</ele>
        <time>2026-09-01T08:40:04.000Z</time>
        <extensions>
          <ns3:TrackPointExtension>
            <ns3:hr>147</ns3:hr>
            <ns3:cad>0</ns3:cad>
          </ns3:TrackPointExtension>
        </extensions>
      </trkpt>
      <trkpt lat="47.50413917005062103271484375" lon="10.1189645938575267791748046875">
        <ele>1557</ele>
        <time>2026-09-01T08:40:05.000Z</time>
        <extensions>
          <ns3:TrackPointExtension>
            <ns3:hr>147</ns3:hr>
            <ns3:cad>0</ns3:cad>
          </ns3:TrackPointExtension>
        </extensions>
      </trkpt>
      <trkpt lat="47.5041198916733264923095703125" lon="10.1189253665506839752197265625">
        <ele>1556</ele>
        <time>2026-09-01T08:40:06.000Z</time>
        <extensions>
          <ns3:TrackPointExtension>
            <ns3:hr>148</ns3:hr>
            <ns3:cad>0</ns3:cad>
          </ns3:TrackPointExtension>
        </extensions>
      </trkpt>
      <trkpt lat="47.50408443622291088104248046875" lon="10.11886023916304111480712890625">
        <ele>1554.199951171875</ele>
        <time>2026-09-01T08:40:08.000Z</time>
        <extensions>
          <ns3:TrackPointExtension>
            <ns3:hr>147</ns3:hr>
            <ns3:cad>98</ns3:cad>
          </ns3:TrackPointExtension>
        </extensions>
      </trkpt>
      <trkpt lat="47.50405577011406421661376953125" lon="10.11879921890795230865478515625">
        <ele>1552.5999755859375</ele>
        <time>2026-09-01T08:40:10.000Z</time>
        <extensions>
          <ns3:TrackPointExtension>
            <ns3:hr>148</ns3:hr>
            <ns3:cad>102</ns3:cad>
          </ns3:TrackPointExtension>
        </extensions>
      </trkpt>
      <trkpt lat="47.50404688529670238494873046875" lon="10.1187758333981037139892578125">
        <ele>1551.800048828125</ele>
        <time>2026-09-01T08:40:11.000Z</time>
        <extensions>
          <ns3:TrackPointExtension>
            <ns3:hr>148</ns3:hr>
            <ns3:cad>102</ns3:cad>
          </ns3:TrackPointExtension>
        </extensions>
      </trkpt>
      <trkpt lat="47.50403498299419879913330078125" lon="10.11873601935803890228271484375">
        <ele>1551</ele>
        <time>2026-09-01T08:40:12.000Z</time>
        <extensions>
          <ns3:TrackPointExtension>
            <ns3:hr>147</ns3:hr>
            <ns3:cad>101</ns3:cad>
          </ns3:TrackPointExtension>
        </extensions>
      </trkpt>
      <trkpt lat="47.504037581384181976318359375" lon="10.11867634020745754241943359375">
        <ele>1549.4000244140625</ele>
        <time>2026-09-01T08:40:14.000Z</time>
        <extensions>
          <ns3:TrackPointExtension>
            <ns3:hr>148</ns3:hr>
            <ns3:cad>101</ns3:cad>
          </ns3:TrackPointExtension>
        </extensions>
      </trkpt>
      <trkpt lat="47.50407907180488109588623046875" lon="10.1186085306107997894287109375">
        <ele>1547.5999755859375</ele>
        <time>2026-09-01T08:40:16.000Z</time>
        <extensions>
          <ns3:TrackPointExtension>
            <ns3:hr>147</ns3:hr>
            <ns3:cad>101</ns3:cad>
          </ns3:TrackPointExtension>
        </extensions>
      </trkpt>
      <trkpt lat="47.50410421751439571380615234375" lon="10.1185951195657253265380859375">
        <ele>1547</ele>
        <time>2026-09-01T08:40:17.000Z</time>
        <extensions>
          <ns3:TrackPointExtension>
            <ns3:hr>146</ns3:hr>
            <ns3:cad>92</ns3:cad>
          </ns3:TrackPointExtension>
        </extensions>
      </trkpt>
      <trkpt lat="47.50413238070905208587646484375" lon="10.11858321726322174072265625">
        <ele>1546.5999755859375</ele>
        <time>2026-09-01T08:40:18.000Z</time>
        <extensions>
          <ns3:TrackPointExtension>
            <ns3:hr>146</ns3:hr>
            <ns3:cad>89</ns3:cad>
          </ns3:TrackPointExtension>
        </extensions>
      </trkpt>
      <trkpt lat="47.50419490970671176910400390625" lon="10.1185753382742404937744140625">
        <ele>1545.5999755859375</ele>
        <time>2026-09-01T08:40:20.000Z</time>
        <extensions>
          <ns3:TrackPointExtension>
            <ns3:hr>146</ns3:hr>
            <ns3:cad>89</ns3:cad>
          </ns3:TrackPointExtension>
        </extensions>
      </trkpt>
      <trkpt lat="47.50424402765929698944091796875" lon="10.11857248842716217041015625">
        <ele>1544.5999755859375</ele>
        <time>2026-09-01T08:40:22.000Z</time>
        <extensions>
          <ns3:TrackPointExtension>
            <ns3:hr>148</ns3:hr>
            <ns3:cad>88</ns3:cad>
          </ns3:TrackPointExtension>
        </extensions>
      </trkpt>
      <trkpt lat="47.50426523387432098388671875" lon="10.1185515336692333221435546875">
        <ele>1544</ele>
        <time>2026-09-01T08:40:23.000Z</time>
        <extensions>
          <ns3:TrackPointExtension>
            <ns3:hr>148</ns3:hr>
            <ns3:cad>88</ns3:cad>
          </ns3:TrackPointExtension>
        </extensions>
      </trkpt>
      <trkpt lat="47.50427755527198314666748046875" lon="10.11849604547023773193359375">
        <ele>1543</ele>
        <time>2026-09-01T08:40:25.000Z</time>
        <extensions>
          <ns3:TrackPointExtension>
            <ns3:hr>148</ns3:hr>
            <ns3:cad>88</ns3:cad>
          </ns3:TrackPointExtension>
        </extensions>
      </trkpt>
      <trkpt lat="47.50427219085395336151123046875" lon="10.1184730790555477142333984375">
        <ele>1542.5999755859375</ele>
        <time>2026-09-01T08:40:26.000Z</time>
        <extensions>
          <ns3:TrackPointExtension>
            <ns3:hr>148</ns3:hr>
            <ns3:cad>88</ns3:cad>
          </ns3:TrackPointExtension>
        </extensions>
      </trkpt>
      <trkpt lat="47.50426389276981353759765625" lon="10.11845606379210948944091796875">
        <ele>1541.5999755859375</ele>
        <time>2026-09-01T08:40:29.000Z</time>
        <extensions>
          <ns3:TrackPointExtension>
            <ns3:hr>145</ns3:hr>
            <ns3:cad>0</ns3:cad>
          </ns3:TrackPointExtension>
        </extensions>
      </trkpt>
      <trkpt lat="47.504260875284671783447265625" lon="10.11845824308693408966064453125">
        <ele>1541.4000244140625</ele>
        <time>2026-09-01T08:40:30.000Z</time>
        <extensions>
          <ns3:TrackPointExtension>
            <ns3:hr>144</ns3:hr>
            <ns3:cad>0</ns3:cad>
          </ns3:TrackPointExtension>
        </extensions>
      </trkpt>
      <trkpt lat="47.504264898598194122314453125" lon="10.11846628971397876739501953125">
        <ele>1541.199951171875</ele>
        <time>2026-09-01T08:40:32.000Z</time>
        <extensions>
          <ns3:TrackPointExtension>
            <ns3:hr>141</ns3:hr>
            <ns3:cad>0</ns3:cad>
          </ns3:TrackPointExtension>
        </extensions>
      </trkpt>
      <trkpt lat="47.50426129437983036041259765625" lon="10.1184670440852642059326171875">
        <ele>1541.199951171875</ele>
        <time>2026-09-01T08:40:33.000Z</time>
        <extensions>
          <ns3:TrackPointExtension>
            <ns3:hr>138</ns3:hr>
            <ns3:cad>0</ns3:cad>
          </ns3:TrackPointExtension>
        </extensions>
      </trkpt>
      <trkpt lat="47.5042664073407649993896484375" lon="10.118469558656215667724609375">
        <ele>1541.4000244140625</ele>
        <time>2026-09-01T08:40:34.000Z</time>
        <extensions>
          <ns3:TrackPointExtension>
            <ns3:hr>133</ns3:hr>
            <ns3:cad>0</ns3:cad>
          </ns3:TrackPointExtension>
        </extensions>
      </trkpt>
      <trkpt lat="47.50431108288466930389404296875" lon="10.118486993014812469482421875">
        <ele>1542</ele>
        <time>2026-09-01T08:40:38.000Z</time>
        <extensions>
          <ns3:TrackPointExtension>
            <ns3:hr>136</ns3:hr>
            <ns3:cad>0</ns3:cad>
          </ns3:TrackPointExtension>
        </extensions>
      </trkpt>
      <trkpt lat="47.50433991663157939910888671875" lon="10.11845991946756839752197265625">
        <ele>1541.5999755859375</ele>
        <time>2026-09-01T08:40:40.000Z</time>
        <extensions>
          <ns3:TrackPointExtension>
            <ns3:hr>138</ns3:hr>
            <ns3:cad>59</ns3:cad>
          </ns3:TrackPointExtension>
        </extensions>
      </trkpt>
      <trkpt lat="47.5043985061347484588623046875" lon="10.11841113679111003875732421875">
        <ele>1540.199951171875</ele>
        <time>2026-09-01T08:40:43.000Z</time>
        <extensions>
          <ns3:TrackPointExtension>
            <ns3:hr>141</ns3:hr>
            <ns3:cad>91</ns3:cad>
          </ns3:TrackPointExtension>
        </extensions>
      </trkpt>
      <trkpt lat="47.50441803596913814544677734375" lon="10.118357576429843902587890625">
        <ele>1539</ele>
        <time>2026-09-01T08:40:45.000Z</time>
        <extensions>
          <ns3:TrackPointExtension>
            <ns3:hr>143</ns3:hr>
            <ns3:cad>91</ns3:cad>
          </ns3:TrackPointExtension>
        </extensions>
      </trkpt>
      <trkpt lat="47.5044308602809906005859375" lon="10.11828507296741008758544921875">
        <ele>1538.4000244140625</ele>
        <time>2026-09-01T08:40:47.000Z</time>
        <extensions>
          <ns3:TrackPointExtension>
            <ns3:hr>143</ns3:hr>
            <ns3:cad>89</ns3:cad>
          </ns3:TrackPointExtension>
        </extensions>
      </trkpt>
      <trkpt lat="47.504439912736415863037109375" lon="10.1182481087744235992431640625">
        <ele>1538</ele>
        <time>2026-09-01T08:40:48.000Z</time>
        <extensions>
          <ns3:TrackPointExtension>
            <ns3:hr>143</ns3:hr>
            <ns3:cad>89</ns3:cad>
          </ns3:TrackPointExtension>
        </extensions>
      </trkpt>
      <trkpt lat="47.50443681143224239349365234375" lon="10.1180823147296905517578125">
        <ele>1536.800048828125</ele>
        <time>2026-09-01T08:40:52.000Z</time>
        <extensions>
          <ns3:TrackPointExtension>
            <ns3:hr>142</ns3:hr>
            <ns3:cad>87</ns3:cad>
          </ns3:TrackPointExtension>
        </extensions>
      </trkpt>
      <trkpt lat="47.50442348420619964599609375" lon="10.118033699691295623779296875">
        <ele>1536.5999755859375</ele>
        <time>2026-09-01T08:40:53.000Z</time>
        <extensions>
          <ns3:TrackPointExtension>
            <ns3:hr>142</ns3:hr>
            <ns3:cad>88</ns3:cad>
          </ns3:TrackPointExtension>
        </extensions>
      </trkpt>
      <trkpt lat="47.50435902737081050872802734375" lon="10.1178263314068317413330078125">
        <ele>1535.800048828125</ele>
        <time>2026-09-01T08:40:58.000Z</time>
        <extensions>
          <ns3:TrackPointExtension>
            <ns3:hr>142</ns3:hr>
            <ns3:cad>88</ns3:cad>
          </ns3:TrackPointExtension>
        </extensions>
      </trkpt>
      <trkpt lat="47.50428878702223300933837890625" lon="10.11764687485992908477783203125">
        <ele>1535.5999755859375</ele>
        <time>2026-09-01T08:41:02.000Z</time>
        <extensions>
          <ns3:TrackPointExtension>
            <ns3:hr>143</ns3:hr>
            <ns3:cad>87</ns3:cad>
          </ns3:TrackPointExtension>
        </extensions>
      </trkpt>
      <trkpt lat="47.504286356270313262939453125" lon="10.117483176290988922119140625">
        <ele>1536.199951171875</ele>
        <time>2026-09-01T08:41:06.000Z</time>
        <extensions>
          <ns3:TrackPointExtension>
            <ns3:hr>144</ns3:hr>
            <ns3:cad>87</ns3:cad>
          </ns3:TrackPointExtension>
        </extensions>
      </trkpt>
      <trkpt lat="47.50426917336881160736083984375" lon="10.1173757202923297882080078125">
        <ele>1537</ele>
        <time>2026-09-01T08:41:10.000Z</time>
        <extensions>
          <ns3:TrackPointExtension>
            <ns3:hr>146</ns3:hr>
            <ns3:cad>88</ns3:cad>
          </ns3:TrackPointExtension>
        </extensions>
      </trkpt>
      <trkpt lat="47.504270263016223907470703125" lon="10.11735032312572002410888671875">
        <ele>1537</ele>
        <time>2026-09-01T08:41:11.000Z</time>
        <extensions>
          <ns3:TrackPointExtension>
            <ns3:hr>146</ns3:hr>
            <ns3:cad>89</ns3:cad>
          </ns3:TrackPointExtension>
        </extensions>
      </trkpt>
      <trkpt lat="47.50428291969001293182373046875" lon="10.1172288693487644195556640625">
        <ele>1538.199951171875</ele>
        <time>2026-09-01T08:41:16.000Z</time>
        <extensions>
          <ns3:TrackPointExtension>
            <ns3:hr>147</ns3:hr>
            <ns3:cad>87</ns3:cad>
          </ns3:TrackPointExtension>
        </extensions>
      </trkpt>
      <trkpt lat="47.50428124330937862396240234375" lon="10.117202214896678924560546875">
        <ele>1538.5999755859375</ele>
        <time>2026-09-01T08:41:17.000Z</time>
        <extensions>
          <ns3:TrackPointExtension>
            <ns3:hr>148</ns3:hr>
            <ns3:cad>87</ns3:cad>
          </ns3:TrackPointExtension>
        </extensions>
      </trkpt>
      <trkpt lat="47.504284344613552093505859375" lon="10.117132477462291717529296875">
        <ele>1539.4000244140625</ele>
        <time>2026-09-01T08:41:20.000Z</time>
        <extensions>
          <ns3:TrackPointExtension>
            <ns3:hr>149</ns3:hr>
            <ns3:cad>81</ns3:cad>
          </ns3:TrackPointExtension>
        </extensions>
      </trkpt>
      <trkpt lat="47.50428677536547183990478515625" lon="10.11710221879184246063232421875">
        <ele>1540.199951171875</ele>
        <time>2026-09-01T08:41:22.000Z</time>
        <extensions>
          <ns3:TrackPointExtension>
            <ns3:hr>150</ns3:hr>
            <ns3:cad>41</ns3:cad>
          </ns3:TrackPointExtension>
        </extensions>
      </trkpt>
      <trkpt lat="47.50427906401455402374267578125" lon="10.1170622371137142181396484375">
        <ele>1540.5999755859375</ele>
        <time>2026-09-01T08:41:24.000Z</time>
        <extensions>
          <ns3:TrackPointExtension>
            <ns3:hr>151</ns3:hr>
            <ns3:cad>41</ns3:cad>
          </ns3:TrackPointExtension>
        </extensions>
      </trkpt>
      <trkpt lat="47.5042684189975261688232421875" lon="10.11699291877448558807373046875">
        <ele>1541.4000244140625</ele>
        <time>2026-09-01T08:41:27.000Z</time>
        <extensions>
          <ns3:TrackPointExtension>
            <ns3:hr>152</ns3:hr>
            <ns3:cad>0</ns3:cad>
          </ns3:TrackPointExtension>
        </extensions>
      </trkpt>
      <trkpt lat="47.5042633898556232452392578125" lon="10.11695645749568939208984375">
        <ele>1541.800048828125</ele>
        <time>2026-09-01T08:41:28.000Z</time>
        <extensions>
          <ns3:TrackPointExtension>
            <ns3:hr>152</ns3:hr>
            <ns3:cad>0</ns3:cad>
          </ns3:TrackPointExtension>
        </extensions>
      </trkpt>
      <trkpt lat="47.50424369238317012786865234375" lon="10.11683081276714801788330078125">
        <ele>1542.5999755859375</ele>
        <time>2026-09-01T08:41:32.000Z</time>
        <extensions>
          <ns3:TrackPointExtension>
            <ns3:hr>155</ns3:hr>
            <ns3:cad>84</ns3:cad>
          </ns3:TrackPointExtension>
        </extensions>
      </trkpt>
      <trkpt lat="47.50423598103225231170654296875" lon="10.116796195507049560546875">
        <ele>1542.800048828125</ele>
        <time>2026-09-01T08:41:33.000Z</time>
        <extensions>
          <ns3:TrackPointExtension>
            <ns3:hr>155</ns3:hr>
            <ns3:cad>84</ns3:cad>
          </ns3:TrackPointExtension>
        </extensions>
      </trkpt>
      <trkpt lat="47.5042055547237396240234375" lon="10.11664071120321750640869140625">
        <ele>1543.5999755859375</ele>
        <time>2026-09-01T08:41:38.000Z</time>
        <extensions>
          <ns3:TrackPointExtension>
            <ns3:hr>158</ns3:hr>
            <ns3:cad>87</ns3:cad>
          </ns3:TrackPointExtension>
        </extensions>
      </trkpt>
      <trkpt lat="47.50419943593442440032958984375" lon="10.1166109554469585418701171875">
        <ele>1544</ele>
        <time>2026-09-01T08:41:39.000Z</time>
        <extensions>
          <ns3:TrackPointExtension>
            <ns3:hr>157</ns3:hr>
            <ns3:cad>87</ns3:cad>
          </ns3:TrackPointExtension>
        </extensions>
      </trkpt>
      <trkpt lat="47.5042053870856761932373046875" lon="10.116488747298717498779296875">
        <ele>1545</ele>
        <time>2026-09-01T08:41:43.000Z</time>
        <extensions>
          <ns3:TrackPointExtension>
            <ns3:hr>158</ns3:hr>
            <ns3:cad>82</ns3:cad>
          </ns3:TrackPointExtension>
        </extensions>
      </trkpt>
      <trkpt lat="47.50421158969402313232421875" lon="10.11645756661891937255859375">
        <ele>1545</ele>
        <time>2026-09-01T08:41:44.000Z</time>
        <extensions>
          <ns3:TrackPointExtension>
            <ns3:hr>158</ns3:hr>
            <ns3:cad>82</ns3:cad>
          </ns3:TrackPointExtension>
        </extensions>
      </trkpt>
      <trkpt lat="47.5042536668479442596435546875" lon="10.1163209415972232818603515625">
        <ele>1546</ele>
        <time>2026-09-01T08:41:49.000Z</time>
        <extensions>
          <ns3:TrackPointExtension>
            <ns3:hr>160</ns3:hr>
            <ns3:cad>85</ns3:cad>
          </ns3:TrackPointExtension>
        </extensions>
      </trkpt>
      <trkpt lat="47.504246123135089874267578125" lon="10.1162703149020671844482421875">
        <ele>1547.199951171875</ele>
        <time>2026-09-01T08:41:53.000Z</time>
        <extensions>
          <ns3:TrackPointExtension>
            <ns3:hr>160</ns3:hr>
            <ns3:cad>87</ns3:cad>
          </ns3:TrackPointExtension>
        </extensions>
      </trkpt>
      <trkpt lat="47.5042459554970264434814453125" lon="10.11625732295215129852294921875">
        <ele>1547.5999755859375</ele>
        <time>2026-09-01T08:41:54.000Z</time>
        <extensions>
          <ns3:TrackPointExtension>
            <ns3:hr>159</ns3:hr>
            <ns3:cad>87</ns3:cad>
          </ns3:TrackPointExtension>
        </extensions>
      </trkpt>
      <trkpt lat="47.5042243301868438720703125" lon="10.11618264019489288330078125">
        <ele>1548.5999755859375</ele>
        <time>2026-09-01T08:41:58.000Z</time>
        <extensions>
          <ns3:TrackPointExtension>
            <ns3:hr>158</ns3:hr>
            <ns3:cad>59</ns3:cad>
          </ns3:TrackPointExtension>
        </extensions>
      </trkpt>
      <trkpt lat="47.50421720556914806365966796875" lon="10.11611692607402801513671875">
        <ele>1549</ele>
        <time>2026-09-01T08:42:00.000Z</time>
        <extensions>
          <ns3:TrackPointExtension>
            <ns3:hr>159</ns3:hr>
            <ns3:cad>58</ns3:cad>
          </ns3:TrackPointExtension>
        </extensions>
      </trkpt>
      <trkpt lat="47.50420664437115192413330078125" lon="10.11597719974815845489501953125">
        <ele>1549.5999755859375</ele>
        <time>2026-09-01T08:42:04.000Z</time>
        <extensions>
          <ns3:TrackPointExtension>
            <ns3:hr>159</ns3:hr>
            <ns3:cad>83</ns3:cad>
          </ns3:TrackPointExtension>
        </extensions>
      </trkpt>
      <trkpt lat="47.50420178286731243133544921875" lon="10.1159447617828845977783203125">
        <ele>1549.800048828125</ele>
        <time>2026-09-01T08:42:05.000Z</time>
        <extensions>
          <ns3:TrackPointExtension>
            <ns3:hr>158</ns3:hr>
            <ns3:cad>83</ns3:cad>
          </ns3:TrackPointExtension>
        </extensions>
      </trkpt>
      <trkpt lat="47.50415526330471038818359375" lon="10.11578575707972049713134765625">
        <ele>1550.5999755859375</ele>
        <time>2026-09-01T08:42:10.000Z</time>
        <extensions>
          <ns3:TrackPointExtension>
            <ns3:hr>156</ns3:hr>
            <ns3:cad>83</ns3:cad>
          </ns3:TrackPointExtension>
        </extensions>
      </trkpt>
      <trkpt lat="47.50413171015679836273193359375" lon="10.1156202144920825958251953125">
        <ele>1551.4000244140625</ele>
        <time>2026-09-01T08:42:15.000Z</time>
        <extensions>
          <ns3:TrackPointExtension>
            <ns3:hr>156</ns3:hr>
            <ns3:cad>85</ns3:cad>
          </ns3:TrackPointExtension>
        </extensions>
      </trkpt>
      <trkpt lat="47.50413171015679836273193359375" lon="10.11552893556654453277587890625">
        <ele>1551.800048828125</ele>
        <time>2026-09-01T08:42:18.000Z</time>
        <extensions>
          <ns3:TrackPointExtension>
            <ns3:hr>156</ns3:hr>
            <ns3:cad>84</ns3:cad>
          </ns3:TrackPointExtension>
        </extensions>
      </trkpt>
      <trkpt lat="47.50413154251873493194580078125" lon="10.1154939830303192138671875">
        <ele>1552.199951171875</ele>
        <time>2026-09-01T08:42:20.000Z</time>
        <extensions>
          <ns3:TrackPointExtension>
            <ns3:hr>156</ns3:hr>
            <ns3:cad>83</ns3:cad>
          </ns3:TrackPointExtension>
        </extensions>
      </trkpt>
      <trkpt lat="47.50414813868701457977294921875" lon="10.1154565997421741485595703125">
        <ele>1553.199951171875</ele>
        <time>2026-09-01T08:42:23.000Z</time>
        <extensions>
          <ns3:TrackPointExtension>
            <ns3:hr>156</ns3:hr>
            <ns3:cad>85</ns3:cad>
          </ns3:TrackPointExtension>
        </extensions>
      </trkpt>
      <trkpt lat="47.50416104681789875030517578125" lon="10.11541678570210933685302734375">
        <ele>1554.199951171875</ele>
        <time>2026-09-01T08:42:26.000Z</time>
        <extensions>
          <ns3:TrackPointExtension>
            <ns3:hr>156</ns3:hr>
            <ns3:cad>85</ns3:cad>
          </ns3:TrackPointExtension>
        </extensions>
      </trkpt>
      <trkpt lat="47.504174709320068359375" lon="10.1153652369976043701171875">
        <ele>1555.4000244140625</ele>
        <time>2026-09-01T08:42:30.000Z</time>
        <extensions>
          <ns3:TrackPointExtension>
            <ns3:hr>156</ns3:hr>
            <ns3:cad>54</ns3:cad>
          </ns3:TrackPointExtension>
        </extensions>
      </trkpt>
      <trkpt lat="47.5041805766522884368896484375" lon="10.11530480347573757171630859375">
        <ele>1556.4000244140625</ele>
        <time>2026-09-01T08:42:33.000Z</time>
        <extensions>
          <ns3:TrackPointExtension>
            <ns3:hr>157</ns3:hr>
            <ns3:cad>52</ns3:cad>
          </ns3:TrackPointExtension>
        </extensions>
      </trkpt>
      <trkpt lat="47.5041845999658107757568359375" lon="10.1152691803872585296630859375">
        <ele>1556.800048828125</ele>
        <time>2026-09-01T08:42:35.000Z</time>
        <extensions>
          <ns3:TrackPointExtension>
            <ns3:hr>156</ns3:hr>
            <ns3:cad>52</ns3:cad>
          </ns3:TrackPointExtension>
        </extensions>
      </trkpt>
      <trkpt lat="47.50418744981288909912109375" lon="10.115248225629329681396484375">
        <ele>1557.4000244140625</ele>
        <time>2026-09-01T08:42:37.000Z</time>
        <extensions>
          <ns3:TrackPointExtension>
            <ns3:hr>156</ns3:hr>
            <ns3:cad>55</ns3:cad>
          </ns3:TrackPointExtension>
        </extensions>
      </trkpt>
      <trkpt lat="47.504187785089015960693359375" lon="10.11519013904035091400146484375">
        <ele>1558.4000244140625</ele>
        <time>2026-09-01T08:42:41.000Z</time>
        <extensions>
          <ns3:TrackPointExtension>
            <ns3:hr>156</ns3:hr>
            <ns3:cad>57</ns3:cad>
          </ns3:TrackPointExtension>
        </extensions>
      </trkpt>
      <trkpt lat="47.50417613424360752105712890625" lon="10.11512878350913524627685546875">
        <ele>1558.800048828125</ele>
        <time>2026-09-01T08:42:44.000Z</time>
        <extensions>
          <ns3:TrackPointExtension>
            <ns3:hr>156</ns3:hr>
            <ns3:cad>59</ns3:cad>
          </ns3:TrackPointExtension>
        </extensions>
      </trkpt>
      <trkpt lat="47.50416926108300685882568359375" lon="10.1150579564273357391357421875">
        <ele>1559.5999755859375</ele>
        <time>2026-09-01T08:42:47.000Z</time>
        <extensions>
          <ns3:TrackPointExtension>
            <ns3:hr>156</ns3:hr>
            <ns3:cad>83</ns3:cad>
          </ns3:TrackPointExtension>
        </extensions>
      </trkpt>
      <trkpt lat="47.50416959635913372039794921875" lon="10.1149691082537174224853515625">
        <ele>1560.5999755859375</ele>
        <time>2026-09-01T08:42:51.000Z</time>
        <extensions>
          <ns3:TrackPointExtension>
            <ns3:hr>155</ns3:hr>
            <ns3:cad>84</ns3:cad>
          </ns3:TrackPointExtension>
        </extensions>
      </trkpt>
      <trkpt lat="47.50416171737015247344970703125" lon="10.1149396039545536041259765625">
        <ele>1561.4000244140625</ele>
        <time>2026-09-01T08:42:53.000Z</time>
        <extensions>
          <ns3:TrackPointExtension>
            <ns3:hr>155</ns3:hr>
            <ns3:cad>84</ns3:cad>
          </ns3:TrackPointExtension>
        </extensions>
      </trkpt>
      <trkpt lat="47.50416062772274017333984375" lon="10.11491152457892894744873046875">
        <ele>1561.800048828125</ele>
        <time>2026-09-01T08:42:54.000Z</time>
        <extensions>
          <ns3:TrackPointExtension>
            <ns3:hr>155</ns3:hr>
            <ns3:cad>84</ns3:cad>
          </ns3:TrackPointExtension>
        </extensions>
      </trkpt>
      <trkpt lat="47.50415937043726444244384765625" lon="10.11479057371616363525390625">
        <ele>1562.5999755859375</ele>
        <time>2026-09-01T08:42:58.000Z</time>
        <extensions>
          <ns3:TrackPointExtension>
            <ns3:hr>155</ns3:hr>
            <ns3:cad>83</ns3:cad>
          </ns3:TrackPointExtension>
        </extensions>
      </trkpt>
      <trkpt lat="47.50415123999118804931640625" lon="10.11472192592918872833251953125">
        <ele>1562.800048828125</ele>
        <time>2026-09-01T08:43:00.000Z</time>
        <extensions>
          <ns3:TrackPointExtension>
            <ns3:hr>155</ns3:hr>
            <ns3:cad>83</ns3:cad>
          </ns3:TrackPointExtension>
        </extensions>
      </trkpt>
      <trkpt lat="47.50414126552641391754150390625" lon="10.11458161287009716033935546875">
        <ele>1563.800048828125</ele>
        <time>2026-09-01T08:43:05.000Z</time>
        <extensions>
          <ns3:TrackPointExtension>
            <ns3:hr>155</ns3:hr>
            <ns3:cad>84</ns3:cad>
          </ns3:TrackPointExtension>
        </extensions>
      </trkpt>
      <trkpt lat="47.50411075539886951446533203125" lon="10.11449427343904972076416015625">
        <ele>1565</ele>
        <time>2026-09-01T08:43:09.000Z</time>
        <extensions>
          <ns3:TrackPointExtension>
            <ns3:hr>156</ns3:hr>
            <ns3:cad>84</ns3:cad>
          </ns3:TrackPointExtension>
        </extensions>
      </trkpt>
      <trkpt lat="47.50409382395446300506591796875" lon="10.11444867588579654693603515625">
        <ele>1565.5999755859375</ele>
        <time>2026-09-01T08:43:11.000Z</time>
        <extensions>
          <ns3:TrackPointExtension>
            <ns3:hr>156</ns3:hr>
            <ns3:cad>84</ns3:cad>
          </ns3:TrackPointExtension>
        </extensions>
      </trkpt>
      <trkpt lat="47.50407840125262737274169921875" lon="10.11441129259765148162841796875">
        <ele>1566.199951171875</ele>
        <time>2026-09-01T08:43:13.000Z</time>
        <extensions>
          <ns3:TrackPointExtension>
            <ns3:hr>156</ns3:hr>
            <ns3:cad>59</ns3:cad>
          </ns3:TrackPointExtension>
        </extensions>
      </trkpt>
      <trkpt lat="47.50408091582357883453369140625" lon="10.1143451593816280364990234375">
        <ele>1567.199951171875</ele>
        <time>2026-09-01T08:43:17.000Z</time>
        <extensions>
          <ns3:TrackPointExtension>
            <ns3:hr>156</ns3:hr>
            <ns3:cad>59</ns3:cad>
          </ns3:TrackPointExtension>
        </extensions>
      </trkpt>
      <trkpt lat="47.50408208929002285003662109375" lon="10.1143260486423969268798828125">
        <ele>1567.4000244140625</ele>
        <time>2026-09-01T08:43:18.000Z</time>
        <extensions>
          <ns3:TrackPointExtension>
            <ns3:hr>156</ns3:hr>
            <ns3:cad>59</ns3:cad>
          </ns3:TrackPointExtension>
        </extensions>
      </trkpt>
      <trkpt lat="47.5040719471871852874755859375" lon="10.11427885852754116058349609375">
        <ele>1568.4000244140625</ele>
        <time>2026-09-01T08:43:22.000Z</time>
        <extensions>
          <ns3:TrackPointExtension>
            <ns3:hr>156</ns3:hr>
            <ns3:cad>58</ns3:cad>
          </ns3:TrackPointExtension>
        </extensions>
      </trkpt>
      <trkpt lat="47.50406004488468170166015625" lon="10.11422571726143360137939453125">
        <ele>1569.5999755859375</ele>
        <time>2026-09-01T08:43:26.000Z</time>
        <extensions>
          <ns3:TrackPointExtension>
            <ns3:hr>155</ns3:hr>
            <ns3:cad>58</ns3:cad>
          </ns3:TrackPointExtension>
        </extensions>
      </trkpt>
      <trkpt lat="47.5040689297020435333251953125" lon="10.1142113842070102691650390625">
        <ele>1570.199951171875</ele>
        <time>2026-09-01T08:43:28.000Z</time>
        <extensions>
          <ns3:TrackPointExtension>
            <ns3:hr>156</ns3:hr>
            <ns3:cad>55</ns3:cad>
          </ns3:TrackPointExtension>
        </extensions>
      </trkpt>
      <trkpt lat="47.50408845953643321990966796875" lon="10.11420291848480701446533203125">
        <ele>1570.800048828125</ele>
        <time>2026-09-01T08:43:30.000Z</time>
        <extensions>
          <ns3:TrackPointExtension>
            <ns3:hr>156</ns3:hr>
            <ns3:cad>55</ns3:cad>
          </ns3:TrackPointExtension>
        </extensions>
      </trkpt>
      <trkpt lat="47.50410103239119052886962890625" lon="10.11418841779232025146484375">
        <ele>1571.5999755859375</ele>
        <time>2026-09-01T08:43:32.000Z</time>
        <extensions>
          <ns3:TrackPointExtension>
            <ns3:hr>156</ns3:hr>
            <ns3:cad>52</ns3:cad>
          </ns3:TrackPointExtension>
        </extensions>
      </trkpt>
      <trkpt lat="47.50409885309636592864990234375" lon="10.11417768895626068115234375">
        <ele>1572</ele>
        <time>2026-09-01T08:43:33.000Z</time>
        <extensions>
          <ns3:TrackPointExtension>
            <ns3:hr>155</ns3:hr>
            <ns3:cad>52</ns3:cad>
          </ns3:TrackPointExtension>
        </extensions>
      </trkpt>
      <trkpt lat="47.50407555140554904937744140625" lon="10.1141232065856456756591796875">
        <ele>1573</ele>
        <time>2026-09-01T08:43:37.000Z</time>
        <extensions>
          <ns3:TrackPointExtension>
            <ns3:hr>155</ns3:hr>
            <ns3:cad>58</ns3:cad>
          </ns3:TrackPointExtension>
        </extensions>
      </trkpt>
      <trkpt lat="47.50406834296882152557373046875" lon="10.114108622074127197265625">
        <ele>1573.4000244140625</ele>
        <time>2026-09-01T08:43:38.000Z</time>
        <extensions>
          <ns3:TrackPointExtension>
            <ns3:hr>155</ns3:hr>
            <ns3:cad>58</ns3:cad>
          </ns3:TrackPointExtension>
        </extensions>
      </trkpt>
      <trkpt lat="47.504033558070659637451171875" lon="10.11400124989449977874755859375">
        <ele>1574.199951171875</ele>
        <time>2026-09-01T08:43:46.000Z</time>
        <extensions>
          <ns3:TrackPointExtension>
            <ns3:hr>154</ns3:hr>
            <ns3:cad>56</ns3:cad>
          </ns3:TrackPointExtension>
        </extensions>
      </trkpt>
      <trkpt lat="47.50401117838919162750244140625" lon="10.11393704451620578765869140625">
        <ele>1575.4000244140625</ele>
        <time>2026-09-01T08:43:50.000Z</time>
        <extensions>
          <ns3:TrackPointExtension>
            <ns3:hr>154</ns3:hr>
            <ns3:cad>56</ns3:cad>
          </ns3:TrackPointExtension>
        </extensions>
      </trkpt>
      <trkpt lat="47.50399692915380001068115234375" lon="10.113853476941585540771484375">
        <ele>1576.5999755859375</ele>
        <time>2026-09-01T08:43:54.000Z</time>
        <extensions>
          <ns3:TrackPointExtension>
            <ns3:hr>154</ns3:hr>
            <ns3:cad>56</ns3:cad>
          </ns3:TrackPointExtension>
        </extensions>
      </trkpt>
      <trkpt lat="47.503985948860645294189453125" lon="10.1137721724808216094970703125">
        <ele>1577.800048828125</ele>
        <time>2026-09-01T08:43:59.000Z</time>
        <extensions>
          <ns3:TrackPointExtension>
            <ns3:hr>152</ns3:hr>
            <ns3:cad>58</ns3:cad>
          </ns3:TrackPointExtension>
        </extensions>
      </trkpt>
      <trkpt lat="47.50398821197450160980224609375" lon="10.11372305452823638916015625">
        <ele>1578.199951171875</ele>
        <time>2026-09-01T08:44:02.000Z</time>
        <extensions>
          <ns3:TrackPointExtension>
            <ns3:hr>152</ns3:hr>
            <ns3:cad>59</ns3:cad>
          </ns3:TrackPointExtension>
        </extensions>
      </trkpt>
      <trkpt lat="47.50398586504161357879638671875" lon="10.1136829890310764312744140625">
        <ele>1578.800048828125</ele>
        <time>2026-09-01T08:44:04.000Z</time>
        <extensions>
          <ns3:TrackPointExtension>
            <ns3:hr>153</ns3:hr>
            <ns3:cad>58</ns3:cad>
          </ns3:TrackPointExtension>
        </extensions>
      </trkpt>
      <trkpt lat="47.5039938278496265411376953125" lon="10.11362439952790737152099609375">
        <ele>1579.800048828125</ele>
        <time>2026-09-01T08:44:08.000Z</time>
        <extensions>
          <ns3:TrackPointExtension>
            <ns3:hr>152</ns3:hr>
            <ns3:cad>55</ns3:cad>
          </ns3:TrackPointExtension>
        </extensions>
      </trkpt>
      <trkpt lat="47.50401168130338191986083984375" lon="10.1135837472975254058837890625">
        <ele>1580.4000244140625</ele>
        <time>2026-09-01T08:44:10.000Z</time>
        <extensions>
          <ns3:TrackPointExtension>
            <ns3:hr>152</ns3:hr>
            <ns3:cad>55</ns3:cad>
          </ns3:TrackPointExtension>
        </extensions>
      </trkpt>
      <trkpt lat="47.5040283612906932830810546875" lon="10.113549716770648956298828125">
        <ele>1581.199951171875</ele>
        <time>2026-09-01T08:44:12.000Z</time>
        <extensions>
          <ns3:TrackPointExtension>
            <ns3:hr>151</ns3:hr>
            <ns3:cad>55</ns3:cad>
          </ns3:TrackPointExtension>
        </extensions>
      </trkpt>
      <trkpt lat="47.5040394254028797149658203125" lon="10.1134784705936908721923828125">
        <ele>1582.5999755859375</ele>
        <time>2026-09-01T08:44:16.000Z</time>
        <extensions>
          <ns3:TrackPointExtension>
            <ns3:hr>151</ns3:hr>
            <ns3:cad>53</ns3:cad>
          </ns3:TrackPointExtension>
        </extensions>
      </trkpt>
      <trkpt lat="47.504042275249958038330078125" lon="10.113464556634426116943359375">
        <ele>1583</ele>
        <time>2026-09-01T08:44:17.000Z</time>
        <extensions>
          <ns3:TrackPointExtension>
            <ns3:hr>152</ns3:hr>
            <ns3:cad>0</ns3:cad>
          </ns3:TrackPointExtension>
        </extensions>
      </trkpt>
      <trkpt lat="47.50404931604862213134765625" lon="10.11343580670654773712158203125">
        <ele>1583.5999755859375</ele>
        <time>2026-09-01T08:44:19.000Z</time>
        <extensions>
          <ns3:TrackPointExtension>
            <ns3:hr>153</ns3:hr>
            <ns3:cad>0</ns3:cad>
          </ns3:TrackPointExtension>
        </extensions>
      </trkpt>
      <trkpt lat="47.50403380952775478363037109375" lon="10.1133520714938640594482421875">
        <ele>1585</ele>
        <time>2026-09-01T08:44:23.000Z</time>
        <extensions>
          <ns3:TrackPointExtension>
            <ns3:hr>153</ns3:hr>
            <ns3:cad>40</ns3:cad>
          </ns3:TrackPointExtension>
        </extensions>
      </trkpt>
      <trkpt lat="47.5040132738649845123291015625" lon="10.113304294645786285400390625">
        <ele>1585.800048828125</ele>
        <time>2026-09-01T08:44:25.000Z</time>
        <extensions>
          <ns3:TrackPointExtension>
            <ns3:hr>153</ns3:hr>
            <ns3:cad>41</ns3:cad>
          </ns3:TrackPointExtension>
        </extensions>
      </trkpt>
      <trkpt lat="47.50400732271373271942138671875" lon="10.113283507525920867919921875">
        <ele>1586.199951171875</ele>
        <time>2026-09-01T08:44:26.000Z</time>
        <extensions>
          <ns3:TrackPointExtension>
            <ns3:hr>154</ns3:hr>
            <ns3:cad>41</ns3:cad>
          </ns3:TrackPointExtension>
        </extensions>
      </trkpt>
      <trkpt lat="47.5040079094469547271728515625" lon="10.11322952806949615478515625">
        <ele>1587.199951171875</ele>
        <time>2026-09-01T08:44:29.000Z</time>
        <extensions>
          <ns3:TrackPointExtension>
            <ns3:hr>154</ns3:hr>
            <ns3:cad>41</ns3:cad>
          </ns3:TrackPointExtension>
        </extensions>
      </trkpt>
      <trkpt lat="47.504015453159809112548828125" lon="10.1132095791399478912353515625">
        <ele>1588</ele>
        <time>2026-09-01T08:44:31.000Z</time>
        <extensions>
          <ns3:TrackPointExtension>
            <ns3:hr>155</ns3:hr>
            <ns3:cad>41</ns3:cad>
          </ns3:TrackPointExtension>
        </extensions>
      </trkpt>
      <trkpt lat="47.50400832854211330413818359375" lon="10.1131840981543064117431640625">
        <ele>1588.4000244140625</ele>
        <time>2026-09-01T08:44:32.000Z</time>
        <extensions>
          <ns3:TrackPointExtension>
            <ns3:hr>155</ns3:hr>
            <ns3:cad>0</ns3:cad>
          </ns3:TrackPointExtension>
        </extensions>
      </trkpt>
      <trkpt lat="47.5039971806108951568603515625" lon="10.11315149255096912384033203125">
        <ele>1589</ele>
        <time>2026-09-01T08:44:34.000Z</time>
        <extensions>
          <ns3:TrackPointExtension>
            <ns3:hr>156</ns3:hr>
            <ns3:cad>0</ns3:cad>
          </ns3:TrackPointExtension>
        </extensions>
      </trkpt>
      <trkpt lat="47.5039898045361042022705078125" lon="10.11312316171824932098388671875">
        <ele>1589.4000244140625</ele>
        <time>2026-09-01T08:44:35.000Z</time>
        <extensions>
          <ns3:TrackPointExtension>
            <ns3:hr>157</ns3:hr>
            <ns3:cad>0</ns3:cad>
          </ns3:TrackPointExtension>
        </extensions>
      </trkpt>
      <trkpt lat="47.503975890576839447021484375" lon="10.11308678425848484039306640625">
        <ele>1590</ele>
        <time>2026-09-01T08:44:37.000Z</time>
        <extensions>
          <ns3:TrackPointExtension>
            <ns3:hr>157</ns3:hr>
            <ns3:cad>0</ns3:cad>
          </ns3:TrackPointExtension>
        </extensions>
      </trkpt>
      <trkpt lat="47.50396625138819217681884765625" lon="10.11307136155664920806884765625">
        <ele>1590.4000244140625</ele>
        <time>2026-09-01T08:44:38.000Z</time>
        <extensions>
          <ns3:TrackPointExtension>
            <ns3:hr>157</ns3:hr>
            <ns3:cad>43</ns3:cad>
          </ns3:TrackPointExtension>
        </extensions>
      </trkpt>
      <trkpt lat="47.50396038405597209930419921875" lon="10.1130566932260990142822265625">
        <ele>1590.800048828125</ele>
        <time>2026-09-01T08:44:39.000Z</time>
        <extensions>
          <ns3:TrackPointExtension>
            <ns3:hr>157</ns3:hr>
            <ns3:cad>43</ns3:cad>
          </ns3:TrackPointExtension>
        </extensions>
      </trkpt>
      <trkpt lat="47.50396926887333393096923828125" lon="10.11303842067718505859375">
        <ele>1591.199951171875</ele>
        <time>2026-09-01T08:44:40.000Z</time>
        <extensions>
          <ns3:TrackPointExtension>
            <ns3:hr>156</ns3:hr>
            <ns3:cad>41</ns3:cad>
          </ns3:TrackPointExtension>
        </extensions>
      </trkpt>
      <trkpt lat="47.503975890576839447021484375" lon="10.11302475817501544952392578125">
        <ele>1591.4000244140625</ele>
        <time>2026-09-01T08:44:41.000Z</time>
        <extensions>
          <ns3:TrackPointExtension>
            <ns3:hr>156</ns3:hr>
            <ns3:cad>41</ns3:cad>
          </ns3:TrackPointExtension>
        </extensions>
      </trkpt>
      <trkpt lat="47.5039884634315967559814453125" lon="10.11302039958536624908447265625">
        <ele>1591.800048828125</ele>
        <time>2026-09-01T08:44:42.000Z</time>
        <extensions>
          <ns3:TrackPointExtension>
            <ns3:hr>156</ns3:hr>
            <ns3:cad>41</ns3:cad>
          </ns3:TrackPointExtension>
        </extensions>
      </trkpt>
      <trkpt lat="47.504000365734100341796875" lon="10.11298821307718753814697265625">
        <ele>1592.4000244140625</ele>
        <time>2026-09-01T08:44:44.000Z</time>
        <extensions>
          <ns3:TrackPointExtension>
            <ns3:hr>157</ns3:hr>
            <ns3:cad>0</ns3:cad>
          </ns3:TrackPointExtension>
        </extensions>
      </trkpt>
      <trkpt lat="47.50400237739086151123046875" lon="10.1129780709743499755859375">
        <ele>1592.800048828125</ele>
        <time>2026-09-01T08:44:45.000Z</time>
        <extensions>
          <ns3:TrackPointExtension>
            <ns3:hr>157</ns3:hr>
            <ns3:cad>0</ns3:cad>
          </ns3:TrackPointExtension>
        </extensions>
      </trkpt>
      <trkpt lat="47.50399240292608737945556640625" lon="10.11293473653495311737060546875">
        <ele>1594</ele>
        <time>2026-09-01T08:44:48.000Z</time>
        <extensions>
          <ns3:TrackPointExtension>
            <ns3:hr>157</ns3:hr>
            <ns3:cad>0</ns3:cad>
          </ns3:TrackPointExtension>
        </extensions>
      </trkpt>
      <trkpt lat="47.5039800815284252166748046875" lon="10.11287556029856204986572265625">
        <ele>1595</ele>
        <time>2026-09-01T08:44:51.000Z</time>
        <extensions>
          <ns3:TrackPointExtension>
            <ns3:hr>157</ns3:hr>
            <ns3:cad>0</ns3:cad>
          </ns3:TrackPointExtension>
        </extensions>
      </trkpt>
      <trkpt lat="47.50396155752241611480712890625" lon="10.11277631856501102447509765625">
        <ele>1596.199951171875</ele>
        <time>2026-09-01T08:44:55.000Z</time>
        <extensions>
          <ns3:TrackPointExtension>
            <ns3:hr>158</ns3:hr>
            <ns3:cad>0</ns3:cad>
          </ns3:TrackPointExtension>
        </extensions>
      </trkpt>
      <trkpt lat="47.5039354898035526275634765625" lon="10.11267020367085933685302734375">
        <ele>1597.4000244140625</ele>
        <time>2026-09-01T08:44:59.000Z</time>
        <extensions>
          <ns3:TrackPointExtension>
            <ns3:hr>158</ns3:hr>
            <ns3:cad>41</ns3:cad>
          </ns3:TrackPointExtension>
        </extensions>
      </trkpt>
      <trkpt lat="47.50390824861824512481689453125" lon="10.11260448954999446868896484375">
        <ele>1598.4000244140625</ele>
        <time>2026-09-01T08:45:02.000Z</time>
        <extensions>
          <ns3:TrackPointExtension>
            <ns3:hr>159</ns3:hr>
            <ns3:cad>41</ns3:cad>
          </ns3:TrackPointExtension>
        </extensions>
      </trkpt>
      <trkpt lat="47.50390757806599140167236328125" lon="10.11257783509790897369384765625">
        <ele>1598.5999755859375</ele>
        <time>2026-09-01T08:45:03.000Z</time>
        <extensions>
          <ns3:TrackPointExtension>
            <ns3:hr>159</ns3:hr>
            <ns3:cad>41</ns3:cad>
          </ns3:TrackPointExtension>
        </extensions>
      </trkpt>
      <trkpt lat="47.5038727931678295135498046875" lon="10.112492926418781280517578125">
        <ele>1599.4000244140625</ele>
        <time>2026-09-01T08:45:06.000Z</time>
        <extensions>
          <ns3:TrackPointExtension>
            <ns3:hr>159</ns3:hr>
            <ns3:cad>41</ns3:cad>
          </ns3:TrackPointExtension>
        </extensions>
      </trkpt>
      <trkpt lat="47.5038613937795162200927734375" lon="10.112475492060184478759765625">
        <ele>1599.800048828125</ele>
        <time>2026-09-01T08:45:07.000Z</time>
        <extensions>
          <ns3:TrackPointExtension>
            <ns3:hr>159</ns3:hr>
            <ns3:cad>41</ns3:cad>
          </ns3:TrackPointExtension>
        </extensions>
      </trkpt>
      <trkpt lat="47.5038335658609867095947265625" lon="10.112402401864528656005859375">
        <ele>1600.4000244140625</ele>
        <time>2026-09-01T08:45:10.000Z</time>
        <extensions>
          <ns3:TrackPointExtension>
            <ns3:hr>158</ns3:hr>
            <ns3:cad>41</ns3:cad>
          </ns3:TrackPointExtension>
        </extensions>
      </trkpt>
      <trkpt lat="47.50382878817617893218994140625" lon="10.11234699748456478118896484375">
        <ele>1600.800048828125</ele>
        <time>2026-09-01T08:45:12.000Z</time>
        <extensions>
          <ns3:TrackPointExtension>
            <ns3:hr>158</ns3:hr>
            <ns3:cad>41</ns3:cad>
          </ns3:TrackPointExtension>
        </extensions>
      </trkpt>
      <trkpt lat="47.50381872989237308502197265625" lon="10.1123060099780559539794921875">
        <ele>1601.4000244140625</ele>
        <time>2026-09-01T08:45:14.000Z</time>
        <extensions>
          <ns3:TrackPointExtension>
            <ns3:hr>157</ns3:hr>
            <ns3:cad>41</ns3:cad>
          </ns3:TrackPointExtension>
        </extensions>
      </trkpt>
      <trkpt lat="47.50380179844796657562255859375" lon="10.112258903682231903076171875">
        <ele>1602.199951171875</ele>
        <time>2026-09-01T08:45:16.000Z</time>
        <extensions>
          <ns3:TrackPointExtension>
            <ns3:hr>158</ns3:hr>
            <ns3:cad>41</ns3:cad>
          </ns3:TrackPointExtension>
        </extensions>
      </trkpt>
      <trkpt lat="47.5037856213748455047607421875" lon="10.11222638189792633056640625">
        <ele>1603.199951171875</ele>
        <time>2026-09-01T08:45:18.000Z</time>
        <extensions>
          <ns3:TrackPointExtension>
            <ns3:hr>158</ns3:hr>
            <ns3:cad>41</ns3:cad>
          </ns3:TrackPointExtension>
        </extensions>
      </trkpt>
      <trkpt lat="47.50376240350306034088134765625" lon="10.11216611601412296295166015625">
        <ele>1604.4000244140625</ele>
        <time>2026-09-01T08:45:21.000Z</time>
        <extensions>
          <ns3:TrackPointExtension>
            <ns3:hr>157</ns3:hr>
            <ns3:cad>43</ns3:cad>
          </ns3:TrackPointExtension>
        </extensions>
      </trkpt>
      <trkpt lat="47.5037641637027263641357421875" lon="10.11213543824851512908935546875">
        <ele>1604.800048828125</ele>
        <time>2026-09-01T08:45:22.000Z</time>
        <extensions>
          <ns3:TrackPointExtension>
            <ns3:hr>157</ns3:hr>
            <ns3:cad>43</ns3:cad>
          </ns3:TrackPointExtension>
        </extensions>
      </trkpt>
      <trkpt lat="47.5037544406950473785400390625" lon="10.1120998151600360870361328125">
        <ele>1605.5999755859375</ele>
        <time>2026-09-01T08:45:24.000Z</time>
        <extensions>
          <ns3:TrackPointExtension>
            <ns3:hr>157</ns3:hr>
            <ns3:cad>41</ns3:cad>
          </ns3:TrackPointExtension>
        </extensions>
      </trkpt>
      <trkpt lat="47.50375754199922084808349609375" lon="10.11207341216504573822021484375">
        <ele>1606</ele>
        <time>2026-09-01T08:45:25.000Z</time>
        <extensions>
          <ns3:TrackPointExtension>
            <ns3:hr>157</ns3:hr>
            <ns3:cad>41</ns3:cad>
          </ns3:TrackPointExtension>
        </extensions>
      </trkpt>
      <trkpt lat="47.50374882481992244720458984375" lon="10.11203703470528125762939453125">
        <ele>1606.800048828125</ele>
        <time>2026-09-01T08:45:27.000Z</time>
        <extensions>
          <ns3:TrackPointExtension>
            <ns3:hr>157</ns3:hr>
            <ns3:cad>0</ns3:cad>
          </ns3:TrackPointExtension>
        </extensions>
      </trkpt>
      <trkpt lat="47.5037406943738460540771484375" lon="10.1119730807840824127197265625">
        <ele>1608.199951171875</ele>
        <time>2026-09-01T08:45:30.000Z</time>
        <extensions>
          <ns3:TrackPointExtension>
            <ns3:hr>157</ns3:hr>
            <ns3:cad>41</ns3:cad>
          </ns3:TrackPointExtension>
        </extensions>
      </trkpt>
      <trkpt lat="47.50373289920389652252197265625" lon="10.1119237951934337615966796875">
        <ele>1609.4000244140625</ele>
        <time>2026-09-01T08:45:33.000Z</time>
        <extensions>
          <ns3:TrackPointExtension>
            <ns3:hr>159</ns3:hr>
            <ns3:cad>0</ns3:cad>
          </ns3:TrackPointExtension>
        </extensions>
      </trkpt>
      <trkpt lat="47.50373055227100849151611328125" lon="10.111883394420146942138671875">
        <ele>1610.199951171875</ele>
        <time>2026-09-01T08:45:35.000Z</time>
        <extensions>
          <ns3:TrackPointExtension>
            <ns3:hr>159</ns3:hr>
            <ns3:cad>0</ns3:cad>
          </ns3:TrackPointExtension>
        </extensions>
      </trkpt>
      <trkpt lat="47.5037308037281036376953125" lon="10.111858583986759185791015625">
        <ele>1610.4000244140625</ele>
        <time>2026-09-01T08:45:36.000Z</time>
        <extensions>
          <ns3:TrackPointExtension>
            <ns3:hr>158</ns3:hr>
            <ns3:cad>0</ns3:cad>
          </ns3:TrackPointExtension>
        </extensions>
      </trkpt>
      <trkpt lat="47.50373926945030689239501953125" lon="10.11178624816238880157470703125">
        <ele>1611.4000244140625</ele>
        <time>2026-09-01T08:45:40.000Z</time>
        <extensions>
          <ns3:TrackPointExtension>
            <ns3:hr>159</ns3:hr>
            <ns3:cad>0</ns3:cad>
          </ns3:TrackPointExtension>
        </extensions>
      </trkpt>
      <trkpt lat="47.5037360005080699920654296875" lon="10.11176998727023601531982421875">
        <ele>1611.800048828125</ele>
        <time>2026-09-01T08:45:41.000Z</time>
        <extensions>
          <ns3:TrackPointExtension>
            <ns3:hr>158</ns3:hr>
            <ns3:cad>0</ns3:cad>
          </ns3:TrackPointExtension>
        </extensions>
      </trkpt>
      <trkpt lat="47.503716051578521728515625" lon="10.11176562868058681488037109375">
        <ele>1612.199951171875</ele>
        <time>2026-09-01T08:45:42.000Z</time>
        <extensions>
          <ns3:TrackPointExtension>
            <ns3:hr>159</ns3:hr>
            <ns3:cad>15</ns3:cad>
          </ns3:TrackPointExtension>
        </extensions>
      </trkpt>
      <trkpt lat="47.50371135771274566650390625" lon="10.1117658801376819610595703125">
        <ele>1612.5999755859375</ele>
        <time>2026-09-01T08:45:43.000Z</time>
        <extensions>
          <ns3:TrackPointExtension>
            <ns3:hr>158</ns3:hr>
            <ns3:cad>15</ns3:cad>
          </ns3:TrackPointExtension>
        </extensions>
      </trkpt>
      <trkpt lat="47.5036907382309436798095703125" lon="10.11174534447491168975830078125">
        <ele>1613</ele>
        <time>2026-09-01T08:45:44.000Z</time>
        <extensions>
          <ns3:TrackPointExtension>
            <ns3:hr>158</ns3:hr>
            <ns3:cad>15</ns3:cad>
          </ns3:TrackPointExtension>
        </extensions>
      </trkpt>
      <trkpt lat="47.50366902910172939300537109375" lon="10.1117293350398540496826171875">
        <ele>1614</ele>
        <time>2026-09-01T08:45:46.000Z</time>
        <extensions>
          <ns3:TrackPointExtension>
            <ns3:hr>157</ns3:hr>
            <ns3:cad>15</ns3:cad>
          </ns3:TrackPointExtension>
        </extensions>
      </trkpt>
      <trkpt lat="47.50366047956049442291259765625" lon="10.11172321625053882598876953125">
        <ele>1614.4000244140625</ele>
        <time>2026-09-01T08:45:47.000Z</time>
        <extensions>
          <ns3:TrackPointExtension>
            <ns3:hr>157</ns3:hr>
            <ns3:cad>15</ns3:cad>
          </ns3:TrackPointExtension>
        </extensions>
      </trkpt>
      <trkpt lat="47.50362150371074676513671875" lon="10.11170226149260997772216796875">
        <ele>1615.199951171875</ele>
        <time>2026-09-01T08:45:50.000Z</time>
        <extensions>
          <ns3:TrackPointExtension>
            <ns3:hr>159</ns3:hr>
            <ns3:cad>41</ns3:cad>
          </ns3:TrackPointExtension>
        </extensions>
      </trkpt>
      <trkpt lat="47.5036075897514820098876953125" lon="10.11167812161147594451904296875">
        <ele>1616.800048828125</ele>
        <time>2026-09-01T08:45:53.000Z</time>
        <extensions>
          <ns3:TrackPointExtension>
            <ns3:hr>159</ns3:hr>
            <ns3:cad>0</ns3:cad>
          </ns3:TrackPointExtension>
        </extensions>
      </trkpt>
      <trkpt lat="47.503611780703067779541015625" lon="10.1116745173931121826171875">
        <ele>1617.199951171875</ele>
        <time>2026-09-01T08:45:54.000Z</time>
        <extensions>
          <ns3:TrackPointExtension>
            <ns3:hr>160</ns3:hr>
            <ns3:cad>0</ns3:cad>
          </ns3:TrackPointExtension>
        </extensions>
      </trkpt>
      <trkpt lat="47.503618486225605010986328125" lon="10.11164057068526744842529296875">
        <ele>1617.5999755859375</ele>
        <time>2026-09-01T08:45:56.000Z</time>
        <extensions>
          <ns3:TrackPointExtension>
            <ns3:hr>160</ns3:hr>
            <ns3:cad>0</ns3:cad>
          </ns3:TrackPointExtension>
        </extensions>
      </trkpt>
      <trkpt lat="47.50361538492143154144287109375" lon="10.11163369752466678619384765625">
        <ele>1617.800048828125</ele>
        <time>2026-09-01T08:45:57.000Z</time>
        <extensions>
          <ns3:TrackPointExtension>
            <ns3:hr>160</ns3:hr>
            <ns3:cad>0</ns3:cad>
          </ns3:TrackPointExtension>
        </extensions>
      </trkpt>
      <trkpt lat="47.5036028958857059478759765625" lon="10.111619867384433746337890625">
        <ele>1618.199951171875</ele>
        <time>2026-09-01T08:45:58.000Z</time>
        <extensions>
          <ns3:TrackPointExtension>
            <ns3:hr>161</ns3:hr>
            <ns3:cad>0</ns3:cad>
          </ns3:TrackPointExtension>
        </extensions>
      </trkpt>
      <trkpt lat="47.5035898201167583465576171875" lon="10.11161190457642078399658203125">
        <ele>1619.199951171875</ele>
        <time>2026-09-01T08:46:00.000Z</time>
        <extensions>
          <ns3:TrackPointExtension>
            <ns3:hr>161</ns3:hr>
            <ns3:cad>0</ns3:cad>
          </ns3:TrackPointExtension>
        </extensions>
      </trkpt>
      <trkpt lat="47.50358671881258487701416015625" lon="10.11160679161548614501953125">
        <ele>1620.199951171875</ele>
        <time>2026-09-01T08:46:02.000Z</time>
        <extensions>
          <ns3:TrackPointExtension>
            <ns3:hr>161</ns3:hr>
            <ns3:cad>0</ns3:cad>
          </ns3:TrackPointExtension>
        </extensions>
      </trkpt>
      <trkpt lat="47.5035921670496463775634765625" lon="10.11159530840814113616943359375">
        <ele>1620.4000244140625</ele>
        <time>2026-09-01T08:46:03.000Z</time>
        <extensions>
          <ns3:TrackPointExtension>
            <ns3:hr>161</ns3:hr>
            <ns3:cad>0</ns3:cad>
          </ns3:TrackPointExtension>
        </extensions>
      </trkpt>
      <trkpt lat="47.50360633246600627899169921875" lon="10.111558176577091217041015625">
        <ele>1621.5999755859375</ele>
        <time>2026-09-01T08:46:07.000Z</time>
        <extensions>
          <ns3:TrackPointExtension>
            <ns3:hr>160</ns3:hr>
            <ns3:cad>0</ns3:cad>
          </ns3:TrackPointExtension>
        </extensions>
      </trkpt>
      <trkpt lat="47.50358453951776027679443359375" lon="10.1115285046398639678955078125">
        <ele>1622.4000244140625</ele>
        <time>2026-09-01T08:46:10.000Z</time>
        <extensions>
          <ns3:TrackPointExtension>
            <ns3:hr>160</ns3:hr>
            <ns3:cad>0</ns3:cad>
          </ns3:TrackPointExtension>
        </extensions>
      </trkpt>
      <trkpt lat="47.50357582233846187591552734375" lon="10.1115224696695804595947265625">
        <ele>1622.800048828125</ele>
        <time>2026-09-01T08:46:11.000Z</time>
        <extensions>
          <ns3:TrackPointExtension>
            <ns3:hr>161</ns3:hr>
            <ns3:cad>0</ns3:cad>
          </ns3:TrackPointExtension>
        </extensions>
      </trkpt>
      <trkpt lat="47.50355637632310390472412109375" lon="10.11151425540447235107421875">
        <ele>1624</ele>
        <time>2026-09-01T08:46:13.000Z</time>
        <extensions>
          <ns3:TrackPointExtension>
            <ns3:hr>160</ns3:hr>
            <ns3:cad>0</ns3:cad>
          </ns3:TrackPointExtension>
        </extensions>
      </trkpt>
      <trkpt lat="47.5035492517054080963134765625" lon="10.11150025762617588043212890625">
        <ele>1624.4000244140625</ele>
        <time>2026-09-01T08:46:14.000Z</time>
        <extensions>
          <ns3:TrackPointExtension>
            <ns3:hr>160</ns3:hr>
            <ns3:cad>0</ns3:cad>
          </ns3:TrackPointExtension>
        </extensions>
      </trkpt>
      <trkpt lat="47.503551431000232696533203125" lon="10.1114859245717525482177734375">
        <ele>1624.800048828125</ele>
        <time>2026-09-01T08:46:15.000Z</time>
        <extensions>
          <ns3:TrackPointExtension>
            <ns3:hr>160</ns3:hr>
            <ns3:cad>0</ns3:cad>
          </ns3:TrackPointExtension>
        </extensions>
      </trkpt>
      <trkpt lat="47.50355201773345470428466796875" lon="10.11148047633469104766845703125">
        <ele>1625.199951171875</ele>
        <time>2026-09-01T08:46:16.000Z</time>
        <extensions>
          <ns3:TrackPointExtension>
            <ns3:hr>160</ns3:hr>
            <ns3:cad>0</ns3:cad>
          </ns3:TrackPointExtension>
        </extensions>
      </trkpt>
      <trkpt lat="47.50356257893145084381103515625" lon="10.11145834811031818389892578125">
        <ele>1626.4000244140625</ele>
        <time>2026-09-01T08:46:19.000Z</time>
        <extensions>
          <ns3:TrackPointExtension>
            <ns3:hr>160</ns3:hr>
            <ns3:cad>0</ns3:cad>
          </ns3:TrackPointExtension>
        </extensions>
      </trkpt>
      <trkpt lat="47.50357515178620815277099609375" lon="10.11144996620714664459228515625">
        <ele>1626.800048828125</ele>
        <time>2026-09-01T08:46:20.000Z</time>
        <extensions>
          <ns3:TrackPointExtension>
            <ns3:hr>160</ns3:hr>
            <ns3:cad>0</ns3:cad>
          </ns3:TrackPointExtension>
        </extensions>
      </trkpt>
      <trkpt lat="47.5035847909748554229736328125" lon="10.111427418887615203857421875">
        <ele>1627.5999755859375</ele>
        <time>2026-09-01T08:46:22.000Z</time>
        <extensions>
          <ns3:TrackPointExtension>
            <ns3:hr>160</ns3:hr>
            <ns3:cad>48</ns3:cad>
          </ns3:TrackPointExtension>
        </extensions>
      </trkpt>
      <trkpt lat="47.50359090976417064666748046875" lon="10.11141995899379253387451171875">
        <ele>1627.800048828125</ele>
        <time>2026-09-01T08:46:23.000Z</time>
        <extensions>
          <ns3:TrackPointExtension>
            <ns3:hr>160</ns3:hr>
            <ns3:cad>48</ns3:cad>
          </ns3:TrackPointExtension>
        </extensions>
      </trkpt>
      <trkpt lat="47.50361421145498752593994140625" lon="10.111381821334362030029296875">
        <ele>1629</ele>
        <time>2026-09-01T08:46:26.000Z</time>
        <extensions>
          <ns3:TrackPointExtension>
            <ns3:hr>161</ns3:hr>
            <ns3:cad>0</ns3:cad>
          </ns3:TrackPointExtension>
        </extensions>
      </trkpt>
      <trkpt lat="47.5036260299384593963623046875" lon="10.111346952617168426513671875">
        <ele>1630.199951171875</ele>
        <time>2026-09-01T08:46:29.000Z</time>
        <extensions>
          <ns3:TrackPointExtension>
            <ns3:hr>161</ns3:hr>
            <ns3:cad>51</ns3:cad>
          </ns3:TrackPointExtension>
        </extensions>
      </trkpt>
      <trkpt lat="47.5036213360726833343505859375" lon="10.1113394089043140411376953125">
        <ele>1630.5999755859375</ele>
        <time>2026-09-01T08:46:30.000Z</time>
        <extensions>
          <ns3:TrackPointExtension>
            <ns3:hr>161</ns3:hr>
            <ns3:cad>51</ns3:cad>
          </ns3:TrackPointExtension>
        </extensions>
      </trkpt>
      <trkpt lat="47.50361504964530467987060546875" lon="10.1112991757690906524658203125">
        <ele>1631.5999755859375</ele>
        <time>2026-09-01T08:46:33.000Z</time>
        <extensions>
          <ns3:TrackPointExtension>
            <ns3:hr>160</ns3:hr>
            <ns3:cad>0</ns3:cad>
          </ns3:TrackPointExtension>
        </extensions>
      </trkpt>
      <trkpt lat="47.50362393446266651153564453125" lon="10.111290626227855682373046875">
        <ele>1632.4000244140625</ele>
        <time>2026-09-01T08:46:35.000Z</time>
        <extensions>
          <ns3:TrackPointExtension>
            <ns3:hr>161</ns3:hr>
            <ns3:cad>0</ns3:cad>
          </ns3:TrackPointExtension>
        </extensions>
      </trkpt>
      <trkpt lat="47.50363013707101345062255859375" lon="10.1112837530672550201416015625">
        <ele>1632.800048828125</ele>
        <time>2026-09-01T08:46:36.000Z</time>
        <extensions>
          <ns3:TrackPointExtension>
            <ns3:hr>160</ns3:hr>
            <ns3:cad>0</ns3:cad>
          </ns3:TrackPointExtension>
        </extensions>
      </trkpt>
      <trkpt lat="47.50363131053745746612548828125" lon="10.1112534105777740478515625">
        <ele>1633.800048828125</ele>
        <time>2026-09-01T08:46:39.000Z</time>
        <extensions>
          <ns3:TrackPointExtension>
            <ns3:hr>160</ns3:hr>
            <ns3:cad>0</ns3:cad>
          </ns3:TrackPointExtension>
        </extensions>
      </trkpt>
      <trkpt lat="47.50363290309906005859375" lon="10.111250393092632293701171875">
        <ele>1634</ele>
        <time>2026-09-01T08:46:40.000Z</time>
        <extensions>
          <ns3:TrackPointExtension>
            <ns3:hr>159</ns3:hr>
            <ns3:cad>0</ns3:cad>
          </ns3:TrackPointExtension>
        </extensions>
      </trkpt>
      <trkpt lat="47.50363784842193126678466796875" lon="10.11122457683086395263671875">
        <ele>1634.4000244140625</ele>
        <time>2026-09-01T08:46:41.000Z</time>
        <extensions>
          <ns3:TrackPointExtension>
            <ns3:hr>159</ns3:hr>
            <ns3:cad>0</ns3:cad>
          </ns3:TrackPointExtension>
        </extensions>
      </trkpt>
      <trkpt lat="47.50364673323929309844970703125" lon="10.11119683273136615753173828125">
        <ele>1635.199951171875</ele>
        <time>2026-09-01T08:46:43.000Z</time>
        <extensions>
          <ns3:TrackPointExtension>
            <ns3:hr>159</ns3:hr>
            <ns3:cad>0</ns3:cad>
          </ns3:TrackPointExtension>
        </extensions>
      </trkpt>
      <trkpt lat="47.503648661077022552490234375" lon="10.111192725598812103271484375">
        <ele>1635.800048828125</ele>
        <time>2026-09-01T08:46:44.000Z</time>
        <extensions>
          <ns3:TrackPointExtension>
            <ns3:hr>159</ns3:hr>
            <ns3:cad>0</ns3:cad>
          </ns3:TrackPointExtension>
        </extensions>
      </trkpt>
      <trkpt lat="47.50365947373211383819580078125" lon="10.111171938478946685791015625">
        <ele>1636.4000244140625</ele>
        <time>2026-09-01T08:46:46.000Z</time>
        <extensions>
          <ns3:TrackPointExtension>
            <ns3:hr>159</ns3:hr>
            <ns3:cad>0</ns3:cad>
          </ns3:TrackPointExtension>
        </extensions>
      </trkpt>
      <trkpt lat="47.5036739744246006011962890625" lon="10.1111540012061595916748046875">
        <ele>1637.5999755859375</ele>
        <time>2026-09-01T08:46:49.000Z</time>
        <extensions>
          <ns3:TrackPointExtension>
            <ns3:hr>160</ns3:hr>
            <ns3:cad>0</ns3:cad>
          </ns3:TrackPointExtension>
        </extensions>
      </trkpt>
      <trkpt lat="47.50368260778486728668212890625" lon="10.11114201508462429046630859375">
        <ele>1638.5999755859375</ele>
        <time>2026-09-01T08:46:52.000Z</time>
        <extensions>
          <ns3:TrackPointExtension>
            <ns3:hr>160</ns3:hr>
            <ns3:cad>0</ns3:cad>
          </ns3:TrackPointExtension>
        </extensions>
      </trkpt>
      <trkpt lat="47.50368185341358184814453125" lon="10.11111955158412456512451171875">
        <ele>1639.5999755859375</ele>
        <time>2026-09-01T08:46:54.000Z</time>
        <extensions>
          <ns3:TrackPointExtension>
            <ns3:hr>160</ns3:hr>
            <ns3:cad>0</ns3:cad>
          </ns3:TrackPointExtension>
        </extensions>
      </trkpt>
      <trkpt lat="47.5036825239658355712890625" lon="10.111102201044559478759765625">
        <ele>1640</ele>
        <time>2026-09-01T08:46:55.000Z</time>
        <extensions>
          <ns3:TrackPointExtension>
            <ns3:hr>160</ns3:hr>
            <ns3:cad>0</ns3:cad>
          </ns3:TrackPointExtension>
        </extensions>
      </trkpt>
      <trkpt lat="47.5036991201341152191162109375" lon="10.11107948608696460723876953125">
        <ele>1641</ele>
        <time>2026-09-01T08:46:58.000Z</time>
        <extensions>
          <ns3:TrackPointExtension>
            <ns3:hr>160</ns3:hr>
            <ns3:cad>0</ns3:cad>
          </ns3:TrackPointExtension>
        </extensions>
      </trkpt>
      <trkpt lat="47.50370322726666927337646484375" lon="10.1110628060996532440185546875">
        <ele>1641.4000244140625</ele>
        <time>2026-09-01T08:46:59.000Z</time>
        <extensions>
          <ns3:TrackPointExtension>
            <ns3:hr>160</ns3:hr>
            <ns3:cad>56</ns3:cad>
          </ns3:TrackPointExtension>
        </extensions>
      </trkpt>
      <trkpt lat="47.50370942987501621246337890625" lon="10.111039169132709503173828125">
        <ele>1642.199951171875</ele>
        <time>2026-09-01T08:47:01.000Z</time>
        <extensions>
          <ns3:TrackPointExtension>
            <ns3:hr>160</ns3:hr>
            <ns3:cad>56</ns3:cad>
          </ns3:TrackPointExtension>
        </extensions>
      </trkpt>
      <trkpt lat="47.50373189337551593780517578125" lon="10.11101829819381237030029296875">
        <ele>1643.199951171875</ele>
        <time>2026-09-01T08:47:04.000Z</time>
        <extensions>
          <ns3:TrackPointExtension>
            <ns3:hr>160</ns3:hr>
            <ns3:cad>0</ns3:cad>
          </ns3:TrackPointExtension>
        </extensions>
      </trkpt>
      <trkpt lat="47.5037383474409580230712890625" lon="10.11100597679615020751953125">
        <ele>1643.5999755859375</ele>
        <time>2026-09-01T08:47:05.000Z</time>
        <extensions>
          <ns3:TrackPointExtension>
            <ns3:hr>160</ns3:hr>
            <ns3:cad>0</ns3:cad>
          </ns3:TrackPointExtension>
        </extensions>
      </trkpt>
      <trkpt lat="47.5037450529634952545166015625" lon="10.110959373414516448974609375">
        <ele>1644.199951171875</ele>
        <time>2026-09-01T08:47:08.000Z</time>
        <extensions>
          <ns3:TrackPointExtension>
            <ns3:hr>160</ns3:hr>
            <ns3:cad>0</ns3:cad>
          </ns3:TrackPointExtension>
        </extensions>
      </trkpt>
      <trkpt lat="47.5037551112473011016845703125" lon="10.11091939173638820648193359375">
        <ele>1645.5999755859375</ele>
        <time>2026-09-01T08:47:11.000Z</time>
        <extensions>
          <ns3:TrackPointExtension>
            <ns3:hr>160</ns3:hr>
            <ns3:cad>0</ns3:cad>
          </ns3:TrackPointExtension>
        </extensions>
      </trkpt>
      <trkpt lat="47.50376894138753414154052734375" lon="10.11087723076343536376953125">
        <ele>1646.5999755859375</ele>
        <time>2026-09-01T08:47:14.000Z</time>
        <extensions>
          <ns3:TrackPointExtension>
            <ns3:hr>161</ns3:hr>
            <ns3:cad>0</ns3:cad>
          </ns3:TrackPointExtension>
        </extensions>
      </trkpt>
      <trkpt lat="47.50378905795514583587646484375" lon="10.11083523742854595184326171875">
        <ele>1647.5999755859375</ele>
        <time>2026-09-01T08:47:17.000Z</time>
        <extensions>
          <ns3:TrackPointExtension>
            <ns3:hr>159</ns3:hr>
            <ns3:cad>60</ns3:cad>
          </ns3:TrackPointExtension>
        </extensions>
      </trkpt>
      <trkpt lat="47.5038013793528079986572265625" lon="10.11077824048697948455810546875">
        <ele>1648.800048828125</ele>
        <time>2026-09-01T08:47:20.000Z</time>
        <extensions>
          <ns3:TrackPointExtension>
            <ns3:hr>160</ns3:hr>
            <ns3:cad>0</ns3:cad>
          </ns3:TrackPointExtension>
        </extensions>
      </trkpt>
      <trkpt lat="47.5037929974496364593505859375" lon="10.1107660867273807525634765625">
        <ele>1649.5999755859375</ele>
        <time>2026-09-01T08:47:22.000Z</time>
        <extensions>
          <ns3:TrackPointExtension>
            <ns3:hr>159</ns3:hr>
            <ns3:cad>0</ns3:cad>
          </ns3:TrackPointExtension>
        </extensions>
      </trkpt>
      <trkpt lat="47.50379190780222415924072265625" lon="10.1107483170926570892333984375">
        <ele>1650</ele>
        <time>2026-09-01T08:47:23.000Z</time>
        <extensions>
          <ns3:TrackPointExtension>
            <ns3:hr>159</ns3:hr>
            <ns3:cad>0</ns3:cad>
          </ns3:TrackPointExtension>
        </extensions>
      </trkpt>
      <trkpt lat="47.50378218479454517364501953125" lon="10.11069123633205890655517578125">
        <ele>1651.199951171875</ele>
        <time>2026-09-01T08:47:27.000Z</time>
        <extensions>
          <ns3:TrackPointExtension>
            <ns3:hr>157</ns3:hr>
            <ns3:cad>0</ns3:cad>
          </ns3:TrackPointExtension>
        </extensions>
      </trkpt>
      <trkpt lat="47.50375670380890369415283203125" lon="10.1106929965317249298095703125">
        <ele>1652.199951171875</ele>
        <time>2026-09-01T08:47:29.000Z</time>
        <extensions>
          <ns3:TrackPointExtension>
            <ns3:hr>157</ns3:hr>
            <ns3:cad>0</ns3:cad>
          </ns3:TrackPointExtension>
        </extensions>
      </trkpt>
      <trkpt lat="47.50374396331608295440673828125" lon="10.11069106869399547576904296875">
        <ele>1652.5999755859375</ele>
        <time>2026-09-01T08:47:30.000Z</time>
        <extensions>
          <ns3:TrackPointExtension>
            <ns3:hr>157</ns3:hr>
            <ns3:cad>0</ns3:cad>
          </ns3:TrackPointExtension>
        </extensions>
      </trkpt>
      <trkpt lat="47.50373055227100849151611328125" lon="10.11068738065659999847412109375">
        <ele>1653</ele>
        <time>2026-09-01T08:47:31.000Z</time>
        <extensions>
          <ns3:TrackPointExtension>
            <ns3:hr>157</ns3:hr>
            <ns3:cad>0</ns3:cad>
          </ns3:TrackPointExtension>
        </extensions>
      </trkpt>
      <trkpt lat="47.5037064962089061737060546875" lon="10.11068218387663364410400390625">
        <ele>1653.5999755859375</ele>
        <time>2026-09-01T08:47:33.000Z</time>
        <extensions>
          <ns3:TrackPointExtension>
            <ns3:hr>157</ns3:hr>
            <ns3:cad>0</ns3:cad>
          </ns3:TrackPointExtension>
        </extensions>
      </trkpt>
      <trkpt lat="47.503668777644634246826171875" lon="10.11066625826060771942138671875">
        <ele>1654.800048828125</ele>
        <time>2026-09-01T08:47:37.000Z</time>
        <extensions>
          <ns3:TrackPointExtension>
            <ns3:hr>157</ns3:hr>
            <ns3:cad>0</ns3:cad>
          </ns3:TrackPointExtension>
        </extensions>
      </trkpt>
      <trkpt lat="47.50367422588169574737548828125" lon="10.11063960380852222442626953125">
        <ele>1656</ele>
        <time>2026-09-01T08:47:40.000Z</time>
        <extensions>
          <ns3:TrackPointExtension>
            <ns3:hr>157</ns3:hr>
            <ns3:cad>0</ns3:cad>
          </ns3:TrackPointExtension>
        </extensions>
      </trkpt>
      <trkpt lat="47.503669448196887969970703125" lon="10.11060766875743865966796875">
        <ele>1656.800048828125</ele>
        <time>2026-09-01T08:47:42.000Z</time>
        <extensions>
          <ns3:TrackPointExtension>
            <ns3:hr>157</ns3:hr>
            <ns3:cad>0</ns3:cad>
          </ns3:TrackPointExtension>
        </extensions>
      </trkpt>
      <trkpt lat="47.5036669336259365081787109375" lon="10.11059098877012729644775390625">
        <ele>1657</ele>
        <time>2026-09-01T08:47:43.000Z</time>
        <extensions>
          <ns3:TrackPointExtension>
            <ns3:hr>157</ns3:hr>
            <ns3:cad>0</ns3:cad>
          </ns3:TrackPointExtension>
        </extensions>
      </trkpt>
      <trkpt lat="47.50365779735147953033447265625" lon="10.110551677644252777099609375">
        <ele>1658.199951171875</ele>
        <time>2026-09-01T08:47:46.000Z</time>
        <extensions>
          <ns3:TrackPointExtension>
            <ns3:hr>158</ns3:hr>
            <ns3:cad>0</ns3:cad>
          </ns3:TrackPointExtension>
        </extensions>
      </trkpt>
      <trkpt lat="47.5036528520286083221435546875" lon="10.1105511747300624847412109375">
        <ele>1658.5999755859375</ele>
        <time>2026-09-01T08:47:47.000Z</time>
        <extensions>
          <ns3:TrackPointExtension>
            <ns3:hr>158</ns3:hr>
            <ns3:cad>0</ns3:cad>
          </ns3:TrackPointExtension>
        </extensions>
      </trkpt>
      <trkpt lat="47.5036568753421306610107421875" lon="10.110535584390163421630859375">
        <ele>1659</ele>
        <time>2026-09-01T08:47:48.000Z</time>
        <extensions>
          <ns3:TrackPointExtension>
            <ns3:hr>158</ns3:hr>
            <ns3:cad>0</ns3:cad>
          </ns3:TrackPointExtension>
        </extensions>
      </trkpt>
      <trkpt lat="47.5036649219691753387451171875" lon="10.11052695102989673614501953125">
        <ele>1659.199951171875</ele>
        <time>2026-09-01T08:47:49.000Z</time>
        <extensions>
          <ns3:TrackPointExtension>
            <ns3:hr>158</ns3:hr>
            <ns3:cad>0</ns3:cad>
          </ns3:TrackPointExtension>
        </extensions>
      </trkpt>
      <trkpt lat="47.50369392335414886474609375" lon="10.1105374284088611602783203125">
        <ele>1660</ele>
        <time>2026-09-01T08:47:51.000Z</time>
        <extensions>
          <ns3:TrackPointExtension>
            <ns3:hr>157</ns3:hr>
            <ns3:cad>0</ns3:cad>
          </ns3:TrackPointExtension>
        </extensions>
      </trkpt>
      <trkpt lat="47.50371001660823822021484375" lon="10.11053700931370258331298828125">
        <ele>1660.4000244140625</ele>
        <time>2026-09-01T08:47:52.000Z</time>
        <extensions>
          <ns3:TrackPointExtension>
            <ns3:hr>158</ns3:hr>
            <ns3:cad>0</ns3:cad>
          </ns3:TrackPointExtension>
        </extensions>
      </trkpt>
      <trkpt lat="47.50372485257685184478759765625" lon="10.11052049696445465087890625">
        <ele>1660.5999755859375</ele>
        <time>2026-09-01T08:47:53.000Z</time>
        <extensions>
          <ns3:TrackPointExtension>
            <ns3:hr>158</ns3:hr>
            <ns3:cad>0</ns3:cad>
          </ns3:TrackPointExtension>
        </extensions>
      </trkpt>
      <trkpt lat="47.50373809598386287689208984375" lon="10.11049107648432254791259765625">
        <ele>1661.199951171875</ele>
        <time>2026-09-01T08:47:55.000Z</time>
        <extensions>
          <ns3:TrackPointExtension>
            <ns3:hr>159</ns3:hr>
            <ns3:cad>0</ns3:cad>
          </ns3:TrackPointExtension>
        </extensions>
      </trkpt>
      <trkpt lat="47.503743208944797515869140625" lon="10.1104660145938396453857421875">
        <ele>1661.4000244140625</ele>
        <time>2026-09-01T08:47:56.000Z</time>
        <extensions>
          <ns3:TrackPointExtension>
            <ns3:hr>160</ns3:hr>
            <ns3:cad>0</ns3:cad>
          </ns3:TrackPointExtension>
        </extensions>
      </trkpt>
      <trkpt lat="47.50376173295080661773681640625" lon="10.1104165613651275634765625">
        <ele>1662.800048828125</ele>
        <time>2026-09-01T08:47:59.000Z</time>
        <extensions>
          <ns3:TrackPointExtension>
            <ns3:hr>160</ns3:hr>
            <ns3:cad>0</ns3:cad>
          </ns3:TrackPointExtension>
        </extensions>
      </trkpt>
      <trkpt lat="47.5037728808820247650146484375" lon="10.11037037707865238189697265625">
        <ele>1664</ele>
        <time>2026-09-01T08:48:02.000Z</time>
        <extensions>
          <ns3:TrackPointExtension>
            <ns3:hr>160</ns3:hr>
            <ns3:cad>0</ns3:cad>
          </ns3:TrackPointExtension>
        </extensions>
      </trkpt>
      <trkpt lat="47.50378067605197429656982421875" lon="10.110345147550106048583984375">
        <ele>1664.4000244140625</ele>
        <time>2026-09-01T08:48:03.000Z</time>
        <extensions>
          <ns3:TrackPointExtension>
            <ns3:hr>160</ns3:hr>
            <ns3:cad>0</ns3:cad>
          </ns3:TrackPointExtension>
        </extensions>
      </trkpt>
      <trkpt lat="47.50379257835447788238525390625" lon="10.11031991802155971527099609375">
        <ele>1665.199951171875</ele>
        <time>2026-09-01T08:48:05.000Z</time>
        <extensions>
          <ns3:TrackPointExtension>
            <ns3:hr>160</ns3:hr>
            <ns3:cad>0</ns3:cad>
          </ns3:TrackPointExtension>
        </extensions>
      </trkpt>
      <trkpt lat="47.50380850397050380706787109375" lon="10.11029661633074283599853515625">
        <ele>1666</ele>
        <time>2026-09-01T08:48:07.000Z</time>
        <extensions>
          <ns3:TrackPointExtension>
            <ns3:hr>160</ns3:hr>
            <ns3:cad>45</ns3:cad>
          </ns3:TrackPointExtension>
        </extensions>
      </trkpt>
      <trkpt lat="47.5038168020546436309814453125" lon="10.1102708838880062103271484375">
        <ele>1666.4000244140625</ele>
        <time>2026-09-01T08:48:08.000Z</time>
        <extensions>
          <ns3:TrackPointExtension>
            <ns3:hr>160</ns3:hr>
            <ns3:cad>45</ns3:cad>
          </ns3:TrackPointExtension>
        </extensions>
      </trkpt>
      <trkpt lat="47.503834068775177001953125" lon="10.11021464131772518157958984375">
        <ele>1667.5999755859375</ele>
        <time>2026-09-01T08:48:11.000Z</time>
        <extensions>
          <ns3:TrackPointExtension>
            <ns3:hr>159</ns3:hr>
            <ns3:cad>45</ns3:cad>
          </ns3:TrackPointExtension>
        </extensions>
      </trkpt>
      <trkpt lat="47.50382895581424236297607421875" lon="10.11018631048500537872314453125">
        <ele>1668.800048828125</ele>
        <time>2026-09-01T08:48:14.000Z</time>
        <extensions>
          <ns3:TrackPointExtension>
            <ns3:hr>158</ns3:hr>
            <ns3:cad>45</ns3:cad>
          </ns3:TrackPointExtension>
        </extensions>
      </trkpt>
      <trkpt lat="47.50382794998586177825927734375" lon="10.1101617515087127685546875">
        <ele>1669.199951171875</ele>
        <time>2026-09-01T08:48:15.000Z</time>
        <extensions>
          <ns3:TrackPointExtension>
            <ns3:hr>158</ns3:hr>
            <ns3:cad>0</ns3:cad>
          </ns3:TrackPointExtension>
        </extensions>
      </trkpt>
      <trkpt lat="47.5038362480700016021728515625" lon="10.11013417504727840423583984375">
        <ele>1670.4000244140625</ele>
        <time>2026-09-01T08:48:17.000Z</time>
        <extensions>
          <ns3:TrackPointExtension>
            <ns3:hr>158</ns3:hr>
            <ns3:cad>0</ns3:cad>
          </ns3:TrackPointExtension>
        </extensions>
      </trkpt>
      <trkpt lat="47.5038379244506359100341796875" lon="10.11012495495378971099853515625">
        <ele>1670.800048828125</ele>
        <time>2026-09-01T08:48:18.000Z</time>
        <extensions>
          <ns3:TrackPointExtension>
            <ns3:hr>158</ns3:hr>
            <ns3:cad>0</ns3:cad>
          </ns3:TrackPointExtension>
        </extensions>
      </trkpt>
      <trkpt lat="47.50383985228836536407470703125" lon="10.11011674068868160247802734375">
        <ele>1671.4000244140625</ele>
        <time>2026-09-01T08:48:19.000Z</time>
        <extensions>
          <ns3:TrackPointExtension>
            <ns3:hr>159</ns3:hr>
            <ns3:cad>71</ns3:cad>
          </ns3:TrackPointExtension>
        </extensions>
      </trkpt>
      <trkpt lat="47.50385829247534275054931640625" lon="10.11010148562490940093994140625">
        <ele>1672.199951171875</ele>
        <time>2026-09-01T08:48:21.000Z</time>
        <extensions>
          <ns3:TrackPointExtension>
            <ns3:hr>160</ns3:hr>
            <ns3:cad>71</ns3:cad>
          </ns3:TrackPointExtension>
        </extensions>
      </trkpt>
      <trkpt lat="47.50387002713978290557861328125" lon="10.110088996589183807373046875">
        <ele>1672.5999755859375</ele>
        <time>2026-09-01T08:48:22.000Z</time>
        <extensions>
          <ns3:TrackPointExtension>
            <ns3:hr>160</ns3:hr>
            <ns3:cad>71</ns3:cad>
          </ns3:TrackPointExtension>
        </extensions>
      </trkpt>
      <trkpt lat="47.503884695470333099365234375" lon="10.1100636832416057586669921875">
        <ele>1673.4000244140625</ele>
        <time>2026-09-01T08:48:24.000Z</time>
        <extensions>
          <ns3:TrackPointExtension>
            <ns3:hr>160</ns3:hr>
            <ns3:cad>71</ns3:cad>
          </ns3:TrackPointExtension>
        </extensions>
      </trkpt>
      <trkpt lat="47.503882348537445068359375" lon="10.110049434006214141845703125">
        <ele>1673.800048828125</ele>
        <time>2026-09-01T08:48:25.000Z</time>
        <extensions>
          <ns3:TrackPointExtension>
            <ns3:hr>160</ns3:hr>
            <ns3:cad>71</ns3:cad>
          </ns3:TrackPointExtension>
        </extensions>
      </trkpt>
      <trkpt lat="47.50386382453143596649169921875" lon="10.11003769934177398681640625">
        <ele>1674.5999755859375</ele>
        <time>2026-09-01T08:48:27.000Z</time>
        <extensions>
          <ns3:TrackPointExtension>
            <ns3:hr>161</ns3:hr>
            <ns3:cad>71</ns3:cad>
          </ns3:TrackPointExtension>
        </extensions>
      </trkpt>
      <trkpt lat="47.5038466416299343109130859375" lon="10.11003141291439533233642578125">
        <ele>1675</ele>
        <time>2026-09-01T08:48:28.000Z</time>
        <extensions>
          <ns3:TrackPointExtension>
            <ns3:hr>161</ns3:hr>
            <ns3:cad>71</ns3:cad>
          </ns3:TrackPointExtension>
        </extensions>
      </trkpt>
      <trkpt lat="47.50382845290005207061767578125" lon="10.11002185754477977752685546875">
        <ele>1676</ele>
        <time>2026-09-01T08:48:30.000Z</time>
        <extensions>
          <ns3:TrackPointExtension>
            <ns3:hr>161</ns3:hr>
            <ns3:cad>71</ns3:cad>
          </ns3:TrackPointExtension>
        </extensions>
      </trkpt>
      <trkpt lat="47.503821663558483123779296875" lon="10.11000358499586582183837890625">
        <ele>1676.4000244140625</ele>
        <time>2026-09-01T08:48:31.000Z</time>
        <extensions>
          <ns3:TrackPointExtension>
            <ns3:hr>161</ns3:hr>
            <ns3:cad>71</ns3:cad>
          </ns3:TrackPointExtension>
        </extensions>
      </trkpt>
      <trkpt lat="47.50381872989237308502197265625" lon="10.10999302379786968231201171875">
        <ele>1676.800048828125</ele>
        <time>2026-09-01T08:48:32.000Z</time>
        <extensions>
          <ns3:TrackPointExtension>
            <ns3:hr>161</ns3:hr>
            <ns3:cad>71</ns3:cad>
          </ns3:TrackPointExtension>
        </extensions>
      </trkpt>
      <trkpt lat="47.503814958035945892333984375" lon="10.109972320497035980224609375">
        <ele>1677.199951171875</ele>
        <time>2026-09-01T08:48:33.000Z</time>
        <extensions>
          <ns3:TrackPointExtension>
            <ns3:hr>161</ns3:hr>
            <ns3:cad>71</ns3:cad>
          </ns3:TrackPointExtension>
        </extensions>
      </trkpt>
      <trkpt lat="47.5038204900920391082763671875" lon="10.10994222946465015411376953125">
        <ele>1677.800048828125</ele>
        <time>2026-09-01T08:48:35.000Z</time>
        <extensions>
          <ns3:TrackPointExtension>
            <ns3:hr>162</ns3:hr>
            <ns3:cad>0</ns3:cad>
          </ns3:TrackPointExtension>
        </extensions>
      </trkpt>
      <trkpt lat="47.5038241781294345855712890625" lon="10.10993133299052715301513671875">
        <ele>1678</ele>
        <time>2026-09-01T08:48:36.000Z</time>
        <extensions>
          <ns3:TrackPointExtension>
            <ns3:hr>162</ns3:hr>
            <ns3:cad>0</ns3:cad>
          </ns3:TrackPointExtension>
        </extensions>
      </trkpt>
      <trkpt lat="47.50382627360522747039794921875" lon="10.10992445982992649078369140625">
        <ele>1678.4000244140625</ele>
        <time>2026-09-01T08:48:37.000Z</time>
        <extensions>
          <ns3:TrackPointExtension>
            <ns3:hr>163</ns3:hr>
            <ns3:cad>0</ns3:cad>
          </ns3:TrackPointExtension>
        </extensions>
      </trkpt>
      <trkpt lat="47.5038342364132404327392578125" lon="10.109897218644618988037109375">
        <ele>1679.5999755859375</ele>
        <time>2026-09-01T08:48:40.000Z</time>
        <extensions>
          <ns3:TrackPointExtension>
            <ns3:hr>163</ns3:hr>
            <ns3:cad>0</ns3:cad>
          </ns3:TrackPointExtension>
        </extensions>
      </trkpt>
      <trkpt lat="47.50383473932743072509765625" lon="10.1098749227821826934814453125">
        <ele>1679.800048828125</ele>
        <time>2026-09-01T08:48:41.000Z</time>
        <extensions>
          <ns3:TrackPointExtension>
            <ns3:hr>163</ns3:hr>
            <ns3:cad>0</ns3:cad>
          </ns3:TrackPointExtension>
        </extensions>
      </trkpt>
      <trkpt lat="47.50382459722459316253662109375" lon="10.10984122753143310546875">
        <ele>1680.5999755859375</ele>
        <time>2026-09-01T08:48:43.000Z</time>
        <extensions>
          <ns3:TrackPointExtension>
            <ns3:hr>164</ns3:hr>
            <ns3:cad>0</ns3:cad>
          </ns3:TrackPointExtension>
        </extensions>
      </trkpt>
      <trkpt lat="47.50380565412342548370361328125" lon="10.1098199374973773956298828125">
        <ele>1681.199951171875</ele>
        <time>2026-09-01T08:48:45.000Z</time>
        <extensions>
          <ns3:TrackPointExtension>
            <ns3:hr>164</ns3:hr>
            <ns3:cad>0</ns3:cad>
          </ns3:TrackPointExtension>
        </extensions>
      </trkpt>
      <trkpt lat="47.50380129553377628326416015625" lon="10.10978498496115207672119140625">
        <ele>1681.800048828125</ele>
        <time>2026-09-01T08:48:47.000Z</time>
        <extensions>
          <ns3:TrackPointExtension>
            <ns3:hr>164</ns3:hr>
            <ns3:cad>0</ns3:cad>
          </ns3:TrackPointExtension>
        </extensions>
      </trkpt>
      <trkpt lat="47.50380766578018665313720703125" lon="10.10977308265864849090576171875">
        <ele>1682.4000244140625</ele>
        <time>2026-09-01T08:48:49.000Z</time>
        <extensions>
          <ns3:TrackPointExtension>
            <ns3:hr>163</ns3:hr>
            <ns3:cad>0</ns3:cad>
          </ns3:TrackPointExtension>
        </extensions>
      </trkpt>
      <trkpt lat="47.5038147903978824615478515625" lon="10.10975011624395847320556640625">
        <ele>1683</ele>
        <time>2026-09-01T08:48:51.000Z</time>
        <extensions>
          <ns3:TrackPointExtension>
            <ns3:hr>162</ns3:hr>
            <ns3:cad>75</ns3:cad>
          </ns3:TrackPointExtension>
        </extensions>
      </trkpt>
      <trkpt lat="47.50382744707167148590087890625" lon="10.1097294129431247711181640625">
        <ele>1684.199951171875</ele>
        <time>2026-09-01T08:48:54.000Z</time>
        <extensions>
          <ns3:TrackPointExtension>
            <ns3:hr>162</ns3:hr>
            <ns3:cad>75</ns3:cad>
          </ns3:TrackPointExtension>
        </extensions>
      </trkpt>
      <trkpt lat="47.50383348204195499420166015625" lon="10.1097166724503040313720703125">
        <ele>1684.800048828125</ele>
        <time>2026-09-01T08:48:55.000Z</time>
        <extensions>
          <ns3:TrackPointExtension>
            <ns3:hr>161</ns3:hr>
            <ns3:cad>0</ns3:cad>
          </ns3:TrackPointExtension>
        </extensions>
      </trkpt>
      <trkpt lat="47.50383700244128704071044921875" lon="10.10970720089972019195556640625">
        <ele>1685.199951171875</ele>
        <time>2026-09-01T08:48:56.000Z</time>
        <extensions>
          <ns3:TrackPointExtension>
            <ns3:hr>161</ns3:hr>
            <ns3:cad>0</ns3:cad>
          </ns3:TrackPointExtension>
        </extensions>
      </trkpt>
      <trkpt lat="47.5038479827344417572021484375" lon="10.10964316315948963165283203125">
        <ele>1686.4000244140625</ele>
        <time>2026-09-01T08:49:00.000Z</time>
        <extensions>
          <ns3:TrackPointExtension>
            <ns3:hr>161</ns3:hr>
            <ns3:cad>0</ns3:cad>
          </ns3:TrackPointExtension>
        </extensions>
      </trkpt>
      <trkpt lat="47.50384924001991748809814453125" lon="10.10960712097585201263427734375">
        <ele>1687.5999755859375</ele>
        <time>2026-09-01T08:49:03.000Z</time>
        <extensions>
          <ns3:TrackPointExtension>
            <ns3:hr>161</ns3:hr>
            <ns3:cad>0</ns3:cad>
          </ns3:TrackPointExtension>
        </extensions>
      </trkpt>
      <trkpt lat="47.50384119339287281036376953125" lon="10.10959320701658725738525390625">
        <ele>1688.199951171875</ele>
        <time>2026-09-01T08:49:05.000Z</time>
        <extensions>
          <ns3:TrackPointExtension>
            <ns3:hr>161</ns3:hr>
            <ns3:cad>0</ns3:cad>
          </ns3:TrackPointExtension>
        </extensions>
      </trkpt>
      <trkpt lat="47.50382744707167148590087890625" lon="10.10955096222460269927978515625">
        <ele>1689</ele>
        <time>2026-09-01T08:49:07.000Z</time>
        <extensions>
          <ns3:TrackPointExtension>
            <ns3:hr>160</ns3:hr>
            <ns3:cad>0</ns3:cad>
          </ns3:TrackPointExtension>
        </extensions>
      </trkpt>
      <trkpt lat="47.503822334110736846923828125" lon="10.109549872577190399169921875">
        <ele>1689.4000244140625</ele>
        <time>2026-09-01T08:49:08.000Z</time>
        <extensions>
          <ns3:TrackPointExtension>
            <ns3:hr>161</ns3:hr>
            <ns3:cad>0</ns3:cad>
          </ns3:TrackPointExtension>
        </extensions>
      </trkpt>
      <trkpt lat="47.5038248486816883087158203125" lon="10.109533779323101043701171875">
        <ele>1689.5999755859375</ele>
        <time>2026-09-01T08:49:09.000Z</time>
        <extensions>
          <ns3:TrackPointExtension>
            <ns3:hr>161</ns3:hr>
            <ns3:cad>0</ns3:cad>
          </ns3:TrackPointExtension>
        </extensions>
      </trkpt>
      <trkpt lat="47.50382794998586177825927734375" lon="10.1095289178192615509033203125">
        <ele>1690</ele>
        <time>2026-09-01T08:49:10.000Z</time>
        <extensions>
          <ns3:TrackPointExtension>
            <ns3:hr>161</ns3:hr>
            <ns3:cad>0</ns3:cad>
          </ns3:TrackPointExtension>
        </extensions>
      </trkpt>
      <trkpt lat="47.50384152866899967193603515625" lon="10.10951559059321880340576171875">
        <ele>1690.5999755859375</ele>
        <time>2026-09-01T08:49:12.000Z</time>
        <extensions>
          <ns3:TrackPointExtension>
            <ns3:hr>161</ns3:hr>
            <ns3:cad>0</ns3:cad>
          </ns3:TrackPointExtension>
        </extensions>
      </trkpt>
      <trkpt lat="47.5038526766002178192138671875" lon="10.10950125753879547119140625">
        <ele>1691</ele>
        <time>2026-09-01T08:49:13.000Z</time>
        <extensions>
          <ns3:TrackPointExtension>
            <ns3:hr>160</ns3:hr>
            <ns3:cad>0</ns3:cad>
          </ns3:TrackPointExtension>
        </extensions>
      </trkpt>
      <trkpt lat="47.503852508962154388427734375" lon="10.10948424227535724639892578125">
        <ele>1692</ele>
        <time>2026-09-01T08:49:15.000Z</time>
        <extensions>
          <ns3:TrackPointExtension>
            <ns3:hr>161</ns3:hr>
            <ns3:cad>0</ns3:cad>
          </ns3:TrackPointExtension>
        </extensions>
      </trkpt>
      <trkpt lat="47.50385644845664501190185546875" lon="10.109468065202236175537109375">
        <ele>1692.4000244140625</ele>
        <time>2026-09-01T08:49:16.000Z</time>
        <extensions>
          <ns3:TrackPointExtension>
            <ns3:hr>160</ns3:hr>
            <ns3:cad>0</ns3:cad>
          </ns3:TrackPointExtension>
        </extensions>
      </trkpt>
      <trkpt lat="47.50386692583560943603515625" lon="10.109447278082370758056640625">
        <ele>1693.199951171875</ele>
        <time>2026-09-01T08:49:18.000Z</time>
        <extensions>
          <ns3:TrackPointExtension>
            <ns3:hr>161</ns3:hr>
            <ns3:cad>0</ns3:cad>
          </ns3:TrackPointExtension>
        </extensions>
      </trkpt>
      <trkpt lat="47.503868602216243743896484375" lon="10.10944266803562641143798828125">
        <ele>1694</ele>
        <time>2026-09-01T08:49:20.000Z</time>
        <extensions>
          <ns3:TrackPointExtension>
            <ns3:hr>161</ns3:hr>
            <ns3:cad>0</ns3:cad>
          </ns3:TrackPointExtension>
        </extensions>
      </trkpt>
      <trkpt lat="47.50387187115848064422607421875" lon="10.1094239763915538787841796875">
        <ele>1694.4000244140625</ele>
        <time>2026-09-01T08:49:21.000Z</time>
        <extensions>
          <ns3:TrackPointExtension>
            <ns3:hr>161</ns3:hr>
            <ns3:cad>0</ns3:cad>
          </ns3:TrackPointExtension>
        </extensions>
      </trkpt>
      <trkpt lat="47.50387254171073436737060546875" lon="10.10939824394881725311279296875">
        <ele>1695.4000244140625</ele>
        <time>2026-09-01T08:49:24.000Z</time>
        <extensions>
          <ns3:TrackPointExtension>
            <ns3:hr>160</ns3:hr>
            <ns3:cad>0</ns3:cad>
          </ns3:TrackPointExtension>
        </extensions>
      </trkpt>
      <trkpt lat="47.50388947315514087677001953125" lon="10.1093570888042449951171875">
        <ele>1696.4000244140625</ele>
        <time>2026-09-01T08:49:27.000Z</time>
        <extensions>
          <ns3:TrackPointExtension>
            <ns3:hr>160</ns3:hr>
            <ns3:cad>0</ns3:cad>
          </ns3:TrackPointExtension>
        </extensions>
      </trkpt>
      <trkpt lat="47.50390405766665935516357421875" lon="10.1093458570539951324462890625">
        <ele>1697.4000244140625</ele>
        <time>2026-09-01T08:49:29.000Z</time>
        <extensions>
          <ns3:TrackPointExtension>
            <ns3:hr>160</ns3:hr>
            <ns3:cad>0</ns3:cad>
          </ns3:TrackPointExtension>
        </extensions>
      </trkpt>
      <trkpt lat="47.50391260720789432525634765625" lon="10.1093347929418087005615234375">
        <ele>1697.800048828125</ele>
        <time>2026-09-01T08:49:30.000Z</time>
        <extensions>
          <ns3:TrackPointExtension>
            <ns3:hr>159</ns3:hr>
            <ns3:cad>0</ns3:cad>
          </ns3:TrackPointExtension>
        </extensions>
      </trkpt>
      <trkpt lat="47.5039304606616497039794921875" lon="10.1093007624149322509765625">
        <ele>1698.800048828125</ele>
        <time>2026-09-01T08:49:33.000Z</time>
        <extensions>
          <ns3:TrackPointExtension>
            <ns3:hr>160</ns3:hr>
            <ns3:cad>40</ns3:cad>
          </ns3:TrackPointExtension>
        </extensions>
      </trkpt>
      <trkpt lat="47.5039321370422840118408203125" lon="10.10929204523563385009765625">
        <ele>1699.199951171875</ele>
        <time>2026-09-01T08:49:34.000Z</time>
        <extensions>
          <ns3:TrackPointExtension>
            <ns3:hr>160</ns3:hr>
            <ns3:cad>40</ns3:cad>
          </ns3:TrackPointExtension>
        </extensions>
      </trkpt>
      <trkpt lat="47.50392861664295196533203125" lon="10.1092712581157684326171875">
        <ele>1699.5999755859375</ele>
        <time>2026-09-01T08:49:35.000Z</time>
        <extensions>
          <ns3:TrackPointExtension>
            <ns3:hr>159</ns3:hr>
            <ns3:cad>40</ns3:cad>
          </ns3:TrackPointExtension>
        </extensions>
      </trkpt>
      <trkpt lat="47.5039266049861907958984375" lon="10.10925608687102794647216796875">
        <ele>1700</ele>
        <time>2026-09-01T08:49:36.000Z</time>
        <extensions>
          <ns3:TrackPointExtension>
            <ns3:hr>159</ns3:hr>
            <ns3:cad>40</ns3:cad>
          </ns3:TrackPointExtension>
        </extensions>
      </trkpt>
      <trkpt lat="47.503912188112735748291015625" lon="10.10924368165433406829833984375">
        <ele>1700.5999755859375</ele>
        <time>2026-09-01T08:49:38.000Z</time>
        <extensions>
          <ns3:TrackPointExtension>
            <ns3:hr>159</ns3:hr>
            <ns3:cad>40</ns3:cad>
          </ns3:TrackPointExtension>
        </extensions>
      </trkpt>
      <trkpt lat="47.5039059855043888092041015625" lon="10.10923982597887516021728515625">
        <ele>1701</ele>
        <time>2026-09-01T08:49:39.000Z</time>
        <extensions>
          <ns3:TrackPointExtension>
            <ns3:hr>160</ns3:hr>
            <ns3:cad>40</ns3:cad>
          </ns3:TrackPointExtension>
        </extensions>
      </trkpt>
      <trkpt lat="47.5039002858102321624755859375" lon="10.10922943241894245147705078125">
        <ele>1701.4000244140625</ele>
        <time>2026-09-01T08:49:40.000Z</time>
        <extensions>
          <ns3:TrackPointExtension>
            <ns3:hr>160</ns3:hr>
            <ns3:cad>17</ns3:cad>
          </ns3:TrackPointExtension>
        </extensions>
      </trkpt>
      <trkpt lat="47.50390171073377132415771484375" lon="10.109205543994903564453125">
        <ele>1702.199951171875</ele>
        <time>2026-09-01T08:49:42.000Z</time>
        <extensions>
          <ns3:TrackPointExtension>
            <ns3:hr>159</ns3:hr>
            <ns3:cad>17</ns3:cad>
          </ns3:TrackPointExtension>
        </extensions>
      </trkpt>
      <trkpt lat="47.50390422530472278594970703125" lon="10.109201185405254364013671875">
        <ele>1702.800048828125</ele>
        <time>2026-09-01T08:49:43.000Z</time>
        <extensions>
          <ns3:TrackPointExtension>
            <ns3:hr>159</ns3:hr>
            <ns3:cad>0</ns3:cad>
          </ns3:TrackPointExtension>
        </extensions>
      </trkpt>
      <trkpt lat="47.5039063207805156707763671875" lon="10.10917327366769313812255859375">
        <ele>1703.4000244140625</ele>
        <time>2026-09-01T08:49:45.000Z</time>
        <extensions>
          <ns3:TrackPointExtension>
            <ns3:hr>159</ns3:hr>
            <ns3:cad>0</ns3:cad>
          </ns3:TrackPointExtension>
        </extensions>
      </trkpt>
      <trkpt lat="47.50389047898352146148681640625" lon="10.1091503910720348358154296875">
        <ele>1704</ele>
        <time>2026-09-01T08:49:47.000Z</time>
        <extensions>
          <ns3:TrackPointExtension>
            <ns3:hr>159</ns3:hr>
            <ns3:cad>0</ns3:cad>
          </ns3:TrackPointExtension>
        </extensions>
      </trkpt>
      <trkpt lat="47.50387631356716156005859375" lon="10.1091399975121021270751953125">
        <ele>1704.4000244140625</ele>
        <time>2026-09-01T08:49:48.000Z</time>
        <extensions>
          <ns3:TrackPointExtension>
            <ns3:hr>159</ns3:hr>
            <ns3:cad>0</ns3:cad>
          </ns3:TrackPointExtension>
        </extensions>
      </trkpt>
      <trkpt lat="47.50388301908969879150390625" lon="10.10912868194282054901123046875">
        <ele>1705.4000244140625</ele>
        <time>2026-09-01T08:49:50.000Z</time>
        <extensions>
          <ns3:TrackPointExtension>
            <ns3:hr>159</ns3:hr>
            <ns3:cad>0</ns3:cad>
          </ns3:TrackPointExtension>
        </extensions>
      </trkpt>
      <trkpt lat="47.50388377346098423004150390625" lon="10.10911996476352214813232421875">
        <ele>1705.800048828125</ele>
        <time>2026-09-01T08:49:51.000Z</time>
        <extensions>
          <ns3:TrackPointExtension>
            <ns3:hr>160</ns3:hr>
            <ns3:cad>0</ns3:cad>
          </ns3:TrackPointExtension>
        </extensions>
      </trkpt>
      <trkpt lat="47.50389584340155124664306640625" lon="10.1090987585484981536865234375">
        <ele>1707.199951171875</ele>
        <time>2026-09-01T08:49:54.000Z</time>
        <extensions>
          <ns3:TrackPointExtension>
            <ns3:hr>160</ns3:hr>
            <ns3:cad>0</ns3:cad>
          </ns3:TrackPointExtension>
        </extensions>
      </trkpt>
      <trkpt lat="47.503909170627593994140625" lon="10.109071768820285797119140625">
        <ele>1708</ele>
        <time>2026-09-01T08:49:56.000Z</time>
        <extensions>
          <ns3:TrackPointExtension>
            <ns3:hr>160</ns3:hr>
            <ns3:cad>0</ns3:cad>
          </ns3:TrackPointExtension>
        </extensions>
      </trkpt>
      <trkpt lat="47.50391252338886260986328125" lon="10.10905005969107151031494140625">
        <ele>1708.4000244140625</ele>
        <time>2026-09-01T08:49:57.000Z</time>
        <extensions>
          <ns3:TrackPointExtension>
            <ns3:hr>160</ns3:hr>
            <ns3:cad>0</ns3:cad>
          </ns3:TrackPointExtension>
        </extensions>
      </trkpt>
      <trkpt lat="47.503914870321750640869140625" lon="10.10903882794082164764404296875">
        <ele>1709.5999755859375</ele>
        <time>2026-09-01T08:50:00.000Z</time>
        <extensions>
          <ns3:TrackPointExtension>
            <ns3:hr>160</ns3:hr>
            <ns3:cad>0</ns3:cad>
          </ns3:TrackPointExtension>
        </extensions>
      </trkpt>
      <trkpt lat="47.50393054448068141937255859375" lon="10.10902407579123973846435546875">
        <ele>1710.800048828125</ele>
        <time>2026-09-01T08:50:03.000Z</time>
        <extensions>
          <ns3:TrackPointExtension>
            <ns3:hr>159</ns3:hr>
            <ns3:cad>0</ns3:cad>
          </ns3:TrackPointExtension>
        </extensions>
      </trkpt>
      <trkpt lat="47.5039385072886943817138671875" lon="10.10900228284299373626708984375">
        <ele>1711.5999755859375</ele>
        <time>2026-09-01T08:50:05.000Z</time>
        <extensions>
          <ns3:TrackPointExtension>
            <ns3:hr>159</ns3:hr>
            <ns3:cad>0</ns3:cad>
          </ns3:TrackPointExtension>
        </extensions>
      </trkpt>
      <trkpt lat="47.50394177623093128204345703125" lon="10.10899406857788562774658203125">
        <ele>1712</ele>
        <time>2026-09-01T08:50:06.000Z</time>
        <extensions>
          <ns3:TrackPointExtension>
            <ns3:hr>159</ns3:hr>
            <ns3:cad>0</ns3:cad>
          </ns3:TrackPointExtension>
        </extensions>
      </trkpt>
      <trkpt lat="47.50395812094211578369140625" lon="10.108966492116451263427734375">
        <ele>1713.4000244140625</ele>
        <time>2026-09-01T08:50:09.000Z</time>
        <extensions>
          <ns3:TrackPointExtension>
            <ns3:hr>159</ns3:hr>
            <ns3:cad>0</ns3:cad>
          </ns3:TrackPointExtension>
        </extensions>
      </trkpt>
      <trkpt lat="47.50399273820221424102783203125" lon="10.10892458260059356689453125">
        <ele>1714.4000244140625</ele>
        <time>2026-09-01T08:50:12.000Z</time>
        <extensions>
          <ns3:TrackPointExtension>
            <ns3:hr>159</ns3:hr>
            <ns3:cad>0</ns3:cad>
          </ns3:TrackPointExtension>
        </extensions>
      </trkpt>
      <trkpt lat="47.50398435629904270172119140625" lon="10.1088928990066051483154296875">
        <ele>1715.199951171875</ele>
        <time>2026-09-01T08:50:14.000Z</time>
        <extensions>
          <ns3:TrackPointExtension>
            <ns3:hr>159</ns3:hr>
            <ns3:cad>0</ns3:cad>
          </ns3:TrackPointExtension>
        </extensions>
      </trkpt>
      <trkpt lat="47.5039773993194103240966796875" lon="10.1088784821331501007080078125">
        <ele>1715.4000244140625</ele>
        <time>2026-09-01T08:50:15.000Z</time>
        <extensions>
          <ns3:TrackPointExtension>
            <ns3:hr>159</ns3:hr>
            <ns3:cad>0</ns3:cad>
          </ns3:TrackPointExtension>
        </extensions>
      </trkpt>
      <trkpt lat="47.503966502845287322998046875" lon="10.108872614800930023193359375">
        <ele>1715.800048828125</ele>
        <time>2026-09-01T08:50:16.000Z</time>
        <extensions>
          <ns3:TrackPointExtension>
            <ns3:hr>159</ns3:hr>
            <ns3:cad>0</ns3:cad>
          </ns3:TrackPointExtension>
        </extensions>
      </trkpt>
      <trkpt lat="47.5039445422589778900146484375" lon="10.1088419370353221893310546875">
        <ele>1717</ele>
        <time>2026-09-01T08:50:19.000Z</time>
        <extensions>
          <ns3:TrackPointExtension>
            <ns3:hr>159</ns3:hr>
            <ns3:cad>0</ns3:cad>
          </ns3:TrackPointExtension>
        </extensions>
      </trkpt>
      <trkpt lat="47.50394429080188274383544921875" lon="10.10882911272346973419189453125">
        <ele>1717.199951171875</ele>
        <time>2026-09-01T08:50:20.000Z</time>
        <extensions>
          <ns3:TrackPointExtension>
            <ns3:hr>159</ns3:hr>
            <ns3:cad>0</ns3:cad>
          </ns3:TrackPointExtension>
        </extensions>
      </trkpt>
      <trkpt lat="47.50395141541957855224609375" lon="10.1088099181652069091796875">
        <ele>1717.800048828125</ele>
        <time>2026-09-01T08:50:22.000Z</time>
        <extensions>
          <ns3:TrackPointExtension>
            <ns3:hr>159</ns3:hr>
            <ns3:cad>0</ns3:cad>
          </ns3:TrackPointExtension>
        </extensions>
      </trkpt>
      <trkpt lat="47.50395216979086399078369140625" lon="10.1088023744523525238037109375">
        <ele>1718</ele>
        <time>2026-09-01T08:50:23.000Z</time>
        <extensions>
          <ns3:TrackPointExtension>
            <ns3:hr>159</ns3:hr>
            <ns3:cad>0</ns3:cad>
          </ns3:TrackPointExtension>
        </extensions>
      </trkpt>
      <trkpt lat="47.50396155752241611480712890625" lon="10.10878636501729488372802734375">
        <ele>1718.4000244140625</ele>
        <time>2026-09-01T08:50:24.000Z</time>
        <extensions>
          <ns3:TrackPointExtension>
            <ns3:hr>159</ns3:hr>
            <ns3:cad>0</ns3:cad>
          </ns3:TrackPointExtension>
        </extensions>
      </trkpt>
      <trkpt lat="47.503963820636272430419921875" lon="10.10877312161028385162353515625">
        <ele>1719.199951171875</ele>
        <time>2026-09-01T08:50:26.000Z</time>
        <extensions>
          <ns3:TrackPointExtension>
            <ns3:hr>158</ns3:hr>
            <ns3:cad>0</ns3:cad>
          </ns3:TrackPointExtension>
        </extensions>
      </trkpt>
      <trkpt lat="47.503978908061981201171875" lon="10.10873951017856597900390625">
        <ele>1720.4000244140625</ele>
        <time>2026-09-01T08:50:29.000Z</time>
        <extensions>
          <ns3:TrackPointExtension>
            <ns3:hr>157</ns3:hr>
            <ns3:cad>0</ns3:cad>
          </ns3:TrackPointExtension>
        </extensions>
      </trkpt>
      <trkpt lat="47.50396256335079669952392578125" lon="10.10871159844100475311279296875">
        <ele>1721.5999755859375</ele>
        <time>2026-09-01T08:50:32.000Z</time>
        <extensions>
          <ns3:TrackPointExtension>
            <ns3:hr>157</ns3:hr>
            <ns3:cad>44</ns3:cad>
          </ns3:TrackPointExtension>
        </extensions>
      </trkpt>
      <trkpt lat="47.50394546426832675933837890625" lon="10.108682848513126373291015625">
        <ele>1722.800048828125</ele>
        <time>2026-09-01T08:50:35.000Z</time>
        <extensions>
          <ns3:TrackPointExtension>
            <ns3:hr>157</ns3:hr>
            <ns3:cad>44</ns3:cad>
          </ns3:TrackPointExtension>
        </extensions>
      </trkpt>
      <trkpt lat="47.50392501242458820343017578125" lon="10.10867706499993801116943359375">
        <ele>1723.199951171875</ele>
        <time>2026-09-01T08:50:36.000Z</time>
        <extensions>
          <ns3:TrackPointExtension>
            <ns3:hr>158</ns3:hr>
            <ns3:cad>44</ns3:cad>
          </ns3:TrackPointExtension>
        </extensions>
      </trkpt>
      <trkpt lat="47.503910847008228302001953125" lon="10.10865770280361175537109375">
        <ele>1724</ele>
        <time>2026-09-01T08:50:38.000Z</time>
        <extensions>
          <ns3:TrackPointExtension>
            <ns3:hr>158</ns3:hr>
            <ns3:cad>44</ns3:cad>
          </ns3:TrackPointExtension>
        </extensions>
      </trkpt>
      <trkpt lat="47.50388075597584247589111328125" lon="10.10863222181797027587890625">
        <ele>1725</ele>
        <time>2026-09-01T08:50:41.000Z</time>
        <extensions>
          <ns3:TrackPointExtension>
            <ns3:hr>158</ns3:hr>
            <ns3:cad>0</ns3:cad>
          </ns3:TrackPointExtension>
        </extensions>
      </trkpt>
      <trkpt lat="47.50388477928936481475830078125" lon="10.10862660594284534454345703125">
        <ele>1725.4000244140625</ele>
        <time>2026-09-01T08:50:42.000Z</time>
        <extensions>
          <ns3:TrackPointExtension>
            <ns3:hr>159</ns3:hr>
            <ns3:cad>0</ns3:cad>
          </ns3:TrackPointExtension>
        </extensions>
      </trkpt>
      <trkpt lat="47.5038976036012172698974609375" lon="10.10861269198358058929443359375">
        <ele>1726</ele>
        <time>2026-09-01T08:50:44.000Z</time>
        <extensions>
          <ns3:TrackPointExtension>
            <ns3:hr>159</ns3:hr>
            <ns3:cad>0</ns3:cad>
          </ns3:TrackPointExtension>
        </extensions>
      </trkpt>
      <trkpt lat="47.50392383895814418792724609375" lon="10.10858469642698764801025390625">
        <ele>1727.199951171875</ele>
        <time>2026-09-01T08:50:47.000Z</time>
        <extensions>
          <ns3:TrackPointExtension>
            <ns3:hr>159</ns3:hr>
            <ns3:cad>0</ns3:cad>
          </ns3:TrackPointExtension>
        </extensions>
      </trkpt>
      <trkpt lat="47.50393255613744258880615234375" lon="10.1085765659809112548828125">
        <ele>1728.4000244140625</ele>
        <time>2026-09-01T08:50:50.000Z</time>
        <extensions>
          <ns3:TrackPointExtension>
            <ns3:hr>159</ns3:hr>
            <ns3:cad>0</ns3:cad>
          </ns3:TrackPointExtension>
        </extensions>
      </trkpt>
      <trkpt lat="47.5039264373481273651123046875" lon="10.10855033062398433685302734375">
        <ele>1728.800048828125</ele>
        <time>2026-09-01T08:50:51.000Z</time>
        <extensions>
          <ns3:TrackPointExtension>
            <ns3:hr>159</ns3:hr>
            <ns3:cad>0</ns3:cad>
          </ns3:TrackPointExtension>
        </extensions>
      </trkpt>
      <trkpt lat="47.50390338711440563201904296875" lon="10.1085269451141357421875">
        <ele>1729.5999755859375</ele>
        <time>2026-09-01T08:50:53.000Z</time>
        <extensions>
          <ns3:TrackPointExtension>
            <ns3:hr>159</ns3:hr>
            <ns3:cad>0</ns3:cad>
          </ns3:TrackPointExtension>
        </extensions>
      </trkpt>
      <trkpt lat="47.50390154309570789337158203125" lon="10.10851747356355190277099609375">
        <ele>1730.5999755859375</ele>
        <time>2026-09-01T08:50:55.000Z</time>
        <extensions>
          <ns3:TrackPointExtension>
            <ns3:hr>160</ns3:hr>
            <ns3:cad>0</ns3:cad>
          </ns3:TrackPointExtension>
        </extensions>
      </trkpt>
      <trkpt lat="47.50391126610338687896728515625" lon="10.1085230894386768341064453125">
        <ele>1731</ele>
        <time>2026-09-01T08:50:56.000Z</time>
        <extensions>
          <ns3:TrackPointExtension>
            <ns3:hr>159</ns3:hr>
            <ns3:cad>0</ns3:cad>
          </ns3:TrackPointExtension>
        </extensions>
      </trkpt>
      <trkpt lat="47.50392367132008075714111328125" lon="10.1085086725652217864990234375">
        <ele>1732</ele>
        <time>2026-09-01T08:50:59.000Z</time>
        <extensions>
          <ns3:TrackPointExtension>
            <ns3:hr>160</ns3:hr>
            <ns3:cad>0</ns3:cad>
          </ns3:TrackPointExtension>
        </extensions>
      </trkpt>
      <trkpt lat="47.5039445422589778900146484375" lon="10.10847237892448902130126953125">
        <ele>1733.199951171875</ele>
        <time>2026-09-01T08:51:02.000Z</time>
        <extensions>
          <ns3:TrackPointExtension>
            <ns3:hr>160</ns3:hr>
            <ns3:cad>63</ns3:cad>
          </ns3:TrackPointExtension>
        </extensions>
      </trkpt>
      <trkpt lat="47.503950409591197967529296875" lon="10.1084567047655582427978515625">
        <ele>1733.5999755859375</ele>
        <time>2026-09-01T08:51:03.000Z</time>
        <extensions>
          <ns3:TrackPointExtension>
            <ns3:hr>160</ns3:hr>
            <ns3:cad>63</ns3:cad>
          </ns3:TrackPointExtension>
        </extensions>
      </trkpt>
      <trkpt lat="47.5039599649608135223388671875" lon="10.1084290444850921630859375">
        <ele>1734.4000244140625</ele>
        <time>2026-09-01T08:51:05.000Z</time>
        <extensions>
          <ns3:TrackPointExtension>
            <ns3:hr>160</ns3:hr>
            <ns3:cad>63</ns3:cad>
          </ns3:TrackPointExtension>
        </extensions>
      </trkpt>
      <trkpt lat="47.50396977178752422332763671875" lon="10.1084117777645587921142578125">
        <ele>1735.800048828125</ele>
        <time>2026-09-01T08:51:08.000Z</time>
        <extensions>
          <ns3:TrackPointExtension>
            <ns3:hr>160</ns3:hr>
            <ns3:cad>0</ns3:cad>
          </ns3:TrackPointExtension>
        </extensions>
      </trkpt>
      <trkpt lat="47.5039784051477909088134765625" lon="10.1083968579769134521484375">
        <ele>1736.199951171875</ele>
        <time>2026-09-01T08:51:09.000Z</time>
        <extensions>
          <ns3:TrackPointExtension>
            <ns3:hr>160</ns3:hr>
            <ns3:cad>0</ns3:cad>
          </ns3:TrackPointExtension>
        </extensions>
      </trkpt>
      <trkpt lat="47.503984272480010986328125" lon="10.1083795912563800811767578125">
        <ele>1737.199951171875</ele>
        <time>2026-09-01T08:51:11.000Z</time>
        <extensions>
          <ns3:TrackPointExtension>
            <ns3:hr>161</ns3:hr>
            <ns3:cad>0</ns3:cad>
          </ns3:TrackPointExtension>
        </extensions>
      </trkpt>
      <trkpt lat="47.50399843789637088775634765625" lon="10.10835017077624797821044921875">
        <ele>1738.5999755859375</ele>
        <time>2026-09-01T08:51:14.000Z</time>
        <extensions>
          <ns3:TrackPointExtension>
            <ns3:hr>161</ns3:hr>
            <ns3:cad>0</ns3:cad>
          </ns3:TrackPointExtension>
        </extensions>
      </trkpt>
      <trkpt lat="47.5040055625140666961669921875" lon="10.1083202473819255828857421875">
        <ele>1739.5999755859375</ele>
        <time>2026-09-01T08:51:17.000Z</time>
        <extensions>
          <ns3:TrackPointExtension>
            <ns3:hr>161</ns3:hr>
            <ns3:cad>0</ns3:cad>
          </ns3:TrackPointExtension>
        </extensions>
      </trkpt>
      <trkpt lat="47.5040139444172382354736328125" lon="10.10831295512616634368896484375">
        <ele>1740</ele>
        <time>2026-09-01T08:51:19.000Z</time>
        <extensions>
          <ns3:TrackPointExtension>
            <ns3:hr>161</ns3:hr>
            <ns3:cad>0</ns3:cad>
          </ns3:TrackPointExtension>
        </extensions>
      </trkpt>
      <trkpt lat="47.5040394254028797149658203125" lon="10.10828445665538311004638671875">
        <ele>1740.800048828125</ele>
        <time>2026-09-01T08:51:21.000Z</time>
        <extensions>
          <ns3:TrackPointExtension>
            <ns3:hr>162</ns3:hr>
            <ns3:cad>0</ns3:cad>
          </ns3:TrackPointExtension>
        </extensions>
      </trkpt>
      <trkpt lat="47.50403045676648616790771484375" lon="10.1082649268209934234619140625">
        <ele>1741.5999755859375</ele>
        <time>2026-09-01T08:51:23.000Z</time>
        <extensions>
          <ns3:TrackPointExtension>
            <ns3:hr>163</ns3:hr>
            <ns3:cad>0</ns3:cad>
          </ns3:TrackPointExtension>
        </extensions>
      </trkpt>
      <trkpt lat="47.50401847064495086669921875" lon="10.1082525216042995452880859375">
        <ele>1741.800048828125</ele>
        <time>2026-09-01T08:51:24.000Z</time>
        <extensions>
          <ns3:TrackPointExtension>
            <ns3:hr>162</ns3:hr>
            <ns3:cad>53</ns3:cad>
          </ns3:TrackPointExtension>
        </extensions>
      </trkpt>
      <trkpt lat="47.5039975158870220184326171875" lon="10.10823399759829044342041015625">
        <ele>1743</ele>
        <time>2026-09-01T08:51:27.000Z</time>
        <extensions>
          <ns3:TrackPointExtension>
            <ns3:hr>163</ns3:hr>
            <ns3:cad>68</ns3:cad>
          </ns3:TrackPointExtension>
        </extensions>
      </trkpt>
      <trkpt lat="47.50399089418351650238037109375" lon="10.10822846554219722747802734375">
        <ele>1743.4000244140625</ele>
        <time>2026-09-01T08:51:28.000Z</time>
        <extensions>
          <ns3:TrackPointExtension>
            <ns3:hr>163</ns3:hr>
            <ns3:cad>68</ns3:cad>
          </ns3:TrackPointExtension>
        </extensions>
      </trkpt>
      <trkpt lat="47.50396742485463619232177734375" lon="10.10822276584804058074951171875">
        <ele>1744.4000244140625</ele>
        <time>2026-09-01T08:51:30.000Z</time>
        <extensions>
          <ns3:TrackPointExtension>
            <ns3:hr>162</ns3:hr>
            <ns3:cad>0</ns3:cad>
          </ns3:TrackPointExtension>
        </extensions>
      </trkpt>
      <trkpt lat="47.50395501963794231414794921875" lon="10.1082091033458709716796875">
        <ele>1745.4000244140625</ele>
        <time>2026-09-01T08:51:33.000Z</time>
        <extensions>
          <ns3:TrackPointExtension>
            <ns3:hr>161</ns3:hr>
            <ns3:cad>73</ns3:cad>
          </ns3:TrackPointExtension>
        </extensions>
      </trkpt>
      <trkpt lat="47.50395786948502063751220703125" lon="10.10820549912750720977783203125">
        <ele>1745.5999755859375</ele>
        <time>2026-09-01T08:51:34.000Z</time>
        <extensions>
          <ns3:TrackPointExtension>
            <ns3:hr>161</ns3:hr>
            <ns3:cad>0</ns3:cad>
          </ns3:TrackPointExtension>
        </extensions>
      </trkpt>
      <trkpt lat="47.5039603002369403839111328125" lon="10.10818387381732463836669921875">
        <ele>1746.4000244140625</ele>
        <time>2026-09-01T08:51:36.000Z</time>
        <extensions>
          <ns3:TrackPointExtension>
            <ns3:hr>161</ns3:hr>
            <ns3:cad>0</ns3:cad>
          </ns3:TrackPointExtension>
        </extensions>
      </trkpt>
      <trkpt lat="47.50396482646465301513671875" lon="10.10815939866006374359130859375">
        <ele>1747.5999755859375</ele>
        <time>2026-09-01T08:51:38.000Z</time>
        <extensions>
          <ns3:TrackPointExtension>
            <ns3:hr>161</ns3:hr>
            <ns3:cad>0</ns3:cad>
          </ns3:TrackPointExtension>
        </extensions>
      </trkpt>
      <trkpt lat="47.5039706937968730926513671875" lon="10.10814866982400417327880859375">
        <ele>1748.4000244140625</ele>
        <time>2026-09-01T08:51:40.000Z</time>
        <extensions>
          <ns3:TrackPointExtension>
            <ns3:hr>161</ns3:hr>
            <ns3:cad>0</ns3:cad>
          </ns3:TrackPointExtension>
        </extensions>
      </trkpt>
      <trkpt lat="47.50397429801523685455322265625" lon="10.108141712844371795654296875">
        <ele>1748.800048828125</ele>
        <time>2026-09-01T08:51:41.000Z</time>
        <extensions>
          <ns3:TrackPointExtension>
            <ns3:hr>162</ns3:hr>
            <ns3:cad>0</ns3:cad>
          </ns3:TrackPointExtension>
        </extensions>
      </trkpt>
      <trkpt lat="47.50399374403059482574462890625" lon="10.10811413638293743133544921875">
        <ele>1749.800048828125</ele>
        <time>2026-09-01T08:51:45.000Z</time>
        <extensions>
          <ns3:TrackPointExtension>
            <ns3:hr>162</ns3:hr>
            <ns3:cad>0</ns3:cad>
          </ns3:TrackPointExtension>
        </extensions>
      </trkpt>
      <trkpt lat="47.5039928220212459564208984375" lon="10.1081023178994655609130859375">
        <ele>1750</ele>
        <time>2026-09-01T08:51:46.000Z</time>
        <extensions>
          <ns3:TrackPointExtension>
            <ns3:hr>163</ns3:hr>
            <ns3:cad>0</ns3:cad>
          </ns3:TrackPointExtension>
        </extensions>
      </trkpt>
      <trkpt lat="47.504016458988189697265625" lon="10.1080694608390331268310546875">
        <ele>1751</ele>
        <time>2026-09-01T08:51:49.000Z</time>
        <extensions>
          <ns3:TrackPointExtension>
            <ns3:hr>162</ns3:hr>
            <ns3:cad>0</ns3:cad>
          </ns3:TrackPointExtension>
        </extensions>
      </trkpt>
      <trkpt lat="47.50402660109102725982666015625" lon="10.1080483384430408477783203125">
        <ele>1751.4000244140625</ele>
        <time>2026-09-01T08:51:50.000Z</time>
        <extensions>
          <ns3:TrackPointExtension>
            <ns3:hr>162</ns3:hr>
            <ns3:cad>0</ns3:cad>
          </ns3:TrackPointExtension>
        </extensions>
      </trkpt>
      <trkpt lat="47.50402375124394893646240234375" lon="10.1080345921218395233154296875">
        <ele>1752.199951171875</ele>
        <time>2026-09-01T08:51:52.000Z</time>
        <extensions>
          <ns3:TrackPointExtension>
            <ns3:hr>162</ns3:hr>
            <ns3:cad>0</ns3:cad>
          </ns3:TrackPointExtension>
        </extensions>
      </trkpt>
      <trkpt lat="47.504010088741779327392578125" lon="10.10802579112350940704345703125">
        <ele>1752.800048828125</ele>
        <time>2026-09-01T08:51:54.000Z</time>
        <extensions>
          <ns3:TrackPointExtension>
            <ns3:hr>162</ns3:hr>
            <ns3:cad>0</ns3:cad>
          </ns3:TrackPointExtension>
        </extensions>
      </trkpt>
      <trkpt lat="47.50400640070438385009765625" lon="10.1080106198787689208984375">
        <ele>1753.4000244140625</ele>
        <time>2026-09-01T08:51:56.000Z</time>
        <extensions>
          <ns3:TrackPointExtension>
            <ns3:hr>162</ns3:hr>
            <ns3:cad>18</ns3:cad>
          </ns3:TrackPointExtension>
        </extensions>
      </trkpt>
      <trkpt lat="47.50400933437049388885498046875" lon="10.10798002593219280242919921875">
        <ele>1754.199951171875</ele>
        <time>2026-09-01T08:51:59.000Z</time>
        <extensions>
          <ns3:TrackPointExtension>
            <ns3:hr>161</ns3:hr>
            <ns3:cad>0</ns3:cad>
          </ns3:TrackPointExtension>
        </extensions>
      </trkpt>
      <trkpt lat="47.504009418189525604248046875" lon="10.107978768646717071533203125">
        <ele>1754.5999755859375</ele>
        <time>2026-09-01T08:52:00.000Z</time>
        <extensions>
          <ns3:TrackPointExtension>
            <ns3:hr>161</ns3:hr>
            <ns3:cad>0</ns3:cad>
          </ns3:TrackPointExtension>
        </extensions>
      </trkpt>
      <trkpt lat="47.5040340609848499298095703125" lon="10.10797784663736820220947265625">
        <ele>1755.800048828125</ele>
        <time>2026-09-01T08:52:04.000Z</time>
        <extensions>
          <ns3:TrackPointExtension>
            <ns3:hr>160</ns3:hr>
            <ns3:cad>0</ns3:cad>
          </ns3:TrackPointExtension>
        </extensions>
      </trkpt>
      <trkpt lat="47.50405476428568363189697265625" lon="10.10793124325573444366455078125">
        <ele>1757</ele>
        <time>2026-09-01T08:52:07.000Z</time>
        <extensions>
          <ns3:TrackPointExtension>
            <ns3:hr>159</ns3:hr>
            <ns3:cad>0</ns3:cad>
          </ns3:TrackPointExtension>
        </extensions>
      </trkpt>
      <trkpt lat="47.50405325554311275482177734375" lon="10.10792889632284641265869140625">
        <ele>1757.5999755859375</ele>
        <time>2026-09-01T08:52:08.000Z</time>
        <extensions>
          <ns3:TrackPointExtension>
            <ns3:hr>159</ns3:hr>
            <ns3:cad>0</ns3:cad>
          </ns3:TrackPointExtension>
        </extensions>
      </trkpt>
      <trkpt lat="47.50404437072575092315673828125" lon="10.10790802538394927978515625">
        <ele>1758.199951171875</ele>
        <time>2026-09-01T08:52:10.000Z</time>
        <extensions>
          <ns3:TrackPointExtension>
            <ns3:hr>159</ns3:hr>
            <ns3:cad>0</ns3:cad>
          </ns3:TrackPointExtension>
        </extensions>
      </trkpt>
      <trkpt lat="47.50405040569603443145751953125" lon="10.10789201594889163970947265625">
        <ele>1759</ele>
        <time>2026-09-01T08:52:12.000Z</time>
        <extensions>
          <ns3:TrackPointExtension>
            <ns3:hr>160</ns3:hr>
            <ns3:cad>0</ns3:cad>
          </ns3:TrackPointExtension>
        </extensions>
      </trkpt>
      <trkpt lat="47.50405577011406421661376953125" lon="10.10787458159029483795166015625">
        <ele>1759.4000244140625</ele>
        <time>2026-09-01T08:52:13.000Z</time>
        <extensions>
          <ns3:TrackPointExtension>
            <ns3:hr>159</ns3:hr>
            <ns3:cad>0</ns3:cad>
          </ns3:TrackPointExtension>
        </extensions>
      </trkpt>
      <trkpt lat="47.50405660830438137054443359375" lon="10.1078568957746028900146484375">
        <ele>1760.4000244140625</ele>
        <time>2026-09-01T08:52:16.000Z</time>
        <extensions>
          <ns3:TrackPointExtension>
            <ns3:hr>159</ns3:hr>
            <ns3:cad>0</ns3:cad>
          </ns3:TrackPointExtension>
        </extensions>
      </trkpt>
      <trkpt lat="47.50407605431973934173583984375" lon="10.10783099569380283355712890625">
        <ele>1761.800048828125</ele>
        <time>2026-09-01T08:52:20.000Z</time>
        <extensions>
          <ns3:TrackPointExtension>
            <ns3:hr>159</ns3:hr>
            <ns3:cad>0</ns3:cad>
          </ns3:TrackPointExtension>
        </extensions>
      </trkpt>
      <trkpt lat="47.50408527441322803497314453125" lon="10.10780853219330310821533203125">
        <ele>1763</ele>
        <time>2026-09-01T08:52:23.000Z</time>
        <extensions>
          <ns3:TrackPointExtension>
            <ns3:hr>159</ns3:hr>
            <ns3:cad>0</ns3:cad>
          </ns3:TrackPointExtension>
        </extensions>
      </trkpt>
      <trkpt lat="47.5040927343070507049560546875" lon="10.107782296836376190185546875">
        <ele>1763.5999755859375</ele>
        <time>2026-09-01T08:52:25.000Z</time>
        <extensions>
          <ns3:TrackPointExtension>
            <ns3:hr>159</ns3:hr>
            <ns3:cad>0</ns3:cad>
          </ns3:TrackPointExtension>
        </extensions>
      </trkpt>
      <trkpt lat="47.50408192165195941925048828125" lon="10.107762850821018218994140625">
        <ele>1764.4000244140625</ele>
        <time>2026-09-01T08:52:27.000Z</time>
        <extensions>
          <ns3:TrackPointExtension>
            <ns3:hr>159</ns3:hr>
            <ns3:cad>0</ns3:cad>
          </ns3:TrackPointExtension>
        </extensions>
      </trkpt>
      <trkpt lat="47.50408041290938854217529296875" lon="10.1077355258166790008544921875">
        <ele>1765.4000244140625</ele>
        <time>2026-09-01T08:52:30.000Z</time>
        <extensions>
          <ns3:TrackPointExtension>
            <ns3:hr>158</ns3:hr>
            <ns3:cad>0</ns3:cad>
          </ns3:TrackPointExtension>
        </extensions>
      </trkpt>
      <trkpt lat="47.504093907773494720458984375" lon="10.107729323208332061767578125">
        <ele>1765.800048828125</ele>
        <time>2026-09-01T08:52:31.000Z</time>
        <extensions>
          <ns3:TrackPointExtension>
            <ns3:hr>159</ns3:hr>
            <ns3:cad>0</ns3:cad>
          </ns3:TrackPointExtension>
        </extensions>
      </trkpt>
      <trkpt lat="47.50410472042858600616455078125" lon="10.1077127270400524139404296875">
        <ele>1766.5999755859375</ele>
        <time>2026-09-01T08:52:33.000Z</time>
        <extensions>
          <ns3:TrackPointExtension>
            <ns3:hr>158</ns3:hr>
            <ns3:cad>0</ns3:cad>
          </ns3:TrackPointExtension>
        </extensions>
      </trkpt>
      <trkpt lat="47.50409952364861965179443359375" lon="10.10766939260065555572509765625">
        <ele>1767.800048828125</ele>
        <time>2026-09-01T08:52:36.000Z</time>
        <extensions>
          <ns3:TrackPointExtension>
            <ns3:hr>158</ns3:hr>
            <ns3:cad>0</ns3:cad>
          </ns3:TrackPointExtension>
        </extensions>
      </trkpt>
      <trkpt lat="47.50409399159252643585205078125" lon="10.107650868594646453857421875">
        <ele>1769</ele>
        <time>2026-09-01T08:52:39.000Z</time>
        <extensions>
          <ns3:TrackPointExtension>
            <ns3:hr>159</ns3:hr>
            <ns3:cad>0</ns3:cad>
          </ns3:TrackPointExtension>
        </extensions>
      </trkpt>
      <trkpt lat="47.50409550033509731292724609375" lon="10.10761423967778682708740234375">
        <ele>1770.199951171875</ele>
        <time>2026-09-01T08:52:42.000Z</time>
        <extensions>
          <ns3:TrackPointExtension>
            <ns3:hr>159</ns3:hr>
            <ns3:cad>0</ns3:cad>
          </ns3:TrackPointExtension>
        </extensions>
      </trkpt>
      <trkpt lat="47.5040960870683193206787109375" lon="10.10761407203972339630126953125">
        <ele>1770.5999755859375</ele>
        <time>2026-09-01T08:52:43.000Z</time>
        <extensions>
          <ns3:TrackPointExtension>
            <ns3:hr>160</ns3:hr>
            <ns3:cad>0</ns3:cad>
          </ns3:TrackPointExtension>
        </extensions>
      </trkpt>
      <trkpt lat="47.50411142595112323760986328125" lon="10.10760870762169361114501953125">
        <ele>1771.4000244140625</ele>
        <time>2026-09-01T08:52:45.000Z</time>
        <extensions>
          <ns3:TrackPointExtension>
            <ns3:hr>160</ns3:hr>
            <ns3:cad>0</ns3:cad>
          </ns3:TrackPointExtension>
        </extensions>
      </trkpt>
      <trkpt lat="47.504107989370822906494140625" lon="10.10757668875157833099365234375">
        <ele>1772.4000244140625</ele>
        <time>2026-09-01T08:52:48.000Z</time>
        <extensions>
          <ns3:TrackPointExtension>
            <ns3:hr>160</ns3:hr>
            <ns3:cad>0</ns3:cad>
          </ns3:TrackPointExtension>
        </extensions>
      </trkpt>
      <trkpt lat="47.50410203821957111358642578125" lon="10.10757417418062686920166015625">
        <ele>1772.800048828125</ele>
        <time>2026-09-01T08:52:49.000Z</time>
        <extensions>
          <ns3:TrackPointExtension>
            <ns3:hr>160</ns3:hr>
            <ns3:cad>0</ns3:cad>
          </ns3:TrackPointExtension>
        </extensions>
      </trkpt>
      <trkpt lat="47.5041041336953639984130859375" lon="10.1075492799282073974609375">
        <ele>1773.800048828125</ele>
        <time>2026-09-01T08:52:52.000Z</time>
        <extensions>
          <ns3:TrackPointExtension>
            <ns3:hr>161</ns3:hr>
            <ns3:cad>0</ns3:cad>
          </ns3:TrackPointExtension>
        </extensions>
      </trkpt>
      <trkpt lat="47.50410438515245914459228515625" lon="10.10754936374723911285400390625">
        <ele>1774</ele>
        <time>2026-09-01T08:52:53.000Z</time>
        <extensions>
          <ns3:TrackPointExtension>
            <ns3:hr>160</ns3:hr>
            <ns3:cad>0</ns3:cad>
          </ns3:TrackPointExtension>
        </extensions>
      </trkpt>
      <trkpt lat="47.5041245855391025543212890625" lon="10.107534192502498626708984375">
        <ele>1775</ele>
        <time>2026-09-01T08:52:56.000Z</time>
        <extensions>
          <ns3:TrackPointExtension>
            <ns3:hr>160</ns3:hr>
            <ns3:cad>0</ns3:cad>
          </ns3:TrackPointExtension>
        </extensions>
      </trkpt>
      <trkpt lat="47.504125423729419708251953125" lon="10.1075266487896442413330078125">
        <ele>1775.4000244140625</ele>
        <time>2026-09-01T08:52:57.000Z</time>
        <extensions>
          <ns3:TrackPointExtension>
            <ns3:hr>160</ns3:hr>
            <ns3:cad>0</ns3:cad>
          </ns3:TrackPointExtension>
        </extensions>
      </trkpt>
      <trkpt lat="47.5041336379945278167724609375" lon="10.10750359855592250823974609375">
        <ele>1776</ele>
        <time>2026-09-01T08:52:59.000Z</time>
        <extensions>
          <ns3:TrackPointExtension>
            <ns3:hr>161</ns3:hr>
            <ns3:cad>0</ns3:cad>
          </ns3:TrackPointExtension>
        </extensions>
      </trkpt>
      <trkpt lat="47.50413740985095500946044921875" lon="10.1074964739382266998291015625">
        <ele>1776.800048828125</ele>
        <time>2026-09-01T08:53:01.000Z</time>
        <extensions>
          <ns3:TrackPointExtension>
            <ns3:hr>161</ns3:hr>
            <ns3:cad>0</ns3:cad>
          </ns3:TrackPointExtension>
        </extensions>
      </trkpt>
      <trkpt lat="47.504144869744777679443359375" lon="10.10747895576059818267822265625">
        <ele>1777.199951171875</ele>
        <time>2026-09-01T08:53:02.000Z</time>
        <extensions>
          <ns3:TrackPointExtension>
            <ns3:hr>161</ns3:hr>
            <ns3:cad>0</ns3:cad>
          </ns3:TrackPointExtension>
        </extensions>
      </trkpt>
      <trkpt lat="47.50415182672441005706787109375" lon="10.107447020709514617919921875">
        <ele>1778.4000244140625</ele>
        <time>2026-09-01T08:53:05.000Z</time>
        <extensions>
          <ns3:TrackPointExtension>
            <ns3:hr>160</ns3:hr>
            <ns3:cad>0</ns3:cad>
          </ns3:TrackPointExtension>
        </extensions>
      </trkpt>
      <trkpt lat="47.50414579175412654876708984375" lon="10.10743788443505764007568359375">
        <ele>1778.800048828125</ele>
        <time>2026-09-01T08:53:06.000Z</time>
        <extensions>
          <ns3:TrackPointExtension>
            <ns3:hr>161</ns3:hr>
            <ns3:cad>0</ns3:cad>
          </ns3:TrackPointExtension>
        </extensions>
      </trkpt>
      <trkpt lat="47.5041453726589679718017578125" lon="10.10741642676293849945068359375">
        <ele>1779.5999755859375</ele>
        <time>2026-09-01T08:53:08.000Z</time>
        <extensions>
          <ns3:TrackPointExtension>
            <ns3:hr>161</ns3:hr>
            <ns3:cad>0</ns3:cad>
          </ns3:TrackPointExtension>
        </extensions>
      </trkpt>
      <trkpt lat="47.5041480548679828643798828125" lon="10.1074136607348918914794921875">
        <ele>1780.199951171875</ele>
        <time>2026-09-01T08:53:10.000Z</time>
        <extensions>
          <ns3:TrackPointExtension>
            <ns3:hr>160</ns3:hr>
            <ns3:cad>0</ns3:cad>
          </ns3:TrackPointExtension>
        </extensions>
      </trkpt>
      <trkpt lat="47.504155598580837249755859375" lon="10.10740435682237148284912109375">
        <ele>1780.5999755859375</ele>
        <time>2026-09-01T08:53:11.000Z</time>
        <extensions>
          <ns3:TrackPointExtension>
            <ns3:hr>161</ns3:hr>
            <ns3:cad>0</ns3:cad>
          </ns3:TrackPointExtension>
        </extensions>
      </trkpt>
      <trkpt lat="47.5041607953608036041259765625" lon="10.10738910175859928131103515625">
        <ele>1781.4000244140625</ele>
        <time>2026-09-01T08:53:14.000Z</time>
        <extensions>
          <ns3:TrackPointExtension>
            <ns3:hr>161</ns3:hr>
            <ns3:cad>0</ns3:cad>
          </ns3:TrackPointExtension>
        </extensions>
      </trkpt>
      <trkpt lat="47.5041599571704864501953125" lon="10.10737133212387561798095703125">
        <ele>1781.800048828125</ele>
        <time>2026-09-01T08:53:15.000Z</time>
        <extensions>
          <ns3:TrackPointExtension>
            <ns3:hr>161</ns3:hr>
            <ns3:cad>0</ns3:cad>
          </ns3:TrackPointExtension>
        </extensions>
      </trkpt>
      <trkpt lat="47.50416934490203857421875" lon="10.1073288358747959136962890625">
        <ele>1783</ele>
        <time>2026-09-01T08:53:19.000Z</time>
        <extensions>
          <ns3:TrackPointExtension>
            <ns3:hr>161</ns3:hr>
            <ns3:cad>0</ns3:cad>
          </ns3:TrackPointExtension>
        </extensions>
      </trkpt>
      <trkpt lat="47.50418133102357387542724609375" lon="10.1073231361806392669677734375">
        <ele>1783.4000244140625</ele>
        <time>2026-09-01T08:53:20.000Z</time>
        <extensions>
          <ns3:TrackPointExtension>
            <ns3:hr>160</ns3:hr>
            <ns3:cad>0</ns3:cad>
          </ns3:TrackPointExtension>
        </extensions>
      </trkpt>
      <trkpt lat="47.504191808402538299560546875" lon="10.10730192996561527252197265625">
        <ele>1784</ele>
        <time>2026-09-01T08:53:22.000Z</time>
        <extensions>
          <ns3:TrackPointExtension>
            <ns3:hr>160</ns3:hr>
            <ns3:cad>0</ns3:cad>
          </ns3:TrackPointExtension>
        </extensions>
      </trkpt>
      <trkpt lat="47.50419306568801403045654296875" lon="10.10727728717029094696044921875">
        <ele>1784.800048828125</ele>
        <time>2026-09-01T08:53:24.000Z</time>
        <extensions>
          <ns3:TrackPointExtension>
            <ns3:hr>161</ns3:hr>
            <ns3:cad>0</ns3:cad>
          </ns3:TrackPointExtension>
        </extensions>
      </trkpt>
      <trkpt lat="47.50419457443058490753173828125" lon="10.107249878346920013427734375">
        <ele>1785.4000244140625</ele>
        <time>2026-09-01T08:53:26.000Z</time>
        <extensions>
          <ns3:TrackPointExtension>
            <ns3:hr>160</ns3:hr>
            <ns3:cad>0</ns3:cad>
          </ns3:TrackPointExtension>
        </extensions>
      </trkpt>
      <trkpt lat="47.5041956640779972076416015625" lon="10.10724945925176143646240234375">
        <ele>1785.800048828125</ele>
        <time>2026-09-01T08:53:27.000Z</time>
        <extensions>
          <ns3:TrackPointExtension>
            <ns3:hr>160</ns3:hr>
            <ns3:cad>0</ns3:cad>
          </ns3:TrackPointExtension>
        </extensions>
      </trkpt>
      <trkpt lat="47.5042006932199001312255859375" lon="10.107236467301845550537109375">
        <ele>1786.199951171875</ele>
        <time>2026-09-01T08:53:28.000Z</time>
        <extensions>
          <ns3:TrackPointExtension>
            <ns3:hr>160</ns3:hr>
            <ns3:cad>0</ns3:cad>
          </ns3:TrackPointExtension>
        </extensions>
      </trkpt>
      <trkpt lat="47.50420379452407360076904296875" lon="10.107225067913532257080078125">
        <ele>1786.5999755859375</ele>
        <time>2026-09-01T08:53:29.000Z</time>
        <extensions>
          <ns3:TrackPointExtension>
            <ns3:hr>160</ns3:hr>
            <ns3:cad>0</ns3:cad>
          </ns3:TrackPointExtension>
        </extensions>
      </trkpt>
      <trkpt lat="47.5042201392352581024169921875" lon="10.1071896962821483612060546875">
        <ele>1787.800048828125</ele>
        <time>2026-09-01T08:53:32.000Z</time>
        <extensions>
          <ns3:TrackPointExtension>
            <ns3:hr>161</ns3:hr>
            <ns3:cad>58</ns3:cad>
          </ns3:TrackPointExtension>
        </extensions>
      </trkpt>
      <trkpt lat="47.5042261742055416107177734375" lon="10.1071719266474246978759765625">
        <ele>1788</ele>
        <time>2026-09-01T08:53:33.000Z</time>
        <extensions>
          <ns3:TrackPointExtension>
            <ns3:hr>160</ns3:hr>
            <ns3:cad>58</ns3:cad>
          </ns3:TrackPointExtension>
        </extensions>
      </trkpt>
      <trkpt lat="47.50424335710704326629638671875" lon="10.10711216367781162261962890625">
        <ele>1789</ele>
        <time>2026-09-01T08:53:37.000Z</time>
        <extensions>
          <ns3:TrackPointExtension>
            <ns3:hr>161</ns3:hr>
            <ns3:cad>0</ns3:cad>
          </ns3:TrackPointExtension>
        </extensions>
      </trkpt>
      <trkpt lat="47.50424469821155071258544921875" lon="10.10710227303206920623779296875">
        <ele>1789.199951171875</ele>
        <time>2026-09-01T08:53:38.000Z</time>
        <extensions>
          <ns3:TrackPointExtension>
            <ns3:hr>161</ns3:hr>
            <ns3:cad>0</ns3:cad>
          </ns3:TrackPointExtension>
        </extensions>
      </trkpt>
      <trkpt lat="47.50424587167799472808837890625" lon="10.10707712732255458831787109375">
        <ele>1790.199951171875</ele>
        <time>2026-09-01T08:53:41.000Z</time>
        <extensions>
          <ns3:TrackPointExtension>
            <ns3:hr>161</ns3:hr>
            <ns3:cad>0</ns3:cad>
          </ns3:TrackPointExtension>
        </extensions>
      </trkpt>
      <trkpt lat="47.50425928272306919097900390625" lon="10.10706589557230472564697265625">
        <ele>1790.5999755859375</ele>
        <time>2026-09-01T08:53:42.000Z</time>
        <extensions>
          <ns3:TrackPointExtension>
            <ns3:hr>161</ns3:hr>
            <ns3:cad>0</ns3:cad>
          </ns3:TrackPointExtension>
        </extensions>
      </trkpt>
      <trkpt lat="47.504254840314388275146484375" lon="10.1070257462561130523681640625">
        <ele>1791.5999755859375</ele>
        <time>2026-09-01T08:53:45.000Z</time>
        <extensions>
          <ns3:TrackPointExtension>
            <ns3:hr>161</ns3:hr>
            <ns3:cad>0</ns3:cad>
          </ns3:TrackPointExtension>
        </extensions>
      </trkpt>
      <trkpt lat="47.50425316393375396728515625" lon="10.10701392777264118194580078125">
        <ele>1792</ele>
        <time>2026-09-01T08:53:46.000Z</time>
        <extensions>
          <ns3:TrackPointExtension>
            <ns3:hr>161</ns3:hr>
            <ns3:cad>0</ns3:cad>
          </ns3:TrackPointExtension>
        </extensions>
      </trkpt>
      <trkpt lat="47.50425425358116626739501953125" lon="10.1069940626621246337890625">
        <ele>1792.5999755859375</ele>
        <time>2026-09-01T08:53:48.000Z</time>
        <extensions>
          <ns3:TrackPointExtension>
            <ns3:hr>161</ns3:hr>
            <ns3:cad>0</ns3:cad>
          </ns3:TrackPointExtension>
        </extensions>
      </trkpt>
      <trkpt lat="47.5042496435344219207763671875" lon="10.10697327554225921630859375">
        <ele>1793.4000244140625</ele>
        <time>2026-09-01T08:53:50.000Z</time>
        <extensions>
          <ns3:TrackPointExtension>
            <ns3:hr>161</ns3:hr>
            <ns3:cad>0</ns3:cad>
          </ns3:TrackPointExtension>
        </extensions>
      </trkpt>
      <trkpt lat="47.50424603931605815887451171875" lon="10.10696564801037311553955078125">
        <ele>1793.800048828125</ele>
        <time>2026-09-01T08:53:51.000Z</time>
        <extensions>
          <ns3:TrackPointExtension>
            <ns3:hr>161</ns3:hr>
            <ns3:cad>0</ns3:cad>
          </ns3:TrackPointExtension>
        </extensions>
      </trkpt>
      <trkpt lat="47.50423933379352092742919921875" lon="10.106915943324565887451171875">
        <ele>1795</ele>
        <time>2026-09-01T08:53:54.000Z</time>
        <extensions>
          <ns3:TrackPointExtension>
            <ns3:hr>161</ns3:hr>
            <ns3:cad>0</ns3:cad>
          </ns3:TrackPointExtension>
        </extensions>
      </trkpt>
      <trkpt lat="47.504257857799530029296875" lon="10.1068902947008609771728515625">
        <ele>1796.4000244140625</ele>
        <time>2026-09-01T08:53:58.000Z</time>
        <extensions>
          <ns3:TrackPointExtension>
            <ns3:hr>161</ns3:hr>
            <ns3:cad>0</ns3:cad>
          </ns3:TrackPointExtension>
        </extensions>
      </trkpt>
      <trkpt lat="47.50426255166530609130859375" lon="10.10688819922506809234619140625">
        <ele>1796.800048828125</ele>
        <time>2026-09-01T08:53:59.000Z</time>
        <extensions>
          <ns3:TrackPointExtension>
            <ns3:hr>161</ns3:hr>
            <ns3:cad>0</ns3:cad>
          </ns3:TrackPointExtension>
        </extensions>
      </trkpt>
      <trkpt lat="47.504281662404537200927734375" lon="10.106875710189342498779296875">
        <ele>1797.4000244140625</ele>
        <time>2026-09-01T08:54:01.000Z</time>
        <extensions>
          <ns3:TrackPointExtension>
            <ns3:hr>161</ns3:hr>
            <ns3:cad>0</ns3:cad>
          </ns3:TrackPointExtension>
        </extensions>
      </trkpt>
      <trkpt lat="47.50431208871304988861083984375" lon="10.106866322457790374755859375">
        <ele>1797.5999755859375</ele>
        <time>2026-09-01T08:54:04.000Z</time>
        <extensions>
          <ns3:TrackPointExtension>
            <ns3:hr>162</ns3:hr>
            <ns3:cad>0</ns3:cad>
          </ns3:TrackPointExtension>
        </extensions>
      </trkpt>
      <trkpt lat="47.50434611923992633819580078125" lon="10.1068946532905101776123046875">
        <ele>1798.5999755859375</ele>
        <time>2026-09-01T08:54:08.000Z</time>
        <extensions>
          <ns3:TrackPointExtension>
            <ns3:hr>161</ns3:hr>
            <ns3:cad>56</ns3:cad>
          </ns3:TrackPointExtension>
        </extensions>
      </trkpt>
      <trkpt lat="47.50437914393842220306396484375" lon="10.10695257224142551422119140625">
        <ele>1799.800048828125</ele>
        <time>2026-09-01T08:54:12.000Z</time>
        <extensions>
          <ns3:TrackPointExtension>
            <ns3:hr>160</ns3:hr>
            <ns3:cad>50</ns3:cad>
          </ns3:TrackPointExtension>
        </extensions>
      </trkpt>
      <trkpt lat="47.50439909286797046661376953125" lon="10.1069493032991886138916015625">
        <ele>1800.800048828125</ele>
        <time>2026-09-01T08:54:16.000Z</time>
        <extensions>
          <ns3:TrackPointExtension>
            <ns3:hr>159</ns3:hr>
            <ns3:cad>0</ns3:cad>
          </ns3:TrackPointExtension>
        </extensions>
      </trkpt>
      <trkpt lat="47.50440537929534912109375" lon="10.1069462858140468597412109375">
        <ele>1801</ele>
        <time>2026-09-01T08:54:17.000Z</time>
        <extensions>
          <ns3:TrackPointExtension>
            <ns3:hr>160</ns3:hr>
            <ns3:cad>0</ns3:cad>
          </ns3:TrackPointExtension>
        </extensions>
      </trkpt>
      <trkpt lat="47.5044226460158824920654296875" lon="10.10697151534259319305419921875">
        <ele>1802</ele>
        <time>2026-09-01T08:54:20.000Z</time>
        <extensions>
          <ns3:TrackPointExtension>
            <ns3:hr>160</ns3:hr>
            <ns3:cad>0</ns3:cad>
          </ns3:TrackPointExtension>
        </extensions>
      </trkpt>
      <trkpt lat="47.50443211756646633148193359375" lon="10.1069982536137104034423828125">
        <ele>1802.5999755859375</ele>
        <time>2026-09-01T08:54:22.000Z</time>
        <extensions>
          <ns3:TrackPointExtension>
            <ns3:hr>160</ns3:hr>
            <ns3:cad>0</ns3:cad>
          </ns3:TrackPointExtension>
        </extensions>
      </trkpt>
      <trkpt lat="47.5044397450983524322509765625" lon="10.1070146821439266204833984375">
        <ele>1803</ele>
        <time>2026-09-01T08:54:23.000Z</time>
        <extensions>
          <ns3:TrackPointExtension>
            <ns3:hr>160</ns3:hr>
            <ns3:cad>0</ns3:cad>
          </ns3:TrackPointExtension>
        </extensions>
      </trkpt>
      <trkpt lat="47.5044643878936767578125" lon="10.107027254998683929443359375">
        <ele>1803.800048828125</ele>
        <time>2026-09-01T08:54:26.000Z</time>
        <extensions>
          <ns3:TrackPointExtension>
            <ns3:hr>160</ns3:hr>
            <ns3:cad>0</ns3:cad>
          </ns3:TrackPointExtension>
        </extensions>
      </trkpt>
      <trkpt lat="47.5044726021587848663330078125" lon="10.10704033076763153076171875">
        <ele>1804.199951171875</ele>
        <time>2026-09-01T08:54:27.000Z</time>
        <extensions>
          <ns3:TrackPointExtension>
            <ns3:hr>160</ns3:hr>
            <ns3:cad>0</ns3:cad>
          </ns3:TrackPointExtension>
        </extensions>
      </trkpt>
      <trkpt lat="47.5045031122863292694091796875" lon="10.107064135372638702392578125">
        <ele>1805</ele>
        <time>2026-09-01T08:54:30.000Z</time>
        <extensions>
          <ns3:TrackPointExtension>
            <ns3:hr>160</ns3:hr>
            <ns3:cad>0</ns3:cad>
          </ns3:TrackPointExtension>
        </extensions>
      </trkpt>
      <trkpt lat="47.5045059621334075927734375" lon="10.10705751366913318634033203125">
        <ele>1805.4000244140625</ele>
        <time>2026-09-01T08:54:31.000Z</time>
        <extensions>
          <ns3:TrackPointExtension>
            <ns3:hr>160</ns3:hr>
            <ns3:cad>0</ns3:cad>
          </ns3:TrackPointExtension>
        </extensions>
      </trkpt>
      <trkpt lat="47.504506297409534454345703125" lon="10.1070572622120380401611328125">
        <ele>1805.800048828125</ele>
        <time>2026-09-01T08:54:32.000Z</time>
        <extensions>
          <ns3:TrackPointExtension>
            <ns3:hr>159</ns3:hr>
            <ns3:cad>0</ns3:cad>
          </ns3:TrackPointExtension>
        </extensions>
      </trkpt>
      <trkpt lat="47.50452540814876556396484375" lon="10.1070477068424224853515625">
        <ele>1806.5999755859375</ele>
        <time>2026-09-01T08:54:34.000Z</time>
        <extensions>
          <ns3:TrackPointExtension>
            <ns3:hr>159</ns3:hr>
            <ns3:cad>0</ns3:cad>
          </ns3:TrackPointExtension>
        </extensions>
      </trkpt>
      <trkpt lat="47.50455181114375591278076171875" lon="10.107052065432071685791015625">
        <ele>1807.800048828125</ele>
        <time>2026-09-01T08:54:37.000Z</time>
        <extensions>
          <ns3:TrackPointExtension>
            <ns3:hr>159</ns3:hr>
            <ns3:cad>0</ns3:cad>
          </ns3:TrackPointExtension>
        </extensions>
      </trkpt>
      <trkpt lat="47.5045622885227203369140625" lon="10.10706757195293903350830078125">
        <ele>1808.4000244140625</ele>
        <time>2026-09-01T08:54:38.000Z</time>
        <extensions>
          <ns3:TrackPointExtension>
            <ns3:hr>160</ns3:hr>
            <ns3:cad>0</ns3:cad>
          </ns3:TrackPointExtension>
        </extensions>
      </trkpt>
      <trkpt lat="47.50456907786428928375244140625" lon="10.10707494802772998809814453125">
        <ele>1808.800048828125</ele>
        <time>2026-09-01T08:54:39.000Z</time>
        <extensions>
          <ns3:TrackPointExtension>
            <ns3:hr>160</ns3:hr>
            <ns3:cad>0</ns3:cad>
          </ns3:TrackPointExtension>
        </extensions>
      </trkpt>
      <trkpt lat="47.5045996718108654022216796875" lon="10.1071099005639553070068359375">
        <ele>1809.800048828125</ele>
        <time>2026-09-01T08:54:43.000Z</time>
        <extensions>
          <ns3:TrackPointExtension>
            <ns3:hr>161</ns3:hr>
            <ns3:cad>0</ns3:cad>
          </ns3:TrackPointExtension>
        </extensions>
      </trkpt>
      <trkpt lat="47.5046077184379100799560546875" lon="10.10712758637964725494384765625">
        <ele>1810.199951171875</ele>
        <time>2026-09-01T08:54:44.000Z</time>
        <extensions>
          <ns3:TrackPointExtension>
            <ns3:hr>161</ns3:hr>
            <ns3:cad>48</ns3:cad>
          </ns3:TrackPointExtension>
        </extensions>
      </trkpt>
      <trkpt lat="47.50462205149233341217041015625" lon="10.10715994052588939666748046875">
        <ele>1811</ele>
        <time>2026-09-01T08:54:47.000Z</time>
        <extensions>
          <ns3:TrackPointExtension>
            <ns3:hr>160</ns3:hr>
            <ns3:cad>48</ns3:cad>
          </ns3:TrackPointExtension>
        </extensions>
      </trkpt>
      <trkpt lat="47.50462976284325122833251953125" lon="10.1071779616177082061767578125">
        <ele>1811.199951171875</ele>
        <time>2026-09-01T08:54:48.000Z</time>
        <extensions>
          <ns3:TrackPointExtension>
            <ns3:hr>160</ns3:hr>
            <ns3:cad>48</ns3:cad>
          </ns3:TrackPointExtension>
        </extensions>
      </trkpt>
      <trkpt lat="47.50464635901153087615966796875" lon="10.10723873041570186614990234375">
        <ele>1812.4000244140625</ele>
        <time>2026-09-01T08:54:52.000Z</time>
        <extensions>
          <ns3:TrackPointExtension>
            <ns3:hr>160</ns3:hr>
            <ns3:cad>48</ns3:cad>
          </ns3:TrackPointExtension>
        </extensions>
      </trkpt>
      <trkpt lat="47.504657842218875885009765625" lon="10.1072658039629459381103515625">
        <ele>1813</ele>
        <time>2026-09-01T08:54:54.000Z</time>
        <extensions>
          <ns3:TrackPointExtension>
            <ns3:hr>161</ns3:hr>
            <ns3:cad>0</ns3:cad>
          </ns3:TrackPointExtension>
        </extensions>
      </trkpt>
      <trkpt lat="47.50467519275844097137451171875" lon="10.1073006726801395416259765625">
        <ele>1813.4000244140625</ele>
        <time>2026-09-01T08:54:56.000Z</time>
        <extensions>
          <ns3:TrackPointExtension>
            <ns3:hr>161</ns3:hr>
            <ns3:cad>0</ns3:cad>
          </ns3:TrackPointExtension>
        </extensions>
      </trkpt>
      <trkpt lat="47.5046932138502597808837890625" lon="10.10732866823673248291015625">
        <ele>1813.800048828125</ele>
        <time>2026-09-01T08:54:58.000Z</time>
        <extensions>
          <ns3:TrackPointExtension>
            <ns3:hr>161</ns3:hr>
            <ns3:cad>51</ns3:cad>
          </ns3:TrackPointExtension>
        </extensions>
      </trkpt>
      <trkpt lat="47.5047974847257137298583984375" lon="10.10753980837762355804443359375">
        <ele>1813.800048828125</ele>
        <time>2026-09-01T08:55:05.000Z</time>
        <extensions>
          <ns3:TrackPointExtension>
            <ns3:hr>162</ns3:hr>
            <ns3:cad>86</ns3:cad>
          </ns3:TrackPointExtension>
        </extensions>
      </trkpt>
      <trkpt lat="47.50486361794173717498779296875" lon="10.10763318277895450592041015625">
        <ele>1814.4000244140625</ele>
        <time>2026-09-01T08:55:10.000Z</time>
        <extensions>
          <ns3:TrackPointExtension>
            <ns3:hr>163</ns3:hr>
            <ns3:cad>91</ns3:cad>
          </ns3:TrackPointExtension>
        </extensions>
      </trkpt>
      <trkpt lat="47.5048735924065113067626953125" lon="10.10763636790215969085693359375">
        <ele>1814.800048828125</ele>
        <time>2026-09-01T08:55:11.000Z</time>
        <extensions>
          <ns3:TrackPointExtension>
            <ns3:hr>163</ns3:hr>
            <ns3:cad>91</ns3:cad>
          </ns3:TrackPointExtension>
        </extensions>
      </trkpt>
      <trkpt lat="47.50489479862153530120849609375" lon="10.10766394436359405517578125">
        <ele>1815.800048828125</ele>
        <time>2026-09-01T08:55:14.000Z</time>
        <extensions>
          <ns3:TrackPointExtension>
            <ns3:hr>162</ns3:hr>
            <ns3:cad>0</ns3:cad>
          </ns3:TrackPointExtension>
        </extensions>
      </trkpt>
      <trkpt lat="47.5049081258475780487060546875" lon="10.10768473148345947265625">
        <ele>1816</ele>
        <time>2026-09-01T08:55:15.000Z</time>
        <extensions>
          <ns3:TrackPointExtension>
            <ns3:hr>162</ns3:hr>
            <ns3:cad>0</ns3:cad>
          </ns3:TrackPointExtension>
        </extensions>
      </trkpt>
      <trkpt lat="47.504939138889312744140625" lon="10.1077392138540744781494140625">
        <ele>1817</ele>
        <time>2026-09-01T08:55:19.000Z</time>
        <extensions>
          <ns3:TrackPointExtension>
            <ns3:hr>162</ns3:hr>
            <ns3:cad>0</ns3:cad>
          </ns3:TrackPointExtension>
        </extensions>
      </trkpt>
      <trkpt lat="47.50493042171001434326171875" lon="10.10771515779197216033935546875">
        <ele>1817</ele>
        <time>2026-09-01T08:55:20.000Z</time>
        <extensions>
          <ns3:TrackPointExtension>
            <ns3:hr>163</ns3:hr>
            <ns3:cad>0</ns3:cad>
          </ns3:TrackPointExtension>
        </extensions>
      </trkpt>
      <trkpt lat="47.5048883445560932159423828125" lon="10.1076218672096729278564453125">
        <ele>1815.5999755859375</ele>
        <time>2026-09-01T08:55:24.000Z</time>
        <extensions>
          <ns3:TrackPointExtension>
            <ns3:hr>162</ns3:hr>
            <ns3:cad>61</ns3:cad>
          </ns3:TrackPointExtension>
        </extensions>
      </trkpt>
      <trkpt lat="47.50487409532070159912109375" lon="10.10760359466075897216796875">
        <ele>1815</ele>
        <time>2026-09-01T08:55:25.000Z</time>
        <extensions>
          <ns3:TrackPointExtension>
            <ns3:hr>162</ns3:hr>
            <ns3:cad>61</ns3:cad>
          </ns3:TrackPointExtension>
        </extensions>
      </trkpt>
      <trkpt lat="47.50485909171402454376220703125" lon="10.10758423246443271636962890625">
        <ele>1814.4000244140625</ele>
        <time>2026-09-01T08:55:26.000Z</time>
        <extensions>
          <ns3:TrackPointExtension>
            <ns3:hr>163</ns3:hr>
            <ns3:cad>61</ns3:cad>
          </ns3:TrackPointExtension>
        </extensions>
      </trkpt>
      <trkpt lat="47.50479103066027164459228515625" lon="10.10746453888714313507080078125">
        <ele>1812.4000244140625</ele>
        <time>2026-09-01T08:55:29.000Z</time>
        <extensions>
          <ns3:TrackPointExtension>
            <ns3:hr>163</ns3:hr>
            <ns3:cad>61</ns3:cad>
          </ns3:TrackPointExtension>
        </extensions>
      </trkpt>
      <trkpt lat="47.50477778725326061248779296875" lon="10.10742749087512493133544921875">
        <ele>1811.800048828125</ele>
        <time>2026-09-01T08:55:30.000Z</time>
        <extensions>
          <ns3:TrackPointExtension>
            <ns3:hr>163</ns3:hr>
            <ns3:cad>88</ns3:cad>
          </ns3:TrackPointExtension>
        </extensions>
      </trkpt>
      <trkpt lat="47.50476404093205928802490234375" lon="10.10739396326243877410888671875">
        <ele>1811.4000244140625</ele>
        <time>2026-09-01T08:55:31.000Z</time>
        <extensions>
          <ns3:TrackPointExtension>
            <ns3:hr>162</ns3:hr>
            <ns3:cad>88</ns3:cad>
          </ns3:TrackPointExtension>
        </extensions>
      </trkpt>
      <trkpt lat="47.50470067374408245086669921875" lon="10.10728499852120876312255859375">
        <ele>1811.5999755859375</ele>
        <time>2026-09-01T08:55:35.000Z</time>
        <extensions>
          <ns3:TrackPointExtension>
            <ns3:hr>161</ns3:hr>
            <ns3:cad>88</ns3:cad>
          </ns3:TrackPointExtension>
        </extensions>
      </trkpt>
      <trkpt lat="47.5046529807150363922119140625" lon="10.1071823202073574066162109375">
        <ele>1811</ele>
        <time>2026-09-01T08:55:39.000Z</time>
        <extensions>
          <ns3:TrackPointExtension>
            <ns3:hr>161</ns3:hr>
            <ns3:cad>83</ns3:cad>
          </ns3:TrackPointExtension>
        </extensions>
      </trkpt>
      <trkpt lat="47.50461836345493793487548828125" lon="10.10713077150285243988037109375">
        <ele>1809.800048828125</ele>
        <time>2026-09-01T08:55:41.000Z</time>
        <extensions>
          <ns3:TrackPointExtension>
            <ns3:hr>161</ns3:hr>
            <ns3:cad>83</ns3:cad>
          </ns3:TrackPointExtension>
        </extensions>
      </trkpt>
      <trkpt lat="47.5045782141387462615966796875" lon="10.107065476477146148681640625">
        <ele>1807.800048828125</ele>
        <time>2026-09-01T08:55:43.000Z</time>
        <extensions>
          <ns3:TrackPointExtension>
            <ns3:hr>161</ns3:hr>
            <ns3:cad>83</ns3:cad>
          </ns3:TrackPointExtension>
        </extensions>
      </trkpt>
      <trkpt lat="47.5045413337647914886474609375" lon="10.107012502849102020263671875">
        <ele>1806</ele>
        <time>2026-09-01T08:55:45.000Z</time>
        <extensions>
          <ns3:TrackPointExtension>
            <ns3:hr>160</ns3:hr>
            <ns3:cad>91</ns3:cad>
          </ns3:TrackPointExtension>
        </extensions>
      </trkpt>
      <trkpt lat="47.50450269319117069244384765625" lon="10.10697570629417896270751953125">
        <ele>1804.4000244140625</ele>
        <time>2026-09-01T08:55:47.000Z</time>
        <extensions>
          <ns3:TrackPointExtension>
            <ns3:hr>160</ns3:hr>
            <ns3:cad>100</ns3:cad>
          </ns3:TrackPointExtension>
        </extensions>
      </trkpt>
      <trkpt lat="47.50447905622422695159912109375" lon="10.10693564079701900482177734375">
        <ele>1803.199951171875</ele>
        <time>2026-09-01T08:55:49.000Z</time>
        <extensions>
          <ns3:TrackPointExtension>
            <ns3:hr>160</ns3:hr>
            <ns3:cad>92</ns3:cad>
          </ns3:TrackPointExtension>
        </extensions>
      </trkpt>
      <trkpt lat="47.5044471211731433868408203125" lon="10.106897838413715362548828125">
        <ele>1801.5999755859375</ele>
        <time>2026-09-01T08:55:51.000Z</time>
        <extensions>
          <ns3:TrackPointExtension>
            <ns3:hr>160</ns3:hr>
            <ns3:cad>92</ns3:cad>
          </ns3:TrackPointExtension>
        </extensions>
      </trkpt>
      <trkpt lat="47.50440579839050769805908203125" lon="10.10687001049518585205078125">
        <ele>1799.5999755859375</ele>
        <time>2026-09-01T08:55:53.000Z</time>
        <extensions>
          <ns3:TrackPointExtension>
            <ns3:hr>159</ns3:hr>
            <ns3:cad>92</ns3:cad>
          </ns3:TrackPointExtension>
        </extensions>
      </trkpt>
      <trkpt lat="47.50436522997915744781494140625" lon="10.1068587787449359893798828125">
        <ele>1798</ele>
        <time>2026-09-01T08:55:55.000Z</time>
        <extensions>
          <ns3:TrackPointExtension>
            <ns3:hr>159</ns3:hr>
            <ns3:cad>92</ns3:cad>
          </ns3:TrackPointExtension>
        </extensions>
      </trkpt>
      <trkpt lat="47.504327259957790374755859375" lon="10.10684964247047901153564453125">
        <ele>1797</ele>
        <time>2026-09-01T08:55:56.000Z</time>
        <extensions>
          <ns3:TrackPointExtension>
            <ns3:hr>159</ns3:hr>
            <ns3:cad>92</ns3:cad>
          </ns3:TrackPointExtension>
        </extensions>
      </trkpt>
      <trkpt lat="47.5042915530502796173095703125" lon="10.1068527437746524810791015625">
        <ele>1795.800048828125</ele>
        <time>2026-09-01T08:55:57.000Z</time>
        <extensions>
          <ns3:TrackPointExtension>
            <ns3:hr>158</ns3:hr>
            <ns3:cad>92</ns3:cad>
          </ns3:TrackPointExtension>
        </extensions>
      </trkpt>
      <trkpt lat="47.5042499788105487823486328125" lon="10.10685861110687255859375">
        <ele>1794.5999755859375</ele>
        <time>2026-09-01T08:55:58.000Z</time>
        <extensions>
          <ns3:TrackPointExtension>
            <ns3:hr>158</ns3:hr>
            <ns3:cad>92</ns3:cad>
          </ns3:TrackPointExtension>
        </extensions>
      </trkpt>
      <trkpt lat="47.5041902996599674224853515625" lon="10.1068259216845035552978515625">
        <ele>1792.800048828125</ele>
        <time>2026-09-01T08:56:00.000Z</time>
        <extensions>
          <ns3:TrackPointExtension>
            <ns3:hr>159</ns3:hr>
            <ns3:cad>92</ns3:cad>
          </ns3:TrackPointExtension>
        </extensions>
      </trkpt>
      <trkpt lat="47.50412768684327602386474609375" lon="10.10677990503609180450439453125">
        <ele>1791.199951171875</ele>
        <time>2026-09-01T08:56:02.000Z</time>
        <extensions>
          <ns3:TrackPointExtension>
            <ns3:hr>159</ns3:hr>
            <ns3:cad>92</ns3:cad>
          </ns3:TrackPointExtension>
        </extensions>
      </trkpt>
      <trkpt lat="47.50406247563660144805908203125" lon="10.106740929186344146728515625">
        <ele>1790.800048828125</ele>
        <time>2026-09-01T08:56:04.000Z</time>
        <extensions>
          <ns3:TrackPointExtension>
            <ns3:hr>159</ns3:hr>
            <ns3:cad>92</ns3:cad>
          </ns3:TrackPointExtension>
        </extensions>
      </trkpt>
      <trkpt lat="47.50398385338485240936279296875" lon="10.10672525502741336822509765625">
        <ele>1791.199951171875</ele>
        <time>2026-09-01T08:56:07.000Z</time>
        <extensions>
          <ns3:TrackPointExtension>
            <ns3:hr>158</ns3:hr>
            <ns3:cad>87</ns3:cad>
          </ns3:TrackPointExtension>
        </extensions>
      </trkpt>
      <trkpt lat="47.50396088697016239166259765625" lon="10.10672357864677906036376953125">
        <ele>1791.5999755859375</ele>
        <time>2026-09-01T08:56:08.000Z</time>
        <extensions>
          <ns3:TrackPointExtension>
            <ns3:hr>157</ns3:hr>
            <ns3:cad>87</ns3:cad>
          </ns3:TrackPointExtension>
        </extensions>
      </trkpt>
      <trkpt lat="47.50384085811674594879150390625" lon="10.1066847704350948333740234375">
        <ele>1792.4000244140625</ele>
        <time>2026-09-01T08:56:12.000Z</time>
        <extensions>
          <ns3:TrackPointExtension>
            <ns3:hr>158</ns3:hr>
            <ns3:cad>87</ns3:cad>
          </ns3:TrackPointExtension>
        </extensions>
      </trkpt>
      <trkpt lat="47.50373122282326221466064453125" lon="10.10664629749953746795654296875">
        <ele>1792.4000244140625</ele>
        <time>2026-09-01T08:56:16.000Z</time>
        <extensions>
          <ns3:TrackPointExtension>
            <ns3:hr>160</ns3:hr>
            <ns3:cad>86</ns3:cad>
          </ns3:TrackPointExtension>
        </extensions>
      </trkpt>
      <trkpt lat="47.50365109182894229888916015625" lon="10.1066311262547969818115234375">
        <ele>1792</ele>
        <time>2026-09-01T08:56:19.000Z</time>
        <extensions>
          <ns3:TrackPointExtension>
            <ns3:hr>159</ns3:hr>
            <ns3:cad>82</ns3:cad>
          </ns3:TrackPointExtension>
        </extensions>
      </trkpt>
      <trkpt lat="47.50362879596650600433349609375" lon="10.1066056452691555023193359375">
        <ele>1791.4000244140625</ele>
        <time>2026-09-01T08:56:21.000Z</time>
        <extensions>
          <ns3:TrackPointExtension>
            <ns3:hr>158</ns3:hr>
            <ns3:cad>82</ns3:cad>
          </ns3:TrackPointExtension>
        </extensions>
      </trkpt>
      <trkpt lat="47.50361957587301731109619140625" lon="10.10658343322575092315673828125">
        <ele>1790.800048828125</ele>
        <time>2026-09-01T08:56:22.000Z</time>
        <extensions>
          <ns3:TrackPointExtension>
            <ns3:hr>158</ns3:hr>
            <ns3:cad>82</ns3:cad>
          </ns3:TrackPointExtension>
        </extensions>
      </trkpt>
      <trkpt lat="47.50360230915248394012451171875" lon="10.10658024810254573822021484375">
        <ele>1790</ele>
        <time>2026-09-01T08:56:23.000Z</time>
        <extensions>
          <ns3:TrackPointExtension>
            <ns3:hr>157</ns3:hr>
            <ns3:cad>82</ns3:cad>
          </ns3:TrackPointExtension>
        </extensions>
      </trkpt>
      <trkpt lat="47.5035901553928852081298828125" lon="10.10656164027750492095947265625">
        <ele>1789.199951171875</ele>
        <time>2026-09-01T08:56:24.000Z</time>
        <extensions>
          <ns3:TrackPointExtension>
            <ns3:hr>157</ns3:hr>
            <ns3:cad>82</ns3:cad>
          </ns3:TrackPointExtension>
        </extensions>
      </trkpt>
      <trkpt lat="47.50357649289071559906005859375" lon="10.10653498582541942596435546875">
        <ele>1788.5999755859375</ele>
        <time>2026-09-01T08:56:25.000Z</time>
        <extensions>
          <ns3:TrackPointExtension>
            <ns3:hr>157</ns3:hr>
            <ns3:cad>82</ns3:cad>
          </ns3:TrackPointExtension>
        </extensions>
      </trkpt>
      <trkpt lat="47.50355503521859645843505859375" lon="10.1065167970955371856689453125">
        <ele>1787.800048828125</ele>
        <time>2026-09-01T08:56:26.000Z</time>
        <extensions>
          <ns3:TrackPointExtension>
            <ns3:hr>157</ns3:hr>
            <ns3:cad>82</ns3:cad>
          </ns3:TrackPointExtension>
        </extensions>
      </trkpt>
      <trkpt lat="47.50349585898220539093017578125" lon="10.10648955591022968292236328125">
        <ele>1786.199951171875</ele>
        <time>2026-09-01T08:56:28.000Z</time>
        <extensions>
          <ns3:TrackPointExtension>
            <ns3:hr>157</ns3:hr>
            <ns3:cad>0</ns3:cad>
          </ns3:TrackPointExtension>
        </extensions>
      </trkpt>
      <trkpt lat="47.50344489701092243194580078125" lon="10.10645569302141666412353515625">
        <ele>1784.4000244140625</ele>
        <time>2026-09-01T08:56:30.000Z</time>
        <extensions>
          <ns3:TrackPointExtension>
            <ns3:hr>156</ns3:hr>
            <ns3:cad>0</ns3:cad>
          </ns3:TrackPointExtension>
        </extensions>
      </trkpt>
      <trkpt lat="47.5033869780600070953369140625" lon="10.106382854282855987548828125">
        <ele>1782.5999755859375</ele>
        <time>2026-09-01T08:56:32.000Z</time>
        <extensions>
          <ns3:TrackPointExtension>
            <ns3:hr>157</ns3:hr>
            <ns3:cad>0</ns3:cad>
          </ns3:TrackPointExtension>
        </extensions>
      </trkpt>
      <trkpt lat="47.5033390335738658905029296875" lon="10.1063092611730098724365234375">
        <ele>1781</ele>
        <time>2026-09-01T08:56:34.000Z</time>
        <extensions>
          <ns3:TrackPointExtension>
            <ns3:hr>157</ns3:hr>
            <ns3:cad>0</ns3:cad>
          </ns3:TrackPointExtension>
        </extensions>
      </trkpt>
      <trkpt lat="47.50332067720592021942138671875" lon="10.10626743547618389129638671875">
        <ele>1779.800048828125</ele>
        <time>2026-09-01T08:56:35.000Z</time>
        <extensions>
          <ns3:TrackPointExtension>
            <ns3:hr>156</ns3:hr>
            <ns3:cad>0</ns3:cad>
          </ns3:TrackPointExtension>
        </extensions>
      </trkpt>
      <trkpt lat="47.50329687260091304779052734375" lon="10.10622720234096050262451171875">
        <ele>1778.800048828125</ele>
        <time>2026-09-01T08:56:36.000Z</time>
        <extensions>
          <ns3:TrackPointExtension>
            <ns3:hr>156</ns3:hr>
            <ns3:cad>0</ns3:cad>
          </ns3:TrackPointExtension>
        </extensions>
      </trkpt>
      <trkpt lat="47.50327893532812595367431640625" lon="10.10620457120239734649658203125">
        <ele>1778</ele>
        <time>2026-09-01T08:56:37.000Z</time>
        <extensions>
          <ns3:TrackPointExtension>
            <ns3:hr>156</ns3:hr>
            <ns3:cad>0</ns3:cad>
          </ns3:TrackPointExtension>
        </extensions>
      </trkpt>
      <trkpt lat="47.503249347209930419921875" lon="10.106153525412082672119140625">
        <ele>1777.199951171875</ele>
        <time>2026-09-01T08:56:38.000Z</time>
        <extensions>
          <ns3:TrackPointExtension>
            <ns3:hr>157</ns3:hr>
            <ns3:cad>0</ns3:cad>
          </ns3:TrackPointExtension>
        </extensions>
      </trkpt>
      <trkpt lat="47.503225542604923248291015625" lon="10.106123350560665130615234375">
        <ele>1776.5999755859375</ele>
        <time>2026-09-01T08:56:39.000Z</time>
        <extensions>
          <ns3:TrackPointExtension>
            <ns3:hr>157</ns3:hr>
            <ns3:cad>0</ns3:cad>
          </ns3:TrackPointExtension>
        </extensions>
      </trkpt>
      <trkpt lat="47.5031854771077632904052734375" lon="10.10609191842377185821533203125">
        <ele>1776</ele>
        <time>2026-09-01T08:56:40.000Z</time>
        <extensions>
          <ns3:TrackPointExtension>
            <ns3:hr>157</ns3:hr>
            <ns3:cad>0</ns3:cad>
          </ns3:TrackPointExtension>
        </extensions>
      </trkpt>
      <trkpt lat="47.50313459895551204681396484375" lon="10.10601849295198917388916015625">
        <ele>1775</ele>
        <time>2026-09-01T08:56:42.000Z</time>
        <extensions>
          <ns3:TrackPointExtension>
            <ns3:hr>158</ns3:hr>
            <ns3:cad>0</ns3:cad>
          </ns3:TrackPointExtension>
        </extensions>
      </trkpt>
      <trkpt lat="47.50307709909975528717041015625" lon="10.10591506026685237884521484375">
        <ele>1773.5999755859375</ele>
        <time>2026-09-01T08:56:45.000Z</time>
        <extensions>
          <ns3:TrackPointExtension>
            <ns3:hr>157</ns3:hr>
            <ns3:cad>85</ns3:cad>
          </ns3:TrackPointExtension>
        </extensions>
      </trkpt>
      <trkpt lat="47.50305731780827045440673828125" lon="10.10588471777737140655517578125">
        <ele>1773.199951171875</ele>
        <time>2026-09-01T08:56:46.000Z</time>
        <extensions>
          <ns3:TrackPointExtension>
            <ns3:hr>157</ns3:hr>
            <ns3:cad>86</ns3:cad>
          </ns3:TrackPointExtension>
        </extensions>
      </trkpt>
      <trkpt lat="47.503004930913448333740234375" lon="10.105815231800079345703125">
        <ele>1772</ele>
        <time>2026-09-01T08:56:48.000Z</time>
        <extensions>
          <ns3:TrackPointExtension>
            <ns3:hr>156</ns3:hr>
            <ns3:cad>86</ns3:cad>
          </ns3:TrackPointExtension>
        </extensions>
      </trkpt>
      <trkpt lat="47.50297131948173046112060546875" lon="10.1057724840939044952392578125">
        <ele>1771.199951171875</ele>
        <time>2026-09-01T08:56:49.000Z</time>
        <extensions>
          <ns3:TrackPointExtension>
            <ns3:hr>156</ns3:hr>
            <ns3:cad>86</ns3:cad>
          </ns3:TrackPointExtension>
        </extensions>
      </trkpt>
      <trkpt lat="47.5029444135725498199462890625" lon="10.10573250241577625274658203125">
        <ele>1770.199951171875</ele>
        <time>2026-09-01T08:56:50.000Z</time>
        <extensions>
          <ns3:TrackPointExtension>
            <ns3:hr>155</ns3:hr>
            <ns3:cad>85</ns3:cad>
          </ns3:TrackPointExtension>
        </extensions>
      </trkpt>
      <trkpt lat="47.50287593342363834381103515625" lon="10.10567634366452693939208984375">
        <ele>1768.800048828125</ele>
        <time>2026-09-01T08:56:52.000Z</time>
        <extensions>
          <ns3:TrackPointExtension>
            <ns3:hr>156</ns3:hr>
            <ns3:cad>85</ns3:cad>
          </ns3:TrackPointExtension>
        </extensions>
      </trkpt>
      <trkpt lat="47.502810470759868621826171875" lon="10.105621777474880218505859375">
        <ele>1767.5999755859375</ele>
        <time>2026-09-01T08:56:54.000Z</time>
        <extensions>
          <ns3:TrackPointExtension>
            <ns3:hr>158</ns3:hr>
            <ns3:cad>0</ns3:cad>
          </ns3:TrackPointExtension>
        </extensions>
      </trkpt>
      <trkpt lat="47.5027737580239772796630859375" lon="10.1055850647389888763427734375">
        <ele>1767.199951171875</ele>
        <time>2026-09-01T08:56:55.000Z</time>
        <extensions>
          <ns3:TrackPointExtension>
            <ns3:hr>158</ns3:hr>
            <ns3:cad>85</ns3:cad>
          </ns3:TrackPointExtension>
        </extensions>
      </trkpt>
      <trkpt lat="47.502734363079071044921875" lon="10.105522535741329193115234375">
        <ele>1766.5999755859375</ele>
        <time>2026-09-01T08:56:57.000Z</time>
        <extensions>
          <ns3:TrackPointExtension>
            <ns3:hr>158</ns3:hr>
            <ns3:cad>86</ns3:cad>
          </ns3:TrackPointExtension>
        </extensions>
      </trkpt>
      <trkpt lat="47.50272388570010662078857421875" lon="10.10547718964517116546630859375">
        <ele>1766.5999755859375</ele>
        <time>2026-09-01T08:56:58.000Z</time>
        <extensions>
          <ns3:TrackPointExtension>
            <ns3:hr>157</ns3:hr>
            <ns3:cad>86</ns3:cad>
          </ns3:TrackPointExtension>
        </extensions>
      </trkpt>
      <trkpt lat="47.502676360309123992919921875" lon="10.1052853278815746307373046875">
        <ele>1766.4000244140625</ele>
        <time>2026-09-01T08:57:02.000Z</time>
        <extensions>
          <ns3:TrackPointExtension>
            <ns3:hr>155</ns3:hr>
            <ns3:cad>86</ns3:cad>
          </ns3:TrackPointExtension>
        </extensions>
      </trkpt>
      <trkpt lat="47.5026203691959381103515625" lon="10.10509313084185123443603515625">
        <ele>1766</ele>
        <time>2026-09-01T08:57:06.000Z</time>
        <extensions>
          <ns3:TrackPointExtension>
            <ns3:hr>155</ns3:hr>
            <ns3:cad>85</ns3:cad>
          </ns3:TrackPointExtension>
        </extensions>
      </trkpt>
      <trkpt lat="47.5025720894336700439453125" lon="10.104951225221157073974609375">
        <ele>1765.800048828125</ele>
        <time>2026-09-01T08:57:09.000Z</time>
        <extensions>
          <ns3:TrackPointExtension>
            <ns3:hr>155</ns3:hr>
            <ns3:cad>87</ns3:cad>
          </ns3:TrackPointExtension>
        </extensions>
      </trkpt>
      <trkpt lat="47.5025390647351741790771484375" lon="10.104849636554718017578125">
        <ele>1765.4000244140625</ele>
        <time>2026-09-01T08:57:11.000Z</time>
        <extensions>
          <ns3:TrackPointExtension>
            <ns3:hr>155</ns3:hr>
            <ns3:cad>85</ns3:cad>
          </ns3:TrackPointExtension>
        </extensions>
      </trkpt>
      <trkpt lat="47.5025189481675624847412109375" lon="10.104790627956390380859375">
        <ele>1765.199951171875</ele>
        <time>2026-09-01T08:57:12.000Z</time>
        <extensions>
          <ns3:TrackPointExtension>
            <ns3:hr>155</ns3:hr>
            <ns3:cad>85</ns3:cad>
          </ns3:TrackPointExtension>
        </extensions>
      </trkpt>
      <trkpt lat="47.50248047523200511932373046875" lon="10.104648806154727935791015625">
        <ele>1764.4000244140625</ele>
        <time>2026-09-01T08:57:15.000Z</time>
        <extensions>
          <ns3:TrackPointExtension>
            <ns3:hr>155</ns3:hr>
            <ns3:cad>85</ns3:cad>
          </ns3:TrackPointExtension>
        </extensions>
      </trkpt>
      <trkpt lat="47.50247754156589508056640625" lon="10.10461268015205860137939453125">
        <ele>1764.199951171875</ele>
        <time>2026-09-01T08:57:16.000Z</time>
        <extensions>
          <ns3:TrackPointExtension>
            <ns3:hr>157</ns3:hr>
            <ns3:cad>85</ns3:cad>
          </ns3:TrackPointExtension>
        </extensions>
      </trkpt>
      <trkpt lat="47.50244929455220699310302734375" lon="10.10453036986291408538818359375">
        <ele>1763</ele>
        <time>2026-09-01T08:57:18.000Z</time>
        <extensions>
          <ns3:TrackPointExtension>
            <ns3:hr>156</ns3:hr>
            <ns3:cad>83</ns3:cad>
          </ns3:TrackPointExtension>
        </extensions>
      </trkpt>
      <trkpt lat="47.50242800451815128326416015625" lon="10.10450572706758975982666015625">
        <ele>1762.4000244140625</ele>
        <time>2026-09-01T08:57:19.000Z</time>
        <extensions>
          <ns3:TrackPointExtension>
            <ns3:hr>156</ns3:hr>
            <ns3:cad>83</ns3:cad>
          </ns3:TrackPointExtension>
        </extensions>
      </trkpt>
      <trkpt lat="47.50241174362599849700927734375" lon="10.104457028210163116455078125">
        <ele>1761.5999755859375</ele>
        <time>2026-09-01T08:57:20.000Z</time>
        <extensions>
          <ns3:TrackPointExtension>
            <ns3:hr>155</ns3:hr>
            <ns3:cad>83</ns3:cad>
          </ns3:TrackPointExtension>
        </extensions>
      </trkpt>
      <trkpt lat="47.50240503810346126556396484375" lon="10.10438133962452411651611328125">
        <ele>1760.199951171875</ele>
        <time>2026-09-01T08:57:22.000Z</time>
        <extensions>
          <ns3:TrackPointExtension>
            <ns3:hr>154</ns3:hr>
            <ns3:cad>86</ns3:cad>
          </ns3:TrackPointExtension>
        </extensions>
      </trkpt>
      <trkpt lat="47.5023902021348476409912109375" lon="10.10429081507027149200439453125">
        <ele>1761.199951171875</ele>
        <time>2026-09-01T08:57:26.000Z</time>
        <extensions>
          <ns3:TrackPointExtension>
            <ns3:hr>154</ns3:hr>
            <ns3:cad>86</ns3:cad>
          </ns3:TrackPointExtension>
        </extensions>
      </trkpt>
      <trkpt lat="47.5023888610303401947021484375" lon="10.1042556948959827423095703125">
        <ele>1761.5999755859375</ele>
        <time>2026-09-01T08:57:27.000Z</time>
        <extensions>
          <ns3:TrackPointExtension>
            <ns3:hr>154</ns3:hr>
            <ns3:cad>86</ns3:cad>
          </ns3:TrackPointExtension>
        </extensions>
      </trkpt>
      <trkpt lat="47.50238223932683467864990234375" lon="10.1042070798575878143310546875">
        <ele>1762.4000244140625</ele>
        <time>2026-09-01T08:57:29.000Z</time>
        <extensions>
          <ns3:TrackPointExtension>
            <ns3:hr>155</ns3:hr>
            <ns3:cad>87</ns3:cad>
          </ns3:TrackPointExtension>
        </extensions>
      </trkpt>
      <trkpt lat="47.50238223932683467864990234375" lon="10.1041728816926479339599609375">
        <ele>1762.800048828125</ele>
        <time>2026-09-01T08:57:30.000Z</time>
        <extensions>
          <ns3:TrackPointExtension>
            <ns3:hr>155</ns3:hr>
            <ns3:cad>87</ns3:cad>
          </ns3:TrackPointExtension>
        </extensions>
      </trkpt>
      <trkpt lat="47.50237905420362949371337890625" lon="10.10407984256744384765625">
        <ele>1763.199951171875</ele>
        <time>2026-09-01T08:57:33.000Z</time>
        <extensions>
          <ns3:TrackPointExtension>
            <ns3:hr>155</ns3:hr>
            <ns3:cad>84</ns3:cad>
          </ns3:TrackPointExtension>
        </extensions>
      </trkpt>
      <trkpt lat="47.50235876999795436859130859375" lon="10.1039841212332248687744140625">
        <ele>1763.800048828125</ele>
        <time>2026-09-01T08:57:36.000Z</time>
        <extensions>
          <ns3:TrackPointExtension>
            <ns3:hr>156</ns3:hr>
            <ns3:cad>83</ns3:cad>
          </ns3:TrackPointExtension>
        </extensions>
      </trkpt>
      <trkpt lat="47.50235122628509998321533203125" lon="10.1039331592619419097900390625">
        <ele>1764</ele>
        <time>2026-09-01T08:57:37.000Z</time>
        <extensions>
          <ns3:TrackPointExtension>
            <ns3:hr>156</ns3:hr>
            <ns3:cad>83</ns3:cad>
          </ns3:TrackPointExtension>
        </extensions>
      </trkpt>
      <trkpt lat="47.50233312137424945831298828125" lon="10.10381271131336688995361328125">
        <ele>1763.800048828125</ele>
        <time>2026-09-01T08:57:40.000Z</time>
        <extensions>
          <ns3:TrackPointExtension>
            <ns3:hr>156</ns3:hr>
            <ns3:cad>83</ns3:cad>
          </ns3:TrackPointExtension>
        </extensions>
      </trkpt>
      <trkpt lat="47.502314932644367218017578125" lon="10.10369829833507537841796875">
        <ele>1764</ele>
        <time>2026-09-01T08:57:43.000Z</time>
        <extensions>
          <ns3:TrackPointExtension>
            <ns3:hr>156</ns3:hr>
            <ns3:cad>83</ns3:cad>
          </ns3:TrackPointExtension>
        </extensions>
      </trkpt>
      <trkpt lat="47.50229942612349987030029296875" lon="10.10355236940085887908935546875">
        <ele>1764.199951171875</ele>
        <time>2026-09-01T08:57:47.000Z</time>
        <extensions>
          <ns3:TrackPointExtension>
            <ns3:hr>157</ns3:hr>
            <ns3:cad>83</ns3:cad>
          </ns3:TrackPointExtension>
        </extensions>
      </trkpt>
      <trkpt lat="47.50229842029511928558349609375" lon="10.1033886708319187164306640625">
        <ele>1764.5999755859375</ele>
        <time>2026-09-01T08:57:51.000Z</time>
        <extensions>
          <ns3:TrackPointExtension>
            <ns3:hr>158</ns3:hr>
            <ns3:cad>85</ns3:cad>
          </ns3:TrackPointExtension>
        </extensions>
      </trkpt>
      <trkpt lat="47.5022892840206623077392578125" lon="10.10322086513042449951171875">
        <ele>1764</ele>
        <time>2026-09-01T08:57:54.000Z</time>
        <extensions>
          <ns3:TrackPointExtension>
            <ns3:hr>157</ns3:hr>
            <ns3:cad>84</ns3:cad>
          </ns3:TrackPointExtension>
        </extensions>
      </trkpt>
      <trkpt lat="47.50228500925004482269287109375" lon="10.103037469089031219482421875">
        <ele>1764</ele>
        <time>2026-09-01T08:57:58.000Z</time>
        <extensions>
          <ns3:TrackPointExtension>
            <ns3:hr>157</ns3:hr>
            <ns3:cad>84</ns3:cad>
          </ns3:TrackPointExtension>
        </extensions>
      </trkpt>
      <trkpt lat="47.502265982329845428466796875" lon="10.102932192385196685791015625">
        <ele>1765.199951171875</ele>
        <time>2026-09-01T08:58:02.000Z</time>
        <extensions>
          <ns3:TrackPointExtension>
            <ns3:hr>156</ns3:hr>
            <ns3:cad>84</ns3:cad>
          </ns3:TrackPointExtension>
        </extensions>
      </trkpt>
      <trkpt lat="47.5022651441395282745361328125" lon="10.10292179882526397705078125">
        <ele>1765.4000244140625</ele>
        <time>2026-09-01T08:58:03.000Z</time>
        <extensions>
          <ns3:TrackPointExtension>
            <ns3:hr>157</ns3:hr>
            <ns3:cad>85</ns3:cad>
          </ns3:TrackPointExtension>
        </extensions>
      </trkpt>
      <trkpt lat="47.5022815726697444915771484375" lon="10.10285248048603534698486328125">
        <ele>1766</ele>
        <time>2026-09-01T08:58:07.000Z</time>
        <extensions>
          <ns3:TrackPointExtension>
            <ns3:hr>155</ns3:hr>
            <ns3:cad>43</ns3:cad>
          </ns3:TrackPointExtension>
        </extensions>
      </trkpt>
      <trkpt lat="47.50228500925004482269287109375" lon="10.1028361357748508453369140625">
        <ele>1766.199951171875</ele>
        <time>2026-09-01T08:58:08.000Z</time>
        <extensions>
          <ns3:TrackPointExtension>
            <ns3:hr>155</ns3:hr>
            <ns3:cad>43</ns3:cad>
          </ns3:TrackPointExtension>
        </extensions>
      </trkpt>
      <trkpt lat="47.50228534452617168426513671875" lon="10.1027888618409633636474609375">
        <ele>1767.199951171875</ele>
        <time>2026-09-01T08:58:11.000Z</time>
        <extensions>
          <ns3:TrackPointExtension>
            <ns3:hr>154</ns3:hr>
            <ns3:cad>0</ns3:cad>
          </ns3:TrackPointExtension>
        </extensions>
      </trkpt>
      <trkpt lat="47.50228735618293285369873046875" lon="10.10274611413478851318359375">
        <ele>1768.199951171875</ele>
        <time>2026-09-01T08:58:14.000Z</time>
        <extensions>
          <ns3:TrackPointExtension>
            <ns3:hr>153</ns3:hr>
            <ns3:cad>57</ns3:cad>
          </ns3:TrackPointExtension>
        </extensions>
      </trkpt>
      <trkpt lat="47.50230277888476848602294921875" lon="10.10268576443195343017578125">
        <ele>1769.199951171875</ele>
        <time>2026-09-01T08:58:18.000Z</time>
        <extensions>
          <ns3:TrackPointExtension>
            <ns3:hr>154</ns3:hr>
            <ns3:cad>59</ns3:cad>
          </ns3:TrackPointExtension>
        </extensions>
      </trkpt>
      <trkpt lat="47.50230696983635425567626953125" lon="10.102620385587215423583984375">
        <ele>1770.4000244140625</ele>
        <time>2026-09-01T08:58:21.000Z</time>
        <extensions>
          <ns3:TrackPointExtension>
            <ns3:hr>154</ns3:hr>
            <ns3:cad>59</ns3:cad>
          </ns3:TrackPointExtension>
        </extensions>
      </trkpt>
      <trkpt lat="47.502300180494785308837890625" lon="10.102568753063678741455078125">
        <ele>1771.4000244140625</ele>
        <time>2026-09-01T08:58:24.000Z</time>
        <extensions>
          <ns3:TrackPointExtension>
            <ns3:hr>155</ns3:hr>
            <ns3:cad>41</ns3:cad>
          </ns3:TrackPointExtension>
        </extensions>
      </trkpt>
      <trkpt lat="47.50231283716857433319091796875" lon="10.1025119237601757049560546875">
        <ele>1772.4000244140625</ele>
        <time>2026-09-01T08:58:27.000Z</time>
        <extensions>
          <ns3:TrackPointExtension>
            <ns3:hr>155</ns3:hr>
            <ns3:cad>41</ns3:cad>
          </ns3:TrackPointExtension>
        </extensions>
      </trkpt>
      <trkpt lat="47.50231216661632061004638671875" lon="10.1024991832673549652099609375">
        <ele>1772.5999755859375</ele>
        <time>2026-09-01T08:58:28.000Z</time>
        <extensions>
          <ns3:TrackPointExtension>
            <ns3:hr>155</ns3:hr>
            <ns3:cad>41</ns3:cad>
          </ns3:TrackPointExtension>
        </extensions>
      </trkpt>
      <trkpt lat="47.50231635756790637969970703125" lon="10.10246557183563709259033203125">
        <ele>1773.199951171875</ele>
        <time>2026-09-01T08:58:30.000Z</time>
        <extensions>
          <ns3:TrackPointExtension>
            <ns3:hr>156</ns3:hr>
            <ns3:cad>0</ns3:cad>
          </ns3:TrackPointExtension>
        </extensions>
      </trkpt>
      <trkpt lat="47.502321638166904449462890625" lon="10.1024338044226169586181640625">
        <ele>1773.800048828125</ele>
        <time>2026-09-01T08:58:32.000Z</time>
        <extensions>
          <ns3:TrackPointExtension>
            <ns3:hr>156</ns3:hr>
            <ns3:cad>0</ns3:cad>
          </ns3:TrackPointExtension>
        </extensions>
      </trkpt>
      <trkpt lat="47.50232909806072711944580078125" lon="10.10241796262562274932861328125">
        <ele>1774</ele>
        <time>2026-09-01T08:58:33.000Z</time>
        <extensions>
          <ns3:TrackPointExtension>
            <ns3:hr>157</ns3:hr>
            <ns3:cad>0</ns3:cad>
          </ns3:TrackPointExtension>
        </extensions>
      </trkpt>
      <trkpt lat="47.5023429282009601593017578125" lon="10.10238141752779483795166015625">
        <ele>1775</ele>
        <time>2026-09-01T08:58:36.000Z</time>
        <extensions>
          <ns3:TrackPointExtension>
            <ns3:hr>157</ns3:hr>
            <ns3:cad>0</ns3:cad>
          </ns3:TrackPointExtension>
        </extensions>
      </trkpt>
      <trkpt lat="47.50234871171414852142333984375" lon="10.1023603789508342742919921875">
        <ele>1775.199951171875</ele>
        <time>2026-09-01T08:58:37.000Z</time>
        <extensions>
          <ns3:TrackPointExtension>
            <ns3:hr>158</ns3:hr>
            <ns3:cad>0</ns3:cad>
          </ns3:TrackPointExtension>
        </extensions>
      </trkpt>
      <trkpt lat="47.502341084182262420654296875" lon="10.10234386660158634185791015625">
        <ele>1775.5999755859375</ele>
        <time>2026-09-01T08:58:38.000Z</time>
        <extensions>
          <ns3:TrackPointExtension>
            <ns3:hr>157</ns3:hr>
            <ns3:cad>0</ns3:cad>
          </ns3:TrackPointExtension>
        </extensions>
      </trkpt>
      <trkpt lat="47.50234737060964107513427734375" lon="10.102317966520786285400390625">
        <ele>1776.199951171875</ele>
        <time>2026-09-01T08:58:40.000Z</time>
        <extensions>
          <ns3:TrackPointExtension>
            <ns3:hr>157</ns3:hr>
            <ns3:cad>0</ns3:cad>
          </ns3:TrackPointExtension>
        </extensions>
      </trkpt>
      <trkpt lat="47.5023543275892734527587890625" lon="10.10230832733213901519775390625">
        <ele>1776.5999755859375</ele>
        <time>2026-09-01T08:58:41.000Z</time>
        <extensions>
          <ns3:TrackPointExtension>
            <ns3:hr>157</ns3:hr>
            <ns3:cad>0</ns3:cad>
          </ns3:TrackPointExtension>
        </extensions>
      </trkpt>
      <trkpt lat="47.50235818326473236083984375" lon="10.10228217579424381256103515625">
        <ele>1777</ele>
        <time>2026-09-01T08:58:42.000Z</time>
        <extensions>
          <ns3:TrackPointExtension>
            <ns3:hr>157</ns3:hr>
            <ns3:cad>0</ns3:cad>
          </ns3:TrackPointExtension>
        </extensions>
      </trkpt>
      <trkpt lat="47.50235139392316341400146484375" lon="10.10227672755718231201171875">
        <ele>1777.4000244140625</ele>
        <time>2026-09-01T08:58:43.000Z</time>
        <extensions>
          <ns3:TrackPointExtension>
            <ns3:hr>157</ns3:hr>
            <ns3:cad>0</ns3:cad>
          </ns3:TrackPointExtension>
        </extensions>
      </trkpt>
      <trkpt lat="47.50234544277191162109375" lon="10.102258957922458648681640625">
        <ele>1777.5999755859375</ele>
        <time>2026-09-01T08:58:44.000Z</time>
        <extensions>
          <ns3:TrackPointExtension>
            <ns3:hr>157</ns3:hr>
            <ns3:cad>0</ns3:cad>
          </ns3:TrackPointExtension>
        </extensions>
      </trkpt>
      <trkpt lat="47.50234032981097698211669921875" lon="10.1022242568433284759521484375">
        <ele>1778.4000244140625</ele>
        <time>2026-09-01T08:58:46.000Z</time>
        <extensions>
          <ns3:TrackPointExtension>
            <ns3:hr>158</ns3:hr>
            <ns3:cad>0</ns3:cad>
          </ns3:TrackPointExtension>
        </extensions>
      </trkpt>
      <trkpt lat="47.5023298524320125579833984375" lon="10.10218310169875621795654296875">
        <ele>1779.4000244140625</ele>
        <time>2026-09-01T08:58:49.000Z</time>
        <extensions>
          <ns3:TrackPointExtension>
            <ns3:hr>158</ns3:hr>
            <ns3:cad>0</ns3:cad>
          </ns3:TrackPointExtension>
        </extensions>
      </trkpt>
      <trkpt lat="47.5023281760513782501220703125" lon="10.10215326212346553802490234375">
        <ele>1779.800048828125</ele>
        <time>2026-09-01T08:58:50.000Z</time>
        <extensions>
          <ns3:TrackPointExtension>
            <ns3:hr>158</ns3:hr>
            <ns3:cad>0</ns3:cad>
          </ns3:TrackPointExtension>
        </extensions>
      </trkpt>
      <trkpt lat="47.50233278609812259674072265625" lon="10.102131552994251251220703125">
        <ele>1780.4000244140625</ele>
        <time>2026-09-01T08:58:52.000Z</time>
        <extensions>
          <ns3:TrackPointExtension>
            <ns3:hr>159</ns3:hr>
            <ns3:cad>47</ns3:cad>
          </ns3:TrackPointExtension>
        </extensions>
      </trkpt>
      <trkpt lat="47.502343766391277313232421875" lon="10.10212761349976062774658203125">
        <ele>1780.800048828125</ele>
        <time>2026-09-01T08:58:53.000Z</time>
        <extensions>
          <ns3:TrackPointExtension>
            <ns3:hr>159</ns3:hr>
            <ns3:cad>47</ns3:cad>
          </ns3:TrackPointExtension>
        </extensions>
      </trkpt>
      <trkpt lat="47.5023811496794223785400390625" lon="10.10213993489742279052734375">
        <ele>1782</ele>
        <time>2026-09-01T08:58:57.000Z</time>
        <extensions>
          <ns3:TrackPointExtension>
            <ns3:hr>158</ns3:hr>
            <ns3:cad>0</ns3:cad>
          </ns3:TrackPointExtension>
        </extensions>
      </trkpt>
      <trkpt lat="47.502398751676082611083984375" lon="10.10214102454483509063720703125">
        <ele>1782.5999755859375</ele>
        <time>2026-09-01T08:58:59.000Z</time>
        <extensions>
          <ns3:TrackPointExtension>
            <ns3:hr>158</ns3:hr>
            <ns3:cad>0</ns3:cad>
          </ns3:TrackPointExtension>
        </extensions>
      </trkpt>
      <trkpt lat="47.50242079608142375946044921875" lon="10.10214135982096195220947265625">
        <ele>1783.4000244140625</ele>
        <time>2026-09-01T08:59:01.000Z</time>
        <extensions>
          <ns3:TrackPointExtension>
            <ns3:hr>159</ns3:hr>
            <ns3:cad>0</ns3:cad>
          </ns3:TrackPointExtension>
        </extensions>
      </trkpt>
      <trkpt lat="47.5024473667144775390625" lon="10.10212359018623828887939453125">
        <ele>1784.4000244140625</ele>
        <time>2026-09-01T08:59:04.000Z</time>
        <extensions>
          <ns3:TrackPointExtension>
            <ns3:hr>159</ns3:hr>
            <ns3:cad>18</ns3:cad>
          </ns3:TrackPointExtension>
        </extensions>
      </trkpt>
      <trkpt lat="47.50244242139160633087158203125" lon="10.1021159626543521881103515625">
        <ele>1784.800048828125</ele>
        <time>2026-09-01T08:59:05.000Z</time>
        <extensions>
          <ns3:TrackPointExtension>
            <ns3:hr>160</ns3:hr>
            <ns3:cad>0</ns3:cad>
          </ns3:TrackPointExtension>
        </extensions>
      </trkpt>
      <trkpt lat="47.50245415605604648590087890625" lon="10.10209970176219940185546875">
        <ele>1785.5999755859375</ele>
        <time>2026-09-01T08:59:07.000Z</time>
        <extensions>
          <ns3:TrackPointExtension>
            <ns3:hr>160</ns3:hr>
            <ns3:cad>0</ns3:cad>
          </ns3:TrackPointExtension>
        </extensions>
      </trkpt>
      <trkpt lat="47.50247075222432613372802734375" lon="10.102075897157192230224609375">
        <ele>1786.199951171875</ele>
        <time>2026-09-01T08:59:09.000Z</time>
        <extensions>
          <ns3:TrackPointExtension>
            <ns3:hr>160</ns3:hr>
            <ns3:cad>0</ns3:cad>
          </ns3:TrackPointExtension>
        </extensions>
      </trkpt>
      <trkpt lat="47.50247360207140445709228515625" lon="10.1020696945488452911376953125">
        <ele>1786.5999755859375</ele>
        <time>2026-09-01T08:59:10.000Z</time>
        <extensions>
          <ns3:TrackPointExtension>
            <ns3:hr>160</ns3:hr>
            <ns3:cad>0</ns3:cad>
          </ns3:TrackPointExtension>
        </extensions>
      </trkpt>
      <trkpt lat="47.502504028379917144775390625" lon="10.10203071869909763336181640625">
        <ele>1787.5999755859375</ele>
        <time>2026-09-01T08:59:13.000Z</time>
        <extensions>
          <ns3:TrackPointExtension>
            <ns3:hr>160</ns3:hr>
            <ns3:cad>0</ns3:cad>
          </ns3:TrackPointExtension>
        </extensions>
      </trkpt>
      <trkpt lat="47.50250863842666149139404296875" lon="10.10201990604400634765625">
        <ele>1787.800048828125</ele>
        <time>2026-09-01T08:59:14.000Z</time>
        <extensions>
          <ns3:TrackPointExtension>
            <ns3:hr>161</ns3:hr>
            <ns3:cad>0</ns3:cad>
          </ns3:TrackPointExtension>
        </extensions>
      </trkpt>
      <trkpt lat="47.5025357119739055633544921875" lon="10.101988054811954498291015625">
        <ele>1788.5999755859375</ele>
        <time>2026-09-01T08:59:17.000Z</time>
        <extensions>
          <ns3:TrackPointExtension>
            <ns3:hr>161</ns3:hr>
            <ns3:cad>0</ns3:cad>
          </ns3:TrackPointExtension>
        </extensions>
      </trkpt>
      <trkpt lat="47.50254199840128421783447265625" lon="10.1019821874797344207763671875">
        <ele>1788.800048828125</ele>
        <time>2026-09-01T08:59:18.000Z</time>
        <extensions>
          <ns3:TrackPointExtension>
            <ns3:hr>161</ns3:hr>
            <ns3:cad>0</ns3:cad>
          </ns3:TrackPointExtension>
        </extensions>
      </trkpt>
      <trkpt lat="47.50255800783634185791015625" lon="10.1019647531211376190185546875">
        <ele>1789.4000244140625</ele>
        <time>2026-09-01T08:59:20.000Z</time>
        <extensions>
          <ns3:TrackPointExtension>
            <ns3:hr>162</ns3:hr>
            <ns3:cad>0</ns3:cad>
          </ns3:TrackPointExtension>
        </extensions>
      </trkpt>
      <trkpt lat="47.5025816448032855987548828125" lon="10.1019379310309886932373046875">
        <ele>1790</ele>
        <time>2026-09-01T08:59:22.000Z</time>
        <extensions>
          <ns3:TrackPointExtension>
            <ns3:hr>162</ns3:hr>
            <ns3:cad>0</ns3:cad>
          </ns3:TrackPointExtension>
        </extensions>
      </trkpt>
      <trkpt lat="47.50260000117123126983642578125" lon="10.101916976273059844970703125">
        <ele>1790.5999755859375</ele>
        <time>2026-09-01T08:59:24.000Z</time>
        <extensions>
          <ns3:TrackPointExtension>
            <ns3:hr>162</ns3:hr>
            <ns3:cad>52</ns3:cad>
          </ns3:TrackPointExtension>
        </extensions>
      </trkpt>
      <trkpt lat="47.5026225484907627105712890625" lon="10.10189627297222614288330078125">
        <ele>1791.199951171875</ele>
        <time>2026-09-01T08:59:26.000Z</time>
        <extensions>
          <ns3:TrackPointExtension>
            <ns3:hr>161</ns3:hr>
            <ns3:cad>53</ns3:cad>
          </ns3:TrackPointExtension>
        </extensions>
      </trkpt>
      <trkpt lat="47.50265565700829029083251953125" lon="10.10185788385570049285888671875">
        <ele>1792.5999755859375</ele>
        <time>2026-09-01T08:59:30.000Z</time>
        <extensions>
          <ns3:TrackPointExtension>
            <ns3:hr>162</ns3:hr>
            <ns3:cad>53</ns3:cad>
          </ns3:TrackPointExtension>
        </extensions>
      </trkpt>
      <trkpt lat="47.50267141498625278472900390625" lon="10.10181999765336513519287109375">
        <ele>1793.5999755859375</ele>
        <time>2026-09-01T08:59:33.000Z</time>
        <extensions>
          <ns3:TrackPointExtension>
            <ns3:hr>162</ns3:hr>
            <ns3:cad>53</ns3:cad>
          </ns3:TrackPointExtension>
        </extensions>
      </trkpt>
      <trkpt lat="47.5026812218129634857177734375" lon="10.1017900742590427398681640625">
        <ele>1794.199951171875</ele>
        <time>2026-09-01T08:59:35.000Z</time>
        <extensions>
          <ns3:TrackPointExtension>
            <ns3:hr>162</ns3:hr>
            <ns3:cad>0</ns3:cad>
          </ns3:TrackPointExtension>
        </extensions>
      </trkpt>
      <trkpt lat="47.50269253738224506378173828125" lon="10.1017652638256549835205078125">
        <ele>1794.800048828125</ele>
        <time>2026-09-01T08:59:37.000Z</time>
        <extensions>
          <ns3:TrackPointExtension>
            <ns3:hr>161</ns3:hr>
            <ns3:cad>0</ns3:cad>
          </ns3:TrackPointExtension>
        </extensions>
      </trkpt>
      <trkpt lat="47.502711229026317596435546875" lon="10.10172528214752674102783203125">
        <ele>1795.800048828125</ele>
        <time>2026-09-01T08:59:40.000Z</time>
        <extensions>
          <ns3:TrackPointExtension>
            <ns3:hr>161</ns3:hr>
            <ns3:cad>0</ns3:cad>
          </ns3:TrackPointExtension>
        </extensions>
      </trkpt>
      <trkpt lat="47.50272137112915515899658203125" lon="10.10171187110245227813720703125">
        <ele>1796.199951171875</ele>
        <time>2026-09-01T08:59:41.000Z</time>
        <extensions>
          <ns3:TrackPointExtension>
            <ns3:hr>161</ns3:hr>
            <ns3:cad>0</ns3:cad>
          </ns3:TrackPointExtension>
        </extensions>
      </trkpt>
      <trkpt lat="47.50274081714451313018798828125" lon="10.10168069042265415191650390625">
        <ele>1797.199951171875</ele>
        <time>2026-09-01T08:59:44.000Z</time>
        <extensions>
          <ns3:TrackPointExtension>
            <ns3:hr>161</ns3:hr>
            <ns3:cad>0</ns3:cad>
          </ns3:TrackPointExtension>
        </extensions>
      </trkpt>
      <trkpt lat="47.50275020487606525421142578125" lon="10.10165303014218807220458984375">
        <ele>1797.800048828125</ele>
        <time>2026-09-01T08:59:46.000Z</time>
        <extensions>
          <ns3:TrackPointExtension>
            <ns3:hr>161</ns3:hr>
            <ns3:cad>0</ns3:cad>
          </ns3:TrackPointExtension>
        </extensions>
      </trkpt>
      <trkpt lat="47.50274936668574810028076171875" lon="10.10164506733417510986328125">
        <ele>1798.199951171875</ele>
        <time>2026-09-01T08:59:47.000Z</time>
        <extensions>
          <ns3:TrackPointExtension>
            <ns3:hr>161</ns3:hr>
            <ns3:cad>0</ns3:cad>
          </ns3:TrackPointExtension>
        </extensions>
      </trkpt>
      <trkpt lat="47.50275037251412868499755859375" lon="10.1016242802143096923828125">
        <ele>1798.5999755859375</ele>
        <time>2026-09-01T08:59:48.000Z</time>
        <extensions>
          <ns3:TrackPointExtension>
            <ns3:hr>161</ns3:hr>
            <ns3:cad>59</ns3:cad>
          </ns3:TrackPointExtension>
        </extensions>
      </trkpt>
      <trkpt lat="47.50275355763733386993408203125" lon="10.101601816713809967041015625">
        <ele>1799.4000244140625</ele>
        <time>2026-09-01T08:59:50.000Z</time>
        <extensions>
          <ns3:TrackPointExtension>
            <ns3:hr>160</ns3:hr>
            <ns3:cad>0</ns3:cad>
          </ns3:TrackPointExtension>
        </extensions>
      </trkpt>
      <trkpt lat="47.50276261009275913238525390625" lon="10.1015513576567173004150390625">
        <ele>1800.4000244140625</ele>
        <time>2026-09-01T08:59:53.000Z</time>
        <extensions>
          <ns3:TrackPointExtension>
            <ns3:hr>160</ns3:hr>
            <ns3:cad>0</ns3:cad>
          </ns3:TrackPointExtension>
        </extensions>
      </trkpt>
      <trkpt lat="47.502765543758869171142578125" lon="10.101535432040691375732421875">
        <ele>1800.5999755859375</ele>
        <time>2026-09-01T08:59:54.000Z</time>
        <extensions>
          <ns3:TrackPointExtension>
            <ns3:hr>160</ns3:hr>
            <ns3:cad>0</ns3:cad>
          </ns3:TrackPointExtension>
        </extensions>
      </trkpt>
      <trkpt lat="47.5027734227478504180908203125" lon="10.1014816202223300933837890625">
        <ele>1802</ele>
        <time>2026-09-01T08:59:58.000Z</time>
        <extensions>
          <ns3:TrackPointExtension>
            <ns3:hr>161</ns3:hr>
            <ns3:cad>0</ns3:cad>
          </ns3:TrackPointExtension>
        </extensions>
      </trkpt>
      <trkpt lat="47.50278943218290805816650390625" lon="10.10139704681932926177978515625">
        <ele>1803.199951171875</ele>
        <time>2026-09-01T09:00:02.000Z</time>
        <extensions>
          <ns3:TrackPointExtension>
            <ns3:hr>161</ns3:hr>
            <ns3:cad>0</ns3:cad>
          </ns3:TrackPointExtension>
        </extensions>
      </trkpt>
      <trkpt lat="47.50278465449810028076171875" lon="10.10131808929145336151123046875">
        <ele>1804</ele>
        <time>2026-09-01T09:00:05.000Z</time>
        <extensions>
          <ns3:TrackPointExtension>
            <ns3:hr>162</ns3:hr>
            <ns3:cad>40</ns3:cad>
          </ns3:TrackPointExtension>
        </extensions>
      </trkpt>
      <trkpt lat="47.50277568586170673370361328125" lon="10.101285986602306365966796875">
        <ele>1804.4000244140625</ele>
        <time>2026-09-01T09:00:06.000Z</time>
        <extensions>
          <ns3:TrackPointExtension>
            <ns3:hr>163</ns3:hr>
            <ns3:cad>40</ns3:cad>
          </ns3:TrackPointExtension>
        </extensions>
      </trkpt>
      <trkpt lat="47.50273763202130794525146484375" lon="10.10118506848812103271484375">
        <ele>1804.800048828125</ele>
        <time>2026-09-01T09:00:09.000Z</time>
        <extensions>
          <ns3:TrackPointExtension>
            <ns3:hr>163</ns3:hr>
            <ns3:cad>82</ns3:cad>
          </ns3:TrackPointExtension>
        </extensions>
      </trkpt>
      <trkpt lat="47.50268985517323017120361328125" lon="10.101042576134204864501953125">
        <ele>1805</ele>
        <time>2026-09-01T09:00:13.000Z</time>
        <extensions>
          <ns3:TrackPointExtension>
            <ns3:hr>163</ns3:hr>
            <ns3:cad>85</ns3:cad>
          </ns3:TrackPointExtension>
        </extensions>
      </trkpt>
      <trkpt lat="47.5025930441915988922119140625" lon="10.1008647121489048004150390625">
        <ele>1804.199951171875</ele>
        <time>2026-09-01T09:00:18.000Z</time>
        <extensions>
          <ns3:TrackPointExtension>
            <ns3:hr>163</ns3:hr>
            <ns3:cad>85</ns3:cad>
          </ns3:TrackPointExtension>
        </extensions>
      </trkpt>
      <trkpt lat="47.50255792401731014251708984375" lon="10.10072045959532260894775390625">
        <ele>1803.4000244140625</ele>
        <time>2026-09-01T09:00:21.000Z</time>
        <extensions>
          <ns3:TrackPointExtension>
            <ns3:hr>161</ns3:hr>
            <ns3:cad>85</ns3:cad>
          </ns3:TrackPointExtension>
        </extensions>
      </trkpt>
      <trkpt lat="47.5025444291532039642333984375" lon="10.100669078528881072998046875">
        <ele>1803.199951171875</ele>
        <time>2026-09-01T09:00:22.000Z</time>
        <extensions>
          <ns3:TrackPointExtension>
            <ns3:hr>161</ns3:hr>
            <ns3:cad>86</ns3:cad>
          </ns3:TrackPointExtension>
        </extensions>
      </trkpt>
      <trkpt lat="47.5024969875812530517578125" lon="10.10052801109850406646728515625">
        <ele>1802.4000244140625</ele>
        <time>2026-09-01T09:00:25.000Z</time>
        <extensions>
          <ns3:TrackPointExtension>
            <ns3:hr>160</ns3:hr>
            <ns3:cad>86</ns3:cad>
          </ns3:TrackPointExtension>
        </extensions>
      </trkpt>
      <trkpt lat="47.50244862399995326995849609375" lon="10.1003869436681270599365234375">
        <ele>1801.800048828125</ele>
        <time>2026-09-01T09:00:28.000Z</time>
        <extensions>
          <ns3:TrackPointExtension>
            <ns3:hr>160</ns3:hr>
            <ns3:cad>84</ns3:cad>
          </ns3:TrackPointExtension>
        </extensions>
      </trkpt>
      <trkpt lat="47.50243018381297588348388671875" lon="10.10034712962806224822998046875">
        <ele>1801.4000244140625</ele>
        <time>2026-09-01T09:00:29.000Z</time>
        <extensions>
          <ns3:TrackPointExtension>
            <ns3:hr>160</ns3:hr>
            <ns3:cad>84</ns3:cad>
          </ns3:TrackPointExtension>
        </extensions>
      </trkpt>
      <trkpt lat="47.50239548273384571075439453125" lon="10.10025174356997013092041015625">
        <ele>1800.5999755859375</ele>
        <time>2026-09-01T09:00:31.000Z</time>
        <extensions>
          <ns3:TrackPointExtension>
            <ns3:hr>160</ns3:hr>
            <ns3:cad>83</ns3:cad>
          </ns3:TrackPointExtension>
        </extensions>
      </trkpt>
      <trkpt lat="47.5023630447685718536376953125" lon="10.10016239248216152191162109375">
        <ele>1799.4000244140625</ele>
        <time>2026-09-01T09:00:33.000Z</time>
        <extensions>
          <ns3:TrackPointExtension>
            <ns3:hr>160</ns3:hr>
            <ns3:cad>83</ns3:cad>
          </ns3:TrackPointExtension>
        </extensions>
      </trkpt>
      <trkpt lat="47.50233362428843975067138671875" lon="10.1000731252133846282958984375">
        <ele>1798.199951171875</ele>
        <time>2026-09-01T09:00:35.000Z</time>
        <extensions>
          <ns3:TrackPointExtension>
            <ns3:hr>159</ns3:hr>
            <ns3:cad>83</ns3:cad>
          </ns3:TrackPointExtension>
        </extensions>
      </trkpt>
      <trkpt lat="47.50231929123401641845703125" lon="10.1000302098691463470458984375">
        <ele>1797.4000244140625</ele>
        <time>2026-09-01T09:00:36.000Z</time>
        <extensions>
          <ns3:TrackPointExtension>
            <ns3:hr>159</ns3:hr>
            <ns3:cad>83</ns3:cad>
          </ns3:TrackPointExtension>
        </extensions>
      </trkpt>
      <trkpt lat="47.5023087300360202789306640625" lon="10.09998746216297149658203125">
        <ele>1796.800048828125</ele>
        <time>2026-09-01T09:00:37.000Z</time>
        <extensions>
          <ns3:TrackPointExtension>
            <ns3:hr>159</ns3:hr>
            <ns3:cad>83</ns3:cad>
          </ns3:TrackPointExtension>
        </extensions>
      </trkpt>
      <trkpt lat="47.50227578915655612945556640625" lon="10.09989735670387744903564453125">
        <ele>1795.5999755859375</ele>
        <time>2026-09-01T09:00:39.000Z</time>
        <extensions>
          <ns3:TrackPointExtension>
            <ns3:hr>158</ns3:hr>
            <ns3:cad>83</ns3:cad>
          </ns3:TrackPointExtension>
        </extensions>
      </trkpt>
      <trkpt lat="47.50226824544370174407958984375" lon="10.09983734227716922760009765625">
        <ele>1794.800048828125</ele>
        <time>2026-09-01T09:00:40.000Z</time>
        <extensions>
          <ns3:TrackPointExtension>
            <ns3:hr>157</ns3:hr>
            <ns3:cad>83</ns3:cad>
          </ns3:TrackPointExtension>
        </extensions>
      </trkpt>
      <trkpt lat="47.50226522795855998992919921875" lon="10.0997948460280895233154296875">
        <ele>1794.199951171875</ele>
        <time>2026-09-01T09:00:41.000Z</time>
        <extensions>
          <ns3:TrackPointExtension>
            <ns3:hr>157</ns3:hr>
            <ns3:cad>83</ns3:cad>
          </ns3:TrackPointExtension>
        </extensions>
      </trkpt>
      <trkpt lat="47.50224963761866092681884765625" lon="10.09969971142709255218505859375">
        <ele>1792.5999755859375</ele>
        <time>2026-09-01T09:00:43.000Z</time>
        <extensions>
          <ns3:TrackPointExtension>
            <ns3:hr>157</ns3:hr>
            <ns3:cad>83</ns3:cad>
          </ns3:TrackPointExtension>
        </extensions>
      </trkpt>
      <trkpt lat="47.50222030095756053924560546875" lon="10.0996003858745098114013671875">
        <ele>1791</ele>
        <time>2026-09-01T09:00:45.000Z</time>
        <extensions>
          <ns3:TrackPointExtension>
            <ns3:hr>156</ns3:hr>
            <ns3:cad>83</ns3:cad>
          </ns3:TrackPointExtension>
        </extensions>
      </trkpt>
      <trkpt lat="47.5022024475038051605224609375" lon="10.09951028041541576385498046875">
        <ele>1789.4000244140625</ele>
        <time>2026-09-01T09:00:47.000Z</time>
        <extensions>
          <ns3:TrackPointExtension>
            <ns3:hr>155</ns3:hr>
            <ns3:cad>88</ns3:cad>
          </ns3:TrackPointExtension>
        </extensions>
      </trkpt>
      <trkpt lat="47.5021992623805999755859375" lon="10.0994173251092433929443359375">
        <ele>1787.5999755859375</ele>
        <time>2026-09-01T09:00:49.000Z</time>
        <extensions>
          <ns3:TrackPointExtension>
            <ns3:hr>154</ns3:hr>
            <ns3:cad>91</ns3:cad>
          </ns3:TrackPointExtension>
        </extensions>
      </trkpt>
      <trkpt lat="47.50218777917325496673583984375" lon="10.09931397624313831329345703125">
        <ele>1785.800048828125</ele>
        <time>2026-09-01T09:00:51.000Z</time>
        <extensions>
          <ns3:TrackPointExtension>
            <ns3:hr>153</ns3:hr>
            <ns3:cad>91</ns3:cad>
          </ns3:TrackPointExtension>
        </extensions>
      </trkpt>
      <trkpt lat="47.502196915447711944580078125" lon="10.09919545613229274749755859375">
        <ele>1784.199951171875</ele>
        <time>2026-09-01T09:00:53.000Z</time>
        <extensions>
          <ns3:TrackPointExtension>
            <ns3:hr>153</ns3:hr>
            <ns3:cad>91</ns3:cad>
          </ns3:TrackPointExtension>
        </extensions>
      </trkpt>
      <trkpt lat="47.5022078119218349456787109375" lon="10.09914633817970752716064453125">
        <ele>1783.5999755859375</ele>
        <time>2026-09-01T09:00:54.000Z</time>
        <extensions>
          <ns3:TrackPointExtension>
            <ns3:hr>153</ns3:hr>
            <ns3:cad>91</ns3:cad>
          </ns3:TrackPointExtension>
        </extensions>
      </trkpt>
      <trkpt lat="47.5022113323211669921875" lon="10.0990813784301280975341796875">
        <ele>1783</ele>
        <time>2026-09-01T09:00:55.000Z</time>
        <extensions>
          <ns3:TrackPointExtension>
            <ns3:hr>153</ns3:hr>
            <ns3:cad>91</ns3:cad>
          </ns3:TrackPointExtension>
        </extensions>
      </trkpt>
      <trkpt lat="47.5022088177502155303955078125" lon="10.098975263535976409912109375">
        <ele>1782</ele>
        <time>2026-09-01T09:00:57.000Z</time>
        <extensions>
          <ns3:TrackPointExtension>
            <ns3:hr>153</ns3:hr>
            <ns3:cad>83</ns3:cad>
          </ns3:TrackPointExtension>
        </extensions>
      </trkpt>
      <trkpt lat="47.5021830014884471893310546875" lon="10.0988745130598545074462890625">
        <ele>1780.800048828125</ele>
        <time>2026-09-01T09:00:59.000Z</time>
        <extensions>
          <ns3:TrackPointExtension>
            <ns3:hr>153</ns3:hr>
            <ns3:cad>87</ns3:cad>
          </ns3:TrackPointExtension>
        </extensions>
      </trkpt>
      <trkpt lat="47.50216498039662837982177734375" lon="10.0987712480127811431884765625">
        <ele>1779.800048828125</ele>
        <time>2026-09-01T09:01:01.000Z</time>
        <extensions>
          <ns3:TrackPointExtension>
            <ns3:hr>153</ns3:hr>
            <ns3:cad>87</ns3:cad>
          </ns3:TrackPointExtension>
        </extensions>
      </trkpt>
      <trkpt lat="47.5021457858383655548095703125" lon="10.0986585952341556549072265625">
        <ele>1778.4000244140625</ele>
        <time>2026-09-01T09:01:03.000Z</time>
        <extensions>
          <ns3:TrackPointExtension>
            <ns3:hr>152</ns3:hr>
            <ns3:cad>85</ns3:cad>
          </ns3:TrackPointExtension>
        </extensions>
      </trkpt>
      <trkpt lat="47.50212709419429302215576171875" lon="10.0986041128635406494140625">
        <ele>1777.800048828125</ele>
        <time>2026-09-01T09:01:04.000Z</time>
        <extensions>
          <ns3:TrackPointExtension>
            <ns3:hr>152</ns3:hr>
            <ns3:cad>84</ns3:cad>
          </ns3:TrackPointExtension>
        </extensions>
      </trkpt>
      <trkpt lat="47.50210932455956935882568359375" lon="10.09856513701379299163818359375">
        <ele>1777.199951171875</ele>
        <time>2026-09-01T09:01:05.000Z</time>
        <extensions>
          <ns3:TrackPointExtension>
            <ns3:hr>152</ns3:hr>
            <ns3:cad>84</ns3:cad>
          </ns3:TrackPointExtension>
        </extensions>
      </trkpt>
      <trkpt lat="47.50208996236324310302734375" lon="10.09846136905252933502197265625">
        <ele>1775.5999755859375</ele>
        <time>2026-09-01T09:01:07.000Z</time>
        <extensions>
          <ns3:TrackPointExtension>
            <ns3:hr>152</ns3:hr>
            <ns3:cad>86</ns3:cad>
          </ns3:TrackPointExtension>
        </extensions>
      </trkpt>
      <trkpt lat="47.50208702869713306427001953125" lon="10.09836011566221714019775390625">
        <ele>1774.4000244140625</ele>
        <time>2026-09-01T09:01:09.000Z</time>
        <extensions>
          <ns3:TrackPointExtension>
            <ns3:hr>152</ns3:hr>
            <ns3:cad>92</ns3:cad>
          </ns3:TrackPointExtension>
        </extensions>
      </trkpt>
      <trkpt lat="47.50209130346775054931640625" lon="10.0982928089797496795654296875">
        <ele>1773</ele>
        <time>2026-09-01T09:01:11.000Z</time>
        <extensions>
          <ns3:TrackPointExtension>
            <ns3:hr>152</ns3:hr>
            <ns3:cad>94</ns3:cad>
          </ns3:TrackPointExtension>
        </extensions>
      </trkpt>
      <trkpt lat="47.502098344266414642333984375" lon="10.0981757976114749908447265625">
        <ele>1770.5999755859375</ele>
        <time>2026-09-01T09:01:14.000Z</time>
        <extensions>
          <ns3:TrackPointExtension>
            <ns3:hr>151</ns3:hr>
            <ns3:cad>94</ns3:cad>
          </ns3:TrackPointExtension>
        </extensions>
      </trkpt>
      <trkpt lat="47.50211116857826709747314453125" lon="10.098120309412479400634765625">
        <ele>1769.199951171875</ele>
        <time>2026-09-01T09:01:15.000Z</time>
        <extensions>
          <ns3:TrackPointExtension>
            <ns3:hr>151</ns3:hr>
            <ns3:cad>94</ns3:cad>
          </ns3:TrackPointExtension>
        </extensions>
      </trkpt>
      <trkpt lat="47.50212189741432666778564453125" lon="10.09808217175304889678955078125">
        <ele>1767.800048828125</ele>
        <time>2026-09-01T09:01:16.000Z</time>
        <extensions>
          <ns3:TrackPointExtension>
            <ns3:hr>151</ns3:hr>
            <ns3:cad>94</ns3:cad>
          </ns3:TrackPointExtension>
        </extensions>
      </trkpt>
      <trkpt lat="47.5021441094577312469482421875" lon="10.098024420440196990966796875">
        <ele>1766.800048828125</ele>
        <time>2026-09-01T09:01:17.000Z</time>
        <extensions>
          <ns3:TrackPointExtension>
            <ns3:hr>152</ns3:hr>
            <ns3:cad>94</ns3:cad>
          </ns3:TrackPointExtension>
        </extensions>
      </trkpt>
      <trkpt lat="47.502164728939533233642578125" lon="10.09797354228794574737548828125">
        <ele>1766.4000244140625</ele>
        <time>2026-09-01T09:01:18.000Z</time>
        <extensions>
          <ns3:TrackPointExtension>
            <ns3:hr>152</ns3:hr>
            <ns3:cad>94</ns3:cad>
          </ns3:TrackPointExtension>
        </extensions>
      </trkpt>
      <trkpt lat="47.50217311084270477294921875" lon="10.09792475961148738861083984375">
        <ele>1765.800048828125</ele>
        <time>2026-09-01T09:01:19.000Z</time>
        <extensions>
          <ns3:TrackPointExtension>
            <ns3:hr>152</ns3:hr>
            <ns3:cad>94</ns3:cad>
          </ns3:TrackPointExtension>
        </extensions>
      </trkpt>
      <trkpt lat="47.502168081700801849365234375" lon="10.097862146794795989990234375">
        <ele>1765</ele>
        <time>2026-09-01T09:01:20.000Z</time>
        <extensions>
          <ns3:TrackPointExtension>
            <ns3:hr>151</ns3:hr>
            <ns3:cad>94</ns3:cad>
          </ns3:TrackPointExtension>
        </extensions>
      </trkpt>
      <trkpt lat="47.50214553438127040863037109375" lon="10.0978267751634120941162109375">
        <ele>1764.199951171875</ele>
        <time>2026-09-01T09:01:21.000Z</time>
        <extensions>
          <ns3:TrackPointExtension>
            <ns3:hr>152</ns3:hr>
            <ns3:cad>94</ns3:cad>
          </ns3:TrackPointExtension>
        </extensions>
      </trkpt>
      <trkpt lat="47.50209666788578033447265625" lon="10.09775695390999317169189453125">
        <ele>1762.800048828125</ele>
        <time>2026-09-01T09:01:23.000Z</time>
        <extensions>
          <ns3:TrackPointExtension>
            <ns3:hr>152</ns3:hr>
            <ns3:cad>94</ns3:cad>
          </ns3:TrackPointExtension>
        </extensions>
      </trkpt>
      <trkpt lat="47.5020737014710903167724609375" lon="10.09771102108061313629150390625">
        <ele>1762</ele>
        <time>2026-09-01T09:01:24.000Z</time>
        <extensions>
          <ns3:TrackPointExtension>
            <ns3:hr>152</ns3:hr>
            <ns3:cad>83</ns3:cad>
          </ns3:TrackPointExtension>
        </extensions>
      </trkpt>
      <trkpt lat="47.5020562671124935150146484375" lon="10.09767581708729267120361328125">
        <ele>1761.4000244140625</ele>
        <time>2026-09-01T09:01:25.000Z</time>
        <extensions>
          <ns3:TrackPointExtension>
            <ns3:hr>152</ns3:hr>
            <ns3:cad>83</ns3:cad>
          </ns3:TrackPointExtension>
        </extensions>
      </trkpt>
      <trkpt lat="47.50200522132217884063720703125" lon="10.09761479683220386505126953125">
        <ele>1759.800048828125</ele>
        <time>2026-09-01T09:01:27.000Z</time>
        <extensions>
          <ns3:TrackPointExtension>
            <ns3:hr>151</ns3:hr>
            <ns3:cad>85</ns3:cad>
          </ns3:TrackPointExtension>
        </extensions>
      </trkpt>
      <trkpt lat="47.50194353051483631134033203125" lon="10.097565092146396636962890625">
        <ele>1758.4000244140625</ele>
        <time>2026-09-01T09:01:29.000Z</time>
        <extensions>
          <ns3:TrackPointExtension>
            <ns3:hr>150</ns3:hr>
            <ns3:cad>87</ns3:cad>
          </ns3:TrackPointExtension>
        </extensions>
      </trkpt>
      <trkpt lat="47.50191872008144855499267578125" lon="10.097543634474277496337890625">
        <ele>1757.5999755859375</ele>
        <time>2026-09-01T09:01:30.000Z</time>
        <extensions>
          <ns3:TrackPointExtension>
            <ns3:hr>150</ns3:hr>
            <ns3:cad>87</ns3:cad>
          </ns3:TrackPointExtension>
        </extensions>
      </trkpt>
      <trkpt lat="47.50189726240932941436767578125" lon="10.09749409742653369903564453125">
        <ele>1757</ele>
        <time>2026-09-01T09:01:31.000Z</time>
        <extensions>
          <ns3:TrackPointExtension>
            <ns3:hr>150</ns3:hr>
            <ns3:cad>87</ns3:cad>
          </ns3:TrackPointExtension>
        </extensions>
      </trkpt>
      <trkpt lat="47.5018581189215183258056640625" lon="10.097420923411846160888671875">
        <ele>1755.5999755859375</ele>
        <time>2026-09-01T09:01:33.000Z</time>
        <extensions>
          <ns3:TrackPointExtension>
            <ns3:hr>150</ns3:hr>
            <ns3:cad>85</ns3:cad>
          </ns3:TrackPointExtension>
        </extensions>
      </trkpt>
      <trkpt lat="47.50183171592652797698974609375" lon="10.0973406247794628143310546875">
        <ele>1754.199951171875</ele>
        <time>2026-09-01T09:01:35.000Z</time>
        <extensions>
          <ns3:TrackPointExtension>
            <ns3:hr>149</ns3:hr>
            <ns3:cad>85</ns3:cad>
          </ns3:TrackPointExtension>
        </extensions>
      </trkpt>
      <trkpt lat="47.50182442367076873779296875" lon="10.0972832925617694854736328125">
        <ele>1753.5999755859375</ele>
        <time>2026-09-01T09:01:36.000Z</time>
        <extensions>
          <ns3:TrackPointExtension>
            <ns3:hr>149</ns3:hr>
            <ns3:cad>85</ns3:cad>
          </ns3:TrackPointExtension>
        </extensions>
      </trkpt>
      <trkpt lat="47.501814700663089752197265625" lon="10.09724549017846584320068359375">
        <ele>1753</ele>
        <time>2026-09-01T09:01:37.000Z</time>
        <extensions>
          <ns3:TrackPointExtension>
            <ns3:hr>149</ns3:hr>
            <ns3:cad>85</ns3:cad>
          </ns3:TrackPointExtension>
        </extensions>
      </trkpt>
      <trkpt lat="47.5017915666103363037109375" lon="10.097159408032894134521484375">
        <ele>1752</ele>
        <time>2026-09-01T09:01:39.000Z</time>
        <extensions>
          <ns3:TrackPointExtension>
            <ns3:hr>149</ns3:hr>
            <ns3:cad>85</ns3:cad>
          </ns3:TrackPointExtension>
        </extensions>
      </trkpt>
      <trkpt lat="47.50175577588379383087158203125" lon="10.09706611745059490203857421875">
        <ele>1750.5999755859375</ele>
        <time>2026-09-01T09:01:41.000Z</time>
        <extensions>
          <ns3:TrackPointExtension>
            <ns3:hr>148</ns3:hr>
            <ns3:cad>85</ns3:cad>
          </ns3:TrackPointExtension>
        </extensions>
      </trkpt>
      <trkpt lat="47.50173632986843585968017578125" lon="10.09701549075543880462646484375">
        <ele>1749.800048828125</ele>
        <time>2026-09-01T09:01:42.000Z</time>
        <extensions>
          <ns3:TrackPointExtension>
            <ns3:hr>148</ns3:hr>
            <ns3:cad>85</ns3:cad>
          </ns3:TrackPointExtension>
        </extensions>
      </trkpt>
      <trkpt lat="47.5017209909856319427490234375" lon="10.09696922264993190765380859375">
        <ele>1749</ele>
        <time>2026-09-01T09:01:43.000Z</time>
        <extensions>
          <ns3:TrackPointExtension>
            <ns3:hr>148</ns3:hr>
            <ns3:cad>87</ns3:cad>
          </ns3:TrackPointExtension>
        </extensions>
      </trkpt>
      <trkpt lat="47.501682937145233154296875" lon="10.09688355959951877593994140625">
        <ele>1747</ele>
        <time>2026-09-01T09:01:45.000Z</time>
        <extensions>
          <ns3:TrackPointExtension>
            <ns3:hr>148</ns3:hr>
            <ns3:cad>88</ns3:cad>
          </ns3:TrackPointExtension>
        </extensions>
      </trkpt>
      <trkpt lat="47.50164815224707126617431640625" lon="10.09678490459918975830078125">
        <ele>1745.4000244140625</ele>
        <time>2026-09-01T09:01:47.000Z</time>
        <extensions>
          <ns3:TrackPointExtension>
            <ns3:hr>148</ns3:hr>
            <ns3:cad>89</ns3:cad>
          </ns3:TrackPointExtension>
        </extensions>
      </trkpt>
      <trkpt lat="47.501635663211345672607421875" lon="10.0967453420162200927734375">
        <ele>1744.5999755859375</ele>
        <time>2026-09-01T09:01:48.000Z</time>
        <extensions>
          <ns3:TrackPointExtension>
            <ns3:hr>148</ns3:hr>
            <ns3:cad>88</ns3:cad>
          </ns3:TrackPointExtension>
        </extensions>
      </trkpt>
      <trkpt lat="47.5016150437295436859130859375" lon="10.0966891832649707794189453125">
        <ele>1743.800048828125</ele>
        <time>2026-09-01T09:01:49.000Z</time>
        <extensions>
          <ns3:TrackPointExtension>
            <ns3:hr>148</ns3:hr>
            <ns3:cad>85</ns3:cad>
          </ns3:TrackPointExtension>
        </extensions>
      </trkpt>
      <trkpt lat="47.5015875510871410369873046875" lon="10.09659974835813045501708984375">
        <ele>1742.5999755859375</ele>
        <time>2026-09-01T09:01:51.000Z</time>
        <extensions>
          <ns3:TrackPointExtension>
            <ns3:hr>148</ns3:hr>
            <ns3:cad>85</ns3:cad>
          </ns3:TrackPointExtension>
        </extensions>
      </trkpt>
      <trkpt lat="47.5015608966350555419921875" lon="10.0965077988803386688232421875">
        <ele>1741.4000244140625</ele>
        <time>2026-09-01T09:01:53.000Z</time>
        <extensions>
          <ns3:TrackPointExtension>
            <ns3:hr>149</ns3:hr>
            <ns3:cad>85</ns3:cad>
          </ns3:TrackPointExtension>
        </extensions>
      </trkpt>
      <trkpt lat="47.5015275366604328155517578125" lon="10.0964100658893585205078125">
        <ele>1739.800048828125</ele>
        <time>2026-09-01T09:01:55.000Z</time>
        <extensions>
          <ns3:TrackPointExtension>
            <ns3:hr>148</ns3:hr>
            <ns3:cad>84</ns3:cad>
          </ns3:TrackPointExtension>
        </extensions>
      </trkpt>
      <trkpt lat="47.50149593688547611236572265625" lon="10.09630990214645862579345703125">
        <ele>1738.5999755859375</ele>
        <time>2026-09-01T09:01:57.000Z</time>
        <extensions>
          <ns3:TrackPointExtension>
            <ns3:hr>148</ns3:hr>
            <ns3:cad>83</ns3:cad>
          </ns3:TrackPointExtension>
        </extensions>
      </trkpt>
      <trkpt lat="47.501450590789318084716796875" lon="10.09620848111808300018310546875">
        <ele>1737.5999755859375</ele>
        <time>2026-09-01T09:01:59.000Z</time>
        <extensions>
          <ns3:TrackPointExtension>
            <ns3:hr>148</ns3:hr>
            <ns3:cad>82</ns3:cad>
          </ns3:TrackPointExtension>
        </extensions>
      </trkpt>
      <trkpt lat="47.50144346617162227630615234375" lon="10.0961624644696712493896484375">
        <ele>1737.199951171875</ele>
        <time>2026-09-01T09:02:00.000Z</time>
        <extensions>
          <ns3:TrackPointExtension>
            <ns3:hr>149</ns3:hr>
            <ns3:cad>82</ns3:cad>
          </ns3:TrackPointExtension>
        </extensions>
      </trkpt>
      <trkpt lat="47.50141999684274196624755859375" lon="10.0960545055568218231201171875">
        <ele>1736.4000244140625</ele>
        <time>2026-09-01T09:02:02.000Z</time>
        <extensions>
          <ns3:TrackPointExtension>
            <ns3:hr>149</ns3:hr>
            <ns3:cad>82</ns3:cad>
          </ns3:TrackPointExtension>
        </extensions>
      </trkpt>
      <trkpt lat="47.50140130519866943359375" lon="10.09594176895916461944580078125">
        <ele>1736</ele>
        <time>2026-09-01T09:02:04.000Z</time>
        <extensions>
          <ns3:TrackPointExtension>
            <ns3:hr>148</ns3:hr>
            <ns3:cad>82</ns3:cad>
          </ns3:TrackPointExtension>
        </extensions>
      </trkpt>
      <trkpt lat="47.501366436481475830078125" lon="10.0958298705518245697021484375">
        <ele>1735.199951171875</ele>
        <time>2026-09-01T09:02:06.000Z</time>
        <extensions>
          <ns3:TrackPointExtension>
            <ns3:hr>148</ns3:hr>
            <ns3:cad>85</ns3:cad>
          </ns3:TrackPointExtension>
        </extensions>
      </trkpt>
      <trkpt lat="47.5013525225222110748291015625" lon="10.095784775912761688232421875">
        <ele>1734.800048828125</ele>
        <time>2026-09-01T09:02:07.000Z</time>
        <extensions>
          <ns3:TrackPointExtension>
            <ns3:hr>148</ns3:hr>
            <ns3:cad>85</ns3:cad>
          </ns3:TrackPointExtension>
        </extensions>
      </trkpt>
      <trkpt lat="47.50131337903439998626708984375" lon="10.09568863548338413238525390625">
        <ele>1734.199951171875</ele>
        <time>2026-09-01T09:02:09.000Z</time>
        <extensions>
          <ns3:TrackPointExtension>
            <ns3:hr>149</ns3:hr>
            <ns3:cad>85</ns3:cad>
          </ns3:TrackPointExtension>
        </extensions>
      </trkpt>
      <trkpt lat="47.50129225663840770721435546875" lon="10.0956518389284610748291015625">
        <ele>1733.800048828125</ele>
        <time>2026-09-01T09:02:10.000Z</time>
        <extensions>
          <ns3:TrackPointExtension>
            <ns3:hr>149</ns3:hr>
            <ns3:cad>85</ns3:cad>
          </ns3:TrackPointExtension>
        </extensions>
      </trkpt>
      <trkpt lat="47.50123165547847747802734375" lon="10.0955603085458278656005859375">
        <ele>1733</ele>
        <time>2026-09-01T09:02:12.000Z</time>
        <extensions>
          <ns3:TrackPointExtension>
            <ns3:hr>148</ns3:hr>
            <ns3:cad>84</ns3:cad>
          </ns3:TrackPointExtension>
        </extensions>
      </trkpt>
      <trkpt lat="47.501203827559947967529296875" lon="10.09551412425935268402099609375">
        <ele>1732.5999755859375</ele>
        <time>2026-09-01T09:02:13.000Z</time>
        <extensions>
          <ns3:TrackPointExtension>
            <ns3:hr>147</ns3:hr>
            <ns3:cad>83</ns3:cad>
          </ns3:TrackPointExtension>
        </extensions>
      </trkpt>
      <trkpt lat="47.50113735906779766082763671875" lon="10.09537314064800739288330078125">
        <ele>1731.4000244140625</ele>
        <time>2026-09-01T09:02:16.000Z</time>
        <extensions>
          <ns3:TrackPointExtension>
            <ns3:hr>149</ns3:hr>
            <ns3:cad>84</ns3:cad>
          </ns3:TrackPointExtension>
        </extensions>
      </trkpt>
      <trkpt lat="47.5010742433369159698486328125" lon="10.095245651900768280029296875">
        <ele>1730.4000244140625</ele>
        <time>2026-09-01T09:02:19.000Z</time>
        <extensions>
          <ns3:TrackPointExtension>
            <ns3:hr>149</ns3:hr>
            <ns3:cad>84</ns3:cad>
          </ns3:TrackPointExtension>
        </extensions>
      </trkpt>
      <trkpt lat="47.50105907209217548370361328125" lon="10.09520516730844974517822265625">
        <ele>1730.199951171875</ele>
        <time>2026-09-01T09:02:20.000Z</time>
        <extensions>
          <ns3:TrackPointExtension>
            <ns3:hr>149</ns3:hr>
            <ns3:cad>84</ns3:cad>
          </ns3:TrackPointExtension>
        </extensions>
      </trkpt>
      <trkpt lat="47.501020096242427825927734375" lon="10.09511330164968967437744140625">
        <ele>1729.4000244140625</ele>
        <time>2026-09-01T09:02:22.000Z</time>
        <extensions>
          <ns3:TrackPointExtension>
            <ns3:hr>147</ns3:hr>
            <ns3:cad>84</ns3:cad>
          </ns3:TrackPointExtension>
        </extensions>
      </trkpt>
      <trkpt lat="47.50098648481070995330810546875" lon="10.09501774795353412628173828125">
        <ele>1728.5999755859375</ele>
        <time>2026-09-01T09:02:24.000Z</time>
        <extensions>
          <ns3:TrackPointExtension>
            <ns3:hr>146</ns3:hr>
            <ns3:cad>84</ns3:cad>
          </ns3:TrackPointExtension>
        </extensions>
      </trkpt>
      <trkpt lat="47.50093200244009494781494140625" lon="10.0949480943381786346435546875">
        <ele>1728</ele>
        <time>2026-09-01T09:02:26.000Z</time>
        <extensions>
          <ns3:TrackPointExtension>
            <ns3:hr>145</ns3:hr>
            <ns3:cad>84</ns3:cad>
          </ns3:TrackPointExtension>
        </extensions>
      </trkpt>
      <trkpt lat="47.50090970657765865325927734375" lon="10.09491942822933197021484375">
        <ele>1727.5999755859375</ele>
        <time>2026-09-01T09:02:27.000Z</time>
        <extensions>
          <ns3:TrackPointExtension>
            <ns3:hr>145</ns3:hr>
            <ns3:cad>84</ns3:cad>
          </ns3:TrackPointExtension>
        </extensions>
      </trkpt>
      <trkpt lat="47.50086419284343719482421875" lon="10.09484566748142242431640625">
        <ele>1726.800048828125</ele>
        <time>2026-09-01T09:02:29.000Z</time>
        <extensions>
          <ns3:TrackPointExtension>
            <ns3:hr>144</ns3:hr>
            <ns3:cad>84</ns3:cad>
          </ns3:TrackPointExtension>
        </extensions>
      </trkpt>
      <trkpt lat="47.500841058790683746337890625" lon="10.094823203980922698974609375">
        <ele>1726.4000244140625</ele>
        <time>2026-09-01T09:02:30.000Z</time>
        <extensions>
          <ns3:TrackPointExtension>
            <ns3:hr>144</ns3:hr>
            <ns3:cad>83</ns3:cad>
          </ns3:TrackPointExtension>
        </extensions>
      </trkpt>
      <trkpt lat="47.500784061849117279052734375" lon="10.0947526283562183380126953125">
        <ele>1725.4000244140625</ele>
        <time>2026-09-01T09:02:32.000Z</time>
        <extensions>
          <ns3:TrackPointExtension>
            <ns3:hr>144</ns3:hr>
            <ns3:cad>82</ns3:cad>
          </ns3:TrackPointExtension>
        </extensions>
      </trkpt>
      <trkpt lat="47.50073418952524662017822265625" lon="10.09468984790146350860595703125">
        <ele>1724.4000244140625</ele>
        <time>2026-09-01T09:02:34.000Z</time>
        <extensions>
          <ns3:TrackPointExtension>
            <ns3:hr>144</ns3:hr>
            <ns3:cad>82</ns3:cad>
          </ns3:TrackPointExtension>
        </extensions>
      </trkpt>
      <trkpt lat="47.50068607740104198455810546875" lon="10.09458540938794612884521484375">
        <ele>1723</ele>
        <time>2026-09-01T09:02:37.000Z</time>
        <extensions>
          <ns3:TrackPointExtension>
            <ns3:hr>144</ns3:hr>
            <ns3:cad>84</ns3:cad>
          </ns3:TrackPointExtension>
        </extensions>
      </trkpt>
      <trkpt lat="47.50066344626247882843017578125" lon="10.09455556981265544891357421875">
        <ele>1722.4000244140625</ele>
        <time>2026-09-01T09:02:38.000Z</time>
        <extensions>
          <ns3:TrackPointExtension>
            <ns3:hr>144</ns3:hr>
            <ns3:cad>84</ns3:cad>
          </ns3:TrackPointExtension>
        </extensions>
      </trkpt>
      <trkpt lat="47.50064601190388202667236328125" lon="10.09453897364437580108642578125">
        <ele>1722</ele>
        <time>2026-09-01T09:02:39.000Z</time>
        <extensions>
          <ns3:TrackPointExtension>
            <ns3:hr>144</ns3:hr>
            <ns3:cad>84</ns3:cad>
          </ns3:TrackPointExtension>
        </extensions>
      </trkpt>
      <trkpt lat="47.5005994923412799835205078125" lon="10.0944646261632442474365234375">
        <ele>1720.800048828125</ele>
        <time>2026-09-01T09:02:41.000Z</time>
        <extensions>
          <ns3:TrackPointExtension>
            <ns3:hr>144</ns3:hr>
            <ns3:cad>89</ns3:cad>
          </ns3:TrackPointExtension>
        </extensions>
      </trkpt>
      <trkpt lat="47.50055842101573944091796875" lon="10.0943891890347003936767578125">
        <ele>1719.800048828125</ele>
        <time>2026-09-01T09:02:43.000Z</time>
        <extensions>
          <ns3:TrackPointExtension>
            <ns3:hr>144</ns3:hr>
            <ns3:cad>89</ns3:cad>
          </ns3:TrackPointExtension>
        </extensions>
      </trkpt>
      <trkpt lat="47.50051927752792835235595703125" lon="10.09432506747543811798095703125">
        <ele>1718.4000244140625</ele>
        <time>2026-09-01T09:02:45.000Z</time>
        <extensions>
          <ns3:TrackPointExtension>
            <ns3:hr>144</ns3:hr>
            <ns3:cad>89</ns3:cad>
          </ns3:TrackPointExtension>
        </extensions>
      </trkpt>
      <trkpt lat="47.5004663877189159393310546875" lon="10.09429304860532283782958984375">
        <ele>1716.800048828125</ele>
        <time>2026-09-01T09:02:47.000Z</time>
        <extensions>
          <ns3:TrackPointExtension>
            <ns3:hr>145</ns3:hr>
            <ns3:cad>89</ns3:cad>
          </ns3:TrackPointExtension>
        </extensions>
      </trkpt>
      <trkpt lat="47.5004244782030582427978515625" lon="10.0942570902407169342041015625">
        <ele>1715</ele>
        <time>2026-09-01T09:02:49.000Z</time>
        <extensions>
          <ns3:TrackPointExtension>
            <ns3:hr>146</ns3:hr>
            <ns3:cad>89</ns3:cad>
          </ns3:TrackPointExtension>
        </extensions>
      </trkpt>
      <trkpt lat="47.500401176512241363525390625" lon="10.09423152543604373931884765625">
        <ele>1714</ele>
        <time>2026-09-01T09:02:50.000Z</time>
        <extensions>
          <ns3:TrackPointExtension>
            <ns3:hr>145</ns3:hr>
            <ns3:cad>89</ns3:cad>
          </ns3:TrackPointExtension>
        </extensions>
      </trkpt>
      <trkpt lat="47.50037225894629955291748046875" lon="10.09418240748345851898193359375">
        <ele>1712.199951171875</ele>
        <time>2026-09-01T09:02:52.000Z</time>
        <extensions>
          <ns3:TrackPointExtension>
            <ns3:hr>145</ns3:hr>
            <ns3:cad>89</ns3:cad>
          </ns3:TrackPointExtension>
        </extensions>
      </trkpt>
      <trkpt lat="47.50036672689020633697509765625" lon="10.09418374858796596527099609375">
        <ele>1711.5999755859375</ele>
        <time>2026-09-01T09:02:53.000Z</time>
        <extensions>
          <ns3:TrackPointExtension>
            <ns3:hr>145</ns3:hr>
            <ns3:cad>88</ns3:cad>
          </ns3:TrackPointExtension>
        </extensions>
      </trkpt>
      <trkpt lat="47.50036739744246006011962890625" lon="10.09418726898729801177978515625">
        <ele>1711</ele>
        <time>2026-09-01T09:02:54.000Z</time>
        <extensions>
          <ns3:TrackPointExtension>
            <ns3:hr>146</ns3:hr>
            <ns3:cad>0</ns3:cad>
          </ns3:TrackPointExtension>
        </extensions>
      </trkpt>
      <trkpt lat="47.50036605633795261383056640625" lon="10.0941736064851284027099609375">
        <ele>1710.800048828125</ele>
        <time>2026-09-01T09:02:55.000Z</time>
        <extensions>
          <ns3:TrackPointExtension>
            <ns3:hr>146</ns3:hr>
            <ns3:cad>0</ns3:cad>
          </ns3:TrackPointExtension>
        </extensions>
      </trkpt>
      <trkpt lat="47.5003440119326114654541015625" lon="10.0941181182861328125">
        <ele>1710.4000244140625</ele>
        <time>2026-09-01T09:02:57.000Z</time>
        <extensions>
          <ns3:TrackPointExtension>
            <ns3:hr>146</ns3:hr>
            <ns3:cad>43</ns3:cad>
          </ns3:TrackPointExtension>
        </extensions>
      </trkpt>
      <trkpt lat="47.500331103801727294921875" lon="10.09407277218997478485107421875">
        <ele>1710</ele>
        <time>2026-09-01T09:02:58.000Z</time>
        <extensions>
          <ns3:TrackPointExtension>
            <ns3:hr>145</ns3:hr>
            <ns3:cad>85</ns3:cad>
          </ns3:TrackPointExtension>
        </extensions>
      </trkpt>
      <trkpt lat="47.500298917293548583984375" lon="10.09400420822203159332275390625">
        <ele>1708.5999755859375</ele>
        <time>2026-09-01T09:03:00.000Z</time>
        <extensions>
          <ns3:TrackPointExtension>
            <ns3:hr>146</ns3:hr>
            <ns3:cad>85</ns3:cad>
          </ns3:TrackPointExtension>
        </extensions>
      </trkpt>
      <trkpt lat="47.50027905218303203582763671875" lon="10.09397939778864383697509765625">
        <ele>1707.800048828125</ele>
        <time>2026-09-01T09:03:01.000Z</time>
        <extensions>
          <ns3:TrackPointExtension>
            <ns3:hr>145</ns3:hr>
            <ns3:cad>86</ns3:cad>
          </ns3:TrackPointExtension>
        </extensions>
      </trkpt>
      <trkpt lat="47.50025876797735691070556640625" lon="10.09394570253789424896240234375">
        <ele>1707.199951171875</ele>
        <time>2026-09-01T09:03:02.000Z</time>
        <extensions>
          <ns3:TrackPointExtension>
            <ns3:hr>145</ns3:hr>
            <ns3:cad>88</ns3:cad>
          </ns3:TrackPointExtension>
        </extensions>
      </trkpt>
      <trkpt lat="47.50023378990590572357177734375" lon="10.0938812457025051116943359375">
        <ele>1705.800048828125</ele>
        <time>2026-09-01T09:03:04.000Z</time>
        <extensions>
          <ns3:TrackPointExtension>
            <ns3:hr>143</ns3:hr>
            <ns3:cad>88</ns3:cad>
          </ns3:TrackPointExtension>
        </extensions>
      </trkpt>
      <trkpt lat="47.5002246536314487457275390625" lon="10.0938621349632740020751953125">
        <ele>1705.199951171875</ele>
        <time>2026-09-01T09:03:05.000Z</time>
        <extensions>
          <ns3:TrackPointExtension>
            <ns3:hr>143</ns3:hr>
            <ns3:cad>88</ns3:cad>
          </ns3:TrackPointExtension>
        </extensions>
      </trkpt>
      <trkpt lat="47.500207722187042236328125" lon="10.0938426889479160308837890625">
        <ele>1704.5999755859375</ele>
        <time>2026-09-01T09:03:06.000Z</time>
        <extensions>
          <ns3:TrackPointExtension>
            <ns3:hr>142</ns3:hr>
            <ns3:cad>88</ns3:cad>
          </ns3:TrackPointExtension>
        </extensions>
      </trkpt>
      <trkpt lat="47.50020344741642475128173828125" lon="10.093823410570621490478515625">
        <ele>1703.800048828125</ele>
        <time>2026-09-01T09:03:07.000Z</time>
        <extensions>
          <ns3:TrackPointExtension>
            <ns3:hr>142</ns3:hr>
            <ns3:cad>88</ns3:cad>
          </ns3:TrackPointExtension>
        </extensions>
      </trkpt>
      <trkpt lat="47.50018768943846225738525390625" lon="10.0937863625586032867431640625">
        <ele>1703.199951171875</ele>
        <time>2026-09-01T09:03:08.000Z</time>
        <extensions>
          <ns3:TrackPointExtension>
            <ns3:hr>142</ns3:hr>
            <ns3:cad>88</ns3:cad>
          </ns3:TrackPointExtension>
        </extensions>
      </trkpt>
      <trkpt lat="47.5001676566898822784423828125" lon="10.09375258348882198333740234375">
        <ele>1702.4000244140625</ele>
        <time>2026-09-01T09:03:09.000Z</time>
        <extensions>
          <ns3:TrackPointExtension>
            <ns3:hr>142</ns3:hr>
            <ns3:cad>88</ns3:cad>
          </ns3:TrackPointExtension>
        </extensions>
      </trkpt>
      <trkpt lat="47.50014745630323886871337890625" lon="10.0937347300350666046142578125">
        <ele>1701.4000244140625</ele>
        <time>2026-09-01T09:03:10.000Z</time>
        <extensions>
          <ns3:TrackPointExtension>
            <ns3:hr>143</ns3:hr>
            <ns3:cad>88</ns3:cad>
          </ns3:TrackPointExtension>
        </extensions>
      </trkpt>
      <trkpt lat="47.500115521252155303955078125" lon="10.0936898030340671539306640625">
        <ele>1699.800048828125</ele>
        <time>2026-09-01T09:03:12.000Z</time>
        <extensions>
          <ns3:TrackPointExtension>
            <ns3:hr>143</ns3:hr>
            <ns3:cad>85</ns3:cad>
          </ns3:TrackPointExtension>
        </extensions>
      </trkpt>
      <trkpt lat="47.500100098550319671630859375" lon="10.093665830790996551513671875">
        <ele>1699</ele>
        <time>2026-09-01T09:03:13.000Z</time>
        <extensions>
          <ns3:TrackPointExtension>
            <ns3:hr>144</ns3:hr>
            <ns3:cad>0</ns3:cad>
          </ns3:TrackPointExtension>
        </extensions>
      </trkpt>
      <trkpt lat="47.50009012408554553985595703125" lon="10.0936431996524333953857421875">
        <ele>1698.199951171875</ele>
        <time>2026-09-01T09:03:14.000Z</time>
        <extensions>
          <ns3:TrackPointExtension>
            <ns3:hr>145</ns3:hr>
            <ns3:cad>0</ns3:cad>
          </ns3:TrackPointExtension>
        </extensions>
      </trkpt>
      <trkpt lat="47.5000660680234432220458984375" lon="10.09359483607113361358642578125">
        <ele>1697</ele>
        <time>2026-09-01T09:03:16.000Z</time>
        <extensions>
          <ns3:TrackPointExtension>
            <ns3:hr>146</ns3:hr>
            <ns3:cad>94</ns3:cad>
          </ns3:TrackPointExtension>
        </extensions>
      </trkpt>
      <trkpt lat="47.50004469417035579681396484375" lon="10.09352509863674640655517578125">
        <ele>1695.4000244140625</ele>
        <time>2026-09-01T09:03:18.000Z</time>
        <extensions>
          <ns3:TrackPointExtension>
            <ns3:hr>147</ns3:hr>
            <ns3:cad>94</ns3:cad>
          </ns3:TrackPointExtension>
        </extensions>
      </trkpt>
      <trkpt lat="47.50001988373696804046630859375" lon="10.09348369203507900238037109375">
        <ele>1693.800048828125</ele>
        <time>2026-09-01T09:03:20.000Z</time>
        <extensions>
          <ns3:TrackPointExtension>
            <ns3:hr>148</ns3:hr>
            <ns3:cad>94</ns3:cad>
          </ns3:TrackPointExtension>
        </extensions>
      </trkpt>
      <trkpt lat="47.49998250044882297515869140625" lon="10.0934658385813236236572265625">
        <ele>1692</ele>
        <time>2026-09-01T09:03:22.000Z</time>
        <extensions>
          <ns3:TrackPointExtension>
            <ns3:hr>147</ns3:hr>
            <ns3:cad>94</ns3:cad>
          </ns3:TrackPointExtension>
        </extensions>
      </trkpt>
      <trkpt lat="47.4999703466892242431640625" lon="10.0934435427188873291015625">
        <ele>1691</ele>
        <time>2026-09-01T09:03:23.000Z</time>
        <extensions>
          <ns3:TrackPointExtension>
            <ns3:hr>147</ns3:hr>
            <ns3:cad>94</ns3:cad>
          </ns3:TrackPointExtension>
        </extensions>
      </trkpt>
      <trkpt lat="47.49995115213096141815185546875" lon="10.093404315412044525146484375">
        <ele>1689</ele>
        <time>2026-09-01T09:03:25.000Z</time>
        <extensions>
          <ns3:TrackPointExtension>
            <ns3:hr>147</ns3:hr>
            <ns3:cad>97</ns3:cad>
          </ns3:TrackPointExtension>
        </extensions>
      </trkpt>
      <trkpt lat="47.499923072755336761474609375" lon="10.0933521799743175506591796875">
        <ele>1687.199951171875</ele>
        <time>2026-09-01T09:03:27.000Z</time>
        <extensions>
          <ns3:TrackPointExtension>
            <ns3:hr>148</ns3:hr>
            <ns3:cad>96</ns3:cad>
          </ns3:TrackPointExtension>
        </extensions>
      </trkpt>
      <trkpt lat="47.49989566393196582794189453125" lon="10.09330876171588897705078125">
        <ele>1685.800048828125</ele>
        <time>2026-09-01T09:03:29.000Z</time>
        <extensions>
          <ns3:TrackPointExtension>
            <ns3:hr>149</ns3:hr>
            <ns3:cad>96</ns3:cad>
          </ns3:TrackPointExtension>
        </extensions>
      </trkpt>
      <trkpt lat="47.4998856894671916961669921875" lon="10.0932767428457736968994140625">
        <ele>1685</ele>
        <time>2026-09-01T09:03:30.000Z</time>
        <extensions>
          <ns3:TrackPointExtension>
            <ns3:hr>149</ns3:hr>
            <ns3:cad>96</ns3:cad>
          </ns3:TrackPointExtension>
        </extensions>
      </trkpt>
      <trkpt lat="47.4998655728995800018310546875" lon="10.09325134567916393280029296875">
        <ele>1684.4000244140625</ele>
        <time>2026-09-01T09:03:31.000Z</time>
        <extensions>
          <ns3:TrackPointExtension>
            <ns3:hr>149</ns3:hr>
            <ns3:cad>96</ns3:cad>
          </ns3:TrackPointExtension>
        </extensions>
      </trkpt>
      <trkpt lat="47.499840259552001953125" lon="10.09321245364844799041748046875">
        <ele>1682.800048828125</ele>
        <time>2026-09-01T09:03:33.000Z</time>
        <extensions>
          <ns3:TrackPointExtension>
            <ns3:hr>149</ns3:hr>
            <ns3:cad>96</ns3:cad>
          </ns3:TrackPointExtension>
        </extensions>
      </trkpt>
      <trkpt lat="47.49983422458171844482421875" lon="10.0931939296424388885498046875">
        <ele>1682</ele>
        <time>2026-09-01T09:03:34.000Z</time>
        <extensions>
          <ns3:TrackPointExtension>
            <ns3:hr>149</ns3:hr>
            <ns3:cad>96</ns3:cad>
          </ns3:TrackPointExtension>
        </extensions>
      </trkpt>
      <trkpt lat="47.49981544911861419677734375" lon="10.0931738130748271942138671875">
        <ele>1681.199951171875</ele>
        <time>2026-09-01T09:03:35.000Z</time>
        <extensions>
          <ns3:TrackPointExtension>
            <ns3:hr>149</ns3:hr>
            <ns3:cad>96</ns3:cad>
          </ns3:TrackPointExtension>
        </extensions>
      </trkpt>
      <trkpt lat="47.49977379105985164642333984375" lon="10.09312595240771770477294921875">
        <ele>1679.5999755859375</ele>
        <time>2026-09-01T09:03:37.000Z</time>
        <extensions>
          <ns3:TrackPointExtension>
            <ns3:hr>148</ns3:hr>
            <ns3:cad>96</ns3:cad>
          </ns3:TrackPointExtension>
        </extensions>
      </trkpt>
      <trkpt lat="47.49975241720676422119140625" lon="10.0931044109165668487548828125">
        <ele>1678.5999755859375</ele>
        <time>2026-09-01T09:03:38.000Z</time>
        <extensions>
          <ns3:TrackPointExtension>
            <ns3:hr>148</ns3:hr>
            <ns3:cad>96</ns3:cad>
          </ns3:TrackPointExtension>
        </extensions>
      </trkpt>
      <trkpt lat="47.49974110163748264312744140625" lon="10.093083791434764862060546875">
        <ele>1677.5999755859375</ele>
        <time>2026-09-01T09:03:39.000Z</time>
        <extensions>
          <ns3:TrackPointExtension>
            <ns3:hr>149</ns3:hr>
            <ns3:cad>96</ns3:cad>
          </ns3:TrackPointExtension>
        </extensions>
      </trkpt>
      <trkpt lat="47.499725930392742156982421875" lon="10.0930464081466197967529296875">
        <ele>1676.4000244140625</ele>
        <time>2026-09-01T09:03:40.000Z</time>
        <extensions>
          <ns3:TrackPointExtension>
            <ns3:hr>148</ns3:hr>
            <ns3:cad>98</ns3:cad>
          </ns3:TrackPointExtension>
        </extensions>
      </trkpt>
      <trkpt lat="47.49969533644616603851318359375" lon="10.09298748336732387542724609375">
        <ele>1675</ele>
        <time>2026-09-01T09:03:42.000Z</time>
        <extensions>
          <ns3:TrackPointExtension>
            <ns3:hr>148</ns3:hr>
            <ns3:cad>98</ns3:cad>
          </ns3:TrackPointExtension>
        </extensions>
      </trkpt>
      <trkpt lat="47.499671280384063720703125" lon="10.092932246625423431396484375">
        <ele>1673.4000244140625</ele>
        <time>2026-09-01T09:03:44.000Z</time>
        <extensions>
          <ns3:TrackPointExtension>
            <ns3:hr>148</ns3:hr>
            <ns3:cad>98</ns3:cad>
          </ns3:TrackPointExtension>
        </extensions>
      </trkpt>
      <trkpt lat="47.49964253045618534088134765625" lon="10.09288237430155277252197265625">
        <ele>1671.800048828125</ele>
        <time>2026-09-01T09:03:46.000Z</time>
        <extensions>
          <ns3:TrackPointExtension>
            <ns3:hr>147</ns3:hr>
            <ns3:cad>98</ns3:cad>
          </ns3:TrackPointExtension>
        </extensions>
      </trkpt>
      <trkpt lat="47.4996338970959186553955078125" lon="10.0928561389446258544921875">
        <ele>1670.800048828125</ele>
        <time>2026-09-01T09:03:47.000Z</time>
        <extensions>
          <ns3:TrackPointExtension>
            <ns3:hr>147</ns3:hr>
            <ns3:cad>98</ns3:cad>
          </ns3:TrackPointExtension>
        </extensions>
      </trkpt>
      <trkpt lat="47.49961470253765583038330078125" lon="10.092843063175678253173828125">
        <ele>1669.800048828125</ele>
        <time>2026-09-01T09:03:48.000Z</time>
        <extensions>
          <ns3:TrackPointExtension>
            <ns3:hr>147</ns3:hr>
            <ns3:cad>98</ns3:cad>
          </ns3:TrackPointExtension>
        </extensions>
      </trkpt>
      <trkpt lat="47.499603219330310821533203125" lon="10.0928288139402866363525390625">
        <ele>1669</ele>
        <time>2026-09-01T09:03:49.000Z</time>
        <extensions>
          <ns3:TrackPointExtension>
            <ns3:hr>146</ns3:hr>
            <ns3:cad>98</ns3:cad>
          </ns3:TrackPointExtension>
        </extensions>
      </trkpt>
      <trkpt lat="47.499583773314952850341796875" lon="10.0928016565740108489990234375">
        <ele>1668</ele>
        <time>2026-09-01T09:03:50.000Z</time>
        <extensions>
          <ns3:TrackPointExtension>
            <ns3:hr>147</ns3:hr>
            <ns3:cad>98</ns3:cad>
          </ns3:TrackPointExtension>
        </extensions>
      </trkpt>
      <trkpt lat="47.499577738344669342041015625" lon="10.09277634322643280029296875">
        <ele>1667.199951171875</ele>
        <time>2026-09-01T09:03:51.000Z</time>
        <extensions>
          <ns3:TrackPointExtension>
            <ns3:hr>147</ns3:hr>
            <ns3:cad>98</ns3:cad>
          </ns3:TrackPointExtension>
        </extensions>
      </trkpt>
      <trkpt lat="47.49954580329358577728271484375" lon="10.0927285663783550262451171875">
        <ele>1665.800048828125</ele>
        <time>2026-09-01T09:03:53.000Z</time>
        <extensions>
          <ns3:TrackPointExtension>
            <ns3:hr>147</ns3:hr>
            <ns3:cad>98</ns3:cad>
          </ns3:TrackPointExtension>
        </extensions>
      </trkpt>
      <trkpt lat="47.49952652491629123687744140625" lon="10.09270392358303070068359375">
        <ele>1665</ele>
        <time>2026-09-01T09:03:54.000Z</time>
        <extensions>
          <ns3:TrackPointExtension>
            <ns3:hr>146</ns3:hr>
            <ns3:cad>98</ns3:cad>
          </ns3:TrackPointExtension>
        </extensions>
      </trkpt>
      <trkpt lat="47.49951126985251903533935546875" lon="10.0926745869219303131103515625">
        <ele>1664</ele>
        <time>2026-09-01T09:03:55.000Z</time>
        <extensions>
          <ns3:TrackPointExtension>
            <ns3:hr>146</ns3:hr>
            <ns3:cad>98</ns3:cad>
          </ns3:TrackPointExtension>
        </extensions>
      </trkpt>
      <trkpt lat="47.49947790987789630889892578125" lon="10.09262789972126483917236328125">
        <ele>1662.4000244140625</ele>
        <time>2026-09-01T09:03:57.000Z</time>
        <extensions>
          <ns3:TrackPointExtension>
            <ns3:hr>146</ns3:hr>
            <ns3:cad>98</ns3:cad>
          </ns3:TrackPointExtension>
        </extensions>
      </trkpt>
      <trkpt lat="47.499463073909282684326171875" lon="10.09258054196834564208984375">
        <ele>1661.5999755859375</ele>
        <time>2026-09-01T09:03:58.000Z</time>
        <extensions>
          <ns3:TrackPointExtension>
            <ns3:hr>146</ns3:hr>
            <ns3:cad>0</ns3:cad>
          </ns3:TrackPointExtension>
        </extensions>
      </trkpt>
      <trkpt lat="47.49945092014968395233154296875" lon="10.09254458360373973846435546875">
        <ele>1660.800048828125</ele>
        <time>2026-09-01T09:03:59.000Z</time>
        <extensions>
          <ns3:TrackPointExtension>
            <ns3:hr>146</ns3:hr>
            <ns3:cad>0</ns3:cad>
          </ns3:TrackPointExtension>
        </extensions>
      </trkpt>
      <trkpt lat="47.49943063594400882720947265625" lon="10.0924905203282833099365234375">
        <ele>1659.199951171875</ele>
        <time>2026-09-01T09:04:01.000Z</time>
        <extensions>
          <ns3:TrackPointExtension>
            <ns3:hr>146</ns3:hr>
            <ns3:cad>102</ns3:cad>
          </ns3:TrackPointExtension>
        </extensions>
      </trkpt>
      <trkpt lat="47.49941353686153888702392578125" lon="10.092475600540637969970703125">
        <ele>1658.4000244140625</ele>
        <time>2026-09-01T09:04:02.000Z</time>
        <extensions>
          <ns3:TrackPointExtension>
            <ns3:hr>147</ns3:hr>
            <ns3:cad>102</ns3:cad>
          </ns3:TrackPointExtension>
        </extensions>
      </trkpt>
      <trkpt lat="47.49940113164484500885009765625" lon="10.09246160276234149932861328125">
        <ele>1657.5999755859375</ele>
        <time>2026-09-01T09:04:03.000Z</time>
        <extensions>
          <ns3:TrackPointExtension>
            <ns3:hr>148</ns3:hr>
            <ns3:cad>98</ns3:cad>
          </ns3:TrackPointExtension>
        </extensions>
      </trkpt>
      <trkpt lat="47.499370537698268890380859375" lon="10.0924258120357990264892578125">
        <ele>1656</ele>
        <time>2026-09-01T09:04:05.000Z</time>
        <extensions>
          <ns3:TrackPointExtension>
            <ns3:hr>148</ns3:hr>
            <ns3:cad>98</ns3:cad>
          </ns3:TrackPointExtension>
        </extensions>
      </trkpt>
      <trkpt lat="47.499335668981075286865234375" lon="10.0924137420952320098876953125">
        <ele>1654.199951171875</ele>
        <time>2026-09-01T09:04:07.000Z</time>
        <extensions>
          <ns3:TrackPointExtension>
            <ns3:hr>148</ns3:hr>
            <ns3:cad>98</ns3:cad>
          </ns3:TrackPointExtension>
        </extensions>
      </trkpt>
      <trkpt lat="47.4992810189723968505859375" lon="10.0924227945506572723388671875">
        <ele>1652.4000244140625</ele>
        <time>2026-09-01T09:04:09.000Z</time>
        <extensions>
          <ns3:TrackPointExtension>
            <ns3:hr>147</ns3:hr>
            <ns3:cad>98</ns3:cad>
          </ns3:TrackPointExtension>
        </extensions>
      </trkpt>
      <trkpt lat="47.49925662763416767120361328125" lon="10.0924157537519931793212890625">
        <ele>1651.5999755859375</ele>
        <time>2026-09-01T09:04:10.000Z</time>
        <extensions>
          <ns3:TrackPointExtension>
            <ns3:hr>147</ns3:hr>
            <ns3:cad>98</ns3:cad>
          </ns3:TrackPointExtension>
        </extensions>
      </trkpt>
      <trkpt lat="47.49923667870461940765380859375" lon="10.092406533658504486083984375">
        <ele>1650.800048828125</ele>
        <time>2026-09-01T09:04:11.000Z</time>
        <extensions>
          <ns3:TrackPointExtension>
            <ns3:hr>147</ns3:hr>
            <ns3:cad>98</ns3:cad>
          </ns3:TrackPointExtension>
        </extensions>
      </trkpt>
      <trkpt lat="47.4991909973323345184326171875" lon="10.0923701561987400054931640625">
        <ele>1649.199951171875</ele>
        <time>2026-09-01T09:04:13.000Z</time>
        <extensions>
          <ns3:TrackPointExtension>
            <ns3:hr>147</ns3:hr>
            <ns3:cad>98</ns3:cad>
          </ns3:TrackPointExtension>
        </extensions>
      </trkpt>
      <trkpt lat="47.49917180277407169342041015625" lon="10.0923545658588409423828125">
        <ele>1648.4000244140625</ele>
        <time>2026-09-01T09:04:14.000Z</time>
        <extensions>
          <ns3:TrackPointExtension>
            <ns3:hr>147</ns3:hr>
            <ns3:cad>94</ns3:cad>
          </ns3:TrackPointExtension>
        </extensions>
      </trkpt>
      <trkpt lat="47.499155290424823760986328125" lon="10.0923295877873897552490234375">
        <ele>1647.5999755859375</ele>
        <time>2026-09-01T09:04:15.000Z</time>
        <extensions>
          <ns3:TrackPointExtension>
            <ns3:hr>148</ns3:hr>
            <ns3:cad>94</ns3:cad>
          </ns3:TrackPointExtension>
        </extensions>
      </trkpt>
      <trkpt lat="47.49912586994469165802001953125" lon="10.0922632031142711639404296875">
        <ele>1645.800048828125</ele>
        <time>2026-09-01T09:04:17.000Z</time>
        <extensions>
          <ns3:TrackPointExtension>
            <ns3:hr>148</ns3:hr>
            <ns3:cad>94</ns3:cad>
          </ns3:TrackPointExtension>
        </extensions>
      </trkpt>
      <trkpt lat="47.49911430291831493377685546875" lon="10.0922367163002490997314453125">
        <ele>1645.199951171875</ele>
        <time>2026-09-01T09:04:18.000Z</time>
        <extensions>
          <ns3:TrackPointExtension>
            <ns3:hr>147</ns3:hr>
            <ns3:cad>94</ns3:cad>
          </ns3:TrackPointExtension>
        </extensions>
      </trkpt>
      <trkpt lat="47.49910466372966766357421875" lon="10.0921971537172794342041015625">
        <ele>1644.4000244140625</ele>
        <time>2026-09-01T09:04:19.000Z</time>
        <extensions>
          <ns3:TrackPointExtension>
            <ns3:hr>148</ns3:hr>
            <ns3:cad>100</ns3:cad>
          </ns3:TrackPointExtension>
        </extensions>
      </trkpt>
      <trkpt lat="47.49908429570496082305908203125" lon="10.09213739074766635894775390625">
        <ele>1642.5999755859375</ele>
        <time>2026-09-01T09:04:21.000Z</time>
        <extensions>
          <ns3:TrackPointExtension>
            <ns3:hr>148</ns3:hr>
            <ns3:cad>100</ns3:cad>
          </ns3:TrackPointExtension>
        </extensions>
      </trkpt>
      <trkpt lat="47.49905931763350963592529296875" lon="10.09210084564983844757080078125">
        <ele>1641.5999755859375</ele>
        <time>2026-09-01T09:04:22.000Z</time>
        <extensions>
          <ns3:TrackPointExtension>
            <ns3:hr>149</ns3:hr>
            <ns3:cad>100</ns3:cad>
          </ns3:TrackPointExtension>
        </extensions>
      </trkpt>
      <trkpt lat="47.4990464933216571807861328125" lon="10.09208165109157562255859375">
        <ele>1640.5999755859375</ele>
        <time>2026-09-01T09:04:23.000Z</time>
        <extensions>
          <ns3:TrackPointExtension>
            <ns3:hr>149</ns3:hr>
            <ns3:cad>100</ns3:cad>
          </ns3:TrackPointExtension>
        </extensions>
      </trkpt>
      <trkpt lat="47.4990220181643962860107421875" lon="10.0920161046087741851806640625">
        <ele>1639</ele>
        <time>2026-09-01T09:04:25.000Z</time>
        <extensions>
          <ns3:TrackPointExtension>
            <ns3:hr>149</ns3:hr>
            <ns3:cad>100</ns3:cad>
          </ns3:TrackPointExtension>
        </extensions>
      </trkpt>
      <trkpt lat="47.4990101158618927001953125" lon="10.091981403529644012451171875">
        <ele>1638</ele>
        <time>2026-09-01T09:04:26.000Z</time>
        <extensions>
          <ns3:TrackPointExtension>
            <ns3:hr>148</ns3:hr>
            <ns3:cad>100</ns3:cad>
          </ns3:TrackPointExtension>
        </extensions>
      </trkpt>
      <trkpt lat="47.4989747442305088043212890625" lon="10.09195852093398571014404296875">
        <ele>1637</ele>
        <time>2026-09-01T09:04:27.000Z</time>
        <extensions>
          <ns3:TrackPointExtension>
            <ns3:hr>148</ns3:hr>
            <ns3:cad>100</ns3:cad>
          </ns3:TrackPointExtension>
        </extensions>
      </trkpt>
      <trkpt lat="47.49895538203418254852294921875" lon="10.09194217622280120849609375">
        <ele>1636.199951171875</ele>
        <time>2026-09-01T09:04:28.000Z</time>
        <extensions>
          <ns3:TrackPointExtension>
            <ns3:hr>148</ns3:hr>
            <ns3:cad>92</ns3:cad>
          </ns3:TrackPointExtension>
        </extensions>
      </trkpt>
      <trkpt lat="47.49893325380980968475341796875" lon="10.091894902288913726806640625">
        <ele>1635</ele>
        <time>2026-09-01T09:04:29.000Z</time>
        <extensions>
          <ns3:TrackPointExtension>
            <ns3:hr>148</ns3:hr>
            <ns3:cad>92</ns3:cad>
          </ns3:TrackPointExtension>
        </extensions>
      </trkpt>
      <trkpt lat="47.49890006147325038909912109375" lon="10.09181787259876728057861328125">
        <ele>1633.5999755859375</ele>
        <time>2026-09-01T09:04:31.000Z</time>
        <extensions>
          <ns3:TrackPointExtension>
            <ns3:hr>148</ns3:hr>
            <ns3:cad>92</ns3:cad>
          </ns3:TrackPointExtension>
        </extensions>
      </trkpt>
      <trkpt lat="47.49885546974837779998779296875" lon="10.09175668470561504364013671875">
        <ele>1632</ele>
        <time>2026-09-01T09:04:33.000Z</time>
        <extensions>
          <ns3:TrackPointExtension>
            <ns3:hr>149</ns3:hr>
            <ns3:cad>92</ns3:cad>
          </ns3:TrackPointExtension>
        </extensions>
      </trkpt>
      <trkpt lat="47.498826049268245697021484375" lon="10.09172357618808746337890625">
        <ele>1631.199951171875</ele>
        <time>2026-09-01T09:04:34.000Z</time>
        <extensions>
          <ns3:TrackPointExtension>
            <ns3:hr>148</ns3:hr>
            <ns3:cad>91</ns3:cad>
          </ns3:TrackPointExtension>
        </extensions>
      </trkpt>
      <trkpt lat="47.49879620969295501708984375" lon="10.0916918925940990447998046875">
        <ele>1630.4000244140625</ele>
        <time>2026-09-01T09:04:35.000Z</time>
        <extensions>
          <ns3:TrackPointExtension>
            <ns3:hr>148</ns3:hr>
            <ns3:cad>91</ns3:cad>
          </ns3:TrackPointExtension>
        </extensions>
      </trkpt>
      <trkpt lat="47.49874969013035297393798828125" lon="10.09161804802715778350830078125">
        <ele>1628.800048828125</ele>
        <time>2026-09-01T09:04:37.000Z</time>
        <extensions>
          <ns3:TrackPointExtension>
            <ns3:hr>148</ns3:hr>
            <ns3:cad>90</ns3:cad>
          </ns3:TrackPointExtension>
        </extensions>
      </trkpt>
      <trkpt lat="47.498721778392791748046875" lon="10.09159105829894542694091796875">
        <ele>1628</ele>
        <time>2026-09-01T09:04:38.000Z</time>
        <extensions>
          <ns3:TrackPointExtension>
            <ns3:hr>148</ns3:hr>
            <ns3:cad>90</ns3:cad>
          </ns3:TrackPointExtension>
        </extensions>
      </trkpt>
      <trkpt lat="47.49868615530431270599365234375" lon="10.0915715284645557403564453125">
        <ele>1627</ele>
        <time>2026-09-01T09:04:39.000Z</time>
        <extensions>
          <ns3:TrackPointExtension>
            <ns3:hr>148</ns3:hr>
            <ns3:cad>90</ns3:cad>
          </ns3:TrackPointExtension>
        </extensions>
      </trkpt>
      <trkpt lat="47.498624883592128753662109375" lon="10.09151729755103588104248046875">
        <ele>1625.4000244140625</ele>
        <time>2026-09-01T09:04:41.000Z</time>
        <extensions>
          <ns3:TrackPointExtension>
            <ns3:hr>149</ns3:hr>
            <ns3:cad>90</ns3:cad>
          </ns3:TrackPointExtension>
        </extensions>
      </trkpt>
      <trkpt lat="47.49855615198612213134765625" lon="10.09145342744886875152587890625">
        <ele>1624</ele>
        <time>2026-09-01T09:04:43.000Z</time>
        <extensions>
          <ns3:TrackPointExtension>
            <ns3:hr>148</ns3:hr>
            <ns3:cad>87</ns3:cad>
          </ns3:TrackPointExtension>
        </extensions>
      </trkpt>
      <trkpt lat="47.49850393272936344146728515625" lon="10.091351084411144256591796875">
        <ele>1623.4000244140625</ele>
        <time>2026-09-01T09:04:46.000Z</time>
        <extensions>
          <ns3:TrackPointExtension>
            <ns3:hr>147</ns3:hr>
            <ns3:cad>87</ns3:cad>
          </ns3:TrackPointExtension>
        </extensions>
      </trkpt>
      <trkpt lat="47.49845347367227077484130859375" lon="10.091227702796459197998046875">
        <ele>1623.5999755859375</ele>
        <time>2026-09-01T09:04:49.000Z</time>
        <extensions>
          <ns3:TrackPointExtension>
            <ns3:hr>148</ns3:hr>
            <ns3:cad>89</ns3:cad>
          </ns3:TrackPointExtension>
        </extensions>
      </trkpt>
      <trkpt lat="47.498372085392475128173828125" lon="10.0910414569079875946044921875">
        <ele>1624</ele>
        <time>2026-09-01T09:04:54.000Z</time>
        <extensions>
          <ns3:TrackPointExtension>
            <ns3:hr>150</ns3:hr>
            <ns3:cad>86</ns3:cad>
          </ns3:TrackPointExtension>
        </extensions>
      </trkpt>
      <trkpt lat="47.49833428300917148590087890625" lon="10.09093903005123138427734375">
        <ele>1624.5999755859375</ele>
        <time>2026-09-01T09:04:57.000Z</time>
        <extensions>
          <ns3:TrackPointExtension>
            <ns3:hr>150</ns3:hr>
            <ns3:cad>87</ns3:cad>
          </ns3:TrackPointExtension>
        </extensions>
      </trkpt>
      <trkpt lat="47.498307041823863983154296875" lon="10.09089167229831218719482421875">
        <ele>1625.199951171875</ele>
        <time>2026-09-01T09:04:59.000Z</time>
        <extensions>
          <ns3:TrackPointExtension>
            <ns3:hr>150</ns3:hr>
            <ns3:cad>88</ns3:cad>
          </ns3:TrackPointExtension>
        </extensions>
      </trkpt>
      <trkpt lat="47.498286925256252288818359375" lon="10.09086652658879756927490234375">
        <ele>1625.5999755859375</ele>
        <time>2026-09-01T09:05:00.000Z</time>
        <extensions>
          <ns3:TrackPointExtension>
            <ns3:hr>150</ns3:hr>
            <ns3:cad>87</ns3:cad>
          </ns3:TrackPointExtension>
        </extensions>
      </trkpt>
      <trkpt lat="47.49826245009899139404296875" lon="10.0908208452165126800537109375">
        <ele>1626.4000244140625</ele>
        <time>2026-09-01T09:05:02.000Z</time>
        <extensions>
          <ns3:TrackPointExtension>
            <ns3:hr>150</ns3:hr>
            <ns3:cad>87</ns3:cad>
          </ns3:TrackPointExtension>
        </extensions>
      </trkpt>
      <trkpt lat="47.49823420308530330657958984375" lon="10.09077382273972034454345703125">
        <ele>1626.800048828125</ele>
        <time>2026-09-01T09:05:04.000Z</time>
        <extensions>
          <ns3:TrackPointExtension>
            <ns3:hr>150</ns3:hr>
            <ns3:cad>87</ns3:cad>
          </ns3:TrackPointExtension>
        </extensions>
      </trkpt>
      <trkpt lat="47.49818793497979640960693359375" lon="10.090683884918689727783203125">
        <ele>1627.5999755859375</ele>
        <time>2026-09-01T09:05:07.000Z</time>
        <extensions>
          <ns3:TrackPointExtension>
            <ns3:hr>152</ns3:hr>
            <ns3:cad>86</ns3:cad>
          </ns3:TrackPointExtension>
        </extensions>
      </trkpt>
      <trkpt lat="47.49817016534507274627685546875" lon="10.09066686965525150299072265625">
        <ele>1627.5999755859375</ele>
        <time>2026-09-01T09:05:08.000Z</time>
        <extensions>
          <ns3:TrackPointExtension>
            <ns3:hr>152</ns3:hr>
            <ns3:cad>86</ns3:cad>
          </ns3:TrackPointExtension>
        </extensions>
      </trkpt>
      <trkpt lat="47.49811735935509204864501953125" lon="10.090528987348079681396484375">
        <ele>1628.199951171875</ele>
        <time>2026-09-01T09:05:12.000Z</time>
        <extensions>
          <ns3:TrackPointExtension>
            <ns3:hr>154</ns3:hr>
            <ns3:cad>85</ns3:cad>
          </ns3:TrackPointExtension>
        </extensions>
      </trkpt>
      <trkpt lat="47.498069666326045989990234375" lon="10.09044558741152286529541015625">
        <ele>1628.4000244140625</ele>
        <time>2026-09-01T09:05:15.000Z</time>
        <extensions>
          <ns3:TrackPointExtension>
            <ns3:hr>154</ns3:hr>
            <ns3:cad>84</ns3:cad>
          </ns3:TrackPointExtension>
        </extensions>
      </trkpt>
      <trkpt lat="47.498054243624210357666015625" lon="10.09040853939950466156005859375">
        <ele>1628.5999755859375</ele>
        <time>2026-09-01T09:05:16.000Z</time>
        <extensions>
          <ns3:TrackPointExtension>
            <ns3:hr>155</ns3:hr>
            <ns3:cad>84</ns3:cad>
          </ns3:TrackPointExtension>
        </extensions>
      </trkpt>
      <trkpt lat="47.49800101853907108306884765625" lon="10.0902892649173736572265625">
        <ele>1629.4000244140625</ele>
        <time>2026-09-01T09:05:20.000Z</time>
        <extensions>
          <ns3:TrackPointExtension>
            <ns3:hr>157</ns3:hr>
            <ns3:cad>86</ns3:cad>
          </ns3:TrackPointExtension>
        </extensions>
      </trkpt>
      <trkpt lat="47.497986517846584320068359375" lon="10.09025598876178264617919921875">
        <ele>1629.800048828125</ele>
        <time>2026-09-01T09:05:21.000Z</time>
        <extensions>
          <ns3:TrackPointExtension>
            <ns3:hr>158</ns3:hr>
            <ns3:cad>86</ns3:cad>
          </ns3:TrackPointExtension>
        </extensions>
      </trkpt>
      <trkpt lat="47.49796380288898944854736328125" lon="10.09016982279717922210693359375">
        <ele>1630.5999755859375</ele>
        <time>2026-09-01T09:05:24.000Z</time>
        <extensions>
          <ns3:TrackPointExtension>
            <ns3:hr>158</ns3:hr>
            <ns3:cad>85</ns3:cad>
          </ns3:TrackPointExtension>
        </extensions>
      </trkpt>
      <trkpt lat="47.4979534931480884552001953125" lon="10.0901523046195507049560546875">
        <ele>1630.800048828125</ele>
        <time>2026-09-01T09:05:25.000Z</time>
        <extensions>
          <ns3:TrackPointExtension>
            <ns3:hr>158</ns3:hr>
            <ns3:cad>85</ns3:cad>
          </ns3:TrackPointExtension>
        </extensions>
      </trkpt>
      <trkpt lat="47.4979130923748016357421875" lon="10.09008952416479587554931640625">
        <ele>1631.199951171875</ele>
        <time>2026-09-01T09:05:28.000Z</time>
        <extensions>
          <ns3:TrackPointExtension>
            <ns3:hr>158</ns3:hr>
            <ns3:cad>85</ns3:cad>
          </ns3:TrackPointExtension>
        </extensions>
      </trkpt>
      <trkpt lat="47.497873865067958831787109375" lon="10.09006923995912075042724609375">
        <ele>1631.800048828125</ele>
        <time>2026-09-01T09:05:31.000Z</time>
        <extensions>
          <ns3:TrackPointExtension>
            <ns3:hr>157</ns3:hr>
            <ns3:cad>42</ns3:cad>
          </ns3:TrackPointExtension>
        </extensions>
      </trkpt>
      <trkpt lat="47.4978622980415821075439453125" lon="10.09006865322589874267578125">
        <ele>1632.199951171875</ele>
        <time>2026-09-01T09:05:32.000Z</time>
        <extensions>
          <ns3:TrackPointExtension>
            <ns3:hr>157</ns3:hr>
            <ns3:cad>42</ns3:cad>
          </ns3:TrackPointExtension>
        </extensions>
      </trkpt>
      <trkpt lat="47.4978307820856571197509765625" lon="10.09005147032439708709716796875">
        <ele>1633</ele>
        <time>2026-09-01T09:05:34.000Z</time>
        <extensions>
          <ns3:TrackPointExtension>
            <ns3:hr>156</ns3:hr>
            <ns3:cad>0</ns3:cad>
          </ns3:TrackPointExtension>
        </extensions>
      </trkpt>
      <trkpt lat="47.4978126771748065948486328125" lon="10.09003688581287860870361328125">
        <ele>1633.199951171875</ele>
        <time>2026-09-01T09:05:35.000Z</time>
        <extensions>
          <ns3:TrackPointExtension>
            <ns3:hr>156</ns3:hr>
            <ns3:cad>0</ns3:cad>
          </ns3:TrackPointExtension>
        </extensions>
      </trkpt>
      <trkpt lat="47.49778308905661106109619140625" lon="10.09001257829368114471435546875">
        <ele>1634.199951171875</ele>
        <time>2026-09-01T09:05:38.000Z</time>
        <extensions>
          <ns3:TrackPointExtension>
            <ns3:hr>157</ns3:hr>
            <ns3:cad>0</ns3:cad>
          </ns3:TrackPointExtension>
        </extensions>
      </trkpt>
      <trkpt lat="47.49776934273540973663330078125" lon="10.09000428020954132080078125">
        <ele>1634.5999755859375</ele>
        <time>2026-09-01T09:05:39.000Z</time>
        <extensions>
          <ns3:TrackPointExtension>
            <ns3:hr>156</ns3:hr>
            <ns3:cad>0</ns3:cad>
          </ns3:TrackPointExtension>
        </extensions>
      </trkpt>
      <trkpt lat="47.49774805270135402679443359375" lon="10.08998173289000988006591796875">
        <ele>1635.4000244140625</ele>
        <time>2026-09-01T09:05:41.000Z</time>
        <extensions>
          <ns3:TrackPointExtension>
            <ns3:hr>156</ns3:hr>
            <ns3:cad>0</ns3:cad>
          </ns3:TrackPointExtension>
        </extensions>
      </trkpt>
      <trkpt lat="47.49773900024592876434326171875" lon="10.08991442620754241943359375">
        <ele>1636.199951171875</ele>
        <time>2026-09-01T09:05:44.000Z</time>
        <extensions>
          <ns3:TrackPointExtension>
            <ns3:hr>157</ns3:hr>
            <ns3:cad>0</ns3:cad>
          </ns3:TrackPointExtension>
        </extensions>
      </trkpt>
      <trkpt lat="47.4977379105985164642333984375" lon="10.0898971594870090484619140625">
        <ele>1636.5999755859375</ele>
        <time>2026-09-01T09:05:45.000Z</time>
        <extensions>
          <ns3:TrackPointExtension>
            <ns3:hr>156</ns3:hr>
            <ns3:cad>0</ns3:cad>
          </ns3:TrackPointExtension>
        </extensions>
      </trkpt>
      <trkpt lat="47.4977288581430912017822265625" lon="10.08983706124126911163330078125">
        <ele>1637.199951171875</ele>
        <time>2026-09-01T09:05:48.000Z</time>
        <extensions>
          <ns3:TrackPointExtension>
            <ns3:hr>157</ns3:hr>
            <ns3:cad>0</ns3:cad>
          </ns3:TrackPointExtension>
        </extensions>
      </trkpt>
      <trkpt lat="47.4977167882025241851806640625" lon="10.089814178645610809326171875">
        <ele>1637.5999755859375</ele>
        <time>2026-09-01T09:05:50.000Z</time>
        <extensions>
          <ns3:TrackPointExtension>
            <ns3:hr>157</ns3:hr>
            <ns3:cad>0</ns3:cad>
          </ns3:TrackPointExtension>
        </extensions>
      </trkpt>
      <trkpt lat="47.49770144931972026824951171875" lon="10.08973069489002227783203125">
        <ele>1638.199951171875</ele>
        <time>2026-09-01T09:05:54.000Z</time>
        <extensions>
          <ns3:TrackPointExtension>
            <ns3:hr>157</ns3:hr>
            <ns3:cad>57</ns3:cad>
          </ns3:TrackPointExtension>
        </extensions>
      </trkpt>
      <trkpt lat="47.49769574962556362152099609375" lon="10.08967830799520015716552734375">
        <ele>1638.800048828125</ele>
        <time>2026-09-01T09:05:56.000Z</time>
        <extensions>
          <ns3:TrackPointExtension>
            <ns3:hr>158</ns3:hr>
            <ns3:cad>0</ns3:cad>
          </ns3:TrackPointExtension>
        </extensions>
      </trkpt>
      <trkpt lat="47.49769474379718303680419921875" lon="10.089641846716403961181640625">
        <ele>1639.4000244140625</ele>
        <time>2026-09-01T09:05:58.000Z</time>
        <extensions>
          <ns3:TrackPointExtension>
            <ns3:hr>158</ns3:hr>
            <ns3:cad>0</ns3:cad>
          </ns3:TrackPointExtension>
        </extensions>
      </trkpt>
      <trkpt lat="47.49769407324492931365966796875" lon="10.08960806764662265777587890625">
        <ele>1639.800048828125</ele>
        <time>2026-09-01T09:06:00.000Z</time>
        <extensions>
          <ns3:TrackPointExtension>
            <ns3:hr>158</ns3:hr>
            <ns3:cad>0</ns3:cad>
          </ns3:TrackPointExtension>
        </extensions>
      </trkpt>
      <trkpt lat="47.4976879544556140899658203125" lon="10.08953296579420566558837890625">
        <ele>1641.199951171875</ele>
        <time>2026-09-01T09:06:04.000Z</time>
        <extensions>
          <ns3:TrackPointExtension>
            <ns3:hr>158</ns3:hr>
            <ns3:cad>0</ns3:cad>
          </ns3:TrackPointExtension>
        </extensions>
      </trkpt>
      <trkpt lat="47.4976876191794872283935546875" lon="10.08951016701757907867431640625">
        <ele>1641.4000244140625</ele>
        <time>2026-09-01T09:06:05.000Z</time>
        <extensions>
          <ns3:TrackPointExtension>
            <ns3:hr>159</ns3:hr>
            <ns3:cad>0</ns3:cad>
          </ns3:TrackPointExtension>
        </extensions>
      </trkpt>
      <trkpt lat="47.497686780989170074462890625" lon="10.08946859277784824371337890625">
        <ele>1642.4000244140625</ele>
        <time>2026-09-01T09:06:08.000Z</time>
        <extensions>
          <ns3:TrackPointExtension>
            <ns3:hr>159</ns3:hr>
            <ns3:cad>53</ns3:cad>
          </ns3:TrackPointExtension>
        </extensions>
      </trkpt>
      <trkpt lat="47.4976835958659648895263671875" lon="10.08944646455347537994384765625">
        <ele>1642.4000244140625</ele>
        <time>2026-09-01T09:06:09.000Z</time>
        <extensions>
          <ns3:TrackPointExtension>
            <ns3:hr>159</ns3:hr>
            <ns3:cad>53</ns3:cad>
          </ns3:TrackPointExtension>
        </extensions>
      </trkpt>
      <trkpt lat="47.4976641498506069183349609375" lon="10.089381001889705657958984375">
        <ele>1643.4000244140625</ele>
        <time>2026-09-01T09:06:12.000Z</time>
        <extensions>
          <ns3:TrackPointExtension>
            <ns3:hr>159</ns3:hr>
            <ns3:cad>53</ns3:cad>
          </ns3:TrackPointExtension>
        </extensions>
      </trkpt>
      <trkpt lat="47.49764478765428066253662109375" lon="10.0893825106322765350341796875">
        <ele>1643.800048828125</ele>
        <time>2026-09-01T09:06:13.000Z</time>
        <extensions>
          <ns3:TrackPointExtension>
            <ns3:hr>160</ns3:hr>
            <ns3:cad>53</ns3:cad>
          </ns3:TrackPointExtension>
        </extensions>
      </trkpt>
      <trkpt lat="47.4976312927901744842529296875" lon="10.08938058279454708099365234375">
        <ele>1644</ele>
        <time>2026-09-01T09:06:14.000Z</time>
        <extensions>
          <ns3:TrackPointExtension>
            <ns3:hr>160</ns3:hr>
            <ns3:cad>53</ns3:cad>
          </ns3:TrackPointExtension>
        </extensions>
      </trkpt>
      <trkpt lat="47.49761008657515048980712890625" lon="10.089390389621257781982421875">
        <ele>1644.4000244140625</ele>
        <time>2026-09-01T09:06:16.000Z</time>
        <extensions>
          <ns3:TrackPointExtension>
            <ns3:hr>160</ns3:hr>
            <ns3:cad>0</ns3:cad>
          </ns3:TrackPointExtension>
        </extensions>
      </trkpt>
      <trkpt lat="47.497585527598857879638671875" lon="10.08942936547100543975830078125">
        <ele>1645.5999755859375</ele>
        <time>2026-09-01T09:06:19.000Z</time>
        <extensions>
          <ns3:TrackPointExtension>
            <ns3:hr>160</ns3:hr>
            <ns3:cad>77</ns3:cad>
          </ns3:TrackPointExtension>
        </extensions>
      </trkpt>
      <trkpt lat="47.49757236801087856292724609375" lon="10.0894341431558132171630859375">
        <ele>1646</ele>
        <time>2026-09-01T09:06:20.000Z</time>
        <extensions>
          <ns3:TrackPointExtension>
            <ns3:hr>159</ns3:hr>
            <ns3:cad>0</ns3:cad>
          </ns3:TrackPointExtension>
        </extensions>
      </trkpt>
      <trkpt lat="47.49755392782390117645263671875" lon="10.0894175469875335693359375">
        <ele>1646.800048828125</ele>
        <time>2026-09-01T09:06:22.000Z</time>
        <extensions>
          <ns3:TrackPointExtension>
            <ns3:hr>159</ns3:hr>
            <ns3:cad>0</ns3:cad>
          </ns3:TrackPointExtension>
        </extensions>
      </trkpt>
      <trkpt lat="47.49752559699118137359619140625" lon="10.089324675500392913818359375">
        <ele>1647.4000244140625</ele>
        <time>2026-09-01T09:06:25.000Z</time>
        <extensions>
          <ns3:TrackPointExtension>
            <ns3:hr>159</ns3:hr>
            <ns3:cad>0</ns3:cad>
          </ns3:TrackPointExtension>
        </extensions>
      </trkpt>
      <trkpt lat="47.49750950373709201812744140625" lon="10.0892048142850399017333984375">
        <ele>1648</ele>
        <time>2026-09-01T09:06:29.000Z</time>
        <extensions>
          <ns3:TrackPointExtension>
            <ns3:hr>159</ns3:hr>
            <ns3:cad>42</ns3:cad>
          </ns3:TrackPointExtension>
        </extensions>
      </trkpt>
      <trkpt lat="47.4974975176155567169189453125" lon="10.08908830583095550537109375">
        <ele>1649</ele>
        <time>2026-09-01T09:06:33.000Z</time>
        <extensions>
          <ns3:TrackPointExtension>
            <ns3:hr>159</ns3:hr>
            <ns3:cad>42</ns3:cad>
          </ns3:TrackPointExtension>
        </extensions>
      </trkpt>
      <trkpt lat="47.49749508686363697052001953125" lon="10.08907078765332698822021484375">
        <ele>1649.199951171875</ele>
        <time>2026-09-01T09:06:34.000Z</time>
        <extensions>
          <ns3:TrackPointExtension>
            <ns3:hr>159</ns3:hr>
            <ns3:cad>42</ns3:cad>
          </ns3:TrackPointExtension>
        </extensions>
      </trkpt>
      <trkpt lat="47.49750028364360332489013671875" lon="10.089015550911426544189453125">
        <ele>1649.800048828125</ele>
        <time>2026-09-01T09:06:36.000Z</time>
        <extensions>
          <ns3:TrackPointExtension>
            <ns3:hr>159</ns3:hr>
            <ns3:cad>42</ns3:cad>
          </ns3:TrackPointExtension>
        </extensions>
      </trkpt>
      <trkpt lat="47.4974995292723178863525390625" lon="10.08899652399122714996337890625">
        <ele>1650.199951171875</ele>
        <time>2026-09-01T09:06:37.000Z</time>
        <extensions>
          <ns3:TrackPointExtension>
            <ns3:hr>159</ns3:hr>
            <ns3:cad>42</ns3:cad>
          </ns3:TrackPointExtension>
        </extensions>
      </trkpt>
      <trkpt lat="47.49749508686363697052001953125" lon="10.0889714621007442474365234375">
        <ele>1650.5999755859375</ele>
        <time>2026-09-01T09:06:38.000Z</time>
        <extensions>
          <ns3:TrackPointExtension>
            <ns3:hr>159</ns3:hr>
            <ns3:cad>42</ns3:cad>
          </ns3:TrackPointExtension>
        </extensions>
      </trkpt>
      <trkpt lat="47.49749374575912952423095703125" lon="10.0889198295772075653076171875">
        <ele>1651.4000244140625</ele>
        <time>2026-09-01T09:06:40.000Z</time>
        <extensions>
          <ns3:TrackPointExtension>
            <ns3:hr>159</ns3:hr>
            <ns3:cad>42</ns3:cad>
          </ns3:TrackPointExtension>
        </extensions>
      </trkpt>
      <trkpt lat="47.497490979731082916259765625" lon="10.08884380571544170379638671875">
        <ele>1652.199951171875</ele>
        <time>2026-09-01T09:06:43.000Z</time>
        <extensions>
          <ns3:TrackPointExtension>
            <ns3:hr>159</ns3:hr>
            <ns3:cad>41</ns3:cad>
          </ns3:TrackPointExtension>
        </extensions>
      </trkpt>
      <trkpt lat="47.4974894709885120391845703125" lon="10.08879669941961765289306640625">
        <ele>1652.5999755859375</ele>
        <time>2026-09-01T09:06:45.000Z</time>
        <extensions>
          <ns3:TrackPointExtension>
            <ns3:hr>160</ns3:hr>
            <ns3:cad>41</ns3:cad>
          </ns3:TrackPointExtension>
        </extensions>
      </trkpt>
      <trkpt lat="47.49749802052974700927734375" lon="10.0887632556259632110595703125">
        <ele>1652.800048828125</ele>
        <time>2026-09-01T09:06:46.000Z</time>
        <extensions>
          <ns3:TrackPointExtension>
            <ns3:hr>159</ns3:hr>
            <ns3:cad>41</ns3:cad>
          </ns3:TrackPointExtension>
        </extensions>
      </trkpt>
      <trkpt lat="47.4975156225264072418212890625" lon="10.08869527839124202728271484375">
        <ele>1653.800048828125</ele>
        <time>2026-09-01T09:06:49.000Z</time>
        <extensions>
          <ns3:TrackPointExtension>
            <ns3:hr>160</ns3:hr>
            <ns3:cad>41</ns3:cad>
          </ns3:TrackPointExtension>
        </extensions>
      </trkpt>
      <trkpt lat="47.4975236691534519195556640625" lon="10.08867516182363033294677734375">
        <ele>1654</ele>
        <time>2026-09-01T09:06:50.000Z</time>
        <extensions>
          <ns3:TrackPointExtension>
            <ns3:hr>161</ns3:hr>
            <ns3:cad>42</ns3:cad>
          </ns3:TrackPointExtension>
        </extensions>
      </trkpt>
      <trkpt lat="47.49755308963358402252197265625" lon="10.0885885767638683319091796875">
        <ele>1655</ele>
        <time>2026-09-01T09:06:54.000Z</time>
        <extensions>
          <ns3:TrackPointExtension>
            <ns3:hr>160</ns3:hr>
            <ns3:cad>42</ns3:cad>
          </ns3:TrackPointExtension>
        </extensions>
      </trkpt>
      <trkpt lat="47.49755761586129665374755859375" lon="10.08846628479659557342529296875">
        <ele>1655.800048828125</ele>
        <time>2026-09-01T09:06:58.000Z</time>
        <extensions>
          <ns3:TrackPointExtension>
            <ns3:hr>160</ns3:hr>
            <ns3:cad>83</ns3:cad>
          </ns3:TrackPointExtension>
        </extensions>
      </trkpt>
      <trkpt lat="47.49756180681288242340087890625" lon="10.0884011574089527130126953125">
        <ele>1656.4000244140625</ele>
        <time>2026-09-01T09:07:00.000Z</time>
        <extensions>
          <ns3:TrackPointExtension>
            <ns3:hr>160</ns3:hr>
            <ns3:cad>83</ns3:cad>
          </ns3:TrackPointExtension>
        </extensions>
      </trkpt>
      <trkpt lat="47.49755560420453548431396484375" lon="10.0883424840867519378662109375">
        <ele>1657</ele>
        <time>2026-09-01T09:07:02.000Z</time>
        <extensions>
          <ns3:TrackPointExtension>
            <ns3:hr>160</ns3:hr>
            <ns3:cad>83</ns3:cad>
          </ns3:TrackPointExtension>
        </extensions>
      </trkpt>
      <trkpt lat="47.49754973687231540679931640625" lon="10.08830334059894084930419921875">
        <ele>1657.4000244140625</ele>
        <time>2026-09-01T09:07:03.000Z</time>
        <extensions>
          <ns3:TrackPointExtension>
            <ns3:hr>160</ns3:hr>
            <ns3:cad>83</ns3:cad>
          </ns3:TrackPointExtension>
        </extensions>
      </trkpt>
      <trkpt lat="47.4975411035120487213134765625" lon="10.088246427476406097412109375">
        <ele>1657.5999755859375</ele>
        <time>2026-09-01T09:07:05.000Z</time>
        <extensions>
          <ns3:TrackPointExtension>
            <ns3:hr>160</ns3:hr>
            <ns3:cad>83</ns3:cad>
          </ns3:TrackPointExtension>
        </extensions>
      </trkpt>
      <trkpt lat="47.4975484795868396759033203125" lon="10.0881490297615528106689453125">
        <ele>1658.4000244140625</ele>
        <time>2026-09-01T09:07:09.000Z</time>
        <extensions>
          <ns3:TrackPointExtension>
            <ns3:hr>160</ns3:hr>
            <ns3:cad>83</ns3:cad>
          </ns3:TrackPointExtension>
        </extensions>
      </trkpt>
      <trkpt lat="47.49755032360553741455078125" lon="10.088141821324825286865234375">
        <ele>1658.800048828125</ele>
        <time>2026-09-01T09:07:10.000Z</time>
        <extensions>
          <ns3:TrackPointExtension>
            <ns3:hr>160</ns3:hr>
            <ns3:cad>83</ns3:cad>
          </ns3:TrackPointExtension>
        </extensions>
      </trkpt>
      <trkpt lat="47.49756147153675556182861328125" lon="10.088112652301788330078125">
        <ele>1659.4000244140625</ele>
        <time>2026-09-01T09:07:12.000Z</time>
        <extensions>
          <ns3:TrackPointExtension>
            <ns3:hr>160</ns3:hr>
            <ns3:cad>41</ns3:cad>
          </ns3:TrackPointExtension>
        </extensions>
      </trkpt>
      <trkpt lat="47.4975732900202274322509765625" lon="10.08806898258626461029052734375">
        <ele>1659.800048828125</ele>
        <time>2026-09-01T09:07:14.000Z</time>
        <extensions>
          <ns3:TrackPointExtension>
            <ns3:hr>159</ns3:hr>
            <ns3:cad>0</ns3:cad>
          </ns3:TrackPointExtension>
        </extensions>
      </trkpt>
      <trkpt lat="47.49757907353341579437255859375" lon="10.08801852352917194366455078125">
        <ele>1660.4000244140625</ele>
        <time>2026-09-01T09:07:16.000Z</time>
        <extensions>
          <ns3:TrackPointExtension>
            <ns3:hr>159</ns3:hr>
            <ns3:cad>0</ns3:cad>
          </ns3:TrackPointExtension>
        </extensions>
      </trkpt>
      <trkpt lat="47.4975872039794921875" lon="10.08795448578894138336181640625">
        <ele>1661</ele>
        <time>2026-09-01T09:07:18.000Z</time>
        <extensions>
          <ns3:TrackPointExtension>
            <ns3:hr>159</ns3:hr>
            <ns3:cad>0</ns3:cad>
          </ns3:TrackPointExtension>
        </extensions>
      </trkpt>
      <trkpt lat="47.497600950300693511962890625" lon="10.0878861732780933380126953125">
        <ele>1661.4000244140625</ele>
        <time>2026-09-01T09:07:20.000Z</time>
        <extensions>
          <ns3:TrackPointExtension>
            <ns3:hr>159</ns3:hr>
            <ns3:cad>0</ns3:cad>
          </ns3:TrackPointExtension>
        </extensions>
      </trkpt>
      <trkpt lat="47.49761897139251232147216796875" lon="10.08779858238995075225830078125">
        <ele>1662</ele>
        <time>2026-09-01T09:07:23.000Z</time>
        <extensions>
          <ns3:TrackPointExtension>
            <ns3:hr>160</ns3:hr>
            <ns3:cad>42</ns3:cad>
          </ns3:TrackPointExtension>
        </extensions>
      </trkpt>
      <trkpt lat="47.49764621257781982421875" lon="10.08771576918661594390869140625">
        <ele>1662.5999755859375</ele>
        <time>2026-09-01T09:07:26.000Z</time>
        <extensions>
          <ns3:TrackPointExtension>
            <ns3:hr>159</ns3:hr>
            <ns3:cad>84</ns3:cad>
          </ns3:TrackPointExtension>
        </extensions>
      </trkpt>
      <trkpt lat="47.4976604618132114410400390625" lon="10.08766002953052520751953125">
        <ele>1663.199951171875</ele>
        <time>2026-09-01T09:07:28.000Z</time>
        <extensions>
          <ns3:TrackPointExtension>
            <ns3:hr>160</ns3:hr>
            <ns3:cad>84</ns3:cad>
          </ns3:TrackPointExtension>
        </extensions>
      </trkpt>
      <trkpt lat="47.49767378903925418853759765625" lon="10.08760479278862476348876953125">
        <ele>1663.5999755859375</ele>
        <time>2026-09-01T09:07:30.000Z</time>
        <extensions>
          <ns3:TrackPointExtension>
            <ns3:hr>160</ns3:hr>
            <ns3:cad>42</ns3:cad>
          </ns3:TrackPointExtension>
        </extensions>
      </trkpt>
      <trkpt lat="47.49767077155411243438720703125" lon="10.087559111416339874267578125">
        <ele>1664.199951171875</ele>
        <time>2026-09-01T09:07:32.000Z</time>
        <extensions>
          <ns3:TrackPointExtension>
            <ns3:hr>160</ns3:hr>
            <ns3:cad>42</ns3:cad>
          </ns3:TrackPointExtension>
        </extensions>
      </trkpt>
      <trkpt lat="47.49765903688967227935791015625" lon="10.08749113418161869049072265625">
        <ele>1665</ele>
        <time>2026-09-01T09:07:34.000Z</time>
        <extensions>
          <ns3:TrackPointExtension>
            <ns3:hr>160</ns3:hr>
            <ns3:cad>42</ns3:cad>
          </ns3:TrackPointExtension>
        </extensions>
      </trkpt>
      <trkpt lat="47.49765618704259395599365234375" lon="10.087446458637714385986328125">
        <ele>1665.5999755859375</ele>
        <time>2026-09-01T09:07:36.000Z</time>
        <extensions>
          <ns3:TrackPointExtension>
            <ns3:hr>160</ns3:hr>
            <ns3:cad>42</ns3:cad>
          </ns3:TrackPointExtension>
        </extensions>
      </trkpt>
      <trkpt lat="47.497654594480991363525390625" lon="10.087404213845729827880859375">
        <ele>1666.199951171875</ele>
        <time>2026-09-01T09:07:38.000Z</time>
        <extensions>
          <ns3:TrackPointExtension>
            <ns3:hr>160</ns3:hr>
            <ns3:cad>43</ns3:cad>
          </ns3:TrackPointExtension>
        </extensions>
      </trkpt>
      <trkpt lat="47.49765048734843730926513671875" lon="10.0873527489602565765380859375">
        <ele>1666.800048828125</ele>
        <time>2026-09-01T09:07:40.000Z</time>
        <extensions>
          <ns3:TrackPointExtension>
            <ns3:hr>161</ns3:hr>
            <ns3:cad>42</ns3:cad>
          </ns3:TrackPointExtension>
        </extensions>
      </trkpt>
      <trkpt lat="47.49765166081488132476806640625" lon="10.08730706758797168731689453125">
        <ele>1667.4000244140625</ele>
        <time>2026-09-01T09:07:42.000Z</time>
        <extensions>
          <ns3:TrackPointExtension>
            <ns3:hr>161</ns3:hr>
            <ns3:cad>0</ns3:cad>
          </ns3:TrackPointExtension>
        </extensions>
      </trkpt>
      <trkpt lat="47.49765090644359588623046875" lon="10.08726842701435089111328125">
        <ele>1668</ele>
        <time>2026-09-01T09:07:44.000Z</time>
        <extensions>
          <ns3:TrackPointExtension>
            <ns3:hr>161</ns3:hr>
            <ns3:cad>0</ns3:cad>
          </ns3:TrackPointExtension>
        </extensions>
      </trkpt>
      <trkpt lat="47.4976529181003570556640625" lon="10.08721251972019672393798828125">
        <ele>1668.5999755859375</ele>
        <time>2026-09-01T09:07:47.000Z</time>
        <extensions>
          <ns3:TrackPointExtension>
            <ns3:hr>160</ns3:hr>
            <ns3:cad>0</ns3:cad>
          </ns3:TrackPointExtension>
        </extensions>
      </trkpt>
      <trkpt lat="47.49765627086162567138671875" lon="10.0871644914150238037109375">
        <ele>1669.5999755859375</ele>
        <time>2026-09-01T09:07:50.000Z</time>
        <extensions>
          <ns3:TrackPointExtension>
            <ns3:hr>159</ns3:hr>
            <ns3:cad>0</ns3:cad>
          </ns3:TrackPointExtension>
        </extensions>
      </trkpt>
      <trkpt lat="47.4976597912609577178955078125" lon="10.0871136970818042755126953125">
        <ele>1670.800048828125</ele>
        <time>2026-09-01T09:07:54.000Z</time>
        <extensions>
          <ns3:TrackPointExtension>
            <ns3:hr>159</ns3:hr>
            <ns3:cad>0</ns3:cad>
          </ns3:TrackPointExtension>
        </extensions>
      </trkpt>
      <trkpt lat="47.49765149317681789398193359375" lon="10.0870912335813045501708984375">
        <ele>1671</ele>
        <time>2026-09-01T09:07:55.000Z</time>
        <extensions>
          <ns3:TrackPointExtension>
            <ns3:hr>159</ns3:hr>
            <ns3:cad>0</ns3:cad>
          </ns3:TrackPointExtension>
        </extensions>
      </trkpt>
      <trkpt lat="47.49764730222523212432861328125" lon="10.08704756386578083038330078125">
        <ele>1671.800048828125</ele>
        <time>2026-09-01T09:07:58.000Z</time>
        <extensions>
          <ns3:TrackPointExtension>
            <ns3:hr>157</ns3:hr>
            <ns3:cad>42</ns3:cad>
          </ns3:TrackPointExtension>
        </extensions>
      </trkpt>
      <trkpt lat="47.4976477213203907012939453125" lon="10.08703297935426235198974609375">
        <ele>1672.199951171875</ele>
        <time>2026-09-01T09:07:59.000Z</time>
        <extensions>
          <ns3:TrackPointExtension>
            <ns3:hr>157</ns3:hr>
            <ns3:cad>42</ns3:cad>
          </ns3:TrackPointExtension>
        </extensions>
      </trkpt>
      <trkpt lat="47.49765233136713504791259765625" lon="10.08699660189449787139892578125">
        <ele>1673.199951171875</ele>
        <time>2026-09-01T09:08:01.000Z</time>
        <extensions>
          <ns3:TrackPointExtension>
            <ns3:hr>158</ns3:hr>
            <ns3:cad>42</ns3:cad>
          </ns3:TrackPointExtension>
        </extensions>
      </trkpt>
      <trkpt lat="47.49766004271805286407470703125" lon="10.08695536293089389801025390625">
        <ele>1674.199951171875</ele>
        <time>2026-09-01T09:08:04.000Z</time>
        <extensions>
          <ns3:TrackPointExtension>
            <ns3:hr>159</ns3:hr>
            <ns3:cad>42</ns3:cad>
          </ns3:TrackPointExtension>
        </extensions>
      </trkpt>
      <trkpt lat="47.49766792170703411102294921875" lon="10.08693583309650421142578125">
        <ele>1674.4000244140625</ele>
        <time>2026-09-01T09:08:05.000Z</time>
        <extensions>
          <ns3:TrackPointExtension>
            <ns3:hr>159</ns3:hr>
            <ns3:cad>42</ns3:cad>
          </ns3:TrackPointExtension>
        </extensions>
      </trkpt>
      <trkpt lat="47.4976789020001888275146484375" lon="10.086888559162616729736328125">
        <ele>1675.4000244140625</ele>
        <time>2026-09-01T09:08:08.000Z</time>
        <extensions>
          <ns3:TrackPointExtension>
            <ns3:hr>159</ns3:hr>
            <ns3:cad>0</ns3:cad>
          </ns3:TrackPointExtension>
        </extensions>
      </trkpt>
      <trkpt lat="47.4976906366646289825439453125" lon="10.08686081506311893463134765625">
        <ele>1676.5999755859375</ele>
        <time>2026-09-01T09:08:11.000Z</time>
        <extensions>
          <ns3:TrackPointExtension>
            <ns3:hr>160</ns3:hr>
            <ns3:cad>47</ns3:cad>
          </ns3:TrackPointExtension>
        </extensions>
      </trkpt>
      <trkpt lat="47.49769709073007106781005859375" lon="10.0868062488734722137451171875">
        <ele>1677.5999755859375</ele>
        <time>2026-09-01T09:08:14.000Z</time>
        <extensions>
          <ns3:TrackPointExtension>
            <ns3:hr>160</ns3:hr>
            <ns3:cad>0</ns3:cad>
          </ns3:TrackPointExtension>
        </extensions>
      </trkpt>
      <trkpt lat="47.497696168720722198486328125" lon="10.086785964667797088623046875">
        <ele>1678</ele>
        <time>2026-09-01T09:08:15.000Z</time>
        <extensions>
          <ns3:TrackPointExtension>
            <ns3:hr>160</ns3:hr>
            <ns3:cad>0</ns3:cad>
          </ns3:TrackPointExtension>
        </extensions>
      </trkpt>
      <trkpt lat="47.49768351204693317413330078125" lon="10.08671027608215808868408203125">
        <ele>1679</ele>
        <time>2026-09-01T09:08:19.000Z</time>
        <extensions>
          <ns3:TrackPointExtension>
            <ns3:hr>161</ns3:hr>
            <ns3:cad>0</ns3:cad>
          </ns3:TrackPointExtension>
        </extensions>
      </trkpt>
      <trkpt lat="47.49767596833407878875732421875" lon="10.08664422668516635894775390625">
        <ele>1680.4000244140625</ele>
        <time>2026-09-01T09:08:23.000Z</time>
        <extensions>
          <ns3:TrackPointExtension>
            <ns3:hr>160</ns3:hr>
            <ns3:cad>0</ns3:cad>
          </ns3:TrackPointExtension>
        </extensions>
      </trkpt>
      <trkpt lat="47.49767244793474674224853515625" lon="10.08663274347782135009765625">
        <ele>1680.5999755859375</ele>
        <time>2026-09-01T09:08:24.000Z</time>
        <extensions>
          <ns3:TrackPointExtension>
            <ns3:hr>160</ns3:hr>
            <ns3:cad>0</ns3:cad>
          </ns3:TrackPointExtension>
        </extensions>
      </trkpt>
      <trkpt lat="47.49767328612506389617919921875" lon="10.08659712038934230804443359375">
        <ele>1681.4000244140625</ele>
        <time>2026-09-01T09:08:26.000Z</time>
        <extensions>
          <ns3:TrackPointExtension>
            <ns3:hr>161</ns3:hr>
            <ns3:cad>0</ns3:cad>
          </ns3:TrackPointExtension>
        </extensions>
      </trkpt>
      <trkpt lat="47.49767680652439594268798828125" lon="10.08653844706714153289794921875">
        <ele>1682.4000244140625</ele>
        <time>2026-09-01T09:08:29.000Z</time>
        <extensions>
          <ns3:TrackPointExtension>
            <ns3:hr>160</ns3:hr>
            <ns3:cad>0</ns3:cad>
          </ns3:TrackPointExtension>
        </extensions>
      </trkpt>
      <trkpt lat="47.497672699391841888427734375" lon="10.08649352006614208221435546875">
        <ele>1683.5999755859375</ele>
        <time>2026-09-01T09:08:32.000Z</time>
        <extensions>
          <ns3:TrackPointExtension>
            <ns3:hr>161</ns3:hr>
            <ns3:cad>0</ns3:cad>
          </ns3:TrackPointExtension>
        </extensions>
      </trkpt>
      <trkpt lat="47.49767513014376163482666015625" lon="10.08647005073726177215576171875">
        <ele>1684</ele>
        <time>2026-09-01T09:08:33.000Z</time>
        <extensions>
          <ns3:TrackPointExtension>
            <ns3:hr>160</ns3:hr>
            <ns3:cad>0</ns3:cad>
          </ns3:TrackPointExtension>
        </extensions>
      </trkpt>
      <trkpt lat="47.49767445959150791168212890625" lon="10.086420513689517974853515625">
        <ele>1685</ele>
        <time>2026-09-01T09:08:36.000Z</time>
        <extensions>
          <ns3:TrackPointExtension>
            <ns3:hr>160</ns3:hr>
            <ns3:cad>0</ns3:cad>
          </ns3:TrackPointExtension>
        </extensions>
      </trkpt>
      <trkpt lat="47.49767445959150791168212890625" lon="10.086420513689517974853515625">
        <ele>1685.199951171875</ele>
        <time>2026-09-01T09:08:37.000Z</time>
        <extensions>
          <ns3:TrackPointExtension>
            <ns3:hr>160</ns3:hr>
            <ns3:cad>0</ns3:cad>
          </ns3:TrackPointExtension>
        </extensions>
      </trkpt>
      <trkpt lat="47.49766574241220951080322265625" lon="10.08636913262307643890380859375">
        <ele>1686</ele>
        <time>2026-09-01T09:08:40.000Z</time>
        <extensions>
          <ns3:TrackPointExtension>
            <ns3:hr>160</ns3:hr>
            <ns3:cad>0</ns3:cad>
          </ns3:TrackPointExtension>
        </extensions>
      </trkpt>
      <trkpt lat="47.49766138382256031036376953125" lon="10.08634415455162525177001953125">
        <ele>1686.4000244140625</ele>
        <time>2026-09-01T09:08:41.000Z</time>
        <extensions>
          <ns3:TrackPointExtension>
            <ns3:hr>160</ns3:hr>
            <ns3:cad>0</ns3:cad>
          </ns3:TrackPointExtension>
        </extensions>
      </trkpt>
      <trkpt lat="47.497661970555782318115234375" lon="10.0862946175038814544677734375">
        <ele>1687.4000244140625</ele>
        <time>2026-09-01T09:08:44.000Z</time>
        <extensions>
          <ns3:TrackPointExtension>
            <ns3:hr>160</ns3:hr>
            <ns3:cad>0</ns3:cad>
          </ns3:TrackPointExtension>
        </extensions>
      </trkpt>
      <trkpt lat="47.497657276690006256103515625" lon="10.08622965775430202484130859375">
        <ele>1688.800048828125</ele>
        <time>2026-09-01T09:08:48.000Z</time>
        <extensions>
          <ns3:TrackPointExtension>
            <ns3:hr>160</ns3:hr>
            <ns3:cad>0</ns3:cad>
          </ns3:TrackPointExtension>
        </extensions>
      </trkpt>
      <trkpt lat="47.4976483918726444244384765625" lon="10.08618456311523914337158203125">
        <ele>1689.800048828125</ele>
        <time>2026-09-01T09:08:51.000Z</time>
        <extensions>
          <ns3:TrackPointExtension>
            <ns3:hr>160</ns3:hr>
            <ns3:cad>52</ns3:cad>
          </ns3:TrackPointExtension>
        </extensions>
      </trkpt>
      <trkpt lat="47.49764663167297840118408203125" lon="10.08615396916866302490234375">
        <ele>1690.4000244140625</ele>
        <time>2026-09-01T09:08:53.000Z</time>
        <extensions>
          <ns3:TrackPointExtension>
            <ns3:hr>159</ns3:hr>
            <ns3:cad>52</ns3:cad>
          </ns3:TrackPointExtension>
        </extensions>
      </trkpt>
      <trkpt lat="47.4976430274546146392822265625" lon="10.0861425697803497314453125">
        <ele>1690.800048828125</ele>
        <time>2026-09-01T09:08:54.000Z</time>
        <extensions>
          <ns3:TrackPointExtension>
            <ns3:hr>159</ns3:hr>
            <ns3:cad>52</ns3:cad>
          </ns3:TrackPointExtension>
        </extensions>
      </trkpt>
      <trkpt lat="47.49764948152005672454833984375" lon="10.08611164055764675140380859375">
        <ele>1691.800048828125</ele>
        <time>2026-09-01T09:08:57.000Z</time>
        <extensions>
          <ns3:TrackPointExtension>
            <ns3:hr>159</ns3:hr>
            <ns3:cad>57</ns3:cad>
          </ns3:TrackPointExtension>
        </extensions>
      </trkpt>
      <trkpt lat="47.49766289256513118743896484375" lon="10.08611080236732959747314453125">
        <ele>1692.4000244140625</ele>
        <time>2026-09-01T09:08:59.000Z</time>
        <extensions>
          <ns3:TrackPointExtension>
            <ns3:hr>159</ns3:hr>
            <ns3:cad>57</ns3:cad>
          </ns3:TrackPointExtension>
        </extensions>
      </trkpt>
      <trkpt lat="47.4976743757724761962890625" lon="10.08611231110990047454833984375">
        <ele>1692.800048828125</ele>
        <time>2026-09-01T09:09:00.000Z</time>
        <extensions>
          <ns3:TrackPointExtension>
            <ns3:hr>159</ns3:hr>
            <ns3:cad>57</ns3:cad>
          </ns3:TrackPointExtension>
        </extensions>
      </trkpt>
      <trkpt lat="47.49771125614643096923828125" lon="10.0861092098057270050048828125">
        <ele>1693.800048828125</ele>
        <time>2026-09-01T09:09:03.000Z</time>
        <extensions>
          <ns3:TrackPointExtension>
            <ns3:hr>159</ns3:hr>
            <ns3:cad>57</ns3:cad>
          </ns3:TrackPointExtension>
        </extensions>
      </trkpt>
      <trkpt lat="47.49772843904793262481689453125" lon="10.0860921107232570648193359375">
        <ele>1695</ele>
        <time>2026-09-01T09:09:06.000Z</time>
        <extensions>
          <ns3:TrackPointExtension>
            <ns3:hr>159</ns3:hr>
            <ns3:cad>0</ns3:cad>
          </ns3:TrackPointExtension>
        </extensions>
      </trkpt>
      <trkpt lat="47.49772475101053714752197265625" lon="10.0860823877155780792236328125">
        <ele>1695.199951171875</ele>
        <time>2026-09-01T09:09:07.000Z</time>
        <extensions>
          <ns3:TrackPointExtension>
            <ns3:hr>159</ns3:hr>
            <ns3:cad>0</ns3:cad>
          </ns3:TrackPointExtension>
        </extensions>
      </trkpt>
      <trkpt lat="47.49771284870803356170654296875" lon="10.086035616695880889892578125">
        <ele>1696</ele>
        <time>2026-09-01T09:09:10.000Z</time>
        <extensions>
          <ns3:TrackPointExtension>
            <ns3:hr>159</ns3:hr>
            <ns3:cad>0</ns3:cad>
          </ns3:TrackPointExtension>
        </extensions>
      </trkpt>
      <trkpt lat="47.497715614736080169677734375" lon="10.08600502274930477142333984375">
        <ele>1697</ele>
        <time>2026-09-01T09:09:13.000Z</time>
        <extensions>
          <ns3:TrackPointExtension>
            <ns3:hr>160</ns3:hr>
            <ns3:cad>44</ns3:cad>
          </ns3:TrackPointExtension>
        </extensions>
      </trkpt>
      <trkpt lat="47.49772843904793262481689453125" lon="10.08598926477134227752685546875">
        <ele>1697.4000244140625</ele>
        <time>2026-09-01T09:09:14.000Z</time>
        <extensions>
          <ns3:TrackPointExtension>
            <ns3:hr>160</ns3:hr>
            <ns3:cad>44</ns3:cad>
          </ns3:TrackPointExtension>
        </extensions>
      </trkpt>
      <trkpt lat="47.49774084426462650299072265625" lon="10.08595238439738750457763671875">
        <ele>1698.5999755859375</ele>
        <time>2026-09-01T09:09:17.000Z</time>
        <extensions>
          <ns3:TrackPointExtension>
            <ns3:hr>160</ns3:hr>
            <ns3:cad>46</ns3:cad>
          </ns3:TrackPointExtension>
        </extensions>
      </trkpt>
      <trkpt lat="47.49775291420519351959228515625" lon="10.085927657783031463623046875">
        <ele>1699.5999755859375</ele>
        <time>2026-09-01T09:09:20.000Z</time>
        <extensions>
          <ns3:TrackPointExtension>
            <ns3:hr>160</ns3:hr>
            <ns3:cad>46</ns3:cad>
          </ns3:TrackPointExtension>
        </extensions>
      </trkpt>
      <trkpt lat="47.49775408767163753509521484375" lon="10.08592137135565280914306640625">
        <ele>1700</ele>
        <time>2026-09-01T09:09:21.000Z</time>
        <extensions>
          <ns3:TrackPointExtension>
            <ns3:hr>160</ns3:hr>
            <ns3:cad>0</ns3:cad>
          </ns3:TrackPointExtension>
        </extensions>
      </trkpt>
      <trkpt lat="47.497748471796512603759765625" lon="10.08590988814830780029296875">
        <ele>1700.199951171875</ele>
        <time>2026-09-01T09:09:22.000Z</time>
        <extensions>
          <ns3:TrackPointExtension>
            <ns3:hr>160</ns3:hr>
            <ns3:cad>0</ns3:cad>
          </ns3:TrackPointExtension>
        </extensions>
      </trkpt>
      <trkpt lat="47.497734390199184417724609375" lon="10.0858828984200954437255859375">
        <ele>1700.800048828125</ele>
        <time>2026-09-01T09:09:24.000Z</time>
        <extensions>
          <ns3:TrackPointExtension>
            <ns3:hr>160</ns3:hr>
            <ns3:cad>0</ns3:cad>
          </ns3:TrackPointExtension>
        </extensions>
      </trkpt>
      <trkpt lat="47.49772734940052032470703125" lon="10.0858691520988941192626953125">
        <ele>1701.199951171875</ele>
        <time>2026-09-01T09:09:25.000Z</time>
        <extensions>
          <ns3:TrackPointExtension>
            <ns3:hr>160</ns3:hr>
            <ns3:cad>0</ns3:cad>
          </ns3:TrackPointExtension>
        </extensions>
      </trkpt>
      <trkpt lat="47.4977107532322406768798828125" lon="10.0858242250978946685791015625">
        <ele>1702.199951171875</ele>
        <time>2026-09-01T09:09:28.000Z</time>
        <extensions>
          <ns3:TrackPointExtension>
            <ns3:hr>160</ns3:hr>
            <ns3:cad>0</ns3:cad>
          </ns3:TrackPointExtension>
        </extensions>
      </trkpt>
      <trkpt lat="47.49770128168165683746337890625" lon="10.08578927256166934967041015625">
        <ele>1702.800048828125</ele>
        <time>2026-09-01T09:09:30.000Z</time>
        <extensions>
          <ns3:TrackPointExtension>
            <ns3:hr>160</ns3:hr>
            <ns3:cad>0</ns3:cad>
          </ns3:TrackPointExtension>
        </extensions>
      </trkpt>
      <trkpt lat="47.49770991504192352294921875" lon="10.085776783525943756103515625">
        <ele>1703.199951171875</ele>
        <time>2026-09-01T09:09:31.000Z</time>
        <extensions>
          <ns3:TrackPointExtension>
            <ns3:hr>160</ns3:hr>
            <ns3:cad>0</ns3:cad>
          </ns3:TrackPointExtension>
        </extensions>
      </trkpt>
      <trkpt lat="47.4977174587547779083251953125" lon="10.0857762806117534637451171875">
        <ele>1703.5999755859375</ele>
        <time>2026-09-01T09:09:32.000Z</time>
        <extensions>
          <ns3:TrackPointExtension>
            <ns3:hr>160</ns3:hr>
            <ns3:cad>0</ns3:cad>
          </ns3:TrackPointExtension>
        </extensions>
      </trkpt>
      <trkpt lat="47.49773313291370868682861328125" lon="10.08577116765081882476806640625">
        <ele>1704</ele>
        <time>2026-09-01T09:09:34.000Z</time>
        <extensions>
          <ns3:TrackPointExtension>
            <ns3:hr>160</ns3:hr>
            <ns3:cad>0</ns3:cad>
          </ns3:TrackPointExtension>
        </extensions>
      </trkpt>
      <trkpt lat="47.49773648567497730255126953125" lon="10.08576999418437480926513671875">
        <ele>1704.4000244140625</ele>
        <time>2026-09-01T09:09:35.000Z</time>
        <extensions>
          <ns3:TrackPointExtension>
            <ns3:hr>160</ns3:hr>
            <ns3:cad>0</ns3:cad>
          </ns3:TrackPointExtension>
        </extensions>
      </trkpt>
      <trkpt lat="47.49776699580252170562744140625" lon="10.08576907217502593994140625">
        <ele>1705.5999755859375</ele>
        <time>2026-09-01T09:09:38.000Z</time>
        <extensions>
          <ns3:TrackPointExtension>
            <ns3:hr>161</ns3:hr>
            <ns3:cad>0</ns3:cad>
          </ns3:TrackPointExtension>
        </extensions>
      </trkpt>
      <trkpt lat="47.497772276401519775390625" lon="10.08576563559472560882568359375">
        <ele>1706</ele>
        <time>2026-09-01T09:09:39.000Z</time>
        <extensions>
          <ns3:TrackPointExtension>
            <ns3:hr>161</ns3:hr>
            <ns3:cad>0</ns3:cad>
          </ns3:TrackPointExtension>
        </extensions>
      </trkpt>
      <trkpt lat="47.49778258614242076873779296875" lon="10.0857551582157611846923828125">
        <ele>1706.4000244140625</ele>
        <time>2026-09-01T09:09:40.000Z</time>
        <extensions>
          <ns3:TrackPointExtension>
            <ns3:hr>161</ns3:hr>
            <ns3:cad>0</ns3:cad>
          </ns3:TrackPointExtension>
        </extensions>
      </trkpt>
      <trkpt lat="47.497783005237579345703125" lon="10.08575289510190486907958984375">
        <ele>1706.5999755859375</ele>
        <time>2026-09-01T09:09:41.000Z</time>
        <extensions>
          <ns3:TrackPointExtension>
            <ns3:hr>161</ns3:hr>
            <ns3:cad>0</ns3:cad>
          </ns3:TrackPointExtension>
        </extensions>
      </trkpt>
      <trkpt lat="47.49778778292238712310791015625" lon="10.0857367180287837982177734375">
        <ele>1707</ele>
        <time>2026-09-01T09:09:42.000Z</time>
        <extensions>
          <ns3:TrackPointExtension>
            <ns3:hr>160</ns3:hr>
            <ns3:cad>0</ns3:cad>
          </ns3:TrackPointExtension>
        </extensions>
      </trkpt>
      <trkpt lat="47.49779264442622661590576171875" lon="10.0857172720134258270263671875">
        <ele>1707.199951171875</ele>
        <time>2026-09-01T09:09:43.000Z</time>
        <extensions>
          <ns3:TrackPointExtension>
            <ns3:hr>160</ns3:hr>
            <ns3:cad>0</ns3:cad>
          </ns3:TrackPointExtension>
        </extensions>
      </trkpt>
      <trkpt lat="47.49779415316879749298095703125" lon="10.08571685291826725006103515625">
        <ele>1707.800048828125</ele>
        <time>2026-09-01T09:09:44.000Z</time>
        <extensions>
          <ns3:TrackPointExtension>
            <ns3:hr>160</ns3:hr>
            <ns3:cad>0</ns3:cad>
          </ns3:TrackPointExtension>
        </extensions>
      </trkpt>
      <trkpt lat="47.49778728000819683074951171875" lon="10.08569824509322643280029296875">
        <ele>1708.5999755859375</ele>
        <time>2026-09-01T09:09:46.000Z</time>
        <extensions>
          <ns3:TrackPointExtension>
            <ns3:hr>160</ns3:hr>
            <ns3:cad>0</ns3:cad>
          </ns3:TrackPointExtension>
        </extensions>
      </trkpt>
      <trkpt lat="47.4977861903607845306396484375" lon="10.0856810621917247772216796875">
        <ele>1709</ele>
        <time>2026-09-01T09:09:47.000Z</time>
        <extensions>
          <ns3:TrackPointExtension>
            <ns3:hr>159</ns3:hr>
            <ns3:cad>0</ns3:cad>
          </ns3:TrackPointExtension>
        </extensions>
      </trkpt>
      <trkpt lat="47.49777831137180328369140625" lon="10.08565197698771953582763671875">
        <ele>1710.4000244140625</ele>
        <time>2026-09-01T09:09:50.000Z</time>
        <extensions>
          <ns3:TrackPointExtension>
            <ns3:hr>160</ns3:hr>
            <ns3:cad>0</ns3:cad>
          </ns3:TrackPointExtension>
        </extensions>
      </trkpt>
      <trkpt lat="47.49775392003357410430908203125" lon="10.08561392314732074737548828125">
        <ele>1711.199951171875</ele>
        <time>2026-09-01T09:09:54.000Z</time>
        <extensions>
          <ns3:TrackPointExtension>
            <ns3:hr>161</ns3:hr>
            <ns3:cad>0</ns3:cad>
          </ns3:TrackPointExtension>
        </extensions>
      </trkpt>
      <trkpt lat="47.49775157310068607330322265625" lon="10.0855982489883899688720703125">
        <ele>1711.4000244140625</ele>
        <time>2026-09-01T09:09:55.000Z</time>
        <extensions>
          <ns3:TrackPointExtension>
            <ns3:hr>161</ns3:hr>
            <ns3:cad>0</ns3:cad>
          </ns3:TrackPointExtension>
        </extensions>
      </trkpt>
      <trkpt lat="47.4977414309978485107421875" lon="10.0855643860995769500732421875">
        <ele>1712.5999755859375</ele>
        <time>2026-09-01T09:09:58.000Z</time>
        <extensions>
          <ns3:TrackPointExtension>
            <ns3:hr>161</ns3:hr>
            <ns3:cad>0</ns3:cad>
          </ns3:TrackPointExtension>
        </extensions>
      </trkpt>
      <trkpt lat="47.49773447401821613311767578125" lon="10.0855208002030849456787109375">
        <ele>1713.5999755859375</ele>
        <time>2026-09-01T09:10:01.000Z</time>
        <extensions>
          <ns3:TrackPointExtension>
            <ns3:hr>162</ns3:hr>
            <ns3:cad>0</ns3:cad>
          </ns3:TrackPointExtension>
        </extensions>
      </trkpt>
      <trkpt lat="47.49774218536913394927978515625" lon="10.085515268146991729736328125">
        <ele>1714</ele>
        <time>2026-09-01T09:10:02.000Z</time>
        <extensions>
          <ns3:TrackPointExtension>
            <ns3:hr>162</ns3:hr>
            <ns3:cad>0</ns3:cad>
          </ns3:TrackPointExtension>
        </extensions>
      </trkpt>
      <trkpt lat="47.49774855561554431915283203125" lon="10.08551116101443767547607421875">
        <ele>1714.4000244140625</ele>
        <time>2026-09-01T09:10:03.000Z</time>
        <extensions>
          <ns3:TrackPointExtension>
            <ns3:hr>162</ns3:hr>
            <ns3:cad>0</ns3:cad>
          </ns3:TrackPointExtension>
        </extensions>
      </trkpt>
      <trkpt lat="47.49775123782455921173095703125" lon="10.08551292121410369873046875">
        <ele>1714.800048828125</ele>
        <time>2026-09-01T09:10:04.000Z</time>
        <extensions>
          <ns3:TrackPointExtension>
            <ns3:hr>161</ns3:hr>
            <ns3:cad>0</ns3:cad>
          </ns3:TrackPointExtension>
        </extensions>
      </trkpt>
      <trkpt lat="47.49779113568365573883056640625" lon="10.08549909107387065887451171875">
        <ele>1716</ele>
        <time>2026-09-01T09:10:07.000Z</time>
        <extensions>
          <ns3:TrackPointExtension>
            <ns3:hr>161</ns3:hr>
            <ns3:cad>0</ns3:cad>
          </ns3:TrackPointExtension>
        </extensions>
      </trkpt>
      <trkpt lat="47.4978022836148738861083984375" lon="10.0854907929897308349609375">
        <ele>1717</ele>
        <time>2026-09-01T09:10:10.000Z</time>
        <extensions>
          <ns3:TrackPointExtension>
            <ns3:hr>162</ns3:hr>
            <ns3:cad>0</ns3:cad>
          </ns3:TrackPointExtension>
        </extensions>
      </trkpt>
      <trkpt lat="47.49780890531837940216064453125" lon="10.085475035011768341064453125">
        <ele>1717.199951171875</ele>
        <time>2026-09-01T09:10:11.000Z</time>
        <extensions>
          <ns3:TrackPointExtension>
            <ns3:hr>161</ns3:hr>
            <ns3:cad>0</ns3:cad>
          </ns3:TrackPointExtension>
        </extensions>
      </trkpt>
      <trkpt lat="47.49781058169901371002197265625" lon="10.085435807704925537109375">
        <ele>1718.199951171875</ele>
        <time>2026-09-01T09:10:14.000Z</time>
        <extensions>
          <ns3:TrackPointExtension>
            <ns3:hr>162</ns3:hr>
            <ns3:cad>0</ns3:cad>
          </ns3:TrackPointExtension>
        </extensions>
      </trkpt>
      <trkpt lat="47.497806139290332794189453125" lon="10.08539356291294097900390625">
        <ele>1719.4000244140625</ele>
        <time>2026-09-01T09:10:17.000Z</time>
        <extensions>
          <ns3:TrackPointExtension>
            <ns3:hr>162</ns3:hr>
            <ns3:cad>0</ns3:cad>
          </ns3:TrackPointExtension>
        </extensions>
      </trkpt>
      <trkpt lat="47.49779063276946544647216796875" lon="10.0853471271693706512451171875">
        <ele>1720.199951171875</ele>
        <time>2026-09-01T09:10:20.000Z</time>
        <extensions>
          <ns3:TrackPointExtension>
            <ns3:hr>162</ns3:hr>
            <ns3:cad>0</ns3:cad>
          </ns3:TrackPointExtension>
        </extensions>
      </trkpt>
      <trkpt lat="47.4977871961891651153564453125" lon="10.08533589541912078857421875">
        <ele>1720.5999755859375</ele>
        <time>2026-09-01T09:10:21.000Z</time>
        <extensions>
          <ns3:TrackPointExtension>
            <ns3:hr>162</ns3:hr>
            <ns3:cad>0</ns3:cad>
          </ns3:TrackPointExtension>
        </extensions>
      </trkpt>
      <trkpt lat="47.49778074212372303009033203125" lon="10.085285268723964691162109375">
        <ele>1721.4000244140625</ele>
        <time>2026-09-01T09:10:24.000Z</time>
        <extensions>
          <ns3:TrackPointExtension>
            <ns3:hr>162</ns3:hr>
            <ns3:cad>0</ns3:cad>
          </ns3:TrackPointExtension>
        </extensions>
      </trkpt>
      <trkpt lat="47.497777976095676422119140625" lon="10.08527797646820545196533203125">
        <ele>1721.800048828125</ele>
        <time>2026-09-01T09:10:25.000Z</time>
        <extensions>
          <ns3:TrackPointExtension>
            <ns3:hr>162</ns3:hr>
            <ns3:cad>0</ns3:cad>
          </ns3:TrackPointExtension>
        </extensions>
      </trkpt>
      <trkpt lat="47.4977628886699676513671875" lon="10.0852225720882415771484375">
        <ele>1723.199951171875</ele>
        <time>2026-09-01T09:10:29.000Z</time>
        <extensions>
          <ns3:TrackPointExtension>
            <ns3:hr>163</ns3:hr>
            <ns3:cad>0</ns3:cad>
          </ns3:TrackPointExtension>
        </extensions>
      </trkpt>
      <trkpt lat="47.49775576405227184295654296875" lon="10.0851930677890777587890625">
        <ele>1724.4000244140625</ele>
        <time>2026-09-01T09:10:32.000Z</time>
        <extensions>
          <ns3:TrackPointExtension>
            <ns3:hr>163</ns3:hr>
            <ns3:cad>0</ns3:cad>
          </ns3:TrackPointExtension>
        </extensions>
      </trkpt>
      <trkpt lat="47.49775140546262264251708984375" lon="10.085135065019130706787109375">
        <ele>1725.5999755859375</ele>
        <time>2026-09-01T09:10:35.000Z</time>
        <extensions>
          <ns3:TrackPointExtension>
            <ns3:hr>163</ns3:hr>
            <ns3:cad>0</ns3:cad>
          </ns3:TrackPointExtension>
        </extensions>
      </trkpt>
      <trkpt lat="47.49774838797748088836669921875" lon="10.085096172988414764404296875">
        <ele>1726.5999755859375</ele>
        <time>2026-09-01T09:10:38.000Z</time>
        <extensions>
          <ns3:TrackPointExtension>
            <ns3:hr>162</ns3:hr>
            <ns3:cad>0</ns3:cad>
          </ns3:TrackPointExtension>
        </extensions>
      </trkpt>
      <trkpt lat="47.49774570576846599578857421875" lon="10.0850919820368289947509765625">
        <ele>1727.199951171875</ele>
        <time>2026-09-01T09:10:39.000Z</time>
        <extensions>
          <ns3:TrackPointExtension>
            <ns3:hr>163</ns3:hr>
            <ns3:cad>0</ns3:cad>
          </ns3:TrackPointExtension>
        </extensions>
      </trkpt>
      <trkpt lat="47.49774277210235595703125" lon="10.08505820296704769134521484375">
        <ele>1727.800048828125</ele>
        <time>2026-09-01T09:10:41.000Z</time>
        <extensions>
          <ns3:TrackPointExtension>
            <ns3:hr>163</ns3:hr>
            <ns3:cad>0</ns3:cad>
          </ns3:TrackPointExtension>
        </extensions>
      </trkpt>
      <trkpt lat="47.49774268828332424163818359375" lon="10.08503875695168972015380859375">
        <ele>1728.4000244140625</ele>
        <time>2026-09-01T09:10:42.000Z</time>
        <extensions>
          <ns3:TrackPointExtension>
            <ns3:hr>163</ns3:hr>
            <ns3:cad>0</ns3:cad>
          </ns3:TrackPointExtension>
        </extensions>
      </trkpt>
      <trkpt lat="47.49773179180920124053955078125" lon="10.0849970988929271697998046875">
        <ele>1729.4000244140625</ele>
        <time>2026-09-01T09:10:45.000Z</time>
        <extensions>
          <ns3:TrackPointExtension>
            <ns3:hr>164</ns3:hr>
            <ns3:cad>40</ns3:cad>
          </ns3:TrackPointExtension>
        </extensions>
      </trkpt>
      <trkpt lat="47.49772156588733196258544921875" lon="10.0849759764969348907470703125">
        <ele>1729.800048828125</ele>
        <time>2026-09-01T09:10:46.000Z</time>
        <extensions>
          <ns3:TrackPointExtension>
            <ns3:hr>164</ns3:hr>
            <ns3:cad>40</ns3:cad>
          </ns3:TrackPointExtension>
        </extensions>
      </trkpt>
      <trkpt lat="47.49771167524158954620361328125" lon="10.0849488191306591033935546875">
        <ele>1730.5999755859375</ele>
        <time>2026-09-01T09:10:48.000Z</time>
        <extensions>
          <ns3:TrackPointExtension>
            <ns3:hr>164</ns3:hr>
            <ns3:cad>0</ns3:cad>
          </ns3:TrackPointExtension>
        </extensions>
      </trkpt>
      <trkpt lat="47.497694827616214752197265625" lon="10.0849002040922641754150390625">
        <ele>1731.4000244140625</ele>
        <time>2026-09-01T09:10:50.000Z</time>
        <extensions>
          <ns3:TrackPointExtension>
            <ns3:hr>164</ns3:hr>
            <ns3:cad>0</ns3:cad>
          </ns3:TrackPointExtension>
        </extensions>
      </trkpt>
      <trkpt lat="47.4976896308362483978271484375" lon="10.08488017134368419647216796875">
        <ele>1731.5999755859375</ele>
        <time>2026-09-01T09:10:51.000Z</time>
        <extensions>
          <ns3:TrackPointExtension>
            <ns3:hr>164</ns3:hr>
            <ns3:cad>0</ns3:cad>
          </ns3:TrackPointExtension>
        </extensions>
      </trkpt>
      <trkpt lat="47.49767102301120758056640625" lon="10.08479970507323741912841796875">
        <ele>1733</ele>
        <time>2026-09-01T09:10:55.000Z</time>
        <extensions>
          <ns3:TrackPointExtension>
            <ns3:hr>164</ns3:hr>
            <ns3:cad>41</ns3:cad>
          </ns3:TrackPointExtension>
        </extensions>
      </trkpt>
      <trkpt lat="47.4976690113544464111328125" lon="10.08474019356071949005126953125">
        <ele>1734</ele>
        <time>2026-09-01T09:10:58.000Z</time>
        <extensions>
          <ns3:TrackPointExtension>
            <ns3:hr>163</ns3:hr>
            <ns3:cad>41</ns3:cad>
          </ns3:TrackPointExtension>
        </extensions>
      </trkpt>
      <trkpt lat="47.49766322784125804901123046875" lon="10.084676407277584075927734375">
        <ele>1734.800048828125</ele>
        <time>2026-09-01T09:11:00.000Z</time>
        <extensions>
          <ns3:TrackPointExtension>
            <ns3:hr>163</ns3:hr>
            <ns3:cad>42</ns3:cad>
          </ns3:TrackPointExtension>
        </extensions>
      </trkpt>
      <trkpt lat="47.49766297638416290283203125" lon="10.08466358296573162078857421875">
        <ele>1735.199951171875</ele>
        <time>2026-09-01T09:11:01.000Z</time>
        <extensions>
          <ns3:TrackPointExtension>
            <ns3:hr>163</ns3:hr>
            <ns3:cad>41</ns3:cad>
          </ns3:TrackPointExtension>
        </extensions>
      </trkpt>
      <trkpt lat="47.49765627086162567138671875" lon="10.0846137106418609619140625">
        <ele>1736</ele>
        <time>2026-09-01T09:11:03.000Z</time>
        <extensions>
          <ns3:TrackPointExtension>
            <ns3:hr>164</ns3:hr>
            <ns3:cad>41</ns3:cad>
          </ns3:TrackPointExtension>
        </extensions>
      </trkpt>
      <trkpt lat="47.49763623811304569244384765625" lon="10.08456869982182979583740234375">
        <ele>1736.5999755859375</ele>
        <time>2026-09-01T09:11:05.000Z</time>
        <extensions>
          <ns3:TrackPointExtension>
            <ns3:hr>164</ns3:hr>
            <ns3:cad>41</ns3:cad>
          </ns3:TrackPointExtension>
        </extensions>
      </trkpt>
      <trkpt lat="47.49759483151137828826904296875" lon="10.08448186330497264862060546875">
        <ele>1737.199951171875</ele>
        <time>2026-09-01T09:11:08.000Z</time>
        <extensions>
          <ns3:TrackPointExtension>
            <ns3:hr>164</ns3:hr>
            <ns3:cad>42</ns3:cad>
          </ns3:TrackPointExtension>
        </extensions>
      </trkpt>
      <trkpt lat="47.497519142925739288330078125" lon="10.0843728147447109222412109375">
        <ele>1737.5999755859375</ele>
        <time>2026-09-01T09:11:12.000Z</time>
        <extensions>
          <ns3:TrackPointExtension>
            <ns3:hr>164</ns3:hr>
            <ns3:cad>84</ns3:cad>
          </ns3:TrackPointExtension>
        </extensions>
      </trkpt>
      <trkpt lat="47.49746943823993206024169921875" lon="10.08428044617176055908203125">
        <ele>1738.800048828125</ele>
        <time>2026-09-01T09:11:16.000Z</time>
        <extensions>
          <ns3:TrackPointExtension>
            <ns3:hr>164</ns3:hr>
            <ns3:cad>84</ns3:cad>
          </ns3:TrackPointExtension>
        </extensions>
      </trkpt>
      <trkpt lat="47.4974556080996990203857421875" lon="10.0841845571994781494140625">
        <ele>1740</ele>
        <time>2026-09-01T09:11:20.000Z</time>
        <extensions>
          <ns3:TrackPointExtension>
            <ns3:hr>163</ns3:hr>
            <ns3:cad>42</ns3:cad>
          </ns3:TrackPointExtension>
        </extensions>
      </trkpt>
      <trkpt lat="47.497412525117397308349609375" lon="10.08409663103520870208740234375">
        <ele>1741</ele>
        <time>2026-09-01T09:11:24.000Z</time>
        <extensions>
          <ns3:TrackPointExtension>
            <ns3:hr>163</ns3:hr>
            <ns3:cad>42</ns3:cad>
          </ns3:TrackPointExtension>
        </extensions>
      </trkpt>
      <trkpt lat="47.49737455509603023529052734375" lon="10.08404918946325778961181640625">
        <ele>1742.199951171875</ele>
        <time>2026-09-01T09:11:27.000Z</time>
        <extensions>
          <ns3:TrackPointExtension>
            <ns3:hr>163</ns3:hr>
            <ns3:cad>42</ns3:cad>
          </ns3:TrackPointExtension>
        </extensions>
      </trkpt>
      <trkpt lat="47.49732811935245990753173828125" lon="10.08396126329898834228515625">
        <ele>1743.4000244140625</ele>
        <time>2026-09-01T09:11:31.000Z</time>
        <extensions>
          <ns3:TrackPointExtension>
            <ns3:hr>163</ns3:hr>
            <ns3:cad>42</ns3:cad>
          </ns3:TrackPointExtension>
        </extensions>
      </trkpt>
      <trkpt lat="47.497316300868988037109375" lon="10.0838692300021648406982421875">
        <ele>1744.199951171875</ele>
        <time>2026-09-01T09:11:34.000Z</time>
        <extensions>
          <ns3:TrackPointExtension>
            <ns3:hr>163</ns3:hr>
            <ns3:cad>42</ns3:cad>
          </ns3:TrackPointExtension>
        </extensions>
      </trkpt>
      <trkpt lat="47.49730615876615047454833984375" lon="10.08384936489164829254150390625">
        <ele>1744.4000244140625</ele>
        <time>2026-09-01T09:11:35.000Z</time>
        <extensions>
          <ns3:TrackPointExtension>
            <ns3:hr>163</ns3:hr>
            <ns3:cad>43</ns3:cad>
          </ns3:TrackPointExtension>
        </extensions>
      </trkpt>
      <trkpt lat="47.4972836114466190338134765625" lon="10.08379505015909671783447265625">
        <ele>1745</ele>
        <time>2026-09-01T09:11:37.000Z</time>
        <extensions>
          <ns3:TrackPointExtension>
            <ns3:hr>163</ns3:hr>
            <ns3:cad>43</ns3:cad>
          </ns3:TrackPointExtension>
        </extensions>
      </trkpt>
      <trkpt lat="47.49725871719419956207275390625" lon="10.0836888514459133148193359375">
        <ele>1745.4000244140625</ele>
        <time>2026-09-01T09:11:40.000Z</time>
        <extensions>
          <ns3:TrackPointExtension>
            <ns3:hr>163</ns3:hr>
            <ns3:cad>43</ns3:cad>
          </ns3:TrackPointExtension>
        </extensions>
      </trkpt>
      <trkpt lat="47.49724882654845714569091796875" lon="10.08366026915609836578369140625">
        <ele>1745.5999755859375</ele>
        <time>2026-09-01T09:11:41.000Z</time>
        <extensions>
          <ns3:TrackPointExtension>
            <ns3:hr>163</ns3:hr>
            <ns3:cad>85</ns3:cad>
          </ns3:TrackPointExtension>
        </extensions>
      </trkpt>
      <trkpt lat="47.49722711741924285888671875" lon="10.0835631228983402252197265625">
        <ele>1746.199951171875</ele>
        <time>2026-09-01T09:11:44.000Z</time>
        <extensions>
          <ns3:TrackPointExtension>
            <ns3:hr>163</ns3:hr>
            <ns3:cad>84</ns3:cad>
          </ns3:TrackPointExtension>
        </extensions>
      </trkpt>
      <trkpt lat="47.49720138497650623321533203125" lon="10.0834585167467594146728515625">
        <ele>1746.800048828125</ele>
        <time>2026-09-01T09:11:47.000Z</time>
        <extensions>
          <ns3:TrackPointExtension>
            <ns3:hr>164</ns3:hr>
            <ns3:cad>84</ns3:cad>
          </ns3:TrackPointExtension>
        </extensions>
      </trkpt>
      <trkpt lat="47.497186549007892608642578125" lon="10.0834243185818195343017578125">
        <ele>1746.800048828125</ele>
        <time>2026-09-01T09:11:48.000Z</time>
        <extensions>
          <ns3:TrackPointExtension>
            <ns3:hr>164</ns3:hr>
            <ns3:cad>85</ns3:cad>
          </ns3:TrackPointExtension>
        </extensions>
      </trkpt>
      <trkpt lat="47.49713634140789508819580078125" lon="10.08328442461788654327392578125">
        <ele>1747.4000244140625</ele>
        <time>2026-09-01T09:11:52.000Z</time>
        <extensions>
          <ns3:TrackPointExtension>
            <ns3:hr>164</ns3:hr>
            <ns3:cad>85</ns3:cad>
          </ns3:TrackPointExtension>
        </extensions>
      </trkpt>
      <trkpt lat="47.49709644354879856109619140625" lon="10.08315701968967914581298828125">
        <ele>1747.5999755859375</ele>
        <time>2026-09-01T09:11:55.000Z</time>
        <extensions>
          <ns3:TrackPointExtension>
            <ns3:hr>164</ns3:hr>
            <ns3:cad>85</ns3:cad>
          </ns3:TrackPointExtension>
        </extensions>
      </trkpt>
      <trkpt lat="47.49708906747400760650634765625" lon="10.083120726048946380615234375">
        <ele>1747.800048828125</ele>
        <time>2026-09-01T09:11:56.000Z</time>
        <extensions>
          <ns3:TrackPointExtension>
            <ns3:hr>164</ns3:hr>
            <ns3:cad>85</ns3:cad>
          </ns3:TrackPointExtension>
        </extensions>
      </trkpt>
      <trkpt lat="47.4970636703073978424072265625" lon="10.08305140770971775054931640625">
        <ele>1748</ele>
        <time>2026-09-01T09:11:58.000Z</time>
        <extensions>
          <ns3:TrackPointExtension>
            <ns3:hr>164</ns3:hr>
            <ns3:cad>85</ns3:cad>
          </ns3:TrackPointExtension>
        </extensions>
      </trkpt>
      <trkpt lat="47.497046403586864471435546875" lon="10.08298284374177455902099609375">
        <ele>1748.5999755859375</ele>
        <time>2026-09-01T09:12:00.000Z</time>
        <extensions>
          <ns3:TrackPointExtension>
            <ns3:hr>163</ns3:hr>
            <ns3:cad>85</ns3:cad>
          </ns3:TrackPointExtension>
        </extensions>
      </trkpt>
      <trkpt lat="47.49704196117818355560302734375" lon="10.0829643197357654571533203125">
        <ele>1749</ele>
        <time>2026-09-01T09:12:01.000Z</time>
        <extensions>
          <ns3:TrackPointExtension>
            <ns3:hr>163</ns3:hr>
            <ns3:cad>85</ns3:cad>
          </ns3:TrackPointExtension>
        </extensions>
      </trkpt>
      <trkpt lat="47.49702653847634792327880859375" lon="10.0828970968723297119140625">
        <ele>1749.5999755859375</ele>
        <time>2026-09-01T09:12:03.000Z</time>
        <extensions>
          <ns3:TrackPointExtension>
            <ns3:hr>162</ns3:hr>
            <ns3:cad>85</ns3:cad>
          </ns3:TrackPointExtension>
        </extensions>
      </trkpt>
      <trkpt lat="47.4970096908509731292724609375" lon="10.0828407704830169677734375">
        <ele>1750.199951171875</ele>
        <time>2026-09-01T09:12:05.000Z</time>
        <extensions>
          <ns3:TrackPointExtension>
            <ns3:hr>162</ns3:hr>
            <ns3:cad>43</ns3:cad>
          </ns3:TrackPointExtension>
        </extensions>
      </trkpt>
      <trkpt lat="47.49698303639888763427734375" lon="10.08276994340121746063232421875">
        <ele>1750.800048828125</ele>
        <time>2026-09-01T09:12:08.000Z</time>
        <extensions>
          <ns3:TrackPointExtension>
            <ns3:hr>163</ns3:hr>
            <ns3:cad>42</ns3:cad>
          </ns3:TrackPointExtension>
        </extensions>
      </trkpt>
      <trkpt lat="47.49697037972509860992431640625" lon="10.08270691148936748504638671875">
        <ele>1751.4000244140625</ele>
        <time>2026-09-01T09:12:10.000Z</time>
        <extensions>
          <ns3:TrackPointExtension>
            <ns3:hr>163</ns3:hr>
            <ns3:cad>42</ns3:cad>
          </ns3:TrackPointExtension>
        </extensions>
      </trkpt>
      <trkpt lat="47.496966607868671417236328125" lon="10.08268796838819980621337890625">
        <ele>1751.5999755859375</ele>
        <time>2026-09-01T09:12:11.000Z</time>
        <extensions>
          <ns3:TrackPointExtension>
            <ns3:hr>163</ns3:hr>
            <ns3:cad>42</ns3:cad>
          </ns3:TrackPointExtension>
        </extensions>
      </trkpt>
      <trkpt lat="47.496946491301059722900390625" lon="10.0826619006693363189697265625">
        <ele>1751.800048828125</ele>
        <time>2026-09-01T09:12:12.000Z</time>
        <extensions>
          <ns3:TrackPointExtension>
            <ns3:hr>163</ns3:hr>
            <ns3:cad>42</ns3:cad>
          </ns3:TrackPointExtension>
        </extensions>
      </trkpt>
      <trkpt lat="47.4968916736543178558349609375" lon="10.082618482410907745361328125">
        <ele>1752.4000244140625</ele>
        <time>2026-09-01T09:12:15.000Z</time>
        <extensions>
          <ns3:TrackPointExtension>
            <ns3:hr>163</ns3:hr>
            <ns3:cad>42</ns3:cad>
          </ns3:TrackPointExtension>
        </extensions>
      </trkpt>
      <trkpt lat="47.496870718896389007568359375" lon="10.08254027925431728363037109375">
        <ele>1753.800048828125</ele>
        <time>2026-09-01T09:12:19.000Z</time>
        <extensions>
          <ns3:TrackPointExtension>
            <ns3:hr>161</ns3:hr>
            <ns3:cad>42</ns3:cad>
          </ns3:TrackPointExtension>
        </extensions>
      </trkpt>
      <trkpt lat="47.4968718923628330230712890625" lon="10.08247775025665760040283203125">
        <ele>1755</ele>
        <time>2026-09-01T09:12:22.000Z</time>
        <extensions>
          <ns3:TrackPointExtension>
            <ns3:hr>161</ns3:hr>
            <ns3:cad>41</ns3:cad>
          </ns3:TrackPointExtension>
        </extensions>
      </trkpt>
      <trkpt lat="47.49686979688704013824462890625" lon="10.08241706527769565582275390625">
        <ele>1756</ele>
        <time>2026-09-01T09:12:25.000Z</time>
        <extensions>
          <ns3:TrackPointExtension>
            <ns3:hr>162</ns3:hr>
            <ns3:cad>41</ns3:cad>
          </ns3:TrackPointExtension>
        </extensions>
      </trkpt>
      <trkpt lat="47.49685085378587245941162109375" lon="10.08235956542193889617919921875">
        <ele>1757</ele>
        <time>2026-09-01T09:12:28.000Z</time>
        <extensions>
          <ns3:TrackPointExtension>
            <ns3:hr>162</ns3:hr>
            <ns3:cad>41</ns3:cad>
          </ns3:TrackPointExtension>
        </extensions>
      </trkpt>
      <trkpt lat="47.49683761037886142730712890625" lon="10.0823152251541614532470703125">
        <ele>1757.5999755859375</ele>
        <time>2026-09-01T09:12:30.000Z</time>
        <extensions>
          <ns3:TrackPointExtension>
            <ns3:hr>163</ns3:hr>
            <ns3:cad>41</ns3:cad>
          </ns3:TrackPointExtension>
        </extensions>
      </trkpt>
      <trkpt lat="47.49682621099054813385009765625" lon="10.08227071724832057952880859375">
        <ele>1758.4000244140625</ele>
        <time>2026-09-01T09:12:32.000Z</time>
        <extensions>
          <ns3:TrackPointExtension>
            <ns3:hr>164</ns3:hr>
            <ns3:cad>40</ns3:cad>
          </ns3:TrackPointExtension>
        </extensions>
      </trkpt>
      <trkpt lat="47.49680458568036556243896484375" lon="10.0822233594954013824462890625">
        <ele>1759</ele>
        <time>2026-09-01T09:12:34.000Z</time>
        <extensions>
          <ns3:TrackPointExtension>
            <ns3:hr>164</ns3:hr>
            <ns3:cad>40</ns3:cad>
          </ns3:TrackPointExtension>
        </extensions>
      </trkpt>
      <trkpt lat="47.49679486267268657684326171875" lon="10.0821992196142673492431640625">
        <ele>1759.4000244140625</ele>
        <time>2026-09-01T09:12:35.000Z</time>
        <extensions>
          <ns3:TrackPointExtension>
            <ns3:hr>164</ns3:hr>
            <ns3:cad>41</ns3:cad>
          </ns3:TrackPointExtension>
        </extensions>
      </trkpt>
      <trkpt lat="47.4967677891254425048828125" lon="10.082115232944488525390625">
        <ele>1760.199951171875</ele>
        <time>2026-09-01T09:12:38.000Z</time>
        <extensions>
          <ns3:TrackPointExtension>
            <ns3:hr>163</ns3:hr>
            <ns3:cad>41</ns3:cad>
          </ns3:TrackPointExtension>
        </extensions>
      </trkpt>
      <trkpt lat="47.49675680883228778839111328125" lon="10.0820924341678619384765625">
        <ele>1760.5999755859375</ele>
        <time>2026-09-01T09:12:39.000Z</time>
        <extensions>
          <ns3:TrackPointExtension>
            <ns3:hr>163</ns3:hr>
            <ns3:cad>41</ns3:cad>
          </ns3:TrackPointExtension>
        </extensions>
      </trkpt>
      <trkpt lat="47.4967361055314540863037109375" lon="10.08202076889574527740478515625">
        <ele>1761.4000244140625</ele>
        <time>2026-09-01T09:12:42.000Z</time>
        <extensions>
          <ns3:TrackPointExtension>
            <ns3:hr>164</ns3:hr>
            <ns3:cad>41</ns3:cad>
          </ns3:TrackPointExtension>
        </extensions>
      </trkpt>
      <trkpt lat="47.49672462232410907745361328125" lon="10.08199629373848438262939453125">
        <ele>1761.5999755859375</ele>
        <time>2026-09-01T09:12:43.000Z</time>
        <extensions>
          <ns3:TrackPointExtension>
            <ns3:hr>164</ns3:hr>
            <ns3:cad>41</ns3:cad>
          </ns3:TrackPointExtension>
        </extensions>
      </trkpt>
      <trkpt lat="47.49670810997486114501953125" lon="10.0819303281605243682861328125">
        <ele>1762</ele>
        <time>2026-09-01T09:12:45.000Z</time>
        <extensions>
          <ns3:TrackPointExtension>
            <ns3:hr>165</ns3:hr>
            <ns3:cad>42</ns3:cad>
          </ns3:TrackPointExtension>
        </extensions>
      </trkpt>
      <trkpt lat="47.49666779302060604095458984375" lon="10.08181239478290081024169921875">
        <ele>1761.800048828125</ele>
        <time>2026-09-01T09:12:48.000Z</time>
        <extensions>
          <ns3:TrackPointExtension>
            <ns3:hr>165</ns3:hr>
            <ns3:cad>82</ns3:cad>
          </ns3:TrackPointExtension>
        </extensions>
      </trkpt>
      <trkpt lat="47.49663761816918849945068359375" lon="10.08168029598891735076904296875">
        <ele>1762.5999755859375</ele>
        <time>2026-09-01T09:12:52.000Z</time>
        <extensions>
          <ns3:TrackPointExtension>
            <ns3:hr>165</ns3:hr>
            <ns3:cad>82</ns3:cad>
          </ns3:TrackPointExtension>
        </extensions>
      </trkpt>
      <trkpt lat="47.4966338463127613067626953125" lon="10.0816500373184680938720703125">
        <ele>1762.800048828125</ele>
        <time>2026-09-01T09:12:53.000Z</time>
        <extensions>
          <ns3:TrackPointExtension>
            <ns3:hr>165</ns3:hr>
            <ns3:cad>82</ns3:cad>
          </ns3:TrackPointExtension>
        </extensions>
      </trkpt>
      <trkpt lat="47.49663409776985645294189453125" lon="10.081610642373561859130859375">
        <ele>1763.5999755859375</ele>
        <time>2026-09-01T09:12:56.000Z</time>
        <extensions>
          <ns3:TrackPointExtension>
            <ns3:hr>165</ns3:hr>
            <ns3:cad>42</ns3:cad>
          </ns3:TrackPointExtension>
        </extensions>
      </trkpt>
      <trkpt lat="47.4966338463127613067626953125" lon="10.081600248813629150390625">
        <ele>1764</ele>
        <time>2026-09-01T09:12:57.000Z</time>
        <extensions>
          <ns3:TrackPointExtension>
            <ns3:hr>164</ns3:hr>
            <ns3:cad>42</ns3:cad>
          </ns3:TrackPointExtension>
        </extensions>
      </trkpt>
      <trkpt lat="47.4966264702379703521728515625" lon="10.0815833173692226409912109375">
        <ele>1764.4000244140625</ele>
        <time>2026-09-01T09:12:58.000Z</time>
        <extensions>
          <ns3:TrackPointExtension>
            <ns3:hr>164</ns3:hr>
            <ns3:cad>42</ns3:cad>
          </ns3:TrackPointExtension>
        </extensions>
      </trkpt>
      <trkpt lat="47.49661498703062534332275390625" lon="10.08154316805303096771240234375">
        <ele>1765</ele>
        <time>2026-09-01T09:13:00.000Z</time>
        <extensions>
          <ns3:TrackPointExtension>
            <ns3:hr>163</ns3:hr>
            <ns3:cad>42</ns3:cad>
          </ns3:TrackPointExtension>
        </extensions>
      </trkpt>
      <trkpt lat="47.4966097064316272735595703125" lon="10.081518776714801788330078125">
        <ele>1765.4000244140625</ele>
        <time>2026-09-01T09:13:01.000Z</time>
        <extensions>
          <ns3:TrackPointExtension>
            <ns3:hr>162</ns3:hr>
            <ns3:cad>83</ns3:cad>
          </ns3:TrackPointExtension>
        </extensions>
      </trkpt>
      <trkpt lat="47.4965909309685230255126953125" lon="10.08145012892782688140869140625">
        <ele>1766.199951171875</ele>
        <time>2026-09-01T09:13:04.000Z</time>
        <extensions>
          <ns3:TrackPointExtension>
            <ns3:hr>163</ns3:hr>
            <ns3:cad>83</ns3:cad>
          </ns3:TrackPointExtension>
        </extensions>
      </trkpt>
      <trkpt lat="47.4965587444603443145751953125" lon="10.0813965685665607452392578125">
        <ele>1767.199951171875</ele>
        <time>2026-09-01T09:13:07.000Z</time>
        <extensions>
          <ns3:TrackPointExtension>
            <ns3:hr>162</ns3:hr>
            <ns3:cad>41</ns3:cad>
          </ns3:TrackPointExtension>
        </extensions>
      </trkpt>
      <trkpt lat="47.49654910527169704437255859375" lon="10.0813965685665607452392578125">
        <ele>1767.5999755859375</ele>
        <time>2026-09-01T09:13:08.000Z</time>
        <extensions>
          <ns3:TrackPointExtension>
            <ns3:hr>162</ns3:hr>
            <ns3:cad>40</ns3:cad>
          </ns3:TrackPointExtension>
        </extensions>
      </trkpt>
      <trkpt lat="47.4965325929224491119384765625" lon="10.081359185278415679931640625">
        <ele>1768.5999755859375</ele>
        <time>2026-09-01T09:13:11.000Z</time>
        <extensions>
          <ns3:TrackPointExtension>
            <ns3:hr>162</ns3:hr>
            <ns3:cad>40</ns3:cad>
          </ns3:TrackPointExtension>
        </extensions>
      </trkpt>
      <trkpt lat="47.49651172198355197906494140625" lon="10.0813107378780841827392578125">
        <ele>1769.800048828125</ele>
        <time>2026-09-01T09:13:15.000Z</time>
        <extensions>
          <ns3:TrackPointExtension>
            <ns3:hr>163</ns3:hr>
            <ns3:cad>0</ns3:cad>
          </ns3:TrackPointExtension>
        </extensions>
      </trkpt>
      <trkpt lat="47.4964836426079273223876953125" lon="10.08126421831548213958740234375">
        <ele>1771</ele>
        <time>2026-09-01T09:13:19.000Z</time>
        <extensions>
          <ns3:TrackPointExtension>
            <ns3:hr>164</ns3:hr>
            <ns3:cad>54</ns3:cad>
          </ns3:TrackPointExtension>
        </extensions>
      </trkpt>
      <trkpt lat="47.4964584968984127044677734375" lon="10.08124150335788726806640625">
        <ele>1772</ele>
        <time>2026-09-01T09:13:22.000Z</time>
        <extensions>
          <ns3:TrackPointExtension>
            <ns3:hr>163</ns3:hr>
            <ns3:cad>0</ns3:cad>
          </ns3:TrackPointExtension>
        </extensions>
      </trkpt>
      <trkpt lat="47.49645304866135120391845703125" lon="10.08125784806907176971435546875">
        <ele>1773</ele>
        <time>2026-09-01T09:13:24.000Z</time>
        <extensions>
          <ns3:TrackPointExtension>
            <ns3:hr>163</ns3:hr>
            <ns3:cad>0</ns3:cad>
          </ns3:TrackPointExtension>
        </extensions>
      </trkpt>
      <trkpt lat="47.4964486062526702880859375" lon="10.08126773871481418609619140625">
        <ele>1773.4000244140625</ele>
        <time>2026-09-01T09:13:25.000Z</time>
        <extensions>
          <ns3:TrackPointExtension>
            <ns3:hr>163</ns3:hr>
            <ns3:cad>79</ns3:cad>
          </ns3:TrackPointExtension>
        </extensions>
      </trkpt>
      <trkpt lat="47.49643527902662754058837890625" lon="10.08128550834953784942626953125">
        <ele>1774.199951171875</ele>
        <time>2026-09-01T09:13:27.000Z</time>
        <extensions>
          <ns3:TrackPointExtension>
            <ns3:hr>162</ns3:hr>
            <ns3:cad>79</ns3:cad>
          </ns3:TrackPointExtension>
        </extensions>
      </trkpt>
      <trkpt lat="47.49642622657120227813720703125" lon="10.08129456080496311187744140625">
        <ele>1774.5999755859375</ele>
        <time>2026-09-01T09:13:28.000Z</time>
        <extensions>
          <ns3:TrackPointExtension>
            <ns3:hr>163</ns3:hr>
            <ns3:cad>0</ns3:cad>
          </ns3:TrackPointExtension>
        </extensions>
      </trkpt>
      <trkpt lat="47.49640979804098606109619140625" lon="10.08129389025270938873291015625">
        <ele>1775.800048828125</ele>
        <time>2026-09-01T09:13:31.000Z</time>
        <extensions>
          <ns3:TrackPointExtension>
            <ns3:hr>162</ns3:hr>
            <ns3:cad>0</ns3:cad>
          </ns3:TrackPointExtension>
        </extensions>
      </trkpt>
      <trkpt lat="47.49639789573848247528076171875" lon="10.08125700987875461578369140625">
        <ele>1776.5999755859375</ele>
        <time>2026-09-01T09:13:33.000Z</time>
        <extensions>
          <ns3:TrackPointExtension>
            <ns3:hr>162</ns3:hr>
            <ns3:cad>0</ns3:cad>
          </ns3:TrackPointExtension>
        </extensions>
      </trkpt>
      <trkpt lat="47.49639018438756465911865234375" lon="10.0812359713017940521240234375">
        <ele>1776.800048828125</ele>
        <time>2026-09-01T09:13:34.000Z</time>
        <extensions>
          <ns3:TrackPointExtension>
            <ns3:hr>163</ns3:hr>
            <ns3:cad>0</ns3:cad>
          </ns3:TrackPointExtension>
        </extensions>
      </trkpt>
      <trkpt lat="47.49635296873748302459716796875" lon="10.081119127571582794189453125">
        <ele>1778</ele>
        <time>2026-09-01T09:13:39.000Z</time>
        <extensions>
          <ns3:TrackPointExtension>
            <ns3:hr>165</ns3:hr>
            <ns3:cad>77</ns3:cad>
          </ns3:TrackPointExtension>
        </extensions>
      </trkpt>
      <trkpt lat="47.496301420032978057861328125" lon="10.081013180315494537353515625">
        <ele>1779.199951171875</ele>
        <time>2026-09-01T09:13:44.000Z</time>
        <extensions>
          <ns3:TrackPointExtension>
            <ns3:hr>166</ns3:hr>
            <ns3:cad>77</ns3:cad>
          </ns3:TrackPointExtension>
        </extensions>
      </trkpt>
      <trkpt lat="47.4962955527007579803466796875" lon="10.08094847202301025390625">
        <ele>1779.800048828125</ele>
        <time>2026-09-01T09:13:47.000Z</time>
        <extensions>
          <ns3:TrackPointExtension>
            <ns3:hr>166</ns3:hr>
            <ns3:cad>41</ns3:cad>
          </ns3:TrackPointExtension>
        </extensions>
      </trkpt>
      <trkpt lat="47.49629178084433078765869140625" lon="10.08093573153018951416015625">
        <ele>1780.199951171875</ele>
        <time>2026-09-01T09:13:48.000Z</time>
        <extensions>
          <ns3:TrackPointExtension>
            <ns3:hr>166</ns3:hr>
            <ns3:cad>41</ns3:cad>
          </ns3:TrackPointExtension>
        </extensions>
      </trkpt>
      <trkpt lat="47.4962901882827281951904296875" lon="10.0809020362794399261474609375">
        <ele>1780.800048828125</ele>
        <time>2026-09-01T09:13:50.000Z</time>
        <extensions>
          <ns3:TrackPointExtension>
            <ns3:hr>166</ns3:hr>
            <ns3:cad>41</ns3:cad>
          </ns3:TrackPointExtension>
        </extensions>
      </trkpt>
      <trkpt lat="47.49628758989274501800537109375" lon="10.080886445939540863037109375">
        <ele>1781.199951171875</ele>
        <time>2026-09-01T09:13:51.000Z</time>
        <extensions>
          <ns3:TrackPointExtension>
            <ns3:hr>165</ns3:hr>
            <ns3:cad>0</ns3:cad>
          </ns3:TrackPointExtension>
        </extensions>
      </trkpt>
      <trkpt lat="47.4962781183421611785888671875" lon="10.08083171211183071136474609375">
        <ele>1782.4000244140625</ele>
        <time>2026-09-01T09:13:54.000Z</time>
        <extensions>
          <ns3:TrackPointExtension>
            <ns3:hr>165</ns3:hr>
            <ns3:cad>0</ns3:cad>
          </ns3:TrackPointExtension>
        </extensions>
      </trkpt>
      <trkpt lat="47.4962757714092731475830078125" lon="10.08081947453320026397705078125">
        <ele>1782.800048828125</ele>
        <time>2026-09-01T09:13:55.000Z</time>
        <extensions>
          <ns3:TrackPointExtension>
            <ns3:hr>165</ns3:hr>
            <ns3:cad>0</ns3:cad>
          </ns3:TrackPointExtension>
        </extensions>
      </trkpt>
      <trkpt lat="47.49626529403030872344970703125" lon="10.0807632319629192352294921875">
        <ele>1783.5999755859375</ele>
        <time>2026-09-01T09:13:58.000Z</time>
        <extensions>
          <ns3:TrackPointExtension>
            <ns3:hr>164</ns3:hr>
            <ns3:cad>0</ns3:cad>
          </ns3:TrackPointExtension>
        </extensions>
      </trkpt>
      <trkpt lat="47.49626345001161098480224609375" lon="10.080754347145557403564453125">
        <ele>1783.800048828125</ele>
        <time>2026-09-01T09:13:59.000Z</time>
        <extensions>
          <ns3:TrackPointExtension>
            <ns3:hr>165</ns3:hr>
            <ns3:cad>0</ns3:cad>
          </ns3:TrackPointExtension>
        </extensions>
      </trkpt>
      <trkpt lat="47.49625087715685367584228515625" lon="10.08070170879364013671875">
        <ele>1784.5999755859375</ele>
        <time>2026-09-01T09:14:02.000Z</time>
        <extensions>
          <ns3:TrackPointExtension>
            <ns3:hr>164</ns3:hr>
            <ns3:cad>0</ns3:cad>
          </ns3:TrackPointExtension>
        </extensions>
      </trkpt>
      <trkpt lat="47.49622707255184650421142578125" lon="10.08059400133788585662841796875">
        <ele>1785.199951171875</ele>
        <time>2026-09-01T09:14:06.000Z</time>
        <extensions>
          <ns3:TrackPointExtension>
            <ns3:hr>164</ns3:hr>
            <ns3:cad>0</ns3:cad>
          </ns3:TrackPointExtension>
        </extensions>
      </trkpt>
      <trkpt lat="47.49620460905134677886962890625" lon="10.080527365207672119140625">
        <ele>1785.800048828125</ele>
        <time>2026-09-01T09:14:09.000Z</time>
        <extensions>
          <ns3:TrackPointExtension>
            <ns3:hr>164</ns3:hr>
            <ns3:cad>40</ns3:cad>
          </ns3:TrackPointExtension>
        </extensions>
      </trkpt>
      <trkpt lat="47.49619270674884319305419921875" lon="10.08048704825341701507568359375">
        <ele>1786.4000244140625</ele>
        <time>2026-09-01T09:14:11.000Z</time>
        <extensions>
          <ns3:TrackPointExtension>
            <ns3:hr>164</ns3:hr>
            <ns3:cad>40</ns3:cad>
          </ns3:TrackPointExtension>
        </extensions>
      </trkpt>
      <trkpt lat="47.49618776142597198486328125" lon="10.08044899441301822662353515625">
        <ele>1786.800048828125</ele>
        <time>2026-09-01T09:14:13.000Z</time>
        <extensions>
          <ns3:TrackPointExtension>
            <ns3:hr>164</ns3:hr>
            <ns3:cad>40</ns3:cad>
          </ns3:TrackPointExtension>
        </extensions>
      </trkpt>
      <trkpt lat="47.49617393128573894500732421875" lon="10.08038587868213653564453125">
        <ele>1788.199951171875</ele>
        <time>2026-09-01T09:14:17.000Z</time>
        <extensions>
          <ns3:TrackPointExtension>
            <ns3:hr>163</ns3:hr>
            <ns3:cad>61</ns3:cad>
          </ns3:TrackPointExtension>
        </extensions>
      </trkpt>
      <trkpt lat="47.49615968205034732818603515625" lon="10.08032443933188915252685546875">
        <ele>1789</ele>
        <time>2026-09-01T09:14:20.000Z</time>
        <extensions>
          <ns3:TrackPointExtension>
            <ns3:hr>163</ns3:hr>
            <ns3:cad>61</ns3:cad>
          </ns3:TrackPointExtension>
        </extensions>
      </trkpt>
      <trkpt lat="47.49615448527038097381591796875" lon="10.080305077135562896728515625">
        <ele>1789.4000244140625</ele>
        <time>2026-09-01T09:14:21.000Z</time>
        <extensions>
          <ns3:TrackPointExtension>
            <ns3:hr>162</ns3:hr>
            <ns3:cad>61</ns3:cad>
          </ns3:TrackPointExtension>
        </extensions>
      </trkpt>
      <trkpt lat="47.4961406551301479339599609375" lon="10.0802314840257167816162109375">
        <ele>1790.5999755859375</ele>
        <time>2026-09-01T09:14:25.000Z</time>
        <extensions>
          <ns3:TrackPointExtension>
            <ns3:hr>162</ns3:hr>
            <ns3:cad>0</ns3:cad>
          </ns3:TrackPointExtension>
        </extensions>
      </trkpt>
      <trkpt lat="47.4961409904062747955322265625" lon="10.08021379821002483367919921875">
        <ele>1791</ele>
        <time>2026-09-01T09:14:26.000Z</time>
        <extensions>
          <ns3:TrackPointExtension>
            <ns3:hr>162</ns3:hr>
            <ns3:cad>0</ns3:cad>
          </ns3:TrackPointExtension>
        </extensions>
      </trkpt>
      <trkpt lat="47.4961487017571926116943359375" lon="10.08018446154892444610595703125">
        <ele>1791.800048828125</ele>
        <time>2026-09-01T09:14:28.000Z</time>
        <extensions>
          <ns3:TrackPointExtension>
            <ns3:hr>162</ns3:hr>
            <ns3:cad>0</ns3:cad>
          </ns3:TrackPointExtension>
        </extensions>
      </trkpt>
      <trkpt lat="47.49614828266203403472900390625" lon="10.080132074654102325439453125">
        <ele>1793.199951171875</ele>
        <time>2026-09-01T09:14:31.000Z</time>
        <extensions>
          <ns3:TrackPointExtension>
            <ns3:hr>161</ns3:hr>
            <ns3:cad>0</ns3:cad>
          </ns3:TrackPointExtension>
        </extensions>
      </trkpt>
      <trkpt lat="47.49613973312079906463623046875" lon="10.08011774159967899322509765625">
        <ele>1793.5999755859375</ele>
        <time>2026-09-01T09:14:32.000Z</time>
        <extensions>
          <ns3:TrackPointExtension>
            <ns3:hr>161</ns3:hr>
            <ns3:cad>0</ns3:cad>
          </ns3:TrackPointExtension>
        </extensions>
      </trkpt>
      <trkpt lat="47.49613436870276927947998046875" lon="10.08008278906345367431640625">
        <ele>1794.199951171875</ele>
        <time>2026-09-01T09:14:34.000Z</time>
        <extensions>
          <ns3:TrackPointExtension>
            <ns3:hr>161</ns3:hr>
            <ns3:cad>0</ns3:cad>
          </ns3:TrackPointExtension>
        </extensions>
      </trkpt>
      <trkpt lat="47.4961262382566928863525390625" lon="10.08002973161637783050537109375">
        <ele>1794.800048828125</ele>
        <time>2026-09-01T09:14:37.000Z</time>
        <extensions>
          <ns3:TrackPointExtension>
            <ns3:hr>160</ns3:hr>
            <ns3:cad>0</ns3:cad>
          </ns3:TrackPointExtension>
        </extensions>
      </trkpt>
      <trkpt lat="47.49611400067806243896484375" lon="10.080020762979984283447265625">
        <ele>1795.5999755859375</ele>
        <time>2026-09-01T09:14:39.000Z</time>
        <extensions>
          <ns3:TrackPointExtension>
            <ns3:hr>161</ns3:hr>
            <ns3:cad>0</ns3:cad>
          </ns3:TrackPointExtension>
        </extensions>
      </trkpt>
      <trkpt lat="47.49609866179525852203369140625" lon="10.08000290952622890472412109375">
        <ele>1796.4000244140625</ele>
        <time>2026-09-01T09:14:41.000Z</time>
        <extensions>
          <ns3:TrackPointExtension>
            <ns3:hr>162</ns3:hr>
            <ns3:cad>41</ns3:cad>
          </ns3:TrackPointExtension>
        </extensions>
      </trkpt>
      <trkpt lat="47.49608642421662807464599609375" lon="10.079990923404693603515625">
        <ele>1797</ele>
        <time>2026-09-01T09:14:42.000Z</time>
        <extensions>
          <ns3:TrackPointExtension>
            <ns3:hr>162</ns3:hr>
            <ns3:cad>41</ns3:cad>
          </ns3:TrackPointExtension>
        </extensions>
      </trkpt>
      <trkpt lat="47.49604317359626293182373046875" lon="10.079974830150604248046875">
        <ele>1798</ele>
        <time>2026-09-01T09:14:46.000Z</time>
        <extensions>
          <ns3:TrackPointExtension>
            <ns3:hr>164</ns3:hr>
            <ns3:cad>41</ns3:cad>
          </ns3:TrackPointExtension>
        </extensions>
      </trkpt>
      <trkpt lat="47.49601283110678195953369140625" lon="10.07994691841304302215576171875">
        <ele>1799.199951171875</ele>
        <time>2026-09-01T09:14:49.000Z</time>
        <extensions>
          <ns3:TrackPointExtension>
            <ns3:hr>165</ns3:hr>
            <ns3:cad>41</ns3:cad>
          </ns3:TrackPointExtension>
        </extensions>
      </trkpt>
      <trkpt lat="47.4960031919181346893310546875" lon="10.0799203477799892425537109375">
        <ele>1799.5999755859375</ele>
        <time>2026-09-01T09:14:50.000Z</time>
        <extensions>
          <ns3:TrackPointExtension>
            <ns3:hr>165</ns3:hr>
            <ns3:cad>41</ns3:cad>
          </ns3:TrackPointExtension>
        </extensions>
      </trkpt>
      <trkpt lat="47.49597226269543170928955078125" lon="10.07986242882907390594482421875">
        <ele>1800.4000244140625</ele>
        <time>2026-09-01T09:14:54.000Z</time>
        <extensions>
          <ns3:TrackPointExtension>
            <ns3:hr>165</ns3:hr>
            <ns3:cad>0</ns3:cad>
          </ns3:TrackPointExtension>
        </extensions>
      </trkpt>
      <trkpt lat="47.49593772925436496734619140625" lon="10.0797942839562892913818359375">
        <ele>1801.5999755859375</ele>
        <time>2026-09-01T09:14:58.000Z</time>
        <extensions>
          <ns3:TrackPointExtension>
            <ns3:hr>166</ns3:hr>
            <ns3:cad>0</ns3:cad>
          </ns3:TrackPointExtension>
        </extensions>
      </trkpt>
      <trkpt lat="47.495913170278072357177734375" lon="10.07972597144544124603271484375">
        <ele>1802.4000244140625</ele>
        <time>2026-09-01T09:15:02.000Z</time>
        <extensions>
          <ns3:TrackPointExtension>
            <ns3:hr>165</ns3:hr>
            <ns3:cad>0</ns3:cad>
          </ns3:TrackPointExtension>
        </extensions>
      </trkpt>
      <trkpt lat="47.4959079734981060028076171875" lon="10.0797133147716522216796875">
        <ele>1802.800048828125</ele>
        <time>2026-09-01T09:15:03.000Z</time>
        <extensions>
          <ns3:TrackPointExtension>
            <ns3:hr>165</ns3:hr>
            <ns3:cad>0</ns3:cad>
          </ns3:TrackPointExtension>
        </extensions>
      </trkpt>
      <trkpt lat="47.49588592909276485443115234375" lon="10.079656653106212615966796875">
        <ele>1804</ele>
        <time>2026-09-01T09:15:07.000Z</time>
        <extensions>
          <ns3:TrackPointExtension>
            <ns3:hr>165</ns3:hr>
            <ns3:cad>0</ns3:cad>
          </ns3:TrackPointExtension>
        </extensions>
      </trkpt>
      <trkpt lat="47.495848797261714935302734375" lon="10.0795927830040454864501953125">
        <ele>1805</ele>
        <time>2026-09-01T09:15:11.000Z</time>
        <extensions>
          <ns3:TrackPointExtension>
            <ns3:hr>165</ns3:hr>
            <ns3:cad>55</ns3:cad>
          </ns3:TrackPointExtension>
        </extensions>
      </trkpt>
      <trkpt lat="47.49582373537123203277587890625" lon="10.07954643107950687408447265625">
        <ele>1805.5999755859375</ele>
        <time>2026-09-01T09:15:14.000Z</time>
        <extensions>
          <ns3:TrackPointExtension>
            <ns3:hr>165</ns3:hr>
            <ns3:cad>60</ns3:cad>
          </ns3:TrackPointExtension>
        </extensions>
      </trkpt>
      <trkpt lat="47.495809905230998992919921875" lon="10.0795106403529644012451171875">
        <ele>1806</ele>
        <time>2026-09-01T09:15:16.000Z</time>
        <extensions>
          <ns3:TrackPointExtension>
            <ns3:hr>165</ns3:hr>
            <ns3:cad>60</ns3:cad>
          </ns3:TrackPointExtension>
        </extensions>
      </trkpt>
      <trkpt lat="47.49576020054519176483154296875" lon="10.0794036872684955596923828125">
        <ele>1807.199951171875</ele>
        <time>2026-09-01T09:15:22.000Z</time>
        <extensions>
          <ns3:TrackPointExtension>
            <ns3:hr>163</ns3:hr>
            <ns3:cad>58</ns3:cad>
          </ns3:TrackPointExtension>
        </extensions>
      </trkpt>
      <trkpt lat="47.49574880115687847137451171875" lon="10.07939019240438938140869140625">
        <ele>1807.5999755859375</ele>
        <time>2026-09-01T09:15:23.000Z</time>
        <extensions>
          <ns3:TrackPointExtension>
            <ns3:hr>163</ns3:hr>
            <ns3:cad>58</ns3:cad>
          </ns3:TrackPointExtension>
        </extensions>
      </trkpt>
      <trkpt lat="47.49568342231214046478271484375" lon="10.0793218798935413360595703125">
        <ele>1808.4000244140625</ele>
        <time>2026-09-01T09:15:27.000Z</time>
        <extensions>
          <ns3:TrackPointExtension>
            <ns3:hr>162</ns3:hr>
            <ns3:cad>58</ns3:cad>
          </ns3:TrackPointExtension>
        </extensions>
      </trkpt>
      <trkpt lat="47.49560848809778690338134765625" lon="10.07920444943010807037353515625">
        <ele>1809.4000244140625</ele>
        <time>2026-09-01T09:15:33.000Z</time>
        <extensions>
          <ns3:TrackPointExtension>
            <ns3:hr>162</ns3:hr>
            <ns3:cad>83</ns3:cad>
          </ns3:TrackPointExtension>
        </extensions>
      </trkpt>
      <trkpt lat="47.4955851025879383087158203125" lon="10.07916253991425037384033203125">
        <ele>1810</ele>
        <time>2026-09-01T09:15:35.000Z</time>
        <extensions>
          <ns3:TrackPointExtension>
            <ns3:hr>162</ns3:hr>
            <ns3:cad>85</ns3:cad>
          </ns3:TrackPointExtension>
        </extensions>
      </trkpt>
      <trkpt lat="47.495571188628673553466796875" lon="10.07913571782410144805908203125">
        <ele>1810.4000244140625</ele>
        <time>2026-09-01T09:15:36.000Z</time>
        <extensions>
          <ns3:TrackPointExtension>
            <ns3:hr>163</ns3:hr>
            <ns3:cad>85</ns3:cad>
          </ns3:TrackPointExtension>
        </extensions>
      </trkpt>
      <trkpt lat="47.49553204514086246490478515625" lon="10.07908492349088191986083984375">
        <ele>1811.4000244140625</ele>
        <time>2026-09-01T09:15:39.000Z</time>
        <extensions>
          <ns3:TrackPointExtension>
            <ns3:hr>163</ns3:hr>
            <ns3:cad>86</ns3:cad>
          </ns3:TrackPointExtension>
        </extensions>
      </trkpt>
      <trkpt lat="47.4954975955188274383544921875" lon="10.0790409184992313385009765625">
        <ele>1812.5999755859375</ele>
        <time>2026-09-01T09:15:43.000Z</time>
        <extensions>
          <ns3:TrackPointExtension>
            <ns3:hr>163</ns3:hr>
            <ns3:cad>86</ns3:cad>
          </ns3:TrackPointExtension>
        </extensions>
      </trkpt>
      <trkpt lat="47.49548242427408695220947265625" lon="10.0790016911923885345458984375">
        <ele>1813</ele>
        <time>2026-09-01T09:15:45.000Z</time>
        <extensions>
          <ns3:TrackPointExtension>
            <ns3:hr>164</ns3:hr>
            <ns3:cad>86</ns3:cad>
          </ns3:TrackPointExtension>
        </extensions>
      </trkpt>
      <trkpt lat="47.49546113424003124237060546875" lon="10.0789503939449787139892578125">
        <ele>1813.4000244140625</ele>
        <time>2026-09-01T09:15:48.000Z</time>
        <extensions>
          <ns3:TrackPointExtension>
            <ns3:hr>164</ns3:hr>
            <ns3:cad>60</ns3:cad>
          </ns3:TrackPointExtension>
        </extensions>
      </trkpt>
      <trkpt lat="47.49544705264270305633544921875" lon="10.07892449386417865753173828125">
        <ele>1813.5999755859375</ele>
        <time>2026-09-01T09:15:50.000Z</time>
        <extensions>
          <ns3:TrackPointExtension>
            <ns3:hr>164</ns3:hr>
            <ns3:cad>59</ns3:cad>
          </ns3:TrackPointExtension>
        </extensions>
      </trkpt>
      <trkpt lat="47.495438754558563232421875" lon="10.0788806565105915069580078125">
        <ele>1814.4000244140625</ele>
        <time>2026-09-01T09:15:53.000Z</time>
        <extensions>
          <ns3:TrackPointExtension>
            <ns3:hr>163</ns3:hr>
            <ns3:cad>59</ns3:cad>
          </ns3:TrackPointExtension>
        </extensions>
      </trkpt>
      <trkpt lat="47.4954375810921192169189453125" lon="10.07884888909757137298583984375">
        <ele>1814.5999755859375</ele>
        <time>2026-09-01T09:15:55.000Z</time>
        <extensions>
          <ns3:TrackPointExtension>
            <ns3:hr>163</ns3:hr>
            <ns3:cad>59</ns3:cad>
          </ns3:TrackPointExtension>
        </extensions>
      </trkpt>
      <trkpt lat="47.49543464742600917816162109375" lon="10.07882826961576938629150390625">
        <ele>1814.800048828125</ele>
        <time>2026-09-01T09:15:56.000Z</time>
        <extensions>
          <ns3:TrackPointExtension>
            <ns3:hr>163</ns3:hr>
            <ns3:cad>58</ns3:cad>
          </ns3:TrackPointExtension>
        </extensions>
      </trkpt>
      <trkpt lat="47.49537714757025241851806640625" lon="10.07871620357036590576171875">
        <ele>1815.199951171875</ele>
        <time>2026-09-01T09:16:03.000Z</time>
        <extensions>
          <ns3:TrackPointExtension>
            <ns3:hr>162</ns3:hr>
            <ns3:cad>57</ns3:cad>
          </ns3:TrackPointExtension>
        </extensions>
      </trkpt>
      <trkpt lat="47.49531294219195842742919921875" lon="10.0786352343857288360595703125">
        <ele>1814.800048828125</ele>
        <time>2026-09-01T09:16:09.000Z</time>
        <extensions>
          <ns3:TrackPointExtension>
            <ns3:hr>160</ns3:hr>
            <ns3:cad>62</ns3:cad>
          </ns3:TrackPointExtension>
        </extensions>
      </trkpt>
      <trkpt lat="47.49525276012718677520751953125" lon="10.078495256602764129638671875">
        <ele>1813.800048828125</ele>
        <time>2026-09-01T09:16:13.000Z</time>
        <extensions>
          <ns3:TrackPointExtension>
            <ns3:hr>157</ns3:hr>
            <ns3:cad>82</ns3:cad>
          </ns3:TrackPointExtension>
        </extensions>
      </trkpt>
      <trkpt lat="47.49522912316024303436279296875" lon="10.07846583612263202667236328125">
        <ele>1813.5999755859375</ele>
        <time>2026-09-01T09:16:14.000Z</time>
        <extensions>
          <ns3:TrackPointExtension>
            <ns3:hr>156</ns3:hr>
            <ns3:cad>83</ns3:cad>
          </ns3:TrackPointExtension>
        </extensions>
      </trkpt>
      <trkpt lat="47.4952152930200099945068359375" lon="10.0784347392618656158447265625">
        <ele>1813.199951171875</ele>
        <time>2026-09-01T09:16:15.000Z</time>
        <extensions>
          <ns3:TrackPointExtension>
            <ns3:hr>155</ns3:hr>
            <ns3:cad>83</ns3:cad>
          </ns3:TrackPointExtension>
        </extensions>
      </trkpt>
      <trkpt lat="47.4951696954667568206787109375" lon="10.07828034460544586181640625">
        <ele>1812.4000244140625</ele>
        <time>2026-09-01T09:16:18.000Z</time>
        <extensions>
          <ns3:TrackPointExtension>
            <ns3:hr>154</ns3:hr>
            <ns3:cad>84</ns3:cad>
          </ns3:TrackPointExtension>
        </extensions>
      </trkpt>
      <trkpt lat="47.49512569047510623931884765625" lon="10.0781168974936008453369140625">
        <ele>1811.800048828125</ele>
        <time>2026-09-01T09:16:21.000Z</time>
        <extensions>
          <ns3:TrackPointExtension>
            <ns3:hr>155</ns3:hr>
            <ns3:cad>84</ns3:cad>
          </ns3:TrackPointExtension>
        </extensions>
      </trkpt>
      <trkpt lat="47.495104484260082244873046875" lon="10.0780769996345043182373046875">
        <ele>1811.4000244140625</ele>
        <time>2026-09-01T09:16:22.000Z</time>
        <extensions>
          <ns3:TrackPointExtension>
            <ns3:hr>155</ns3:hr>
            <ns3:cad>84</ns3:cad>
          </ns3:TrackPointExtension>
        </extensions>
      </trkpt>
      <trkpt lat="47.4950771592557430267333984375" lon="10.0780086033046245574951171875">
        <ele>1810.199951171875</ele>
        <time>2026-09-01T09:16:24.000Z</time>
        <extensions>
          <ns3:TrackPointExtension>
            <ns3:hr>155</ns3:hr>
            <ns3:cad>85</ns3:cad>
          </ns3:TrackPointExtension>
        </extensions>
      </trkpt>
      <trkpt lat="47.49506232328712940216064453125" lon="10.07795269601047039031982421875">
        <ele>1809.5999755859375</ele>
        <time>2026-09-01T09:16:25.000Z</time>
        <extensions>
          <ns3:TrackPointExtension>
            <ns3:hr>155</ns3:hr>
            <ns3:cad>83</ns3:cad>
          </ns3:TrackPointExtension>
        </extensions>
      </trkpt>
      <trkpt lat="47.495052181184291839599609375" lon="10.07791061885654926300048828125">
        <ele>1809</ele>
        <time>2026-09-01T09:16:26.000Z</time>
        <extensions>
          <ns3:TrackPointExtension>
            <ns3:hr>155</ns3:hr>
            <ns3:cad>82</ns3:cad>
          </ns3:TrackPointExtension>
        </extensions>
      </trkpt>
      <trkpt lat="47.49503147788345813751220703125" lon="10.07782914675772190093994140625">
        <ele>1807.4000244140625</ele>
        <time>2026-09-01T09:16:28.000Z</time>
        <extensions>
          <ns3:TrackPointExtension>
            <ns3:hr>155</ns3:hr>
            <ns3:cad>82</ns3:cad>
          </ns3:TrackPointExtension>
        </extensions>
      </trkpt>
      <trkpt lat="47.4950087629258632659912109375" lon="10.07777298800647258758544921875">
        <ele>1806</ele>
        <time>2026-09-01T09:16:30.000Z</time>
        <extensions>
          <ns3:TrackPointExtension>
            <ns3:hr>155</ns3:hr>
            <ns3:cad>81</ns3:cad>
          </ns3:TrackPointExtension>
        </extensions>
      </trkpt>
      <trkpt lat="47.4949759058654308319091796875" lon="10.0777112133800983428955078125">
        <ele>1805.199951171875</ele>
        <time>2026-09-01T09:16:32.000Z</time>
        <extensions>
          <ns3:TrackPointExtension>
            <ns3:hr>154</ns3:hr>
            <ns3:cad>81</ns3:cad>
          </ns3:TrackPointExtension>
        </extensions>
      </trkpt>
      <trkpt lat="47.49496257863938808441162109375" lon="10.07769034244120121002197265625">
        <ele>1804.5999755859375</ele>
        <time>2026-09-01T09:16:33.000Z</time>
        <extensions>
          <ns3:TrackPointExtension>
            <ns3:hr>154</ns3:hr>
            <ns3:cad>81</ns3:cad>
          </ns3:TrackPointExtension>
        </extensions>
      </trkpt>
      <trkpt lat="47.49492578208446502685546875" lon="10.07763954810798168182373046875">
        <ele>1802.5999755859375</ele>
        <time>2026-09-01T09:16:35.000Z</time>
        <extensions>
          <ns3:TrackPointExtension>
            <ns3:hr>153</ns3:hr>
            <ns3:cad>81</ns3:cad>
          </ns3:TrackPointExtension>
        </extensions>
      </trkpt>
      <trkpt lat="47.4948944337666034698486328125" lon="10.07758188061416149139404296875">
        <ele>1800.800048828125</ele>
        <time>2026-09-01T09:16:37.000Z</time>
        <extensions>
          <ns3:TrackPointExtension>
            <ns3:hr>153</ns3:hr>
            <ns3:cad>81</ns3:cad>
          </ns3:TrackPointExtension>
        </extensions>
      </trkpt>
      <trkpt lat="47.49486635439097881317138671875" lon="10.0775026716291904449462890625">
        <ele>1799.4000244140625</ele>
        <time>2026-09-01T09:16:39.000Z</time>
        <extensions>
          <ns3:TrackPointExtension>
            <ns3:hr>152</ns3:hr>
            <ns3:cad>81</ns3:cad>
          </ns3:TrackPointExtension>
        </extensions>
      </trkpt>
      <trkpt lat="47.4948280490934848785400390625" lon="10.07737912237644195556640625">
        <ele>1797.800048828125</ele>
        <time>2026-09-01T09:16:41.000Z</time>
        <extensions>
          <ns3:TrackPointExtension>
            <ns3:hr>152</ns3:hr>
            <ns3:cad>81</ns3:cad>
          </ns3:TrackPointExtension>
        </extensions>
      </trkpt>
      <trkpt lat="47.49480399303138256072998046875" lon="10.07725884206593036651611328125">
        <ele>1796.4000244140625</ele>
        <time>2026-09-01T09:16:43.000Z</time>
        <extensions>
          <ns3:TrackPointExtension>
            <ns3:hr>153</ns3:hr>
            <ns3:cad>81</ns3:cad>
          </ns3:TrackPointExtension>
        </extensions>
      </trkpt>
      <trkpt lat="47.49478991143405437469482421875" lon="10.0771544873714447021484375">
        <ele>1796</ele>
        <time>2026-09-01T09:16:46.000Z</time>
        <extensions>
          <ns3:TrackPointExtension>
            <ns3:hr>153</ns3:hr>
            <ns3:cad>89</ns3:cad>
          </ns3:TrackPointExtension>
        </extensions>
      </trkpt>
      <trkpt lat="47.49474582262337207794189453125" lon="10.07706220261752605438232421875">
        <ele>1796.4000244140625</ele>
        <time>2026-09-01T09:16:49.000Z</time>
        <extensions>
          <ns3:TrackPointExtension>
            <ns3:hr>156</ns3:hr>
            <ns3:cad>89</ns3:cad>
          </ns3:TrackPointExtension>
        </extensions>
      </trkpt>
      <trkpt lat="47.4947160668671131134033203125" lon="10.07686036638915538787841796875">
        <ele>1795.199951171875</ele>
        <time>2026-09-01T09:16:53.000Z</time>
        <extensions>
          <ns3:TrackPointExtension>
            <ns3:hr>157</ns3:hr>
            <ns3:cad>89</ns3:cad>
          </ns3:TrackPointExtension>
        </extensions>
      </trkpt>
      <trkpt lat="47.494662590324878692626953125" lon="10.076657272875308990478515625">
        <ele>1793.5999755859375</ele>
        <time>2026-09-01T09:16:57.000Z</time>
        <extensions>
          <ns3:TrackPointExtension>
            <ns3:hr>157</ns3:hr>
            <ns3:cad>89</ns3:cad>
          </ns3:TrackPointExtension>
        </extensions>
      </trkpt>
      <trkpt lat="47.49464549124240875244140625" lon="10.0764961726963520050048828125">
        <ele>1792.5999755859375</ele>
        <time>2026-09-01T09:17:00.000Z</time>
        <extensions>
          <ns3:TrackPointExtension>
            <ns3:hr>158</ns3:hr>
            <ns3:cad>85</ns3:cad>
          </ns3:TrackPointExtension>
        </extensions>
      </trkpt>
      <trkpt lat="47.494604587554931640625" lon="10.0763154588639736175537109375">
        <ele>1791.4000244140625</ele>
        <time>2026-09-01T09:17:04.000Z</time>
        <extensions>
          <ns3:TrackPointExtension>
            <ns3:hr>157</ns3:hr>
            <ns3:cad>85</ns3:cad>
          </ns3:TrackPointExtension>
        </extensions>
      </trkpt>
      <trkpt lat="47.4945898354053497314453125" lon="10.07621529512107372283935546875">
        <ele>1790.4000244140625</ele>
        <time>2026-09-01T09:17:06.000Z</time>
        <extensions>
          <ns3:TrackPointExtension>
            <ns3:hr>156</ns3:hr>
            <ns3:cad>86</ns3:cad>
          </ns3:TrackPointExtension>
        </extensions>
      </trkpt>
      <trkpt lat="47.4945843033492565155029296875" lon="10.07615159265697002410888671875">
        <ele>1789.800048828125</ele>
        <time>2026-09-01T09:17:07.000Z</time>
        <extensions>
          <ns3:TrackPointExtension>
            <ns3:hr>156</ns3:hr>
            <ns3:cad>86</ns3:cad>
          </ns3:TrackPointExtension>
        </extensions>
      </trkpt>
      <trkpt lat="47.4945725686848163604736328125" lon="10.07609761320054531097412109375">
        <ele>1789.199951171875</ele>
        <time>2026-09-01T09:17:08.000Z</time>
        <extensions>
          <ns3:TrackPointExtension>
            <ns3:hr>156</ns3:hr>
            <ns3:cad>85</ns3:cad>
          </ns3:TrackPointExtension>
        </extensions>
      </trkpt>
      <trkpt lat="47.49454180710017681121826171875" lon="10.0759751535952091217041015625">
        <ele>1788.199951171875</ele>
        <time>2026-09-01T09:17:10.000Z</time>
        <extensions>
          <ns3:TrackPointExtension>
            <ns3:hr>156</ns3:hr>
            <ns3:cad>85</ns3:cad>
          </ns3:TrackPointExtension>
        </extensions>
      </trkpt>
      <trkpt lat="47.49453174881637096405029296875" lon="10.0759151391685009002685546875">
        <ele>1787.800048828125</ele>
        <time>2026-09-01T09:17:11.000Z</time>
        <extensions>
          <ns3:TrackPointExtension>
            <ns3:hr>156</ns3:hr>
            <ns3:cad>85</ns3:cad>
          </ns3:TrackPointExtension>
        </extensions>
      </trkpt>
      <trkpt lat="47.49447709880769252777099609375" lon="10.07575596682727336883544921875">
        <ele>1787.4000244140625</ele>
        <time>2026-09-01T09:17:15.000Z</time>
        <extensions>
          <ns3:TrackPointExtension>
            <ns3:hr>156</ns3:hr>
            <ns3:cad>85</ns3:cad>
          </ns3:TrackPointExtension>
        </extensions>
      </trkpt>
      <trkpt lat="47.49446150846779346466064453125" lon="10.0757133029401302337646484375">
        <ele>1787.199951171875</ele>
        <time>2026-09-01T09:17:16.000Z</time>
        <extensions>
          <ns3:TrackPointExtension>
            <ns3:hr>156</ns3:hr>
            <ns3:cad>85</ns3:cad>
          </ns3:TrackPointExtension>
        </extensions>
      </trkpt>
      <trkpt lat="47.4944552220404148101806640625" lon="10.0756848044693470001220703125">
        <ele>1786.800048828125</ele>
        <time>2026-09-01T09:17:17.000Z</time>
        <extensions>
          <ns3:TrackPointExtension>
            <ns3:hr>156</ns3:hr>
            <ns3:cad>87</ns3:cad>
          </ns3:TrackPointExtension>
        </extensions>
      </trkpt>
      <trkpt lat="47.494431249797344207763671875" lon="10.0756281428039073944091796875">
        <ele>1785.800048828125</ele>
        <time>2026-09-01T09:17:19.000Z</time>
        <extensions>
          <ns3:TrackPointExtension>
            <ns3:hr>156</ns3:hr>
            <ns3:cad>89</ns3:cad>
          </ns3:TrackPointExtension>
        </extensions>
      </trkpt>
      <trkpt lat="47.49441456981003284454345703125" lon="10.0756043381989002227783203125">
        <ele>1785.4000244140625</ele>
        <time>2026-09-01T09:17:20.000Z</time>
        <extensions>
          <ns3:TrackPointExtension>
            <ns3:hr>156</ns3:hr>
            <ns3:cad>89</ns3:cad>
          </ns3:TrackPointExtension>
        </extensions>
      </trkpt>
      <trkpt lat="47.49439998529851436614990234375" lon="10.075581371784210205078125">
        <ele>1784.800048828125</ele>
        <time>2026-09-01T09:17:21.000Z</time>
        <extensions>
          <ns3:TrackPointExtension>
            <ns3:hr>156</ns3:hr>
            <ns3:cad>89</ns3:cad>
          </ns3:TrackPointExtension>
        </extensions>
      </trkpt>
      <trkpt lat="47.49436578713357448577880859375" lon="10.07552093826234340667724609375">
        <ele>1783.4000244140625</ele>
        <time>2026-09-01T09:17:23.000Z</time>
        <extensions>
          <ns3:TrackPointExtension>
            <ns3:hr>156</ns3:hr>
            <ns3:cad>89</ns3:cad>
          </ns3:TrackPointExtension>
        </extensions>
      </trkpt>
      <trkpt lat="47.4943538010120391845703125" lon="10.07542186416685581207275390625">
        <ele>1782</ele>
        <time>2026-09-01T09:17:25.000Z</time>
        <extensions>
          <ns3:TrackPointExtension>
            <ns3:hr>155</ns3:hr>
            <ns3:cad>89</ns3:cad>
          </ns3:TrackPointExtension>
        </extensions>
      </trkpt>
      <trkpt lat="47.49435036443173885345458984375" lon="10.07537953555583953857421875">
        <ele>1781.5999755859375</ele>
        <time>2026-09-01T09:17:26.000Z</time>
        <extensions>
          <ns3:TrackPointExtension>
            <ns3:hr>155</ns3:hr>
            <ns3:cad>89</ns3:cad>
          </ns3:TrackPointExtension>
        </extensions>
      </trkpt>
      <trkpt lat="47.49430661089718341827392578125" lon="10.07526529021561145782470703125">
        <ele>1781.4000244140625</ele>
        <time>2026-09-01T09:17:30.000Z</time>
        <extensions>
          <ns3:TrackPointExtension>
            <ns3:hr>153</ns3:hr>
            <ns3:cad>0</ns3:cad>
          </ns3:TrackPointExtension>
        </extensions>
      </trkpt>
      <trkpt lat="47.4942781962454319000244140625" lon="10.07523469626903533935546875">
        <ele>1781</ele>
        <time>2026-09-01T09:17:32.000Z</time>
        <extensions>
          <ns3:TrackPointExtension>
            <ns3:hr>152</ns3:hr>
            <ns3:cad>79</ns3:cad>
          </ns3:TrackPointExtension>
        </extensions>
      </trkpt>
      <trkpt lat="47.4942600913345813751220703125" lon="10.07524081505835056304931640625">
        <ele>1780.4000244140625</ele>
        <time>2026-09-01T09:17:33.000Z</time>
        <extensions>
          <ns3:TrackPointExtension>
            <ns3:hr>152</ns3:hr>
            <ns3:cad>79</ns3:cad>
          </ns3:TrackPointExtension>
        </extensions>
      </trkpt>
      <trkpt lat="47.49425129033625125885009765625" lon="10.07523427717387676239013671875">
        <ele>1780</ele>
        <time>2026-09-01T09:17:34.000Z</time>
        <extensions>
          <ns3:TrackPointExtension>
            <ns3:hr>152</ns3:hr>
            <ns3:cad>79</ns3:cad>
          </ns3:TrackPointExtension>
        </extensions>
      </trkpt>
      <trkpt lat="47.49423645436763763427734375" lon="10.07520762272179126739501953125">
        <ele>1779.199951171875</ele>
        <time>2026-09-01T09:17:35.000Z</time>
        <extensions>
          <ns3:TrackPointExtension>
            <ns3:hr>152</ns3:hr>
            <ns3:cad>79</ns3:cad>
          </ns3:TrackPointExtension>
        </extensions>
      </trkpt>
      <trkpt lat="47.49419965781271457672119140625" lon="10.07513143122196197509765625">
        <ele>1777.4000244140625</ele>
        <time>2026-09-01T09:17:37.000Z</time>
        <extensions>
          <ns3:TrackPointExtension>
            <ns3:hr>152</ns3:hr>
            <ns3:cad>79</ns3:cad>
          </ns3:TrackPointExtension>
        </extensions>
      </trkpt>
      <trkpt lat="47.49415171332657337188720703125" lon="10.0750383920967578887939453125">
        <ele>1775.800048828125</ele>
        <time>2026-09-01T09:17:39.000Z</time>
        <extensions>
          <ns3:TrackPointExtension>
            <ns3:hr>152</ns3:hr>
            <ns3:cad>79</ns3:cad>
          </ns3:TrackPointExtension>
        </extensions>
      </trkpt>
      <trkpt lat="47.49413411132991313934326171875" lon="10.0749924592673778533935546875">
        <ele>1775.4000244140625</ele>
        <time>2026-09-01T09:17:40.000Z</time>
        <extensions>
          <ns3:TrackPointExtension>
            <ns3:hr>153</ns3:hr>
            <ns3:cad>79</ns3:cad>
          </ns3:TrackPointExtension>
        </extensions>
      </trkpt>
      <trkpt lat="47.4941273219883441925048828125" lon="10.0749535672366619110107421875">
        <ele>1774.800048828125</ele>
        <time>2026-09-01T09:17:41.000Z</time>
        <extensions>
          <ns3:TrackPointExtension>
            <ns3:hr>153</ns3:hr>
            <ns3:cad>79</ns3:cad>
          </ns3:TrackPointExtension>
        </extensions>
      </trkpt>
      <trkpt lat="47.4940917827188968658447265625" lon="10.0748905353248119354248046875">
        <ele>1773.4000244140625</ele>
        <time>2026-09-01T09:17:43.000Z</time>
        <extensions>
          <ns3:TrackPointExtension>
            <ns3:hr>152</ns3:hr>
            <ns3:cad>85</ns3:cad>
          </ns3:TrackPointExtension>
        </extensions>
      </trkpt>
      <trkpt lat="47.4940668046474456787109375" lon="10.07480311207473278045654296875">
        <ele>1772.199951171875</ele>
        <time>2026-09-01T09:17:45.000Z</time>
        <extensions>
          <ns3:TrackPointExtension>
            <ns3:hr>151</ns3:hr>
            <ns3:cad>87</ns3:cad>
          </ns3:TrackPointExtension>
        </extensions>
      </trkpt>
      <trkpt lat="47.4940373003482818603515625" lon="10.0747431814670562744140625">
        <ele>1771.4000244140625</ele>
        <time>2026-09-01T09:17:47.000Z</time>
        <extensions>
          <ns3:TrackPointExtension>
            <ns3:hr>151</ns3:hr>
            <ns3:cad>87</ns3:cad>
          </ns3:TrackPointExtension>
        </extensions>
      </trkpt>
      <trkpt lat="47.494020201265811920166015625" lon="10.07470898330211639404296875">
        <ele>1771.199951171875</ele>
        <time>2026-09-01T09:17:48.000Z</time>
        <extensions>
          <ns3:TrackPointExtension>
            <ns3:hr>151</ns3:hr>
            <ns3:cad>87</ns3:cad>
          </ns3:TrackPointExtension>
        </extensions>
      </trkpt>
      <trkpt lat="47.4939858354628086090087890625" lon="10.07462223060429096221923828125">
        <ele>1770</ele>
        <time>2026-09-01T09:17:51.000Z</time>
        <extensions>
          <ns3:TrackPointExtension>
            <ns3:hr>150</ns3:hr>
            <ns3:cad>87</ns3:cad>
          </ns3:TrackPointExtension>
        </extensions>
      </trkpt>
      <trkpt lat="47.49395742081105709075927734375" lon="10.074571855366230010986328125">
        <ele>1768.800048828125</ele>
        <time>2026-09-01T09:17:53.000Z</time>
        <extensions>
          <ns3:TrackPointExtension>
            <ns3:hr>149</ns3:hr>
            <ns3:cad>87</ns3:cad>
          </ns3:TrackPointExtension>
        </extensions>
      </trkpt>
      <trkpt lat="47.493932358920574188232421875" lon="10.07453086785972118377685546875">
        <ele>1767.5999755859375</ele>
        <time>2026-09-01T09:17:55.000Z</time>
        <extensions>
          <ns3:TrackPointExtension>
            <ns3:hr>149</ns3:hr>
            <ns3:cad>89</ns3:cad>
          </ns3:TrackPointExtension>
        </extensions>
      </trkpt>
      <trkpt lat="47.49390880577266216278076171875" lon="10.07451695390045642852783203125">
        <ele>1767</ele>
        <time>2026-09-01T09:17:56.000Z</time>
        <extensions>
          <ns3:TrackPointExtension>
            <ns3:hr>149</ns3:hr>
            <ns3:cad>89</ns3:cad>
          </ns3:TrackPointExtension>
        </extensions>
      </trkpt>
      <trkpt lat="47.493896149098873138427734375" lon="10.074514187872409820556640625">
        <ele>1766.4000244140625</ele>
        <time>2026-09-01T09:17:57.000Z</time>
        <extensions>
          <ns3:TrackPointExtension>
            <ns3:hr>149</ns3:hr>
            <ns3:cad>89</ns3:cad>
          </ns3:TrackPointExtension>
        </extensions>
      </trkpt>
      <trkpt lat="47.49386907555162906646728515625" lon="10.07448091171681880950927734375">
        <ele>1765</ele>
        <time>2026-09-01T09:17:59.000Z</time>
        <extensions>
          <ns3:TrackPointExtension>
            <ns3:hr>149</ns3:hr>
            <ns3:cad>89</ns3:cad>
          </ns3:TrackPointExtension>
        </extensions>
      </trkpt>
      <trkpt lat="47.493850886821746826171875" lon="10.0744462944567203521728515625">
        <ele>1763.4000244140625</ele>
        <time>2026-09-01T09:18:01.000Z</time>
        <extensions>
          <ns3:TrackPointExtension>
            <ns3:hr>149</ns3:hr>
            <ns3:cad>89</ns3:cad>
          </ns3:TrackPointExtension>
        </extensions>
      </trkpt>
      <trkpt lat="47.49383504502475261688232421875" lon="10.0744137726724147796630859375">
        <ele>1762.4000244140625</ele>
        <time>2026-09-01T09:18:02.000Z</time>
        <extensions>
          <ns3:TrackPointExtension>
            <ns3:hr>149</ns3:hr>
            <ns3:cad>89</ns3:cad>
          </ns3:TrackPointExtension>
        </extensions>
      </trkpt>
      <trkpt lat="47.49382230453193187713623046875" lon="10.074385106563568115234375">
        <ele>1761.5999755859375</ele>
        <time>2026-09-01T09:18:03.000Z</time>
        <extensions>
          <ns3:TrackPointExtension>
            <ns3:hr>149</ns3:hr>
            <ns3:cad>83</ns3:cad>
          </ns3:TrackPointExtension>
        </extensions>
      </trkpt>
      <trkpt lat="47.4937937222421169281005859375" lon="10.0743470527231693267822265625">
        <ele>1760.199951171875</ele>
        <time>2026-09-01T09:18:05.000Z</time>
        <extensions>
          <ns3:TrackPointExtension>
            <ns3:hr>149</ns3:hr>
            <ns3:cad>83</ns3:cad>
          </ns3:TrackPointExtension>
        </extensions>
      </trkpt>
      <trkpt lat="47.49377788044512271881103515625" lon="10.0743239186704158782958984375">
        <ele>1759.4000244140625</ele>
        <time>2026-09-01T09:18:06.000Z</time>
        <extensions>
          <ns3:TrackPointExtension>
            <ns3:hr>148</ns3:hr>
            <ns3:cad>83</ns3:cad>
          </ns3:TrackPointExtension>
        </extensions>
      </trkpt>
      <trkpt lat="47.493763379752635955810546875" lon="10.07430572994053363800048828125">
        <ele>1758.800048828125</ele>
        <time>2026-09-01T09:18:07.000Z</time>
        <extensions>
          <ns3:TrackPointExtension>
            <ns3:hr>148</ns3:hr>
            <ns3:cad>83</ns3:cad>
          </ns3:TrackPointExtension>
        </extensions>
      </trkpt>
      <trkpt lat="47.49374284408986568450927734375" lon="10.07424269802868366241455078125">
        <ele>1757.199951171875</ele>
        <time>2026-09-01T09:18:09.000Z</time>
        <extensions>
          <ns3:TrackPointExtension>
            <ns3:hr>149</ns3:hr>
            <ns3:cad>83</ns3:cad>
          </ns3:TrackPointExtension>
        </extensions>
      </trkpt>
      <trkpt lat="47.4937266670167446136474609375" lon="10.07422191090881824493408203125">
        <ele>1756.4000244140625</ele>
        <time>2026-09-01T09:18:10.000Z</time>
        <extensions>
          <ns3:TrackPointExtension>
            <ns3:hr>150</ns3:hr>
            <ns3:cad>83</ns3:cad>
          </ns3:TrackPointExtension>
        </extensions>
      </trkpt>
      <trkpt lat="47.493710406124591827392578125" lon="10.0741934962570667266845703125">
        <ele>1755.5999755859375</ele>
        <time>2026-09-01T09:18:11.000Z</time>
        <extensions>
          <ns3:TrackPointExtension>
            <ns3:hr>149</ns3:hr>
            <ns3:cad>83</ns3:cad>
          </ns3:TrackPointExtension>
        </extensions>
      </trkpt>
      <trkpt lat="47.49367897398769855499267578125" lon="10.07413222454488277435302734375">
        <ele>1754</ele>
        <time>2026-09-01T09:18:13.000Z</time>
        <extensions>
          <ns3:TrackPointExtension>
            <ns3:hr>150</ns3:hr>
            <ns3:cad>83</ns3:cad>
          </ns3:TrackPointExtension>
        </extensions>
      </trkpt>
      <trkpt lat="47.4936659820377826690673828125" lon="10.0741056539118289947509765625">
        <ele>1753.199951171875</ele>
        <time>2026-09-01T09:18:14.000Z</time>
        <extensions>
          <ns3:TrackPointExtension>
            <ns3:hr>151</ns3:hr>
            <ns3:cad>83</ns3:cad>
          </ns3:TrackPointExtension>
        </extensions>
      </trkpt>
      <trkpt lat="47.49364762566983699798583984375" lon="10.0740805082023143768310546875">
        <ele>1752.5999755859375</ele>
        <time>2026-09-01T09:18:15.000Z</time>
        <extensions>
          <ns3:TrackPointExtension>
            <ns3:hr>151</ns3:hr>
            <ns3:cad>83</ns3:cad>
          </ns3:TrackPointExtension>
        </extensions>
      </trkpt>
      <trkpt lat="47.49362356960773468017578125" lon="10.07403365336358547210693359375">
        <ele>1751.199951171875</ele>
        <time>2026-09-01T09:18:17.000Z</time>
        <extensions>
          <ns3:TrackPointExtension>
            <ns3:hr>151</ns3:hr>
            <ns3:cad>83</ns3:cad>
          </ns3:TrackPointExtension>
        </extensions>
      </trkpt>
      <trkpt lat="47.4936001002788543701171875" lon="10.073999203741550445556640625">
        <ele>1750.4000244140625</ele>
        <time>2026-09-01T09:18:18.000Z</time>
        <extensions>
          <ns3:TrackPointExtension>
            <ns3:hr>151</ns3:hr>
            <ns3:cad>83</ns3:cad>
          </ns3:TrackPointExtension>
        </extensions>
      </trkpt>
      <trkpt lat="47.493585683405399322509765625" lon="10.0739906542003154754638671875">
        <ele>1749.800048828125</ele>
        <time>2026-09-01T09:18:19.000Z</time>
        <extensions>
          <ns3:TrackPointExtension>
            <ns3:hr>150</ns3:hr>
            <ns3:cad>83</ns3:cad>
          </ns3:TrackPointExtension>
        </extensions>
      </trkpt>
      <trkpt lat="47.4935613758862018585205078125" lon="10.073951594531536102294921875">
        <ele>1748.199951171875</ele>
        <time>2026-09-01T09:18:21.000Z</time>
        <extensions>
          <ns3:TrackPointExtension>
            <ns3:hr>151</ns3:hr>
            <ns3:cad>83</ns3:cad>
          </ns3:TrackPointExtension>
        </extensions>
      </trkpt>
      <trkpt lat="47.4935429356992244720458984375" lon="10.07394564338028430938720703125">
        <ele>1747.5999755859375</ele>
        <time>2026-09-01T09:18:22.000Z</time>
        <extensions>
          <ns3:TrackPointExtension>
            <ns3:hr>150</ns3:hr>
            <ns3:cad>83</ns3:cad>
          </ns3:TrackPointExtension>
        </extensions>
      </trkpt>
      <trkpt lat="47.493529357016086578369140625" lon="10.0739396922290325164794921875">
        <ele>1747</ele>
        <time>2026-09-01T09:18:23.000Z</time>
        <extensions>
          <ns3:TrackPointExtension>
            <ns3:hr>150</ns3:hr>
            <ns3:cad>83</ns3:cad>
          </ns3:TrackPointExtension>
        </extensions>
      </trkpt>
      <trkpt lat="47.4934995174407958984375" lon="10.073913037776947021484375">
        <ele>1745.5999755859375</ele>
        <time>2026-09-01T09:18:25.000Z</time>
        <extensions>
          <ns3:TrackPointExtension>
            <ns3:hr>150</ns3:hr>
            <ns3:cad>0</ns3:cad>
          </ns3:TrackPointExtension>
        </extensions>
      </trkpt>
      <trkpt lat="47.49346825294196605682373046875" lon="10.07388881407678127288818359375">
        <ele>1744.4000244140625</ele>
        <time>2026-09-01T09:18:27.000Z</time>
        <extensions>
          <ns3:TrackPointExtension>
            <ns3:hr>150</ns3:hr>
            <ns3:cad>0</ns3:cad>
          </ns3:TrackPointExtension>
        </extensions>
      </trkpt>
      <trkpt lat="47.4934525787830352783203125" lon="10.0738763250410556793212890625">
        <ele>1743.4000244140625</ele>
        <time>2026-09-01T09:18:28.000Z</time>
        <extensions>
          <ns3:TrackPointExtension>
            <ns3:hr>149</ns3:hr>
            <ns3:cad>0</ns3:cad>
          </ns3:TrackPointExtension>
        </extensions>
      </trkpt>
      <trkpt lat="47.4934426881372928619384765625" lon="10.07386333309113979339599609375">
        <ele>1742.5999755859375</ele>
        <time>2026-09-01T09:18:29.000Z</time>
        <extensions>
          <ns3:TrackPointExtension>
            <ns3:hr>149</ns3:hr>
            <ns3:cad>0</ns3:cad>
          </ns3:TrackPointExtension>
        </extensions>
      </trkpt>
      <trkpt lat="47.49342433176934719085693359375" lon="10.07384438998997211456298828125">
        <ele>1741.800048828125</ele>
        <time>2026-09-01T09:18:30.000Z</time>
        <extensions>
          <ns3:TrackPointExtension>
            <ns3:hr>149</ns3:hr>
            <ns3:cad>0</ns3:cad>
          </ns3:TrackPointExtension>
        </extensions>
      </trkpt>
      <trkpt lat="47.4933950789272785186767578125" lon="10.0738032348453998565673828125">
        <ele>1740</ele>
        <time>2026-09-01T09:18:32.000Z</time>
        <extensions>
          <ns3:TrackPointExtension>
            <ns3:hr>149</ns3:hr>
            <ns3:cad>0</ns3:cad>
          </ns3:TrackPointExtension>
        </extensions>
      </trkpt>
      <trkpt lat="47.4933816678822040557861328125" lon="10.0737829506397247314453125">
        <ele>1738.800048828125</ele>
        <time>2026-09-01T09:18:33.000Z</time>
        <extensions>
          <ns3:TrackPointExtension>
            <ns3:hr>149</ns3:hr>
            <ns3:cad>0</ns3:cad>
          </ns3:TrackPointExtension>
        </extensions>
      </trkpt>
      <trkpt lat="47.49335392378270626068115234375" lon="10.07375503890216350555419921875">
        <ele>1736.800048828125</ele>
        <time>2026-09-01T09:18:35.000Z</time>
        <extensions>
          <ns3:TrackPointExtension>
            <ns3:hr>149</ns3:hr>
            <ns3:cad>0</ns3:cad>
          </ns3:TrackPointExtension>
        </extensions>
      </trkpt>
      <trkpt lat="47.49333213083446025848388671875" lon="10.07369435392320156097412109375">
        <ele>1735.199951171875</ele>
        <time>2026-09-01T09:18:37.000Z</time>
        <extensions>
          <ns3:TrackPointExtension>
            <ns3:hr>149</ns3:hr>
            <ns3:cad>0</ns3:cad>
          </ns3:TrackPointExtension>
        </extensions>
      </trkpt>
      <trkpt lat="47.493306063115596771240234375" lon="10.0736419670283794403076171875">
        <ele>1733.800048828125</ele>
        <time>2026-09-01T09:18:39.000Z</time>
        <extensions>
          <ns3:TrackPointExtension>
            <ns3:hr>149</ns3:hr>
            <ns3:cad>85</ns3:cad>
          </ns3:TrackPointExtension>
        </extensions>
      </trkpt>
      <trkpt lat="47.49326373450458049774169921875" lon="10.07358036004006862640380859375">
        <ele>1732</ele>
        <time>2026-09-01T09:18:41.000Z</time>
        <extensions>
          <ns3:TrackPointExtension>
            <ns3:hr>149</ns3:hr>
            <ns3:cad>91</ns3:cad>
          </ns3:TrackPointExtension>
        </extensions>
      </trkpt>
      <trkpt lat="47.493244372308254241943359375" lon="10.07356460206210613250732421875">
        <ele>1731.199951171875</ele>
        <time>2026-09-01T09:18:42.000Z</time>
        <extensions>
          <ns3:TrackPointExtension>
            <ns3:hr>148</ns3:hr>
            <ns3:cad>91</ns3:cad>
          </ns3:TrackPointExtension>
        </extensions>
      </trkpt>
      <trkpt lat="47.4932217411696910858154296875" lon="10.0735591538250446319580078125">
        <ele>1730.199951171875</ele>
        <time>2026-09-01T09:18:43.000Z</time>
        <extensions>
          <ns3:TrackPointExtension>
            <ns3:hr>148</ns3:hr>
            <ns3:cad>99</ns3:cad>
          </ns3:TrackPointExtension>
        </extensions>
      </trkpt>
      <trkpt lat="47.4931972660124301910400390625" lon="10.07351900450885295867919921875">
        <ele>1728.800048828125</ele>
        <time>2026-09-01T09:18:45.000Z</time>
        <extensions>
          <ns3:TrackPointExtension>
            <ns3:hr>149</ns3:hr>
            <ns3:cad>94</ns3:cad>
          </ns3:TrackPointExtension>
        </extensions>
      </trkpt>
      <trkpt lat="47.49318368732929229736328125" lon="10.07349637337028980255126953125">
        <ele>1728</ele>
        <time>2026-09-01T09:18:46.000Z</time>
        <extensions>
          <ns3:TrackPointExtension>
            <ns3:hr>148</ns3:hr>
            <ns3:cad>94</ns3:cad>
          </ns3:TrackPointExtension>
        </extensions>
      </trkpt>
      <trkpt lat="47.49316667206585407257080078125" lon="10.0734689645469188690185546875">
        <ele>1727.4000244140625</ele>
        <time>2026-09-01T09:18:47.000Z</time>
        <extensions>
          <ns3:TrackPointExtension>
            <ns3:hr>148</ns3:hr>
            <ns3:cad>94</ns3:cad>
          </ns3:TrackPointExtension>
        </extensions>
      </trkpt>
      <trkpt lat="47.49312945641577243804931640625" lon="10.07343183271586894989013671875">
        <ele>1726.199951171875</ele>
        <time>2026-09-01T09:18:49.000Z</time>
        <extensions>
          <ns3:TrackPointExtension>
            <ns3:hr>148</ns3:hr>
            <ns3:cad>89</ns3:cad>
          </ns3:TrackPointExtension>
        </extensions>
      </trkpt>
      <trkpt lat="47.49308704398572444915771484375" lon="10.07341741584241390228271484375">
        <ele>1724.800048828125</ele>
        <time>2026-09-01T09:18:51.000Z</time>
        <extensions>
          <ns3:TrackPointExtension>
            <ns3:hr>149</ns3:hr>
            <ns3:cad>88</ns3:cad>
          </ns3:TrackPointExtension>
        </extensions>
      </trkpt>
      <trkpt lat="47.4930675141513347625732421875" lon="10.073370225727558135986328125">
        <ele>1723.4000244140625</ele>
        <time>2026-09-01T09:18:53.000Z</time>
        <extensions>
          <ns3:TrackPointExtension>
            <ns3:hr>149</ns3:hr>
            <ns3:cad>55</ns3:cad>
          </ns3:TrackPointExtension>
        </extensions>
      </trkpt>
      <trkpt lat="47.49304111115634441375732421875" lon="10.07332521490752696990966796875">
        <ele>1722</ele>
        <time>2026-09-01T09:18:55.000Z</time>
        <extensions>
          <ns3:TrackPointExtension>
            <ns3:hr>148</ns3:hr>
            <ns3:cad>55</ns3:cad>
          </ns3:TrackPointExtension>
        </extensions>
      </trkpt>
      <trkpt lat="47.49300800263881683349609375" lon="10.073259584605693817138671875">
        <ele>1720</ele>
        <time>2026-09-01T09:18:57.000Z</time>
        <extensions>
          <ns3:TrackPointExtension>
            <ns3:hr>148</ns3:hr>
            <ns3:cad>95</ns3:cad>
          </ns3:TrackPointExtension>
        </extensions>
      </trkpt>
      <trkpt lat="47.4929831922054290771484375" lon="10.07321541197597980499267578125">
        <ele>1718.5999755859375</ele>
        <time>2026-09-01T09:18:59.000Z</time>
        <extensions>
          <ns3:TrackPointExtension>
            <ns3:hr>148</ns3:hr>
            <ns3:cad>95</ns3:cad>
          </ns3:TrackPointExtension>
        </extensions>
      </trkpt>
      <trkpt lat="47.49296584166586399078369140625" lon="10.0731950439512729644775390625">
        <ele>1718</ele>
        <time>2026-09-01T09:19:00.000Z</time>
        <extensions>
          <ns3:TrackPointExtension>
            <ns3:hr>148</ns3:hr>
            <ns3:cad>95</ns3:cad>
          </ns3:TrackPointExtension>
        </extensions>
      </trkpt>
      <trkpt lat="47.49295159243047237396240234375" lon="10.07317769341170787811279296875">
        <ele>1717.4000244140625</ele>
        <time>2026-09-01T09:19:01.000Z</time>
        <extensions>
          <ns3:TrackPointExtension>
            <ns3:hr>148</ns3:hr>
            <ns3:cad>85</ns3:cad>
          </ns3:TrackPointExtension>
        </extensions>
      </trkpt>
      <trkpt lat="47.4929226748645305633544921875" lon="10.07314902730286121368408203125">
        <ele>1716.199951171875</ele>
        <time>2026-09-01T09:19:03.000Z</time>
        <extensions>
          <ns3:TrackPointExtension>
            <ns3:hr>147</ns3:hr>
            <ns3:cad>86</ns3:cad>
          </ns3:TrackPointExtension>
        </extensions>
      </trkpt>
      <trkpt lat="47.49288889579474925994873046875" lon="10.0731088779866695404052734375">
        <ele>1714.800048828125</ele>
        <time>2026-09-01T09:19:05.000Z</time>
        <extensions>
          <ns3:TrackPointExtension>
            <ns3:hr>147</ns3:hr>
            <ns3:cad>86</ns3:cad>
          </ns3:TrackPointExtension>
        </extensions>
      </trkpt>
      <trkpt lat="47.4928666837513446807861328125" lon="10.07308029569685459136962890625">
        <ele>1713.4000244140625</ele>
        <time>2026-09-01T09:19:07.000Z</time>
        <extensions>
          <ns3:TrackPointExtension>
            <ns3:hr>148</ns3:hr>
            <ns3:cad>95</ns3:cad>
          </ns3:TrackPointExtension>
        </extensions>
      </trkpt>
      <trkpt lat="47.4928572960197925567626953125" lon="10.0730696506798267364501953125">
        <ele>1712.5999755859375</ele>
        <time>2026-09-01T09:19:08.000Z</time>
        <extensions>
          <ns3:TrackPointExtension>
            <ns3:hr>148</ns3:hr>
            <ns3:cad>95</ns3:cad>
          </ns3:TrackPointExtension>
        </extensions>
      </trkpt>
      <trkpt lat="47.49284681864082813262939453125" lon="10.07305598817765712738037109375">
        <ele>1712</ele>
        <time>2026-09-01T09:19:09.000Z</time>
        <extensions>
          <ns3:TrackPointExtension>
            <ns3:hr>148</ns3:hr>
            <ns3:cad>95</ns3:cad>
          </ns3:TrackPointExtension>
        </extensions>
      </trkpt>
      <trkpt lat="47.49282167293131351470947265625" lon="10.07302992045879364013671875">
        <ele>1710.5999755859375</ele>
        <time>2026-09-01T09:19:11.000Z</time>
        <extensions>
          <ns3:TrackPointExtension>
            <ns3:hr>148</ns3:hr>
            <ns3:cad>95</ns3:cad>
          </ns3:TrackPointExtension>
        </extensions>
      </trkpt>
      <trkpt lat="47.49280977062880992889404296875" lon="10.07302430458366870880126953125">
        <ele>1709.800048828125</ele>
        <time>2026-09-01T09:19:12.000Z</time>
        <extensions>
          <ns3:TrackPointExtension>
            <ns3:hr>148</ns3:hr>
            <ns3:cad>95</ns3:cad>
          </ns3:TrackPointExtension>
        </extensions>
      </trkpt>
      <trkpt lat="47.4927902407944202423095703125" lon="10.073000080883502960205078125">
        <ele>1709.199951171875</ele>
        <time>2026-09-01T09:19:13.000Z</time>
        <extensions>
          <ns3:TrackPointExtension>
            <ns3:hr>148</ns3:hr>
            <ns3:cad>0</ns3:cad>
          </ns3:TrackPointExtension>
        </extensions>
      </trkpt>
      <trkpt lat="47.49275998212397098541259765625" lon="10.07295574061572551727294921875">
        <ele>1707.4000244140625</ele>
        <time>2026-09-01T09:19:15.000Z</time>
        <extensions>
          <ns3:TrackPointExtension>
            <ns3:hr>148</ns3:hr>
            <ns3:cad>0</ns3:cad>
          </ns3:TrackPointExtension>
        </extensions>
      </trkpt>
      <trkpt lat="47.492738105356693267822265625" lon="10.0729241408407688140869140625">
        <ele>1706.5999755859375</ele>
        <time>2026-09-01T09:19:16.000Z</time>
        <extensions>
          <ns3:TrackPointExtension>
            <ns3:hr>148</ns3:hr>
            <ns3:cad>0</ns3:cad>
          </ns3:TrackPointExtension>
        </extensions>
      </trkpt>
      <trkpt lat="47.4927235208451747894287109375" lon="10.07290226407349109649658203125">
        <ele>1705.800048828125</ele>
        <time>2026-09-01T09:19:17.000Z</time>
        <extensions>
          <ns3:TrackPointExtension>
            <ns3:hr>148</ns3:hr>
            <ns3:cad>83</ns3:cad>
          </ns3:TrackPointExtension>
        </extensions>
      </trkpt>
      <trkpt lat="47.492687813937664031982421875" lon="10.07283336482942104339599609375">
        <ele>1704.5999755859375</ele>
        <time>2026-09-01T09:19:19.000Z</time>
        <extensions>
          <ns3:TrackPointExtension>
            <ns3:hr>148</ns3:hr>
            <ns3:cad>83</ns3:cad>
          </ns3:TrackPointExtension>
        </extensions>
      </trkpt>
      <trkpt lat="47.49265260994434356689453125" lon="10.072774104773998260498046875">
        <ele>1703.199951171875</ele>
        <time>2026-09-01T09:19:22.000Z</time>
        <extensions>
          <ns3:TrackPointExtension>
            <ns3:hr>147</ns3:hr>
            <ns3:cad>83</ns3:cad>
          </ns3:TrackPointExtension>
        </extensions>
      </trkpt>
      <trkpt lat="47.49264456331729888916015625" lon="10.07274736650288105010986328125">
        <ele>1702.800048828125</ele>
        <time>2026-09-01T09:19:23.000Z</time>
        <extensions>
          <ns3:TrackPointExtension>
            <ns3:hr>147</ns3:hr>
            <ns3:cad>83</ns3:cad>
          </ns3:TrackPointExtension>
        </extensions>
      </trkpt>
      <trkpt lat="47.49262352474033832550048828125" lon="10.07272473536431789398193359375">
        <ele>1702.199951171875</ele>
        <time>2026-09-01T09:19:25.000Z</time>
        <extensions>
          <ns3:TrackPointExtension>
            <ns3:hr>146</ns3:hr>
            <ns3:cad>85</ns3:cad>
          </ns3:TrackPointExtension>
        </extensions>
      </trkpt>
      <trkpt lat="47.49259226024150848388671875" lon="10.0726871006190776824951171875">
        <ele>1701.5999755859375</ele>
        <time>2026-09-01T09:19:27.000Z</time>
        <extensions>
          <ns3:TrackPointExtension>
            <ns3:hr>145</ns3:hr>
            <ns3:cad>85</ns3:cad>
          </ns3:TrackPointExtension>
        </extensions>
      </trkpt>
      <trkpt lat="47.49256066046655178070068359375" lon="10.07263940759003162384033203125">
        <ele>1700.5999755859375</ele>
        <time>2026-09-01T09:19:29.000Z</time>
        <extensions>
          <ns3:TrackPointExtension>
            <ns3:hr>146</ns3:hr>
            <ns3:cad>85</ns3:cad>
          </ns3:TrackPointExtension>
        </extensions>
      </trkpt>
      <trkpt lat="47.4925337545573711395263671875" lon="10.07260470651090145111083984375">
        <ele>1699</ele>
        <time>2026-09-01T09:19:31.000Z</time>
        <extensions>
          <ns3:TrackPointExtension>
            <ns3:hr>146</ns3:hr>
            <ns3:cad>85</ns3:cad>
          </ns3:TrackPointExtension>
        </extensions>
      </trkpt>
      <trkpt lat="47.49250768683850765228271484375" lon="10.07259582169353961944580078125">
        <ele>1698.199951171875</ele>
        <time>2026-09-01T09:19:32.000Z</time>
        <extensions>
          <ns3:TrackPointExtension>
            <ns3:hr>147</ns3:hr>
            <ns3:cad>80</ns3:cad>
          </ns3:TrackPointExtension>
        </extensions>
      </trkpt>
      <trkpt lat="47.4924871511757373809814453125" lon="10.072605125606060028076171875">
        <ele>1697.800048828125</ele>
        <time>2026-09-01T09:19:33.000Z</time>
        <extensions>
          <ns3:TrackPointExtension>
            <ns3:hr>147</ns3:hr>
            <ns3:cad>80</ns3:cad>
          </ns3:TrackPointExtension>
        </extensions>
      </trkpt>
      <trkpt lat="47.49242219142615795135498046875" lon="10.07264711894094944000244140625">
        <ele>1696.199951171875</ele>
        <time>2026-09-01T09:19:35.000Z</time>
        <extensions>
          <ns3:TrackPointExtension>
            <ns3:hr>147</ns3:hr>
            <ns3:cad>80</ns3:cad>
          </ns3:TrackPointExtension>
        </extensions>
      </trkpt>
      <trkpt lat="47.49235547147691249847412109375" lon="10.07270713336765766143798828125">
        <ele>1694.5999755859375</ele>
        <time>2026-09-01T09:19:37.000Z</time>
        <extensions>
          <ns3:TrackPointExtension>
            <ns3:hr>147</ns3:hr>
            <ns3:cad>79</ns3:cad>
          </ns3:TrackPointExtension>
        </extensions>
      </trkpt>
      <trkpt lat="47.49233066104352474212646484375" lon="10.072731859982013702392578125">
        <ele>1694</ele>
        <time>2026-09-01T09:19:38.000Z</time>
        <extensions>
          <ns3:TrackPointExtension>
            <ns3:hr>146</ns3:hr>
            <ns3:cad>79</ns3:cad>
          </ns3:TrackPointExtension>
        </extensions>
      </trkpt>
      <trkpt lat="47.49227668158710002899169921875" lon="10.0727571733295917510986328125">
        <ele>1693.199951171875</ele>
        <time>2026-09-01T09:19:40.000Z</time>
        <extensions>
          <ns3:TrackPointExtension>
            <ns3:hr>146</ns3:hr>
            <ns3:cad>79</ns3:cad>
          </ns3:TrackPointExtension>
        </extensions>
      </trkpt>
      <trkpt lat="47.4921917729079723358154296875" lon="10.0727154314517974853515625">
        <ele>1691.800048828125</ele>
        <time>2026-09-01T09:19:43.000Z</time>
        <extensions>
          <ns3:TrackPointExtension>
            <ns3:hr>147</ns3:hr>
            <ns3:cad>84</ns3:cad>
          </ns3:TrackPointExtension>
        </extensions>
      </trkpt>
      <trkpt lat="47.49216838739812374114990234375" lon="10.07267897017300128936767578125">
        <ele>1691.4000244140625</ele>
        <time>2026-09-01T09:19:44.000Z</time>
        <extensions>
          <ns3:TrackPointExtension>
            <ns3:hr>147</ns3:hr>
            <ns3:cad>84</ns3:cad>
          </ns3:TrackPointExtension>
        </extensions>
      </trkpt>
      <trkpt lat="47.4921565689146518707275390625" lon="10.072647370398044586181640625">
        <ele>1690.5999755859375</ele>
        <time>2026-09-01T09:19:45.000Z</time>
        <extensions>
          <ns3:TrackPointExtension>
            <ns3:hr>147</ns3:hr>
            <ns3:cad>84</ns3:cad>
          </ns3:TrackPointExtension>
        </extensions>
      </trkpt>
      <trkpt lat="47.49212480150163173675537109375" lon="10.072570927441120147705078125">
        <ele>1689.5999755859375</ele>
        <time>2026-09-01T09:19:47.000Z</time>
        <extensions>
          <ns3:TrackPointExtension>
            <ns3:hr>147</ns3:hr>
            <ns3:cad>84</ns3:cad>
          </ns3:TrackPointExtension>
        </extensions>
      </trkpt>
      <trkpt lat="47.4920690618455410003662109375" lon="10.0723481364548206329345703125">
        <ele>1688.800048828125</ele>
        <time>2026-09-01T09:19:52.000Z</time>
        <extensions>
          <ns3:TrackPointExtension>
            <ns3:hr>147</ns3:hr>
            <ns3:cad>84</ns3:cad>
          </ns3:TrackPointExtension>
        </extensions>
      </trkpt>
      <trkpt lat="47.4920452572405338287353515625" lon="10.07223196327686309814453125">
        <ele>1688.4000244140625</ele>
        <time>2026-09-01T09:19:55.000Z</time>
        <extensions>
          <ns3:TrackPointExtension>
            <ns3:hr>148</ns3:hr>
            <ns3:cad>84</ns3:cad>
          </ns3:TrackPointExtension>
        </extensions>
      </trkpt>
      <trkpt lat="47.492045424878597259521484375" lon="10.0722029618918895721435546875">
        <ele>1688.199951171875</ele>
        <time>2026-09-01T09:19:56.000Z</time>
        <extensions>
          <ns3:TrackPointExtension>
            <ns3:hr>148</ns3:hr>
            <ns3:cad>84</ns3:cad>
          </ns3:TrackPointExtension>
        </extensions>
      </trkpt>
      <trkpt lat="47.4920605123043060302734375" lon="10.07218125276267528533935546875">
        <ele>1688</ele>
        <time>2026-09-01T09:19:57.000Z</time>
        <extensions>
          <ns3:TrackPointExtension>
            <ns3:hr>149</ns3:hr>
            <ns3:cad>85</ns3:cad>
          </ns3:TrackPointExtension>
        </extensions>
      </trkpt>
      <trkpt lat="47.4920881725847721099853515625" lon="10.072116963565349578857421875">
        <ele>1687.199951171875</ele>
        <time>2026-09-01T09:19:59.000Z</time>
        <extensions>
          <ns3:TrackPointExtension>
            <ns3:hr>148</ns3:hr>
            <ns3:cad>85</ns3:cad>
          </ns3:TrackPointExtension>
        </extensions>
      </trkpt>
      <trkpt lat="47.49209647066891193389892578125" lon="10.07206792943179607391357421875">
        <ele>1686.5999755859375</ele>
        <time>2026-09-01T09:20:00.000Z</time>
        <extensions>
          <ns3:TrackPointExtension>
            <ns3:hr>148</ns3:hr>
            <ns3:cad>85</ns3:cad>
          </ns3:TrackPointExtension>
        </extensions>
      </trkpt>
      <trkpt lat="47.4921062774956226348876953125" lon="10.072027109563350677490234375">
        <ele>1685.800048828125</ele>
        <time>2026-09-01T09:20:01.000Z</time>
        <extensions>
          <ns3:TrackPointExtension>
            <ns3:hr>149</ns3:hr>
            <ns3:cad>85</ns3:cad>
          </ns3:TrackPointExtension>
        </extensions>
      </trkpt>
      <trkpt lat="47.49211482703685760498046875" lon="10.07192007265985012054443359375">
        <ele>1684.199951171875</ele>
        <time>2026-09-01T09:20:03.000Z</time>
        <extensions>
          <ns3:TrackPointExtension>
            <ns3:hr>149</ns3:hr>
            <ns3:cad>85</ns3:cad>
          </ns3:TrackPointExtension>
        </extensions>
      </trkpt>
      <trkpt lat="47.49210787005722522735595703125" lon="10.07188461720943450927734375">
        <ele>1683.199951171875</ele>
        <time>2026-09-01T09:20:04.000Z</time>
        <extensions>
          <ns3:TrackPointExtension>
            <ns3:hr>149</ns3:hr>
            <ns3:cad>85</ns3:cad>
          </ns3:TrackPointExtension>
        </extensions>
      </trkpt>
      <trkpt lat="47.49209445901215076446533203125" lon="10.07184346206486225128173828125">
        <ele>1682.4000244140625</ele>
        <time>2026-09-01T09:20:05.000Z</time>
        <extensions>
          <ns3:TrackPointExtension>
            <ns3:hr>149</ns3:hr>
            <ns3:cad>85</ns3:cad>
          </ns3:TrackPointExtension>
        </extensions>
      </trkpt>
      <trkpt lat="47.49205070547759532928466796875" lon="10.0717771612107753753662109375">
        <ele>1680.4000244140625</ele>
        <time>2026-09-01T09:20:07.000Z</time>
        <extensions>
          <ns3:TrackPointExtension>
            <ns3:hr>149</ns3:hr>
            <ns3:cad>85</ns3:cad>
          </ns3:TrackPointExtension>
        </extensions>
      </trkpt>
      <trkpt lat="47.49202623032033443450927734375" lon="10.07175042293965816497802734375">
        <ele>1679.199951171875</ele>
        <time>2026-09-01T09:20:08.000Z</time>
        <extensions>
          <ns3:TrackPointExtension>
            <ns3:hr>149</ns3:hr>
            <ns3:cad>85</ns3:cad>
          </ns3:TrackPointExtension>
        </extensions>
      </trkpt>
      <trkpt lat="47.49200292862951755523681640625" lon="10.0717359222471714019775390625">
        <ele>1678.199951171875</ele>
        <time>2026-09-01T09:20:09.000Z</time>
        <extensions>
          <ns3:TrackPointExtension>
            <ns3:hr>150</ns3:hr>
            <ns3:cad>85</ns3:cad>
          </ns3:TrackPointExtension>
        </extensions>
      </trkpt>
      <trkpt lat="47.4919718317687511444091796875" lon="10.0717104412615299224853515625">
        <ele>1677</ele>
        <time>2026-09-01T09:20:10.000Z</time>
        <extensions>
          <ns3:TrackPointExtension>
            <ns3:hr>151</ns3:hr>
            <ns3:cad>85</ns3:cad>
          </ns3:TrackPointExtension>
        </extensions>
      </trkpt>
      <trkpt lat="47.491950877010822296142578125" lon="10.07167649455368518829345703125">
        <ele>1676</ele>
        <time>2026-09-01T09:20:11.000Z</time>
        <extensions>
          <ns3:TrackPointExtension>
            <ns3:hr>150</ns3:hr>
            <ns3:cad>85</ns3:cad>
          </ns3:TrackPointExtension>
        </extensions>
      </trkpt>
      <trkpt lat="47.49192983843386173248291015625" lon="10.07164799608290195465087890625">
        <ele>1675</ele>
        <time>2026-09-01T09:20:12.000Z</time>
        <extensions>
          <ns3:TrackPointExtension>
            <ns3:hr>151</ns3:hr>
            <ns3:cad>85</ns3:cad>
          </ns3:TrackPointExtension>
        </extensions>
      </trkpt>
      <trkpt lat="47.4919010885059833526611328125" lon="10.07159871049225330352783203125">
        <ele>1674</ele>
        <time>2026-09-01T09:20:13.000Z</time>
        <extensions>
          <ns3:TrackPointExtension>
            <ns3:hr>151</ns3:hr>
            <ns3:cad>85</ns3:cad>
          </ns3:TrackPointExtension>
        </extensions>
      </trkpt>
      <trkpt lat="47.491885833442211151123046875" lon="10.0715602375566959381103515625">
        <ele>1673</ele>
        <time>2026-09-01T09:20:14.000Z</time>
        <extensions>
          <ns3:TrackPointExtension>
            <ns3:hr>150</ns3:hr>
            <ns3:cad>85</ns3:cad>
          </ns3:TrackPointExtension>
        </extensions>
      </trkpt>
      <trkpt lat="47.49185842461884021759033203125" lon="10.0715124607086181640625">
        <ele>1672</ele>
        <time>2026-09-01T09:20:15.000Z</time>
        <extensions>
          <ns3:TrackPointExtension>
            <ns3:hr>150</ns3:hr>
            <ns3:cad>85</ns3:cad>
          </ns3:TrackPointExtension>
        </extensions>
      </trkpt>
      <trkpt lat="47.49184149317443370819091796875" lon="10.07147281430661678314208984375">
        <ele>1671</ele>
        <time>2026-09-01T09:20:16.000Z</time>
        <extensions>
          <ns3:TrackPointExtension>
            <ns3:hr>150</ns3:hr>
            <ns3:cad>85</ns3:cad>
          </ns3:TrackPointExtension>
        </extensions>
      </trkpt>
      <trkpt lat="47.49180763028562068939208984375" lon="10.0713768415153026580810546875">
        <ele>1669.5999755859375</ele>
        <time>2026-09-01T09:20:18.000Z</time>
        <extensions>
          <ns3:TrackPointExtension>
            <ns3:hr>150</ns3:hr>
            <ns3:cad>95</ns3:cad>
          </ns3:TrackPointExtension>
        </extensions>
      </trkpt>
      <trkpt lat="47.4917864240705966949462890625" lon="10.071278773248195648193359375">
        <ele>1668</ele>
        <time>2026-09-01T09:20:20.000Z</time>
        <extensions>
          <ns3:TrackPointExtension>
            <ns3:hr>150</ns3:hr>
            <ns3:cad>95</ns3:cad>
          </ns3:TrackPointExtension>
        </extensions>
      </trkpt>
      <trkpt lat="47.49175348319113254547119140625" lon="10.07118321955204010009765625">
        <ele>1666.5999755859375</ele>
        <time>2026-09-01T09:20:22.000Z</time>
        <extensions>
          <ns3:TrackPointExtension>
            <ns3:hr>150</ns3:hr>
            <ns3:cad>95</ns3:cad>
          </ns3:TrackPointExtension>
        </extensions>
      </trkpt>
      <trkpt lat="47.49173487536609172821044921875" lon="10.07115094922482967376708984375">
        <ele>1665.800048828125</ele>
        <time>2026-09-01T09:20:23.000Z</time>
        <extensions>
          <ns3:TrackPointExtension>
            <ns3:hr>150</ns3:hr>
            <ns3:cad>95</ns3:cad>
          </ns3:TrackPointExtension>
        </extensions>
      </trkpt>
      <trkpt lat="47.49170805327594280242919921875" lon="10.07110677659511566162109375">
        <ele>1665.4000244140625</ele>
        <time>2026-09-01T09:20:24.000Z</time>
        <extensions>
          <ns3:TrackPointExtension>
            <ns3:hr>150</ns3:hr>
            <ns3:cad>95</ns3:cad>
          </ns3:TrackPointExtension>
        </extensions>
      </trkpt>
      <trkpt lat="47.49166966415941715240478515625" lon="10.07102170027792453765869140625">
        <ele>1664</ele>
        <time>2026-09-01T09:20:26.000Z</time>
        <extensions>
          <ns3:TrackPointExtension>
            <ns3:hr>150</ns3:hr>
            <ns3:cad>95</ns3:cad>
          </ns3:TrackPointExtension>
        </extensions>
      </trkpt>
      <trkpt lat="47.49162641353905200958251953125" lon="10.0709295831620693206787109375">
        <ele>1662.5999755859375</ele>
        <time>2026-09-01T09:20:28.000Z</time>
        <extensions>
          <ns3:TrackPointExtension>
            <ns3:hr>150</ns3:hr>
            <ns3:cad>95</ns3:cad>
          </ns3:TrackPointExtension>
        </extensions>
      </trkpt>
      <trkpt lat="47.49161769635975360870361328125" lon="10.07089312188327312469482421875">
        <ele>1662</ele>
        <time>2026-09-01T09:20:29.000Z</time>
        <extensions>
          <ns3:TrackPointExtension>
            <ns3:hr>150</ns3:hr>
            <ns3:cad>87</ns3:cad>
          </ns3:TrackPointExtension>
        </extensions>
      </trkpt>
      <trkpt lat="47.49160654842853546142578125" lon="10.0708383880555629730224609375">
        <ele>1661.4000244140625</ele>
        <time>2026-09-01T09:20:30.000Z</time>
        <extensions>
          <ns3:TrackPointExtension>
            <ns3:hr>150</ns3:hr>
            <ns3:cad>87</ns3:cad>
          </ns3:TrackPointExtension>
        </extensions>
      </trkpt>
      <trkpt lat="47.49156002886593341827392578125" lon="10.07075314410030841827392578125">
        <ele>1660</ele>
        <time>2026-09-01T09:20:32.000Z</time>
        <extensions>
          <ns3:TrackPointExtension>
            <ns3:hr>150</ns3:hr>
            <ns3:cad>87</ns3:cad>
          </ns3:TrackPointExtension>
        </extensions>
      </trkpt>
      <trkpt lat="47.49151803553104400634765625" lon="10.0706875137984752655029296875">
        <ele>1658.4000244140625</ele>
        <time>2026-09-01T09:20:34.000Z</time>
        <extensions>
          <ns3:TrackPointExtension>
            <ns3:hr>150</ns3:hr>
            <ns3:cad>91</ns3:cad>
          </ns3:TrackPointExtension>
        </extensions>
      </trkpt>
      <trkpt lat="47.49147654511034488677978515625" lon="10.07061132229864597320556640625">
        <ele>1656.5999755859375</ele>
        <time>2026-09-01T09:20:36.000Z</time>
        <extensions>
          <ns3:TrackPointExtension>
            <ns3:hr>149</ns3:hr>
            <ns3:cad>91</ns3:cad>
          </ns3:TrackPointExtension>
        </extensions>
      </trkpt>
      <trkpt lat="47.49143421649932861328125" lon="10.07052876055240631103515625">
        <ele>1655</ele>
        <time>2026-09-01T09:20:38.000Z</time>
        <extensions>
          <ns3:TrackPointExtension>
            <ns3:hr>149</ns3:hr>
            <ns3:cad>92</ns3:cad>
          </ns3:TrackPointExtension>
        </extensions>
      </trkpt>
      <trkpt lat="47.4914140999317169189453125" lon="10.07048743776977062225341796875">
        <ele>1654</ele>
        <time>2026-09-01T09:20:39.000Z</time>
        <extensions>
          <ns3:TrackPointExtension>
            <ns3:hr>149</ns3:hr>
            <ns3:cad>92</ns3:cad>
          </ns3:TrackPointExtension>
        </extensions>
      </trkpt>
      <trkpt lat="47.49139289371669292449951171875" lon="10.070456676185131072998046875">
        <ele>1653.199951171875</ele>
        <time>2026-09-01T09:20:40.000Z</time>
        <extensions>
          <ns3:TrackPointExtension>
            <ns3:hr>149</ns3:hr>
            <ns3:cad>0</ns3:cad>
          </ns3:TrackPointExtension>
        </extensions>
      </trkpt>
      <trkpt lat="47.49135416932404041290283203125" lon="10.070380233228206634521484375">
        <ele>1651.800048828125</ele>
        <time>2026-09-01T09:20:42.000Z</time>
        <extensions>
          <ns3:TrackPointExtension>
            <ns3:hr>149</ns3:hr>
            <ns3:cad>0</ns3:cad>
          </ns3:TrackPointExtension>
        </extensions>
      </trkpt>
      <trkpt lat="47.49132080934941768646240234375" lon="10.0703361444175243377685546875">
        <ele>1650.800048828125</ele>
        <time>2026-09-01T09:20:43.000Z</time>
        <extensions>
          <ns3:TrackPointExtension>
            <ns3:hr>150</ns3:hr>
            <ns3:cad>0</ns3:cad>
          </ns3:TrackPointExtension>
        </extensions>
      </trkpt>
      <trkpt lat="47.49130605719983577728271484375" lon="10.0702895410358905792236328125">
        <ele>1650</ele>
        <time>2026-09-01T09:20:44.000Z</time>
        <extensions>
          <ns3:TrackPointExtension>
            <ns3:hr>150</ns3:hr>
            <ns3:cad>0</ns3:cad>
          </ns3:TrackPointExtension>
        </extensions>
      </trkpt>
      <trkpt lat="47.491276301443576812744140625" lon="10.0701554305851459503173828125">
        <ele>1648.4000244140625</ele>
        <time>2026-09-01T09:20:46.000Z</time>
        <extensions>
          <ns3:TrackPointExtension>
            <ns3:hr>149</ns3:hr>
            <ns3:cad>0</ns3:cad>
          </ns3:TrackPointExtension>
        </extensions>
      </trkpt>
      <trkpt lat="47.4912392534315586090087890625" lon="10.07004219107329845428466796875">
        <ele>1647</ele>
        <time>2026-09-01T09:20:48.000Z</time>
        <extensions>
          <ns3:TrackPointExtension>
            <ns3:hr>149</ns3:hr>
            <ns3:cad>0</ns3:cad>
          </ns3:TrackPointExtension>
        </extensions>
      </trkpt>
      <trkpt lat="47.49120153486728668212890625" lon="10.06992802955210208892822265625">
        <ele>1645.800048828125</ele>
        <time>2026-09-01T09:20:50.000Z</time>
        <extensions>
          <ns3:TrackPointExtension>
            <ns3:hr>150</ns3:hr>
            <ns3:cad>0</ns3:cad>
          </ns3:TrackPointExtension>
        </extensions>
      </trkpt>
      <trkpt lat="47.49115032143890857696533203125" lon="10.06978687830269336700439453125">
        <ele>1644.199951171875</ele>
        <time>2026-09-01T09:20:53.000Z</time>
        <extensions>
          <ns3:TrackPointExtension>
            <ns3:hr>151</ns3:hr>
            <ns3:cad>91</ns3:cad>
          </ns3:TrackPointExtension>
        </extensions>
      </trkpt>
      <trkpt lat="47.491116039454936981201171875" lon="10.06974362768232822418212890625">
        <ele>1643.5999755859375</ele>
        <time>2026-09-01T09:20:54.000Z</time>
        <extensions>
          <ns3:TrackPointExtension>
            <ns3:hr>150</ns3:hr>
            <ns3:cad>91</ns3:cad>
          </ns3:TrackPointExtension>
        </extensions>
      </trkpt>
      <trkpt lat="47.49106767587363719940185546875" lon="10.06968160159885883331298828125">
        <ele>1642.800048828125</ele>
        <time>2026-09-01T09:20:56.000Z</time>
        <extensions>
          <ns3:TrackPointExtension>
            <ns3:hr>150</ns3:hr>
            <ns3:cad>91</ns3:cad>
          </ns3:TrackPointExtension>
        </extensions>
      </trkpt>
      <trkpt lat="47.4910488165915012359619140625" lon="10.06966182030737400054931640625">
        <ele>1642.4000244140625</ele>
        <time>2026-09-01T09:20:57.000Z</time>
        <extensions>
          <ns3:TrackPointExtension>
            <ns3:hr>150</ns3:hr>
            <ns3:cad>91</ns3:cad>
          </ns3:TrackPointExtension>
        </extensions>
      </trkpt>
      <trkpt lat="47.491045296192169189453125" lon="10.06963156163692474365234375">
        <ele>1642.199951171875</ele>
        <time>2026-09-01T09:20:58.000Z</time>
        <extensions>
          <ns3:TrackPointExtension>
            <ns3:hr>149</ns3:hr>
            <ns3:cad>91</ns3:cad>
          </ns3:TrackPointExtension>
        </extensions>
      </trkpt>
      <trkpt lat="47.49106046743690967559814453125" lon="10.06957548670470714569091796875">
        <ele>1641.4000244140625</ele>
        <time>2026-09-01T09:21:00.000Z</time>
        <extensions>
          <ns3:TrackPointExtension>
            <ns3:hr>149</ns3:hr>
            <ns3:cad>85</ns3:cad>
          </ns3:TrackPointExtension>
        </extensions>
      </trkpt>
      <trkpt lat="47.49106968753039836883544921875" lon="10.06948512978851795196533203125">
        <ele>1640.4000244140625</ele>
        <time>2026-09-01T09:21:02.000Z</time>
        <extensions>
          <ns3:TrackPointExtension>
            <ns3:hr>147</ns3:hr>
            <ns3:cad>83</ns3:cad>
          </ns3:TrackPointExtension>
        </extensions>
      </trkpt>
      <trkpt lat="47.49107991345226764678955078125" lon="10.069440789520740509033203125">
        <ele>1639.800048828125</ele>
        <time>2026-09-01T09:21:03.000Z</time>
        <extensions>
          <ns3:TrackPointExtension>
            <ns3:hr>147</ns3:hr>
            <ns3:cad>83</ns3:cad>
          </ns3:TrackPointExtension>
        </extensions>
      </trkpt>
      <trkpt lat="47.49109332449734210968017578125" lon="10.06934163160622119903564453125">
        <ele>1639</ele>
        <time>2026-09-01T09:21:05.000Z</time>
        <extensions>
          <ns3:TrackPointExtension>
            <ns3:hr>147</ns3:hr>
            <ns3:cad>83</ns3:cad>
          </ns3:TrackPointExtension>
        </extensions>
      </trkpt>
      <trkpt lat="47.49109114520251750946044921875" lon="10.06927591748535633087158203125">
        <ele>1638.5999755859375</ele>
        <time>2026-09-01T09:21:06.000Z</time>
        <extensions>
          <ns3:TrackPointExtension>
            <ns3:hr>147</ns3:hr>
            <ns3:cad>82</ns3:cad>
          </ns3:TrackPointExtension>
        </extensions>
      </trkpt>
      <trkpt lat="47.49108896590769290924072265625" lon="10.0691925175487995147705078125">
        <ele>1638</ele>
        <time>2026-09-01T09:21:08.000Z</time>
        <extensions>
          <ns3:TrackPointExtension>
            <ns3:hr>148</ns3:hr>
            <ns3:cad>82</ns3:cad>
          </ns3:TrackPointExtension>
        </extensions>
      </trkpt>
      <trkpt lat="47.4910841882228851318359375" lon="10.0691710598766803741455078125">
        <ele>1637.5999755859375</ele>
        <time>2026-09-01T09:21:09.000Z</time>
        <extensions>
          <ns3:TrackPointExtension>
            <ns3:hr>148</ns3:hr>
            <ns3:cad>84</ns3:cad>
          </ns3:TrackPointExtension>
        </extensions>
      </trkpt>
      <trkpt lat="47.49109215103089809417724609375" lon="10.06906838156282901763916015625">
        <ele>1637</ele>
        <time>2026-09-01T09:21:12.000Z</time>
        <extensions>
          <ns3:TrackPointExtension>
            <ns3:hr>148</ns3:hr>
            <ns3:cad>84</ns3:cad>
          </ns3:TrackPointExtension>
        </extensions>
      </trkpt>
      <trkpt lat="47.49109935946762561798095703125" lon="10.06903099827468395233154296875">
        <ele>1636.5999755859375</ele>
        <time>2026-09-01T09:21:13.000Z</time>
        <extensions>
          <ns3:TrackPointExtension>
            <ns3:hr>148</ns3:hr>
            <ns3:cad>86</ns3:cad>
          </ns3:TrackPointExtension>
        </extensions>
      </trkpt>
      <trkpt lat="47.49107589013874530792236328125" lon="10.06897014565765857696533203125">
        <ele>1636.4000244140625</ele>
        <time>2026-09-01T09:21:15.000Z</time>
        <extensions>
          <ns3:TrackPointExtension>
            <ns3:hr>149</ns3:hr>
            <ns3:cad>86</ns3:cad>
          </ns3:TrackPointExtension>
        </extensions>
      </trkpt>
      <trkpt lat="47.491061389446258544921875" lon="10.068951286375522613525390625">
        <ele>1636.5999755859375</ele>
        <time>2026-09-01T09:21:16.000Z</time>
        <extensions>
          <ns3:TrackPointExtension>
            <ns3:hr>149</ns3:hr>
            <ns3:cad>86</ns3:cad>
          </ns3:TrackPointExtension>
        </extensions>
      </trkpt>
      <trkpt lat="47.49102844856679439544677734375" lon="10.0688377954065799713134765625">
        <ele>1637.5999755859375</ele>
        <time>2026-09-01T09:21:20.000Z</time>
        <extensions>
          <ns3:TrackPointExtension>
            <ns3:hr>149</ns3:hr>
            <ns3:cad>86</ns3:cad>
          </ns3:TrackPointExtension>
        </extensions>
      </trkpt>
      <trkpt lat="47.4909955076873302459716796875" lon="10.0687311775982379913330078125">
        <ele>1637.800048828125</ele>
        <time>2026-09-01T09:21:23.000Z</time>
        <extensions>
          <ns3:TrackPointExtension>
            <ns3:hr>152</ns3:hr>
            <ns3:cad>84</ns3:cad>
          </ns3:TrackPointExtension>
        </extensions>
      </trkpt>
      <trkpt lat="47.4909767322242259979248046875" lon="10.06868608295917510986328125">
        <ele>1637.800048828125</ele>
        <time>2026-09-01T09:21:24.000Z</time>
        <extensions>
          <ns3:TrackPointExtension>
            <ns3:hr>153</ns3:hr>
            <ns3:cad>87</ns3:cad>
          </ns3:TrackPointExtension>
        </extensions>
      </trkpt>
      <trkpt lat="47.4909398518502712249755859375" lon="10.06859782151877880096435546875">
        <ele>1636.800048828125</ele>
        <time>2026-09-01T09:21:27.000Z</time>
        <extensions>
          <ns3:TrackPointExtension>
            <ns3:hr>154</ns3:hr>
            <ns3:cad>84</ns3:cad>
          </ns3:TrackPointExtension>
        </extensions>
      </trkpt>
      <trkpt lat="47.4909033067524433135986328125" lon="10.06854132749140262603759765625">
        <ele>1635.4000244140625</ele>
        <time>2026-09-01T09:21:29.000Z</time>
        <extensions>
          <ns3:TrackPointExtension>
            <ns3:hr>154</ns3:hr>
            <ns3:cad>84</ns3:cad>
          </ns3:TrackPointExtension>
        </extensions>
      </trkpt>
      <trkpt lat="47.4908831901848316192626953125" lon="10.0684837438166141510009765625">
        <ele>1634</ele>
        <time>2026-09-01T09:21:31.000Z</time>
        <extensions>
          <ns3:TrackPointExtension>
            <ns3:hr>155</ns3:hr>
            <ns3:cad>84</ns3:cad>
          </ns3:TrackPointExtension>
        </extensions>
      </trkpt>
      <trkpt lat="47.4908727966248989105224609375" lon="10.068445019423961639404296875">
        <ele>1632.800048828125</ele>
        <time>2026-09-01T09:21:33.000Z</time>
        <extensions>
          <ns3:TrackPointExtension>
            <ns3:hr>155</ns3:hr>
            <ns3:cad>84</ns3:cad>
          </ns3:TrackPointExtension>
        </extensions>
      </trkpt>
      <trkpt lat="47.49086030758917331695556640625" lon="10.0684146769344806671142578125">
        <ele>1632.199951171875</ele>
        <time>2026-09-01T09:21:34.000Z</time>
        <extensions>
          <ns3:TrackPointExtension>
            <ns3:hr>156</ns3:hr>
            <ns3:cad>84</ns3:cad>
          </ns3:TrackPointExtension>
        </extensions>
      </trkpt>
      <trkpt lat="47.4908449687063694000244140625" lon="10.0683970749378204345703125">
        <ele>1631.4000244140625</ele>
        <time>2026-09-01T09:21:35.000Z</time>
        <extensions>
          <ns3:TrackPointExtension>
            <ns3:hr>155</ns3:hr>
            <ns3:cad>84</ns3:cad>
          </ns3:TrackPointExtension>
        </extensions>
      </trkpt>
      <trkpt lat="47.490830384194850921630859375" lon="10.068369917571544647216796875">
        <ele>1630.4000244140625</ele>
        <time>2026-09-01T09:21:36.000Z</time>
        <extensions>
          <ns3:TrackPointExtension>
            <ns3:hr>155</ns3:hr>
            <ns3:cad>84</ns3:cad>
          </ns3:TrackPointExtension>
        </extensions>
      </trkpt>
      <trkpt lat="47.49081739224493503570556640625" lon="10.0683442689478397369384765625">
        <ele>1629.4000244140625</ele>
        <time>2026-09-01T09:21:37.000Z</time>
        <extensions>
          <ns3:TrackPointExtension>
            <ns3:hr>155</ns3:hr>
            <ns3:cad>84</ns3:cad>
          </ns3:TrackPointExtension>
        </extensions>
      </trkpt>
      <trkpt lat="47.490806244313716888427734375" lon="10.06830713711678981781005859375">
        <ele>1628.4000244140625</ele>
        <time>2026-09-01T09:21:38.000Z</time>
        <extensions>
          <ns3:TrackPointExtension>
            <ns3:hr>155</ns3:hr>
            <ns3:cad>84</ns3:cad>
          </ns3:TrackPointExtension>
        </extensions>
      </trkpt>
      <trkpt lat="47.49080079607665538787841796875" lon="10.06827947683632373809814453125">
        <ele>1627.5999755859375</ele>
        <time>2026-09-01T09:21:39.000Z</time>
        <extensions>
          <ns3:TrackPointExtension>
            <ns3:hr>154</ns3:hr>
            <ns3:cad>84</ns3:cad>
          </ns3:TrackPointExtension>
        </extensions>
      </trkpt>
      <trkpt lat="47.49077933840453624725341796875" lon="10.068221390247344970703125">
        <ele>1626.199951171875</ele>
        <time>2026-09-01T09:21:41.000Z</time>
        <extensions>
          <ns3:TrackPointExtension>
            <ns3:hr>154</ns3:hr>
            <ns3:cad>84</ns3:cad>
          </ns3:TrackPointExtension>
        </extensions>
      </trkpt>
      <trkpt lat="47.49075762927532196044921875" lon="10.06817872636020183563232421875">
        <ele>1625.199951171875</ele>
        <time>2026-09-01T09:21:43.000Z</time>
        <extensions>
          <ns3:TrackPointExtension>
            <ns3:hr>153</ns3:hr>
            <ns3:cad>84</ns3:cad>
          </ns3:TrackPointExtension>
        </extensions>
      </trkpt>
      <trkpt lat="47.49072267673909664154052734375" lon="10.06814897060394287109375">
        <ele>1623.800048828125</ele>
        <time>2026-09-01T09:21:45.000Z</time>
        <extensions>
          <ns3:TrackPointExtension>
            <ns3:hr>154</ns3:hr>
            <ns3:cad>84</ns3:cad>
          </ns3:TrackPointExtension>
        </extensions>
      </trkpt>
      <trkpt lat="47.49070490710437297821044921875" lon="10.06808082573115825653076171875">
        <ele>1622.5999755859375</ele>
        <time>2026-09-01T09:21:47.000Z</time>
        <extensions>
          <ns3:TrackPointExtension>
            <ns3:hr>154</ns3:hr>
            <ns3:cad>84</ns3:cad>
          </ns3:TrackPointExtension>
        </extensions>
      </trkpt>
      <trkpt lat="47.49069191515445709228515625" lon="10.06801418960094451904296875">
        <ele>1621.4000244140625</ele>
        <time>2026-09-01T09:21:49.000Z</time>
        <extensions>
          <ns3:TrackPointExtension>
            <ns3:hr>153</ns3:hr>
            <ns3:cad>84</ns3:cad>
          </ns3:TrackPointExtension>
        </extensions>
      </trkpt>
      <trkpt lat="47.49068160541355609893798828125" lon="10.06798761896789073944091796875">
        <ele>1620.800048828125</ele>
        <time>2026-09-01T09:21:50.000Z</time>
        <extensions>
          <ns3:TrackPointExtension>
            <ns3:hr>152</ns3:hr>
            <ns3:cad>84</ns3:cad>
          </ns3:TrackPointExtension>
        </extensions>
      </trkpt>
      <trkpt lat="47.49067976139485836029052734375" lon="10.0679509900510311126708984375">
        <ele>1620.199951171875</ele>
        <time>2026-09-01T09:21:51.000Z</time>
        <extensions>
          <ns3:TrackPointExtension>
            <ns3:hr>151</ns3:hr>
            <ns3:cad>86</ns3:cad>
          </ns3:TrackPointExtension>
        </extensions>
      </trkpt>
      <trkpt lat="47.49066232703626155853271484375" lon="10.06787563674151897430419921875">
        <ele>1618.800048828125</ele>
        <time>2026-09-01T09:21:53.000Z</time>
        <extensions>
          <ns3:TrackPointExtension>
            <ns3:hr>151</ns3:hr>
            <ns3:cad>86</ns3:cad>
          </ns3:TrackPointExtension>
        </extensions>
      </trkpt>
      <trkpt lat="47.4906468205153942108154296875" lon="10.0678396783769130706787109375">
        <ele>1618</ele>
        <time>2026-09-01T09:21:54.000Z</time>
        <extensions>
          <ns3:TrackPointExtension>
            <ns3:hr>150</ns3:hr>
            <ns3:cad>86</ns3:cad>
          </ns3:TrackPointExtension>
        </extensions>
      </trkpt>
      <trkpt lat="47.49064053408801555633544921875" lon="10.0677964277565479278564453125">
        <ele>1617.199951171875</ele>
        <time>2026-09-01T09:21:55.000Z</time>
        <extensions>
          <ns3:TrackPointExtension>
            <ns3:hr>150</ns3:hr>
            <ns3:cad>86</ns3:cad>
          </ns3:TrackPointExtension>
        </extensions>
      </trkpt>
      <trkpt lat="47.49061882495880126953125" lon="10.06769324652850627899169921875">
        <ele>1615.4000244140625</ele>
        <time>2026-09-01T09:21:57.000Z</time>
        <extensions>
          <ns3:TrackPointExtension>
            <ns3:hr>151</ns3:hr>
            <ns3:cad>86</ns3:cad>
          </ns3:TrackPointExtension>
        </extensions>
      </trkpt>
      <trkpt lat="47.490599714219570159912109375" lon="10.067637674510478973388671875">
        <ele>1614.800048828125</ele>
        <time>2026-09-01T09:21:58.000Z</time>
        <extensions>
          <ns3:TrackPointExtension>
            <ns3:hr>151</ns3:hr>
            <ns3:cad>86</ns3:cad>
          </ns3:TrackPointExtension>
        </extensions>
      </trkpt>
      <trkpt lat="47.4905898235738277435302734375" lon="10.067596100270748138427734375">
        <ele>1614.199951171875</ele>
        <time>2026-09-01T09:21:59.000Z</time>
        <extensions>
          <ns3:TrackPointExtension>
            <ns3:hr>151</ns3:hr>
            <ns3:cad>86</ns3:cad>
          </ns3:TrackPointExtension>
        </extensions>
      </trkpt>
      <trkpt lat="47.49056844972074031829833984375" lon="10.067498199641704559326171875">
        <ele>1613.4000244140625</ele>
        <time>2026-09-01T09:22:01.000Z</time>
        <extensions>
          <ns3:TrackPointExtension>
            <ns3:hr>149</ns3:hr>
            <ns3:cad>87</ns3:cad>
          </ns3:TrackPointExtension>
        </extensions>
      </trkpt>
      <trkpt lat="47.49055420048534870147705078125" lon="10.06744044832885265350341796875">
        <ele>1613</ele>
        <time>2026-09-01T09:22:02.000Z</time>
        <extensions>
          <ns3:TrackPointExtension>
            <ns3:hr>148</ns3:hr>
            <ns3:cad>87</ns3:cad>
          </ns3:TrackPointExtension>
        </extensions>
      </trkpt>
      <trkpt lat="47.4905128777027130126953125" lon="10.06730650551617145538330078125">
        <ele>1612</ele>
        <time>2026-09-01T09:22:05.000Z</time>
        <extensions>
          <ns3:TrackPointExtension>
            <ns3:hr>148</ns3:hr>
            <ns3:cad>87</ns3:cad>
          </ns3:TrackPointExtension>
        </extensions>
      </trkpt>
      <trkpt lat="47.490476332604885101318359375" lon="10.06719066761434078216552734375">
        <ele>1611.199951171875</ele>
        <time>2026-09-01T09:22:08.000Z</time>
        <extensions>
          <ns3:TrackPointExtension>
            <ns3:hr>150</ns3:hr>
            <ns3:cad>84</ns3:cad>
          </ns3:TrackPointExtension>
        </extensions>
      </trkpt>
      <trkpt lat="47.490456216037273406982421875" lon="10.067157559096813201904296875">
        <ele>1610.800048828125</ele>
        <time>2026-09-01T09:22:09.000Z</time>
        <extensions>
          <ns3:TrackPointExtension>
            <ns3:hr>150</ns3:hr>
            <ns3:cad>84</ns3:cad>
          </ns3:TrackPointExtension>
        </extensions>
      </trkpt>
      <trkpt lat="47.49042830429971218109130859375" lon="10.06703794933855533599853515625">
        <ele>1609.4000244140625</ele>
        <time>2026-09-01T09:22:12.000Z</time>
        <extensions>
          <ns3:TrackPointExtension>
            <ns3:hr>151</ns3:hr>
            <ns3:cad>88</ns3:cad>
          </ns3:TrackPointExtension>
        </extensions>
      </trkpt>
      <trkpt lat="47.4903930164873600006103515625" lon="10.06697022356092929840087890625">
        <ele>1608</ele>
        <time>2026-09-01T09:22:15.000Z</time>
        <extensions>
          <ns3:TrackPointExtension>
            <ns3:hr>150</ns3:hr>
            <ns3:cad>88</ns3:cad>
          </ns3:TrackPointExtension>
        </extensions>
      </trkpt>
      <trkpt lat="47.4903638474643230438232421875" lon="10.06692521274089813232421875">
        <ele>1607</ele>
        <time>2026-09-01T09:22:17.000Z</time>
        <extensions>
          <ns3:TrackPointExtension>
            <ns3:hr>149</ns3:hr>
            <ns3:cad>88</ns3:cad>
          </ns3:TrackPointExtension>
        </extensions>
      </trkpt>
      <trkpt lat="47.4903433956205844879150390625" lon="10.0668563134968280792236328125">
        <ele>1605.800048828125</ele>
        <time>2026-09-01T09:22:19.000Z</time>
        <extensions>
          <ns3:TrackPointExtension>
            <ns3:hr>149</ns3:hr>
            <ns3:cad>88</ns3:cad>
          </ns3:TrackPointExtension>
        </extensions>
      </trkpt>
      <trkpt lat="47.49032772146165370941162109375" lon="10.06676000542938709259033203125">
        <ele>1605</ele>
        <time>2026-09-01T09:22:21.000Z</time>
        <extensions>
          <ns3:TrackPointExtension>
            <ns3:hr>148</ns3:hr>
            <ns3:cad>88</ns3:cad>
          </ns3:TrackPointExtension>
        </extensions>
      </trkpt>
      <trkpt lat="47.490324117243289947509765625" lon="10.0667195208370685577392578125">
        <ele>1604.5999755859375</ele>
        <time>2026-09-01T09:22:22.000Z</time>
        <extensions>
          <ns3:TrackPointExtension>
            <ns3:hr>148</ns3:hr>
            <ns3:cad>88</ns3:cad>
          </ns3:TrackPointExtension>
        </extensions>
      </trkpt>
      <trkpt lat="47.4903034977614879608154296875" lon="10.06662555970251560211181640625">
        <ele>1603.199951171875</ele>
        <time>2026-09-01T09:22:25.000Z</time>
        <extensions>
          <ns3:TrackPointExtension>
            <ns3:hr>148</ns3:hr>
            <ns3:cad>81</ns3:cad>
          </ns3:TrackPointExtension>
        </extensions>
      </trkpt>
      <trkpt lat="47.49028832651674747467041015625" lon="10.066594295203685760498046875">
        <ele>1602.800048828125</ele>
        <time>2026-09-01T09:22:26.000Z</time>
        <extensions>
          <ns3:TrackPointExtension>
            <ns3:hr>147</ns3:hr>
            <ns3:cad>82</ns3:cad>
          </ns3:TrackPointExtension>
        </extensions>
      </trkpt>
      <trkpt lat="47.4902790226042270660400390625" lon="10.0665629468858242034912109375">
        <ele>1602.199951171875</ele>
        <time>2026-09-01T09:22:27.000Z</time>
        <extensions>
          <ns3:TrackPointExtension>
            <ns3:hr>147</ns3:hr>
            <ns3:cad>82</ns3:cad>
          </ns3:TrackPointExtension>
        </extensions>
      </trkpt>
      <trkpt lat="47.4902446568012237548828125" lon="10.06647166796028614044189453125">
        <ele>1601</ele>
        <time>2026-09-01T09:22:29.000Z</time>
        <extensions>
          <ns3:TrackPointExtension>
            <ns3:hr>147</ns3:hr>
            <ns3:cad>82</ns3:cad>
          </ns3:TrackPointExtension>
        </extensions>
      </trkpt>
      <trkpt lat="47.4902317486703395843505859375" lon="10.06643210537731647491455078125">
        <ele>1600.4000244140625</ele>
        <time>2026-09-01T09:22:30.000Z</time>
        <extensions>
          <ns3:TrackPointExtension>
            <ns3:hr>146</ns3:hr>
            <ns3:cad>82</ns3:cad>
          </ns3:TrackPointExtension>
        </extensions>
      </trkpt>
      <trkpt lat="47.49021506868302822113037109375" lon="10.066330768167972564697265625">
        <ele>1599.5999755859375</ele>
        <time>2026-09-01T09:22:32.000Z</time>
        <extensions>
          <ns3:TrackPointExtension>
            <ns3:hr>145</ns3:hr>
            <ns3:cad>83</ns3:cad>
          </ns3:TrackPointExtension>
        </extensions>
      </trkpt>
      <trkpt lat="47.49020953662693500518798828125" lon="10.06627435795962810516357421875">
        <ele>1599.199951171875</ele>
        <time>2026-09-01T09:22:33.000Z</time>
        <extensions>
          <ns3:TrackPointExtension>
            <ns3:hr>146</ns3:hr>
            <ns3:cad>83</ns3:cad>
          </ns3:TrackPointExtension>
        </extensions>
      </trkpt>
      <trkpt lat="47.49019444920122623443603515625" lon="10.06611518561840057373046875">
        <ele>1598.5999755859375</ele>
        <time>2026-09-01T09:22:36.000Z</time>
        <extensions>
          <ns3:TrackPointExtension>
            <ns3:hr>148</ns3:hr>
            <ns3:cad>84</ns3:cad>
          </ns3:TrackPointExtension>
        </extensions>
      </trkpt>
      <trkpt lat="47.4901802837848663330078125" lon="10.06601535715162754058837890625">
        <ele>1598.4000244140625</ele>
        <time>2026-09-01T09:22:38.000Z</time>
        <extensions>
          <ns3:TrackPointExtension>
            <ns3:hr>149</ns3:hr>
            <ns3:cad>84</ns3:cad>
          </ns3:TrackPointExtension>
        </extensions>
      </trkpt>
      <trkpt lat="47.49016351997852325439453125" lon="10.0658437795937061309814453125">
        <ele>1598</ele>
        <time>2026-09-01T09:22:42.000Z</time>
        <extensions>
          <ns3:TrackPointExtension>
            <ns3:hr>149</ns3:hr>
            <ns3:cad>85</ns3:cad>
          </ns3:TrackPointExtension>
        </extensions>
      </trkpt>
      <trkpt lat="47.490163184702396392822265625" lon="10.06574638187885284423828125">
        <ele>1597.4000244140625</ele>
        <time>2026-09-01T09:22:45.000Z</time>
        <extensions>
          <ns3:TrackPointExtension>
            <ns3:hr>150</ns3:hr>
            <ns3:cad>85</ns3:cad>
          </ns3:TrackPointExtension>
        </extensions>
      </trkpt>
      <trkpt lat="47.49015740118920803070068359375" lon="10.06571293808519840240478515625">
        <ele>1596.5999755859375</ele>
        <time>2026-09-01T09:22:47.000Z</time>
        <extensions>
          <ns3:TrackPointExtension>
            <ns3:hr>150</ns3:hr>
            <ns3:cad>85</ns3:cad>
          </ns3:TrackPointExtension>
        </extensions>
      </trkpt>
      <trkpt lat="47.49015002511441707611083984375" lon="10.06569852121174335479736328125">
        <ele>1596</ele>
        <time>2026-09-01T09:22:48.000Z</time>
        <extensions>
          <ns3:TrackPointExtension>
            <ns3:hr>150</ns3:hr>
            <ns3:cad>85</ns3:cad>
          </ns3:TrackPointExtension>
        </extensions>
      </trkpt>
      <trkpt lat="47.49011524021625518798828125" lon="10.0656684301793575286865234375">
        <ele>1594.5999755859375</ele>
        <time>2026-09-01T09:22:51.000Z</time>
        <extensions>
          <ns3:TrackPointExtension>
            <ns3:hr>151</ns3:hr>
            <ns3:cad>85</ns3:cad>
          </ns3:TrackPointExtension>
        </extensions>
      </trkpt>
      <trkpt lat="47.4900956265628337860107421875" lon="10.0656691007316112518310546875">
        <ele>1594</ele>
        <time>2026-09-01T09:22:52.000Z</time>
        <extensions>
          <ns3:TrackPointExtension>
            <ns3:hr>151</ns3:hr>
            <ns3:cad>85</ns3:cad>
          </ns3:TrackPointExtension>
        </extensions>
      </trkpt>
      <trkpt lat="47.4900812096893787384033203125" lon="10.06565309129655361175537109375">
        <ele>1593.199951171875</ele>
        <time>2026-09-01T09:22:53.000Z</time>
        <extensions>
          <ns3:TrackPointExtension>
            <ns3:hr>151</ns3:hr>
            <ns3:cad>85</ns3:cad>
          </ns3:TrackPointExtension>
        </extensions>
      </trkpt>
      <trkpt lat="47.49006830155849456787109375" lon="10.06556608714163303375244140625">
        <ele>1591.4000244140625</ele>
        <time>2026-09-01T09:22:55.000Z</time>
        <extensions>
          <ns3:TrackPointExtension>
            <ns3:hr>151</ns3:hr>
            <ns3:cad>85</ns3:cad>
          </ns3:TrackPointExtension>
        </extensions>
      </trkpt>
      <trkpt lat="47.49006033875048160552978515625" lon="10.0654112733900547027587890625">
        <ele>1590.199951171875</ele>
        <time>2026-09-01T09:22:58.000Z</time>
        <extensions>
          <ns3:TrackPointExtension>
            <ns3:hr>151</ns3:hr>
            <ns3:cad>54</ns3:cad>
          </ns3:TrackPointExtension>
        </extensions>
      </trkpt>
      <trkpt lat="47.49005313031375408172607421875" lon="10.0653757341206073760986328125">
        <ele>1590.199951171875</ele>
        <time>2026-09-01T09:22:59.000Z</time>
        <extensions>
          <ns3:TrackPointExtension>
            <ns3:hr>152</ns3:hr>
            <ns3:cad>54</ns3:cad>
          </ns3:TrackPointExtension>
        </extensions>
      </trkpt>
      <trkpt lat="47.49005111865699291229248046875" lon="10.06524623371660709381103515625">
        <ele>1588.5999755859375</ele>
        <time>2026-09-01T09:23:03.000Z</time>
        <extensions>
          <ns3:TrackPointExtension>
            <ns3:hr>151</ns3:hr>
            <ns3:cad>83</ns3:cad>
          </ns3:TrackPointExtension>
        </extensions>
      </trkpt>
      <trkpt lat="47.490058578550815582275390625" lon="10.0651785917580127716064453125">
        <ele>1587.199951171875</ele>
        <time>2026-09-01T09:23:05.000Z</time>
        <extensions>
          <ns3:TrackPointExtension>
            <ns3:hr>149</ns3:hr>
            <ns3:cad>82</ns3:cad>
          </ns3:TrackPointExtension>
        </extensions>
      </trkpt>
      <trkpt lat="47.49006838537752628326416015625" lon="10.06516291759908199310302734375">
        <ele>1586.5999755859375</ele>
        <time>2026-09-01T09:23:06.000Z</time>
        <extensions>
          <ns3:TrackPointExtension>
            <ns3:hr>149</ns3:hr>
            <ns3:cad>85</ns3:cad>
          </ns3:TrackPointExtension>
        </extensions>
      </trkpt>
      <trkpt lat="47.4900788627564907073974609375" lon="10.06515705026686191558837890625">
        <ele>1586</ele>
        <time>2026-09-01T09:23:07.000Z</time>
        <extensions>
          <ns3:TrackPointExtension>
            <ns3:hr>150</ns3:hr>
            <ns3:cad>85</ns3:cad>
          </ns3:TrackPointExtension>
        </extensions>
      </trkpt>
      <trkpt lat="47.4900932796299457550048828125" lon="10.0651591457426548004150390625">
        <ele>1585.5999755859375</ele>
        <time>2026-09-01T09:23:08.000Z</time>
        <extensions>
          <ns3:TrackPointExtension>
            <ns3:hr>150</ns3:hr>
            <ns3:cad>85</ns3:cad>
          </ns3:TrackPointExtension>
        </extensions>
      </trkpt>
      <trkpt lat="47.490106187760829925537109375" lon="10.06515922956168651580810546875">
        <ele>1585</ele>
        <time>2026-09-01T09:23:09.000Z</time>
        <extensions>
          <ns3:TrackPointExtension>
            <ns3:hr>151</ns3:hr>
            <ns3:cad>85</ns3:cad>
          </ns3:TrackPointExtension>
        </extensions>
      </trkpt>
      <trkpt lat="47.49011968262493610382080078125" lon="10.06515319459140300750732421875">
        <ele>1584</ele>
        <time>2026-09-01T09:23:11.000Z</time>
        <extensions>
          <ns3:TrackPointExtension>
            <ns3:hr>151</ns3:hr>
            <ns3:cad>85</ns3:cad>
          </ns3:TrackPointExtension>
        </extensions>
      </trkpt>
      <trkpt lat="47.49012999236583709716796875" lon="10.06514481268823146820068359375">
        <ele>1583</ele>
        <time>2026-09-01T09:23:13.000Z</time>
        <extensions>
          <ns3:TrackPointExtension>
            <ns3:hr>151</ns3:hr>
            <ns3:cad>85</ns3:cad>
          </ns3:TrackPointExtension>
        </extensions>
      </trkpt>
      <trkpt lat="47.49015606008470058441162109375" lon="10.0651179067790508270263671875">
        <ele>1581.800048828125</ele>
        <time>2026-09-01T09:23:15.000Z</time>
        <extensions>
          <ns3:TrackPointExtension>
            <ns3:hr>150</ns3:hr>
            <ns3:cad>85</ns3:cad>
          </ns3:TrackPointExtension>
        </extensions>
      </trkpt>
      <trkpt lat="47.490173242986202239990234375" lon="10.06510935723781585693359375">
        <ele>1581.199951171875</ele>
        <time>2026-09-01T09:23:16.000Z</time>
        <extensions>
          <ns3:TrackPointExtension>
            <ns3:hr>149</ns3:hr>
            <ns3:cad>85</ns3:cad>
          </ns3:TrackPointExtension>
        </extensions>
      </trkpt>
      <trkpt lat="47.49019260518252849578857421875" lon="10.0650840438902378082275390625">
        <ele>1580.199951171875</ele>
        <time>2026-09-01T09:23:17.000Z</time>
        <extensions>
          <ns3:TrackPointExtension>
            <ns3:hr>149</ns3:hr>
            <ns3:cad>85</ns3:cad>
          </ns3:TrackPointExtension>
        </extensions>
      </trkpt>
      <trkpt lat="47.49021154828369617462158203125" lon="10.065064094960689544677734375">
        <ele>1579.199951171875</ele>
        <time>2026-09-01T09:23:18.000Z</time>
        <extensions>
          <ns3:TrackPointExtension>
            <ns3:hr>149</ns3:hr>
            <ns3:cad>86</ns3:cad>
          </ns3:TrackPointExtension>
        </extensions>
      </trkpt>
      <trkpt lat="47.49022680334746837615966796875" lon="10.06504573859274387359619140625">
        <ele>1578</ele>
        <time>2026-09-01T09:23:19.000Z</time>
        <extensions>
          <ns3:TrackPointExtension>
            <ns3:hr>149</ns3:hr>
            <ns3:cad>86</ns3:cad>
          </ns3:TrackPointExtension>
        </extensions>
      </trkpt>
      <trkpt lat="47.49023065902292728424072265625" lon="10.06501522846519947052001953125">
        <ele>1577</ele>
        <time>2026-09-01T09:23:20.000Z</time>
        <extensions>
          <ns3:TrackPointExtension>
            <ns3:hr>149</ns3:hr>
            <ns3:cad>0</ns3:cad>
          </ns3:TrackPointExtension>
        </extensions>
      </trkpt>
      <trkpt lat="47.4902173317968845367431640625" lon="10.06492805667221546173095703125">
        <ele>1575.199951171875</ele>
        <time>2026-09-01T09:23:22.000Z</time>
        <extensions>
          <ns3:TrackPointExtension>
            <ns3:hr>149</ns3:hr>
            <ns3:cad>0</ns3:cad>
          </ns3:TrackPointExtension>
        </extensions>
      </trkpt>
      <trkpt lat="47.49020886607468128204345703125" lon="10.0648818723857402801513671875">
        <ele>1574.5999755859375</ele>
        <time>2026-09-01T09:23:23.000Z</time>
        <extensions>
          <ns3:TrackPointExtension>
            <ns3:hr>149</ns3:hr>
            <ns3:cad>0</ns3:cad>
          </ns3:TrackPointExtension>
        </extensions>
      </trkpt>
      <trkpt lat="47.490178607404232025146484375" lon="10.06482831202447414398193359375">
        <ele>1574</ele>
        <time>2026-09-01T09:23:24.000Z</time>
        <extensions>
          <ns3:TrackPointExtension>
            <ns3:hr>148</ns3:hr>
            <ns3:cad>0</ns3:cad>
          </ns3:TrackPointExtension>
        </extensions>
      </trkpt>
      <trkpt lat="47.49011632986366748809814453125" lon="10.06468699313700199127197265625">
        <ele>1573</ele>
        <time>2026-09-01T09:23:27.000Z</time>
        <extensions>
          <ns3:TrackPointExtension>
            <ns3:hr>148</ns3:hr>
            <ns3:cad>0</ns3:cad>
          </ns3:TrackPointExtension>
        </extensions>
      </trkpt>
      <trkpt lat="47.49013175256550312042236328125" lon="10.0646421499550342559814453125">
        <ele>1573.5999755859375</ele>
        <time>2026-09-01T09:23:30.000Z</time>
        <extensions>
          <ns3:TrackPointExtension>
            <ns3:hr>148</ns3:hr>
            <ns3:cad>44</ns3:cad>
          </ns3:TrackPointExtension>
        </extensions>
      </trkpt>
      <trkpt lat="47.490154802799224853515625" lon="10.06459965370595455169677734375">
        <ele>1575</ele>
        <time>2026-09-01T09:23:33.000Z</time>
        <extensions>
          <ns3:TrackPointExtension>
            <ns3:hr>149</ns3:hr>
            <ns3:cad>45</ns3:cad>
          </ns3:TrackPointExtension>
        </extensions>
      </trkpt>
      <trkpt lat="47.490158490836620330810546875" lon="10.0645615160465240478515625">
        <ele>1575.5999755859375</ele>
        <time>2026-09-01T09:23:34.000Z</time>
        <extensions>
          <ns3:TrackPointExtension>
            <ns3:hr>149</ns3:hr>
            <ns3:cad>45</ns3:cad>
          </ns3:TrackPointExtension>
        </extensions>
      </trkpt>
      <trkpt lat="47.49014901928603649139404296875" lon="10.06453628651797771453857421875">
        <ele>1576.199951171875</ele>
        <time>2026-09-01T09:23:35.000Z</time>
        <extensions>
          <ns3:TrackPointExtension>
            <ns3:hr>150</ns3:hr>
            <ns3:cad>45</ns3:cad>
          </ns3:TrackPointExtension>
        </extensions>
      </trkpt>
      <trkpt lat="47.490141056478023529052734375" lon="10.0644952990114688873291015625">
        <ele>1576.4000244140625</ele>
        <time>2026-09-01T09:23:36.000Z</time>
        <extensions>
          <ns3:TrackPointExtension>
            <ns3:hr>151</ns3:hr>
            <ns3:cad>45</ns3:cad>
          </ns3:TrackPointExtension>
        </extensions>
      </trkpt>
      <trkpt lat="47.4900734983384609222412109375" lon="10.06432481110095977783203125">
        <ele>1576.800048828125</ele>
        <time>2026-09-01T09:23:41.000Z</time>
        <extensions>
          <ns3:TrackPointExtension>
            <ns3:hr>154</ns3:hr>
            <ns3:cad>84</ns3:cad>
          </ns3:TrackPointExtension>
        </extensions>
      </trkpt>
      <trkpt lat="47.49007341451942920684814453125" lon="10.06428449414670467376708984375">
        <ele>1576.5999755859375</ele>
        <time>2026-09-01T09:23:42.000Z</time>
        <extensions>
          <ns3:TrackPointExtension>
            <ns3:hr>153</ns3:hr>
            <ns3:cad>84</ns3:cad>
          </ns3:TrackPointExtension>
        </extensions>
      </trkpt>
      <trkpt lat="47.49007056467235088348388671875" lon="10.06422347389161586761474609375">
        <ele>1576.199951171875</ele>
        <time>2026-09-01T09:23:44.000Z</time>
        <extensions>
          <ns3:TrackPointExtension>
            <ns3:hr>154</ns3:hr>
            <ns3:cad>82</ns3:cad>
          </ns3:TrackPointExtension>
        </extensions>
      </trkpt>
      <trkpt lat="47.49006419442594051361083984375" lon="10.0640912912786006927490234375">
        <ele>1576.5999755859375</ele>
        <time>2026-09-01T09:23:48.000Z</time>
        <extensions>
          <ns3:TrackPointExtension>
            <ns3:hr>157</ns3:hr>
            <ns3:cad>84</ns3:cad>
          </ns3:TrackPointExtension>
        </extensions>
      </trkpt>
      <trkpt lat="47.49006469734013080596923828125" lon="10.06404376588761806488037109375">
        <ele>1576.5999755859375</ele>
        <time>2026-09-01T09:23:49.000Z</time>
        <extensions>
          <ns3:TrackPointExtension>
            <ns3:hr>158</ns3:hr>
            <ns3:cad>84</ns3:cad>
          </ns3:TrackPointExtension>
        </extensions>
      </trkpt>
      <trkpt lat="47.49006788246333599090576171875" lon="10.06391837261617183685302734375">
        <ele>1577.199951171875</ele>
        <time>2026-09-01T09:23:53.000Z</time>
        <extensions>
          <ns3:TrackPointExtension>
            <ns3:hr>159</ns3:hr>
            <ns3:cad>84</ns3:cad>
          </ns3:TrackPointExtension>
        </extensions>
      </trkpt>
      <trkpt lat="47.49008162878453731536865234375" lon="10.06381611339747905731201171875">
        <ele>1578.5999755859375</ele>
        <time>2026-09-01T09:23:57.000Z</time>
        <extensions>
          <ns3:TrackPointExtension>
            <ns3:hr>158</ns3:hr>
            <ns3:cad>83</ns3:cad>
          </ns3:TrackPointExtension>
        </extensions>
      </trkpt>
      <trkpt lat="47.49007173813879489898681640625" lon="10.063789375126361846923828125">
        <ele>1579</ele>
        <time>2026-09-01T09:23:59.000Z</time>
        <extensions>
          <ns3:TrackPointExtension>
            <ns3:hr>159</ns3:hr>
            <ns3:cad>83</ns3:cad>
          </ns3:TrackPointExtension>
        </extensions>
      </trkpt>
      <trkpt lat="47.49006620608270168304443359375" lon="10.06370865739881992340087890625">
        <ele>1579.199951171875</ele>
        <time>2026-09-01T09:24:01.000Z</time>
        <extensions>
          <ns3:TrackPointExtension>
            <ns3:hr>158</ns3:hr>
            <ns3:cad>83</ns3:cad>
          </ns3:TrackPointExtension>
        </extensions>
      </trkpt>
      <trkpt lat="47.4900399707257747650146484375" lon="10.0635427795350551605224609375">
        <ele>1579.4000244140625</ele>
        <time>2026-09-01T09:24:06.000Z</time>
        <extensions>
          <ns3:TrackPointExtension>
            <ns3:hr>157</ns3:hr>
            <ns3:cad>85</ns3:cad>
          </ns3:TrackPointExtension>
        </extensions>
      </trkpt>
      <trkpt lat="47.49003955163061618804931640625" lon="10.0635048933327198028564453125">
        <ele>1579.4000244140625</ele>
        <time>2026-09-01T09:24:07.000Z</time>
        <extensions>
          <ns3:TrackPointExtension>
            <ns3:hr>157</ns3:hr>
            <ns3:cad>84</ns3:cad>
          </ns3:TrackPointExtension>
        </extensions>
      </trkpt>
      <trkpt lat="47.49003938399255275726318359375" lon="10.06341814063489437103271484375">
        <ele>1579.4000244140625</ele>
        <time>2026-09-01T09:24:09.000Z</time>
        <extensions>
          <ns3:TrackPointExtension>
            <ns3:hr>158</ns3:hr>
            <ns3:cad>83</ns3:cad>
          </ns3:TrackPointExtension>
        </extensions>
      </trkpt>
      <trkpt lat="47.4900550581514835357666015625" lon="10.0632249377667903900146484375">
        <ele>1579.5999755859375</ele>
        <time>2026-09-01T09:24:14.000Z</time>
        <extensions>
          <ns3:TrackPointExtension>
            <ns3:hr>158</ns3:hr>
            <ns3:cad>83</ns3:cad>
          </ns3:TrackPointExtension>
        </extensions>
      </trkpt>
      <trkpt lat="47.4900389648973941802978515625" lon="10.0630676932632923126220703125">
        <ele>1580.199951171875</ele>
        <time>2026-09-01T09:24:19.000Z</time>
        <extensions>
          <ns3:TrackPointExtension>
            <ns3:hr>159</ns3:hr>
            <ns3:cad>83</ns3:cad>
          </ns3:TrackPointExtension>
        </extensions>
      </trkpt>
      <trkpt lat="47.4900510348379611968994140625" lon="10.063001476228237152099609375">
        <ele>1580.5999755859375</ele>
        <time>2026-09-01T09:24:21.000Z</time>
        <extensions>
          <ns3:TrackPointExtension>
            <ns3:hr>157</ns3:hr>
            <ns3:cad>84</ns3:cad>
          </ns3:TrackPointExtension>
        </extensions>
      </trkpt>
      <trkpt lat="47.4900637753307819366455078125" lon="10.06295965053141117095947265625">
        <ele>1581</ele>
        <time>2026-09-01T09:24:23.000Z</time>
        <extensions>
          <ns3:TrackPointExtension>
            <ns3:hr>158</ns3:hr>
            <ns3:cad>84</ns3:cad>
          </ns3:TrackPointExtension>
        </extensions>
      </trkpt>
      <trkpt lat="47.49008095823228359222412109375" lon="10.06293785758316516876220703125">
        <ele>1581.5999755859375</ele>
        <time>2026-09-01T09:24:25.000Z</time>
        <extensions>
          <ns3:TrackPointExtension>
            <ns3:hr>157</ns3:hr>
            <ns3:cad>83</ns3:cad>
          </ns3:TrackPointExtension>
        </extensions>
      </trkpt>
      <trkpt lat="47.49008975923061370849609375" lon="10.06290131248533725738525390625">
        <ele>1582.199951171875</ele>
        <time>2026-09-01T09:24:28.000Z</time>
        <extensions>
          <ns3:TrackPointExtension>
            <ns3:hr>156</ns3:hr>
            <ns3:cad>83</ns3:cad>
          </ns3:TrackPointExtension>
        </extensions>
      </trkpt>
      <trkpt lat="47.49009738676249980926513671875" lon="10.06289008073508739471435546875">
        <ele>1582.800048828125</ele>
        <time>2026-09-01T09:24:30.000Z</time>
        <extensions>
          <ns3:TrackPointExtension>
            <ns3:hr>154</ns3:hr>
            <ns3:cad>83</ns3:cad>
          </ns3:TrackPointExtension>
        </extensions>
      </trkpt>
      <trkpt lat="47.49009386636316776275634765625" lon="10.0628759153187274932861328125">
        <ele>1583</ele>
        <time>2026-09-01T09:24:31.000Z</time>
        <extensions>
          <ns3:TrackPointExtension>
            <ns3:hr>154</ns3:hr>
            <ns3:cad>58</ns3:cad>
          </ns3:TrackPointExtension>
        </extensions>
      </trkpt>
      <trkpt lat="47.49009068123996257781982421875" lon="10.0628497637808322906494140625">
        <ele>1583.5999755859375</ele>
        <time>2026-09-01T09:24:33.000Z</time>
        <extensions>
          <ns3:TrackPointExtension>
            <ns3:hr>154</ns3:hr>
            <ns3:cad>49</ns3:cad>
          </ns3:TrackPointExtension>
        </extensions>
      </trkpt>
      <trkpt lat="47.490090765058994293212890625" lon="10.062825791537761688232421875">
        <ele>1583.800048828125</ele>
        <time>2026-09-01T09:24:34.000Z</time>
        <extensions>
          <ns3:TrackPointExtension>
            <ns3:hr>155</ns3:hr>
            <ns3:cad>49</ns3:cad>
          </ns3:TrackPointExtension>
        </extensions>
      </trkpt>
      <trkpt lat="47.49012705869972705841064453125" lon="10.0626968778669834136962890625">
        <ele>1584.800048828125</ele>
        <time>2026-09-01T09:24:41.000Z</time>
        <extensions>
          <ns3:TrackPointExtension>
            <ns3:hr>157</ns3:hr>
            <ns3:cad>60</ns3:cad>
          </ns3:TrackPointExtension>
        </extensions>
      </trkpt>
      <trkpt lat="47.4901368655264377593994140625" lon="10.06270207464694976806640625">
        <ele>1585</ele>
        <time>2026-09-01T09:24:42.000Z</time>
        <extensions>
          <ns3:TrackPointExtension>
            <ns3:hr>156</ns3:hr>
            <ns3:cad>60</ns3:cad>
          </ns3:TrackPointExtension>
        </extensions>
      </trkpt>
      <trkpt lat="47.49016343615949153900146484375" lon="10.06269645877182483673095703125">
        <ele>1585.800048828125</ele>
        <time>2026-09-01T09:24:45.000Z</time>
        <extensions>
          <ns3:TrackPointExtension>
            <ns3:hr>155</ns3:hr>
            <ns3:cad>59</ns3:cad>
          </ns3:TrackPointExtension>
        </extensions>
      </trkpt>
      <trkpt lat="47.49016427434980869293212890625" lon="10.0626834668219089508056640625">
        <ele>1586.199951171875</ele>
        <time>2026-09-01T09:24:46.000Z</time>
        <extensions>
          <ns3:TrackPointExtension>
            <ns3:hr>154</ns3:hr>
            <ns3:cad>59</ns3:cad>
          </ns3:TrackPointExtension>
        </extensions>
      </trkpt>
      <trkpt lat="47.49017282389104366302490234375" lon="10.0626439042389392852783203125">
        <ele>1587.5999755859375</ele>
        <time>2026-09-01T09:24:49.000Z</time>
        <extensions>
          <ns3:TrackPointExtension>
            <ns3:hr>154</ns3:hr>
            <ns3:cad>0</ns3:cad>
          </ns3:TrackPointExtension>
        </extensions>
      </trkpt>
      <trkpt lat="47.490172572433948516845703125" lon="10.0625912658870220184326171875">
        <ele>1588.4000244140625</ele>
        <time>2026-09-01T09:24:52.000Z</time>
        <extensions>
          <ns3:TrackPointExtension>
            <ns3:hr>155</ns3:hr>
            <ns3:cad>41</ns3:cad>
          </ns3:TrackPointExtension>
        </extensions>
      </trkpt>
      <trkpt lat="47.4901579879224300384521484375" lon="10.0625681318342685699462890625">
        <ele>1588.5999755859375</ele>
        <time>2026-09-01T09:24:54.000Z</time>
        <extensions>
          <ns3:TrackPointExtension>
            <ns3:hr>154</ns3:hr>
            <ns3:cad>41</ns3:cad>
          </ns3:TrackPointExtension>
        </extensions>
      </trkpt>
      <trkpt lat="47.4901506118476390838623046875" lon="10.06253980100154876708984375">
        <ele>1588.800048828125</ele>
        <time>2026-09-01T09:24:56.000Z</time>
        <extensions>
          <ns3:TrackPointExtension>
            <ns3:hr>155</ns3:hr>
            <ns3:cad>41</ns3:cad>
          </ns3:TrackPointExtension>
        </extensions>
      </trkpt>
      <trkpt lat="47.49015069566667079925537109375" lon="10.0625211931765079498291015625">
        <ele>1589</ele>
        <time>2026-09-01T09:24:57.000Z</time>
        <extensions>
          <ns3:TrackPointExtension>
            <ns3:hr>155</ns3:hr>
            <ns3:cad>41</ns3:cad>
          </ns3:TrackPointExtension>
        </extensions>
      </trkpt>
      <trkpt lat="47.4901549704372882843017578125" lon="10.06247199140489101409912109375">
        <ele>1589.800048828125</ele>
        <time>2026-09-01T09:25:00.000Z</time>
        <extensions>
          <ns3:TrackPointExtension>
            <ns3:hr>156</ns3:hr>
            <ns3:cad>55</ns3:cad>
          </ns3:TrackPointExtension>
        </extensions>
      </trkpt>
      <trkpt lat="47.49015589244663715362548828125" lon="10.06245723925530910491943359375">
        <ele>1590.4000244140625</ele>
        <time>2026-09-01T09:25:02.000Z</time>
        <extensions>
          <ns3:TrackPointExtension>
            <ns3:hr>157</ns3:hr>
            <ns3:cad>57</ns3:cad>
          </ns3:TrackPointExtension>
        </extensions>
      </trkpt>
      <trkpt lat="47.4901512823998928070068359375" lon="10.0624206103384494781494140625">
        <ele>1591</ele>
        <time>2026-09-01T09:25:04.000Z</time>
        <extensions>
          <ns3:TrackPointExtension>
            <ns3:hr>157</ns3:hr>
            <ns3:cad>57</ns3:cad>
          </ns3:TrackPointExtension>
        </extensions>
      </trkpt>
      <trkpt lat="47.4901519529521465301513671875" lon="10.06238582544028759002685546875">
        <ele>1592</ele>
        <time>2026-09-01T09:25:07.000Z</time>
        <extensions>
          <ns3:TrackPointExtension>
            <ns3:hr>158</ns3:hr>
            <ns3:cad>50</ns3:cad>
          </ns3:TrackPointExtension>
        </extensions>
      </trkpt>
      <trkpt lat="47.490153796970844268798828125" lon="10.0623733364045619964599609375">
        <ele>1592.4000244140625</ele>
        <time>2026-09-01T09:25:08.000Z</time>
        <extensions>
          <ns3:TrackPointExtension>
            <ns3:hr>158</ns3:hr>
            <ns3:cad>50</ns3:cad>
          </ns3:TrackPointExtension>
        </extensions>
      </trkpt>
      <trkpt lat="47.4901532940566539764404296875" lon="10.06234140135347843170166015625">
        <ele>1593.4000244140625</ele>
        <time>2026-09-01T09:25:11.000Z</time>
        <extensions>
          <ns3:TrackPointExtension>
            <ns3:hr>157</ns3:hr>
            <ns3:cad>50</ns3:cad>
          </ns3:TrackPointExtension>
        </extensions>
      </trkpt>
      <trkpt lat="47.49015874229371547698974609375" lon="10.06229429505765438079833984375">
        <ele>1594.5999755859375</ele>
        <time>2026-09-01T09:25:14.000Z</time>
        <extensions>
          <ns3:TrackPointExtension>
            <ns3:hr>158</ns3:hr>
            <ns3:cad>50</ns3:cad>
          </ns3:TrackPointExtension>
        </extensions>
      </trkpt>
      <trkpt lat="47.49015740118920803070068359375" lon="10.0622271560132503509521484375">
        <ele>1595.800048828125</ele>
        <time>2026-09-01T09:25:18.000Z</time>
        <extensions>
          <ns3:TrackPointExtension>
            <ns3:hr>159</ns3:hr>
            <ns3:cad>49</ns3:cad>
          </ns3:TrackPointExtension>
        </extensions>
      </trkpt>
      <trkpt lat="47.4901459179818630218505859375" lon="10.06218499504029750823974609375">
        <ele>1596.800048828125</ele>
        <time>2026-09-01T09:25:21.000Z</time>
        <extensions>
          <ns3:TrackPointExtension>
            <ns3:hr>159</ns3:hr>
            <ns3:cad>50</ns3:cad>
          </ns3:TrackPointExtension>
        </extensions>
      </trkpt>
      <trkpt lat="47.4901308305561542510986328125" lon="10.0621396489441394805908203125">
        <ele>1597</ele>
        <time>2026-09-01T09:25:23.000Z</time>
        <extensions>
          <ns3:TrackPointExtension>
            <ns3:hr>160</ns3:hr>
            <ns3:cad>48</ns3:cad>
          </ns3:TrackPointExtension>
        </extensions>
      </trkpt>
      <trkpt lat="47.49011800624430179595947265625" lon="10.06206010468304157257080078125">
        <ele>1598</ele>
        <time>2026-09-01T09:25:29.000Z</time>
        <extensions>
          <ns3:TrackPointExtension>
            <ns3:hr>159</ns3:hr>
            <ns3:cad>68</ns3:cad>
          </ns3:TrackPointExtension>
        </extensions>
      </trkpt>
      <trkpt lat="47.4901184253394603729248046875" lon="10.061983577907085418701171875">
        <ele>1599.199951171875</ele>
        <time>2026-09-01T09:25:33.000Z</time>
        <extensions>
          <ns3:TrackPointExtension>
            <ns3:hr>159</ns3:hr>
            <ns3:cad>62</ns3:cad>
          </ns3:TrackPointExtension>
        </extensions>
      </trkpt>
      <trkpt lat="47.490118928253650665283203125" lon="10.0619451887905597686767578125">
        <ele>1599.5999755859375</ele>
        <time>2026-09-01T09:25:35.000Z</time>
        <extensions>
          <ns3:TrackPointExtension>
            <ns3:hr>159</ns3:hr>
            <ns3:cad>62</ns3:cad>
          </ns3:TrackPointExtension>
        </extensions>
      </trkpt>
      <trkpt lat="47.49011700041592121124267578125" lon="10.0619150139391422271728515625">
        <ele>1600.199951171875</ele>
        <time>2026-09-01T09:25:37.000Z</time>
        <extensions>
          <ns3:TrackPointExtension>
            <ns3:hr>159</ns3:hr>
            <ns3:cad>62</ns3:cad>
          </ns3:TrackPointExtension>
        </extensions>
      </trkpt>
      <trkpt lat="47.49009110033512115478515625" lon="10.06182901561260223388671875">
        <ele>1601.4000244140625</ele>
        <time>2026-09-01T09:25:41.000Z</time>
        <extensions>
          <ns3:TrackPointExtension>
            <ns3:hr>159</ns3:hr>
            <ns3:cad>75</ns3:cad>
          </ns3:TrackPointExtension>
        </extensions>
      </trkpt>
      <trkpt lat="47.49009068123996257781982421875" lon="10.06179674528539180755615234375">
        <ele>1601.5999755859375</ele>
        <time>2026-09-01T09:25:42.000Z</time>
        <extensions>
          <ns3:TrackPointExtension>
            <ns3:hr>160</ns3:hr>
            <ns3:cad>75</ns3:cad>
          </ns3:TrackPointExtension>
        </extensions>
      </trkpt>
      <trkpt lat="47.49012068845331668853759765625" lon="10.0617706775665283203125">
        <ele>1602.199951171875</ele>
        <time>2026-09-01T09:25:44.000Z</time>
        <extensions>
          <ns3:TrackPointExtension>
            <ns3:hr>160</ns3:hr>
            <ns3:cad>83</ns3:cad>
          </ns3:TrackPointExtension>
        </extensions>
      </trkpt>
      <trkpt lat="47.49012404121458530426025390625" lon="10.0617705099284648895263671875">
        <ele>1602.4000244140625</ele>
        <time>2026-09-01T09:25:45.000Z</time>
        <extensions>
          <ns3:TrackPointExtension>
            <ns3:hr>160</ns3:hr>
            <ns3:cad>83</ns3:cad>
          </ns3:TrackPointExtension>
        </extensions>
      </trkpt>
      <trkpt lat="47.49012839980423450469970703125" lon="10.06176556460559368133544921875">
        <ele>1602.800048828125</ele>
        <time>2026-09-01T09:25:46.000Z</time>
        <extensions>
          <ns3:TrackPointExtension>
            <ns3:hr>160</ns3:hr>
            <ns3:cad>83</ns3:cad>
          </ns3:TrackPointExtension>
        </extensions>
      </trkpt>
      <trkpt lat="47.49013611115515232086181640625" lon="10.0617493875324726104736328125">
        <ele>1603.4000244140625</ele>
        <time>2026-09-01T09:25:48.000Z</time>
        <extensions>
          <ns3:TrackPointExtension>
            <ns3:hr>160</ns3:hr>
            <ns3:cad>77</ns3:cad>
          </ns3:TrackPointExtension>
        </extensions>
      </trkpt>
      <trkpt lat="47.490131668746471405029296875" lon="10.061718039214611053466796875">
        <ele>1604.800048828125</ele>
        <time>2026-09-01T09:25:51.000Z</time>
        <extensions>
          <ns3:TrackPointExtension>
            <ns3:hr>159</ns3:hr>
            <ns3:cad>0</ns3:cad>
          </ns3:TrackPointExtension>
        </extensions>
      </trkpt>
      <trkpt lat="47.490132339298725128173828125" lon="10.0617051310837268829345703125">
        <ele>1605.199951171875</ele>
        <time>2026-09-01T09:25:52.000Z</time>
        <extensions>
          <ns3:TrackPointExtension>
            <ns3:hr>159</ns3:hr>
            <ns3:cad>0</ns3:cad>
          </ns3:TrackPointExtension>
        </extensions>
      </trkpt>
      <trkpt lat="47.4901315011084079742431640625" lon="10.061691217124462127685546875">
        <ele>1606</ele>
        <time>2026-09-01T09:25:54.000Z</time>
        <extensions>
          <ns3:TrackPointExtension>
            <ns3:hr>159</ns3:hr>
            <ns3:cad>0</ns3:cad>
          </ns3:TrackPointExtension>
        </extensions>
      </trkpt>
      <trkpt lat="47.49012856744229793548583984375" lon="10.06164528429508209228515625">
        <ele>1607.199951171875</ele>
        <time>2026-09-01T09:25:57.000Z</time>
        <extensions>
          <ns3:TrackPointExtension>
            <ns3:hr>160</ns3:hr>
            <ns3:cad>0</ns3:cad>
          </ns3:TrackPointExtension>
        </extensions>
      </trkpt>
      <trkpt lat="47.490126304328441619873046875" lon="10.0616166181862354278564453125">
        <ele>1607.800048828125</ele>
        <time>2026-09-01T09:25:59.000Z</time>
        <extensions>
          <ns3:TrackPointExtension>
            <ns3:hr>161</ns3:hr>
            <ns3:cad>41</ns3:cad>
          </ns3:TrackPointExtension>
        </extensions>
      </trkpt>
      <trkpt lat="47.49013024382293224334716796875" lon="10.0616065599024295806884765625">
        <ele>1608.4000244140625</ele>
        <time>2026-09-01T09:26:01.000Z</time>
        <extensions>
          <ns3:TrackPointExtension>
            <ns3:hr>161</ns3:hr>
            <ns3:cad>41</ns3:cad>
          </ns3:TrackPointExtension>
        </extensions>
      </trkpt>
      <trkpt lat="47.49012454412877559661865234375" lon="10.06154537200927734375">
        <ele>1609.5999755859375</ele>
        <time>2026-09-01T09:26:05.000Z</time>
        <extensions>
          <ns3:TrackPointExtension>
            <ns3:hr>163</ns3:hr>
            <ns3:cad>40</ns3:cad>
          </ns3:TrackPointExtension>
        </extensions>
      </trkpt>
      <trkpt lat="47.49012705869972705841064453125" lon="10.0615294463932514190673828125">
        <ele>1610</ele>
        <time>2026-09-01T09:26:06.000Z</time>
        <extensions>
          <ns3:TrackPointExtension>
            <ns3:hr>162</ns3:hr>
            <ns3:cad>40</ns3:cad>
          </ns3:TrackPointExtension>
        </extensions>
      </trkpt>
      <trkpt lat="47.4901321716606616973876953125" lon="10.0615106709301471710205078125">
        <ele>1610.800048828125</ele>
        <time>2026-09-01T09:26:08.000Z</time>
        <extensions>
          <ns3:TrackPointExtension>
            <ns3:hr>162</ns3:hr>
            <ns3:cad>40</ns3:cad>
          </ns3:TrackPointExtension>
        </extensions>
      </trkpt>
      <trkpt lat="47.4901261366903781890869140625" lon="10.06150941364467144012451171875">
        <ele>1612</ele>
        <time>2026-09-01T09:26:11.000Z</time>
        <extensions>
          <ns3:TrackPointExtension>
            <ns3:hr>162</ns3:hr>
            <ns3:cad>0</ns3:cad>
          </ns3:TrackPointExtension>
        </extensions>
      </trkpt>
      <trkpt lat="47.49013803899288177490234375" lon="10.06145727820694446563720703125">
        <ele>1613</ele>
        <time>2026-09-01T09:26:16.000Z</time>
        <extensions>
          <ns3:TrackPointExtension>
            <ns3:hr>161</ns3:hr>
            <ns3:cad>53</ns3:cad>
          </ns3:TrackPointExtension>
        </extensions>
      </trkpt>
      <trkpt lat="47.49014449305832386016845703125" lon="10.06143607199192047119140625">
        <ele>1614.199951171875</ele>
        <time>2026-09-01T09:26:20.000Z</time>
        <extensions>
          <ns3:TrackPointExtension>
            <ns3:hr>160</ns3:hr>
            <ns3:cad>53</ns3:cad>
          </ns3:TrackPointExtension>
        </extensions>
      </trkpt>
      <trkpt lat="47.490163184702396392822265625" lon="10.06143297068774700164794921875">
        <ele>1615.199951171875</ele>
        <time>2026-09-01T09:26:24.000Z</time>
        <extensions>
          <ns3:TrackPointExtension>
            <ns3:hr>159</ns3:hr>
            <ns3:cad>0</ns3:cad>
          </ns3:TrackPointExtension>
        </extensions>
      </trkpt>
      <trkpt lat="47.49016980640590190887451171875" lon="10.06142592988908290863037109375">
        <ele>1615.4000244140625</ele>
        <time>2026-09-01T09:26:25.000Z</time>
        <extensions>
          <ns3:TrackPointExtension>
            <ns3:hr>159</ns3:hr>
            <ns3:cad>0</ns3:cad>
          </ns3:TrackPointExtension>
        </extensions>
      </trkpt>
      <trkpt lat="47.49016645364463329315185546875" lon="10.06139022298157215118408203125">
        <ele>1616.199951171875</ele>
        <time>2026-09-01T09:26:29.000Z</time>
        <extensions>
          <ns3:TrackPointExtension>
            <ns3:hr>157</ns3:hr>
            <ns3:cad>0</ns3:cad>
          </ns3:TrackPointExtension>
        </extensions>
      </trkpt>
      <trkpt lat="47.49016041867434978485107421875" lon="10.06137815304100513458251953125">
        <ele>1616.800048828125</ele>
        <time>2026-09-01T09:26:31.000Z</time>
        <extensions>
          <ns3:TrackPointExtension>
            <ns3:hr>158</ns3:hr>
            <ns3:cad>0</ns3:cad>
          </ns3:TrackPointExtension>
        </extensions>
      </trkpt>
      <trkpt lat="47.4901583231985569000244140625" lon="10.06133590824902057647705078125">
        <ele>1617.800048828125</ele>
        <time>2026-09-01T09:26:35.000Z</time>
        <extensions>
          <ns3:TrackPointExtension>
            <ns3:hr>159</ns3:hr>
            <ns3:cad>0</ns3:cad>
          </ns3:TrackPointExtension>
        </extensions>
      </trkpt>
      <trkpt lat="47.490159831941127777099609375" lon="10.0613323040306568145751953125">
        <ele>1618.199951171875</ele>
        <time>2026-09-01T09:26:36.000Z</time>
        <extensions>
          <ns3:TrackPointExtension>
            <ns3:hr>159</ns3:hr>
            <ns3:cad>0</ns3:cad>
          </ns3:TrackPointExtension>
        </extensions>
      </trkpt>
      <trkpt lat="47.49016159214079380035400390625" lon="10.06130925379693508148193359375">
        <ele>1619</ele>
        <time>2026-09-01T09:26:38.000Z</time>
        <extensions>
          <ns3:TrackPointExtension>
            <ns3:hr>159</ns3:hr>
            <ns3:cad>0</ns3:cad>
          </ns3:TrackPointExtension>
        </extensions>
      </trkpt>
      <trkpt lat="47.49017315916717052459716796875" lon="10.06126784719526767730712890625">
        <ele>1620</ele>
        <time>2026-09-01T09:26:42.000Z</time>
        <extensions>
          <ns3:TrackPointExtension>
            <ns3:hr>160</ns3:hr>
            <ns3:cad>42</ns3:cad>
          </ns3:TrackPointExtension>
        </extensions>
      </trkpt>
      <trkpt lat="47.49018003232777118682861328125" lon="10.06125007756054401397705078125">
        <ele>1621</ele>
        <time>2026-09-01T09:26:46.000Z</time>
        <extensions>
          <ns3:TrackPointExtension>
            <ns3:hr>162</ns3:hr>
            <ns3:cad>0</ns3:cad>
          </ns3:TrackPointExtension>
        </extensions>
      </trkpt>
      <trkpt lat="47.49018170870840549468994140625" lon="10.0612149573862552642822265625">
        <ele>1622.199951171875</ele>
        <time>2026-09-01T09:26:50.000Z</time>
        <extensions>
          <ns3:TrackPointExtension>
            <ns3:hr>162</ns3:hr>
            <ns3:cad>0</ns3:cad>
          </ns3:TrackPointExtension>
        </extensions>
      </trkpt>
      <trkpt lat="47.49019310809671878814697265625" lon="10.06118260324001312255859375">
        <ele>1623.199951171875</ele>
        <time>2026-09-01T09:26:54.000Z</time>
        <extensions>
          <ns3:TrackPointExtension>
            <ns3:hr>163</ns3:hr>
            <ns3:cad>70</ns3:cad>
          </ns3:TrackPointExtension>
        </extensions>
      </trkpt>
      <trkpt lat="47.4901962094008922576904296875" lon="10.06116273812949657440185546875">
        <ele>1624.199951171875</ele>
        <time>2026-09-01T09:26:57.000Z</time>
        <extensions>
          <ns3:TrackPointExtension>
            <ns3:hr>163</ns3:hr>
            <ns3:cad>70</ns3:cad>
          </ns3:TrackPointExtension>
        </extensions>
      </trkpt>
      <trkpt lat="47.4901950359344482421875" lon="10.06115787662565708160400390625">
        <ele>1624.4000244140625</ele>
        <time>2026-09-01T09:26:58.000Z</time>
        <extensions>
          <ns3:TrackPointExtension>
            <ns3:hr>163</ns3:hr>
            <ns3:cad>71</ns3:cad>
          </ns3:TrackPointExtension>
        </extensions>
      </trkpt>
      <trkpt lat="47.49018967151641845703125" lon="10.06115712225437164306640625">
        <ele>1625.5999755859375</ele>
        <time>2026-09-01T09:27:02.000Z</time>
        <extensions>
          <ns3:TrackPointExtension>
            <ns3:hr>161</ns3:hr>
            <ns3:cad>69</ns3:cad>
          </ns3:TrackPointExtension>
        </extensions>
      </trkpt>
      <trkpt lat="47.4901767633855342864990234375" lon="10.0610892288386821746826171875">
        <ele>1626.800048828125</ele>
        <time>2026-09-01T09:27:06.000Z</time>
        <extensions>
          <ns3:TrackPointExtension>
            <ns3:hr>161</ns3:hr>
            <ns3:cad>68</ns3:cad>
          </ns3:TrackPointExtension>
        </extensions>
      </trkpt>
      <trkpt lat="47.490165866911411285400390625" lon="10.061066932976245880126953125">
        <ele>1627.4000244140625</ele>
        <time>2026-09-01T09:27:08.000Z</time>
        <extensions>
          <ns3:TrackPointExtension>
            <ns3:hr>161</ns3:hr>
            <ns3:cad>53</ns3:cad>
          </ns3:TrackPointExtension>
        </extensions>
      </trkpt>
      <trkpt lat="47.49016410671174526214599609375" lon="10.06102879531681537628173828125">
        <ele>1628</ele>
        <time>2026-09-01T09:27:11.000Z</time>
        <extensions>
          <ns3:TrackPointExtension>
            <ns3:hr>161</ns3:hr>
            <ns3:cad>52</ns3:cad>
          </ns3:TrackPointExtension>
        </extensions>
      </trkpt>
      <trkpt lat="47.49017936177551746368408203125" lon="10.0610251910984516143798828125">
        <ele>1628.4000244140625</ele>
        <time>2026-09-01T09:27:14.000Z</time>
        <extensions>
          <ns3:TrackPointExtension>
            <ns3:hr>161</ns3:hr>
            <ns3:cad>54</ns3:cad>
          </ns3:TrackPointExtension>
        </extensions>
      </trkpt>
      <trkpt lat="47.49018891714513301849365234375" lon="10.0610369257628917694091796875">
        <ele>1628.5999755859375</ele>
        <time>2026-09-01T09:27:15.000Z</time>
        <extensions>
          <ns3:TrackPointExtension>
            <ns3:hr>161</ns3:hr>
            <ns3:cad>54</ns3:cad>
          </ns3:TrackPointExtension>
        </extensions>
      </trkpt>
      <trkpt lat="47.4901950359344482421875" lon="10.0610402785241603851318359375">
        <ele>1629.199951171875</ele>
        <time>2026-09-01T09:27:17.000Z</time>
        <extensions>
          <ns3:TrackPointExtension>
            <ns3:hr>161</ns3:hr>
            <ns3:cad>53</ns3:cad>
          </ns3:TrackPointExtension>
        </extensions>
      </trkpt>
      <trkpt lat="47.49019713141024112701416015625" lon="10.06102276034653186798095703125">
        <ele>1629.4000244140625</ele>
        <time>2026-09-01T09:27:18.000Z</time>
        <extensions>
          <ns3:TrackPointExtension>
            <ns3:hr>161</ns3:hr>
            <ns3:cad>52</ns3:cad>
          </ns3:TrackPointExtension>
        </extensions>
      </trkpt>
      <trkpt lat="47.4901975505053997039794921875" lon="10.06099929101765155792236328125">
        <ele>1630</ele>
        <time>2026-09-01T09:27:20.000Z</time>
        <extensions>
          <ns3:TrackPointExtension>
            <ns3:hr>160</ns3:hr>
            <ns3:cad>52</ns3:cad>
          </ns3:TrackPointExtension>
        </extensions>
      </trkpt>
      <trkpt lat="47.490202747285366058349609375" lon="10.06098738871514797210693359375">
        <ele>1630.4000244140625</ele>
        <time>2026-09-01T09:27:22.000Z</time>
        <extensions>
          <ns3:TrackPointExtension>
            <ns3:hr>160</ns3:hr>
            <ns3:cad>52</ns3:cad>
          </ns3:TrackPointExtension>
        </extensions>
      </trkpt>
      <trkpt lat="47.4902156554162502288818359375" lon="10.0609490834176540374755859375">
        <ele>1631.4000244140625</ele>
        <time>2026-09-01T09:27:26.000Z</time>
        <extensions>
          <ns3:TrackPointExtension>
            <ns3:hr>160</ns3:hr>
            <ns3:cad>53</ns3:cad>
          </ns3:TrackPointExtension>
        </extensions>
      </trkpt>
      <trkpt lat="47.49021657742559909820556640625" lon="10.0609410367906093597412109375">
        <ele>1631.800048828125</ele>
        <time>2026-09-01T09:27:27.000Z</time>
        <extensions>
          <ns3:TrackPointExtension>
            <ns3:hr>160</ns3:hr>
            <ns3:cad>46</ns3:cad>
          </ns3:TrackPointExtension>
        </extensions>
      </trkpt>
      <trkpt lat="47.49019947834312915802001953125" lon="10.0609192438423633575439453125">
        <ele>1632.4000244140625</ele>
        <time>2026-09-01T09:27:29.000Z</time>
        <extensions>
          <ns3:TrackPointExtension>
            <ns3:hr>160</ns3:hr>
            <ns3:cad>46</ns3:cad>
          </ns3:TrackPointExtension>
        </extensions>
      </trkpt>
      <trkpt lat="47.49019294045865535736083984375" lon="10.060906670987606048583984375">
        <ele>1632.800048828125</ele>
        <time>2026-09-01T09:27:30.000Z</time>
        <extensions>
          <ns3:TrackPointExtension>
            <ns3:hr>160</ns3:hr>
            <ns3:cad>46</ns3:cad>
          </ns3:TrackPointExtension>
        </extensions>
      </trkpt>
      <trkpt lat="47.4901935271918773651123046875" lon="10.06089317612349987030029296875">
        <ele>1633.4000244140625</ele>
        <time>2026-09-01T09:27:32.000Z</time>
        <extensions>
          <ns3:TrackPointExtension>
            <ns3:hr>160</ns3:hr>
            <ns3:cad>46</ns3:cad>
          </ns3:TrackPointExtension>
        </extensions>
      </trkpt>
      <trkpt lat="47.490195371210575103759765625" lon="10.06088362075388431549072265625">
        <ele>1633.800048828125</ele>
        <time>2026-09-01T09:27:33.000Z</time>
        <extensions>
          <ns3:TrackPointExtension>
            <ns3:hr>160</ns3:hr>
            <ns3:cad>46</ns3:cad>
          </ns3:TrackPointExtension>
        </extensions>
      </trkpt>
      <trkpt lat="47.49021154828369617462158203125" lon="10.06084539927542209625244140625">
        <ele>1635</ele>
        <time>2026-09-01T09:27:37.000Z</time>
        <extensions>
          <ns3:TrackPointExtension>
            <ns3:hr>159</ns3:hr>
            <ns3:cad>0</ns3:cad>
          </ns3:TrackPointExtension>
        </extensions>
      </trkpt>
      <trkpt lat="47.490215487778186798095703125" lon="10.06083232350647449493408203125">
        <ele>1635.5999755859375</ele>
        <time>2026-09-01T09:27:39.000Z</time>
        <extensions>
          <ns3:TrackPointExtension>
            <ns3:hr>158</ns3:hr>
            <ns3:cad>0</ns3:cad>
          </ns3:TrackPointExtension>
        </extensions>
      </trkpt>
      <trkpt lat="47.4902139790356159210205078125" lon="10.06075219251215457916259765625">
        <ele>1636.199951171875</ele>
        <time>2026-09-01T09:27:44.000Z</time>
        <extensions>
          <ns3:TrackPointExtension>
            <ns3:hr>159</ns3:hr>
            <ns3:cad>52</ns3:cad>
          </ns3:TrackPointExtension>
        </extensions>
      </trkpt>
      <trkpt lat="47.49022278003394603729248046875" lon="10.06068907678127288818359375">
        <ele>1637.4000244140625</ele>
        <time>2026-09-01T09:27:48.000Z</time>
        <extensions>
          <ns3:TrackPointExtension>
            <ns3:hr>159</ns3:hr>
            <ns3:cad>52</ns3:cad>
          </ns3:TrackPointExtension>
        </extensions>
      </trkpt>
      <trkpt lat="47.4902424775063991546630859375" lon="10.06062445230782032012939453125">
        <ele>1638.199951171875</ele>
        <time>2026-09-01T09:27:51.000Z</time>
        <extensions>
          <ns3:TrackPointExtension>
            <ns3:hr>158</ns3:hr>
            <ns3:cad>52</ns3:cad>
          </ns3:TrackPointExtension>
        </extensions>
      </trkpt>
      <trkpt lat="47.49027944169938564300537109375" lon="10.06054230965673923492431640625">
        <ele>1638.5999755859375</ele>
        <time>2026-09-01T09:27:54.000Z</time>
        <extensions>
          <ns3:TrackPointExtension>
            <ns3:hr>158</ns3:hr>
            <ns3:cad>81</ns3:cad>
          </ns3:TrackPointExtension>
        </extensions>
      </trkpt>
      <trkpt lat="47.49028866179287433624267578125" lon="10.0604967959225177764892578125">
        <ele>1638.5999755859375</ele>
        <time>2026-09-01T09:27:55.000Z</time>
        <extensions>
          <ns3:TrackPointExtension>
            <ns3:hr>158</ns3:hr>
            <ns3:cad>81</ns3:cad>
          </ns3:TrackPointExtension>
        </extensions>
      </trkpt>
      <trkpt lat="47.49030299484729766845703125" lon="10.0603987276554107666015625">
        <ele>1639.199951171875</ele>
        <time>2026-09-01T09:27:58.000Z</time>
        <extensions>
          <ns3:TrackPointExtension>
            <ns3:hr>159</ns3:hr>
            <ns3:cad>83</ns3:cad>
          </ns3:TrackPointExtension>
        </extensions>
      </trkpt>
      <trkpt lat="47.49031565152108669281005859375" lon="10.0603254698216915130615234375">
        <ele>1639.5999755859375</ele>
        <time>2026-09-01T09:28:00.000Z</time>
        <extensions>
          <ns3:TrackPointExtension>
            <ns3:hr>159</ns3:hr>
            <ns3:cad>85</ns3:cad>
          </ns3:TrackPointExtension>
        </extensions>
      </trkpt>
      <trkpt lat="47.49032336287200450897216796875" lon="10.06030376069247722625732421875">
        <ele>1639.800048828125</ele>
        <time>2026-09-01T09:28:01.000Z</time>
        <extensions>
          <ns3:TrackPointExtension>
            <ns3:hr>159</ns3:hr>
            <ns3:cad>85</ns3:cad>
          </ns3:TrackPointExtension>
        </extensions>
      </trkpt>
      <trkpt lat="47.49034130014479160308837890625" lon="10.06019747816026210784912109375">
        <ele>1640.4000244140625</ele>
        <time>2026-09-01T09:28:05.000Z</time>
        <extensions>
          <ns3:TrackPointExtension>
            <ns3:hr>158</ns3:hr>
            <ns3:cad>84</ns3:cad>
          </ns3:TrackPointExtension>
        </extensions>
      </trkpt>
      <trkpt lat="47.4903517775237560272216796875" lon="10.06017618812620639801025390625">
        <ele>1640.5999755859375</ele>
        <time>2026-09-01T09:28:06.000Z</time>
        <extensions>
          <ns3:TrackPointExtension>
            <ns3:hr>158</ns3:hr>
            <ns3:cad>84</ns3:cad>
          </ns3:TrackPointExtension>
        </extensions>
      </trkpt>
      <trkpt lat="47.490373067557811737060546875" lon="10.06015808321535587310791015625">
        <ele>1641</ele>
        <time>2026-09-01T09:28:08.000Z</time>
        <extensions>
          <ns3:TrackPointExtension>
            <ns3:hr>157</ns3:hr>
            <ns3:cad>84</ns3:cad>
          </ns3:TrackPointExtension>
        </extensions>
      </trkpt>
      <trkpt lat="47.49041003175079822540283203125" lon="10.06016470491886138916015625">
        <ele>1641.800048828125</ele>
        <time>2026-09-01T09:28:11.000Z</time>
        <extensions>
          <ns3:TrackPointExtension>
            <ns3:hr>157</ns3:hr>
            <ns3:cad>84</ns3:cad>
          </ns3:TrackPointExtension>
        </extensions>
      </trkpt>
      <trkpt lat="47.490417994558811187744140625" lon="10.06014903075993061065673828125">
        <ele>1642.5999755859375</ele>
        <time>2026-09-01T09:28:13.000Z</time>
        <extensions>
          <ns3:TrackPointExtension>
            <ns3:hr>157</ns3:hr>
            <ns3:cad>61</ns3:cad>
          </ns3:TrackPointExtension>
        </extensions>
      </trkpt>
      <trkpt lat="47.49042101204395294189453125" lon="10.06014165468513965606689453125">
        <ele>1643.199951171875</ele>
        <time>2026-09-01T09:28:14.000Z</time>
        <extensions>
          <ns3:TrackPointExtension>
            <ns3:hr>157</ns3:hr>
            <ns3:cad>61</ns3:cad>
          </ns3:TrackPointExtension>
        </extensions>
      </trkpt>
      <trkpt lat="47.49042310751974582672119140625" lon="10.0601293332874774932861328125">
        <ele>1643.5999755859375</ele>
        <time>2026-09-01T09:28:15.000Z</time>
        <extensions>
          <ns3:TrackPointExtension>
            <ns3:hr>157</ns3:hr>
            <ns3:cad>61</ns3:cad>
          </ns3:TrackPointExtension>
        </extensions>
      </trkpt>
      <trkpt lat="47.4904201738536357879638671875" lon="10.06009689532220363616943359375">
        <ele>1644.199951171875</ele>
        <time>2026-09-01T09:28:17.000Z</time>
        <extensions>
          <ns3:TrackPointExtension>
            <ns3:hr>156</ns3:hr>
            <ns3:cad>51</ns3:cad>
          </ns3:TrackPointExtension>
        </extensions>
      </trkpt>
      <trkpt lat="47.490417659282684326171875" lon="10.06003822200000286102294921875">
        <ele>1645.5999755859375</ele>
        <time>2026-09-01T09:28:21.000Z</time>
        <extensions>
          <ns3:TrackPointExtension>
            <ns3:hr>157</ns3:hr>
            <ns3:cad>51</ns3:cad>
          </ns3:TrackPointExtension>
        </extensions>
      </trkpt>
      <trkpt lat="47.49041338451206684112548828125" lon="10.0600210390985012054443359375">
        <ele>1646</ele>
        <time>2026-09-01T09:28:22.000Z</time>
        <extensions>
          <ns3:TrackPointExtension>
            <ns3:hr>157</ns3:hr>
            <ns3:cad>51</ns3:cad>
          </ns3:TrackPointExtension>
        </extensions>
      </trkpt>
      <trkpt lat="47.4904040805995464324951171875" lon="10.05995951592922210693359375">
        <ele>1646.5999755859375</ele>
        <time>2026-09-01T09:28:25.000Z</time>
        <extensions>
          <ns3:TrackPointExtension>
            <ns3:hr>158</ns3:hr>
            <ns3:cad>51</ns3:cad>
          </ns3:TrackPointExtension>
        </extensions>
      </trkpt>
      <trkpt lat="47.49038790352642536163330078125" lon="10.059945099055767059326171875">
        <ele>1646.800048828125</ele>
        <time>2026-09-01T09:28:27.000Z</time>
        <extensions>
          <ns3:TrackPointExtension>
            <ns3:hr>157</ns3:hr>
            <ns3:cad>51</ns3:cad>
          </ns3:TrackPointExtension>
        </extensions>
      </trkpt>
      <trkpt lat="47.49032906256616115570068359375" lon="10.0599025189876556396484375">
        <ele>1645.5999755859375</ele>
        <time>2026-09-01T09:28:31.000Z</time>
        <extensions>
          <ns3:TrackPointExtension>
            <ns3:hr>157</ns3:hr>
            <ns3:cad>0</ns3:cad>
          </ns3:TrackPointExtension>
        </extensions>
      </trkpt>
      <trkpt lat="47.4902687966823577880859375" lon="10.05985164083540439605712890625">
        <ele>1644</ele>
        <time>2026-09-01T09:28:33.000Z</time>
        <extensions>
          <ns3:TrackPointExtension>
            <ns3:hr>158</ns3:hr>
            <ns3:cad>0</ns3:cad>
          </ns3:TrackPointExtension>
        </extensions>
      </trkpt>
      <trkpt lat="47.49020467512309551239013671875" lon="10.05982699804008007049560546875">
        <ele>1642.199951171875</ele>
        <time>2026-09-01T09:28:35.000Z</time>
        <extensions>
          <ns3:TrackPointExtension>
            <ns3:hr>158</ns3:hr>
            <ns3:cad>86</ns3:cad>
          </ns3:TrackPointExtension>
        </extensions>
      </trkpt>
      <trkpt lat="47.49014072120189666748046875" lon="10.0597950629889965057373046875">
        <ele>1640.5999755859375</ele>
        <time>2026-09-01T09:28:37.000Z</time>
        <extensions>
          <ns3:TrackPointExtension>
            <ns3:hr>158</ns3:hr>
            <ns3:cad>86</ns3:cad>
          </ns3:TrackPointExtension>
        </extensions>
      </trkpt>
      <trkpt lat="47.490063607692718505859375" lon="10.05976103246212005615234375">
        <ele>1639</ele>
        <time>2026-09-01T09:28:39.000Z</time>
        <extensions>
          <ns3:TrackPointExtension>
            <ns3:hr>158</ns3:hr>
            <ns3:cad>87</ns3:cad>
          </ns3:TrackPointExtension>
        </extensions>
      </trkpt>
      <trkpt lat="47.48999445699155330657958984375" lon="10.05971015430986881256103515625">
        <ele>1637.5999755859375</ele>
        <time>2026-09-01T09:28:41.000Z</time>
        <extensions>
          <ns3:TrackPointExtension>
            <ns3:hr>157</ns3:hr>
            <ns3:cad>94</ns3:cad>
          </ns3:TrackPointExtension>
        </extensions>
      </trkpt>
      <trkpt lat="47.489927820861339569091796875" lon="10.05966723896563053131103515625">
        <ele>1636</ele>
        <time>2026-09-01T09:28:43.000Z</time>
        <extensions>
          <ns3:TrackPointExtension>
            <ns3:hr>156</ns3:hr>
            <ns3:cad>94</ns3:cad>
          </ns3:TrackPointExtension>
        </extensions>
      </trkpt>
      <trkpt lat="47.48986101709306240081787109375" lon="10.05964259617030620574951171875">
        <ele>1634.5999755859375</ele>
        <time>2026-09-01T09:28:45.000Z</time>
        <extensions>
          <ns3:TrackPointExtension>
            <ns3:hr>156</ns3:hr>
            <ns3:cad>86</ns3:cad>
          </ns3:TrackPointExtension>
        </extensions>
      </trkpt>
      <trkpt lat="47.4898341111838817596435546875" lon="10.0596344657242298126220703125">
        <ele>1633.800048828125</ele>
        <time>2026-09-01T09:28:46.000Z</time>
        <extensions>
          <ns3:TrackPointExtension>
            <ns3:hr>155</ns3:hr>
            <ns3:cad>86</ns3:cad>
          </ns3:TrackPointExtension>
        </extensions>
      </trkpt>
      <trkpt lat="47.489809803664684295654296875" lon="10.05961493588984012603759765625">
        <ele>1633.4000244140625</ele>
        <time>2026-09-01T09:28:47.000Z</time>
        <extensions>
          <ns3:TrackPointExtension>
            <ns3:hr>155</ns3:hr>
            <ns3:cad>87</ns3:cad>
          </ns3:TrackPointExtension>
        </extensions>
      </trkpt>
      <trkpt lat="47.489797063171863555908203125" lon="10.05958241410553455352783203125">
        <ele>1632.800048828125</ele>
        <time>2026-09-01T09:28:48.000Z</time>
        <extensions>
          <ns3:TrackPointExtension>
            <ns3:hr>154</ns3:hr>
            <ns3:cad>87</ns3:cad>
          </ns3:TrackPointExtension>
        </extensions>
      </trkpt>
      <trkpt lat="47.48979127965867519378662109375" lon="10.05954218097031116485595703125">
        <ele>1632.199951171875</ele>
        <time>2026-09-01T09:28:49.000Z</time>
        <extensions>
          <ns3:TrackPointExtension>
            <ns3:hr>153</ns3:hr>
            <ns3:cad>88</ns3:cad>
          </ns3:TrackPointExtension>
        </extensions>
      </trkpt>
      <trkpt lat="47.48978658579289913177490234375" lon="10.05951837636530399322509765625">
        <ele>1631.4000244140625</ele>
        <time>2026-09-01T09:28:50.000Z</time>
        <extensions>
          <ns3:TrackPointExtension>
            <ns3:hr>153</ns3:hr>
            <ns3:cad>88</ns3:cad>
          </ns3:TrackPointExtension>
        </extensions>
      </trkpt>
      <trkpt lat="47.48976521193981170654296875" lon="10.05949306301772594451904296875">
        <ele>1630.5999755859375</ele>
        <time>2026-09-01T09:28:51.000Z</time>
        <extensions>
          <ns3:TrackPointExtension>
            <ns3:hr>152</ns3:hr>
            <ns3:cad>88</ns3:cad>
          </ns3:TrackPointExtension>
        </extensions>
      </trkpt>
      <trkpt lat="47.48972003348171710968017578125" lon="10.059473700821399688720703125">
        <ele>1628.5999755859375</ele>
        <time>2026-09-01T09:28:53.000Z</time>
        <extensions>
          <ns3:TrackPointExtension>
            <ns3:hr>153</ns3:hr>
            <ns3:cad>88</ns3:cad>
          </ns3:TrackPointExtension>
        </extensions>
      </trkpt>
      <trkpt lat="47.4896822310984134674072265625" lon="10.05940505303442478179931640625">
        <ele>1626.800048828125</ele>
        <time>2026-09-01T09:28:55.000Z</time>
        <extensions>
          <ns3:TrackPointExtension>
            <ns3:hr>153</ns3:hr>
            <ns3:cad>88</ns3:cad>
          </ns3:TrackPointExtension>
        </extensions>
      </trkpt>
      <trkpt lat="47.48967192135751247406005859375" lon="10.05937471054494380950927734375">
        <ele>1626</ele>
        <time>2026-09-01T09:28:56.000Z</time>
        <extensions>
          <ns3:TrackPointExtension>
            <ns3:hr>151</ns3:hr>
            <ns3:cad>88</ns3:cad>
          </ns3:TrackPointExtension>
        </extensions>
      </trkpt>
      <trkpt lat="47.4896557442843914031982421875" lon="10.05933665670454502105712890625">
        <ele>1625.4000244140625</ele>
        <time>2026-09-01T09:28:57.000Z</time>
        <extensions>
          <ns3:TrackPointExtension>
            <ns3:hr>150</ns3:hr>
            <ns3:cad>88</ns3:cad>
          </ns3:TrackPointExtension>
        </extensions>
      </trkpt>
      <trkpt lat="47.48963034711778163909912109375" lon="10.05926239304244518280029296875">
        <ele>1623.5999755859375</ele>
        <time>2026-09-01T09:28:59.000Z</time>
        <extensions>
          <ns3:TrackPointExtension>
            <ns3:hr>150</ns3:hr>
            <ns3:cad>88</ns3:cad>
          </ns3:TrackPointExtension>
        </extensions>
      </trkpt>
      <trkpt lat="47.48960285447537899017333984375" lon="10.05923674441874027252197265625">
        <ele>1622.5999755859375</ele>
        <time>2026-09-01T09:29:00.000Z</time>
        <extensions>
          <ns3:TrackPointExtension>
            <ns3:hr>151</ns3:hr>
            <ns3:cad>88</ns3:cad>
          </ns3:TrackPointExtension>
        </extensions>
      </trkpt>
      <trkpt lat="47.489569075405597686767578125" lon="10.059219896793365478515625">
        <ele>1621.5999755859375</ele>
        <time>2026-09-01T09:29:01.000Z</time>
        <extensions>
          <ns3:TrackPointExtension>
            <ns3:hr>151</ns3:hr>
            <ns3:cad>88</ns3:cad>
          </ns3:TrackPointExtension>
        </extensions>
      </trkpt>
      <trkpt lat="47.48954149894416332244873046875" lon="10.0592073239386081695556640625">
        <ele>1620.4000244140625</ele>
        <time>2026-09-01T09:29:02.000Z</time>
        <extensions>
          <ns3:TrackPointExtension>
            <ns3:hr>152</ns3:hr>
            <ns3:cad>88</ns3:cad>
          </ns3:TrackPointExtension>
        </extensions>
      </trkpt>
      <trkpt lat="47.4895169399678707122802734375" lon="10.05919449962675571441650390625">
        <ele>1619.4000244140625</ele>
        <time>2026-09-01T09:29:03.000Z</time>
        <extensions>
          <ns3:TrackPointExtension>
            <ns3:hr>152</ns3:hr>
            <ns3:cad>88</ns3:cad>
          </ns3:TrackPointExtension>
        </extensions>
      </trkpt>
      <trkpt lat="47.48948617838323116302490234375" lon="10.0591634027659893035888671875">
        <ele>1618.4000244140625</ele>
        <time>2026-09-01T09:29:04.000Z</time>
        <extensions>
          <ns3:TrackPointExtension>
            <ns3:hr>152</ns3:hr>
            <ns3:cad>88</ns3:cad>
          </ns3:TrackPointExtension>
        </extensions>
      </trkpt>
      <trkpt lat="47.4894696660339832305908203125" lon="10.05913716740906238555908203125">
        <ele>1617.5999755859375</ele>
        <time>2026-09-01T09:29:05.000Z</time>
        <extensions>
          <ns3:TrackPointExtension>
            <ns3:hr>151</ns3:hr>
            <ns3:cad>88</ns3:cad>
          </ns3:TrackPointExtension>
        </extensions>
      </trkpt>
      <trkpt lat="47.48945541679859161376953125" lon="10.05907413549721240997314453125">
        <ele>1616</ele>
        <time>2026-09-01T09:29:07.000Z</time>
        <extensions>
          <ns3:TrackPointExtension>
            <ns3:hr>151</ns3:hr>
            <ns3:cad>101</ns3:cad>
          </ns3:TrackPointExtension>
        </extensions>
      </trkpt>
      <trkpt lat="47.4894401617348194122314453125" lon="10.059048235416412353515625">
        <ele>1615</ele>
        <time>2026-09-01T09:29:08.000Z</time>
        <extensions>
          <ns3:TrackPointExtension>
            <ns3:hr>151</ns3:hr>
            <ns3:cad>101</ns3:cad>
          </ns3:TrackPointExtension>
        </extensions>
      </trkpt>
      <trkpt lat="47.489417530596256256103515625" lon="10.0590222515165805816650390625">
        <ele>1613.199951171875</ele>
        <time>2026-09-01T09:29:10.000Z</time>
        <extensions>
          <ns3:TrackPointExtension>
            <ns3:hr>150</ns3:hr>
            <ns3:cad>97</ns3:cad>
          </ns3:TrackPointExtension>
        </extensions>
      </trkpt>
      <trkpt lat="47.48939766548573970794677734375" lon="10.0589994527399539947509765625">
        <ele>1612.199951171875</ele>
        <time>2026-09-01T09:29:11.000Z</time>
        <extensions>
          <ns3:TrackPointExtension>
            <ns3:hr>150</ns3:hr>
            <ns3:cad>97</ns3:cad>
          </ns3:TrackPointExtension>
        </extensions>
      </trkpt>
      <trkpt lat="47.4893798120319843292236328125" lon="10.05899350158870220184326171875">
        <ele>1611.5999755859375</ele>
        <time>2026-09-01T09:29:12.000Z</time>
        <extensions>
          <ns3:TrackPointExtension>
            <ns3:hr>150</ns3:hr>
            <ns3:cad>97</ns3:cad>
          </ns3:TrackPointExtension>
        </extensions>
      </trkpt>
      <trkpt lat="47.489348463714122772216796875" lon="10.05898059345781803131103515625">
        <ele>1610</ele>
        <time>2026-09-01T09:29:14.000Z</time>
        <extensions>
          <ns3:TrackPointExtension>
            <ns3:hr>150</ns3:hr>
            <ns3:cad>98</ns3:cad>
          </ns3:TrackPointExtension>
        </extensions>
      </trkpt>
      <trkpt lat="47.48934016562998294830322265625" lon="10.05895578302443027496337890625">
        <ele>1609.199951171875</ele>
        <time>2026-09-01T09:29:15.000Z</time>
        <extensions>
          <ns3:TrackPointExtension>
            <ns3:hr>150</ns3:hr>
            <ns3:cad>98</ns3:cad>
          </ns3:TrackPointExtension>
        </extensions>
      </trkpt>
      <trkpt lat="47.4893335439264774322509765625" lon="10.05893063731491565704345703125">
        <ele>1608.4000244140625</ele>
        <time>2026-09-01T09:29:16.000Z</time>
        <extensions>
          <ns3:TrackPointExtension>
            <ns3:hr>149</ns3:hr>
            <ns3:cad>98</ns3:cad>
          </ns3:TrackPointExtension>
        </extensions>
      </trkpt>
      <trkpt lat="47.48932222835719585418701171875" lon="10.0589216686785221099853515625">
        <ele>1607.800048828125</ele>
        <time>2026-09-01T09:29:17.000Z</time>
        <extensions>
          <ns3:TrackPointExtension>
            <ns3:hr>148</ns3:hr>
            <ns3:cad>94</ns3:cad>
          </ns3:TrackPointExtension>
        </extensions>
      </trkpt>
      <trkpt lat="47.48931921087205410003662109375" lon="10.05889425985515117645263671875">
        <ele>1607.199951171875</ele>
        <time>2026-09-01T09:29:18.000Z</time>
        <extensions>
          <ns3:TrackPointExtension>
            <ns3:hr>148</ns3:hr>
            <ns3:cad>94</ns3:cad>
          </ns3:TrackPointExtension>
        </extensions>
      </trkpt>
      <trkpt lat="47.48929305933415889739990234375" lon="10.058841705322265625">
        <ele>1606</ele>
        <time>2026-09-01T09:29:20.000Z</time>
        <extensions>
          <ns3:TrackPointExtension>
            <ns3:hr>147</ns3:hr>
            <ns3:cad>94</ns3:cad>
          </ns3:TrackPointExtension>
        </extensions>
      </trkpt>
      <trkpt lat="47.4892423488199710845947265625" lon="10.0588472373783588409423828125">
        <ele>1604.800048828125</ele>
        <time>2026-09-01T09:29:22.000Z</time>
        <extensions>
          <ns3:TrackPointExtension>
            <ns3:hr>147</ns3:hr>
            <ns3:cad>96</ns3:cad>
          </ns3:TrackPointExtension>
        </extensions>
      </trkpt>
      <trkpt lat="47.4892299436032772064208984375" lon="10.05884698592126369476318359375">
        <ele>1604</ele>
        <time>2026-09-01T09:29:23.000Z</time>
        <extensions>
          <ns3:TrackPointExtension>
            <ns3:hr>147</ns3:hr>
            <ns3:cad>96</ns3:cad>
          </ns3:TrackPointExtension>
        </extensions>
      </trkpt>
      <trkpt lat="47.489227093756198883056640625" lon="10.05880993790924549102783203125">
        <ele>1603.4000244140625</ele>
        <time>2026-09-01T09:29:24.000Z</time>
        <extensions>
          <ns3:TrackPointExtension>
            <ns3:hr>147</ns3:hr>
            <ns3:cad>96</ns3:cad>
          </ns3:TrackPointExtension>
        </extensions>
      </trkpt>
      <trkpt lat="47.4892202205955982208251953125" lon="10.05872008390724658966064453125">
        <ele>1602</ele>
        <time>2026-09-01T09:29:26.000Z</time>
        <extensions>
          <ns3:TrackPointExtension>
            <ns3:hr>147</ns3:hr>
            <ns3:cad>96</ns3:cad>
          </ns3:TrackPointExtension>
        </extensions>
      </trkpt>
      <trkpt lat="47.48920085839927196502685546875" lon="10.0586866401135921478271484375">
        <ele>1601</ele>
        <time>2026-09-01T09:29:27.000Z</time>
        <extensions>
          <ns3:TrackPointExtension>
            <ns3:hr>146</ns3:hr>
            <ns3:cad>86</ns3:cad>
          </ns3:TrackPointExtension>
        </extensions>
      </trkpt>
      <trkpt lat="47.48918258585035800933837890625" lon="10.058693177998065948486328125">
        <ele>1600.199951171875</ele>
        <time>2026-09-01T09:29:28.000Z</time>
        <extensions>
          <ns3:TrackPointExtension>
            <ns3:hr>146</ns3:hr>
            <ns3:cad>86</ns3:cad>
          </ns3:TrackPointExtension>
        </extensions>
      </trkpt>
      <trkpt lat="47.4891545064747333526611328125" lon="10.0587151385843753814697265625">
        <ele>1599.5999755859375</ele>
        <time>2026-09-01T09:29:29.000Z</time>
        <extensions>
          <ns3:TrackPointExtension>
            <ns3:hr>146</ns3:hr>
            <ns3:cad>86</ns3:cad>
          </ns3:TrackPointExtension>
        </extensions>
      </trkpt>
      <trkpt lat="47.48913782648742198944091796875" lon="10.058730728924274444580078125">
        <ele>1598.800048828125</ele>
        <time>2026-09-01T09:29:30.000Z</time>
        <extensions>
          <ns3:TrackPointExtension>
            <ns3:hr>146</ns3:hr>
            <ns3:cad>86</ns3:cad>
          </ns3:TrackPointExtension>
        </extensions>
      </trkpt>
      <trkpt lat="47.48913195915520191192626953125" lon="10.0587178207933902740478515625">
        <ele>1598.199951171875</ele>
        <time>2026-09-01T09:29:31.000Z</time>
        <extensions>
          <ns3:TrackPointExtension>
            <ns3:hr>147</ns3:hr>
            <ns3:cad>86</ns3:cad>
          </ns3:TrackPointExtension>
        </extensions>
      </trkpt>
      <trkpt lat="47.48912290669977664947509765625" lon="10.05869410000741481781005859375">
        <ele>1597.5999755859375</ele>
        <time>2026-09-01T09:29:32.000Z</time>
        <extensions>
          <ns3:TrackPointExtension>
            <ns3:hr>147</ns3:hr>
            <ns3:cad>86</ns3:cad>
          </ns3:TrackPointExtension>
        </extensions>
      </trkpt>
      <trkpt lat="47.48909424059092998504638671875" lon="10.05863986909389495849609375">
        <ele>1596.4000244140625</ele>
        <time>2026-09-01T09:29:34.000Z</time>
        <extensions>
          <ns3:TrackPointExtension>
            <ns3:hr>147</ns3:hr>
            <ns3:cad>86</ns3:cad>
          </ns3:TrackPointExtension>
        </extensions>
      </trkpt>
      <trkpt lat="47.48908032663166522979736328125" lon="10.05857742391526699066162109375">
        <ele>1594.4000244140625</ele>
        <time>2026-09-01T09:29:36.000Z</time>
        <extensions>
          <ns3:TrackPointExtension>
            <ns3:hr>147</ns3:hr>
            <ns3:cad>86</ns3:cad>
          </ns3:TrackPointExtension>
        </extensions>
      </trkpt>
      <trkpt lat="47.48906875960528850555419921875" lon="10.05855093710124492645263671875">
        <ele>1593.4000244140625</ele>
        <time>2026-09-01T09:29:37.000Z</time>
        <extensions>
          <ns3:TrackPointExtension>
            <ns3:hr>147</ns3:hr>
            <ns3:cad>86</ns3:cad>
          </ns3:TrackPointExtension>
        </extensions>
      </trkpt>
      <trkpt lat="47.48904344625771045684814453125" lon="10.05850299261510372161865234375">
        <ele>1592.199951171875</ele>
        <time>2026-09-01T09:29:39.000Z</time>
        <extensions>
          <ns3:TrackPointExtension>
            <ns3:hr>146</ns3:hr>
            <ns3:cad>86</ns3:cad>
          </ns3:TrackPointExtension>
        </extensions>
      </trkpt>
      <trkpt lat="47.489033639430999755859375" lon="10.05847759544849395751953125">
        <ele>1591.4000244140625</ele>
        <time>2026-09-01T09:29:40.000Z</time>
        <extensions>
          <ns3:TrackPointExtension>
            <ns3:hr>146</ns3:hr>
            <ns3:cad>86</ns3:cad>
          </ns3:TrackPointExtension>
        </extensions>
      </trkpt>
      <trkpt lat="47.4890244193375110626220703125" lon="10.0584432296454906463623046875">
        <ele>1590.4000244140625</ele>
        <time>2026-09-01T09:29:41.000Z</time>
        <extensions>
          <ns3:TrackPointExtension>
            <ns3:hr>146</ns3:hr>
            <ns3:cad>86</ns3:cad>
          </ns3:TrackPointExtension>
        </extensions>
      </trkpt>
      <trkpt lat="47.48901092447340488433837890625" lon="10.05838774144649505615234375">
        <ele>1588.5999755859375</ele>
        <time>2026-09-01T09:29:43.000Z</time>
        <extensions>
          <ns3:TrackPointExtension>
            <ns3:hr>146</ns3:hr>
            <ns3:cad>96</ns3:cad>
          </ns3:TrackPointExtension>
        </extensions>
      </trkpt>
      <trkpt lat="47.4889885447919368743896484375" lon="10.0583664514124393463134765625">
        <ele>1587.5999755859375</ele>
        <time>2026-09-01T09:29:44.000Z</time>
        <extensions>
          <ns3:TrackPointExtension>
            <ns3:hr>147</ns3:hr>
            <ns3:cad>96</ns3:cad>
          </ns3:TrackPointExtension>
        </extensions>
      </trkpt>
      <trkpt lat="47.48896935023367404937744140625" lon="10.0583548843860626220703125">
        <ele>1586.5999755859375</ele>
        <time>2026-09-01T09:29:45.000Z</time>
        <extensions>
          <ns3:TrackPointExtension>
            <ns3:hr>147</ns3:hr>
            <ns3:cad>96</ns3:cad>
          </ns3:TrackPointExtension>
        </extensions>
      </trkpt>
      <trkpt lat="47.48894085176289081573486328125" lon="10.058345831930637359619140625">
        <ele>1585.5999755859375</ele>
        <time>2026-09-01T09:29:46.000Z</time>
        <extensions>
          <ns3:TrackPointExtension>
            <ns3:hr>148</ns3:hr>
            <ns3:cad>96</ns3:cad>
          </ns3:TrackPointExtension>
        </extensions>
      </trkpt>
      <trkpt lat="47.48892811127007007598876953125" lon="10.05831842310726642608642578125">
        <ele>1584.4000244140625</ele>
        <time>2026-09-01T09:29:47.000Z</time>
        <extensions>
          <ns3:TrackPointExtension>
            <ns3:hr>147</ns3:hr>
            <ns3:cad>96</ns3:cad>
          </ns3:TrackPointExtension>
        </extensions>
      </trkpt>
      <trkpt lat="47.48892341740429401397705078125" lon="10.058286152780055999755859375">
        <ele>1583.4000244140625</ele>
        <time>2026-09-01T09:29:48.000Z</time>
        <extensions>
          <ns3:TrackPointExtension>
            <ns3:hr>148</ns3:hr>
            <ns3:cad>96</ns3:cad>
          </ns3:TrackPointExtension>
        </extensions>
      </trkpt>
      <trkpt lat="47.48892157338559627532958984375" lon="10.0582407228648662567138671875">
        <ele>1582.5999755859375</ele>
        <time>2026-09-01T09:29:49.000Z</time>
        <extensions>
          <ns3:TrackPointExtension>
            <ns3:hr>148</ns3:hr>
            <ns3:cad>96</ns3:cad>
          </ns3:TrackPointExtension>
        </extensions>
      </trkpt>
      <trkpt lat="47.48892073519527912139892578125" lon="10.05816922523081302642822265625">
        <ele>1581</ele>
        <time>2026-09-01T09:29:51.000Z</time>
        <extensions>
          <ns3:TrackPointExtension>
            <ns3:hr>147</ns3:hr>
            <ns3:cad>96</ns3:cad>
          </ns3:TrackPointExtension>
        </extensions>
      </trkpt>
      <trkpt lat="47.48891302384436130523681640625" lon="10.0581461749970912933349609375">
        <ele>1580.199951171875</ele>
        <time>2026-09-01T09:29:52.000Z</time>
        <extensions>
          <ns3:TrackPointExtension>
            <ns3:hr>147</ns3:hr>
            <ns3:cad>101</ns3:cad>
          </ns3:TrackPointExtension>
        </extensions>
      </trkpt>
      <trkpt lat="47.48888804577291011810302734375" lon="10.058120191097259521484375">
        <ele>1579.199951171875</ele>
        <time>2026-09-01T09:29:53.000Z</time>
        <extensions>
          <ns3:TrackPointExtension>
            <ns3:hr>147</ns3:hr>
            <ns3:cad>101</ns3:cad>
          </ns3:TrackPointExtension>
        </extensions>
      </trkpt>
      <trkpt lat="47.48887002468109130859375" lon="10.05810267291963100433349609375">
        <ele>1578</ele>
        <time>2026-09-01T09:29:54.000Z</time>
        <extensions>
          <ns3:TrackPointExtension>
            <ns3:hr>147</ns3:hr>
            <ns3:cad>101</ns3:cad>
          </ns3:TrackPointExtension>
        </extensions>
      </trkpt>
      <trkpt lat="47.4888499081134796142578125" lon="10.05806713365018367767333984375">
        <ele>1577</ele>
        <time>2026-09-01T09:29:55.000Z</time>
        <extensions>
          <ns3:TrackPointExtension>
            <ns3:hr>147</ns3:hr>
            <ns3:cad>101</ns3:cad>
          </ns3:TrackPointExtension>
        </extensions>
      </trkpt>
      <trkpt lat="47.48882551677525043487548828125" lon="10.0580294989049434661865234375">
        <ele>1575.5999755859375</ele>
        <time>2026-09-01T09:29:56.000Z</time>
        <extensions>
          <ns3:TrackPointExtension>
            <ns3:hr>147</ns3:hr>
            <ns3:cad>101</ns3:cad>
          </ns3:TrackPointExtension>
        </extensions>
      </trkpt>
      <trkpt lat="47.48880372382700443267822265625" lon="10.057991445064544677734375">
        <ele>1574.5999755859375</ele>
        <time>2026-09-01T09:29:57.000Z</time>
        <extensions>
          <ns3:TrackPointExtension>
            <ns3:hr>148</ns3:hr>
            <ns3:cad>101</ns3:cad>
          </ns3:TrackPointExtension>
        </extensions>
      </trkpt>
      <trkpt lat="47.48879064805805683135986328125" lon="10.057883150875568389892578125">
        <ele>1572.800048828125</ele>
        <time>2026-09-01T09:29:59.000Z</time>
        <extensions>
          <ns3:TrackPointExtension>
            <ns3:hr>149</ns3:hr>
            <ns3:cad>101</ns3:cad>
          </ns3:TrackPointExtension>
        </extensions>
      </trkpt>
      <trkpt lat="47.48877950012683868408203125" lon="10.05782313644886016845703125">
        <ele>1572</ele>
        <time>2026-09-01T09:30:00.000Z</time>
        <extensions>
          <ns3:TrackPointExtension>
            <ns3:hr>149</ns3:hr>
            <ns3:cad>101</ns3:cad>
          </ns3:TrackPointExtension>
        </extensions>
      </trkpt>
      <trkpt lat="47.48876919038593769073486328125" lon="10.05777544341981410980224609375">
        <ele>1571.4000244140625</ele>
        <time>2026-09-01T09:30:01.000Z</time>
        <extensions>
          <ns3:TrackPointExtension>
            <ns3:hr>149</ns3:hr>
            <ns3:cad>101</ns3:cad>
          </ns3:TrackPointExtension>
        </extensions>
      </trkpt>
      <trkpt lat="47.4887173064053058624267578125" lon="10.0576784648001194000244140625">
        <ele>1570.199951171875</ele>
        <time>2026-09-01T09:30:03.000Z</time>
        <extensions>
          <ns3:TrackPointExtension>
            <ns3:hr>149</ns3:hr>
            <ns3:cad>101</ns3:cad>
          </ns3:TrackPointExtension>
        </extensions>
      </trkpt>
      <trkpt lat="47.48869459144771099090576171875" lon="10.05763496272265911102294921875">
        <ele>1570</ele>
        <time>2026-09-01T09:30:04.000Z</time>
        <extensions>
          <ns3:TrackPointExtension>
            <ns3:hr>148</ns3:hr>
            <ns3:cad>101</ns3:cad>
          </ns3:TrackPointExtension>
        </extensions>
      </trkpt>
      <trkpt lat="47.48862300999462604522705078125" lon="10.0574652291834354400634765625">
        <ele>1569.5999755859375</ele>
        <time>2026-09-01T09:30:08.000Z</time>
        <extensions>
          <ns3:TrackPointExtension>
            <ns3:hr>151</ns3:hr>
            <ns3:cad>91</ns3:cad>
          </ns3:TrackPointExtension>
        </extensions>
      </trkpt>
      <trkpt lat="47.48853935860097408294677734375" lon="10.0573468767106533050537109375">
        <ele>1569</ele>
        <time>2026-09-01T09:30:11.000Z</time>
        <extensions>
          <ns3:TrackPointExtension>
            <ns3:hr>153</ns3:hr>
            <ns3:cad>88</ns3:cad>
          </ns3:TrackPointExtension>
        </extensions>
      </trkpt>
      <trkpt lat="47.4885134585201740264892578125" lon="10.057308487594127655029296875">
        <ele>1568.5999755859375</ele>
        <time>2026-09-01T09:30:12.000Z</time>
        <extensions>
          <ns3:TrackPointExtension>
            <ns3:hr>153</ns3:hr>
            <ns3:cad>88</ns3:cad>
          </ns3:TrackPointExtension>
        </extensions>
      </trkpt>
      <trkpt lat="47.488463334739208221435546875" lon="10.05723263137042522430419921875">
        <ele>1567.800048828125</ele>
        <time>2026-09-01T09:30:14.000Z</time>
        <extensions>
          <ns3:TrackPointExtension>
            <ns3:hr>155</ns3:hr>
            <ns3:cad>86</ns3:cad>
          </ns3:TrackPointExtension>
        </extensions>
      </trkpt>
      <trkpt lat="47.48843374662101268768310546875" lon="10.05713154561817646026611328125">
        <ele>1567.199951171875</ele>
        <time>2026-09-01T09:30:16.000Z</time>
        <extensions>
          <ns3:TrackPointExtension>
            <ns3:hr>155</ns3:hr>
            <ns3:cad>87</ns3:cad>
          </ns3:TrackPointExtension>
        </extensions>
      </trkpt>
      <trkpt lat="47.4884225986897945404052734375" lon="10.05703666247427463531494140625">
        <ele>1566.5999755859375</ele>
        <time>2026-09-01T09:30:19.000Z</time>
        <extensions>
          <ns3:TrackPointExtension>
            <ns3:hr>154</ns3:hr>
            <ns3:cad>86</ns3:cad>
          </ns3:TrackPointExtension>
        </extensions>
      </trkpt>
      <trkpt lat="47.4884266220033168792724609375" lon="10.05703548900783061981201171875">
        <ele>1566.5999755859375</ele>
        <time>2026-09-01T09:30:20.000Z</time>
        <extensions>
          <ns3:TrackPointExtension>
            <ns3:hr>154</ns3:hr>
            <ns3:cad>86</ns3:cad>
          </ns3:TrackPointExtension>
        </extensions>
      </trkpt>
      <trkpt lat="47.4884165637195110321044921875" lon="10.05701621063053607940673828125">
        <ele>1566.199951171875</ele>
        <time>2026-09-01T09:30:22.000Z</time>
        <extensions>
          <ns3:TrackPointExtension>
            <ns3:hr>154</ns3:hr>
            <ns3:cad>86</ns3:cad>
          </ns3:TrackPointExtension>
        </extensions>
      </trkpt>
      <trkpt lat="47.4883833713829517364501953125" lon="10.05697312764823436737060546875">
        <ele>1565.800048828125</ele>
        <time>2026-09-01T09:30:24.000Z</time>
        <extensions>
          <ns3:TrackPointExtension>
            <ns3:hr>153</ns3:hr>
            <ns3:cad>55</ns3:cad>
          </ns3:TrackPointExtension>
        </extensions>
      </trkpt>
      <trkpt lat="47.48832914046943187713623046875" lon="10.05684974603354930877685546875">
        <ele>1566.4000244140625</ele>
        <time>2026-09-01T09:30:28.000Z</time>
        <extensions>
          <ns3:TrackPointExtension>
            <ns3:hr>153</ns3:hr>
            <ns3:cad>0</ns3:cad>
          </ns3:TrackPointExtension>
        </extensions>
      </trkpt>
      <trkpt lat="47.4882811121642589569091796875" lon="10.0567160546779632568359375">
        <ele>1567</ele>
        <time>2026-09-01T09:30:32.000Z</time>
        <extensions>
          <ns3:TrackPointExtension>
            <ns3:hr>153</ns3:hr>
            <ns3:cad>85</ns3:cad>
          </ns3:TrackPointExtension>
        </extensions>
      </trkpt>
      <trkpt lat="47.4882254563271999359130859375" lon="10.0566463172435760498046875">
        <ele>1566.199951171875</ele>
        <time>2026-09-01T09:30:35.000Z</time>
        <extensions>
          <ns3:TrackPointExtension>
            <ns3:hr>153</ns3:hr>
            <ns3:cad>86</ns3:cad>
          </ns3:TrackPointExtension>
        </extensions>
      </trkpt>
      <trkpt lat="47.48818228952586650848388671875" lon="10.05657398141920566558837890625">
        <ele>1565.199951171875</ele>
        <time>2026-09-01T09:30:37.000Z</time>
        <extensions>
          <ns3:TrackPointExtension>
            <ns3:hr>153</ns3:hr>
            <ns3:cad>86</ns3:cad>
          </ns3:TrackPointExtension>
        </extensions>
      </trkpt>
      <trkpt lat="47.48814809136092662811279296875" lon="10.05649401806294918060302734375">
        <ele>1564.199951171875</ele>
        <time>2026-09-01T09:30:39.000Z</time>
        <extensions>
          <ns3:TrackPointExtension>
            <ns3:hr>153</ns3:hr>
            <ns3:cad>85</ns3:cad>
          </ns3:TrackPointExtension>
        </extensions>
      </trkpt>
      <trkpt lat="47.48810090124607086181640625" lon="10.056408941745758056640625">
        <ele>1563.5999755859375</ele>
        <time>2026-09-01T09:30:41.000Z</time>
        <extensions>
          <ns3:TrackPointExtension>
            <ns3:hr>153</ns3:hr>
            <ns3:cad>85</ns3:cad>
          </ns3:TrackPointExtension>
        </extensions>
      </trkpt>
      <trkpt lat="47.48802755959331989288330078125" lon="10.0563029944896697998046875">
        <ele>1563.800048828125</ele>
        <time>2026-09-01T09:30:45.000Z</time>
        <extensions>
          <ns3:TrackPointExtension>
            <ns3:hr>154</ns3:hr>
            <ns3:cad>86</ns3:cad>
          </ns3:TrackPointExtension>
        </extensions>
      </trkpt>
      <trkpt lat="47.48797911219298839569091796875" lon="10.056277178227901458740234375">
        <ele>1565.4000244140625</ele>
        <time>2026-09-01T09:30:49.000Z</time>
        <extensions>
          <ns3:TrackPointExtension>
            <ns3:hr>154</ns3:hr>
            <ns3:cad>43</ns3:cad>
          </ns3:TrackPointExtension>
        </extensions>
      </trkpt>
      <trkpt lat="47.48797626234591007232666015625" lon="10.05625270307064056396484375">
        <ele>1566.4000244140625</ele>
        <time>2026-09-01T09:30:51.000Z</time>
        <extensions>
          <ns3:TrackPointExtension>
            <ns3:hr>154</ns3:hr>
            <ns3:cad>0</ns3:cad>
          </ns3:TrackPointExtension>
        </extensions>
      </trkpt>
      <trkpt lat="47.487964443862438201904296875" lon="10.05624641664326190948486328125">
        <ele>1566.800048828125</ele>
        <time>2026-09-01T09:30:52.000Z</time>
        <extensions>
          <ns3:TrackPointExtension>
            <ns3:hr>154</ns3:hr>
            <ns3:cad>0</ns3:cad>
          </ns3:TrackPointExtension>
        </extensions>
      </trkpt>
      <trkpt lat="47.48795379884541034698486328125" lon="10.056231580674648284912109375">
        <ele>1567.5999755859375</ele>
        <time>2026-09-01T09:30:54.000Z</time>
        <extensions>
          <ns3:TrackPointExtension>
            <ns3:hr>154</ns3:hr>
            <ns3:cad>0</ns3:cad>
          </ns3:TrackPointExtension>
        </extensions>
      </trkpt>
      <trkpt lat="47.48794826678931713104248046875" lon="10.0561667047441005706787109375">
        <ele>1568.800048828125</ele>
        <time>2026-09-01T09:30:58.000Z</time>
        <extensions>
          <ns3:TrackPointExtension>
            <ns3:hr>156</ns3:hr>
            <ns3:cad>53</ns3:cad>
          </ns3:TrackPointExtension>
        </extensions>
      </trkpt>
      <trkpt lat="47.4879481829702854156494140625" lon="10.05613527260720729827880859375">
        <ele>1569.199951171875</ele>
        <time>2026-09-01T09:31:00.000Z</time>
        <extensions>
          <ns3:TrackPointExtension>
            <ns3:hr>157</ns3:hr>
            <ns3:cad>75</ns3:cad>
          </ns3:TrackPointExtension>
        </extensions>
      </trkpt>
      <trkpt lat="47.4879448302090167999267578125" lon="10.05610275082290172576904296875">
        <ele>1569.800048828125</ele>
        <time>2026-09-01T09:31:02.000Z</time>
        <extensions>
          <ns3:TrackPointExtension>
            <ns3:hr>157</ns3:hr>
            <ns3:cad>0</ns3:cad>
          </ns3:TrackPointExtension>
        </extensions>
      </trkpt>
      <trkpt lat="47.487928569316864013671875" lon="10.05607441999018192291259765625">
        <ele>1571</ele>
        <time>2026-09-01T09:31:05.000Z</time>
        <extensions>
          <ns3:TrackPointExtension>
            <ns3:hr>159</ns3:hr>
            <ns3:cad>53</ns3:cad>
          </ns3:TrackPointExtension>
        </extensions>
      </trkpt>
      <trkpt lat="47.4879106320440769195556640625" lon="10.05606385879218578338623046875">
        <ele>1571.800048828125</ele>
        <time>2026-09-01T09:31:07.000Z</time>
        <extensions>
          <ns3:TrackPointExtension>
            <ns3:hr>161</ns3:hr>
            <ns3:cad>53</ns3:cad>
          </ns3:TrackPointExtension>
        </extensions>
      </trkpt>
      <trkpt lat="47.4878616817295551300048828125" lon="10.05598205141723155975341796875">
        <ele>1571.5999755859375</ele>
        <time>2026-09-01T09:31:10.000Z</time>
        <extensions>
          <ns3:TrackPointExtension>
            <ns3:hr>161</ns3:hr>
            <ns3:cad>53</ns3:cad>
          </ns3:TrackPointExtension>
        </extensions>
      </trkpt>
      <trkpt lat="47.48782153241336345672607421875" lon="10.05579832009971141815185546875">
        <ele>1571.4000244140625</ele>
        <time>2026-09-01T09:31:15.000Z</time>
        <extensions>
          <ns3:TrackPointExtension>
            <ns3:hr>161</ns3:hr>
            <ns3:cad>84</ns3:cad>
          </ns3:TrackPointExtension>
        </extensions>
      </trkpt>
      <trkpt lat="47.48779839836061000823974609375" lon="10.0557365454733371734619140625">
        <ele>1572.4000244140625</ele>
        <time>2026-09-01T09:31:18.000Z</time>
        <extensions>
          <ns3:TrackPointExtension>
            <ns3:hr>162</ns3:hr>
            <ns3:cad>85</ns3:cad>
          </ns3:TrackPointExtension>
        </extensions>
      </trkpt>
      <trkpt lat="47.487779371440410614013671875" lon="10.05573394708335399627685546875">
        <ele>1572.5999755859375</ele>
        <time>2026-09-01T09:31:19.000Z</time>
        <extensions>
          <ns3:TrackPointExtension>
            <ns3:hr>162</ns3:hr>
            <ns3:cad>86</ns3:cad>
          </ns3:TrackPointExtension>
        </extensions>
      </trkpt>
      <trkpt lat="47.4876521341502666473388671875" lon="10.05570285022258758544921875">
        <ele>1572.4000244140625</ele>
        <time>2026-09-01T09:31:24.000Z</time>
        <extensions>
          <ns3:TrackPointExtension>
            <ns3:hr>162</ns3:hr>
            <ns3:cad>84</ns3:cad>
          </ns3:TrackPointExtension>
        </extensions>
      </trkpt>
      <trkpt lat="47.48760871589183807373046875" lon="10.055650882422924041748046875">
        <ele>1573.199951171875</ele>
        <time>2026-09-01T09:31:28.000Z</time>
        <extensions>
          <ns3:TrackPointExtension>
            <ns3:hr>162</ns3:hr>
            <ns3:cad>84</ns3:cad>
          </ns3:TrackPointExtension>
        </extensions>
      </trkpt>
      <trkpt lat="47.48759186826646327972412109375" lon="10.0556269101798534393310546875">
        <ele>1573.5999755859375</ele>
        <time>2026-09-01T09:31:29.000Z</time>
        <extensions>
          <ns3:TrackPointExtension>
            <ns3:hr>162</ns3:hr>
            <ns3:cad>85</ns3:cad>
          </ns3:TrackPointExtension>
        </extensions>
      </trkpt>
      <trkpt lat="47.48754560016095638275146484375" lon="10.05550168454647064208984375">
        <ele>1574.4000244140625</ele>
        <time>2026-09-01T09:31:33.000Z</time>
        <extensions>
          <ns3:TrackPointExtension>
            <ns3:hr>161</ns3:hr>
            <ns3:cad>84</ns3:cad>
          </ns3:TrackPointExtension>
        </extensions>
      </trkpt>
      <trkpt lat="47.48754006810486316680908203125" lon="10.0554844178259372711181640625">
        <ele>1574.5999755859375</ele>
        <time>2026-09-01T09:31:34.000Z</time>
        <extensions>
          <ns3:TrackPointExtension>
            <ns3:hr>161</ns3:hr>
            <ns3:cad>85</ns3:cad>
          </ns3:TrackPointExtension>
        </extensions>
      </trkpt>
      <trkpt lat="47.48752146027982234954833984375" lon="10.055422894656658172607421875">
        <ele>1576</ele>
        <time>2026-09-01T09:31:38.000Z</time>
        <extensions>
          <ns3:TrackPointExtension>
            <ns3:hr>160</ns3:hr>
            <ns3:cad>85</ns3:cad>
          </ns3:TrackPointExtension>
        </extensions>
      </trkpt>
      <trkpt lat="47.4875168502330780029296875" lon="10.05540822632610797882080078125">
        <ele>1576.4000244140625</ele>
        <time>2026-09-01T09:31:39.000Z</time>
        <extensions>
          <ns3:TrackPointExtension>
            <ns3:hr>160</ns3:hr>
            <ns3:cad>60</ns3:cad>
          </ns3:TrackPointExtension>
        </extensions>
      </trkpt>
      <trkpt lat="47.4875180236995220184326171875" lon="10.05537704564630985260009765625">
        <ele>1577.199951171875</ele>
        <time>2026-09-01T09:31:41.000Z</time>
        <extensions>
          <ns3:TrackPointExtension>
            <ns3:hr>161</ns3:hr>
            <ns3:cad>60</ns3:cad>
          </ns3:TrackPointExtension>
        </extensions>
      </trkpt>
      <trkpt lat="47.4875247292220592498779296875" lon="10.05531753413379192352294921875">
        <ele>1578.199951171875</ele>
        <time>2026-09-01T09:31:45.000Z</time>
        <extensions>
          <ns3:TrackPointExtension>
            <ns3:hr>161</ns3:hr>
            <ns3:cad>58</ns3:cad>
          </ns3:TrackPointExtension>
        </extensions>
      </trkpt>
      <trkpt lat="47.48752556741237640380859375" lon="10.05530177615582942962646484375">
        <ele>1578.199951171875</ele>
        <time>2026-09-01T09:31:46.000Z</time>
        <extensions>
          <ns3:TrackPointExtension>
            <ns3:hr>161</ns3:hr>
            <ns3:cad>58</ns3:cad>
          </ns3:TrackPointExtension>
        </extensions>
      </trkpt>
      <trkpt lat="47.487527243793010711669921875" lon="10.05521108396351337432861328125">
        <ele>1579.4000244140625</ele>
        <time>2026-09-01T09:31:51.000Z</time>
        <extensions>
          <ns3:TrackPointExtension>
            <ns3:hr>162</ns3:hr>
            <ns3:cad>60</ns3:cad>
          </ns3:TrackPointExtension>
        </extensions>
      </trkpt>
      <trkpt lat="47.4875294230878353118896484375" lon="10.05519054830074310302734375">
        <ele>1579.5999755859375</ele>
        <time>2026-09-01T09:31:52.000Z</time>
        <extensions>
          <ns3:TrackPointExtension>
            <ns3:hr>161</ns3:hr>
            <ns3:cad>60</ns3:cad>
          </ns3:TrackPointExtension>
        </extensions>
      </trkpt>
      <trkpt lat="47.4875367991626262664794921875" lon="10.05514067597687244415283203125">
        <ele>1580.5999755859375</ele>
        <time>2026-09-01T09:31:55.000Z</time>
        <extensions>
          <ns3:TrackPointExtension>
            <ns3:hr>160</ns3:hr>
            <ns3:cad>53</ns3:cad>
          </ns3:TrackPointExtension>
        </extensions>
      </trkpt>
      <trkpt lat="47.48754526488482952117919921875" lon="10.055101700127124786376953125">
        <ele>1581.5999755859375</ele>
        <time>2026-09-01T09:31:58.000Z</time>
        <extensions>
          <ns3:TrackPointExtension>
            <ns3:hr>159</ns3:hr>
            <ns3:cad>53</ns3:cad>
          </ns3:TrackPointExtension>
        </extensions>
      </trkpt>
      <trkpt lat="47.4875629507005214691162109375" lon="10.05507160909473896026611328125">
        <ele>1582.5999755859375</ele>
        <time>2026-09-01T09:32:01.000Z</time>
        <extensions>
          <ns3:TrackPointExtension>
            <ns3:hr>158</ns3:hr>
            <ns3:cad>53</ns3:cad>
          </ns3:TrackPointExtension>
        </extensions>
      </trkpt>
      <trkpt lat="47.48758046887814998626708984375" lon="10.05501712672412395477294921875">
        <ele>1583.800048828125</ele>
        <time>2026-09-01T09:32:05.000Z</time>
        <extensions>
          <ns3:TrackPointExtension>
            <ns3:hr>160</ns3:hr>
            <ns3:cad>60</ns3:cad>
          </ns3:TrackPointExtension>
        </extensions>
      </trkpt>
      <trkpt lat="47.48759052716195583343505859375" lon="10.054973624646663665771484375">
        <ele>1585</ele>
        <time>2026-09-01T09:32:09.000Z</time>
        <extensions>
          <ns3:TrackPointExtension>
            <ns3:hr>161</ns3:hr>
            <ns3:cad>0</ns3:cad>
          </ns3:TrackPointExtension>
        </extensions>
      </trkpt>
      <trkpt lat="47.4875919520854949951171875" lon="10.05496113561093807220458984375">
        <ele>1585.199951171875</ele>
        <time>2026-09-01T09:32:10.000Z</time>
        <extensions>
          <ns3:TrackPointExtension>
            <ns3:hr>161</ns3:hr>
            <ns3:cad>0</ns3:cad>
          </ns3:TrackPointExtension>
        </extensions>
      </trkpt>
      <trkpt lat="47.487598992884159088134765625" lon="10.05492526106536388397216796875">
        <ele>1586.199951171875</ele>
        <time>2026-09-01T09:32:13.000Z</time>
        <extensions>
          <ns3:TrackPointExtension>
            <ns3:hr>162</ns3:hr>
            <ns3:cad>55</ns3:cad>
          </ns3:TrackPointExtension>
        </extensions>
      </trkpt>
      <trkpt lat="47.487612403929233551025390625" lon="10.05488343536853790283203125">
        <ele>1587.199951171875</ele>
        <time>2026-09-01T09:32:17.000Z</time>
        <extensions>
          <ns3:TrackPointExtension>
            <ns3:hr>161</ns3:hr>
            <ns3:cad>54</ns3:cad>
          </ns3:TrackPointExtension>
        </extensions>
      </trkpt>
      <trkpt lat="47.48762254603207111358642578125" lon="10.05486826412379741668701171875">
        <ele>1588.199951171875</ele>
        <time>2026-09-01T09:32:20.000Z</time>
        <extensions>
          <ns3:TrackPointExtension>
            <ns3:hr>160</ns3:hr>
            <ns3:cad>49</ns3:cad>
          </ns3:TrackPointExtension>
        </extensions>
      </trkpt>
      <trkpt lat="47.4876367114484310150146484375" lon="10.0548339821398258209228515625">
        <ele>1589.4000244140625</ele>
        <time>2026-09-01T09:32:25.000Z</time>
        <extensions>
          <ns3:TrackPointExtension>
            <ns3:hr>161</ns3:hr>
            <ns3:cad>44</ns3:cad>
          </ns3:TrackPointExtension>
        </extensions>
      </trkpt>
      <trkpt lat="47.4876528047025203704833984375" lon="10.05479626357555389404296875">
        <ele>1589.800048828125</ele>
        <time>2026-09-01T09:32:27.000Z</time>
        <extensions>
          <ns3:TrackPointExtension>
            <ns3:hr>162</ns3:hr>
            <ns3:cad>44</ns3:cad>
          </ns3:TrackPointExtension>
        </extensions>
      </trkpt>
      <trkpt lat="47.48765540309250354766845703125" lon="10.0546318106353282928466796875">
        <ele>1590.4000244140625</ele>
        <time>2026-09-01T09:32:31.000Z</time>
        <extensions>
          <ns3:TrackPointExtension>
            <ns3:hr>162</ns3:hr>
            <ns3:cad>83</ns3:cad>
          </ns3:TrackPointExtension>
        </extensions>
      </trkpt>
      <trkpt lat="47.48765506781637668609619140625" lon="10.054407007992267608642578125">
        <ele>1590.199951171875</ele>
        <time>2026-09-01T09:32:36.000Z</time>
        <extensions>
          <ns3:TrackPointExtension>
            <ns3:hr>160</ns3:hr>
            <ns3:cad>83</ns3:cad>
          </ns3:TrackPointExtension>
        </extensions>
      </trkpt>
      <trkpt lat="47.48768909834325313568115234375" lon="10.0542737357318401336669921875">
        <ele>1591</ele>
        <time>2026-09-01T09:32:41.000Z</time>
        <extensions>
          <ns3:TrackPointExtension>
            <ns3:hr>161</ns3:hr>
            <ns3:cad>84</ns3:cad>
          </ns3:TrackPointExtension>
        </extensions>
      </trkpt>
      <trkpt lat="47.48769454658031463623046875" lon="10.05426074378192424774169921875">
        <ele>1591.4000244140625</ele>
        <time>2026-09-01T09:32:42.000Z</time>
        <extensions>
          <ns3:TrackPointExtension>
            <ns3:hr>159</ns3:hr>
            <ns3:cad>84</ns3:cad>
          </ns3:TrackPointExtension>
        </extensions>
      </trkpt>
      <trkpt lat="47.48772631399333477020263671875" lon="10.0541765056550502777099609375">
        <ele>1592.4000244140625</ele>
        <time>2026-09-01T09:32:45.000Z</time>
        <extensions>
          <ns3:TrackPointExtension>
            <ns3:hr>158</ns3:hr>
            <ns3:cad>85</ns3:cad>
          </ns3:TrackPointExtension>
        </extensions>
      </trkpt>
      <trkpt lat="47.48772044666111469268798828125" lon="10.054138116538524627685546875">
        <ele>1592.5999755859375</ele>
        <time>2026-09-01T09:32:46.000Z</time>
        <extensions>
          <ns3:TrackPointExtension>
            <ns3:hr>158</ns3:hr>
            <ns3:cad>85</ns3:cad>
          </ns3:TrackPointExtension>
        </extensions>
      </trkpt>
      <trkpt lat="47.48773771338164806365966796875" lon="10.05405387841165065765380859375">
        <ele>1592.800048828125</ele>
        <time>2026-09-01T09:32:49.000Z</time>
        <extensions>
          <ns3:TrackPointExtension>
            <ns3:hr>158</ns3:hr>
            <ns3:cad>85</ns3:cad>
          </ns3:TrackPointExtension>
        </extensions>
      </trkpt>
      <trkpt lat="47.48774073086678981781005859375" lon="10.05391490645706653594970703125">
        <ele>1593.4000244140625</ele>
        <time>2026-09-01T09:32:53.000Z</time>
        <extensions>
          <ns3:TrackPointExtension>
            <ns3:hr>158</ns3:hr>
            <ns3:cad>84</ns3:cad>
          </ns3:TrackPointExtension>
        </extensions>
      </trkpt>
      <trkpt lat="47.48774525709450244903564453125" lon="10.05384676158428192138671875">
        <ele>1593.5999755859375</ele>
        <time>2026-09-01T09:32:55.000Z</time>
        <extensions>
          <ns3:TrackPointExtension>
            <ns3:hr>158</ns3:hr>
            <ns3:cad>84</ns3:cad>
          </ns3:TrackPointExtension>
        </extensions>
      </trkpt>
      <trkpt lat="47.48775380663573741912841796875" lon="10.05380979739129543304443359375">
        <ele>1594</ele>
        <time>2026-09-01T09:32:57.000Z</time>
        <extensions>
          <ns3:TrackPointExtension>
            <ns3:hr>158</ns3:hr>
            <ns3:cad>84</ns3:cad>
          </ns3:TrackPointExtension>
        </extensions>
      </trkpt>
      <trkpt lat="47.48776470310986042022705078125" lon="10.05373788066208362579345703125">
        <ele>1594.5999755859375</ele>
        <time>2026-09-01T09:33:00.000Z</time>
        <extensions>
          <ns3:TrackPointExtension>
            <ns3:hr>157</ns3:hr>
            <ns3:cad>85</ns3:cad>
          </ns3:TrackPointExtension>
        </extensions>
      </trkpt>
      <trkpt lat="47.4877778626978397369384765625" lon="10.053690187633037567138671875">
        <ele>1594.800048828125</ele>
        <time>2026-09-01T09:33:01.000Z</time>
        <extensions>
          <ns3:TrackPointExtension>
            <ns3:hr>157</ns3:hr>
            <ns3:cad>85</ns3:cad>
          </ns3:TrackPointExtension>
        </extensions>
      </trkpt>
      <trkpt lat="47.487806193530559539794921875" lon="10.0535295903682708740234375">
        <ele>1594.199951171875</ele>
        <time>2026-09-01T09:33:05.000Z</time>
        <extensions>
          <ns3:TrackPointExtension>
            <ns3:hr>158</ns3:hr>
            <ns3:cad>83</ns3:cad>
          </ns3:TrackPointExtension>
        </extensions>
      </trkpt>
      <trkpt lat="47.487805522978305816650390625" lon="10.053490698337554931640625">
        <ele>1594.199951171875</ele>
        <time>2026-09-01T09:33:06.000Z</time>
        <extensions>
          <ns3:TrackPointExtension>
            <ns3:hr>158</ns3:hr>
            <ns3:cad>82</ns3:cad>
          </ns3:TrackPointExtension>
        </extensions>
      </trkpt>
      <trkpt lat="47.48783946968615055084228515625" lon="10.0533108226954936981201171875">
        <ele>1595</ele>
        <time>2026-09-01T09:33:11.000Z</time>
        <extensions>
          <ns3:TrackPointExtension>
            <ns3:hr>157</ns3:hr>
            <ns3:cad>85</ns3:cad>
          </ns3:TrackPointExtension>
        </extensions>
      </trkpt>
      <trkpt lat="47.4878596700727939605712890625" lon="10.05323479883372783660888671875">
        <ele>1595.800048828125</ele>
        <time>2026-09-01T09:33:14.000Z</time>
        <extensions>
          <ns3:TrackPointExtension>
            <ns3:hr>155</ns3:hr>
            <ns3:cad>43</ns3:cad>
          </ns3:TrackPointExtension>
        </extensions>
      </trkpt>
      <trkpt lat="47.4878653697669506072998046875" lon="10.05320697091519832611083984375">
        <ele>1596</ele>
        <time>2026-09-01T09:33:15.000Z</time>
        <extensions>
          <ns3:TrackPointExtension>
            <ns3:hr>155</ns3:hr>
            <ns3:cad>43</ns3:cad>
          </ns3:TrackPointExtension>
        </extensions>
      </trkpt>
      <trkpt lat="47.487876601517200469970703125" lon="10.0531931407749652862548828125">
        <ele>1596.199951171875</ele>
        <time>2026-09-01T09:33:16.000Z</time>
        <extensions>
          <ns3:TrackPointExtension>
            <ns3:hr>156</ns3:hr>
            <ns3:cad>43</ns3:cad>
          </ns3:TrackPointExtension>
        </extensions>
      </trkpt>
      <trkpt lat="47.48790266923606395721435546875" lon="10.053114183247089385986328125">
        <ele>1596.800048828125</ele>
        <time>2026-09-01T09:33:19.000Z</time>
        <extensions>
          <ns3:TrackPointExtension>
            <ns3:hr>156</ns3:hr>
            <ns3:cad>43</ns3:cad>
          </ns3:TrackPointExtension>
        </extensions>
      </trkpt>
      <trkpt lat="47.48790048994123935699462890625" lon="10.05297747440636157989501953125">
        <ele>1597.5999755859375</ele>
        <time>2026-09-01T09:33:23.000Z</time>
        <extensions>
          <ns3:TrackPointExtension>
            <ns3:hr>156</ns3:hr>
            <ns3:cad>86</ns3:cad>
          </ns3:TrackPointExtension>
        </extensions>
      </trkpt>
      <trkpt lat="47.4878945387899875640869140625" lon="10.05293623544275760650634765625">
        <ele>1597.800048828125</ele>
        <time>2026-09-01T09:33:24.000Z</time>
        <extensions>
          <ns3:TrackPointExtension>
            <ns3:hr>158</ns3:hr>
            <ns3:cad>85</ns3:cad>
          </ns3:TrackPointExtension>
        </extensions>
      </trkpt>
      <trkpt lat="47.4878896772861480712890625" lon="10.0527767278254032135009765625">
        <ele>1598.800048828125</ele>
        <time>2026-09-01T09:33:28.000Z</time>
        <extensions>
          <ns3:TrackPointExtension>
            <ns3:hr>159</ns3:hr>
            <ns3:cad>85</ns3:cad>
          </ns3:TrackPointExtension>
        </extensions>
      </trkpt>
      <trkpt lat="47.4878935329616069793701171875" lon="10.052752755582332611083984375">
        <ele>1599</ele>
        <time>2026-09-01T09:33:29.000Z</time>
        <extensions>
          <ns3:TrackPointExtension>
            <ns3:hr>159</ns3:hr>
            <ns3:cad>85</ns3:cad>
          </ns3:TrackPointExtension>
        </extensions>
      </trkpt>
      <trkpt lat="47.48789680190384387969970703125" lon="10.05264219827950000762939453125">
        <ele>1600.199951171875</ele>
        <time>2026-09-01T09:33:33.000Z</time>
        <extensions>
          <ns3:TrackPointExtension>
            <ns3:hr>159</ns3:hr>
            <ns3:cad>84</ns3:cad>
          </ns3:TrackPointExtension>
        </extensions>
      </trkpt>
      <trkpt lat="47.48786763288080692291259765625" lon="10.0525068305432796478271484375">
        <ele>1601.199951171875</ele>
        <time>2026-09-01T09:33:37.000Z</time>
        <extensions>
          <ns3:TrackPointExtension>
            <ns3:hr>159</ns3:hr>
            <ns3:cad>85</ns3:cad>
          </ns3:TrackPointExtension>
        </extensions>
      </trkpt>
      <trkpt lat="47.48787316493690013885498046875" lon="10.05242250859737396240234375">
        <ele>1600</ele>
        <time>2026-09-01T09:33:41.000Z</time>
        <extensions>
          <ns3:TrackPointExtension>
            <ns3:hr>159</ns3:hr>
            <ns3:cad>82</ns3:cad>
          </ns3:TrackPointExtension>
        </extensions>
      </trkpt>
      <trkpt lat="47.48791574500501155853271484375" lon="10.05240348167717456817626953125">
        <ele>1599</ele>
        <time>2026-09-01T09:33:44.000Z</time>
        <extensions>
          <ns3:TrackPointExtension>
            <ns3:hr>158</ns3:hr>
            <ns3:cad>81</ns3:cad>
          </ns3:TrackPointExtension>
        </extensions>
      </trkpt>
      <trkpt lat="47.48794667422771453857421875" lon="10.0524102710187435150146484375">
        <ele>1598.800048828125</ele>
        <time>2026-09-01T09:33:45.000Z</time>
        <extensions>
          <ns3:TrackPointExtension>
            <ns3:hr>158</ns3:hr>
            <ns3:cad>81</ns3:cad>
          </ns3:TrackPointExtension>
        </extensions>
      </trkpt>
      <trkpt lat="47.487983219325542449951171875" lon="10.0524253584444522857666015625">
        <ele>1598.4000244140625</ele>
        <time>2026-09-01T09:33:46.000Z</time>
        <extensions>
          <ns3:TrackPointExtension>
            <ns3:hr>159</ns3:hr>
            <ns3:cad>81</ns3:cad>
          </ns3:TrackPointExtension>
        </extensions>
      </trkpt>
      <trkpt lat="47.4881325848400592803955078125" lon="10.0524598918855190277099609375">
        <ele>1598</ele>
        <time>2026-09-01T09:33:50.000Z</time>
        <extensions>
          <ns3:TrackPointExtension>
            <ns3:hr>158</ns3:hr>
            <ns3:cad>81</ns3:cad>
          </ns3:TrackPointExtension>
        </extensions>
      </trkpt>
      <trkpt lat="47.48815965838730335235595703125" lon="10.05246299318969249725341796875">
        <ele>1597.800048828125</ele>
        <time>2026-09-01T09:33:51.000Z</time>
        <extensions>
          <ns3:TrackPointExtension>
            <ns3:hr>158</ns3:hr>
            <ns3:cad>82</ns3:cad>
          </ns3:TrackPointExtension>
        </extensions>
      </trkpt>
      <trkpt lat="47.48822453431785106658935546875" lon="10.0524327345192432403564453125">
        <ele>1597.199951171875</ele>
        <time>2026-09-01T09:33:53.000Z</time>
        <extensions>
          <ns3:TrackPointExtension>
            <ns3:hr>157</ns3:hr>
            <ns3:cad>82</ns3:cad>
          </ns3:TrackPointExtension>
        </extensions>
      </trkpt>
      <trkpt lat="47.48825068585574626922607421875" lon="10.05239979363977909088134765625">
        <ele>1597</ele>
        <time>2026-09-01T09:33:54.000Z</time>
        <extensions>
          <ns3:TrackPointExtension>
            <ns3:hr>156</ns3:hr>
            <ns3:cad>83</ns3:cad>
          </ns3:TrackPointExtension>
        </extensions>
      </trkpt>
      <trkpt lat="47.4882730655372142791748046875" lon="10.05234916694462299346923828125">
        <ele>1596.800048828125</ele>
        <time>2026-09-01T09:33:55.000Z</time>
        <extensions>
          <ns3:TrackPointExtension>
            <ns3:hr>155</ns3:hr>
            <ns3:cad>83</ns3:cad>
          </ns3:TrackPointExtension>
        </extensions>
      </trkpt>
      <trkpt lat="47.48831824399530887603759765625" lon="10.05227305926382541656494140625">
        <ele>1596.5999755859375</ele>
        <time>2026-09-01T09:33:57.000Z</time>
        <extensions>
          <ns3:TrackPointExtension>
            <ns3:hr>155</ns3:hr>
            <ns3:cad>83</ns3:cad>
          </ns3:TrackPointExtension>
        </extensions>
      </trkpt>
      <trkpt lat="47.4883662723004817962646484375" lon="10.052192509174346923828125">
        <ele>1597.199951171875</ele>
        <time>2026-09-01T09:34:00.000Z</time>
        <extensions>
          <ns3:TrackPointExtension>
            <ns3:hr>154</ns3:hr>
            <ns3:cad>85</ns3:cad>
          </ns3:TrackPointExtension>
        </extensions>
      </trkpt>
      <trkpt lat="47.48839192092418670654296875" lon="10.05215889774262905120849609375">
        <ele>1598.199951171875</ele>
        <time>2026-09-01T09:34:02.000Z</time>
        <extensions>
          <ns3:TrackPointExtension>
            <ns3:hr>154</ns3:hr>
            <ns3:cad>85</ns3:cad>
          </ns3:TrackPointExtension>
        </extensions>
      </trkpt>
      <trkpt lat="47.48842385597527027130126953125" lon="10.05214624106884002685546875">
        <ele>1599</ele>
        <time>2026-09-01T09:34:04.000Z</time>
        <extensions>
          <ns3:TrackPointExtension>
            <ns3:hr>154</ns3:hr>
            <ns3:cad>86</ns3:cad>
          </ns3:TrackPointExtension>
        </extensions>
      </trkpt>
      <trkpt lat="47.48843475244939327239990234375" lon="10.05214330740272998809814453125">
        <ele>1599.4000244140625</ele>
        <time>2026-09-01T09:34:05.000Z</time>
        <extensions>
          <ns3:TrackPointExtension>
            <ns3:hr>153</ns3:hr>
            <ns3:cad>86</ns3:cad>
          </ns3:TrackPointExtension>
        </extensions>
      </trkpt>
      <trkpt lat="47.48847431503236293792724609375" lon="10.05211983807384967803955078125">
        <ele>1600.5999755859375</ele>
        <time>2026-09-01T09:34:08.000Z</time>
        <extensions>
          <ns3:TrackPointExtension>
            <ns3:hr>153</ns3:hr>
            <ns3:cad>86</ns3:cad>
          </ns3:TrackPointExtension>
        </extensions>
      </trkpt>
      <trkpt lat="47.4884770810604095458984375" lon="10.0520984642207622528076171875">
        <ele>1601</ele>
        <time>2026-09-01T09:34:09.000Z</time>
        <extensions>
          <ns3:TrackPointExtension>
            <ns3:hr>152</ns3:hr>
            <ns3:cad>0</ns3:cad>
          </ns3:TrackPointExtension>
        </extensions>
      </trkpt>
      <trkpt lat="47.48847481794655323028564453125" lon="10.05206284113228321075439453125">
        <ele>1601.5999755859375</ele>
        <time>2026-09-01T09:34:11.000Z</time>
        <extensions>
          <ns3:TrackPointExtension>
            <ns3:hr>153</ns3:hr>
            <ns3:cad>0</ns3:cad>
          </ns3:TrackPointExtension>
        </extensions>
      </trkpt>
      <trkpt lat="47.4884765781462192535400390625" lon="10.05201506428420543670654296875">
        <ele>1602.5999755859375</ele>
        <time>2026-09-01T09:34:14.000Z</time>
        <extensions>
          <ns3:TrackPointExtension>
            <ns3:hr>154</ns3:hr>
            <ns3:cad>80</ns3:cad>
          </ns3:TrackPointExtension>
        </extensions>
      </trkpt>
      <trkpt lat="47.488479427993297576904296875" lon="10.051999054849147796630859375">
        <ele>1602.800048828125</ele>
        <time>2026-09-01T09:34:15.000Z</time>
        <extensions>
          <ns3:TrackPointExtension>
            <ns3:hr>154</ns3:hr>
            <ns3:cad>80</ns3:cad>
          </ns3:TrackPointExtension>
        </extensions>
      </trkpt>
      <trkpt lat="47.48849007301032543182373046875" lon="10.0519170798361301422119140625">
        <ele>1604</ele>
        <time>2026-09-01T09:34:19.000Z</time>
        <extensions>
          <ns3:TrackPointExtension>
            <ns3:hr>156</ns3:hr>
            <ns3:cad>80</ns3:cad>
          </ns3:TrackPointExtension>
        </extensions>
      </trkpt>
      <trkpt lat="47.4884940125048160552978515625" lon="10.0519117154181003570556640625">
        <ele>1604.199951171875</ele>
        <time>2026-09-01T09:34:20.000Z</time>
        <extensions>
          <ns3:TrackPointExtension>
            <ns3:hr>156</ns3:hr>
            <ns3:cad>60</ns3:cad>
          </ns3:TrackPointExtension>
        </extensions>
      </trkpt>
      <trkpt lat="47.48850281350314617156982421875" lon="10.0519056804478168487548828125">
        <ele>1604.4000244140625</ele>
        <time>2026-09-01T09:34:21.000Z</time>
        <extensions>
          <ns3:TrackPointExtension>
            <ns3:hr>157</ns3:hr>
            <ns3:cad>60</ns3:cad>
          </ns3:TrackPointExtension>
        </extensions>
      </trkpt>
      <trkpt lat="47.488511614501476287841796875" lon="10.0518858991563320159912109375">
        <ele>1605.199951171875</ele>
        <time>2026-09-01T09:34:23.000Z</time>
        <extensions>
          <ns3:TrackPointExtension>
            <ns3:hr>156</ns3:hr>
            <ns3:cad>61</ns3:cad>
          </ns3:TrackPointExtension>
        </extensions>
      </trkpt>
      <trkpt lat="47.4885228462517261505126953125" lon="10.0518812052905559539794921875">
        <ele>1605.800048828125</ele>
        <time>2026-09-01T09:34:25.000Z</time>
        <extensions>
          <ns3:TrackPointExtension>
            <ns3:hr>155</ns3:hr>
            <ns3:cad>61</ns3:cad>
          </ns3:TrackPointExtension>
        </extensions>
      </trkpt>
      <trkpt lat="47.4885265342891216278076171875" lon="10.051879025995731353759765625">
        <ele>1606.199951171875</ele>
        <time>2026-09-01T09:34:26.000Z</time>
        <extensions>
          <ns3:TrackPointExtension>
            <ns3:hr>156</ns3:hr>
            <ns3:cad>61</ns3:cad>
          </ns3:TrackPointExtension>
        </extensions>
      </trkpt>
      <trkpt lat="47.488539107143878936767578125" lon="10.05185119807720184326171875">
        <ele>1607.199951171875</ele>
        <time>2026-09-01T09:34:29.000Z</time>
        <extensions>
          <ns3:TrackPointExtension>
            <ns3:hr>158</ns3:hr>
            <ns3:cad>61</ns3:cad>
          </ns3:TrackPointExtension>
        </extensions>
      </trkpt>
      <trkpt lat="47.48854874633252620697021484375" lon="10.05182060413062572479248046875">
        <ele>1607.800048828125</ele>
        <time>2026-09-01T09:34:31.000Z</time>
        <extensions>
          <ns3:TrackPointExtension>
            <ns3:hr>159</ns3:hr>
            <ns3:cad>48</ns3:cad>
          </ns3:TrackPointExtension>
        </extensions>
      </trkpt>
      <trkpt lat="47.48855863697826862335205078125" lon="10.05177584476768970489501953125">
        <ele>1608.4000244140625</ele>
        <time>2026-09-01T09:34:33.000Z</time>
        <extensions>
          <ns3:TrackPointExtension>
            <ns3:hr>160</ns3:hr>
            <ns3:cad>48</ns3:cad>
          </ns3:TrackPointExtension>
        </extensions>
      </trkpt>
      <trkpt lat="47.48857037164270877838134765625" lon="10.05174466408789157867431640625">
        <ele>1609.4000244140625</ele>
        <time>2026-09-01T09:34:37.000Z</time>
        <extensions>
          <ns3:TrackPointExtension>
            <ns3:hr>162</ns3:hr>
            <ns3:cad>49</ns3:cad>
          </ns3:TrackPointExtension>
        </extensions>
      </trkpt>
      <trkpt lat="47.4885728023946285247802734375" lon="10.05165145732462406158447265625">
        <ele>1610.5999755859375</ele>
        <time>2026-09-01T09:34:41.000Z</time>
        <extensions>
          <ns3:TrackPointExtension>
            <ns3:hr>162</ns3:hr>
            <ns3:cad>49</ns3:cad>
          </ns3:TrackPointExtension>
        </extensions>
      </trkpt>
      <trkpt lat="47.4885768257081508636474609375" lon="10.05152924917638301849365234375">
        <ele>1611.800048828125</ele>
        <time>2026-09-01T09:34:45.000Z</time>
        <extensions>
          <ns3:TrackPointExtension>
            <ns3:hr>162</ns3:hr>
            <ns3:cad>83</ns3:cad>
          </ns3:TrackPointExtension>
        </extensions>
      </trkpt>
      <trkpt lat="47.4885972775518894195556640625" lon="10.05150628276169300079345703125">
        <ele>1612</ele>
        <time>2026-09-01T09:34:46.000Z</time>
        <extensions>
          <ns3:TrackPointExtension>
            <ns3:hr>162</ns3:hr>
            <ns3:cad>83</ns3:cad>
          </ns3:TrackPointExtension>
        </extensions>
      </trkpt>
      <trkpt lat="47.48863340355455875396728515625" lon="10.05148717202246189117431640625">
        <ele>1612.5999755859375</ele>
        <time>2026-09-01T09:34:49.000Z</time>
        <extensions>
          <ns3:TrackPointExtension>
            <ns3:hr>162</ns3:hr>
            <ns3:cad>84</ns3:cad>
          </ns3:TrackPointExtension>
        </extensions>
      </trkpt>
      <trkpt lat="47.48870766721665859222412109375" lon="10.051398575305938720703125">
        <ele>1612.4000244140625</ele>
        <time>2026-09-01T09:34:53.000Z</time>
        <extensions>
          <ns3:TrackPointExtension>
            <ns3:hr>162</ns3:hr>
            <ns3:cad>85</ns3:cad>
          </ns3:TrackPointExtension>
        </extensions>
      </trkpt>
      <trkpt lat="47.48872744850814342498779296875" lon="10.05129463970661163330078125">
        <ele>1612.199951171875</ele>
        <time>2026-09-01T09:34:56.000Z</time>
        <extensions>
          <ns3:TrackPointExtension>
            <ns3:hr>162</ns3:hr>
            <ns3:cad>83</ns3:cad>
          </ns3:TrackPointExtension>
        </extensions>
      </trkpt>
      <trkpt lat="47.48873147182166576385498046875" lon="10.05126941017806529998779296875">
        <ele>1612.5999755859375</ele>
        <time>2026-09-01T09:34:57.000Z</time>
        <extensions>
          <ns3:TrackPointExtension>
            <ns3:hr>161</ns3:hr>
            <ns3:cad>83</ns3:cad>
          </ns3:TrackPointExtension>
        </extensions>
      </trkpt>
      <trkpt lat="47.48874186538159847259521484375" lon="10.05122951231896877288818359375">
        <ele>1612.800048828125</ele>
        <time>2026-09-01T09:34:59.000Z</time>
        <extensions>
          <ns3:TrackPointExtension>
            <ns3:hr>160</ns3:hr>
            <ns3:cad>83</ns3:cad>
          </ns3:TrackPointExtension>
        </extensions>
      </trkpt>
      <trkpt lat="47.48877790756523609161376953125" lon="10.05117989145219326019287109375">
        <ele>1613.199951171875</ele>
        <time>2026-09-01T09:35:01.000Z</time>
        <extensions>
          <ns3:TrackPointExtension>
            <ns3:hr>160</ns3:hr>
            <ns3:cad>86</ns3:cad>
          </ns3:TrackPointExtension>
        </extensions>
      </trkpt>
      <trkpt lat="47.48886189423501491546630859375" lon="10.05118592642247676849365234375">
        <ele>1613.199951171875</ele>
        <time>2026-09-01T09:35:04.000Z</time>
        <extensions>
          <ns3:TrackPointExtension>
            <ns3:hr>159</ns3:hr>
            <ns3:cad>86</ns3:cad>
          </ns3:TrackPointExtension>
        </extensions>
      </trkpt>
      <trkpt lat="47.4889637343585491180419921875" lon="10.05114971660077571868896484375">
        <ele>1612.5999755859375</ele>
        <time>2026-09-01T09:35:08.000Z</time>
        <extensions>
          <ns3:TrackPointExtension>
            <ns3:hr>159</ns3:hr>
            <ns3:cad>86</ns3:cad>
          </ns3:TrackPointExtension>
        </extensions>
      </trkpt>
      <trkpt lat="47.48899617232382297515869140625" lon="10.05109154619276523590087890625">
        <ele>1614</ele>
        <time>2026-09-01T09:35:12.000Z</time>
        <extensions>
          <ns3:TrackPointExtension>
            <ns3:hr>158</ns3:hr>
            <ns3:cad>84</ns3:cad>
          </ns3:TrackPointExtension>
        </extensions>
      </trkpt>
      <trkpt lat="47.48900078237056732177734375" lon="10.051073692739009857177734375">
        <ele>1614.199951171875</ele>
        <time>2026-09-01T09:35:13.000Z</time>
        <extensions>
          <ns3:TrackPointExtension>
            <ns3:hr>158</ns3:hr>
            <ns3:cad>84</ns3:cad>
          </ns3:TrackPointExtension>
        </extensions>
      </trkpt>
      <trkpt lat="47.48900740407407283782958984375" lon="10.0510158576071262359619140625">
        <ele>1615</ele>
        <time>2026-09-01T09:35:15.000Z</time>
        <extensions>
          <ns3:TrackPointExtension>
            <ns3:hr>158</ns3:hr>
            <ns3:cad>82</ns3:cad>
          </ns3:TrackPointExtension>
        </extensions>
      </trkpt>
      <trkpt lat="47.48901226557791233062744140625" lon="10.05099196918308734893798828125">
        <ele>1615.199951171875</ele>
        <time>2026-09-01T09:35:16.000Z</time>
        <extensions>
          <ns3:TrackPointExtension>
            <ns3:hr>158</ns3:hr>
            <ns3:cad>82</ns3:cad>
          </ns3:TrackPointExtension>
        </extensions>
      </trkpt>
      <trkpt lat="47.4890157021582126617431640625" lon="10.05094938911497592926025390625">
        <ele>1615.4000244140625</ele>
        <time>2026-09-01T09:35:17.000Z</time>
        <extensions>
          <ns3:TrackPointExtension>
            <ns3:hr>158</ns3:hr>
            <ns3:cad>81</ns3:cad>
          </ns3:TrackPointExtension>
        </extensions>
      </trkpt>
      <trkpt lat="47.489056773483753204345703125" lon="10.05080169998109340667724609375">
        <ele>1616.199951171875</ele>
        <time>2026-09-01T09:35:21.000Z</time>
        <extensions>
          <ns3:TrackPointExtension>
            <ns3:hr>159</ns3:hr>
            <ns3:cad>83</ns3:cad>
          </ns3:TrackPointExtension>
        </extensions>
      </trkpt>
      <trkpt lat="47.48906976543366909027099609375" lon="10.050765909254550933837890625">
        <ele>1616.199951171875</ele>
        <time>2026-09-01T09:35:22.000Z</time>
        <extensions>
          <ns3:TrackPointExtension>
            <ns3:hr>159</ns3:hr>
            <ns3:cad>83</ns3:cad>
          </ns3:TrackPointExtension>
        </extensions>
      </trkpt>
      <trkpt lat="47.489150650799274444580078125" lon="10.05060858093202114105224609375">
        <ele>1616.4000244140625</ele>
        <time>2026-09-01T09:35:27.000Z</time>
        <extensions>
          <ns3:TrackPointExtension>
            <ns3:hr>160</ns3:hr>
            <ns3:cad>83</ns3:cad>
          </ns3:TrackPointExtension>
        </extensions>
      </trkpt>
      <trkpt lat="47.48923145234584808349609375" lon="10.0504190661013126373291015625">
        <ele>1616.199951171875</ele>
        <time>2026-09-01T09:35:32.000Z</time>
        <extensions>
          <ns3:TrackPointExtension>
            <ns3:hr>158</ns3:hr>
            <ns3:cad>82</ns3:cad>
          </ns3:TrackPointExtension>
        </extensions>
      </trkpt>
      <trkpt lat="47.48926757834851741790771484375" lon="10.0502732209861278533935546875">
        <ele>1616.4000244140625</ele>
        <time>2026-09-01T09:35:36.000Z</time>
        <extensions>
          <ns3:TrackPointExtension>
            <ns3:hr>157</ns3:hr>
            <ns3:cad>82</ns3:cad>
          </ns3:TrackPointExtension>
        </extensions>
      </trkpt>
      <trkpt lat="47.48932071961462497711181640625" lon="10.05010080523788928985595703125">
        <ele>1616.199951171875</ele>
        <time>2026-09-01T09:35:40.000Z</time>
        <extensions>
          <ns3:TrackPointExtension>
            <ns3:hr>157</ns3:hr>
            <ns3:cad>84</ns3:cad>
          </ns3:TrackPointExtension>
        </extensions>
      </trkpt>
      <trkpt lat="47.48934804461896419525146484375" lon="10.04993475973606109619140625">
        <ele>1616.800048828125</ele>
        <time>2026-09-01T09:35:45.000Z</time>
        <extensions>
          <ns3:TrackPointExtension>
            <ns3:hr>157</ns3:hr>
            <ns3:cad>84</ns3:cad>
          </ns3:TrackPointExtension>
        </extensions>
      </trkpt>
      <trkpt lat="47.48935257084667682647705078125" lon="10.04989125765860080718994140625">
        <ele>1617.4000244140625</ele>
        <time>2026-09-01T09:35:47.000Z</time>
        <extensions>
          <ns3:TrackPointExtension>
            <ns3:hr>156</ns3:hr>
            <ns3:cad>84</ns3:cad>
          </ns3:TrackPointExtension>
        </extensions>
      </trkpt>
      <trkpt lat="47.48934821225702762603759765625" lon="10.04985001869499683380126953125">
        <ele>1618.199951171875</ele>
        <time>2026-09-01T09:35:49.000Z</time>
        <extensions>
          <ns3:TrackPointExtension>
            <ns3:hr>156</ns3:hr>
            <ns3:cad>84</ns3:cad>
          </ns3:TrackPointExtension>
        </extensions>
      </trkpt>
      <trkpt lat="47.4893461167812347412109375" lon="10.04979453049600124359130859375">
        <ele>1618.800048828125</ele>
        <time>2026-09-01T09:35:51.000Z</time>
        <extensions>
          <ns3:TrackPointExtension>
            <ns3:hr>156</ns3:hr>
            <ns3:cad>85</ns3:cad>
          </ns3:TrackPointExtension>
        </extensions>
      </trkpt>
      <trkpt lat="47.489361204206943511962890625" lon="10.049719512462615966796875">
        <ele>1619.4000244140625</ele>
        <time>2026-09-01T09:35:54.000Z</time>
        <extensions>
          <ns3:TrackPointExtension>
            <ns3:hr>157</ns3:hr>
            <ns3:cad>85</ns3:cad>
          </ns3:TrackPointExtension>
        </extensions>
      </trkpt>
      <trkpt lat="47.48936430551111698150634765625" lon="10.0497032515704631805419921875">
        <ele>1620</ele>
        <time>2026-09-01T09:35:56.000Z</time>
        <extensions>
          <ns3:TrackPointExtension>
            <ns3:hr>157</ns3:hr>
            <ns3:cad>85</ns3:cad>
          </ns3:TrackPointExtension>
        </extensions>
      </trkpt>
      <trkpt lat="47.489373274147510528564453125" lon="10.04965421743690967559814453125">
        <ele>1620.800048828125</ele>
        <time>2026-09-01T09:35:58.000Z</time>
        <extensions>
          <ns3:TrackPointExtension>
            <ns3:hr>157</ns3:hr>
            <ns3:cad>85</ns3:cad>
          </ns3:TrackPointExtension>
        </extensions>
      </trkpt>
      <trkpt lat="47.4893811531364917755126953125" lon="10.04963393323123455047607421875">
        <ele>1621.199951171875</ele>
        <time>2026-09-01T09:35:59.000Z</time>
        <extensions>
          <ns3:TrackPointExtension>
            <ns3:hr>156</ns3:hr>
            <ns3:cad>86</ns3:cad>
          </ns3:TrackPointExtension>
        </extensions>
      </trkpt>
      <trkpt lat="47.4893955700099468231201171875" lon="10.04951340146362781524658203125">
        <ele>1622.199951171875</ele>
        <time>2026-09-01T09:36:03.000Z</time>
        <extensions>
          <ns3:TrackPointExtension>
            <ns3:hr>157</ns3:hr>
            <ns3:cad>83</ns3:cad>
          </ns3:TrackPointExtension>
        </extensions>
      </trkpt>
      <trkpt lat="47.4894051253795623779296875" lon="10.0494236312806606292724609375">
        <ele>1622</ele>
        <time>2026-09-01T09:36:07.000Z</time>
        <extensions>
          <ns3:TrackPointExtension>
            <ns3:hr>159</ns3:hr>
            <ns3:cad>83</ns3:cad>
          </ns3:TrackPointExtension>
        </extensions>
      </trkpt>
      <trkpt lat="47.4893710948526859283447265625" lon="10.0493304245173931121826171875">
        <ele>1621</ele>
        <time>2026-09-01T09:36:11.000Z</time>
        <extensions>
          <ns3:TrackPointExtension>
            <ns3:hr>159</ns3:hr>
            <ns3:cad>83</ns3:cad>
          </ns3:TrackPointExtension>
        </extensions>
      </trkpt>
      <trkpt lat="47.48934812843799591064453125" lon="10.04927803762257099151611328125">
        <ele>1620</ele>
        <time>2026-09-01T09:36:13.000Z</time>
        <extensions>
          <ns3:TrackPointExtension>
            <ns3:hr>159</ns3:hr>
            <ns3:cad>0</ns3:cad>
          </ns3:TrackPointExtension>
        </extensions>
      </trkpt>
      <trkpt lat="47.4893151037395000457763671875" lon="10.04923596046864986419677734375">
        <ele>1618.5999755859375</ele>
        <time>2026-09-01T09:36:15.000Z</time>
        <extensions>
          <ns3:TrackPointExtension>
            <ns3:hr>159</ns3:hr>
            <ns3:cad>0</ns3:cad>
          </ns3:TrackPointExtension>
        </extensions>
      </trkpt>
      <trkpt lat="47.4893010221421718597412109375" lon="10.0492375530302524566650390625">
        <ele>1618</ele>
        <time>2026-09-01T09:36:16.000Z</time>
        <extensions>
          <ns3:TrackPointExtension>
            <ns3:hr>159</ns3:hr>
            <ns3:cad>0</ns3:cad>
          </ns3:TrackPointExtension>
        </extensions>
      </trkpt>
      <trkpt lat="47.489282079041004180908203125" lon="10.04927158355712890625">
        <ele>1617.199951171875</ele>
        <time>2026-09-01T09:36:17.000Z</time>
        <extensions>
          <ns3:TrackPointExtension>
            <ns3:hr>158</ns3:hr>
            <ns3:cad>0</ns3:cad>
          </ns3:TrackPointExtension>
        </extensions>
      </trkpt>
      <trkpt lat="47.48925651423633098602294921875" lon="10.0493131577968597412109375">
        <ele>1616</ele>
        <time>2026-09-01T09:36:19.000Z</time>
        <extensions>
          <ns3:TrackPointExtension>
            <ns3:hr>157</ns3:hr>
            <ns3:cad>0</ns3:cad>
          </ns3:TrackPointExtension>
        </extensions>
      </trkpt>
      <trkpt lat="47.489237822592258453369140625" lon="10.0493119843304157257080078125">
        <ele>1614.800048828125</ele>
        <time>2026-09-01T09:36:21.000Z</time>
        <extensions>
          <ns3:TrackPointExtension>
            <ns3:hr>156</ns3:hr>
            <ns3:cad>0</ns3:cad>
          </ns3:TrackPointExtension>
        </extensions>
      </trkpt>
      <trkpt lat="47.48920555226504802703857421875" lon="10.04926781170070171356201171875">
        <ele>1613.4000244140625</ele>
        <time>2026-09-01T09:36:23.000Z</time>
        <extensions>
          <ns3:TrackPointExtension>
            <ns3:hr>156</ns3:hr>
            <ns3:cad>0</ns3:cad>
          </ns3:TrackPointExtension>
        </extensions>
      </trkpt>
      <trkpt lat="47.48918090946972370147705078125" lon="10.049194134771823883056640625">
        <ele>1612.4000244140625</ele>
        <time>2026-09-01T09:36:25.000Z</time>
        <extensions>
          <ns3:TrackPointExtension>
            <ns3:hr>156</ns3:hr>
            <ns3:cad>0</ns3:cad>
          </ns3:TrackPointExtension>
        </extensions>
      </trkpt>
      <trkpt lat="47.489171437919139862060546875" lon="10.04915960133075714111328125">
        <ele>1611.800048828125</ele>
        <time>2026-09-01T09:36:26.000Z</time>
        <extensions>
          <ns3:TrackPointExtension>
            <ns3:hr>155</ns3:hr>
            <ns3:cad>0</ns3:cad>
          </ns3:TrackPointExtension>
        </extensions>
      </trkpt>
      <trkpt lat="47.48916163109242916107177734375" lon="10.04913504235446453094482421875">
        <ele>1611.199951171875</ele>
        <time>2026-09-01T09:36:27.000Z</time>
        <extensions>
          <ns3:TrackPointExtension>
            <ns3:hr>155</ns3:hr>
            <ns3:cad>0</ns3:cad>
          </ns3:TrackPointExtension>
        </extensions>
      </trkpt>
      <trkpt lat="47.489140592515468597412109375" lon="10.04908944480121135711669921875">
        <ele>1609.800048828125</ele>
        <time>2026-09-01T09:36:29.000Z</time>
        <extensions>
          <ns3:TrackPointExtension>
            <ns3:hr>155</ns3:hr>
            <ns3:cad>0</ns3:cad>
          </ns3:TrackPointExtension>
        </extensions>
      </trkpt>
      <trkpt lat="47.48913413845002651214599609375" lon="10.0490719266235828399658203125">
        <ele>1609</ele>
        <time>2026-09-01T09:36:30.000Z</time>
        <extensions>
          <ns3:TrackPointExtension>
            <ns3:hr>154</ns3:hr>
            <ns3:cad>0</ns3:cad>
          </ns3:TrackPointExtension>
        </extensions>
      </trkpt>
      <trkpt lat="47.4891186319291591644287109375" lon="10.049048960208892822265625">
        <ele>1608.4000244140625</ele>
        <time>2026-09-01T09:36:31.000Z</time>
        <extensions>
          <ns3:TrackPointExtension>
            <ns3:hr>154</ns3:hr>
            <ns3:cad>0</ns3:cad>
          </ns3:TrackPointExtension>
        </extensions>
      </trkpt>
      <trkpt lat="47.48908460140228271484375" lon="10.04899858497083187103271484375">
        <ele>1606.800048828125</ele>
        <time>2026-09-01T09:36:33.000Z</time>
        <extensions>
          <ns3:TrackPointExtension>
            <ns3:hr>153</ns3:hr>
            <ns3:cad>0</ns3:cad>
          </ns3:TrackPointExtension>
        </extensions>
      </trkpt>
      <trkpt lat="47.48905467800796031951904296875" lon="10.0489269196987152099609375">
        <ele>1605</ele>
        <time>2026-09-01T09:36:35.000Z</time>
        <extensions>
          <ns3:TrackPointExtension>
            <ns3:hr>152</ns3:hr>
            <ns3:cad>0</ns3:cad>
          </ns3:TrackPointExtension>
        </extensions>
      </trkpt>
      <trkpt lat="47.48902835883200168609619140625" lon="10.04884846508502960205078125">
        <ele>1603</ele>
        <time>2026-09-01T09:36:37.000Z</time>
        <extensions>
          <ns3:TrackPointExtension>
            <ns3:hr>153</ns3:hr>
            <ns3:cad>0</ns3:cad>
          </ns3:TrackPointExtension>
        </extensions>
      </trkpt>
      <trkpt lat="47.48900740407407283782958984375" lon="10.048761628568172454833984375">
        <ele>1601.4000244140625</ele>
        <time>2026-09-01T09:36:39.000Z</time>
        <extensions>
          <ns3:TrackPointExtension>
            <ns3:hr>153</ns3:hr>
            <ns3:cad>0</ns3:cad>
          </ns3:TrackPointExtension>
        </extensions>
      </trkpt>
      <trkpt lat="47.48900271020829677581787109375" lon="10.048732459545135498046875">
        <ele>1600.800048828125</ele>
        <time>2026-09-01T09:36:40.000Z</time>
        <extensions>
          <ns3:TrackPointExtension>
            <ns3:hr>153</ns3:hr>
            <ns3:cad>0</ns3:cad>
          </ns3:TrackPointExtension>
        </extensions>
      </trkpt>
      <trkpt lat="47.4890136905014514923095703125" lon="10.04871376790106296539306640625">
        <ele>1600.4000244140625</ele>
        <time>2026-09-01T09:36:41.000Z</time>
        <extensions>
          <ns3:TrackPointExtension>
            <ns3:hr>153</ns3:hr>
            <ns3:cad>0</ns3:cad>
          </ns3:TrackPointExtension>
        </extensions>
      </trkpt>
      <trkpt lat="47.48902349732816219329833984375" lon="10.04870320670306682586669921875">
        <ele>1600</ele>
        <time>2026-09-01T09:36:42.000Z</time>
        <extensions>
          <ns3:TrackPointExtension>
            <ns3:hr>152</ns3:hr>
            <ns3:cad>0</ns3:cad>
          </ns3:TrackPointExtension>
        </extensions>
      </trkpt>
      <trkpt lat="47.48904294334352016448974609375" lon="10.0486877001821994781494140625">
        <ele>1599.800048828125</ele>
        <time>2026-09-01T09:36:43.000Z</time>
        <extensions>
          <ns3:TrackPointExtension>
            <ns3:hr>152</ns3:hr>
            <ns3:cad>91</ns3:cad>
          </ns3:TrackPointExtension>
        </extensions>
      </trkpt>
      <trkpt lat="47.48906113207340240478515625" lon="10.04867009818553924560546875">
        <ele>1599</ele>
        <time>2026-09-01T09:36:44.000Z</time>
        <extensions>
          <ns3:TrackPointExtension>
            <ns3:hr>152</ns3:hr>
            <ns3:cad>91</ns3:cad>
          </ns3:TrackPointExtension>
        </extensions>
      </trkpt>
      <trkpt lat="47.48907479457557201385498046875" lon="10.04865668714046478271484375">
        <ele>1598</ele>
        <time>2026-09-01T09:36:45.000Z</time>
        <extensions>
          <ns3:TrackPointExtension>
            <ns3:hr>152</ns3:hr>
            <ns3:cad>91</ns3:cad>
          </ns3:TrackPointExtension>
        </extensions>
      </trkpt>
      <trkpt lat="47.48908988200128078460693359375" lon="10.04862718284130096435546875">
        <ele>1597</ele>
        <time>2026-09-01T09:36:46.000Z</time>
        <extensions>
          <ns3:TrackPointExtension>
            <ns3:hr>153</ns3:hr>
            <ns3:cad>91</ns3:cad>
          </ns3:TrackPointExtension>
        </extensions>
      </trkpt>
      <trkpt lat="47.48908820562064647674560546875" lon="10.04859231412410736083984375">
        <ele>1595.4000244140625</ele>
        <time>2026-09-01T09:36:48.000Z</time>
        <extensions>
          <ns3:TrackPointExtension>
            <ns3:hr>153</ns3:hr>
            <ns3:cad>91</ns3:cad>
          </ns3:TrackPointExtension>
        </extensions>
      </trkpt>
      <trkpt lat="47.48905769549310207366943359375" lon="10.048547722399234771728515625">
        <ele>1594</ele>
        <time>2026-09-01T09:36:51.000Z</time>
        <extensions>
          <ns3:TrackPointExtension>
            <ns3:hr>154</ns3:hr>
            <ns3:cad>91</ns3:cad>
          </ns3:TrackPointExtension>
        </extensions>
      </trkpt>
      <trkpt lat="47.4890564382076263427734375" lon="10.0485036335885524749755859375">
        <ele>1593.199951171875</ele>
        <time>2026-09-01T09:36:52.000Z</time>
        <extensions>
          <ns3:TrackPointExtension>
            <ns3:hr>154</ns3:hr>
            <ns3:cad>91</ns3:cad>
          </ns3:TrackPointExtension>
        </extensions>
      </trkpt>
      <trkpt lat="47.489056773483753204345703125" lon="10.04847572185099124908447265625">
        <ele>1592.199951171875</ele>
        <time>2026-09-01T09:36:53.000Z</time>
        <extensions>
          <ns3:TrackPointExtension>
            <ns3:hr>155</ns3:hr>
            <ns3:cad>91</ns3:cad>
          </ns3:TrackPointExtension>
        </extensions>
      </trkpt>
      <trkpt lat="47.48905819840729236602783203125" lon="10.0484280288219451904296875">
        <ele>1590.5999755859375</ele>
        <time>2026-09-01T09:36:55.000Z</time>
        <extensions>
          <ns3:TrackPointExtension>
            <ns3:hr>154</ns3:hr>
            <ns3:cad>91</ns3:cad>
          </ns3:TrackPointExtension>
        </extensions>
      </trkpt>
      <trkpt lat="47.489062808454036712646484375" lon="10.04842358641326427459716796875">
        <ele>1590.199951171875</ele>
        <time>2026-09-01T09:36:56.000Z</time>
        <extensions>
          <ns3:TrackPointExtension>
            <ns3:hr>153</ns3:hr>
            <ns3:cad>91</ns3:cad>
          </ns3:TrackPointExtension>
        </extensions>
      </trkpt>
      <trkpt lat="47.489060461521148681640625" lon="10.04838117398321628570556640625">
        <ele>1589.4000244140625</ele>
        <time>2026-09-01T09:36:58.000Z</time>
        <extensions>
          <ns3:TrackPointExtension>
            <ns3:hr>152</ns3:hr>
            <ns3:cad>0</ns3:cad>
          </ns3:TrackPointExtension>
        </extensions>
      </trkpt>
      <trkpt lat="47.48904730193316936492919921875" lon="10.04837530665099620819091796875">
        <ele>1588.800048828125</ele>
        <time>2026-09-01T09:36:59.000Z</time>
        <extensions>
          <ns3:TrackPointExtension>
            <ns3:hr>153</ns3:hr>
            <ns3:cad>0</ns3:cad>
          </ns3:TrackPointExtension>
        </extensions>
      </trkpt>
      <trkpt lat="47.48903590254485607147216796875" lon="10.04838117398321628570556640625">
        <ele>1588.4000244140625</ele>
        <time>2026-09-01T09:37:00.000Z</time>
        <extensions>
          <ns3:TrackPointExtension>
            <ns3:hr>153</ns3:hr>
            <ns3:cad>0</ns3:cad>
          </ns3:TrackPointExtension>
        </extensions>
      </trkpt>
      <trkpt lat="47.48902626335620880126953125" lon="10.04838821478188037872314453125">
        <ele>1588</ele>
        <time>2026-09-01T09:37:01.000Z</time>
        <extensions>
          <ns3:TrackPointExtension>
            <ns3:hr>152</ns3:hr>
            <ns3:cad>0</ns3:cad>
          </ns3:TrackPointExtension>
        </extensions>
      </trkpt>
      <trkpt lat="47.4890083260834217071533203125" lon="10.04838905297219753265380859375">
        <ele>1586.800048828125</ele>
        <time>2026-09-01T09:37:03.000Z</time>
        <extensions>
          <ns3:TrackPointExtension>
            <ns3:hr>150</ns3:hr>
            <ns3:cad>0</ns3:cad>
          </ns3:TrackPointExtension>
        </extensions>
      </trkpt>
      <trkpt lat="47.489005811512470245361328125" lon="10.04837631247937679290771484375">
        <ele>1586.4000244140625</ele>
        <time>2026-09-01T09:37:04.000Z</time>
        <extensions>
          <ns3:TrackPointExtension>
            <ns3:hr>150</ns3:hr>
            <ns3:cad>0</ns3:cad>
          </ns3:TrackPointExtension>
        </extensions>
      </trkpt>
      <trkpt lat="47.48899885453283786773681640625" lon="10.04832602106034755706787109375">
        <ele>1585.199951171875</ele>
        <time>2026-09-01T09:37:06.000Z</time>
        <extensions>
          <ns3:TrackPointExtension>
            <ns3:hr>150</ns3:hr>
            <ns3:cad>79</ns3:cad>
          </ns3:TrackPointExtension>
        </extensions>
      </trkpt>
      <trkpt lat="47.48898343183100223541259765625" lon="10.0482840277254581451416015625">
        <ele>1583.800048828125</ele>
        <time>2026-09-01T09:37:08.000Z</time>
        <extensions>
          <ns3:TrackPointExtension>
            <ns3:hr>150</ns3:hr>
            <ns3:cad>79</ns3:cad>
          </ns3:TrackPointExtension>
        </extensions>
      </trkpt>
      <trkpt lat="47.4889778159558773040771484375" lon="10.04826718010008335113525390625">
        <ele>1583.199951171875</ele>
        <time>2026-09-01T09:37:09.000Z</time>
        <extensions>
          <ns3:TrackPointExtension>
            <ns3:hr>149</ns3:hr>
            <ns3:cad>79</ns3:cad>
          </ns3:TrackPointExtension>
        </extensions>
      </trkpt>
      <trkpt lat="47.488966919481754302978515625" lon="10.0482535175979137420654296875">
        <ele>1582.800048828125</ele>
        <time>2026-09-01T09:37:10.000Z</time>
        <extensions>
          <ns3:TrackPointExtension>
            <ns3:hr>149</ns3:hr>
            <ns3:cad>79</ns3:cad>
          </ns3:TrackPointExtension>
        </extensions>
      </trkpt>
      <trkpt lat="47.48895979486405849456787109375" lon="10.048228204250335693359375">
        <ele>1581.5999755859375</ele>
        <time>2026-09-01T09:37:12.000Z</time>
        <extensions>
          <ns3:TrackPointExtension>
            <ns3:hr>149</ns3:hr>
            <ns3:cad>79</ns3:cad>
          </ns3:TrackPointExtension>
        </extensions>
      </trkpt>
      <trkpt lat="47.48896189033985137939453125" lon="10.04817900247871875762939453125">
        <ele>1580.5999755859375</ele>
        <time>2026-09-01T09:37:14.000Z</time>
        <extensions>
          <ns3:TrackPointExtension>
            <ns3:hr>149</ns3:hr>
            <ns3:cad>79</ns3:cad>
          </ns3:TrackPointExtension>
        </extensions>
      </trkpt>
      <trkpt lat="47.48897639103233814239501953125" lon="10.04815368913114070892333984375">
        <ele>1580</ele>
        <time>2026-09-01T09:37:15.000Z</time>
        <extensions>
          <ns3:TrackPointExtension>
            <ns3:hr>149</ns3:hr>
            <ns3:cad>79</ns3:cad>
          </ns3:TrackPointExtension>
        </extensions>
      </trkpt>
      <trkpt lat="47.48898980207741260528564453125" lon="10.048123933374881744384765625">
        <ele>1579.4000244140625</ele>
        <time>2026-09-01T09:37:16.000Z</time>
        <extensions>
          <ns3:TrackPointExtension>
            <ns3:hr>149</ns3:hr>
            <ns3:cad>79</ns3:cad>
          </ns3:TrackPointExtension>
        </extensions>
      </trkpt>
      <trkpt lat="47.48898946680128574371337890625" lon="10.0480620749294757843017578125">
        <ele>1578.199951171875</ele>
        <time>2026-09-01T09:37:18.000Z</time>
        <extensions>
          <ns3:TrackPointExtension>
            <ns3:hr>148</ns3:hr>
            <ns3:cad>79</ns3:cad>
          </ns3:TrackPointExtension>
        </extensions>
      </trkpt>
      <trkpt lat="47.4889731220901012420654296875" lon="10.04802611656486988067626953125">
        <ele>1577.199951171875</ele>
        <time>2026-09-01T09:37:20.000Z</time>
        <extensions>
          <ns3:TrackPointExtension>
            <ns3:hr>150</ns3:hr>
            <ns3:cad>79</ns3:cad>
          </ns3:TrackPointExtension>
        </extensions>
      </trkpt>
      <trkpt lat="47.48894504271447658538818359375" lon="10.0479842908680438995361328125">
        <ele>1576.199951171875</ele>
        <time>2026-09-01T09:37:22.000Z</time>
        <extensions>
          <ns3:TrackPointExtension>
            <ns3:hr>150</ns3:hr>
            <ns3:cad>79</ns3:cad>
          </ns3:TrackPointExtension>
        </extensions>
      </trkpt>
      <trkpt lat="47.48892375268042087554931640625" lon="10.047940872609615325927734375">
        <ele>1575</ele>
        <time>2026-09-01T09:37:24.000Z</time>
        <extensions>
          <ns3:TrackPointExtension>
            <ns3:hr>149</ns3:hr>
            <ns3:cad>79</ns3:cad>
          </ns3:TrackPointExtension>
        </extensions>
      </trkpt>
      <trkpt lat="47.4889169633388519287109375" lon="10.04788697697222232818603515625">
        <ele>1574.4000244140625</ele>
        <time>2026-09-01T09:37:25.000Z</time>
        <extensions>
          <ns3:TrackPointExtension>
            <ns3:hr>149</ns3:hr>
            <ns3:cad>79</ns3:cad>
          </ns3:TrackPointExtension>
        </extensions>
      </trkpt>
      <trkpt lat="47.4889131076633930206298828125" lon="10.04784489981830120086669921875">
        <ele>1573.800048828125</ele>
        <time>2026-09-01T09:37:26.000Z</time>
        <extensions>
          <ns3:TrackPointExtension>
            <ns3:hr>148</ns3:hr>
            <ns3:cad>79</ns3:cad>
          </ns3:TrackPointExtension>
        </extensions>
      </trkpt>
      <trkpt lat="47.48890967108309268951416015625" lon="10.047778598964214324951171875">
        <ele>1573.4000244140625</ele>
        <time>2026-09-01T09:37:29.000Z</time>
        <extensions>
          <ns3:TrackPointExtension>
            <ns3:hr>149</ns3:hr>
            <ns3:cad>79</ns3:cad>
          </ns3:TrackPointExtension>
        </extensions>
      </trkpt>
      <trkpt lat="47.4888996966183185577392578125" lon="10.04777985624969005584716796875">
        <ele>1573.4000244140625</ele>
        <time>2026-09-01T09:37:30.000Z</time>
        <extensions>
          <ns3:TrackPointExtension>
            <ns3:hr>149</ns3:hr>
            <ns3:cad>79</ns3:cad>
          </ns3:TrackPointExtension>
        </extensions>
      </trkpt>
      <trkpt lat="47.488885782659053802490234375" lon="10.0477774254977703094482421875">
        <ele>1573.5999755859375</ele>
        <time>2026-09-01T09:37:32.000Z</time>
        <extensions>
          <ns3:TrackPointExtension>
            <ns3:hr>149</ns3:hr>
            <ns3:cad>79</ns3:cad>
          </ns3:TrackPointExtension>
        </extensions>
      </trkpt>
      <trkpt lat="47.48886340297758579254150390625" lon="10.04776418209075927734375">
        <ele>1572.5999755859375</ele>
        <time>2026-09-01T09:37:34.000Z</time>
        <extensions>
          <ns3:TrackPointExtension>
            <ns3:hr>149</ns3:hr>
            <ns3:cad>79</ns3:cad>
          </ns3:TrackPointExtension>
        </extensions>
      </trkpt>
      <trkpt lat="47.48884311877191066741943359375" lon="10.04776560701429843902587890625">
        <ele>1571.5999755859375</ele>
        <time>2026-09-01T09:37:36.000Z</time>
        <extensions>
          <ns3:TrackPointExtension>
            <ns3:hr>151</ns3:hr>
            <ns3:cad>79</ns3:cad>
          </ns3:TrackPointExtension>
        </extensions>
      </trkpt>
      <trkpt lat="47.4888369999825954437255859375" lon="10.04775789566338062286376953125">
        <ele>1571</ele>
        <time>2026-09-01T09:37:37.000Z</time>
        <extensions>
          <ns3:TrackPointExtension>
            <ns3:hr>151</ns3:hr>
            <ns3:cad>79</ns3:cad>
          </ns3:TrackPointExtension>
        </extensions>
      </trkpt>
      <trkpt lat="47.48882920481264591217041015625" lon="10.04775253124535083770751953125">
        <ele>1570.4000244140625</ele>
        <time>2026-09-01T09:37:38.000Z</time>
        <extensions>
          <ns3:TrackPointExtension>
            <ns3:hr>150</ns3:hr>
            <ns3:cad>79</ns3:cad>
          </ns3:TrackPointExtension>
        </extensions>
      </trkpt>
      <trkpt lat="47.48881864361464977264404296875" lon="10.04774213768541812896728515625">
        <ele>1569.4000244140625</ele>
        <time>2026-09-01T09:37:40.000Z</time>
        <extensions>
          <ns3:TrackPointExtension>
            <ns3:hr>149</ns3:hr>
            <ns3:cad>79</ns3:cad>
          </ns3:TrackPointExtension>
        </extensions>
      </trkpt>
      <trkpt lat="47.48880766332149505615234375" lon="10.04770944826304912567138671875">
        <ele>1568</ele>
        <time>2026-09-01T09:37:43.000Z</time>
        <extensions>
          <ns3:TrackPointExtension>
            <ns3:hr>148</ns3:hr>
            <ns3:cad>0</ns3:cad>
          </ns3:TrackPointExtension>
        </extensions>
      </trkpt>
      <trkpt lat="47.48880774714052677154541015625" lon="10.047702826559543609619140625">
        <ele>1567.800048828125</ele>
        <time>2026-09-01T09:37:44.000Z</time>
        <extensions>
          <ns3:TrackPointExtension>
            <ns3:hr>148</ns3:hr>
            <ns3:cad>0</ns3:cad>
          </ns3:TrackPointExtension>
        </extensions>
      </trkpt>
      <trkpt lat="47.4888088367879390716552734375" lon="10.04761238582432270050048828125">
        <ele>1567</ele>
        <time>2026-09-01T09:37:49.000Z</time>
        <extensions>
          <ns3:TrackPointExtension>
            <ns3:hr>147</ns3:hr>
            <ns3:cad>0</ns3:cad>
          </ns3:TrackPointExtension>
        </extensions>
      </trkpt>
      <trkpt lat="47.48879366554319858551025390625" lon="10.04759260453283786773681640625">
        <ele>1566.800048828125</ele>
        <time>2026-09-01T09:37:50.000Z</time>
        <extensions>
          <ns3:TrackPointExtension>
            <ns3:hr>147</ns3:hr>
            <ns3:cad>0</ns3:cad>
          </ns3:TrackPointExtension>
        </extensions>
      </trkpt>
      <trkpt lat="47.48879031278192996978759765625" lon="10.04750744439661502838134765625">
        <ele>1566</ele>
        <time>2026-09-01T09:37:53.000Z</time>
        <extensions>
          <ns3:TrackPointExtension>
            <ns3:hr>147</ns3:hr>
            <ns3:cad>0</ns3:cad>
          </ns3:TrackPointExtension>
        </extensions>
      </trkpt>
      <trkpt lat="47.4887880496680736541748046875" lon="10.04748456180095672607421875">
        <ele>1565.5999755859375</ele>
        <time>2026-09-01T09:37:54.000Z</time>
        <extensions>
          <ns3:TrackPointExtension>
            <ns3:hr>147</ns3:hr>
            <ns3:cad>0</ns3:cad>
          </ns3:TrackPointExtension>
        </extensions>
      </trkpt>
      <trkpt lat="47.48872711323201656341552734375" lon="10.04737786017358303070068359375">
        <ele>1565.4000244140625</ele>
        <time>2026-09-01T09:37:58.000Z</time>
        <extensions>
          <ns3:TrackPointExtension>
            <ns3:hr>148</ns3:hr>
            <ns3:cad>80</ns3:cad>
          </ns3:TrackPointExtension>
        </extensions>
      </trkpt>
      <trkpt lat="47.48870129697024822235107421875" lon="10.04731348715722560882568359375">
        <ele>1564.5999755859375</ele>
        <time>2026-09-01T09:38:01.000Z</time>
        <extensions>
          <ns3:TrackPointExtension>
            <ns3:hr>149</ns3:hr>
            <ns3:cad>80</ns3:cad>
          </ns3:TrackPointExtension>
        </extensions>
      </trkpt>
      <trkpt lat="47.48868151567876338958740234375" lon="10.0472666323184967041015625">
        <ele>1563.800048828125</ele>
        <time>2026-09-01T09:38:03.000Z</time>
        <extensions>
          <ns3:TrackPointExtension>
            <ns3:hr>150</ns3:hr>
            <ns3:cad>80</ns3:cad>
          </ns3:TrackPointExtension>
        </extensions>
      </trkpt>
      <trkpt lat="47.48867045156657695770263671875" lon="10.0472346134483814239501953125">
        <ele>1563.5999755859375</ele>
        <time>2026-09-01T09:38:04.000Z</time>
        <extensions>
          <ns3:TrackPointExtension>
            <ns3:hr>150</ns3:hr>
            <ns3:cad>80</ns3:cad>
          </ns3:TrackPointExtension>
        </extensions>
      </trkpt>
      <trkpt lat="47.48865402303636074066162109375" lon="10.0472178496420383453369140625">
        <ele>1563.199951171875</ele>
        <time>2026-09-01T09:38:05.000Z</time>
        <extensions>
          <ns3:TrackPointExtension>
            <ns3:hr>150</ns3:hr>
            <ns3:cad>80</ns3:cad>
          </ns3:TrackPointExtension>
        </extensions>
      </trkpt>
      <trkpt lat="47.48862636275589466094970703125" lon="10.04714450798928737640380859375">
        <ele>1562</ele>
        <time>2026-09-01T09:38:07.000Z</time>
        <extensions>
          <ns3:TrackPointExtension>
            <ns3:hr>150</ns3:hr>
            <ns3:cad>80</ns3:cad>
          </ns3:TrackPointExtension>
        </extensions>
      </trkpt>
      <trkpt lat="47.48858042992651462554931640625" lon="10.04706270061433315277099609375">
        <ele>1561</ele>
        <time>2026-09-01T09:38:10.000Z</time>
        <extensions>
          <ns3:TrackPointExtension>
            <ns3:hr>150</ns3:hr>
            <ns3:cad>83</ns3:cad>
          </ns3:TrackPointExtension>
        </extensions>
      </trkpt>
      <trkpt lat="47.48857037164270877838134765625" lon="10.04701911471784114837646484375">
        <ele>1560.5999755859375</ele>
        <time>2026-09-01T09:38:11.000Z</time>
        <extensions>
          <ns3:TrackPointExtension>
            <ns3:hr>150</ns3:hr>
            <ns3:cad>83</ns3:cad>
          </ns3:TrackPointExtension>
        </extensions>
      </trkpt>
      <trkpt lat="47.48854706995189189910888671875" lon="10.046961195766925811767578125">
        <ele>1559.5999755859375</ele>
        <time>2026-09-01T09:38:13.000Z</time>
        <extensions>
          <ns3:TrackPointExtension>
            <ns3:hr>150</ns3:hr>
            <ns3:cad>83</ns3:cad>
          </ns3:TrackPointExtension>
        </extensions>
      </trkpt>
      <trkpt lat="47.48851689510047435760498046875" lon="10.04693730734288692474365234375">
        <ele>1558.4000244140625</ele>
        <time>2026-09-01T09:38:15.000Z</time>
        <extensions>
          <ns3:TrackPointExtension>
            <ns3:hr>150</ns3:hr>
            <ns3:cad>82</ns3:cad>
          </ns3:TrackPointExtension>
        </extensions>
      </trkpt>
      <trkpt lat="47.48849677853286266326904296875" lon="10.04692054353654384613037109375">
        <ele>1557.199951171875</ele>
        <time>2026-09-01T09:38:17.000Z</time>
        <extensions>
          <ns3:TrackPointExtension>
            <ns3:hr>150</ns3:hr>
            <ns3:cad>84</ns3:cad>
          </ns3:TrackPointExtension>
        </extensions>
      </trkpt>
      <trkpt lat="47.48849560506641864776611328125" lon="10.0469070486724376678466796875">
        <ele>1556.5999755859375</ele>
        <time>2026-09-01T09:38:18.000Z</time>
        <extensions>
          <ns3:TrackPointExtension>
            <ns3:hr>150</ns3:hr>
            <ns3:cad>84</ns3:cad>
          </ns3:TrackPointExtension>
        </extensions>
      </trkpt>
      <trkpt lat="47.48848437331616878509521484375" lon="10.04689254797995090484619140625">
        <ele>1556</ele>
        <time>2026-09-01T09:38:19.000Z</time>
        <extensions>
          <ns3:TrackPointExtension>
            <ns3:hr>150</ns3:hr>
            <ns3:cad>84</ns3:cad>
          </ns3:TrackPointExtension>
        </extensions>
      </trkpt>
      <trkpt lat="47.48846123926341533660888671875" lon="10.04683102481067180633544921875">
        <ele>1554.800048828125</ele>
        <time>2026-09-01T09:38:21.000Z</time>
        <extensions>
          <ns3:TrackPointExtension>
            <ns3:hr>151</ns3:hr>
            <ns3:cad>84</ns3:cad>
          </ns3:TrackPointExtension>
        </extensions>
      </trkpt>
      <trkpt lat="47.48845386318862438201904296875" lon="10.04679263569414615631103515625">
        <ele>1553.800048828125</ele>
        <time>2026-09-01T09:38:23.000Z</time>
        <extensions>
          <ns3:TrackPointExtension>
            <ns3:hr>150</ns3:hr>
            <ns3:cad>84</ns3:cad>
          </ns3:TrackPointExtension>
        </extensions>
      </trkpt>
      <trkpt lat="47.48845101334154605865478515625" lon="10.04678048193454742431640625">
        <ele>1553.5999755859375</ele>
        <time>2026-09-01T09:38:24.000Z</time>
        <extensions>
          <ns3:TrackPointExtension>
            <ns3:hr>150</ns3:hr>
            <ns3:cad>84</ns3:cad>
          </ns3:TrackPointExtension>
        </extensions>
      </trkpt>
      <trkpt lat="47.48842821456491947174072265625" lon="10.04672490991652011871337890625">
        <ele>1553.5999755859375</ele>
        <time>2026-09-01T09:38:28.000Z</time>
        <extensions>
          <ns3:TrackPointExtension>
            <ns3:hr>148</ns3:hr>
            <ns3:cad>84</ns3:cad>
          </ns3:TrackPointExtension>
        </extensions>
      </trkpt>
      <trkpt lat="47.4883910827338695526123046875" lon="10.0466609559953212738037109375">
        <ele>1553</ele>
        <time>2026-09-01T09:38:31.000Z</time>
        <extensions>
          <ns3:TrackPointExtension>
            <ns3:hr>146</ns3:hr>
            <ns3:cad>84</ns3:cad>
          </ns3:TrackPointExtension>
        </extensions>
      </trkpt>
      <trkpt lat="47.48836568556725978851318359375" lon="10.046617202460765838623046875">
        <ele>1552.199951171875</ele>
        <time>2026-09-01T09:38:33.000Z</time>
        <extensions>
          <ns3:TrackPointExtension>
            <ns3:hr>145</ns3:hr>
            <ns3:cad>84</ns3:cad>
          </ns3:TrackPointExtension>
        </extensions>
      </trkpt>
      <trkpt lat="47.48835495673120021820068359375" lon="10.04659004509449005126953125">
        <ele>1551.199951171875</ele>
        <time>2026-09-01T09:38:35.000Z</time>
        <extensions>
          <ns3:TrackPointExtension>
            <ns3:hr>145</ns3:hr>
            <ns3:cad>91</ns3:cad>
          </ns3:TrackPointExtension>
        </extensions>
      </trkpt>
      <trkpt lat="47.488334588706493377685546875" lon="10.046570934355258941650390625">
        <ele>1550.800048828125</ele>
        <time>2026-09-01T09:38:36.000Z</time>
        <extensions>
          <ns3:TrackPointExtension>
            <ns3:hr>145</ns3:hr>
            <ns3:cad>91</ns3:cad>
          </ns3:TrackPointExtension>
        </extensions>
      </trkpt>
      <trkpt lat="47.48830332420766353607177734375" lon="10.04653648473322391510009765625">
        <ele>1549.4000244140625</ele>
        <time>2026-09-01T09:38:38.000Z</time>
        <extensions>
          <ns3:TrackPointExtension>
            <ns3:hr>147</ns3:hr>
            <ns3:cad>90</ns3:cad>
          </ns3:TrackPointExtension>
        </extensions>
      </trkpt>
      <trkpt lat="47.4882968701422214508056640625" lon="10.04647579975426197052001953125">
        <ele>1548.4000244140625</ele>
        <time>2026-09-01T09:38:40.000Z</time>
        <extensions>
          <ns3:TrackPointExtension>
            <ns3:hr>149</ns3:hr>
            <ns3:cad>90</ns3:cad>
          </ns3:TrackPointExtension>
        </extensions>
      </trkpt>
      <trkpt lat="47.48827817849814891815185546875" lon="10.0464343093335628509521484375">
        <ele>1548</ele>
        <time>2026-09-01T09:38:42.000Z</time>
        <extensions>
          <ns3:TrackPointExtension>
            <ns3:hr>150</ns3:hr>
            <ns3:cad>90</ns3:cad>
          </ns3:TrackPointExtension>
        </extensions>
      </trkpt>
      <trkpt lat="47.48820140026509761810302734375" lon="10.0463595427572727203369140625">
        <ele>1547.800048828125</ele>
        <time>2026-09-01T09:38:45.000Z</time>
        <extensions>
          <ns3:TrackPointExtension>
            <ns3:hr>150</ns3:hr>
            <ns3:cad>0</ns3:cad>
          </ns3:TrackPointExtension>
        </extensions>
      </trkpt>
      <trkpt lat="47.48808925040066242218017578125" lon="10.04632190801203250885009765625">
        <ele>1548.5999755859375</ele>
        <time>2026-09-01T09:38:50.000Z</time>
        <extensions>
          <ns3:TrackPointExtension>
            <ns3:hr>150</ns3:hr>
            <ns3:cad>87</ns3:cad>
          </ns3:TrackPointExtension>
        </extensions>
      </trkpt>
      <trkpt lat="47.48803392983973026275634765625" lon="10.046268515288829803466796875">
        <ele>1549.5999755859375</ele>
        <time>2026-09-01T09:38:53.000Z</time>
        <extensions>
          <ns3:TrackPointExtension>
            <ns3:hr>151</ns3:hr>
            <ns3:cad>85</ns3:cad>
          </ns3:TrackPointExtension>
        </extensions>
      </trkpt>
      <trkpt lat="47.48797223903238773345947265625" lon="10.0462120212614536285400390625">
        <ele>1550.4000244140625</ele>
        <time>2026-09-01T09:38:56.000Z</time>
        <extensions>
          <ns3:TrackPointExtension>
            <ns3:hr>153</ns3:hr>
            <ns3:cad>85</ns3:cad>
          </ns3:TrackPointExtension>
        </extensions>
      </trkpt>
      <trkpt lat="47.48794893734157085418701171875" lon="10.04619701765477657318115234375">
        <ele>1550.5999755859375</ele>
        <time>2026-09-01T09:38:57.000Z</time>
        <extensions>
          <ns3:TrackPointExtension>
            <ns3:hr>154</ns3:hr>
            <ns3:cad>85</ns3:cad>
          </ns3:TrackPointExtension>
        </extensions>
      </trkpt>
      <trkpt lat="47.48790971003472805023193359375" lon="10.0461798347532749176025390625">
        <ele>1551.5999755859375</ele>
        <time>2026-09-01T09:39:00.000Z</time>
        <extensions>
          <ns3:TrackPointExtension>
            <ns3:hr>154</ns3:hr>
            <ns3:cad>87</ns3:cad>
          </ns3:TrackPointExtension>
        </extensions>
      </trkpt>
      <trkpt lat="47.4879019148647785186767578125" lon="10.04617321304976940155029296875">
        <ele>1551.800048828125</ele>
        <time>2026-09-01T09:39:01.000Z</time>
        <extensions>
          <ns3:TrackPointExtension>
            <ns3:hr>154</ns3:hr>
            <ns3:cad>88</ns3:cad>
          </ns3:TrackPointExtension>
        </extensions>
      </trkpt>
      <trkpt lat="47.48787098564207553863525390625" lon="10.04611319862306118011474609375">
        <ele>1553</ele>
        <time>2026-09-01T09:39:05.000Z</time>
        <extensions>
          <ns3:TrackPointExtension>
            <ns3:hr>157</ns3:hr>
            <ns3:cad>88</ns3:cad>
          </ns3:TrackPointExtension>
        </extensions>
      </trkpt>
      <trkpt lat="47.487859837710857391357421875" lon="10.04607732407748699188232421875">
        <ele>1553.199951171875</ele>
        <time>2026-09-01T09:39:06.000Z</time>
        <extensions>
          <ns3:TrackPointExtension>
            <ns3:hr>157</ns3:hr>
            <ns3:cad>88</ns3:cad>
          </ns3:TrackPointExtension>
        </extensions>
      </trkpt>
      <trkpt lat="47.48784215189516544342041015625" lon="10.0460329838097095489501953125">
        <ele>1554</ele>
        <time>2026-09-01T09:39:09.000Z</time>
        <extensions>
          <ns3:TrackPointExtension>
            <ns3:hr>158</ns3:hr>
            <ns3:cad>56</ns3:cad>
          </ns3:TrackPointExtension>
        </extensions>
      </trkpt>
      <trkpt lat="47.48783159069716930389404296875" lon="10.04600490443408489227294921875">
        <ele>1554.4000244140625</ele>
        <time>2026-09-01T09:39:11.000Z</time>
        <extensions>
          <ns3:TrackPointExtension>
            <ns3:hr>159</ns3:hr>
            <ns3:cad>56</ns3:cad>
          </ns3:TrackPointExtension>
        </extensions>
      </trkpt>
      <trkpt lat="47.48783008195459842681884765625" lon="10.04593818448483943939208984375">
        <ele>1555</ele>
        <time>2026-09-01T09:39:14.000Z</time>
        <extensions>
          <ns3:TrackPointExtension>
            <ns3:hr>158</ns3:hr>
            <ns3:cad>56</ns3:cad>
          </ns3:TrackPointExtension>
        </extensions>
      </trkpt>
      <trkpt lat="47.48782304115593433380126953125" lon="10.04592225886881351470947265625">
        <ele>1555.4000244140625</ele>
        <time>2026-09-01T09:39:15.000Z</time>
        <extensions>
          <ns3:TrackPointExtension>
            <ns3:hr>158</ns3:hr>
            <ns3:cad>56</ns3:cad>
          </ns3:TrackPointExtension>
        </extensions>
      </trkpt>
      <trkpt lat="47.4877956323325634002685546875" lon="10.0458790920674800872802734375">
        <ele>1556.4000244140625</ele>
        <time>2026-09-01T09:39:19.000Z</time>
        <extensions>
          <ns3:TrackPointExtension>
            <ns3:hr>158</ns3:hr>
            <ns3:cad>56</ns3:cad>
          </ns3:TrackPointExtension>
        </extensions>
      </trkpt>
      <trkpt lat="47.48776587657630443572998046875" lon="10.04586182534694671630859375">
        <ele>1557.4000244140625</ele>
        <time>2026-09-01T09:39:22.000Z</time>
        <extensions>
          <ns3:TrackPointExtension>
            <ns3:hr>158</ns3:hr>
            <ns3:cad>55</ns3:cad>
          </ns3:TrackPointExtension>
        </extensions>
      </trkpt>
      <trkpt lat="47.487759925425052642822265625" lon="10.04585671238601207733154296875">
        <ele>1557.5999755859375</ele>
        <time>2026-09-01T09:39:23.000Z</time>
        <extensions>
          <ns3:TrackPointExtension>
            <ns3:hr>159</ns3:hr>
            <ns3:cad>55</ns3:cad>
          </ns3:TrackPointExtension>
        </extensions>
      </trkpt>
      <trkpt lat="47.487750537693500518798828125" lon="10.04584615118801593780517578125">
        <ele>1558.800048828125</ele>
        <time>2026-09-01T09:39:27.000Z</time>
        <extensions>
          <ns3:TrackPointExtension>
            <ns3:hr>159</ns3:hr>
            <ns3:cad>55</ns3:cad>
          </ns3:TrackPointExtension>
        </extensions>
      </trkpt>
      <trkpt lat="47.48775078915059566497802734375" lon="10.0458284653723239898681640625">
        <ele>1559.5999755859375</ele>
        <time>2026-09-01T09:39:29.000Z</time>
        <extensions>
          <ns3:TrackPointExtension>
            <ns3:hr>159</ns3:hr>
            <ns3:cad>0</ns3:cad>
          </ns3:TrackPointExtension>
        </extensions>
      </trkpt>
      <trkpt lat="47.4877567403018474578857421875" lon="10.04582284949719905853271484375">
        <ele>1560</ele>
        <time>2026-09-01T09:39:30.000Z</time>
        <extensions>
          <ns3:TrackPointExtension>
            <ns3:hr>158</ns3:hr>
            <ns3:cad>0</ns3:cad>
          </ns3:TrackPointExtension>
        </extensions>
      </trkpt>
      <trkpt lat="47.48777610249817371368408203125" lon="10.04581354558467864990234375">
        <ele>1561</ele>
        <time>2026-09-01T09:39:33.000Z</time>
        <extensions>
          <ns3:TrackPointExtension>
            <ns3:hr>159</ns3:hr>
            <ns3:cad>0</ns3:cad>
          </ns3:TrackPointExtension>
        </extensions>
      </trkpt>
      <trkpt lat="47.48780074529349803924560546875" lon="10.04580424167215824127197265625">
        <ele>1561.199951171875</ele>
        <time>2026-09-01T09:39:36.000Z</time>
        <extensions>
          <ns3:TrackPointExtension>
            <ns3:hr>159</ns3:hr>
            <ns3:cad>0</ns3:cad>
          </ns3:TrackPointExtension>
        </extensions>
      </trkpt>
      <trkpt lat="47.48783527873456478118896484375" lon="10.04577733576297760009765625">
        <ele>1562.199951171875</ele>
        <time>2026-09-01T09:39:40.000Z</time>
        <extensions>
          <ns3:TrackPointExtension>
            <ns3:hr>160</ns3:hr>
            <ns3:cad>55</ns3:cad>
          </ns3:TrackPointExtension>
        </extensions>
      </trkpt>
      <trkpt lat="47.48784533701837062835693359375" lon="10.04576082341372966766357421875">
        <ele>1563.4000244140625</ele>
        <time>2026-09-01T09:39:43.000Z</time>
        <extensions>
          <ns3:TrackPointExtension>
            <ns3:hr>159</ns3:hr>
            <ns3:cad>0</ns3:cad>
          </ns3:TrackPointExtension>
        </extensions>
      </trkpt>
      <trkpt lat="47.48784366063773632049560546875" lon="10.045735426247119903564453125">
        <ele>1564.5999755859375</ele>
        <time>2026-09-01T09:39:47.000Z</time>
        <extensions>
          <ns3:TrackPointExtension>
            <ns3:hr>158</ns3:hr>
            <ns3:cad>0</ns3:cad>
          </ns3:TrackPointExtension>
        </extensions>
      </trkpt>
      <trkpt lat="47.48781348578631877899169921875" lon="10.045738779008388519287109375">
        <ele>1565.4000244140625</ele>
        <time>2026-09-01T09:39:50.000Z</time>
        <extensions>
          <ns3:TrackPointExtension>
            <ns3:hr>157</ns3:hr>
            <ns3:cad>0</ns3:cad>
          </ns3:TrackPointExtension>
        </extensions>
      </trkpt>
      <trkpt lat="47.48779915273189544677734375" lon="10.04573986865580081939697265625">
        <ele>1565.800048828125</ele>
        <time>2026-09-01T09:39:51.000Z</time>
        <extensions>
          <ns3:TrackPointExtension>
            <ns3:hr>157</ns3:hr>
            <ns3:cad>0</ns3:cad>
          </ns3:TrackPointExtension>
        </extensions>
      </trkpt>
      <trkpt lat="47.48776302672922611236572265625" lon="10.04567951895296573638916015625">
        <ele>1566.4000244140625</ele>
        <time>2026-09-01T09:39:55.000Z</time>
        <extensions>
          <ns3:TrackPointExtension>
            <ns3:hr>160</ns3:hr>
            <ns3:cad>62</ns3:cad>
          </ns3:TrackPointExtension>
        </extensions>
      </trkpt>
      <trkpt lat="47.48776151798665523529052734375" lon="10.0456671975553035736083984375">
        <ele>1566.5999755859375</ele>
        <time>2026-09-01T09:39:56.000Z</time>
        <extensions>
          <ns3:TrackPointExtension>
            <ns3:hr>160</ns3:hr>
            <ns3:cad>62</ns3:cad>
          </ns3:TrackPointExtension>
        </extensions>
      </trkpt>
      <trkpt lat="47.48775917105376720428466796875" lon="10.0456480868160724639892578125">
        <ele>1566.800048828125</ele>
        <time>2026-09-01T09:39:58.000Z</time>
        <extensions>
          <ns3:TrackPointExtension>
            <ns3:hr>161</ns3:hr>
            <ns3:cad>67</ns3:cad>
          </ns3:TrackPointExtension>
        </extensions>
      </trkpt>
      <trkpt lat="47.4877466820180416107177734375" lon="10.04559922032058238983154296875">
        <ele>1568.199951171875</ele>
        <time>2026-09-01T09:40:02.000Z</time>
        <extensions>
          <ns3:TrackPointExtension>
            <ns3:hr>161</ns3:hr>
            <ns3:cad>0</ns3:cad>
          </ns3:TrackPointExtension>
        </extensions>
      </trkpt>
      <trkpt lat="47.48774844221770763397216796875" lon="10.04557348787784576416015625">
        <ele>1569.4000244140625</ele>
        <time>2026-09-01T09:40:05.000Z</time>
        <extensions>
          <ns3:TrackPointExtension>
            <ns3:hr>161</ns3:hr>
            <ns3:cad>0</ns3:cad>
          </ns3:TrackPointExtension>
        </extensions>
      </trkpt>
      <trkpt lat="47.487747184932231903076171875" lon="10.04552881233394145965576171875">
        <ele>1570.5999755859375</ele>
        <time>2026-09-01T09:40:09.000Z</time>
        <extensions>
          <ns3:TrackPointExtension>
            <ns3:hr>160</ns3:hr>
            <ns3:cad>50</ns3:cad>
          </ns3:TrackPointExtension>
        </extensions>
      </trkpt>
      <trkpt lat="47.48773385770618915557861328125" lon="10.04545949399471282958984375">
        <ele>1571.5999755859375</ele>
        <time>2026-09-01T09:40:13.000Z</time>
        <extensions>
          <ns3:TrackPointExtension>
            <ns3:hr>161</ns3:hr>
            <ns3:cad>0</ns3:cad>
          </ns3:TrackPointExtension>
        </extensions>
      </trkpt>
      <trkpt lat="47.48772245831787586212158203125" lon="10.0453701429069042205810546875">
        <ele>1572.800048828125</ele>
        <time>2026-09-01T09:40:17.000Z</time>
        <extensions>
          <ns3:TrackPointExtension>
            <ns3:hr>161</ns3:hr>
            <ns3:cad>0</ns3:cad>
          </ns3:TrackPointExtension>
        </extensions>
      </trkpt>
      <trkpt lat="47.4877044372260570526123046875" lon="10.04532278515398502349853515625">
        <ele>1573</ele>
        <time>2026-09-01T09:40:19.000Z</time>
        <extensions>
          <ns3:TrackPointExtension>
            <ns3:hr>161</ns3:hr>
            <ns3:cad>0</ns3:cad>
          </ns3:TrackPointExtension>
        </extensions>
      </trkpt>
      <trkpt lat="47.4876497872173786163330078125" lon="10.0452494435012340545654296875">
        <ele>1574.199951171875</ele>
        <time>2026-09-01T09:40:24.000Z</time>
        <extensions>
          <ns3:TrackPointExtension>
            <ns3:hr>160</ns3:hr>
            <ns3:cad>0</ns3:cad>
          </ns3:TrackPointExtension>
        </extensions>
      </trkpt>
      <trkpt lat="47.48763947747647762298583984375" lon="10.0452061928808689117431640625">
        <ele>1575.4000244140625</ele>
        <time>2026-09-01T09:40:27.000Z</time>
        <extensions>
          <ns3:TrackPointExtension>
            <ns3:hr>160</ns3:hr>
            <ns3:cad>83</ns3:cad>
          </ns3:TrackPointExtension>
        </extensions>
      </trkpt>
      <trkpt lat="47.48764132149517536163330078125" lon="10.04518733359873294830322265625">
        <ele>1576</ele>
        <time>2026-09-01T09:40:29.000Z</time>
        <extensions>
          <ns3:TrackPointExtension>
            <ns3:hr>160</ns3:hr>
            <ns3:cad>83</ns3:cad>
          </ns3:TrackPointExtension>
        </extensions>
      </trkpt>
      <trkpt lat="47.48764802701771259307861328125" lon="10.04515372216701507568359375">
        <ele>1576.800048828125</ele>
        <time>2026-09-01T09:40:31.000Z</time>
        <extensions>
          <ns3:TrackPointExtension>
            <ns3:hr>160</ns3:hr>
            <ns3:cad>0</ns3:cad>
          </ns3:TrackPointExtension>
        </extensions>
      </trkpt>
      <trkpt lat="47.4876427464187145233154296875" lon="10.04510770551860332489013671875">
        <ele>1577.800048828125</ele>
        <time>2026-09-01T09:40:34.000Z</time>
        <extensions>
          <ns3:TrackPointExtension>
            <ns3:hr>160</ns3:hr>
            <ns3:cad>47</ns3:cad>
          </ns3:TrackPointExtension>
        </extensions>
      </trkpt>
      <trkpt lat="47.48763620853424072265625" lon="10.0450844876468181610107421875">
        <ele>1578</ele>
        <time>2026-09-01T09:40:35.000Z</time>
        <extensions>
          <ns3:TrackPointExtension>
            <ns3:hr>160</ns3:hr>
            <ns3:cad>47</ns3:cad>
          </ns3:TrackPointExtension>
        </extensions>
      </trkpt>
      <trkpt lat="47.487625144422054290771484375" lon="10.0450170971453189849853515625">
        <ele>1579.4000244140625</ele>
        <time>2026-09-01T09:40:39.000Z</time>
        <extensions>
          <ns3:TrackPointExtension>
            <ns3:hr>160</ns3:hr>
            <ns3:cad>0</ns3:cad>
          </ns3:TrackPointExtension>
        </extensions>
      </trkpt>
      <trkpt lat="47.4876028485596179962158203125" lon="10.04499639384448528289794921875">
        <ele>1580.199951171875</ele>
        <time>2026-09-01T09:40:42.000Z</time>
        <extensions>
          <ns3:TrackPointExtension>
            <ns3:hr>161</ns3:hr>
            <ns3:cad>0</ns3:cad>
          </ns3:TrackPointExtension>
        </extensions>
      </trkpt>
      <trkpt lat="47.48759153299033641815185546875" lon="10.04498197697103023529052734375">
        <ele>1580.4000244140625</ele>
        <time>2026-09-01T09:40:43.000Z</time>
        <extensions>
          <ns3:TrackPointExtension>
            <ns3:hr>161</ns3:hr>
            <ns3:cad>58</ns3:cad>
          </ns3:TrackPointExtension>
        </extensions>
      </trkpt>
      <trkpt lat="47.48757996596395969390869140625" lon="10.04497024230659008026123046875">
        <ele>1581.4000244140625</ele>
        <time>2026-09-01T09:40:46.000Z</time>
        <extensions>
          <ns3:TrackPointExtension>
            <ns3:hr>161</ns3:hr>
            <ns3:cad>57</ns3:cad>
          </ns3:TrackPointExtension>
        </extensions>
      </trkpt>
      <trkpt lat="47.48757761903107166290283203125" lon="10.0449637882411479949951171875">
        <ele>1581.800048828125</ele>
        <time>2026-09-01T09:40:47.000Z</time>
        <extensions>
          <ns3:TrackPointExtension>
            <ns3:hr>161</ns3:hr>
            <ns3:cad>57</ns3:cad>
          </ns3:TrackPointExtension>
        </extensions>
      </trkpt>
      <trkpt lat="47.487558759748935699462890625" lon="10.04495247267186641693115234375">
        <ele>1582.800048828125</ele>
        <time>2026-09-01T09:40:50.000Z</time>
        <extensions>
          <ns3:TrackPointExtension>
            <ns3:hr>162</ns3:hr>
            <ns3:cad>0</ns3:cad>
          </ns3:TrackPointExtension>
        </extensions>
      </trkpt>
      <trkpt lat="47.4875465221703052520751953125" lon="10.04495926201343536376953125">
        <ele>1584</ele>
        <time>2026-09-01T09:40:53.000Z</time>
        <extensions>
          <ns3:TrackPointExtension>
            <ns3:hr>162</ns3:hr>
            <ns3:cad>73</ns3:cad>
          </ns3:TrackPointExtension>
        </extensions>
      </trkpt>
      <trkpt lat="47.4875168502330780029296875" lon="10.044852979481220245361328125">
        <ele>1585</ele>
        <time>2026-09-01T09:40:58.000Z</time>
        <extensions>
          <ns3:TrackPointExtension>
            <ns3:hr>162</ns3:hr>
            <ns3:cad>0</ns3:cad>
          </ns3:TrackPointExtension>
        </extensions>
      </trkpt>
      <trkpt lat="47.48751324601471424102783203125" lon="10.0448186136782169342041015625">
        <ele>1585</ele>
        <time>2026-09-01T09:40:59.000Z</time>
        <extensions>
          <ns3:TrackPointExtension>
            <ns3:hr>162</ns3:hr>
            <ns3:cad>0</ns3:cad>
          </ns3:TrackPointExtension>
        </extensions>
      </trkpt>
      <trkpt lat="47.4875250644981861114501953125" lon="10.04465910606086254119873046875">
        <ele>1585.199951171875</ele>
        <time>2026-09-01T09:41:05.000Z</time>
        <extensions>
          <ns3:TrackPointExtension>
            <ns3:hr>162</ns3:hr>
            <ns3:cad>81</ns3:cad>
          </ns3:TrackPointExtension>
        </extensions>
      </trkpt>
      <trkpt lat="47.48751760460436344146728515625" lon="10.04464267753064632415771484375">
        <ele>1585.199951171875</ele>
        <time>2026-09-01T09:41:06.000Z</time>
        <extensions>
          <ns3:TrackPointExtension>
            <ns3:hr>162</ns3:hr>
            <ns3:cad>81</ns3:cad>
          </ns3:TrackPointExtension>
        </extensions>
      </trkpt>
      <trkpt lat="47.487509138882160186767578125" lon="10.04455483518540859222412109375">
        <ele>1584.800048828125</ele>
        <time>2026-09-01T09:41:09.000Z</time>
        <extensions>
          <ns3:TrackPointExtension>
            <ns3:hr>160</ns3:hr>
            <ns3:cad>80</ns3:cad>
          </ns3:TrackPointExtension>
        </extensions>
      </trkpt>
      <trkpt lat="47.48751358129084110260009765625" lon="10.0444028712809085845947265625">
        <ele>1584.5999755859375</ele>
        <time>2026-09-01T09:41:14.000Z</time>
        <extensions>
          <ns3:TrackPointExtension>
            <ns3:hr>157</ns3:hr>
            <ns3:cad>79</ns3:cad>
          </ns3:TrackPointExtension>
        </extensions>
      </trkpt>
      <trkpt lat="47.48751374892890453338623046875" lon="10.04420748911798000335693359375">
        <ele>1585</ele>
        <time>2026-09-01T09:41:19.000Z</time>
        <extensions>
          <ns3:TrackPointExtension>
            <ns3:hr>156</ns3:hr>
            <ns3:cad>79</ns3:cad>
          </ns3:TrackPointExtension>
        </extensions>
      </trkpt>
      <trkpt lat="47.48752816580235958099365234375" lon="10.0441547669470310211181640625">
        <ele>1586.199951171875</ele>
        <time>2026-09-01T09:41:22.000Z</time>
        <extensions>
          <ns3:TrackPointExtension>
            <ns3:hr>156</ns3:hr>
            <ns3:cad>79</ns3:cad>
          </ns3:TrackPointExtension>
        </extensions>
      </trkpt>
      <trkpt lat="47.4875321052968502044677734375" lon="10.0441131927073001861572265625">
        <ele>1587.199951171875</ele>
        <time>2026-09-01T09:41:25.000Z</time>
        <extensions>
          <ns3:TrackPointExtension>
            <ns3:hr>155</ns3:hr>
            <ns3:cad>79</ns3:cad>
          </ns3:TrackPointExtension>
        </extensions>
      </trkpt>
      <trkpt lat="47.487535960972309112548828125" lon="10.044096596539020538330078125">
        <ele>1588</ele>
        <time>2026-09-01T09:41:27.000Z</time>
        <extensions>
          <ns3:TrackPointExtension>
            <ns3:hr>155</ns3:hr>
            <ns3:cad>58</ns3:cad>
          </ns3:TrackPointExtension>
        </extensions>
      </trkpt>
      <trkpt lat="47.48753688298165798187255859375" lon="10.04408947192132472991943359375">
        <ele>1588.4000244140625</ele>
        <time>2026-09-01T09:41:28.000Z</time>
        <extensions>
          <ns3:TrackPointExtension>
            <ns3:hr>156</ns3:hr>
            <ns3:cad>58</ns3:cad>
          </ns3:TrackPointExtension>
        </extensions>
      </trkpt>
      <trkpt lat="47.487557418644428253173828125" lon="10.04408083856105804443359375">
        <ele>1589.5999755859375</ele>
        <time>2026-09-01T09:41:32.000Z</time>
        <extensions>
          <ns3:TrackPointExtension>
            <ns3:hr>157</ns3:hr>
            <ns3:cad>0</ns3:cad>
          </ns3:TrackPointExtension>
        </extensions>
      </trkpt>
      <trkpt lat="47.48755917884409427642822265625" lon="10.04407438449561595916748046875">
        <ele>1590</ele>
        <time>2026-09-01T09:41:33.000Z</time>
        <extensions>
          <ns3:TrackPointExtension>
            <ns3:hr>157</ns3:hr>
            <ns3:cad>0</ns3:cad>
          </ns3:TrackPointExtension>
        </extensions>
      </trkpt>
      <trkpt lat="47.4875535629689693450927734375" lon="10.04404488019645214080810546875">
        <ele>1590.5999755859375</ele>
        <time>2026-09-01T09:41:35.000Z</time>
        <extensions>
          <ns3:TrackPointExtension>
            <ns3:hr>156</ns3:hr>
            <ns3:cad>0</ns3:cad>
          </ns3:TrackPointExtension>
        </extensions>
      </trkpt>
      <trkpt lat="47.487557418644428253173828125" lon="10.04397229291498661041259765625">
        <ele>1591.800048828125</ele>
        <time>2026-09-01T09:41:38.000Z</time>
        <extensions>
          <ns3:TrackPointExtension>
            <ns3:hr>156</ns3:hr>
            <ns3:cad>0</ns3:cad>
          </ns3:TrackPointExtension>
        </extensions>
      </trkpt>
      <trkpt lat="47.487562112510204315185546875" lon="10.0439566187560558319091796875">
        <ele>1592</ele>
        <time>2026-09-01T09:41:39.000Z</time>
        <extensions>
          <ns3:TrackPointExtension>
            <ns3:hr>157</ns3:hr>
            <ns3:cad>0</ns3:cad>
          </ns3:TrackPointExtension>
        </extensions>
      </trkpt>
      <trkpt lat="47.4875750206410884857177734375" lon="10.04390037618577480316162109375">
        <ele>1592.800048828125</ele>
        <time>2026-09-01T09:41:42.000Z</time>
        <extensions>
          <ns3:TrackPointExtension>
            <ns3:hr>157</ns3:hr>
            <ns3:cad>0</ns3:cad>
          </ns3:TrackPointExtension>
        </extensions>
      </trkpt>
      <trkpt lat="47.48758566565811634063720703125" lon="10.0438607297837734222412109375">
        <ele>1594.199951171875</ele>
        <time>2026-09-01T09:41:45.000Z</time>
        <extensions>
          <ns3:TrackPointExtension>
            <ns3:hr>157</ns3:hr>
            <ns3:cad>81</ns3:cad>
          </ns3:TrackPointExtension>
        </extensions>
      </trkpt>
      <trkpt lat="47.48757376335561275482177734375" lon="10.043799541890621185302734375">
        <ele>1595.4000244140625</ele>
        <time>2026-09-01T09:41:49.000Z</time>
        <extensions>
          <ns3:TrackPointExtension>
            <ns3:hr>158</ns3:hr>
            <ns3:cad>0</ns3:cad>
          </ns3:TrackPointExtension>
        </extensions>
      </trkpt>
      <trkpt lat="47.48758315108716487884521484375" lon="10.0437842868268489837646484375">
        <ele>1595.5999755859375</ele>
        <time>2026-09-01T09:41:50.000Z</time>
        <extensions>
          <ns3:TrackPointExtension>
            <ns3:hr>158</ns3:hr>
            <ns3:cad>52</ns3:cad>
          </ns3:TrackPointExtension>
        </extensions>
      </trkpt>
      <trkpt lat="47.48759689740836620330810546875" lon="10.043774060904979705810546875">
        <ele>1596</ele>
        <time>2026-09-01T09:41:51.000Z</time>
        <extensions>
          <ns3:TrackPointExtension>
            <ns3:hr>158</ns3:hr>
            <ns3:cad>52</ns3:cad>
          </ns3:TrackPointExtension>
        </extensions>
      </trkpt>
      <trkpt lat="47.487598992884159088134765625" lon="10.043769367039203643798828125">
        <ele>1596.5999755859375</ele>
        <time>2026-09-01T09:41:53.000Z</time>
        <extensions>
          <ns3:TrackPointExtension>
            <ns3:hr>158</ns3:hr>
            <ns3:cad>52</ns3:cad>
          </ns3:TrackPointExtension>
        </extensions>
      </trkpt>
      <trkpt lat="47.487602345645427703857421875" lon="10.0437611527740955352783203125">
        <ele>1597.199951171875</ele>
        <time>2026-09-01T09:41:55.000Z</time>
        <extensions>
          <ns3:TrackPointExtension>
            <ns3:hr>159</ns3:hr>
            <ns3:cad>56</ns3:cad>
          </ns3:TrackPointExtension>
        </extensions>
      </trkpt>
      <trkpt lat="47.4876035191118717193603515625" lon="10.04375017248094081878662109375">
        <ele>1597.5999755859375</ele>
        <time>2026-09-01T09:41:56.000Z</time>
        <extensions>
          <ns3:TrackPointExtension>
            <ns3:hr>160</ns3:hr>
            <ns3:cad>0</ns3:cad>
          </ns3:TrackPointExtension>
        </extensions>
      </trkpt>
      <trkpt lat="47.48760125599801540374755859375" lon="10.04372335039079189300537109375">
        <ele>1598.800048828125</ele>
        <time>2026-09-01T09:41:59.000Z</time>
        <extensions>
          <ns3:TrackPointExtension>
            <ns3:hr>160</ns3:hr>
            <ns3:cad>0</ns3:cad>
          </ns3:TrackPointExtension>
        </extensions>
      </trkpt>
      <trkpt lat="47.4875927902758121490478515625" lon="10.04366233013570308685302734375">
        <ele>1599.4000244140625</ele>
        <time>2026-09-01T09:42:02.000Z</time>
        <extensions>
          <ns3:TrackPointExtension>
            <ns3:hr>160</ns3:hr>
            <ns3:cad>47</ns3:cad>
          </ns3:TrackPointExtension>
        </extensions>
      </trkpt>
      <trkpt lat="47.4875911138951778411865234375" lon="10.043638609349727630615234375">
        <ele>1599.800048828125</ele>
        <time>2026-09-01T09:42:03.000Z</time>
        <extensions>
          <ns3:TrackPointExtension>
            <ns3:hr>160</ns3:hr>
            <ns3:cad>47</ns3:cad>
          </ns3:TrackPointExtension>
        </extensions>
      </trkpt>
      <trkpt lat="47.48757795430719852447509765625" lon="10.04354565404355525970458984375">
        <ele>1600.5999755859375</ele>
        <time>2026-09-01T09:42:07.000Z</time>
        <extensions>
          <ns3:TrackPointExtension>
            <ns3:hr>163</ns3:hr>
            <ns3:cad>0</ns3:cad>
          </ns3:TrackPointExtension>
        </extensions>
      </trkpt>
      <trkpt lat="47.4875820614397525787353515625" lon="10.04353626631200313568115234375">
        <ele>1600.800048828125</ele>
        <time>2026-09-01T09:42:08.000Z</time>
        <extensions>
          <ns3:TrackPointExtension>
            <ns3:hr>163</ns3:hr>
            <ns3:cad>0</ns3:cad>
          </ns3:TrackPointExtension>
        </extensions>
      </trkpt>
      <trkpt lat="47.4875844083726406097412109375" lon="10.0435264594852924346923828125">
        <ele>1601</ele>
        <time>2026-09-01T09:42:09.000Z</time>
        <extensions>
          <ns3:TrackPointExtension>
            <ns3:hr>164</ns3:hr>
            <ns3:cad>0</ns3:cad>
          </ns3:TrackPointExtension>
        </extensions>
      </trkpt>
      <trkpt lat="47.48757694847881793975830078125" lon="10.0435029901564121246337890625">
        <ele>1602</ele>
        <time>2026-09-01T09:42:12.000Z</time>
        <extensions>
          <ns3:TrackPointExtension>
            <ns3:hr>164</ns3:hr>
            <ns3:cad>0</ns3:cad>
          </ns3:TrackPointExtension>
        </extensions>
      </trkpt>
      <trkpt lat="47.487577535212039947509765625" lon="10.0434704683721065521240234375">
        <ele>1603</ele>
        <time>2026-09-01T09:42:15.000Z</time>
        <extensions>
          <ns3:TrackPointExtension>
            <ns3:hr>164</ns3:hr>
            <ns3:cad>0</ns3:cad>
          </ns3:TrackPointExtension>
        </extensions>
      </trkpt>
      <trkpt lat="47.487572841346263885498046875" lon="10.04342881031334400177001953125">
        <ele>1604.199951171875</ele>
        <time>2026-09-01T09:42:20.000Z</time>
        <extensions>
          <ns3:TrackPointExtension>
            <ns3:hr>163</ns3:hr>
            <ns3:cad>0</ns3:cad>
          </ns3:TrackPointExtension>
        </extensions>
      </trkpt>
      <trkpt lat="47.48758298344910144805908203125" lon="10.0433604978024959564208984375">
        <ele>1605.199951171875</ele>
        <time>2026-09-01T09:42:24.000Z</time>
        <extensions>
          <ns3:TrackPointExtension>
            <ns3:hr>163</ns3:hr>
            <ns3:cad>57</ns3:cad>
          </ns3:TrackPointExtension>
        </extensions>
      </trkpt>
      <trkpt lat="47.4875830672681331634521484375" lon="10.04334532655775547027587890625">
        <ele>1605.4000244140625</ele>
        <time>2026-09-01T09:42:25.000Z</time>
        <extensions>
          <ns3:TrackPointExtension>
            <ns3:hr>162</ns3:hr>
            <ns3:cad>57</ns3:cad>
          </ns3:TrackPointExtension>
        </extensions>
      </trkpt>
      <trkpt lat="47.48757258988916873931884765625" lon="10.043279863893985748291015625">
        <ele>1606.4000244140625</ele>
        <time>2026-09-01T09:42:29.000Z</time>
        <extensions>
          <ns3:TrackPointExtension>
            <ns3:hr>163</ns3:hr>
            <ns3:cad>57</ns3:cad>
          </ns3:TrackPointExtension>
        </extensions>
      </trkpt>
      <trkpt lat="47.48756722547113895416259765625" lon="10.04326167516410350799560546875">
        <ele>1606.5999755859375</ele>
        <time>2026-09-01T09:42:30.000Z</time>
        <extensions>
          <ns3:TrackPointExtension>
            <ns3:hr>163</ns3:hr>
            <ns3:cad>57</ns3:cad>
          </ns3:TrackPointExtension>
        </extensions>
      </trkpt>
      <trkpt lat="47.48755062930285930633544921875" lon="10.04317802377045154571533203125">
        <ele>1607</ele>
        <time>2026-09-01T09:42:34.000Z</time>
        <extensions>
          <ns3:TrackPointExtension>
            <ns3:hr>160</ns3:hr>
            <ns3:cad>0</ns3:cad>
          </ns3:TrackPointExtension>
        </extensions>
      </trkpt>
      <trkpt lat="47.48754375614225864410400390625" lon="10.0431204400956630706787109375">
        <ele>1607</ele>
        <time>2026-09-01T09:42:36.000Z</time>
        <extensions>
          <ns3:TrackPointExtension>
            <ns3:hr>161</ns3:hr>
            <ns3:cad>0</ns3:cad>
          </ns3:TrackPointExtension>
        </extensions>
      </trkpt>
      <trkpt lat="47.4875230528414249420166015625" lon="10.04296948201954364776611328125">
        <ele>1606</ele>
        <time>2026-09-01T09:42:40.000Z</time>
        <extensions>
          <ns3:TrackPointExtension>
            <ns3:hr>162</ns3:hr>
            <ns3:cad>0</ns3:cad>
          </ns3:TrackPointExtension>
        </extensions>
      </trkpt>
      <trkpt lat="47.48751475475728511810302734375" lon="10.04292472265660762786865234375">
        <ele>1605.800048828125</ele>
        <time>2026-09-01T09:42:41.000Z</time>
        <extensions>
          <ns3:TrackPointExtension>
            <ns3:hr>161</ns3:hr>
            <ns3:cad>80</ns3:cad>
          </ns3:TrackPointExtension>
        </extensions>
      </trkpt>
      <trkpt lat="47.48749815858900547027587890625" lon="10.0428314320743083953857421875">
        <ele>1605.4000244140625</ele>
        <time>2026-09-01T09:42:45.000Z</time>
        <extensions>
          <ns3:TrackPointExtension>
            <ns3:hr>160</ns3:hr>
            <ns3:cad>82</ns3:cad>
          </ns3:TrackPointExtension>
        </extensions>
      </trkpt>
      <trkpt lat="47.487493716180324554443359375" lon="10.04278642125427722930908203125">
        <ele>1604.4000244140625</ele>
        <time>2026-09-01T09:42:49.000Z</time>
        <extensions>
          <ns3:TrackPointExtension>
            <ns3:hr>159</ns3:hr>
            <ns3:cad>82</ns3:cad>
          </ns3:TrackPointExtension>
        </extensions>
      </trkpt>
      <trkpt lat="47.48749245889484882354736328125" lon="10.0426704995334148406982421875">
        <ele>1604.800048828125</ele>
        <time>2026-09-01T09:42:52.000Z</time>
        <extensions>
          <ns3:TrackPointExtension>
            <ns3:hr>158</ns3:hr>
            <ns3:cad>0</ns3:cad>
          </ns3:TrackPointExtension>
        </extensions>
      </trkpt>
      <trkpt lat="47.48748525045812129974365234375" lon="10.04253429360687732696533203125">
        <ele>1605.4000244140625</ele>
        <time>2026-09-01T09:42:57.000Z</time>
        <extensions>
          <ns3:TrackPointExtension>
            <ns3:hr>157</ns3:hr>
            <ns3:cad>85</ns3:cad>
          </ns3:TrackPointExtension>
        </extensions>
      </trkpt>
      <trkpt lat="47.48747871257364749908447265625" lon="10.04245952703058719635009765625">
        <ele>1605.199951171875</ele>
        <time>2026-09-01T09:43:02.000Z</time>
        <extensions>
          <ns3:TrackPointExtension>
            <ns3:hr>157</ns3:hr>
            <ns3:cad>85</ns3:cad>
          </ns3:TrackPointExtension>
        </extensions>
      </trkpt>
      <trkpt lat="47.4874741025269031524658203125" lon="10.0423506461083889007568359375">
        <ele>1604.800048828125</ele>
        <time>2026-09-01T09:43:05.000Z</time>
        <extensions>
          <ns3:TrackPointExtension>
            <ns3:hr>156</ns3:hr>
            <ns3:cad>85</ns3:cad>
          </ns3:TrackPointExtension>
        </extensions>
      </trkpt>
      <trkpt lat="47.487483322620391845703125" lon="10.042303539812564849853515625">
        <ele>1604.199951171875</ele>
        <time>2026-09-01T09:43:07.000Z</time>
        <extensions>
          <ns3:TrackPointExtension>
            <ns3:hr>156</ns3:hr>
            <ns3:cad>0</ns3:cad>
          </ns3:TrackPointExtension>
        </extensions>
      </trkpt>
      <trkpt lat="47.487491704523563385009765625" lon="10.0423211418092250823974609375">
        <ele>1603.800048828125</ele>
        <time>2026-09-01T09:43:09.000Z</time>
        <extensions>
          <ns3:TrackPointExtension>
            <ns3:hr>156</ns3:hr>
            <ns3:cad>0</ns3:cad>
          </ns3:TrackPointExtension>
        </extensions>
      </trkpt>
      <trkpt lat="47.48751861043274402618408203125" lon="10.042340420186519622802734375">
        <ele>1603</ele>
        <time>2026-09-01T09:43:11.000Z</time>
        <extensions>
          <ns3:TrackPointExtension>
            <ns3:hr>155</ns3:hr>
            <ns3:cad>80</ns3:cad>
          </ns3:TrackPointExtension>
        </extensions>
      </trkpt>
      <trkpt lat="47.48754023574292659759521484375" lon="10.04233983345329761505126953125">
        <ele>1601.5999755859375</ele>
        <time>2026-09-01T09:43:13.000Z</time>
        <extensions>
          <ns3:TrackPointExtension>
            <ns3:hr>155</ns3:hr>
            <ns3:cad>80</ns3:cad>
          </ns3:TrackPointExtension>
        </extensions>
      </trkpt>
      <trkpt lat="47.48754291795194149017333984375" lon="10.0423288531601428985595703125">
        <ele>1600.5999755859375</ele>
        <time>2026-09-01T09:43:15.000Z</time>
        <extensions>
          <ns3:TrackPointExtension>
            <ns3:hr>155</ns3:hr>
            <ns3:cad>80</ns3:cad>
          </ns3:TrackPointExtension>
        </extensions>
      </trkpt>
      <trkpt lat="47.48754627071321010589599609375" lon="10.042321979999542236328125">
        <ele>1600.4000244140625</ele>
        <time>2026-09-01T09:43:16.000Z</time>
        <extensions>
          <ns3:TrackPointExtension>
            <ns3:hr>154</ns3:hr>
            <ns3:cad>0</ns3:cad>
          </ns3:TrackPointExtension>
        </extensions>
      </trkpt>
      <trkpt lat="47.48753302730619907379150390625" lon="10.04222919233143329620361328125">
        <ele>1600.5999755859375</ele>
        <time>2026-09-01T09:43:19.000Z</time>
        <extensions>
          <ns3:TrackPointExtension>
            <ns3:hr>151</ns3:hr>
            <ns3:cad>0</ns3:cad>
          </ns3:TrackPointExtension>
        </extensions>
      </trkpt>
      <trkpt lat="47.48752548359334468841552734375" lon="10.04218694753944873809814453125">
        <ele>1600.4000244140625</ele>
        <time>2026-09-01T09:43:20.000Z</time>
        <extensions>
          <ns3:TrackPointExtension>
            <ns3:hr>150</ns3:hr>
            <ns3:cad>0</ns3:cad>
          </ns3:TrackPointExtension>
        </extensions>
      </trkpt>
      <trkpt lat="47.48751307837665081024169921875" lon="10.04206088371574878692626953125">
        <ele>1600.4000244140625</ele>
        <time>2026-09-01T09:43:23.000Z</time>
        <extensions>
          <ns3:TrackPointExtension>
            <ns3:hr>151</ns3:hr>
            <ns3:cad>85</ns3:cad>
          </ns3:TrackPointExtension>
        </extensions>
      </trkpt>
      <trkpt lat="47.48753185383975505828857421875" lon="10.04205384291708469390869140625">
        <ele>1601.199951171875</ele>
        <time>2026-09-01T09:43:26.000Z</time>
        <extensions>
          <ns3:TrackPointExtension>
            <ns3:hr>150</ns3:hr>
            <ns3:cad>43</ns3:cad>
          </ns3:TrackPointExtension>
        </extensions>
      </trkpt>
      <trkpt lat="47.48753604479134082794189453125" lon="10.04205032251775264739990234375">
        <ele>1601.5999755859375</ele>
        <time>2026-09-01T09:43:27.000Z</time>
        <extensions>
          <ns3:TrackPointExtension>
            <ns3:hr>149</ns3:hr>
            <ns3:cad>0</ns3:cad>
          </ns3:TrackPointExtension>
        </extensions>
      </trkpt>
      <trkpt lat="47.4875532276928424835205078125" lon="10.0420294515788555145263671875">
        <ele>1602.800048828125</ele>
        <time>2026-09-01T09:43:30.000Z</time>
        <extensions>
          <ns3:TrackPointExtension>
            <ns3:hr>148</ns3:hr>
            <ns3:cad>0</ns3:cad>
          </ns3:TrackPointExtension>
        </extensions>
      </trkpt>
      <trkpt lat="47.48758482746779918670654296875" lon="10.0420126877725124359130859375">
        <ele>1603.800048828125</ele>
        <time>2026-09-01T09:43:33.000Z</time>
        <extensions>
          <ns3:TrackPointExtension>
            <ns3:hr>149</ns3:hr>
            <ns3:cad>0</ns3:cad>
          </ns3:TrackPointExtension>
        </extensions>
      </trkpt>
      <trkpt lat="47.4876290000975131988525390625" lon="10.04197438247501850128173828125">
        <ele>1605</ele>
        <time>2026-09-01T09:43:37.000Z</time>
        <extensions>
          <ns3:TrackPointExtension>
            <ns3:hr>151</ns3:hr>
            <ns3:cad>0</ns3:cad>
          </ns3:TrackPointExtension>
        </extensions>
      </trkpt>
      <trkpt lat="47.4876375496387481689453125" lon="10.04195577464997768402099609375">
        <ele>1605.4000244140625</ele>
        <time>2026-09-01T09:43:38.000Z</time>
        <extensions>
          <ns3:TrackPointExtension>
            <ns3:hr>151</ns3:hr>
            <ns3:cad>0</ns3:cad>
          </ns3:TrackPointExtension>
        </extensions>
      </trkpt>
      <trkpt lat="47.48771122656762599945068359375" lon="10.0418142043054103851318359375">
        <ele>1606.199951171875</ele>
        <time>2026-09-01T09:43:43.000Z</time>
        <extensions>
          <ns3:TrackPointExtension>
            <ns3:hr>153</ns3:hr>
            <ns3:cad>83</ns3:cad>
          </ns3:TrackPointExtension>
        </extensions>
      </trkpt>
      <trkpt lat="47.4877463467419147491455078125" lon="10.04176349379122257232666015625">
        <ele>1607.4000244140625</ele>
        <time>2026-09-01T09:43:48.000Z</time>
        <extensions>
          <ns3:TrackPointExtension>
            <ns3:hr>153</ns3:hr>
            <ns3:cad>85</ns3:cad>
          </ns3:TrackPointExtension>
        </extensions>
      </trkpt>
      <trkpt lat="47.487743832170963287353515625" lon="10.04174639470875263214111328125">
        <ele>1607.5999755859375</ele>
        <time>2026-09-01T09:43:49.000Z</time>
        <extensions>
          <ns3:TrackPointExtension>
            <ns3:hr>153</ns3:hr>
            <ns3:cad>85</ns3:cad>
          </ns3:TrackPointExtension>
        </extensions>
      </trkpt>
      <trkpt lat="47.48774659819900989532470703125" lon="10.0417010486125946044921875">
        <ele>1608.5999755859375</ele>
        <time>2026-09-01T09:43:52.000Z</time>
        <extensions>
          <ns3:TrackPointExtension>
            <ns3:hr>155</ns3:hr>
            <ns3:cad>85</ns3:cad>
          </ns3:TrackPointExtension>
        </extensions>
      </trkpt>
      <trkpt lat="47.4877406470477581024169921875" lon="10.04168956540524959564208984375">
        <ele>1609</ele>
        <time>2026-09-01T09:43:53.000Z</time>
        <extensions>
          <ns3:TrackPointExtension>
            <ns3:hr>155</ns3:hr>
            <ns3:cad>0</ns3:cad>
          </ns3:TrackPointExtension>
        </extensions>
      </trkpt>
      <trkpt lat="47.48774441890418529510498046875" lon="10.04167146049439907073974609375">
        <ele>1609.800048828125</ele>
        <time>2026-09-01T09:43:55.000Z</time>
        <extensions>
          <ns3:TrackPointExtension>
            <ns3:hr>156</ns3:hr>
            <ns3:cad>0</ns3:cad>
          </ns3:TrackPointExtension>
        </extensions>
      </trkpt>
      <trkpt lat="47.48777140863239765167236328125" lon="10.04165754653513431549072265625">
        <ele>1611</ele>
        <time>2026-09-01T09:43:59.000Z</time>
        <extensions>
          <ns3:TrackPointExtension>
            <ns3:hr>156</ns3:hr>
            <ns3:cad>47</ns3:cad>
          </ns3:TrackPointExtension>
        </extensions>
      </trkpt>
      <trkpt lat="47.4877797067165374755859375" lon="10.04163290373980998992919921875">
        <ele>1612.199951171875</ele>
        <time>2026-09-01T09:44:02.000Z</time>
        <extensions>
          <ns3:TrackPointExtension>
            <ns3:hr>157</ns3:hr>
            <ns3:cad>49</ns3:cad>
          </ns3:TrackPointExtension>
        </extensions>
      </trkpt>
      <trkpt lat="47.48779118992388248443603515625" lon="10.041576661169528961181640625">
        <ele>1613.4000244140625</ele>
        <time>2026-09-01T09:44:06.000Z</time>
        <extensions>
          <ns3:TrackPointExtension>
            <ns3:hr>159</ns3:hr>
            <ns3:cad>49</ns3:cad>
          </ns3:TrackPointExtension>
        </extensions>
      </trkpt>
      <trkpt lat="47.487822957336902618408203125" lon="10.0414695404469966888427734375">
        <ele>1614.5999755859375</ele>
        <time>2026-09-01T09:44:10.000Z</time>
        <extensions>
          <ns3:TrackPointExtension>
            <ns3:hr>160</ns3:hr>
            <ns3:cad>49</ns3:cad>
          </ns3:TrackPointExtension>
        </extensions>
      </trkpt>
      <trkpt lat="47.4878553114831447601318359375" lon="10.0413833744823932647705078125">
        <ele>1616</ele>
        <time>2026-09-01T09:44:14.000Z</time>
        <extensions>
          <ns3:TrackPointExtension>
            <ns3:hr>160</ns3:hr>
            <ns3:cad>83</ns3:cad>
          </ns3:TrackPointExtension>
        </extensions>
      </trkpt>
      <trkpt lat="47.487890012562274932861328125" lon="10.0412931852042675018310546875">
        <ele>1616.5999755859375</ele>
        <time>2026-09-01T09:44:17.000Z</time>
        <extensions>
          <ns3:TrackPointExtension>
            <ns3:hr>161</ns3:hr>
            <ns3:cad>82</ns3:cad>
          </ns3:TrackPointExtension>
        </extensions>
      </trkpt>
      <trkpt lat="47.4878952093422412872314453125" lon="10.0411962904036045074462890625">
        <ele>1617</ele>
        <time>2026-09-01T09:44:20.000Z</time>
        <extensions>
          <ns3:TrackPointExtension>
            <ns3:hr>161</ns3:hr>
            <ns3:cad>84</ns3:cad>
          </ns3:TrackPointExtension>
        </extensions>
      </trkpt>
      <trkpt lat="47.48789646662771701812744140625" lon="10.0411694683134555816650390625">
        <ele>1617</ele>
        <time>2026-09-01T09:44:21.000Z</time>
        <extensions>
          <ns3:TrackPointExtension>
            <ns3:hr>162</ns3:hr>
            <ns3:cad>84</ns3:cad>
          </ns3:TrackPointExtension>
        </extensions>
      </trkpt>
      <trkpt lat="47.48793804086744785308837890625" lon="10.04104482941329479217529296875">
        <ele>1618</ele>
        <time>2026-09-01T09:44:26.000Z</time>
        <extensions>
          <ns3:TrackPointExtension>
            <ns3:hr>160</ns3:hr>
            <ns3:cad>83</ns3:cad>
          </ns3:TrackPointExtension>
        </extensions>
      </trkpt>
      <trkpt lat="47.48795715160667896270751953125" lon="10.040973834693431854248046875">
        <ele>1619</ele>
        <time>2026-09-01T09:44:29.000Z</time>
        <extensions>
          <ns3:TrackPointExtension>
            <ns3:hr>160</ns3:hr>
            <ns3:cad>85</ns3:cad>
          </ns3:TrackPointExtension>
        </extensions>
      </trkpt>
      <trkpt lat="47.48796720989048480987548828125" lon="10.04094927571713924407958984375">
        <ele>1619.4000244140625</ele>
        <time>2026-09-01T09:44:30.000Z</time>
        <extensions>
          <ns3:TrackPointExtension>
            <ns3:hr>160</ns3:hr>
            <ns3:cad>85</ns3:cad>
          </ns3:TrackPointExtension>
        </extensions>
      </trkpt>
      <trkpt lat="47.4879847280681133270263671875" lon="10.04089043475687503814697265625">
        <ele>1620.4000244140625</ele>
        <time>2026-09-01T09:44:33.000Z</time>
        <extensions>
          <ns3:TrackPointExtension>
            <ns3:hr>159</ns3:hr>
            <ns3:cad>85</ns3:cad>
          </ns3:TrackPointExtension>
        </extensions>
      </trkpt>
      <trkpt lat="47.4879910983145236968994140625" lon="10.04085824824869632720947265625">
        <ele>1620.800048828125</ele>
        <time>2026-09-01T09:44:34.000Z</time>
        <extensions>
          <ns3:TrackPointExtension>
            <ns3:hr>160</ns3:hr>
            <ns3:cad>85</ns3:cad>
          </ns3:TrackPointExtension>
        </extensions>
      </trkpt>
      <trkpt lat="47.487998306751251220703125" lon="10.04080611281096935272216796875">
        <ele>1621.5999755859375</ele>
        <time>2026-09-01T09:44:36.000Z</time>
        <extensions>
          <ns3:TrackPointExtension>
            <ns3:hr>160</ns3:hr>
            <ns3:cad>86</ns3:cad>
          </ns3:TrackPointExtension>
        </extensions>
      </trkpt>
      <trkpt lat="47.48800341971218585968017578125" lon="10.04077325575053691864013671875">
        <ele>1621.800048828125</ele>
        <time>2026-09-01T09:44:37.000Z</time>
        <extensions>
          <ns3:TrackPointExtension>
            <ns3:hr>160</ns3:hr>
            <ns3:cad>87</ns3:cad>
          </ns3:TrackPointExtension>
        </extensions>
      </trkpt>
      <trkpt lat="47.48802353627979755401611328125" lon="10.04067736677825450897216796875">
        <ele>1622.5999755859375</ele>
        <time>2026-09-01T09:44:40.000Z</time>
        <extensions>
          <ns3:TrackPointExtension>
            <ns3:hr>161</ns3:hr>
            <ns3:cad>84</ns3:cad>
          </ns3:TrackPointExtension>
        </extensions>
      </trkpt>
      <trkpt lat="47.488028816878795623779296875" lon="10.04064903594553470611572265625">
        <ele>1622.800048828125</ele>
        <time>2026-09-01T09:44:41.000Z</time>
        <extensions>
          <ns3:TrackPointExtension>
            <ns3:hr>161</ns3:hr>
            <ns3:cad>84</ns3:cad>
          </ns3:TrackPointExtension>
        </extensions>
      </trkpt>
      <trkpt lat="47.4880179204046726226806640625" lon="10.0406256504356861114501953125">
        <ele>1622.5999755859375</ele>
        <time>2026-09-01T09:44:42.000Z</time>
        <extensions>
          <ns3:TrackPointExtension>
            <ns3:hr>161</ns3:hr>
            <ns3:cad>85</ns3:cad>
          </ns3:TrackPointExtension>
        </extensions>
      </trkpt>
      <trkpt lat="47.48800274915993213653564453125" lon="10.04060545004904270172119140625">
        <ele>1622.5999755859375</ele>
        <time>2026-09-01T09:44:43.000Z</time>
        <extensions>
          <ns3:TrackPointExtension>
            <ns3:hr>161</ns3:hr>
            <ns3:cad>85</ns3:cad>
          </ns3:TrackPointExtension>
        </extensions>
      </trkpt>
      <trkpt lat="47.48797215521335601806640625" lon="10.04055499099195003509521484375">
        <ele>1621.5999755859375</ele>
        <time>2026-09-01T09:44:45.000Z</time>
        <extensions>
          <ns3:TrackPointExtension>
            <ns3:hr>161</ns3:hr>
            <ns3:cad>84</ns3:cad>
          </ns3:TrackPointExtension>
        </extensions>
      </trkpt>
      <trkpt lat="47.487928234040737152099609375" lon="10.04051911644637584686279296875">
        <ele>1619.800048828125</ele>
        <time>2026-09-01T09:44:47.000Z</time>
        <extensions>
          <ns3:TrackPointExtension>
            <ns3:hr>161</ns3:hr>
            <ns3:cad>84</ns3:cad>
          </ns3:TrackPointExtension>
        </extensions>
      </trkpt>
      <trkpt lat="47.48790618963539600372314453125" lon="10.0404570065438747406005859375">
        <ele>1618</ele>
        <time>2026-09-01T09:44:49.000Z</time>
        <extensions>
          <ns3:TrackPointExtension>
            <ns3:hr>161</ns3:hr>
            <ns3:cad>84</ns3:cad>
          </ns3:TrackPointExtension>
        </extensions>
      </trkpt>
      <trkpt lat="47.48789168894290924072265625" lon="10.0403733551502227783203125">
        <ele>1616.5999755859375</ele>
        <time>2026-09-01T09:44:51.000Z</time>
        <extensions>
          <ns3:TrackPointExtension>
            <ns3:hr>161</ns3:hr>
            <ns3:cad>84</ns3:cad>
          </ns3:TrackPointExtension>
        </extensions>
      </trkpt>
      <trkpt lat="47.48787735588848590850830078125" lon="10.04031258635222911834716796875">
        <ele>1615.199951171875</ele>
        <time>2026-09-01T09:44:53.000Z</time>
        <extensions>
          <ns3:TrackPointExtension>
            <ns3:hr>162</ns3:hr>
            <ns3:cad>84</ns3:cad>
          </ns3:TrackPointExtension>
        </extensions>
      </trkpt>
      <trkpt lat="47.487871237099170684814453125" lon="10.04026363603770732879638671875">
        <ele>1614</ele>
        <time>2026-09-01T09:44:55.000Z</time>
        <extensions>
          <ns3:TrackPointExtension>
            <ns3:hr>162</ns3:hr>
            <ns3:cad>84</ns3:cad>
          </ns3:TrackPointExtension>
        </extensions>
      </trkpt>
      <trkpt lat="47.487890012562274932861328125" lon="10.040256679058074951171875">
        <ele>1613.199951171875</ele>
        <time>2026-09-01T09:44:57.000Z</time>
        <extensions>
          <ns3:TrackPointExtension>
            <ns3:hr>162</ns3:hr>
            <ns3:cad>84</ns3:cad>
          </ns3:TrackPointExtension>
        </extensions>
      </trkpt>
      <trkpt lat="47.4879136495292186737060546875" lon="10.0402712635695934295654296875">
        <ele>1613</ele>
        <time>2026-09-01T09:44:58.000Z</time>
        <extensions>
          <ns3:TrackPointExtension>
            <ns3:hr>161</ns3:hr>
            <ns3:cad>84</ns3:cad>
          </ns3:TrackPointExtension>
        </extensions>
      </trkpt>
      <trkpt lat="47.4879942834377288818359375" lon="10.040272772312164306640625">
        <ele>1611.5999755859375</ele>
        <time>2026-09-01T09:45:01.000Z</time>
        <extensions>
          <ns3:TrackPointExtension>
            <ns3:hr>161</ns3:hr>
            <ns3:cad>84</ns3:cad>
          </ns3:TrackPointExtension>
        </extensions>
      </trkpt>
      <trkpt lat="47.4880725704133510589599609375" lon="10.04025273956358432769775390625">
        <ele>1610.4000244140625</ele>
        <time>2026-09-01T09:45:03.000Z</time>
        <extensions>
          <ns3:TrackPointExtension>
            <ns3:hr>159</ns3:hr>
            <ns3:cad>84</ns3:cad>
          </ns3:TrackPointExtension>
        </extensions>
      </trkpt>
      <trkpt lat="47.4881418049335479736328125" lon="10.040225498378276824951171875">
        <ele>1609.199951171875</ele>
        <time>2026-09-01T09:45:05.000Z</time>
        <extensions>
          <ns3:TrackPointExtension>
            <ns3:hr>158</ns3:hr>
            <ns3:cad>84</ns3:cad>
          </ns3:TrackPointExtension>
        </extensions>
      </trkpt>
      <trkpt lat="47.48821330256760120391845703125" lon="10.0401777215301990509033203125">
        <ele>1608</ele>
        <time>2026-09-01T09:45:07.000Z</time>
        <extensions>
          <ns3:TrackPointExtension>
            <ns3:hr>158</ns3:hr>
            <ns3:cad>83</ns3:cad>
          </ns3:TrackPointExtension>
        </extensions>
      </trkpt>
      <trkpt lat="47.488261498510837554931640625" lon="10.0401555933058261871337890625">
        <ele>1607.4000244140625</ele>
        <time>2026-09-01T09:45:08.000Z</time>
        <extensions>
          <ns3:TrackPointExtension>
            <ns3:hr>157</ns3:hr>
            <ns3:cad>83</ns3:cad>
          </ns3:TrackPointExtension>
        </extensions>
      </trkpt>
      <trkpt lat="47.48831355012953281402587890625" lon="10.04009180702269077301025390625">
        <ele>1606.5999755859375</ele>
        <time>2026-09-01T09:45:10.000Z</time>
        <extensions>
          <ns3:TrackPointExtension>
            <ns3:hr>157</ns3:hr>
            <ns3:cad>84</ns3:cad>
          </ns3:TrackPointExtension>
        </extensions>
      </trkpt>
      <trkpt lat="47.48831841163337230682373046875" lon="10.04003883339464664459228515625">
        <ele>1606</ele>
        <time>2026-09-01T09:45:11.000Z</time>
        <extensions>
          <ns3:TrackPointExtension>
            <ns3:hr>157</ns3:hr>
            <ns3:cad>84</ns3:cad>
          </ns3:TrackPointExtension>
        </extensions>
      </trkpt>
      <trkpt lat="47.48834003694355487823486328125" lon="10.0399088300764560699462890625">
        <ele>1605.800048828125</ele>
        <time>2026-09-01T09:45:14.000Z</time>
        <extensions>
          <ns3:TrackPointExtension>
            <ns3:hr>155</ns3:hr>
            <ns3:cad>85</ns3:cad>
          </ns3:TrackPointExtension>
        </extensions>
      </trkpt>
      <trkpt lat="47.48834590427577495574951171875" lon="10.039754770696163177490234375">
        <ele>1606</ele>
        <time>2026-09-01T09:45:17.000Z</time>
        <extensions>
          <ns3:TrackPointExtension>
            <ns3:hr>154</ns3:hr>
            <ns3:cad>86</ns3:cad>
          </ns3:TrackPointExtension>
        </extensions>
      </trkpt>
      <trkpt lat="47.4883894063532352447509765625" lon="10.0396768189966678619384765625">
        <ele>1606.5999755859375</ele>
        <time>2026-09-01T09:45:20.000Z</time>
        <extensions>
          <ns3:TrackPointExtension>
            <ns3:hr>153</ns3:hr>
            <ns3:cad>87</ns3:cad>
          </ns3:TrackPointExtension>
        </extensions>
      </trkpt>
      <trkpt lat="47.4884547851979732513427734375" lon="10.0395834445953369140625">
        <ele>1607.5999755859375</ele>
        <time>2026-09-01T09:45:24.000Z</time>
        <extensions>
          <ns3:TrackPointExtension>
            <ns3:hr>153</ns3:hr>
            <ns3:cad>86</ns3:cad>
          </ns3:TrackPointExtension>
        </extensions>
      </trkpt>
      <trkpt lat="47.48849007301032543182373046875" lon="10.03947280347347259521484375">
        <ele>1608.800048828125</ele>
        <time>2026-09-01T09:45:28.000Z</time>
        <extensions>
          <ns3:TrackPointExtension>
            <ns3:hr>154</ns3:hr>
            <ns3:cad>84</ns3:cad>
          </ns3:TrackPointExtension>
        </extensions>
      </trkpt>
      <trkpt lat="47.48849518597126007080078125" lon="10.03943567164242267608642578125">
        <ele>1609</ele>
        <time>2026-09-01T09:45:29.000Z</time>
        <extensions>
          <ns3:TrackPointExtension>
            <ns3:hr>155</ns3:hr>
            <ns3:cad>84</ns3:cad>
          </ns3:TrackPointExtension>
        </extensions>
      </trkpt>
      <trkpt lat="47.48851438052952289581298828125" lon="10.03936476074159145355224609375">
        <ele>1609.800048828125</ele>
        <time>2026-09-01T09:45:32.000Z</time>
        <extensions>
          <ns3:TrackPointExtension>
            <ns3:hr>156</ns3:hr>
            <ns3:cad>85</ns3:cad>
          </ns3:TrackPointExtension>
        </extensions>
      </trkpt>
      <trkpt lat="47.48856366612017154693603515625" lon="10.0392862223088741302490234375">
        <ele>1611</ele>
        <time>2026-09-01T09:45:36.000Z</time>
        <extensions>
          <ns3:TrackPointExtension>
            <ns3:hr>156</ns3:hr>
            <ns3:cad>86</ns3:cad>
          </ns3:TrackPointExtension>
        </extensions>
      </trkpt>
      <trkpt lat="47.48857003636658191680908203125" lon="10.0392671115696430206298828125">
        <ele>1611.4000244140625</ele>
        <time>2026-09-01T09:45:37.000Z</time>
        <extensions>
          <ns3:TrackPointExtension>
            <ns3:hr>157</ns3:hr>
            <ns3:cad>85</ns3:cad>
          </ns3:TrackPointExtension>
        </extensions>
      </trkpt>
      <trkpt lat="47.4885825254023075103759765625" lon="10.039256550371646881103515625">
        <ele>1612</ele>
        <time>2026-09-01T09:45:39.000Z</time>
        <extensions>
          <ns3:TrackPointExtension>
            <ns3:hr>157</ns3:hr>
            <ns3:cad>85</ns3:cad>
          </ns3:TrackPointExtension>
        </extensions>
      </trkpt>
      <trkpt lat="47.488604150712490081787109375" lon="10.03925294615328311920166015625">
        <ele>1612.800048828125</ele>
        <time>2026-09-01T09:45:41.000Z</time>
        <extensions>
          <ns3:TrackPointExtension>
            <ns3:hr>157</ns3:hr>
            <ns3:cad>85</ns3:cad>
          </ns3:TrackPointExtension>
        </extensions>
      </trkpt>
      <trkpt lat="47.48861496336758136749267578125" lon="10.03925479017198085784912109375">
        <ele>1613.199951171875</ele>
        <time>2026-09-01T09:45:42.000Z</time>
        <extensions>
          <ns3:TrackPointExtension>
            <ns3:hr>157</ns3:hr>
            <ns3:cad>85</ns3:cad>
          </ns3:TrackPointExtension>
        </extensions>
      </trkpt>
      <trkpt lat="47.4886804260313510894775390625" lon="10.039202235639095306396484375">
        <ele>1612.4000244140625</ele>
        <time>2026-09-01T09:45:45.000Z</time>
        <extensions>
          <ns3:TrackPointExtension>
            <ns3:hr>157</ns3:hr>
            <ns3:cad>0</ns3:cad>
          </ns3:TrackPointExtension>
        </extensions>
      </trkpt>
      <trkpt lat="47.48869442380964756011962890625" lon="10.03916594199836254119873046875">
        <ele>1612</ele>
        <time>2026-09-01T09:45:46.000Z</time>
        <extensions>
          <ns3:TrackPointExtension>
            <ns3:hr>157</ns3:hr>
            <ns3:cad>0</ns3:cad>
          </ns3:TrackPointExtension>
        </extensions>
      </trkpt>
      <trkpt lat="47.48872661031782627105712890625" lon="10.0390255451202392578125">
        <ele>1611.199951171875</ele>
        <time>2026-09-01T09:45:49.000Z</time>
        <extensions>
          <ns3:TrackPointExtension>
            <ns3:hr>157</ns3:hr>
            <ns3:cad>0</ns3:cad>
          </ns3:TrackPointExtension>
        </extensions>
      </trkpt>
      <trkpt lat="47.48873046599328517913818359375" lon="10.03881909884512424468994140625">
        <ele>1612.5999755859375</ele>
        <time>2026-09-01T09:45:54.000Z</time>
        <extensions>
          <ns3:TrackPointExtension>
            <ns3:hr>159</ns3:hr>
            <ns3:cad>85</ns3:cad>
          </ns3:TrackPointExtension>
        </extensions>
      </trkpt>
      <trkpt lat="47.48872543685138225555419921875" lon="10.03876411356031894683837890625">
        <ele>1613.199951171875</ele>
        <time>2026-09-01T09:45:56.000Z</time>
        <extensions>
          <ns3:TrackPointExtension>
            <ns3:hr>160</ns3:hr>
            <ns3:cad>85</ns3:cad>
          </ns3:TrackPointExtension>
        </extensions>
      </trkpt>
      <trkpt lat="47.48872728087007999420166015625" lon="10.0387350283563137054443359375">
        <ele>1613.4000244140625</ele>
        <time>2026-09-01T09:45:57.000Z</time>
        <extensions>
          <ns3:TrackPointExtension>
            <ns3:hr>160</ns3:hr>
            <ns3:cad>85</ns3:cad>
          </ns3:TrackPointExtension>
        </extensions>
      </trkpt>
      <trkpt lat="47.4887374229729175567626953125" lon="10.0386253930628299713134765625">
        <ele>1614.4000244140625</ele>
        <time>2026-09-01T09:46:01.000Z</time>
        <extensions>
          <ns3:TrackPointExtension>
            <ns3:hr>159</ns3:hr>
            <ns3:cad>85</ns3:cad>
          </ns3:TrackPointExtension>
        </extensions>
      </trkpt>
      <trkpt lat="47.48873717151582241058349609375" lon="10.0386099703609943389892578125">
        <ele>1614.800048828125</ele>
        <time>2026-09-01T09:46:02.000Z</time>
        <extensions>
          <ns3:TrackPointExtension>
            <ns3:hr>160</ns3:hr>
            <ns3:cad>86</ns3:cad>
          </ns3:TrackPointExtension>
        </extensions>
      </trkpt>
      <trkpt lat="47.48875075019896030426025390625" lon="10.03854903392493724822998046875">
        <ele>1615.4000244140625</ele>
        <time>2026-09-01T09:46:04.000Z</time>
        <extensions>
          <ns3:TrackPointExtension>
            <ns3:hr>160</ns3:hr>
            <ns3:cad>87</ns3:cad>
          </ns3:TrackPointExtension>
        </extensions>
      </trkpt>
      <trkpt lat="47.48875862918794155120849609375" lon="10.03848248161375522613525390625">
        <ele>1616</ele>
        <time>2026-09-01T09:46:06.000Z</time>
        <extensions>
          <ns3:TrackPointExtension>
            <ns3:hr>160</ns3:hr>
            <ns3:cad>84</ns3:cad>
          </ns3:TrackPointExtension>
        </extensions>
      </trkpt>
      <trkpt lat="47.488759048283100128173828125" lon="10.0383276678621768951416015625">
        <ele>1615.800048828125</ele>
        <time>2026-09-01T09:46:11.000Z</time>
        <extensions>
          <ns3:TrackPointExtension>
            <ns3:hr>159</ns3:hr>
            <ns3:cad>82</ns3:cad>
          </ns3:TrackPointExtension>
        </extensions>
      </trkpt>
      <trkpt lat="47.488769777119159698486328125" lon="10.03813882358372211456298828125">
        <ele>1615.5999755859375</ele>
        <time>2026-09-01T09:46:16.000Z</time>
        <extensions>
          <ns3:TrackPointExtension>
            <ns3:hr>159</ns3:hr>
            <ns3:cad>84</ns3:cad>
          </ns3:TrackPointExtension>
        </extensions>
      </trkpt>
      <trkpt lat="47.48877472244203090667724609375" lon="10.03803824074566364288330078125">
        <ele>1615.5999755859375</ele>
        <time>2026-09-01T09:46:20.000Z</time>
        <extensions>
          <ns3:TrackPointExtension>
            <ns3:hr>159</ns3:hr>
            <ns3:cad>82</ns3:cad>
          </ns3:TrackPointExtension>
        </extensions>
      </trkpt>
      <trkpt lat="47.48882166109979152679443359375" lon="10.03792927600443363189697265625">
        <ele>1615.800048828125</ele>
        <time>2026-09-01T09:46:25.000Z</time>
        <extensions>
          <ns3:TrackPointExtension>
            <ns3:hr>157</ns3:hr>
            <ns3:cad>0</ns3:cad>
          </ns3:TrackPointExtension>
        </extensions>
      </trkpt>
      <trkpt lat="47.4889147840440273284912109375" lon="10.037834644317626953125">
        <ele>1615.800048828125</ele>
        <time>2026-09-01T09:46:30.000Z</time>
        <extensions>
          <ns3:TrackPointExtension>
            <ns3:hr>157</ns3:hr>
            <ns3:cad>0</ns3:cad>
          </ns3:TrackPointExtension>
        </extensions>
      </trkpt>
      <trkpt lat="47.4889305420219898223876953125" lon="10.037747807800769805908203125">
        <ele>1615.4000244140625</ele>
        <time>2026-09-01T09:46:32.000Z</time>
        <extensions>
          <ns3:TrackPointExtension>
            <ns3:hr>156</ns3:hr>
            <ns3:cad>85</ns3:cad>
          </ns3:TrackPointExtension>
        </extensions>
      </trkpt>
      <trkpt lat="47.488939762115478515625" lon="10.03769994713366031646728515625">
        <ele>1615.199951171875</ele>
        <time>2026-09-01T09:46:33.000Z</time>
        <extensions>
          <ns3:TrackPointExtension>
            <ns3:hr>157</ns3:hr>
            <ns3:cad>84</ns3:cad>
          </ns3:TrackPointExtension>
        </extensions>
      </trkpt>
      <trkpt lat="47.48899097554385662078857421875" lon="10.03751076757907867431640625">
        <ele>1614.4000244140625</ele>
        <time>2026-09-01T09:46:37.000Z</time>
        <extensions>
          <ns3:TrackPointExtension>
            <ns3:hr>157</ns3:hr>
            <ns3:cad>82</ns3:cad>
          </ns3:TrackPointExtension>
        </extensions>
      </trkpt>
      <trkpt lat="47.489006817340850830078125" lon="10.0373746454715728759765625">
        <ele>1614.4000244140625</ele>
        <time>2026-09-01T09:46:41.000Z</time>
        <extensions>
          <ns3:TrackPointExtension>
            <ns3:hr>154</ns3:hr>
            <ns3:cad>82</ns3:cad>
          </ns3:TrackPointExtension>
        </extensions>
      </trkpt>
      <trkpt lat="47.48902760446071624755859375" lon="10.03721228800714015960693359375">
        <ele>1612.800048828125</ele>
        <time>2026-09-01T09:46:44.000Z</time>
        <extensions>
          <ns3:TrackPointExtension>
            <ns3:hr>153</ns3:hr>
            <ns3:cad>85</ns3:cad>
          </ns3:TrackPointExtension>
        </extensions>
      </trkpt>
      <trkpt lat="47.48902626335620880126953125" lon="10.0371082685887813568115234375">
        <ele>1611.4000244140625</ele>
        <time>2026-09-01T09:46:46.000Z</time>
        <extensions>
          <ns3:TrackPointExtension>
            <ns3:hr>155</ns3:hr>
            <ns3:cad>85</ns3:cad>
          </ns3:TrackPointExtension>
        </extensions>
      </trkpt>
      <trkpt lat="47.4889972619712352752685546875" lon="10.03707465715706348419189453125">
        <ele>1611</ele>
        <time>2026-09-01T09:46:47.000Z</time>
        <extensions>
          <ns3:TrackPointExtension>
            <ns3:hr>154</ns3:hr>
            <ns3:cad>85</ns3:cad>
          </ns3:TrackPointExtension>
        </extensions>
      </trkpt>
      <trkpt lat="47.488981001079082489013671875" lon="10.0370331667363643646240234375">
        <ele>1610.4000244140625</ele>
        <time>2026-09-01T09:46:48.000Z</time>
        <extensions>
          <ns3:TrackPointExtension>
            <ns3:hr>154</ns3:hr>
            <ns3:cad>85</ns3:cad>
          </ns3:TrackPointExtension>
        </extensions>
      </trkpt>
      <trkpt lat="47.4889486469328403472900390625" lon="10.03692202270030975341796875">
        <ele>1609.4000244140625</ele>
        <time>2026-09-01T09:46:50.000Z</time>
        <extensions>
          <ns3:TrackPointExtension>
            <ns3:hr>153</ns3:hr>
            <ns3:cad>84</ns3:cad>
          </ns3:TrackPointExtension>
        </extensions>
      </trkpt>
      <trkpt lat="47.4889345653355121612548828125" lon="10.03686703741550445556640625">
        <ele>1608.800048828125</ele>
        <time>2026-09-01T09:46:51.000Z</time>
        <extensions>
          <ns3:TrackPointExtension>
            <ns3:hr>153</ns3:hr>
            <ns3:cad>84</ns3:cad>
          </ns3:TrackPointExtension>
        </extensions>
      </trkpt>
      <trkpt lat="47.48892459087073802947998046875" lon="10.0368206016719341278076171875">
        <ele>1608.199951171875</ele>
        <time>2026-09-01T09:46:52.000Z</time>
        <extensions>
          <ns3:TrackPointExtension>
            <ns3:hr>153</ns3:hr>
            <ns3:cad>86</ns3:cad>
          </ns3:TrackPointExtension>
        </extensions>
      </trkpt>
      <trkpt lat="47.4889080785214900970458984375" lon="10.03674156032502651214599609375">
        <ele>1607.199951171875</ele>
        <time>2026-09-01T09:46:54.000Z</time>
        <extensions>
          <ns3:TrackPointExtension>
            <ns3:hr>152</ns3:hr>
            <ns3:cad>87</ns3:cad>
          </ns3:TrackPointExtension>
        </extensions>
      </trkpt>
      <trkpt lat="47.48889206908643245697021484375" lon="10.0366868264973163604736328125">
        <ele>1606.4000244140625</ele>
        <time>2026-09-01T09:46:56.000Z</time>
        <extensions>
          <ns3:TrackPointExtension>
            <ns3:hr>152</ns3:hr>
            <ns3:cad>85</ns3:cad>
          </ns3:TrackPointExtension>
        </extensions>
      </trkpt>
      <trkpt lat="47.488887123763561248779296875" lon="10.03665204159915447235107421875">
        <ele>1606</ele>
        <time>2026-09-01T09:46:57.000Z</time>
        <extensions>
          <ns3:TrackPointExtension>
            <ns3:hr>151</ns3:hr>
            <ns3:cad>85</ns3:cad>
          </ns3:TrackPointExtension>
        </extensions>
      </trkpt>
      <trkpt lat="47.4888450466096401214599609375" lon="10.03650032915174961090087890625">
        <ele>1605.199951171875</ele>
        <time>2026-09-01T09:47:01.000Z</time>
        <extensions>
          <ns3:TrackPointExtension>
            <ns3:hr>149</ns3:hr>
            <ns3:cad>85</ns3:cad>
          </ns3:TrackPointExtension>
        </extensions>
      </trkpt>
      <trkpt lat="47.48884060420095920562744140625" lon="10.03646126948297023773193359375">
        <ele>1604.800048828125</ele>
        <time>2026-09-01T09:47:02.000Z</time>
        <extensions>
          <ns3:TrackPointExtension>
            <ns3:hr>149</ns3:hr>
            <ns3:cad>0</ns3:cad>
          </ns3:TrackPointExtension>
        </extensions>
      </trkpt>
      <trkpt lat="47.48881747014820575714111328125" lon="10.036322213709354400634765625">
        <ele>1603.5999755859375</ele>
        <time>2026-09-01T09:47:05.000Z</time>
        <extensions>
          <ns3:TrackPointExtension>
            <ns3:hr>149</ns3:hr>
            <ns3:cad>0</ns3:cad>
          </ns3:TrackPointExtension>
        </extensions>
      </trkpt>
      <trkpt lat="47.4887935817241668701171875" lon="10.03617092035710811614990234375">
        <ele>1602.5999755859375</ele>
        <time>2026-09-01T09:47:09.000Z</time>
        <extensions>
          <ns3:TrackPointExtension>
            <ns3:hr>150</ns3:hr>
            <ns3:cad>0</ns3:cad>
          </ns3:TrackPointExtension>
        </extensions>
      </trkpt>
      <trkpt lat="47.48877757228910923004150390625" lon="10.03614594228565692901611328125">
        <ele>1602.4000244140625</ele>
        <time>2026-09-01T09:47:10.000Z</time>
        <extensions>
          <ns3:TrackPointExtension>
            <ns3:hr>150</ns3:hr>
            <ns3:cad>0</ns3:cad>
          </ns3:TrackPointExtension>
        </extensions>
      </trkpt>
      <trkpt lat="47.4887283705174922943115234375" lon="10.036024153232574462890625">
        <ele>1601.199951171875</ele>
        <time>2026-09-01T09:47:13.000Z</time>
        <extensions>
          <ns3:TrackPointExtension>
            <ns3:hr>152</ns3:hr>
            <ns3:cad>81</ns3:cad>
          </ns3:TrackPointExtension>
        </extensions>
      </trkpt>
      <trkpt lat="47.488709427416324615478515625" lon="10.03588409163057804107666015625">
        <ele>1600.199951171875</ele>
        <time>2026-09-01T09:47:16.000Z</time>
        <extensions>
          <ns3:TrackPointExtension>
            <ns3:hr>152</ns3:hr>
            <ns3:cad>81</ns3:cad>
          </ns3:TrackPointExtension>
        </extensions>
      </trkpt>
      <trkpt lat="47.4886968545615673065185546875" lon="10.03585961647331714630126953125">
        <ele>1600.199951171875</ele>
        <time>2026-09-01T09:47:17.000Z</time>
        <extensions>
          <ns3:TrackPointExtension>
            <ns3:hr>151</ns3:hr>
            <ns3:cad>81</ns3:cad>
          </ns3:TrackPointExtension>
        </extensions>
      </trkpt>
      <trkpt lat="47.48868352733552455902099609375" lon="10.03581435419619083404541015625">
        <ele>1599.800048828125</ele>
        <time>2026-09-01T09:47:19.000Z</time>
        <extensions>
          <ns3:TrackPointExtension>
            <ns3:hr>151</ns3:hr>
            <ns3:cad>81</ns3:cad>
          </ns3:TrackPointExtension>
        </extensions>
      </trkpt>
      <trkpt lat="47.48868252150714397430419921875" lon="10.03578065894544124603271484375">
        <ele>1599.5999755859375</ele>
        <time>2026-09-01T09:47:20.000Z</time>
        <extensions>
          <ns3:TrackPointExtension>
            <ns3:hr>150</ns3:hr>
            <ns3:cad>81</ns3:cad>
          </ns3:TrackPointExtension>
        </extensions>
      </trkpt>
      <trkpt lat="47.48868268914520740509033203125" lon="10.03559759818017482757568359375">
        <ele>1599.800048828125</ele>
        <time>2026-09-01T09:47:26.000Z</time>
        <extensions>
          <ns3:TrackPointExtension>
            <ns3:hr>149</ns3:hr>
            <ns3:cad>83</ns3:cad>
          </ns3:TrackPointExtension>
        </extensions>
      </trkpt>
      <trkpt lat="47.48864748515188694000244140625" lon="10.03545594401657581329345703125">
        <ele>1599.199951171875</ele>
        <time>2026-09-01T09:47:30.000Z</time>
        <extensions>
          <ns3:TrackPointExtension>
            <ns3:hr>150</ns3:hr>
            <ns3:cad>82</ns3:cad>
          </ns3:TrackPointExtension>
        </extensions>
      </trkpt>
      <trkpt lat="47.48860976658761501312255859375" lon="10.03521823324263095855712890625">
        <ele>1598.4000244140625</ele>
        <time>2026-09-01T09:47:35.000Z</time>
        <extensions>
          <ns3:TrackPointExtension>
            <ns3:hr>151</ns3:hr>
            <ns3:cad>84</ns3:cad>
          </ns3:TrackPointExtension>
        </extensions>
      </trkpt>
      <trkpt lat="47.48856266029179096221923828125" lon="10.03512469120323657989501953125">
        <ele>1598</ele>
        <time>2026-09-01T09:47:38.000Z</time>
        <extensions>
          <ns3:TrackPointExtension>
            <ns3:hr>150</ns3:hr>
            <ns3:cad>85</ns3:cad>
          </ns3:TrackPointExtension>
        </extensions>
      </trkpt>
      <trkpt lat="47.488554529845714569091796875" lon="10.03507909364998340606689453125">
        <ele>1597.4000244140625</ele>
        <time>2026-09-01T09:47:39.000Z</time>
        <extensions>
          <ns3:TrackPointExtension>
            <ns3:hr>150</ns3:hr>
            <ns3:cad>85</ns3:cad>
          </ns3:TrackPointExtension>
        </extensions>
      </trkpt>
      <trkpt lat="47.48856584541499614715576171875" lon="10.03499485552310943603515625">
        <ele>1596.5999755859375</ele>
        <time>2026-09-01T09:47:41.000Z</time>
        <extensions>
          <ns3:TrackPointExtension>
            <ns3:hr>150</ns3:hr>
            <ns3:cad>85</ns3:cad>
          </ns3:TrackPointExtension>
        </extensions>
      </trkpt>
      <trkpt lat="47.48857171274721622467041015625" lon="10.0349614955484867095947265625">
        <ele>1596.4000244140625</ele>
        <time>2026-09-01T09:47:42.000Z</time>
        <extensions>
          <ns3:TrackPointExtension>
            <ns3:hr>150</ns3:hr>
            <ns3:cad>85</ns3:cad>
          </ns3:TrackPointExtension>
        </extensions>
      </trkpt>
      <trkpt lat="47.488582022488117218017578125" lon="10.034889914095401763916015625">
        <ele>1596.199951171875</ele>
        <time>2026-09-01T09:47:46.000Z</time>
        <extensions>
          <ns3:TrackPointExtension>
            <ns3:hr>150</ns3:hr>
            <ns3:cad>85</ns3:cad>
          </ns3:TrackPointExtension>
        </extensions>
      </trkpt>
      <trkpt lat="47.48862326145172119140625" lon="10.03476158715784549713134765625">
        <ele>1595.800048828125</ele>
        <time>2026-09-01T09:47:49.000Z</time>
        <extensions>
          <ns3:TrackPointExtension>
            <ns3:hr>149</ns3:hr>
            <ns3:cad>77</ns3:cad>
          </ns3:TrackPointExtension>
        </extensions>
      </trkpt>
      <trkpt lat="47.48864748515188694000244140625" lon="10.03465865738689899444580078125">
        <ele>1595.4000244140625</ele>
        <time>2026-09-01T09:47:51.000Z</time>
        <extensions>
          <ns3:TrackPointExtension>
            <ns3:hr>150</ns3:hr>
            <ns3:cad>77</ns3:cad>
          </ns3:TrackPointExtension>
        </extensions>
      </trkpt>
      <trkpt lat="47.4886567890644073486328125" lon="10.0345019996166229248046875">
        <ele>1594.4000244140625</ele>
        <time>2026-09-01T09:47:54.000Z</time>
        <extensions>
          <ns3:TrackPointExtension>
            <ns3:hr>149</ns3:hr>
            <ns3:cad>82</ns3:cad>
          </ns3:TrackPointExtension>
        </extensions>
      </trkpt>
      <trkpt lat="47.4886596389114856719970703125" lon="10.03444877453148365020751953125">
        <ele>1594</ele>
        <time>2026-09-01T09:47:55.000Z</time>
        <extensions>
          <ns3:TrackPointExtension>
            <ns3:hr>149</ns3:hr>
            <ns3:cad>83</ns3:cad>
          </ns3:TrackPointExtension>
        </extensions>
      </trkpt>
      <trkpt lat="47.4886797554790973663330078125" lon="10.0344032607972621917724609375">
        <ele>1593.5999755859375</ele>
        <time>2026-09-01T09:47:57.000Z</time>
        <extensions>
          <ns3:TrackPointExtension>
            <ns3:hr>149</ns3:hr>
            <ns3:cad>83</ns3:cad>
          </ns3:TrackPointExtension>
        </extensions>
      </trkpt>
      <trkpt lat="47.4887077510356903076171875" lon="10.034362860023975372314453125">
        <ele>1592.5999755859375</ele>
        <time>2026-09-01T09:47:59.000Z</time>
        <extensions>
          <ns3:TrackPointExtension>
            <ns3:hr>148</ns3:hr>
            <ns3:cad>83</ns3:cad>
          </ns3:TrackPointExtension>
        </extensions>
      </trkpt>
      <trkpt lat="47.48874387703835964202880859375" lon="10.034291110932826995849609375">
        <ele>1591.199951171875</ele>
        <time>2026-09-01T09:48:01.000Z</time>
        <extensions>
          <ns3:TrackPointExtension>
            <ns3:hr>149</ns3:hr>
            <ns3:cad>83</ns3:cad>
          </ns3:TrackPointExtension>
        </extensions>
      </trkpt>
      <trkpt lat="47.48876885510981082916259765625" lon="10.03418860025703907012939453125">
        <ele>1589.800048828125</ele>
        <time>2026-09-01T09:48:03.000Z</time>
        <extensions>
          <ns3:TrackPointExtension>
            <ns3:hr>150</ns3:hr>
            <ns3:cad>83</ns3:cad>
          </ns3:TrackPointExtension>
        </extensions>
      </trkpt>
      <trkpt lat="47.4887632392346858978271484375" lon="10.0341276638209819793701171875">
        <ele>1589.4000244140625</ele>
        <time>2026-09-01T09:48:04.000Z</time>
        <extensions>
          <ns3:TrackPointExtension>
            <ns3:hr>151</ns3:hr>
            <ns3:cad>83</ns3:cad>
          </ns3:TrackPointExtension>
        </extensions>
      </trkpt>
      <trkpt lat="47.48872644267976284027099609375" lon="10.0340539030730724334716796875">
        <ele>1588.5999755859375</ele>
        <time>2026-09-01T09:48:06.000Z</time>
        <extensions>
          <ns3:TrackPointExtension>
            <ns3:hr>152</ns3:hr>
            <ns3:cad>85</ns3:cad>
          </ns3:TrackPointExtension>
        </extensions>
      </trkpt>
      <trkpt lat="47.48870464973151683807373046875" lon="10.03400654532015323638916015625">
        <ele>1588.199951171875</ele>
        <time>2026-09-01T09:48:07.000Z</time>
        <extensions>
          <ns3:TrackPointExtension>
            <ns3:hr>151</ns3:hr>
            <ns3:cad>85</ns3:cad>
          </ns3:TrackPointExtension>
        </extensions>
      </trkpt>
      <trkpt lat="47.488692663609981536865234375" lon="10.03396145068109035491943359375">
        <ele>1587.4000244140625</ele>
        <time>2026-09-01T09:48:08.000Z</time>
        <extensions>
          <ns3:TrackPointExtension>
            <ns3:hr>151</ns3:hr>
            <ns3:cad>84</ns3:cad>
          </ns3:TrackPointExtension>
        </extensions>
      </trkpt>
      <trkpt lat="47.4886755645275115966796875" lon="10.03387235105037689208984375">
        <ele>1586</ele>
        <time>2026-09-01T09:48:10.000Z</time>
        <extensions>
          <ns3:TrackPointExtension>
            <ns3:hr>148</ns3:hr>
            <ns3:cad>84</ns3:cad>
          </ns3:TrackPointExtension>
        </extensions>
      </trkpt>
      <trkpt lat="47.488666512072086334228515625" lon="10.03382951952517032623291015625">
        <ele>1585.4000244140625</ele>
        <time>2026-09-01T09:48:11.000Z</time>
        <extensions>
          <ns3:TrackPointExtension>
            <ns3:hr>147</ns3:hr>
            <ns3:cad>85</ns3:cad>
          </ns3:TrackPointExtension>
        </extensions>
      </trkpt>
      <trkpt lat="47.488653771579265594482421875" lon="10.033802948892116546630859375">
        <ele>1584.800048828125</ele>
        <time>2026-09-01T09:48:12.000Z</time>
        <extensions>
          <ns3:TrackPointExtension>
            <ns3:hr>146</ns3:hr>
            <ns3:cad>87</ns3:cad>
          </ns3:TrackPointExtension>
        </extensions>
      </trkpt>
      <trkpt lat="47.4886324815452098846435546875" lon="10.03378023393452167510986328125">
        <ele>1584.199951171875</ele>
        <time>2026-09-01T09:48:13.000Z</time>
        <extensions>
          <ns3:TrackPointExtension>
            <ns3:hr>145</ns3:hr>
            <ns3:cad>87</ns3:cad>
          </ns3:TrackPointExtension>
        </extensions>
      </trkpt>
      <trkpt lat="47.48862552456557750701904296875" lon="10.03376095555722713470458984375">
        <ele>1583.5999755859375</ele>
        <time>2026-09-01T09:48:14.000Z</time>
        <extensions>
          <ns3:TrackPointExtension>
            <ns3:hr>145</ns3:hr>
            <ns3:cad>87</ns3:cad>
          </ns3:TrackPointExtension>
        </extensions>
      </trkpt>
      <trkpt lat="47.48862284235656261444091796875" lon="10.0337260030210018157958984375">
        <ele>1583</ele>
        <time>2026-09-01T09:48:15.000Z</time>
        <extensions>
          <ns3:TrackPointExtension>
            <ns3:hr>146</ns3:hr>
            <ns3:cad>87</ns3:cad>
          </ns3:TrackPointExtension>
        </extensions>
      </trkpt>
      <trkpt lat="47.4886192381381988525390625" lon="10.03371250815689563751220703125">
        <ele>1582.4000244140625</ele>
        <time>2026-09-01T09:48:16.000Z</time>
        <extensions>
          <ns3:TrackPointExtension>
            <ns3:hr>146</ns3:hr>
            <ns3:cad>87</ns3:cad>
          </ns3:TrackPointExtension>
        </extensions>
      </trkpt>
      <trkpt lat="47.4886080063879489898681640625" lon="10.03369507379829883575439453125">
        <ele>1581.800048828125</ele>
        <time>2026-09-01T09:48:17.000Z</time>
        <extensions>
          <ns3:TrackPointExtension>
            <ns3:hr>146</ns3:hr>
            <ns3:cad>87</ns3:cad>
          </ns3:TrackPointExtension>
        </extensions>
      </trkpt>
      <trkpt lat="47.4886002950370311737060546875" lon="10.033664815127849578857421875">
        <ele>1581.199951171875</ele>
        <time>2026-09-01T09:48:18.000Z</time>
        <extensions>
          <ns3:TrackPointExtension>
            <ns3:hr>146</ns3:hr>
            <ns3:cad>89</ns3:cad>
          </ns3:TrackPointExtension>
        </extensions>
      </trkpt>
      <trkpt lat="47.4885647557675838470458984375" lon="10.0336260907351970672607421875">
        <ele>1579.800048828125</ele>
        <time>2026-09-01T09:48:20.000Z</time>
        <extensions>
          <ns3:TrackPointExtension>
            <ns3:hr>146</ns3:hr>
            <ns3:cad>89</ns3:cad>
          </ns3:TrackPointExtension>
        </extensions>
      </trkpt>
      <trkpt lat="47.4885567091405391693115234375" lon="10.0336193852126598358154296875">
        <ele>1579.199951171875</ele>
        <time>2026-09-01T09:48:21.000Z</time>
        <extensions>
          <ns3:TrackPointExtension>
            <ns3:hr>146</ns3:hr>
            <ns3:cad>89</ns3:cad>
          </ns3:TrackPointExtension>
        </extensions>
      </trkpt>
      <trkpt lat="47.4885439686477184295654296875" lon="10.033602453768253326416015625">
        <ele>1578.4000244140625</ele>
        <time>2026-09-01T09:48:22.000Z</time>
        <extensions>
          <ns3:TrackPointExtension>
            <ns3:hr>147</ns3:hr>
            <ns3:cad>89</ns3:cad>
          </ns3:TrackPointExtension>
        </extensions>
      </trkpt>
      <trkpt lat="47.4885335750877857208251953125" lon="10.03356900997459888458251953125">
        <ele>1577.4000244140625</ele>
        <time>2026-09-01T09:48:24.000Z</time>
        <extensions>
          <ns3:TrackPointExtension>
            <ns3:hr>146</ns3:hr>
            <ns3:cad>89</ns3:cad>
          </ns3:TrackPointExtension>
        </extensions>
      </trkpt>
      <trkpt lat="47.488523013889789581298828125" lon="10.03355476073920726776123046875">
        <ele>1577</ele>
        <time>2026-09-01T09:48:25.000Z</time>
        <extensions>
          <ns3:TrackPointExtension>
            <ns3:hr>146</ns3:hr>
            <ns3:cad>89</ns3:cad>
          </ns3:TrackPointExtension>
        </extensions>
      </trkpt>
      <trkpt lat="47.48849979601800441741943359375" lon="10.03355442546308040618896484375">
        <ele>1575.800048828125</ele>
        <time>2026-09-01T09:48:27.000Z</time>
        <extensions>
          <ns3:TrackPointExtension>
            <ns3:hr>146</ns3:hr>
            <ns3:cad>89</ns3:cad>
          </ns3:TrackPointExtension>
        </extensions>
      </trkpt>
      <trkpt lat="47.488475739955902099609375" lon="10.0335310399532318115234375">
        <ele>1574.5999755859375</ele>
        <time>2026-09-01T09:48:29.000Z</time>
        <extensions>
          <ns3:TrackPointExtension>
            <ns3:hr>146</ns3:hr>
            <ns3:cad>78</ns3:cad>
          </ns3:TrackPointExtension>
        </extensions>
      </trkpt>
      <trkpt lat="47.48844430781900882720947265625" lon="10.03349089063704013824462890625">
        <ele>1573.199951171875</ele>
        <time>2026-09-01T09:48:31.000Z</time>
        <extensions>
          <ns3:TrackPointExtension>
            <ns3:hr>146</ns3:hr>
            <ns3:cad>0</ns3:cad>
          </ns3:TrackPointExtension>
        </extensions>
      </trkpt>
      <trkpt lat="47.48843911103904247283935546875" lon="10.033460296690464019775390625">
        <ele>1572.4000244140625</ele>
        <time>2026-09-01T09:48:32.000Z</time>
        <extensions>
          <ns3:TrackPointExtension>
            <ns3:hr>146</ns3:hr>
            <ns3:cad>0</ns3:cad>
          </ns3:TrackPointExtension>
        </extensions>
      </trkpt>
      <trkpt lat="47.48841899447143077850341796875" lon="10.0334339775145053863525390625">
        <ele>1571.5999755859375</ele>
        <time>2026-09-01T09:48:33.000Z</time>
        <extensions>
          <ns3:TrackPointExtension>
            <ns3:hr>146</ns3:hr>
            <ns3:cad>0</ns3:cad>
          </ns3:TrackPointExtension>
        </extensions>
      </trkpt>
      <trkpt lat="47.488400638103485107421875" lon="10.0333843566477298736572265625">
        <ele>1570.199951171875</ele>
        <time>2026-09-01T09:48:35.000Z</time>
        <extensions>
          <ns3:TrackPointExtension>
            <ns3:hr>146</ns3:hr>
            <ns3:cad>0</ns3:cad>
          </ns3:TrackPointExtension>
        </extensions>
      </trkpt>
      <trkpt lat="47.48837037943303585052490234375" lon="10.0333659164607524871826171875">
        <ele>1569</ele>
        <time>2026-09-01T09:48:37.000Z</time>
        <extensions>
          <ns3:TrackPointExtension>
            <ns3:hr>145</ns3:hr>
            <ns3:cad>0</ns3:cad>
          </ns3:TrackPointExtension>
        </extensions>
      </trkpt>
      <trkpt lat="47.48834188096225261688232421875" lon="10.03334529697895050048828125">
        <ele>1567.5999755859375</ele>
        <time>2026-09-01T09:48:39.000Z</time>
        <extensions>
          <ns3:TrackPointExtension>
            <ns3:hr>146</ns3:hr>
            <ns3:cad>0</ns3:cad>
          </ns3:TrackPointExtension>
        </extensions>
      </trkpt>
      <trkpt lat="47.4882941879332065582275390625" lon="10.03329433500766754150390625">
        <ele>1565.800048828125</ele>
        <time>2026-09-01T09:48:41.000Z</time>
        <extensions>
          <ns3:TrackPointExtension>
            <ns3:hr>145</ns3:hr>
            <ns3:cad>88</ns3:cad>
          </ns3:TrackPointExtension>
        </extensions>
      </trkpt>
      <trkpt lat="47.48826895840466022491455078125" lon="10.033272542059421539306640625">
        <ele>1565</ele>
        <time>2026-09-01T09:48:42.000Z</time>
        <extensions>
          <ns3:TrackPointExtension>
            <ns3:hr>145</ns3:hr>
            <ns3:cad>88</ns3:cad>
          </ns3:TrackPointExtension>
        </extensions>
      </trkpt>
      <trkpt lat="47.48824498616158962249755859375" lon="10.0332502461969852447509765625">
        <ele>1564.4000244140625</ele>
        <time>2026-09-01T09:48:43.000Z</time>
        <extensions>
          <ns3:TrackPointExtension>
            <ns3:hr>146</ns3:hr>
            <ns3:cad>88</ns3:cad>
          </ns3:TrackPointExtension>
        </extensions>
      </trkpt>
      <trkpt lat="47.4881815351545810699462890625" lon="10.03323038108646869659423828125">
        <ele>1562.800048828125</ele>
        <time>2026-09-01T09:48:45.000Z</time>
        <extensions>
          <ns3:TrackPointExtension>
            <ns3:hr>146</ns3:hr>
            <ns3:cad>88</ns3:cad>
          </ns3:TrackPointExtension>
        </extensions>
      </trkpt>
      <trkpt lat="47.48814490623772144317626953125" lon="10.03319115377962589263916015625">
        <ele>1561.5999755859375</ele>
        <time>2026-09-01T09:48:47.000Z</time>
        <extensions>
          <ns3:TrackPointExtension>
            <ns3:hr>146</ns3:hr>
            <ns3:cad>88</ns3:cad>
          </ns3:TrackPointExtension>
        </extensions>
      </trkpt>
      <trkpt lat="47.4881121329963207244873046875" lon="10.0331246852874755859375">
        <ele>1560.199951171875</ele>
        <time>2026-09-01T09:48:49.000Z</time>
        <extensions>
          <ns3:TrackPointExtension>
            <ns3:hr>145</ns3:hr>
            <ns3:cad>86</ns3:cad>
          </ns3:TrackPointExtension>
        </extensions>
      </trkpt>
      <trkpt lat="47.4880963750183582305908203125" lon="10.03309174440801143646240234375">
        <ele>1559.4000244140625</ele>
        <time>2026-09-01T09:48:50.000Z</time>
        <extensions>
          <ns3:TrackPointExtension>
            <ns3:hr>145</ns3:hr>
            <ns3:cad>86</ns3:cad>
          </ns3:TrackPointExtension>
        </extensions>
      </trkpt>
      <trkpt lat="47.48807701282203197479248046875" lon="10.0330497510731220245361328125">
        <ele>1558.5999755859375</ele>
        <time>2026-09-01T09:48:51.000Z</time>
        <extensions>
          <ns3:TrackPointExtension>
            <ns3:hr>146</ns3:hr>
            <ns3:cad>86</ns3:cad>
          </ns3:TrackPointExtension>
        </extensions>
      </trkpt>
      <trkpt lat="47.48804331757128238677978515625" lon="10.032983534038066864013671875">
        <ele>1556.5999755859375</ele>
        <time>2026-09-01T09:48:53.000Z</time>
        <extensions>
          <ns3:TrackPointExtension>
            <ns3:hr>146</ns3:hr>
            <ns3:cad>99</ns3:cad>
          </ns3:TrackPointExtension>
        </extensions>
      </trkpt>
      <trkpt lat="47.4880289845168590545654296875" lon="10.03294640220701694488525390625">
        <ele>1555.800048828125</ele>
        <time>2026-09-01T09:48:54.000Z</time>
        <extensions>
          <ns3:TrackPointExtension>
            <ns3:hr>147</ns3:hr>
            <ns3:cad>99</ns3:cad>
          </ns3:TrackPointExtension>
        </extensions>
      </trkpt>
      <trkpt lat="47.48802169226109981536865234375" lon="10.03291002474725246429443359375">
        <ele>1555</ele>
        <time>2026-09-01T09:48:55.000Z</time>
        <extensions>
          <ns3:TrackPointExtension>
            <ns3:hr>147</ns3:hr>
            <ns3:cad>99</ns3:cad>
          </ns3:TrackPointExtension>
        </extensions>
      </trkpt>
      <trkpt lat="47.48800978995859622955322265625" lon="10.0328231044113636016845703125">
        <ele>1553.199951171875</ele>
        <time>2026-09-01T09:48:57.000Z</time>
        <extensions>
          <ns3:TrackPointExtension>
            <ns3:hr>147</ns3:hr>
            <ns3:cad>99</ns3:cad>
          </ns3:TrackPointExtension>
        </extensions>
      </trkpt>
      <trkpt lat="47.48800476081669330596923828125" lon="10.03273216076195240020751953125">
        <ele>1551.5999755859375</ele>
        <time>2026-09-01T09:48:59.000Z</time>
        <extensions>
          <ns3:TrackPointExtension>
            <ns3:hr>147</ns3:hr>
            <ns3:cad>99</ns3:cad>
          </ns3:TrackPointExtension>
        </extensions>
      </trkpt>
      <trkpt lat="47.48799487017095088958740234375" lon="10.032641552388668060302734375">
        <ele>1549.800048828125</ele>
        <time>2026-09-01T09:49:01.000Z</time>
        <extensions>
          <ns3:TrackPointExtension>
            <ns3:hr>147</ns3:hr>
            <ns3:cad>100</ns3:cad>
          </ns3:TrackPointExtension>
        </extensions>
      </trkpt>
      <trkpt lat="47.48797760345041751861572265625" lon="10.0325976312160491943359375">
        <ele>1549</ele>
        <time>2026-09-01T09:49:02.000Z</time>
        <extensions>
          <ns3:TrackPointExtension>
            <ns3:hr>146</ns3:hr>
            <ns3:cad>100</ns3:cad>
          </ns3:TrackPointExtension>
        </extensions>
      </trkpt>
      <trkpt lat="47.48795614577829837799072265625" lon="10.032565109431743621826171875">
        <ele>1548.199951171875</ele>
        <time>2026-09-01T09:49:03.000Z</time>
        <extensions>
          <ns3:TrackPointExtension>
            <ns3:hr>146</ns3:hr>
            <ns3:cad>100</ns3:cad>
          </ns3:TrackPointExtension>
        </extensions>
      </trkpt>
      <trkpt lat="47.48791943304240703582763671875" lon="10.03248631954193115234375">
        <ele>1546.4000244140625</ele>
        <time>2026-09-01T09:49:05.000Z</time>
        <extensions>
          <ns3:TrackPointExtension>
            <ns3:hr>146</ns3:hr>
            <ns3:cad>93</ns3:cad>
          </ns3:TrackPointExtension>
        </extensions>
      </trkpt>
      <trkpt lat="47.48791105113923549652099609375" lon="10.03244734369218349456787109375">
        <ele>1545.5999755859375</ele>
        <time>2026-09-01T09:49:06.000Z</time>
        <extensions>
          <ns3:TrackPointExtension>
            <ns3:hr>146</ns3:hr>
            <ns3:cad>93</ns3:cad>
          </ns3:TrackPointExtension>
        </extensions>
      </trkpt>
      <trkpt lat="47.48790602199733257293701171875" lon="10.0323976390063762664794921875">
        <ele>1544.800048828125</ele>
        <time>2026-09-01T09:49:07.000Z</time>
        <extensions>
          <ns3:TrackPointExtension>
            <ns3:hr>147</ns3:hr>
            <ns3:cad>93</ns3:cad>
          </ns3:TrackPointExtension>
        </extensions>
      </trkpt>
      <trkpt lat="47.48789370059967041015625" lon="10.0323144905269145965576171875">
        <ele>1543.199951171875</ele>
        <time>2026-09-01T09:49:09.000Z</time>
        <extensions>
          <ns3:TrackPointExtension>
            <ns3:hr>147</ns3:hr>
            <ns3:cad>95</ns3:cad>
          </ns3:TrackPointExtension>
        </extensions>
      </trkpt>
      <trkpt lat="47.48787232674658298492431640625" lon="10.0322891771793365478515625">
        <ele>1542.4000244140625</ele>
        <time>2026-09-01T09:49:10.000Z</time>
        <extensions>
          <ns3:TrackPointExtension>
            <ns3:hr>146</ns3:hr>
            <ns3:cad>96</ns3:cad>
          </ns3:TrackPointExtension>
        </extensions>
      </trkpt>
      <trkpt lat="47.48784466646611690521240234375" lon="10.03226302564144134521484375">
        <ele>1541.5999755859375</ele>
        <time>2026-09-01T09:49:11.000Z</time>
        <extensions>
          <ns3:TrackPointExtension>
            <ns3:hr>146</ns3:hr>
            <ns3:cad>96</ns3:cad>
          </ns3:TrackPointExtension>
        </extensions>
      </trkpt>
      <trkpt lat="47.4878177605569362640380859375" lon="10.032248608767986297607421875">
        <ele>1540.5999755859375</ele>
        <time>2026-09-01T09:49:12.000Z</time>
        <extensions>
          <ns3:TrackPointExtension>
            <ns3:hr>146</ns3:hr>
            <ns3:cad>96</ns3:cad>
          </ns3:TrackPointExtension>
        </extensions>
      </trkpt>
      <trkpt lat="47.4877731688320636749267578125" lon="10.0322414003312587738037109375">
        <ele>1539.5999755859375</ele>
        <time>2026-09-01T09:49:13.000Z</time>
        <extensions>
          <ns3:TrackPointExtension>
            <ns3:hr>146</ns3:hr>
            <ns3:cad>93</ns3:cad>
          </ns3:TrackPointExtension>
        </extensions>
      </trkpt>
      <trkpt lat="47.4877004139125347137451171875" lon="10.032235197722911834716796875">
        <ele>1538.199951171875</ele>
        <time>2026-09-01T09:49:15.000Z</time>
        <extensions>
          <ns3:TrackPointExtension>
            <ns3:hr>145</ns3:hr>
            <ns3:cad>90</ns3:cad>
          </ns3:TrackPointExtension>
        </extensions>
      </trkpt>
      <trkpt lat="47.48764366842806339263916015625" lon="10.03222052939236164093017578125">
        <ele>1536.800048828125</ele>
        <time>2026-09-01T09:49:17.000Z</time>
        <extensions>
          <ns3:TrackPointExtension>
            <ns3:hr>146</ns3:hr>
            <ns3:cad>90</ns3:cad>
          </ns3:TrackPointExtension>
        </extensions>
      </trkpt>
      <trkpt lat="47.4876313470304012298583984375" lon="10.032190270721912384033203125">
        <ele>1536.199951171875</ele>
        <time>2026-09-01T09:49:18.000Z</time>
        <extensions>
          <ns3:TrackPointExtension>
            <ns3:hr>146</ns3:hr>
            <ns3:cad>90</ns3:cad>
          </ns3:TrackPointExtension>
        </extensions>
      </trkpt>
      <trkpt lat="47.48759932816028594970703125" lon="10.0321590900421142578125">
        <ele>1535.5999755859375</ele>
        <time>2026-09-01T09:49:19.000Z</time>
        <extensions>
          <ns3:TrackPointExtension>
            <ns3:hr>146</ns3:hr>
            <ns3:cad>90</ns3:cad>
          </ns3:TrackPointExtension>
        </extensions>
      </trkpt>
      <trkpt lat="47.48750033788383007049560546875" lon="10.03209941089153289794921875">
        <ele>1534</ele>
        <time>2026-09-01T09:49:22.000Z</time>
        <extensions>
          <ns3:TrackPointExtension>
            <ns3:hr>146</ns3:hr>
            <ns3:cad>89</ns3:cad>
          </ns3:TrackPointExtension>
        </extensions>
      </trkpt>
      <trkpt lat="47.48743261210620403289794921875" lon="10.0320492871105670928955078125">
        <ele>1533</ele>
        <time>2026-09-01T09:49:24.000Z</time>
        <extensions>
          <ns3:TrackPointExtension>
            <ns3:hr>146</ns3:hr>
            <ns3:cad>86</ns3:cad>
          </ns3:TrackPointExtension>
        </extensions>
      </trkpt>
      <trkpt lat="47.4873886071145534515380859375" lon="10.03200662322342395782470703125">
        <ele>1532.199951171875</ele>
        <time>2026-09-01T09:49:26.000Z</time>
        <extensions>
          <ns3:TrackPointExtension>
            <ns3:hr>147</ns3:hr>
            <ns3:cad>83</ns3:cad>
          </ns3:TrackPointExtension>
        </extensions>
      </trkpt>
      <trkpt lat="47.48737938702106475830078125" lon="10.03197879530489444732666015625">
        <ele>1531.5999755859375</ele>
        <time>2026-09-01T09:49:27.000Z</time>
        <extensions>
          <ns3:TrackPointExtension>
            <ns3:hr>147</ns3:hr>
            <ns3:cad>83</ns3:cad>
          </ns3:TrackPointExtension>
        </extensions>
      </trkpt>
      <trkpt lat="47.4873626232147216796875" lon="10.0319190323352813720703125">
        <ele>1530.5999755859375</ele>
        <time>2026-09-01T09:49:29.000Z</time>
        <extensions>
          <ns3:TrackPointExtension>
            <ns3:hr>147</ns3:hr>
            <ns3:cad>86</ns3:cad>
          </ns3:TrackPointExtension>
        </extensions>
      </trkpt>
      <trkpt lat="47.487338818609714508056640625" lon="10.0318863429129123687744140625">
        <ele>1529.800048828125</ele>
        <time>2026-09-01T09:49:30.000Z</time>
        <extensions>
          <ns3:TrackPointExtension>
            <ns3:hr>146</ns3:hr>
            <ns3:cad>86</ns3:cad>
          </ns3:TrackPointExtension>
        </extensions>
      </trkpt>
      <trkpt lat="47.48731224797666072845458984375" lon="10.03185507841408252716064453125">
        <ele>1528.5999755859375</ele>
        <time>2026-09-01T09:49:31.000Z</time>
        <extensions>
          <ns3:TrackPointExtension>
            <ns3:hr>147</ns3:hr>
            <ns3:cad>86</ns3:cad>
          </ns3:TrackPointExtension>
        </extensions>
      </trkpt>
      <trkpt lat="47.4872655607759952545166015625" lon="10.03179975785315036773681640625">
        <ele>1527</ele>
        <time>2026-09-01T09:49:33.000Z</time>
        <extensions>
          <ns3:TrackPointExtension>
            <ns3:hr>147</ns3:hr>
            <ns3:cad>86</ns3:cad>
          </ns3:TrackPointExtension>
        </extensions>
      </trkpt>
      <trkpt lat="47.4872102402150630950927734375" lon="10.031734295189380645751953125">
        <ele>1525.4000244140625</ele>
        <time>2026-09-01T09:49:35.000Z</time>
        <extensions>
          <ns3:TrackPointExtension>
            <ns3:hr>147</ns3:hr>
            <ns3:cad>96</ns3:cad>
          </ns3:TrackPointExtension>
        </extensions>
      </trkpt>
      <trkpt lat="47.48716992326080799102783203125" lon="10.031655840575695037841796875">
        <ele>1524.199951171875</ele>
        <time>2026-09-01T09:49:37.000Z</time>
        <extensions>
          <ns3:TrackPointExtension>
            <ns3:hr>146</ns3:hr>
            <ns3:cad>89</ns3:cad>
          </ns3:TrackPointExtension>
        </extensions>
      </trkpt>
      <trkpt lat="47.487145364284515380859375" lon="10.03161124885082244873046875">
        <ele>1523.5999755859375</ele>
        <time>2026-09-01T09:49:38.000Z</time>
        <extensions>
          <ns3:TrackPointExtension>
            <ns3:hr>146</ns3:hr>
            <ns3:cad>89</ns3:cad>
          </ns3:TrackPointExtension>
        </extensions>
      </trkpt>
      <trkpt lat="47.48712499625980854034423828125" lon="10.03158316947519779205322265625">
        <ele>1523</ele>
        <time>2026-09-01T09:49:39.000Z</time>
        <extensions>
          <ns3:TrackPointExtension>
            <ns3:hr>146</ns3:hr>
            <ns3:cad>91</ns3:cad>
          </ns3:TrackPointExtension>
        </extensions>
      </trkpt>
      <trkpt lat="47.48708426021039485931396484375" lon="10.031515024602413177490234375">
        <ele>1521.5999755859375</ele>
        <time>2026-09-01T09:49:41.000Z</time>
        <extensions>
          <ns3:TrackPointExtension>
            <ns3:hr>147</ns3:hr>
            <ns3:cad>91</ns3:cad>
          </ns3:TrackPointExtension>
        </extensions>
      </trkpt>
      <trkpt lat="47.48705391772091388702392578125" lon="10.03148258663713932037353515625">
        <ele>1520.800048828125</ele>
        <time>2026-09-01T09:49:42.000Z</time>
        <extensions>
          <ns3:TrackPointExtension>
            <ns3:hr>147</ns3:hr>
            <ns3:cad>91</ns3:cad>
          </ns3:TrackPointExtension>
        </extensions>
      </trkpt>
      <trkpt lat="47.4870338849723339080810546875" lon="10.03146682865917682647705078125">
        <ele>1519.800048828125</ele>
        <time>2026-09-01T09:49:43.000Z</time>
        <extensions>
          <ns3:TrackPointExtension>
            <ns3:hr>147</ns3:hr>
            <ns3:cad>91</ns3:cad>
          </ns3:TrackPointExtension>
        </extensions>
      </trkpt>
      <trkpt lat="47.48700211755931377410888671875" lon="10.03140932880342006683349609375">
        <ele>1518.199951171875</ele>
        <time>2026-09-01T09:49:45.000Z</time>
        <extensions>
          <ns3:TrackPointExtension>
            <ns3:hr>146</ns3:hr>
            <ns3:cad>93</ns3:cad>
          </ns3:TrackPointExtension>
        </extensions>
      </trkpt>
      <trkpt lat="47.4869762174785137176513671875" lon="10.0313442014157772064208984375">
        <ele>1516.800048828125</ele>
        <time>2026-09-01T09:49:47.000Z</time>
        <extensions>
          <ns3:TrackPointExtension>
            <ns3:hr>146</ns3:hr>
            <ns3:cad>93</ns3:cad>
          </ns3:TrackPointExtension>
        </extensions>
      </trkpt>
      <trkpt lat="47.4869567714631557464599609375" lon="10.03131947480142116546630859375">
        <ele>1516.4000244140625</ele>
        <time>2026-09-01T09:49:48.000Z</time>
        <extensions>
          <ns3:TrackPointExtension>
            <ns3:hr>147</ns3:hr>
            <ns3:cad>0</ns3:cad>
          </ns3:TrackPointExtension>
        </extensions>
      </trkpt>
      <trkpt lat="47.48691645450890064239501953125" lon="10.0312687642872333526611328125">
        <ele>1515.800048828125</ele>
        <time>2026-09-01T09:49:50.000Z</time>
        <extensions>
          <ns3:TrackPointExtension>
            <ns3:hr>147</ns3:hr>
            <ns3:cad>0</ns3:cad>
          </ns3:TrackPointExtension>
        </extensions>
      </trkpt>
      <trkpt lat="47.486873455345630645751953125" lon="10.0312028825283050537109375">
        <ele>1515.4000244140625</ele>
        <time>2026-09-01T09:49:52.000Z</time>
        <extensions>
          <ns3:TrackPointExtension>
            <ns3:hr>147</ns3:hr>
            <ns3:cad>0</ns3:cad>
          </ns3:TrackPointExtension>
        </extensions>
      </trkpt>
      <trkpt lat="47.4868357367813587188720703125" lon="10.0311306305229663848876953125">
        <ele>1514.5999755859375</ele>
        <time>2026-09-01T09:49:54.000Z</time>
        <extensions>
          <ns3:TrackPointExtension>
            <ns3:hr>148</ns3:hr>
            <ns3:cad>83</ns3:cad>
          </ns3:TrackPointExtension>
        </extensions>
      </trkpt>
      <trkpt lat="47.48680899851024150848388671875" lon="10.03104723058640956878662109375">
        <ele>1513.5999755859375</ele>
        <time>2026-09-01T09:49:56.000Z</time>
        <extensions>
          <ns3:TrackPointExtension>
            <ns3:hr>147</ns3:hr>
            <ns3:cad>83</ns3:cad>
          </ns3:TrackPointExtension>
        </extensions>
      </trkpt>
      <trkpt lat="47.48680145479738712310791015625" lon="10.031000040471553802490234375">
        <ele>1513</ele>
        <time>2026-09-01T09:49:57.000Z</time>
        <extensions>
          <ns3:TrackPointExtension>
            <ns3:hr>146</ns3:hr>
            <ns3:cad>85</ns3:cad>
          </ns3:TrackPointExtension>
        </extensions>
      </trkpt>
      <trkpt lat="47.48678888194262981414794921875" lon="10.03095678985118865966796875">
        <ele>1512.4000244140625</ele>
        <time>2026-09-01T09:49:58.000Z</time>
        <extensions>
          <ns3:TrackPointExtension>
            <ns3:hr>146</ns3:hr>
            <ns3:cad>85</ns3:cad>
          </ns3:TrackPointExtension>
        </extensions>
      </trkpt>
      <trkpt lat="47.486750073730945587158203125" lon="10.030890069901943206787109375">
        <ele>1510.800048828125</ele>
        <time>2026-09-01T09:50:00.000Z</time>
        <extensions>
          <ns3:TrackPointExtension>
            <ns3:hr>146</ns3:hr>
            <ns3:cad>89</ns3:cad>
          </ns3:TrackPointExtension>
        </extensions>
      </trkpt>
      <trkpt lat="47.486722581088542938232421875" lon="10.03082259558141231536865234375">
        <ele>1509.4000244140625</ele>
        <time>2026-09-01T09:50:02.000Z</time>
        <extensions>
          <ns3:TrackPointExtension>
            <ns3:hr>146</ns3:hr>
            <ns3:cad>91</ns3:cad>
          </ns3:TrackPointExtension>
        </extensions>
      </trkpt>
      <trkpt lat="47.4867086671292781829833984375" lon="10.03073559142649173736572265625">
        <ele>1508.199951171875</ele>
        <time>2026-09-01T09:50:04.000Z</time>
        <extensions>
          <ns3:TrackPointExtension>
            <ns3:hr>146</ns3:hr>
            <ns3:cad>91</ns3:cad>
          </ns3:TrackPointExtension>
        </extensions>
      </trkpt>
      <trkpt lat="47.48669399879872798919677734375" lon="10.03068999387323856353759765625">
        <ele>1507</ele>
        <time>2026-09-01T09:50:05.000Z</time>
        <extensions>
          <ns3:TrackPointExtension>
            <ns3:hr>146</ns3:hr>
            <ns3:cad>91</ns3:cad>
          </ns3:TrackPointExtension>
        </extensions>
      </trkpt>
      <trkpt lat="47.486687041819095611572265625" lon="10.03065328113734722137451171875">
        <ele>1506.199951171875</ele>
        <time>2026-09-01T09:50:06.000Z</time>
        <extensions>
          <ns3:TrackPointExtension>
            <ns3:hr>148</ns3:hr>
            <ns3:cad>91</ns3:cad>
          </ns3:TrackPointExtension>
        </extensions>
      </trkpt>
      <trkpt lat="47.4866826832294464111328125" lon="10.03061656840145587921142578125">
        <ele>1505.199951171875</ele>
        <time>2026-09-01T09:50:07.000Z</time>
        <extensions>
          <ns3:TrackPointExtension>
            <ns3:hr>148</ns3:hr>
            <ns3:cad>91</ns3:cad>
          </ns3:TrackPointExtension>
        </extensions>
      </trkpt>
      <trkpt lat="47.4866717867553234100341796875" lon="10.030564181506633758544921875">
        <ele>1504.199951171875</ele>
        <time>2026-09-01T09:50:08.000Z</time>
        <extensions>
          <ns3:TrackPointExtension>
            <ns3:hr>148</ns3:hr>
            <ns3:cad>91</ns3:cad>
          </ns3:TrackPointExtension>
        </extensions>
      </trkpt>
      <trkpt lat="47.48662459664046764373779296875" lon="10.03047944046556949615478515625">
        <ele>1502.800048828125</ele>
        <time>2026-09-01T09:50:10.000Z</time>
        <extensions>
          <ns3:TrackPointExtension>
            <ns3:hr>149</ns3:hr>
            <ns3:cad>91</ns3:cad>
          </ns3:TrackPointExtension>
        </extensions>
      </trkpt>
      <trkpt lat="47.48658855445683002471923828125" lon="10.03039947710931301116943359375">
        <ele>1501.800048828125</ele>
        <time>2026-09-01T09:50:12.000Z</time>
        <extensions>
          <ns3:TrackPointExtension>
            <ns3:hr>149</ns3:hr>
            <ns3:cad>87</ns3:cad>
          </ns3:TrackPointExtension>
        </extensions>
      </trkpt>
      <trkpt lat="47.4865443818271160125732421875" lon="10.030317418277263641357421875">
        <ele>1501.199951171875</ele>
        <time>2026-09-01T09:50:14.000Z</time>
        <extensions>
          <ns3:TrackPointExtension>
            <ns3:hr>149</ns3:hr>
            <ns3:cad>84</ns3:cad>
          </ns3:TrackPointExtension>
        </extensions>
      </trkpt>
      <trkpt lat="47.48651077039539813995361328125" lon="10.03024105913937091827392578125">
        <ele>1500.5999755859375</ele>
        <time>2026-09-01T09:50:16.000Z</time>
        <extensions>
          <ns3:TrackPointExtension>
            <ns3:hr>149</ns3:hr>
            <ns3:cad>85</ns3:cad>
          </ns3:TrackPointExtension>
        </extensions>
      </trkpt>
      <trkpt lat="47.48648378066718578338623046875" lon="10.03016478382050991058349609375">
        <ele>1499.5999755859375</ele>
        <time>2026-09-01T09:50:18.000Z</time>
        <extensions>
          <ns3:TrackPointExtension>
            <ns3:hr>149</ns3:hr>
            <ns3:cad>80</ns3:cad>
          </ns3:TrackPointExtension>
        </extensions>
      </trkpt>
      <trkpt lat="47.4864334054291248321533203125" lon="10.030086077749729156494140625">
        <ele>1498.199951171875</ele>
        <time>2026-09-01T09:50:20.000Z</time>
        <extensions>
          <ns3:TrackPointExtension>
            <ns3:hr>149</ns3:hr>
            <ns3:cad>83</ns3:cad>
          </ns3:TrackPointExtension>
        </extensions>
      </trkpt>
      <trkpt lat="47.486420832574367523193359375" lon="10.03004576079547405242919921875">
        <ele>1497.800048828125</ele>
        <time>2026-09-01T09:50:21.000Z</time>
        <extensions>
          <ns3:TrackPointExtension>
            <ns3:hr>148</ns3:hr>
            <ns3:cad>83</ns3:cad>
          </ns3:TrackPointExtension>
        </extensions>
      </trkpt>
      <trkpt lat="47.48641672544181346893310546875" lon="10.03001022152602672576904296875">
        <ele>1497.4000244140625</ele>
        <time>2026-09-01T09:50:22.000Z</time>
        <extensions>
          <ns3:TrackPointExtension>
            <ns3:hr>149</ns3:hr>
            <ns3:cad>83</ns3:cad>
          </ns3:TrackPointExtension>
        </extensions>
      </trkpt>
      <trkpt lat="47.48640817590057849884033203125" lon="10.029967390000820159912109375">
        <ele>1497</ele>
        <time>2026-09-01T09:50:23.000Z</time>
        <extensions>
          <ns3:TrackPointExtension>
            <ns3:hr>148</ns3:hr>
            <ns3:cad>83</ns3:cad>
          </ns3:TrackPointExtension>
        </extensions>
      </trkpt>
      <trkpt lat="47.48637749813497066497802734375" lon="10.02988600172102451324462890625">
        <ele>1496.199951171875</ele>
        <time>2026-09-01T09:50:25.000Z</time>
        <extensions>
          <ns3:TrackPointExtension>
            <ns3:hr>147</ns3:hr>
            <ns3:cad>83</ns3:cad>
          </ns3:TrackPointExtension>
        </extensions>
      </trkpt>
      <trkpt lat="47.48635922558605670928955078125" lon="10.0298331119120121002197265625">
        <ele>1495.5999755859375</ele>
        <time>2026-09-01T09:50:26.000Z</time>
        <extensions>
          <ns3:TrackPointExtension>
            <ns3:hr>148</ns3:hr>
            <ns3:cad>83</ns3:cad>
          </ns3:TrackPointExtension>
        </extensions>
      </trkpt>
      <trkpt lat="47.48633391223847866058349609375" lon="10.0297425873577594757080078125">
        <ele>1494.4000244140625</ele>
        <time>2026-09-01T09:50:28.000Z</time>
        <extensions>
          <ns3:TrackPointExtension>
            <ns3:hr>148</ns3:hr>
            <ns3:cad>84</ns3:cad>
          </ns3:TrackPointExtension>
        </extensions>
      </trkpt>
      <trkpt lat="47.486308850347995758056640625" lon="10.0297053717076778411865234375">
        <ele>1494</ele>
        <time>2026-09-01T09:50:29.000Z</time>
        <extensions>
          <ns3:TrackPointExtension>
            <ns3:hr>148</ns3:hr>
            <ns3:cad>85</ns3:cad>
          </ns3:TrackPointExtension>
        </extensions>
      </trkpt>
      <trkpt lat="47.48626953922212123870849609375" lon="10.02963001839816570281982421875">
        <ele>1493.199951171875</ele>
        <time>2026-09-01T09:50:31.000Z</time>
        <extensions>
          <ns3:TrackPointExtension>
            <ns3:hr>148</ns3:hr>
            <ns3:cad>84</ns3:cad>
          </ns3:TrackPointExtension>
        </extensions>
      </trkpt>
      <trkpt lat="47.48624145984649658203125" lon="10.02955474890768527984619140625">
        <ele>1492.4000244140625</ele>
        <time>2026-09-01T09:50:33.000Z</time>
        <extensions>
          <ns3:TrackPointExtension>
            <ns3:hr>146</ns3:hr>
            <ns3:cad>84</ns3:cad>
          </ns3:TrackPointExtension>
        </extensions>
      </trkpt>
      <trkpt lat="47.48622260056436061859130859375" lon="10.0295192934572696685791015625">
        <ele>1492</ele>
        <time>2026-09-01T09:50:34.000Z</time>
        <extensions>
          <ns3:TrackPointExtension>
            <ns3:hr>146</ns3:hr>
            <ns3:cad>84</ns3:cad>
          </ns3:TrackPointExtension>
        </extensions>
      </trkpt>
      <trkpt lat="47.4861698783934116363525390625" lon="10.029390044510364532470703125">
        <ele>1491</ele>
        <time>2026-09-01T09:50:37.000Z</time>
        <extensions>
          <ns3:TrackPointExtension>
            <ns3:hr>146</ns3:hr>
            <ns3:cad>84</ns3:cad>
          </ns3:TrackPointExtension>
        </extensions>
      </trkpt>
      <trkpt lat="47.48614951036870479583740234375" lon="10.02934369258582592010498046875">
        <ele>1490.800048828125</ele>
        <time>2026-09-01T09:50:38.000Z</time>
        <extensions>
          <ns3:TrackPointExtension>
            <ns3:hr>146</ns3:hr>
            <ns3:cad>84</ns3:cad>
          </ns3:TrackPointExtension>
        </extensions>
      </trkpt>
      <trkpt lat="47.48610978014767169952392578125" lon="10.02924210391938686370849609375">
        <ele>1490</ele>
        <time>2026-09-01T09:50:41.000Z</time>
        <extensions>
          <ns3:TrackPointExtension>
            <ns3:hr>148</ns3:hr>
            <ns3:cad>83</ns3:cad>
          </ns3:TrackPointExtension>
        </extensions>
      </trkpt>
      <trkpt lat="47.48611531220376491546630859375" lon="10.02922969870269298553466796875">
        <ele>1489.5999755859375</ele>
        <time>2026-09-01T09:50:42.000Z</time>
        <extensions>
          <ns3:TrackPointExtension>
            <ns3:hr>148</ns3:hr>
            <ns3:cad>83</ns3:cad>
          </ns3:TrackPointExtension>
        </extensions>
      </trkpt>
      <trkpt lat="47.48613140545785427093505859375" lon="10.02924746833741664886474609375">
        <ele>1489.199951171875</ele>
        <time>2026-09-01T09:50:43.000Z</time>
        <extensions>
          <ns3:TrackPointExtension>
            <ns3:hr>147</ns3:hr>
            <ns3:cad>83</ns3:cad>
          </ns3:TrackPointExtension>
        </extensions>
      </trkpt>
      <trkpt lat="47.486148588359355926513671875" lon="10.02926942892372608184814453125">
        <ele>1489</ele>
        <time>2026-09-01T09:50:44.000Z</time>
        <extensions>
          <ns3:TrackPointExtension>
            <ns3:hr>146</ns3:hr>
            <ns3:cad>83</ns3:cad>
          </ns3:TrackPointExtension>
        </extensions>
      </trkpt>
      <trkpt lat="47.48616828583180904388427734375" lon="10.02927906811237335205078125">
        <ele>1488.4000244140625</ele>
        <time>2026-09-01T09:50:45.000Z</time>
        <extensions>
          <ns3:TrackPointExtension>
            <ns3:hr>145</ns3:hr>
            <ns3:cad>83</ns3:cad>
          </ns3:TrackPointExtension>
        </extensions>
      </trkpt>
      <trkpt lat="47.4861837923526763916015625" lon="10.02925693988800048828125">
        <ele>1487.800048828125</ele>
        <time>2026-09-01T09:50:46.000Z</time>
        <extensions>
          <ns3:TrackPointExtension>
            <ns3:hr>145</ns3:hr>
            <ns3:cad>83</ns3:cad>
          </ns3:TrackPointExtension>
        </extensions>
      </trkpt>
      <trkpt lat="47.4861832894384860992431640625" lon="10.02923305146396160125732421875">
        <ele>1487</ele>
        <time>2026-09-01T09:50:47.000Z</time>
        <extensions>
          <ns3:TrackPointExtension>
            <ns3:hr>145</ns3:hr>
            <ns3:cad>83</ns3:cad>
          </ns3:TrackPointExtension>
        </extensions>
      </trkpt>
      <trkpt lat="47.48617448844015598297119140625" lon="10.02920170314610004425048828125">
        <ele>1486.199951171875</ele>
        <time>2026-09-01T09:50:48.000Z</time>
        <extensions>
          <ns3:TrackPointExtension>
            <ns3:hr>145</ns3:hr>
            <ns3:cad>83</ns3:cad>
          </ns3:TrackPointExtension>
        </extensions>
      </trkpt>
      <trkpt lat="47.48616568744182586669921875" lon="10.029179155826568603515625">
        <ele>1485.4000244140625</ele>
        <time>2026-09-01T09:50:49.000Z</time>
        <extensions>
          <ns3:TrackPointExtension>
            <ns3:hr>145</ns3:hr>
            <ns3:cad>83</ns3:cad>
          </ns3:TrackPointExtension>
        </extensions>
      </trkpt>
      <trkpt lat="47.486154623329639434814453125" lon="10.0291115976870059967041015625">
        <ele>1483.800048828125</ele>
        <time>2026-09-01T09:50:51.000Z</time>
        <extensions>
          <ns3:TrackPointExtension>
            <ns3:hr>146</ns3:hr>
            <ns3:cad>83</ns3:cad>
          </ns3:TrackPointExtension>
        </extensions>
      </trkpt>
      <trkpt lat="47.486155964434146881103515625" lon="10.0290234200656414031982421875">
        <ele>1482.4000244140625</ele>
        <time>2026-09-01T09:50:53.000Z</time>
        <extensions>
          <ns3:TrackPointExtension>
            <ns3:hr>147</ns3:hr>
            <ns3:cad>83</ns3:cad>
          </ns3:TrackPointExtension>
        </extensions>
      </trkpt>
      <trkpt lat="47.486136853694915771484375" lon="10.02891453914344310760498046875">
        <ele>1481</ele>
        <time>2026-09-01T09:50:56.000Z</time>
        <extensions>
          <ns3:TrackPointExtension>
            <ns3:hr>148</ns3:hr>
            <ns3:cad>89</ns3:cad>
          </ns3:TrackPointExtension>
        </extensions>
      </trkpt>
      <trkpt lat="47.48613777570426464080810546875" lon="10.02885201014578342437744140625">
        <ele>1479.800048828125</ele>
        <time>2026-09-01T09:50:59.000Z</time>
        <extensions>
          <ns3:TrackPointExtension>
            <ns3:hr>147</ns3:hr>
            <ns3:cad>89</ns3:cad>
          </ns3:TrackPointExtension>
        </extensions>
      </trkpt>
      <trkpt lat="47.48611212708055973052978515625" lon="10.0287674367427825927734375">
        <ele>1478.5999755859375</ele>
        <time>2026-09-01T09:51:03.000Z</time>
        <extensions>
          <ns3:TrackPointExtension>
            <ns3:hr>146</ns3:hr>
            <ns3:cad>85</ns3:cad>
          </ns3:TrackPointExtension>
        </extensions>
      </trkpt>
      <trkpt lat="47.4861182458698749542236328125" lon="10.0287588872015476226806640625">
        <ele>1478.199951171875</ele>
        <time>2026-09-01T09:51:04.000Z</time>
        <extensions>
          <ns3:TrackPointExtension>
            <ns3:hr>145</ns3:hr>
            <ns3:cad>85</ns3:cad>
          </ns3:TrackPointExtension>
        </extensions>
      </trkpt>
      <trkpt lat="47.4861221015453338623046875" lon="10.02874824218451976776123046875">
        <ele>1477.800048828125</ele>
        <time>2026-09-01T09:51:05.000Z</time>
        <extensions>
          <ns3:TrackPointExtension>
            <ns3:hr>146</ns3:hr>
            <ns3:cad>85</ns3:cad>
          </ns3:TrackPointExtension>
        </extensions>
      </trkpt>
      <trkpt lat="47.48612704686820507049560546875" lon="10.028738267719745635986328125">
        <ele>1477.199951171875</ele>
        <time>2026-09-01T09:51:06.000Z</time>
        <extensions>
          <ns3:TrackPointExtension>
            <ns3:hr>146</ns3:hr>
            <ns3:cad>85</ns3:cad>
          </ns3:TrackPointExtension>
        </extensions>
      </trkpt>
      <trkpt lat="47.4861353449523448944091796875" lon="10.0287260301411151885986328125">
        <ele>1476</ele>
        <time>2026-09-01T09:51:08.000Z</time>
        <extensions>
          <ns3:TrackPointExtension>
            <ns3:hr>146</ns3:hr>
            <ns3:cad>0</ns3:cad>
          </ns3:TrackPointExtension>
        </extensions>
      </trkpt>
      <trkpt lat="47.48613961972296237945556640625" lon="10.02872259356081485748291015625">
        <ele>1475.4000244140625</ele>
        <time>2026-09-01T09:51:09.000Z</time>
        <extensions>
          <ns3:TrackPointExtension>
            <ns3:hr>147</ns3:hr>
            <ns3:cad>0</ns3:cad>
          </ns3:TrackPointExtension>
        </extensions>
      </trkpt>
      <trkpt lat="47.4861440621316432952880859375" lon="10.02870515920221805572509765625">
        <ele>1474.5999755859375</ele>
        <time>2026-09-01T09:51:10.000Z</time>
        <extensions>
          <ns3:TrackPointExtension>
            <ns3:hr>147</ns3:hr>
            <ns3:cad>0</ns3:cad>
          </ns3:TrackPointExtension>
        </extensions>
      </trkpt>
      <trkpt lat="47.48616275377571582794189453125" lon="10.02867850475013256072998046875">
        <ele>1473.199951171875</ele>
        <time>2026-09-01T09:51:12.000Z</time>
        <extensions>
          <ns3:TrackPointExtension>
            <ns3:hr>146</ns3:hr>
            <ns3:cad>0</ns3:cad>
          </ns3:TrackPointExtension>
        </extensions>
      </trkpt>
      <trkpt lat="47.48617582954466342926025390625" lon="10.02865218557417392730712890625">
        <ele>1471.800048828125</ele>
        <time>2026-09-01T09:51:14.000Z</time>
        <extensions>
          <ns3:TrackPointExtension>
            <ns3:hr>146</ns3:hr>
            <ns3:cad>0</ns3:cad>
          </ns3:TrackPointExtension>
        </extensions>
      </trkpt>
      <trkpt lat="47.48615822754800319671630859375" lon="10.0286271236836910247802734375">
        <ele>1470.4000244140625</ele>
        <time>2026-09-01T09:51:17.000Z</time>
        <extensions>
          <ns3:TrackPointExtension>
            <ns3:hr>145</ns3:hr>
            <ns3:cad>0</ns3:cad>
          </ns3:TrackPointExtension>
        </extensions>
      </trkpt>
      <trkpt lat="47.48615521006286144256591796875" lon="10.02859376370906829833984375">
        <ele>1470.199951171875</ele>
        <time>2026-09-01T09:51:18.000Z</time>
        <extensions>
          <ns3:TrackPointExtension>
            <ns3:hr>144</ns3:hr>
            <ns3:cad>0</ns3:cad>
          </ns3:TrackPointExtension>
        </extensions>
      </trkpt>
      <trkpt lat="47.48613945208489894866943359375" lon="10.028494857251644134521484375">
        <ele>1469.4000244140625</ele>
        <time>2026-09-01T09:51:21.000Z</time>
        <extensions>
          <ns3:TrackPointExtension>
            <ns3:hr>144</ns3:hr>
            <ns3:cad>68</ns3:cad>
          </ns3:TrackPointExtension>
        </extensions>
      </trkpt>
      <trkpt lat="47.4861381947994232177734375" lon="10.0284675322473049163818359375">
        <ele>1469.4000244140625</ele>
        <time>2026-09-01T09:51:22.000Z</time>
        <extensions>
          <ns3:TrackPointExtension>
            <ns3:hr>143</ns3:hr>
            <ns3:cad>68</ns3:cad>
          </ns3:TrackPointExtension>
        </extensions>
      </trkpt>
      <trkpt lat="47.48611749149858951568603515625" lon="10.02827634103596210479736328125">
        <ele>1468.199951171875</ele>
        <time>2026-09-01T09:51:29.000Z</time>
        <extensions>
          <ns3:TrackPointExtension>
            <ns3:hr>144</ns3:hr>
            <ns3:cad>68</ns3:cad>
          </ns3:TrackPointExtension>
        </extensions>
      </trkpt>
      <trkpt lat="47.48609553091228008270263671875" lon="10.0281305797398090362548828125">
        <ele>1469.199951171875</ele>
        <time>2026-09-01T09:51:34.000Z</time>
        <extensions>
          <ns3:TrackPointExtension>
            <ns3:hr>146</ns3:hr>
            <ns3:cad>85</ns3:cad>
          </ns3:TrackPointExtension>
        </extensions>
      </trkpt>
      <trkpt lat="47.48609595000743865966796875" lon="10.02811406739056110382080078125">
        <ele>1469.4000244140625</ele>
        <time>2026-09-01T09:51:35.000Z</time>
        <extensions>
          <ns3:TrackPointExtension>
            <ns3:hr>147</ns3:hr>
            <ns3:cad>85</ns3:cad>
          </ns3:TrackPointExtension>
        </extensions>
      </trkpt>
      <trkpt lat="47.48608681373298168182373046875" lon="10.0280859880149364471435546875">
        <ele>1470.199951171875</ele>
        <time>2026-09-01T09:51:38.000Z</time>
        <extensions>
          <ns3:TrackPointExtension>
            <ns3:hr>148</ns3:hr>
            <ns3:cad>0</ns3:cad>
          </ns3:TrackPointExtension>
        </extensions>
      </trkpt>
      <trkpt lat="47.4860840477049350738525390625" lon="10.02805455587804317474365234375">
        <ele>1471</ele>
        <time>2026-09-01T09:51:41.000Z</time>
        <extensions>
          <ns3:TrackPointExtension>
            <ns3:hr>149</ns3:hr>
            <ns3:cad>0</ns3:cad>
          </ns3:TrackPointExtension>
        </extensions>
      </trkpt>
      <trkpt lat="47.4860763363540172576904296875" lon="10.028036199510097503662109375">
        <ele>1471.4000244140625</ele>
        <time>2026-09-01T09:51:42.000Z</time>
        <extensions>
          <ns3:TrackPointExtension>
            <ns3:hr>149</ns3:hr>
            <ns3:cad>53</ns3:cad>
          </ns3:TrackPointExtension>
        </extensions>
      </trkpt>
      <trkpt lat="47.486042641103267669677734375" lon="10.02793167717754840850830078125">
        <ele>1472.199951171875</ele>
        <time>2026-09-01T09:51:47.000Z</time>
        <extensions>
          <ns3:TrackPointExtension>
            <ns3:hr>151</ns3:hr>
            <ns3:cad>0</ns3:cad>
          </ns3:TrackPointExtension>
        </extensions>
      </trkpt>
      <trkpt lat="47.48601774685084819793701171875" lon="10.02782740630209445953369140625">
        <ele>1472.4000244140625</ele>
        <time>2026-09-01T09:51:53.000Z</time>
        <extensions>
          <ns3:TrackPointExtension>
            <ns3:hr>151</ns3:hr>
            <ns3:cad>0</ns3:cad>
          </ns3:TrackPointExtension>
        </extensions>
      </trkpt>
      <trkpt lat="47.48601322062313556671142578125" lon="10.02779706381261348724365234375">
        <ele>1473.5999755859375</ele>
        <time>2026-09-01T09:51:56.000Z</time>
        <extensions>
          <ns3:TrackPointExtension>
            <ns3:hr>153</ns3:hr>
            <ns3:cad>81</ns3:cad>
          </ns3:TrackPointExtension>
        </extensions>
      </trkpt>
      <trkpt lat="47.4859854765236377716064453125" lon="10.02773034386336803436279296875">
        <ele>1474.199951171875</ele>
        <time>2026-09-01T09:51:59.000Z</time>
        <extensions>
          <ns3:TrackPointExtension>
            <ns3:hr>154</ns3:hr>
            <ns3:cad>81</ns3:cad>
          </ns3:TrackPointExtension>
        </extensions>
      </trkpt>
      <trkpt lat="47.4859757535159587860107421875" lon="10.027691535651683807373046875">
        <ele>1474.199951171875</ele>
        <time>2026-09-01T09:52:00.000Z</time>
        <extensions>
          <ns3:TrackPointExtension>
            <ns3:hr>154</ns3:hr>
            <ns3:cad>81</ns3:cad>
          </ns3:TrackPointExtension>
        </extensions>
      </trkpt>
      <trkpt lat="47.4859636835753917694091796875" lon="10.0276078842580318450927734375">
        <ele>1474.5999755859375</ele>
        <time>2026-09-01T09:52:04.000Z</time>
        <extensions>
          <ns3:TrackPointExtension>
            <ns3:hr>154</ns3:hr>
            <ns3:cad>75</ns3:cad>
          </ns3:TrackPointExtension>
        </extensions>
      </trkpt>
      <trkpt lat="47.48596862889826297760009765625" lon="10.02759329974651336669921875">
        <ele>1475.5999755859375</ele>
        <time>2026-09-01T09:52:07.000Z</time>
        <extensions>
          <ns3:TrackPointExtension>
            <ns3:hr>156</ns3:hr>
            <ns3:cad>75</ns3:cad>
          </ns3:TrackPointExtension>
        </extensions>
      </trkpt>
      <trkpt lat="47.4859606660902500152587890625" lon="10.0275683216750621795654296875">
        <ele>1476.4000244140625</ele>
        <time>2026-09-01T09:52:09.000Z</time>
        <extensions>
          <ns3:TrackPointExtension>
            <ns3:hr>155</ns3:hr>
            <ns3:cad>79</ns3:cad>
          </ns3:TrackPointExtension>
        </extensions>
      </trkpt>
      <trkpt lat="47.48595840297639369964599609375" lon="10.027561448514461517333984375">
        <ele>1476.800048828125</ele>
        <time>2026-09-01T09:52:10.000Z</time>
        <extensions>
          <ns3:TrackPointExtension>
            <ns3:hr>155</ns3:hr>
            <ns3:cad>79</ns3:cad>
          </ns3:TrackPointExtension>
        </extensions>
      </trkpt>
      <trkpt lat="47.48595513403415679931640625" lon="10.027513839304447174072265625">
        <ele>1477.5999755859375</ele>
        <time>2026-09-01T09:52:13.000Z</time>
        <extensions>
          <ns3:TrackPointExtension>
            <ns3:hr>154</ns3:hr>
            <ns3:cad>79</ns3:cad>
          </ns3:TrackPointExtension>
        </extensions>
      </trkpt>
      <trkpt lat="47.485949099063873291015625" lon="10.02750813961029052734375">
        <ele>1478</ele>
        <time>2026-09-01T09:52:14.000Z</time>
        <extensions>
          <ns3:TrackPointExtension>
            <ns3:hr>153</ns3:hr>
            <ns3:cad>79</ns3:cad>
          </ns3:TrackPointExtension>
        </extensions>
      </trkpt>
      <trkpt lat="47.485948763787746429443359375" lon="10.02749003469944000244140625">
        <ele>1478.4000244140625</ele>
        <time>2026-09-01T09:52:16.000Z</time>
        <extensions>
          <ns3:TrackPointExtension>
            <ns3:hr>154</ns3:hr>
            <ns3:cad>0</ns3:cad>
          </ns3:TrackPointExtension>
        </extensions>
      </trkpt>
      <trkpt lat="47.48594842851161956787109375" lon="10.02745491452515125274658203125">
        <ele>1479</ele>
        <time>2026-09-01T09:52:19.000Z</time>
        <extensions>
          <ns3:TrackPointExtension>
            <ns3:hr>155</ns3:hr>
            <ns3:cad>0</ns3:cad>
          </ns3:TrackPointExtension>
        </extensions>
      </trkpt>
      <trkpt lat="47.48594784177839756011962890625" lon="10.02740244381129741668701171875">
        <ele>1479.5999755859375</ele>
        <time>2026-09-01T09:52:23.000Z</time>
        <extensions>
          <ns3:TrackPointExtension>
            <ns3:hr>158</ns3:hr>
            <ns3:cad>0</ns3:cad>
          </ns3:TrackPointExtension>
        </extensions>
      </trkpt>
      <trkpt lat="47.485938370227813720703125" lon="10.0273876078426837921142578125">
        <ele>1480.4000244140625</ele>
        <time>2026-09-01T09:52:25.000Z</time>
        <extensions>
          <ns3:TrackPointExtension>
            <ns3:hr>158</ns3:hr>
            <ns3:cad>0</ns3:cad>
          </ns3:TrackPointExtension>
        </extensions>
      </trkpt>
      <trkpt lat="47.4859385378658771514892578125" lon="10.02737872302532196044921875">
        <ele>1480.800048828125</ele>
        <time>2026-09-01T09:52:26.000Z</time>
        <extensions>
          <ns3:TrackPointExtension>
            <ns3:hr>158</ns3:hr>
            <ns3:cad>0</ns3:cad>
          </ns3:TrackPointExtension>
        </extensions>
      </trkpt>
      <trkpt lat="47.48591565527021884918212890625" lon="10.02734662033617496490478515625">
        <ele>1481.4000244140625</ele>
        <time>2026-09-01T09:52:28.000Z</time>
        <extensions>
          <ns3:TrackPointExtension>
            <ns3:hr>157</ns3:hr>
            <ns3:cad>0</ns3:cad>
          </ns3:TrackPointExtension>
        </extensions>
      </trkpt>
      <trkpt lat="47.48589570634067058563232421875" lon="10.027312338352203369140625">
        <ele>1481.5999755859375</ele>
        <time>2026-09-01T09:52:30.000Z</time>
        <extensions>
          <ns3:TrackPointExtension>
            <ns3:hr>156</ns3:hr>
            <ns3:cad>0</ns3:cad>
          </ns3:TrackPointExtension>
        </extensions>
      </trkpt>
      <trkpt lat="47.48586184345185756683349609375" lon="10.02722508274018764495849609375">
        <ele>1482.199951171875</ele>
        <time>2026-09-01T09:52:36.000Z</time>
        <extensions>
          <ns3:TrackPointExtension>
            <ns3:hr>157</ns3:hr>
            <ns3:cad>57</ns3:cad>
          </ns3:TrackPointExtension>
        </extensions>
      </trkpt>
      <trkpt lat="47.4858627654612064361572265625" lon="10.02716012299060821533203125">
        <ele>1482.800048828125</ele>
        <time>2026-09-01T09:52:42.000Z</time>
        <extensions>
          <ns3:TrackPointExtension>
            <ns3:hr>156</ns3:hr>
            <ns3:cad>0</ns3:cad>
          </ns3:TrackPointExtension>
        </extensions>
      </trkpt>
      <trkpt lat="47.48585698194801807403564453125" lon="10.0270922295749187469482421875">
        <ele>1484.199951171875</ele>
        <time>2026-09-01T09:52:45.000Z</time>
        <extensions>
          <ns3:TrackPointExtension>
            <ns3:hr>155</ns3:hr>
            <ns3:cad>79</ns3:cad>
          </ns3:TrackPointExtension>
        </extensions>
      </trkpt>
      <trkpt lat="47.48584977351129055023193359375" lon="10.02702592872083187103271484375">
        <ele>1485</ele>
        <time>2026-09-01T09:52:48.000Z</time>
        <extensions>
          <ns3:TrackPointExtension>
            <ns3:hr>155</ns3:hr>
            <ns3:cad>0</ns3:cad>
          </ns3:TrackPointExtension>
        </extensions>
      </trkpt>
      <trkpt lat="47.48584692366421222686767578125" lon="10.026982761919498443603515625">
        <ele>1485.199951171875</ele>
        <time>2026-09-01T09:52:50.000Z</time>
        <extensions>
          <ns3:TrackPointExtension>
            <ns3:hr>154</ns3:hr>
            <ns3:cad>47</ns3:cad>
          </ns3:TrackPointExtension>
        </extensions>
      </trkpt>
      <trkpt lat="47.48583217151463031768798828125" lon="10.02692836336791515350341796875">
        <ele>1486</ele>
        <time>2026-09-01T09:52:54.000Z</time>
        <extensions>
          <ns3:TrackPointExtension>
            <ns3:hr>156</ns3:hr>
            <ns3:cad>42</ns3:cad>
          </ns3:TrackPointExtension>
        </extensions>
      </trkpt>
      <trkpt lat="47.4858094565570354461669921875" lon="10.026868097484111785888671875">
        <ele>1486.4000244140625</ele>
        <time>2026-09-01T09:52:58.000Z</time>
        <extensions>
          <ns3:TrackPointExtension>
            <ns3:hr>155</ns3:hr>
            <ns3:cad>56</ns3:cad>
          </ns3:TrackPointExtension>
        </extensions>
      </trkpt>
      <trkpt lat="47.4858044274151325225830078125" lon="10.02684094011783599853515625">
        <ele>1487</ele>
        <time>2026-09-01T09:53:01.000Z</time>
        <extensions>
          <ns3:TrackPointExtension>
            <ns3:hr>154</ns3:hr>
            <ns3:cad>56</ns3:cad>
          </ns3:TrackPointExtension>
        </extensions>
      </trkpt>
      <trkpt lat="47.4858047626912593841552734375" lon="10.02683901228010654449462890625">
        <ele>1487.5999755859375</ele>
        <time>2026-09-01T09:53:03.000Z</time>
        <extensions>
          <ns3:TrackPointExtension>
            <ns3:hr>152</ns3:hr>
            <ns3:cad>0</ns3:cad>
          </ns3:TrackPointExtension>
        </extensions>
      </trkpt>
      <trkpt lat="47.48580132611095905303955078125" lon="10.02682141028344631195068359375">
        <ele>1488.5999755859375</ele>
        <time>2026-09-01T09:53:06.000Z</time>
        <extensions>
          <ns3:TrackPointExtension>
            <ns3:hr>151</ns3:hr>
            <ns3:cad>0</ns3:cad>
          </ns3:TrackPointExtension>
        </extensions>
      </trkpt>
      <trkpt lat="47.48578975908458232879638671875" lon="10.026799030601978302001953125">
        <ele>1489.800048828125</ele>
        <time>2026-09-01T09:53:09.000Z</time>
        <extensions>
          <ns3:TrackPointExtension>
            <ns3:hr>152</ns3:hr>
            <ns3:cad>0</ns3:cad>
          </ns3:TrackPointExtension>
        </extensions>
      </trkpt>
      <trkpt lat="47.4857940338551998138427734375" lon="10.02677195705473423004150390625">
        <ele>1490.4000244140625</ele>
        <time>2026-09-01T09:53:12.000Z</time>
        <extensions>
          <ns3:TrackPointExtension>
            <ns3:hr>153</ns3:hr>
            <ns3:cad>0</ns3:cad>
          </ns3:TrackPointExtension>
        </extensions>
      </trkpt>
      <trkpt lat="47.48579143546521663665771484375" lon="10.02675318159162998199462890625">
        <ele>1490.5999755859375</ele>
        <time>2026-09-01T09:53:14.000Z</time>
        <extensions>
          <ns3:TrackPointExtension>
            <ns3:hr>154</ns3:hr>
            <ns3:cad>0</ns3:cad>
          </ns3:TrackPointExtension>
        </extensions>
      </trkpt>
      <trkpt lat="47.48579344712197780609130859375" lon="10.02674681134521961212158203125">
        <ele>1491</ele>
        <time>2026-09-01T09:53:15.000Z</time>
        <extensions>
          <ns3:TrackPointExtension>
            <ns3:hr>155</ns3:hr>
            <ns3:cad>0</ns3:cad>
          </ns3:TrackPointExtension>
        </extensions>
      </trkpt>
      <trkpt lat="47.485796548426151275634765625" lon="10.02674362622201442718505859375">
        <ele>1491.800048828125</ele>
        <time>2026-09-01T09:53:18.000Z</time>
        <extensions>
          <ns3:TrackPointExtension>
            <ns3:hr>155</ns3:hr>
            <ns3:cad>0</ns3:cad>
          </ns3:TrackPointExtension>
        </extensions>
      </trkpt>
      <trkpt lat="47.4858020804822444915771484375" lon="10.02673792652785778045654296875">
        <ele>1492</ele>
        <time>2026-09-01T09:53:19.000Z</time>
        <extensions>
          <ns3:TrackPointExtension>
            <ns3:hr>155</ns3:hr>
            <ns3:cad>0</ns3:cad>
          </ns3:TrackPointExtension>
        </extensions>
      </trkpt>
      <trkpt lat="47.4857916869223117828369140625" lon="10.02670439891517162322998046875">
        <ele>1492.5999755859375</ele>
        <time>2026-09-01T09:53:22.000Z</time>
        <extensions>
          <ns3:TrackPointExtension>
            <ns3:hr>154</ns3:hr>
            <ns3:cad>0</ns3:cad>
          </ns3:TrackPointExtension>
        </extensions>
      </trkpt>
      <trkpt lat="47.48579093255102634429931640625" lon="10.0266687758266925811767578125">
        <ele>1493</ele>
        <time>2026-09-01T09:53:24.000Z</time>
        <extensions>
          <ns3:TrackPointExtension>
            <ns3:hr>154</ns3:hr>
            <ns3:cad>0</ns3:cad>
          </ns3:TrackPointExtension>
        </extensions>
      </trkpt>
      <trkpt lat="47.48579093255102634429931640625" lon="10.02661437727510929107666015625">
        <ele>1494</ele>
        <time>2026-09-01T09:53:28.000Z</time>
        <extensions>
          <ns3:TrackPointExtension>
            <ns3:hr>154</ns3:hr>
            <ns3:cad>55</ns3:cad>
          </ns3:TrackPointExtension>
        </extensions>
      </trkpt>
      <trkpt lat="47.4857916869223117828369140625" lon="10.02660834230482578277587890625">
        <ele>1494.199951171875</ele>
        <time>2026-09-01T09:53:29.000Z</time>
        <extensions>
          <ns3:TrackPointExtension>
            <ns3:hr>155</ns3:hr>
            <ns3:cad>55</ns3:cad>
          </ns3:TrackPointExtension>
        </extensions>
      </trkpt>
      <trkpt lat="47.4857910163700580596923828125" lon="10.0265816040337085723876953125">
        <ele>1495.4000244140625</ele>
        <time>2026-09-01T09:53:32.000Z</time>
        <extensions>
          <ns3:TrackPointExtension>
            <ns3:hr>155</ns3:hr>
            <ns3:cad>56</ns3:cad>
          </ns3:TrackPointExtension>
        </extensions>
      </trkpt>
      <trkpt lat="47.48580786399543285369873046875" lon="10.0265480764210224151611328125">
        <ele>1496.4000244140625</ele>
        <time>2026-09-01T09:53:36.000Z</time>
        <extensions>
          <ns3:TrackPointExtension>
            <ns3:hr>155</ns3:hr>
            <ns3:cad>0</ns3:cad>
          </ns3:TrackPointExtension>
        </extensions>
      </trkpt>
      <trkpt lat="47.48580886982381343841552734375" lon="10.02650457434356212615966796875">
        <ele>1497.5999755859375</ele>
        <time>2026-09-01T09:53:41.000Z</time>
        <extensions>
          <ns3:TrackPointExtension>
            <ns3:hr>155</ns3:hr>
            <ns3:cad>43</ns3:cad>
          </ns3:TrackPointExtension>
        </extensions>
      </trkpt>
      <trkpt lat="47.4858094565570354461669921875" lon="10.0264997966587543487548828125">
        <ele>1498</ele>
        <time>2026-09-01T09:53:42.000Z</time>
        <extensions>
          <ns3:TrackPointExtension>
            <ns3:hr>156</ns3:hr>
            <ns3:cad>43</ns3:cad>
          </ns3:TrackPointExtension>
        </extensions>
      </trkpt>
      <trkpt lat="47.48580451123416423797607421875" lon="10.026491582393646240234375">
        <ele>1498.800048828125</ele>
        <time>2026-09-01T09:53:44.000Z</time>
        <extensions>
          <ns3:TrackPointExtension>
            <ns3:hr>156</ns3:hr>
            <ns3:cad>43</ns3:cad>
          </ns3:TrackPointExtension>
        </extensions>
      </trkpt>
      <trkpt lat="47.4858091212809085845947265625" lon="10.0264565460383892059326171875">
        <ele>1499.800048828125</ele>
        <time>2026-09-01T09:53:47.000Z</time>
        <extensions>
          <ns3:TrackPointExtension>
            <ns3:hr>157</ns3:hr>
            <ns3:cad>42</ns3:cad>
          </ns3:TrackPointExtension>
        </extensions>
      </trkpt>
      <trkpt lat="47.48581155203282833099365234375" lon="10.02644405700266361236572265625">
        <ele>1500</ele>
        <time>2026-09-01T09:53:48.000Z</time>
        <extensions>
          <ns3:TrackPointExtension>
            <ns3:hr>158</ns3:hr>
            <ns3:cad>75</ns3:cad>
          </ns3:TrackPointExtension>
        </extensions>
      </trkpt>
      <trkpt lat="47.48580853454768657684326171875" lon="10.0264334119856357574462890625">
        <ele>1500.199951171875</ele>
        <time>2026-09-01T09:53:49.000Z</time>
        <extensions>
          <ns3:TrackPointExtension>
            <ns3:hr>157</ns3:hr>
            <ns3:cad>75</ns3:cad>
          </ns3:TrackPointExtension>
        </extensions>
      </trkpt>
      <trkpt lat="47.48579411767423152923583984375" lon="10.02640516497194766998291015625">
        <ele>1500.800048828125</ele>
        <time>2026-09-01T09:53:52.000Z</time>
        <extensions>
          <ns3:TrackPointExtension>
            <ns3:hr>158</ns3:hr>
            <ns3:cad>75</ns3:cad>
          </ns3:TrackPointExtension>
        </extensions>
      </trkpt>
      <trkpt lat="47.48578908853232860565185546875" lon="10.026377923786640167236328125">
        <ele>1501</ele>
        <time>2026-09-01T09:53:54.000Z</time>
        <extensions>
          <ns3:TrackPointExtension>
            <ns3:hr>158</ns3:hr>
            <ns3:cad>42</ns3:cad>
          </ns3:TrackPointExtension>
        </extensions>
      </trkpt>
      <trkpt lat="47.485793195664882659912109375" lon="10.0263422168791294097900390625">
        <ele>1502</ele>
        <time>2026-09-01T09:53:59.000Z</time>
        <extensions>
          <ns3:TrackPointExtension>
            <ns3:hr>158</ns3:hr>
            <ns3:cad>55</ns3:cad>
          </ns3:TrackPointExtension>
        </extensions>
      </trkpt>
      <trkpt lat="47.485794536769390106201171875" lon="10.02634012140333652496337890625">
        <ele>1502.199951171875</ele>
        <time>2026-09-01T09:54:00.000Z</time>
        <extensions>
          <ns3:TrackPointExtension>
            <ns3:hr>158</ns3:hr>
            <ns3:cad>55</ns3:cad>
          </ns3:TrackPointExtension>
        </extensions>
      </trkpt>
      <trkpt lat="47.48579395003616809844970703125" lon="10.02632318995893001556396484375">
        <ele>1503</ele>
        <time>2026-09-01T09:54:02.000Z</time>
        <extensions>
          <ns3:TrackPointExtension>
            <ns3:hr>156</ns3:hr>
            <ns3:cad>71</ns3:cad>
          </ns3:TrackPointExtension>
        </extensions>
      </trkpt>
      <trkpt lat="47.48579797334969043731689453125" lon="10.02628949470818042755126953125">
        <ele>1503.800048828125</ele>
        <time>2026-09-01T09:54:05.000Z</time>
        <extensions>
          <ns3:TrackPointExtension>
            <ns3:hr>156</ns3:hr>
            <ns3:cad>71</ns3:cad>
          </ns3:TrackPointExtension>
        </extensions>
      </trkpt>
      <trkpt lat="47.48578405939042568206787109375" lon="10.02626082859933376312255859375">
        <ele>1504</ele>
        <time>2026-09-01T09:54:07.000Z</time>
        <extensions>
          <ns3:TrackPointExtension>
            <ns3:hr>156</ns3:hr>
            <ns3:cad>0</ns3:cad>
          </ns3:TrackPointExtension>
        </extensions>
      </trkpt>
      <trkpt lat="47.48578087426722049713134765625" lon="10.02621590159833431243896484375">
        <ele>1504.5999755859375</ele>
        <time>2026-09-01T09:54:10.000Z</time>
        <extensions>
          <ns3:TrackPointExtension>
            <ns3:hr>157</ns3:hr>
            <ns3:cad>0</ns3:cad>
          </ns3:TrackPointExtension>
        </extensions>
      </trkpt>
      <trkpt lat="47.485786490142345428466796875" lon="10.0262027420103549957275390625">
        <ele>1505.199951171875</ele>
        <time>2026-09-01T09:54:13.000Z</time>
        <extensions>
          <ns3:TrackPointExtension>
            <ns3:hr>157</ns3:hr>
            <ns3:cad>0</ns3:cad>
          </ns3:TrackPointExtension>
        </extensions>
      </trkpt>
      <trkpt lat="47.4857833050191402435302734375" lon="10.0261863134801387786865234375">
        <ele>1505.800048828125</ele>
        <time>2026-09-01T09:54:17.000Z</time>
        <extensions>
          <ns3:TrackPointExtension>
            <ns3:hr>158</ns3:hr>
            <ns3:cad>0</ns3:cad>
          </ns3:TrackPointExtension>
        </extensions>
      </trkpt>
      <trkpt lat="47.48578481376171112060546875" lon="10.02616762183606624603271484375">
        <ele>1506.5999755859375</ele>
        <time>2026-09-01T09:54:19.000Z</time>
        <extensions>
          <ns3:TrackPointExtension>
            <ns3:hr>157</ns3:hr>
            <ns3:cad>0</ns3:cad>
          </ns3:TrackPointExtension>
        </extensions>
      </trkpt>
      <trkpt lat="47.48578992672264575958251953125" lon="10.0261174142360687255859375">
        <ele>1507.199951171875</ele>
        <time>2026-09-01T09:54:22.000Z</time>
        <extensions>
          <ns3:TrackPointExtension>
            <ns3:hr>156</ns3:hr>
            <ns3:cad>0</ns3:cad>
          </ns3:TrackPointExtension>
        </extensions>
      </trkpt>
      <trkpt lat="47.48578305356204509735107421875" lon="10.02610811032354831695556640625">
        <ele>1507.4000244140625</ele>
        <time>2026-09-01T09:54:23.000Z</time>
        <extensions>
          <ns3:TrackPointExtension>
            <ns3:hr>156</ns3:hr>
            <ns3:cad>0</ns3:cad>
          </ns3:TrackPointExtension>
        </extensions>
      </trkpt>
      <trkpt lat="47.48575388453900814056396484375" lon="10.0260397978127002716064453125">
        <ele>1507.199951171875</ele>
        <time>2026-09-01T09:54:27.000Z</time>
        <extensions>
          <ns3:TrackPointExtension>
            <ns3:hr>156</ns3:hr>
            <ns3:cad>52</ns3:cad>
          </ns3:TrackPointExtension>
        </extensions>
      </trkpt>
      <trkpt lat="47.4857144057750701904296875" lon="10.02588448114693164825439453125">
        <ele>1507</ele>
        <time>2026-09-01T09:54:35.000Z</time>
        <extensions>
          <ns3:TrackPointExtension>
            <ns3:hr>154</ns3:hr>
            <ns3:cad>52</ns3:cad>
          </ns3:TrackPointExtension>
        </extensions>
      </trkpt>
      <trkpt lat="47.485642321407794952392578125" lon="10.02572656609117984771728515625">
        <ele>1506.800048828125</ele>
        <time>2026-09-01T09:54:41.000Z</time>
        <extensions>
          <ns3:TrackPointExtension>
            <ns3:hr>153</ns3:hr>
            <ns3:cad>42</ns3:cad>
          </ns3:TrackPointExtension>
        </extensions>
      </trkpt>
      <trkpt lat="47.485578954219818115234375" lon="10.0255958922207355499267578125">
        <ele>1506</ele>
        <time>2026-09-01T09:54:45.000Z</time>
        <extensions>
          <ns3:TrackPointExtension>
            <ns3:hr>152</ns3:hr>
            <ns3:cad>81</ns3:cad>
          </ns3:TrackPointExtension>
        </extensions>
      </trkpt>
      <trkpt lat="47.48551567085087299346923828125" lon="10.02547510899603366851806640625">
        <ele>1506.5999755859375</ele>
        <time>2026-09-01T09:54:51.000Z</time>
        <extensions>
          <ns3:TrackPointExtension>
            <ns3:hr>153</ns3:hr>
            <ns3:cad>41</ns3:cad>
          </ns3:TrackPointExtension>
        </extensions>
      </trkpt>
      <trkpt lat="47.4855113960802555084228515625" lon="10.02543772570788860321044921875">
        <ele>1506.800048828125</ele>
        <time>2026-09-01T09:54:56.000Z</time>
        <extensions>
          <ns3:TrackPointExtension>
            <ns3:hr>151</ns3:hr>
            <ns3:cad>0</ns3:cad>
          </ns3:TrackPointExtension>
        </extensions>
      </trkpt>
      <trkpt lat="47.4855023436248302459716796875" lon="10.0253970734775066375732421875">
        <ele>1506.199951171875</ele>
        <time>2026-09-01T09:54:59.000Z</time>
        <extensions>
          <ns3:TrackPointExtension>
            <ns3:hr>151</ns3:hr>
            <ns3:cad>53</ns3:cad>
          </ns3:TrackPointExtension>
        </extensions>
      </trkpt>
      <trkpt lat="47.48549236916005611419677734375" lon="10.0253829918801784515380859375">
        <ele>1505.5999755859375</ele>
        <time>2026-09-01T09:55:01.000Z</time>
        <extensions>
          <ns3:TrackPointExtension>
            <ns3:hr>150</ns3:hr>
            <ns3:cad>53</ns3:cad>
          </ns3:TrackPointExtension>
        </extensions>
      </trkpt>
      <trkpt lat="47.48543101362884044647216796875" lon="10.02534820698201656341552734375">
        <ele>1506.4000244140625</ele>
        <time>2026-09-01T09:55:06.000Z</time>
        <extensions>
          <ns3:TrackPointExtension>
            <ns3:hr>147</ns3:hr>
            <ns3:cad>62</ns3:cad>
          </ns3:TrackPointExtension>
        </extensions>
      </trkpt>
      <trkpt lat="47.48540502972900867462158203125" lon="10.02534284256398677825927734375">
        <ele>1507</ele>
        <time>2026-09-01T09:55:08.000Z</time>
        <extensions>
          <ns3:TrackPointExtension>
            <ns3:hr>145</ns3:hr>
            <ns3:cad>0</ns3:cad>
          </ns3:TrackPointExtension>
        </extensions>
      </trkpt>
      <trkpt lat="47.48537845909595489501953125" lon="10.02534502185881137847900390625">
        <ele>1507.5999755859375</ele>
        <time>2026-09-01T09:55:10.000Z</time>
        <extensions>
          <ns3:TrackPointExtension>
            <ns3:hr>145</ns3:hr>
            <ns3:cad>0</ns3:cad>
          </ns3:TrackPointExtension>
        </extensions>
      </trkpt>
      <trkpt lat="47.48534317128360271453857421875" lon="10.02536312676966190338134765625">
        <ele>1508.800048828125</ele>
        <time>2026-09-01T09:55:14.000Z</time>
        <extensions>
          <ns3:TrackPointExtension>
            <ns3:hr>146</ns3:hr>
            <ns3:cad>0</ns3:cad>
          </ns3:TrackPointExtension>
        </extensions>
      </trkpt>
      <trkpt lat="47.4853109009563922882080078125" lon="10.025390200316905975341796875">
        <ele>1510</ele>
        <time>2026-09-01T09:55:17.000Z</time>
        <extensions>
          <ns3:TrackPointExtension>
            <ns3:hr>147</ns3:hr>
            <ns3:cad>0</ns3:cad>
          </ns3:TrackPointExtension>
        </extensions>
      </trkpt>
      <trkpt lat="47.48529237695038318634033203125" lon="10.02537838183343410491943359375">
        <ele>1510.5999755859375</ele>
        <time>2026-09-01T09:55:19.000Z</time>
        <extensions>
          <ns3:TrackPointExtension>
            <ns3:hr>148</ns3:hr>
            <ns3:cad>0</ns3:cad>
          </ns3:TrackPointExtension>
        </extensions>
      </trkpt>
      <trkpt lat="47.4852864257991313934326171875" lon="10.02537905238568782806396484375">
        <ele>1511</ele>
        <time>2026-09-01T09:55:20.000Z</time>
        <extensions>
          <ns3:TrackPointExtension>
            <ns3:hr>148</ns3:hr>
            <ns3:cad>0</ns3:cad>
          </ns3:TrackPointExtension>
        </extensions>
      </trkpt>
      <trkpt lat="47.48527645133435726165771484375" lon="10.02539162524044513702392578125">
        <ele>1511.4000244140625</ele>
        <time>2026-09-01T09:55:21.000Z</time>
        <extensions>
          <ns3:TrackPointExtension>
            <ns3:hr>148</ns3:hr>
            <ns3:cad>0</ns3:cad>
          </ns3:TrackPointExtension>
        </extensions>
      </trkpt>
      <trkpt lat="47.4852599389851093292236328125" lon="10.02541400492191314697265625">
        <ele>1512</ele>
        <time>2026-09-01T09:55:23.000Z</time>
        <extensions>
          <ns3:TrackPointExtension>
            <ns3:hr>149</ns3:hr>
            <ns3:cad>0</ns3:cad>
          </ns3:TrackPointExtension>
        </extensions>
      </trkpt>
      <trkpt lat="47.48525348491966724395751953125" lon="10.0254135020077228546142578125">
        <ele>1512.199951171875</ele>
        <time>2026-09-01T09:55:24.000Z</time>
        <extensions>
          <ns3:TrackPointExtension>
            <ns3:hr>149</ns3:hr>
            <ns3:cad>0</ns3:cad>
          </ns3:TrackPointExtension>
        </extensions>
      </trkpt>
      <trkpt lat="47.48523521237075328826904296875" lon="10.02540620975196361541748046875">
        <ele>1512.5999755859375</ele>
        <time>2026-09-01T09:55:25.000Z</time>
        <extensions>
          <ns3:TrackPointExtension>
            <ns3:hr>149</ns3:hr>
            <ns3:cad>0</ns3:cad>
          </ns3:TrackPointExtension>
        </extensions>
      </trkpt>
      <trkpt lat="47.48521149158477783203125" lon="10.0253866799175739288330078125">
        <ele>1513.4000244140625</ele>
        <time>2026-09-01T09:55:27.000Z</time>
        <extensions>
          <ns3:TrackPointExtension>
            <ns3:hr>150</ns3:hr>
            <ns3:cad>41</ns3:cad>
          </ns3:TrackPointExtension>
        </extensions>
      </trkpt>
      <trkpt lat="47.48519606888294219970703125" lon="10.025386847555637359619140625">
        <ele>1514</ele>
        <time>2026-09-01T09:55:29.000Z</time>
        <extensions>
          <ns3:TrackPointExtension>
            <ns3:hr>151</ns3:hr>
            <ns3:cad>0</ns3:cad>
          </ns3:TrackPointExtension>
        </extensions>
      </trkpt>
      <trkpt lat="47.4851962365210056304931640625" lon="10.02538860775530338287353515625">
        <ele>1514.5999755859375</ele>
        <time>2026-09-01T09:55:31.000Z</time>
        <extensions>
          <ns3:TrackPointExtension>
            <ns3:hr>152</ns3:hr>
            <ns3:cad>0</ns3:cad>
          </ns3:TrackPointExtension>
        </extensions>
      </trkpt>
      <trkpt lat="47.4851725995540618896484375" lon="10.02537905238568782806396484375">
        <ele>1515.5999755859375</ele>
        <time>2026-09-01T09:55:36.000Z</time>
        <extensions>
          <ns3:TrackPointExtension>
            <ns3:hr>151</ns3:hr>
            <ns3:cad>0</ns3:cad>
          </ns3:TrackPointExtension>
        </extensions>
      </trkpt>
      <trkpt lat="47.4851395748555660247802734375" lon="10.025370083749294281005859375">
        <ele>1516.800048828125</ele>
        <time>2026-09-01T09:55:40.000Z</time>
        <extensions>
          <ns3:TrackPointExtension>
            <ns3:hr>152</ns3:hr>
            <ns3:cad>0</ns3:cad>
          </ns3:TrackPointExtension>
        </extensions>
      </trkpt>
      <trkpt lat="47.4851295165717601776123046875" lon="10.02536706626415252685546875">
        <ele>1517.800048828125</ele>
        <time>2026-09-01T09:55:43.000Z</time>
        <extensions>
          <ns3:TrackPointExtension>
            <ns3:hr>154</ns3:hr>
            <ns3:cad>0</ns3:cad>
          </ns3:TrackPointExtension>
        </extensions>
      </trkpt>
      <trkpt lat="47.48511903919279575347900390625" lon="10.0253722630441188812255859375">
        <ele>1518.4000244140625</ele>
        <time>2026-09-01T09:55:45.000Z</time>
        <extensions>
          <ns3:TrackPointExtension>
            <ns3:hr>154</ns3:hr>
            <ns3:cad>0</ns3:cad>
          </ns3:TrackPointExtension>
        </extensions>
      </trkpt>
      <trkpt lat="47.48511216603219509124755859375" lon="10.025382824242115020751953125">
        <ele>1519.199951171875</ele>
        <time>2026-09-01T09:55:48.000Z</time>
        <extensions>
          <ns3:TrackPointExtension>
            <ns3:hr>156</ns3:hr>
            <ns3:cad>0</ns3:cad>
          </ns3:TrackPointExtension>
        </extensions>
      </trkpt>
      <trkpt lat="47.48509875498712062835693359375" lon="10.0253883562982082366943359375">
        <ele>1520.199951171875</ele>
        <time>2026-09-01T09:55:50.000Z</time>
        <extensions>
          <ns3:TrackPointExtension>
            <ns3:hr>157</ns3:hr>
            <ns3:cad>0</ns3:cad>
          </ns3:TrackPointExtension>
        </extensions>
      </trkpt>
      <trkpt lat="47.48508383519947528839111328125" lon="10.0253851711750030517578125">
        <ele>1520.4000244140625</ele>
        <time>2026-09-01T09:55:51.000Z</time>
        <extensions>
          <ns3:TrackPointExtension>
            <ns3:hr>157</ns3:hr>
            <ns3:cad>0</ns3:cad>
          </ns3:TrackPointExtension>
        </extensions>
      </trkpt>
      <trkpt lat="47.48505885712802410125732421875" lon="10.02537787891924381256103515625">
        <ele>1521.4000244140625</ele>
        <time>2026-09-01T09:55:54.000Z</time>
        <extensions>
          <ns3:TrackPointExtension>
            <ns3:hr>157</ns3:hr>
            <ns3:cad>0</ns3:cad>
          </ns3:TrackPointExtension>
        </extensions>
      </trkpt>
      <trkpt lat="47.4850574322044849395751953125" lon="10.02537536434829235076904296875">
        <ele>1521.5999755859375</ele>
        <time>2026-09-01T09:55:55.000Z</time>
        <extensions>
          <ns3:TrackPointExtension>
            <ns3:hr>157</ns3:hr>
            <ns3:cad>0</ns3:cad>
          </ns3:TrackPointExtension>
        </extensions>
      </trkpt>
      <trkpt lat="47.48504108749330043792724609375" lon="10.02536237239837646484375">
        <ele>1522.199951171875</ele>
        <time>2026-09-01T09:55:57.000Z</time>
        <extensions>
          <ns3:TrackPointExtension>
            <ns3:hr>158</ns3:hr>
            <ns3:cad>0</ns3:cad>
          </ns3:TrackPointExtension>
        </extensions>
      </trkpt>
      <trkpt lat="47.48503002338111400604248046875" lon="10.025358013808727264404296875">
        <ele>1522.5999755859375</ele>
        <time>2026-09-01T09:55:58.000Z</time>
        <extensions>
          <ns3:TrackPointExtension>
            <ns3:hr>158</ns3:hr>
            <ns3:cad>0</ns3:cad>
          </ns3:TrackPointExtension>
        </extensions>
      </trkpt>
      <trkpt lat="47.48501610942184925079345703125" lon="10.0253259949386119842529296875">
        <ele>1523.800048828125</ele>
        <time>2026-09-01T09:56:02.000Z</time>
        <extensions>
          <ns3:TrackPointExtension>
            <ns3:hr>159</ns3:hr>
            <ns3:cad>0</ns3:cad>
          </ns3:TrackPointExtension>
        </extensions>
      </trkpt>
      <trkpt lat="47.4849830009043216705322265625" lon="10.02530914731323719024658203125">
        <ele>1525</ele>
        <time>2026-09-01T09:56:06.000Z</time>
        <extensions>
          <ns3:TrackPointExtension>
            <ns3:hr>159</ns3:hr>
            <ns3:cad>0</ns3:cad>
          </ns3:TrackPointExtension>
        </extensions>
      </trkpt>
      <trkpt lat="47.48497151769697666168212890625" lon="10.02531166188418865203857421875">
        <ele>1525.4000244140625</ele>
        <time>2026-09-01T09:56:07.000Z</time>
        <extensions>
          <ns3:TrackPointExtension>
            <ns3:hr>159</ns3:hr>
            <ns3:cad>0</ns3:cad>
          </ns3:TrackPointExtension>
        </extensions>
      </trkpt>
      <trkpt lat="47.4849508143961429595947265625" lon="10.0253239832818508148193359375">
        <ele>1526.199951171875</ele>
        <time>2026-09-01T09:56:09.000Z</time>
        <extensions>
          <ns3:TrackPointExtension>
            <ns3:hr>159</ns3:hr>
            <ns3:cad>0</ns3:cad>
          </ns3:TrackPointExtension>
        </extensions>
      </trkpt>
      <trkpt lat="47.48492960818111896514892578125" lon="10.025327168405055999755859375">
        <ele>1526.800048828125</ele>
        <time>2026-09-01T09:56:11.000Z</time>
        <extensions>
          <ns3:TrackPointExtension>
            <ns3:hr>159</ns3:hr>
            <ns3:cad>0</ns3:cad>
          </ns3:TrackPointExtension>
        </extensions>
      </trkpt>
      <trkpt lat="47.48487730510532855987548828125" lon="10.02526581287384033203125">
        <ele>1527.199951171875</ele>
        <time>2026-09-01T09:56:14.000Z</time>
        <extensions>
          <ns3:TrackPointExtension>
            <ns3:hr>159</ns3:hr>
            <ns3:cad>0</ns3:cad>
          </ns3:TrackPointExtension>
        </extensions>
      </trkpt>
      <trkpt lat="47.484822906553745269775390625" lon="10.025111921131610870361328125">
        <ele>1527</ele>
        <time>2026-09-01T09:56:19.000Z</time>
        <extensions>
          <ns3:TrackPointExtension>
            <ns3:hr>159</ns3:hr>
            <ns3:cad>43</ns3:cad>
          </ns3:TrackPointExtension>
        </extensions>
      </trkpt>
      <trkpt lat="47.48476557433605194091796875" lon="10.024967081844806671142578125">
        <ele>1526.199951171875</ele>
        <time>2026-09-01T09:56:24.000Z</time>
        <extensions>
          <ns3:TrackPointExtension>
            <ns3:hr>159</ns3:hr>
            <ns3:cad>85</ns3:cad>
          </ns3:TrackPointExtension>
        </extensions>
      </trkpt>
      <trkpt lat="47.48473011888563632965087890625" lon="10.024926178157329559326171875">
        <ele>1525.199951171875</ele>
        <time>2026-09-01T09:56:26.000Z</time>
        <extensions>
          <ns3:TrackPointExtension>
            <ns3:hr>159</ns3:hr>
            <ns3:cad>83</ns3:cad>
          </ns3:TrackPointExtension>
        </extensions>
      </trkpt>
      <trkpt lat="47.48469072394073009490966796875" lon="10.0248696841299533843994140625">
        <ele>1523.800048828125</ele>
        <time>2026-09-01T09:56:28.000Z</time>
        <extensions>
          <ns3:TrackPointExtension>
            <ns3:hr>159</ns3:hr>
            <ns3:cad>0</ns3:cad>
          </ns3:TrackPointExtension>
        </extensions>
      </trkpt>
      <trkpt lat="47.484653927385807037353515625" lon="10.02479919232428073883056640625">
        <ele>1522.4000244140625</ele>
        <time>2026-09-01T09:56:30.000Z</time>
        <extensions>
          <ns3:TrackPointExtension>
            <ns3:hr>157</ns3:hr>
            <ns3:cad>0</ns3:cad>
          </ns3:TrackPointExtension>
        </extensions>
      </trkpt>
      <trkpt lat="47.48463959433138370513916015625" lon="10.02472065389156341552734375">
        <ele>1521.5999755859375</ele>
        <time>2026-09-01T09:56:32.000Z</time>
        <extensions>
          <ns3:TrackPointExtension>
            <ns3:hr>156</ns3:hr>
            <ns3:cad>79</ns3:cad>
          </ns3:TrackPointExtension>
        </extensions>
      </trkpt>
      <trkpt lat="47.4846353195607662200927734375" lon="10.02468436025083065032958984375">
        <ele>1521.4000244140625</ele>
        <time>2026-09-01T09:56:33.000Z</time>
        <extensions>
          <ns3:TrackPointExtension>
            <ns3:hr>155</ns3:hr>
            <ns3:cad>79</ns3:cad>
          </ns3:TrackPointExtension>
        </extensions>
      </trkpt>
      <trkpt lat="47.48460866510868072509765625" lon="10.02453449182212352752685546875">
        <ele>1519.800048828125</ele>
        <time>2026-09-01T09:56:37.000Z</time>
        <extensions>
          <ns3:TrackPointExtension>
            <ns3:hr>154</ns3:hr>
            <ns3:cad>86</ns3:cad>
          </ns3:TrackPointExtension>
        </extensions>
      </trkpt>
      <trkpt lat="47.4845843575894832611083984375" lon="10.02447917126119136810302734375">
        <ele>1518.800048828125</ele>
        <time>2026-09-01T09:56:39.000Z</time>
        <extensions>
          <ns3:TrackPointExtension>
            <ns3:hr>154</ns3:hr>
            <ns3:cad>86</ns3:cad>
          </ns3:TrackPointExtension>
        </extensions>
      </trkpt>
      <trkpt lat="47.48457220382988452911376953125" lon="10.02439652569591999053955078125">
        <ele>1517.800048828125</ele>
        <time>2026-09-01T09:56:41.000Z</time>
        <extensions>
          <ns3:TrackPointExtension>
            <ns3:hr>153</ns3:hr>
            <ns3:cad>85</ns3:cad>
          </ns3:TrackPointExtension>
        </extensions>
      </trkpt>
      <trkpt lat="47.48457404784858226776123046875" lon="10.02435327507555484771728515625">
        <ele>1517.5999755859375</ele>
        <time>2026-09-01T09:56:42.000Z</time>
        <extensions>
          <ns3:TrackPointExtension>
            <ns3:hr>153</ns3:hr>
            <ns3:cad>82</ns3:cad>
          </ns3:TrackPointExtension>
        </extensions>
      </trkpt>
      <trkpt lat="47.48453917913138866424560546875" lon="10.02427716739475727081298828125">
        <ele>1517</ele>
        <time>2026-09-01T09:56:45.000Z</time>
        <extensions>
          <ns3:TrackPointExtension>
            <ns3:hr>152</ns3:hr>
            <ns3:cad>81</ns3:cad>
          </ns3:TrackPointExtension>
        </extensions>
      </trkpt>
      <trkpt lat="47.48450833372771739959716796875" lon="10.02423626370728015899658203125">
        <ele>1516.4000244140625</ele>
        <time>2026-09-01T09:56:47.000Z</time>
        <extensions>
          <ns3:TrackPointExtension>
            <ns3:hr>152</ns3:hr>
            <ns3:cad>81</ns3:cad>
          </ns3:TrackPointExtension>
        </extensions>
      </trkpt>
      <trkpt lat="47.48447983525693416595458984375" lon="10.02413836307823657989501953125">
        <ele>1514.800048828125</ele>
        <time>2026-09-01T09:56:50.000Z</time>
        <extensions>
          <ns3:TrackPointExtension>
            <ns3:hr>151</ns3:hr>
            <ns3:cad>81</ns3:cad>
          </ns3:TrackPointExtension>
        </extensions>
      </trkpt>
      <trkpt lat="47.48444345779716968536376953125" lon="10.02409293316304683685302734375">
        <ele>1513.5999755859375</ele>
        <time>2026-09-01T09:56:53.000Z</time>
        <extensions>
          <ns3:TrackPointExtension>
            <ns3:hr>152</ns3:hr>
            <ns3:cad>81</ns3:cad>
          </ns3:TrackPointExtension>
        </extensions>
      </trkpt>
      <trkpt lat="47.48442468233406543731689453125" lon="10.024104751646518707275390625">
        <ele>1513.199951171875</ele>
        <time>2026-09-01T09:56:54.000Z</time>
        <extensions>
          <ns3:TrackPointExtension>
            <ns3:hr>151</ns3:hr>
            <ns3:cad>81</ns3:cad>
          </ns3:TrackPointExtension>
        </extensions>
      </trkpt>
      <trkpt lat="47.48440339230000972747802734375" lon="10.02409896813333034515380859375">
        <ele>1512</ele>
        <time>2026-09-01T09:56:56.000Z</time>
        <extensions>
          <ns3:TrackPointExtension>
            <ns3:hr>151</ns3:hr>
            <ns3:cad>81</ns3:cad>
          </ns3:TrackPointExtension>
        </extensions>
      </trkpt>
      <trkpt lat="47.4843945913016796112060546875" lon="10.02406476996839046478271484375">
        <ele>1511.199951171875</ele>
        <time>2026-09-01T09:56:57.000Z</time>
        <extensions>
          <ns3:TrackPointExtension>
            <ns3:hr>151</ns3:hr>
            <ns3:cad>81</ns3:cad>
          </ns3:TrackPointExtension>
        </extensions>
      </trkpt>
      <trkpt lat="47.48438729904592037200927734375" lon="10.0240306556224822998046875">
        <ele>1510.5999755859375</ele>
        <time>2026-09-01T09:56:58.000Z</time>
        <extensions>
          <ns3:TrackPointExtension>
            <ns3:hr>150</ns3:hr>
            <ns3:cad>81</ns3:cad>
          </ns3:TrackPointExtension>
        </extensions>
      </trkpt>
      <trkpt lat="47.48435343615710735321044921875" lon="10.02395211718976497650146484375">
        <ele>1509</ele>
        <time>2026-09-01T09:57:01.000Z</time>
        <extensions>
          <ns3:TrackPointExtension>
            <ns3:hr>151</ns3:hr>
            <ns3:cad>79</ns3:cad>
          </ns3:TrackPointExtension>
        </extensions>
      </trkpt>
      <trkpt lat="47.48432896099984645843505859375" lon="10.02384734340012073516845703125">
        <ele>1507.5999755859375</ele>
        <time>2026-09-01T09:57:03.000Z</time>
        <extensions>
          <ns3:TrackPointExtension>
            <ns3:hr>150</ns3:hr>
            <ns3:cad>75</ns3:cad>
          </ns3:TrackPointExtension>
        </extensions>
      </trkpt>
      <trkpt lat="47.4843161366879940032958984375" lon="10.02380459569394588470458984375">
        <ele>1507</ele>
        <time>2026-09-01T09:57:04.000Z</time>
        <extensions>
          <ns3:TrackPointExtension>
            <ns3:hr>150</ns3:hr>
            <ns3:cad>75</ns3:cad>
          </ns3:TrackPointExtension>
        </extensions>
      </trkpt>
      <trkpt lat="47.48430398292839527130126953125" lon="10.02376352436840534210205078125">
        <ele>1506.5999755859375</ele>
        <time>2026-09-01T09:57:05.000Z</time>
        <extensions>
          <ns3:TrackPointExtension>
            <ns3:hr>150</ns3:hr>
            <ns3:cad>75</ns3:cad>
          </ns3:TrackPointExtension>
        </extensions>
      </trkpt>
      <trkpt lat="47.48426509089767932891845703125" lon="10.02362354658544063568115234375">
        <ele>1506</ele>
        <time>2026-09-01T09:57:09.000Z</time>
        <extensions>
          <ns3:TrackPointExtension>
            <ns3:hr>148</ns3:hr>
            <ns3:cad>75</ns3:cad>
          </ns3:TrackPointExtension>
        </extensions>
      </trkpt>
      <trkpt lat="47.48423374257981777191162109375" lon="10.02356252633035182952880859375">
        <ele>1505.5999755859375</ele>
        <time>2026-09-01T09:57:12.000Z</time>
        <extensions>
          <ns3:TrackPointExtension>
            <ns3:hr>148</ns3:hr>
            <ns3:cad>75</ns3:cad>
          </ns3:TrackPointExtension>
        </extensions>
      </trkpt>
      <trkpt lat="47.4842179007828235626220703125" lon="10.0235346145927906036376953125">
        <ele>1505.199951171875</ele>
        <time>2026-09-01T09:57:13.000Z</time>
        <extensions>
          <ns3:TrackPointExtension>
            <ns3:hr>148</ns3:hr>
            <ns3:cad>75</ns3:cad>
          </ns3:TrackPointExtension>
        </extensions>
      </trkpt>
      <trkpt lat="47.48419652692973613739013671875" lon="10.0234752707183361053466796875">
        <ele>1504.199951171875</ele>
        <time>2026-09-01T09:57:15.000Z</time>
        <extensions>
          <ns3:TrackPointExtension>
            <ns3:hr>148</ns3:hr>
            <ns3:cad>84</ns3:cad>
          </ns3:TrackPointExtension>
        </extensions>
      </trkpt>
      <trkpt lat="47.484176158905029296875" lon="10.02335767261683940887451171875">
        <ele>1503.800048828125</ele>
        <time>2026-09-01T09:57:18.000Z</time>
        <extensions>
          <ns3:TrackPointExtension>
            <ns3:hr>149</ns3:hr>
            <ns3:cad>84</ns3:cad>
          </ns3:TrackPointExtension>
        </extensions>
      </trkpt>
      <trkpt lat="47.4841562099754810333251953125" lon="10.02325482666492462158203125">
        <ele>1504.5999755859375</ele>
        <time>2026-09-01T09:57:22.000Z</time>
        <extensions>
          <ns3:TrackPointExtension>
            <ns3:hr>150</ns3:hr>
            <ns3:cad>0</ns3:cad>
          </ns3:TrackPointExtension>
        </extensions>
      </trkpt>
      <trkpt lat="47.48414506204426288604736328125" lon="10.02319858409464359283447265625">
        <ele>1505.5999755859375</ele>
        <time>2026-09-01T09:57:25.000Z</time>
        <extensions>
          <ns3:TrackPointExtension>
            <ns3:hr>149</ns3:hr>
            <ns3:cad>0</ns3:cad>
          </ns3:TrackPointExtension>
        </extensions>
      </trkpt>
      <trkpt lat="47.484141625463962554931640625" lon="10.0231795571744441986083984375">
        <ele>1505.800048828125</ele>
        <time>2026-09-01T09:57:26.000Z</time>
        <extensions>
          <ns3:TrackPointExtension>
            <ns3:hr>149</ns3:hr>
            <ns3:cad>0</ns3:cad>
          </ns3:TrackPointExtension>
        </extensions>
      </trkpt>
      <trkpt lat="47.48412209562957286834716796875" lon="10.02307687886059284210205078125">
        <ele>1506.4000244140625</ele>
        <time>2026-09-01T09:57:30.000Z</time>
        <extensions>
          <ns3:TrackPointExtension>
            <ns3:hr>150</ns3:hr>
            <ns3:cad>0</ns3:cad>
          </ns3:TrackPointExtension>
        </extensions>
      </trkpt>
      <trkpt lat="47.48410348780453205108642578125" lon="10.02302340231835842132568359375">
        <ele>1506.5999755859375</ele>
        <time>2026-09-01T09:57:33.000Z</time>
        <extensions>
          <ns3:TrackPointExtension>
            <ns3:hr>149</ns3:hr>
            <ns3:cad>0</ns3:cad>
          </ns3:TrackPointExtension>
        </extensions>
      </trkpt>
      <trkpt lat="47.4840955249965190887451171875" lon="10.02299540676176548004150390625">
        <ele>1506.5999755859375</ele>
        <time>2026-09-01T09:57:34.000Z</time>
        <extensions>
          <ns3:TrackPointExtension>
            <ns3:hr>149</ns3:hr>
            <ns3:cad>0</ns3:cad>
          </ns3:TrackPointExtension>
        </extensions>
      </trkpt>
      <trkpt lat="47.48406325466930866241455078125" lon="10.0229193828999996185302734375">
        <ele>1505.800048828125</ele>
        <time>2026-09-01T09:57:37.000Z</time>
        <extensions>
          <ns3:TrackPointExtension>
            <ns3:hr>149</ns3:hr>
            <ns3:cad>0</ns3:cad>
          </ns3:TrackPointExtension>
        </extensions>
      </trkpt>
      <trkpt lat="47.484066188335418701171875" lon="10.02290236763656139373779296875">
        <ele>1505.800048828125</ele>
        <time>2026-09-01T09:57:38.000Z</time>
        <extensions>
          <ns3:TrackPointExtension>
            <ns3:hr>149</ns3:hr>
            <ns3:cad>0</ns3:cad>
          </ns3:TrackPointExtension>
        </extensions>
      </trkpt>
      <trkpt lat="47.48406241647899150848388671875" lon="10.02284587360918521881103515625">
        <ele>1506.5999755859375</ele>
        <time>2026-09-01T09:57:42.000Z</time>
        <extensions>
          <ns3:TrackPointExtension>
            <ns3:hr>151</ns3:hr>
            <ns3:cad>0</ns3:cad>
          </ns3:TrackPointExtension>
        </extensions>
      </trkpt>
      <trkpt lat="47.4840576387941837310791015625" lon="10.02284185029566287994384765625">
        <ele>1507</ele>
        <time>2026-09-01T09:57:43.000Z</time>
        <extensions>
          <ns3:TrackPointExtension>
            <ns3:hr>151</ns3:hr>
            <ns3:cad>0</ns3:cad>
          </ns3:TrackPointExtension>
        </extensions>
      </trkpt>
      <trkpt lat="47.48406576924026012420654296875" lon="10.02279507927596569061279296875">
        <ele>1508</ele>
        <time>2026-09-01T09:57:46.000Z</time>
        <extensions>
          <ns3:TrackPointExtension>
            <ns3:hr>153</ns3:hr>
            <ns3:cad>0</ns3:cad>
          </ns3:TrackPointExtension>
        </extensions>
      </trkpt>
      <trkpt lat="47.48405654914677143096923828125" lon="10.0227648206055164337158203125">
        <ele>1509.199951171875</ele>
        <time>2026-09-01T09:57:49.000Z</time>
        <extensions>
          <ns3:TrackPointExtension>
            <ns3:hr>154</ns3:hr>
            <ns3:cad>0</ns3:cad>
          </ns3:TrackPointExtension>
        </extensions>
      </trkpt>
      <trkpt lat="47.484038360416889190673828125" lon="10.0227378308773040771484375">
        <ele>1509.4000244140625</ele>
        <time>2026-09-01T09:57:50.000Z</time>
        <extensions>
          <ns3:TrackPointExtension>
            <ns3:hr>154</ns3:hr>
            <ns3:cad>0</ns3:cad>
          </ns3:TrackPointExtension>
        </extensions>
      </trkpt>
      <trkpt lat="47.4840254522860050201416015625" lon="10.0226815044879913330078125">
        <ele>1509.800048828125</ele>
        <time>2026-09-01T09:57:52.000Z</time>
        <extensions>
          <ns3:TrackPointExtension>
            <ns3:hr>155</ns3:hr>
            <ns3:cad>0</ns3:cad>
          </ns3:TrackPointExtension>
        </extensions>
      </trkpt>
      <trkpt lat="47.48401857912540435791015625" lon="10.0226290337741374969482421875">
        <ele>1510.4000244140625</ele>
        <time>2026-09-01T09:57:54.000Z</time>
        <extensions>
          <ns3:TrackPointExtension>
            <ns3:hr>155</ns3:hr>
            <ns3:cad>0</ns3:cad>
          </ns3:TrackPointExtension>
        </extensions>
      </trkpt>
      <trkpt lat="47.48401866294443607330322265625" lon="10.02261838875710964202880859375">
        <ele>1510.5999755859375</ele>
        <time>2026-09-01T09:57:55.000Z</time>
        <extensions>
          <ns3:TrackPointExtension>
            <ns3:hr>156</ns3:hr>
            <ns3:cad>0</ns3:cad>
          </ns3:TrackPointExtension>
        </extensions>
      </trkpt>
      <trkpt lat="47.48402553610503673553466796875" lon="10.0226055644452571868896484375">
        <ele>1511</ele>
        <time>2026-09-01T09:57:56.000Z</time>
        <extensions>
          <ns3:TrackPointExtension>
            <ns3:hr>156</ns3:hr>
            <ns3:cad>0</ns3:cad>
          </ns3:TrackPointExtension>
        </extensions>
      </trkpt>
      <trkpt lat="47.484032325446605682373046875" lon="10.0225914828479290008544921875">
        <ele>1511.4000244140625</ele>
        <time>2026-09-01T09:57:57.000Z</time>
        <extensions>
          <ns3:TrackPointExtension>
            <ns3:hr>156</ns3:hr>
            <ns3:cad>0</ns3:cad>
          </ns3:TrackPointExtension>
        </extensions>
      </trkpt>
      <trkpt lat="47.48402855359017848968505859375" lon="10.022561140358448028564453125">
        <ele>1512</ele>
        <time>2026-09-01T09:57:59.000Z</time>
        <extensions>
          <ns3:TrackPointExtension>
            <ns3:hr>156</ns3:hr>
            <ns3:cad>0</ns3:cad>
          </ns3:TrackPointExtension>
        </extensions>
      </trkpt>
      <trkpt lat="47.484026290476322174072265625" lon="10.02255954779684543609619140625">
        <ele>1512.4000244140625</ele>
        <time>2026-09-01T09:58:00.000Z</time>
        <extensions>
          <ns3:TrackPointExtension>
            <ns3:hr>156</ns3:hr>
            <ns3:cad>0</ns3:cad>
          </ns3:TrackPointExtension>
        </extensions>
      </trkpt>
      <trkpt lat="47.48401983641088008880615234375" lon="10.02254060469567775726318359375">
        <ele>1512.5999755859375</ele>
        <time>2026-09-01T09:58:01.000Z</time>
        <extensions>
          <ns3:TrackPointExtension>
            <ns3:hr>156</ns3:hr>
            <ns3:cad>0</ns3:cad>
          </ns3:TrackPointExtension>
        </extensions>
      </trkpt>
      <trkpt lat="47.4840043298900127410888671875" lon="10.02248997800052165985107421875">
        <ele>1513</ele>
        <time>2026-09-01T09:58:03.000Z</time>
        <extensions>
          <ns3:TrackPointExtension>
            <ns3:hr>155</ns3:hr>
            <ns3:cad>0</ns3:cad>
          </ns3:TrackPointExtension>
        </extensions>
      </trkpt>
      <trkpt lat="47.48398178257048130035400390625" lon="10.02240297384560108184814453125">
        <ele>1513.5999755859375</ele>
        <time>2026-09-01T09:58:06.000Z</time>
        <extensions>
          <ns3:TrackPointExtension>
            <ns3:hr>157</ns3:hr>
            <ns3:cad>83</ns3:cad>
          </ns3:TrackPointExtension>
        </extensions>
      </trkpt>
      <trkpt lat="47.4839771725237369537353515625" lon="10.02236877568066120147705078125">
        <ele>1514.199951171875</ele>
        <time>2026-09-01T09:58:08.000Z</time>
        <extensions>
          <ns3:TrackPointExtension>
            <ns3:hr>158</ns3:hr>
            <ns3:cad>83</ns3:cad>
          </ns3:TrackPointExtension>
        </extensions>
      </trkpt>
      <trkpt lat="47.48397423885762691497802734375" lon="10.02232753671705722808837890625">
        <ele>1515</ele>
        <time>2026-09-01T09:58:10.000Z</time>
        <extensions>
          <ns3:TrackPointExtension>
            <ns3:hr>158</ns3:hr>
            <ns3:cad>83</ns3:cad>
          </ns3:TrackPointExtension>
        </extensions>
      </trkpt>
      <trkpt lat="47.4839754961431026458740234375" lon="10.02230465412139892578125">
        <ele>1515.199951171875</ele>
        <time>2026-09-01T09:58:11.000Z</time>
        <extensions>
          <ns3:TrackPointExtension>
            <ns3:hr>159</ns3:hr>
            <ns3:cad>0</ns3:cad>
          </ns3:TrackPointExtension>
        </extensions>
      </trkpt>
      <trkpt lat="47.48399083502590656280517578125" lon="10.02227171324193477630615234375">
        <ele>1516.199951171875</ele>
        <time>2026-09-01T09:58:14.000Z</time>
        <extensions>
          <ns3:TrackPointExtension>
            <ns3:hr>159</ns3:hr>
            <ns3:cad>0</ns3:cad>
          </ns3:TrackPointExtension>
        </extensions>
      </trkpt>
      <trkpt lat="47.48398127965629100799560546875" lon="10.0222722999751567840576171875">
        <ele>1516.5999755859375</ele>
        <time>2026-09-01T09:58:15.000Z</time>
        <extensions>
          <ns3:TrackPointExtension>
            <ns3:hr>159</ns3:hr>
            <ns3:cad>0</ns3:cad>
          </ns3:TrackPointExtension>
        </extensions>
      </trkpt>
      <trkpt lat="47.4839724786579608917236328125" lon="10.02222678624093532562255859375">
        <ele>1517.4000244140625</ele>
        <time>2026-09-01T09:58:18.000Z</time>
        <extensions>
          <ns3:TrackPointExtension>
            <ns3:hr>158</ns3:hr>
            <ns3:cad>0</ns3:cad>
          </ns3:TrackPointExtension>
        </extensions>
      </trkpt>
      <trkpt lat="47.48398178257048130035400390625" lon="10.02221924252808094024658203125">
        <ele>1517.5999755859375</ele>
        <time>2026-09-01T09:58:19.000Z</time>
        <extensions>
          <ns3:TrackPointExtension>
            <ns3:hr>158</ns3:hr>
            <ns3:cad>0</ns3:cad>
          </ns3:TrackPointExtension>
        </extensions>
      </trkpt>
      <trkpt lat="47.48397591523826122283935546875" lon="10.0221941806375980377197265625">
        <ele>1518.5999755859375</ele>
        <time>2026-09-01T09:58:22.000Z</time>
        <extensions>
          <ns3:TrackPointExtension>
            <ns3:hr>158</ns3:hr>
            <ns3:cad>0</ns3:cad>
          </ns3:TrackPointExtension>
        </extensions>
      </trkpt>
      <trkpt lat="47.48396736569702625274658203125" lon="10.02216182649135589599609375">
        <ele>1519.199951171875</ele>
        <time>2026-09-01T09:58:24.000Z</time>
        <extensions>
          <ns3:TrackPointExtension>
            <ns3:hr>157</ns3:hr>
            <ns3:cad>0</ns3:cad>
          </ns3:TrackPointExtension>
        </extensions>
      </trkpt>
      <trkpt lat="47.48396501876413822174072265625" lon="10.02215788699686527252197265625">
        <ele>1519.800048828125</ele>
        <time>2026-09-01T09:58:26.000Z</time>
        <extensions>
          <ns3:TrackPointExtension>
            <ns3:hr>157</ns3:hr>
            <ns3:cad>0</ns3:cad>
          </ns3:TrackPointExtension>
        </extensions>
      </trkpt>
      <trkpt lat="47.48396267183125019073486328125" lon="10.0221552886068820953369140625">
        <ele>1520.199951171875</ele>
        <time>2026-09-01T09:58:27.000Z</time>
        <extensions>
          <ns3:TrackPointExtension>
            <ns3:hr>158</ns3:hr>
            <ns3:cad>0</ns3:cad>
          </ns3:TrackPointExtension>
        </extensions>
      </trkpt>
      <trkpt lat="47.48394875787198543548583984375" lon="10.02212519757449626922607421875">
        <ele>1521</ele>
        <time>2026-09-01T09:58:30.000Z</time>
        <extensions>
          <ns3:TrackPointExtension>
            <ns3:hr>159</ns3:hr>
            <ns3:cad>0</ns3:cad>
          </ns3:TrackPointExtension>
        </extensions>
      </trkpt>
      <trkpt lat="47.48394657857716083526611328125" lon="10.0221049971878528594970703125">
        <ele>1521.4000244140625</ele>
        <time>2026-09-01T09:58:31.000Z</time>
        <extensions>
          <ns3:TrackPointExtension>
            <ns3:hr>159</ns3:hr>
            <ns3:cad>0</ns3:cad>
          </ns3:TrackPointExtension>
        </extensions>
      </trkpt>
      <trkpt lat="47.48393702320754528045654296875" lon="10.0220530293881893157958984375">
        <ele>1522.199951171875</ele>
        <time>2026-09-01T09:58:34.000Z</time>
        <extensions>
          <ns3:TrackPointExtension>
            <ns3:hr>159</ns3:hr>
            <ns3:cad>0</ns3:cad>
          </ns3:TrackPointExtension>
        </extensions>
      </trkpt>
      <trkpt lat="47.48393434099853038787841796875" lon="10.0220325775444507598876953125">
        <ele>1522.4000244140625</ele>
        <time>2026-09-01T09:58:35.000Z</time>
        <extensions>
          <ns3:TrackPointExtension>
            <ns3:hr>159</ns3:hr>
            <ns3:cad>0</ns3:cad>
          </ns3:TrackPointExtension>
        </extensions>
      </trkpt>
      <trkpt lat="47.48392981477081775665283203125" lon="10.0219921767711639404296875">
        <ele>1523.4000244140625</ele>
        <time>2026-09-01T09:58:38.000Z</time>
        <extensions>
          <ns3:TrackPointExtension>
            <ns3:hr>160</ns3:hr>
            <ns3:cad>0</ns3:cad>
          </ns3:TrackPointExtension>
        </extensions>
      </trkpt>
      <trkpt lat="47.48392964713275432586669921875" lon="10.02198790200054645538330078125">
        <ele>1524</ele>
        <time>2026-09-01T09:58:40.000Z</time>
        <extensions>
          <ns3:TrackPointExtension>
            <ns3:hr>160</ns3:hr>
            <ns3:cad>0</ns3:cad>
          </ns3:TrackPointExtension>
        </extensions>
      </trkpt>
      <trkpt lat="47.483934424817562103271484375" lon="10.021955631673336029052734375">
        <ele>1524.5999755859375</ele>
        <time>2026-09-01T09:58:42.000Z</time>
        <extensions>
          <ns3:TrackPointExtension>
            <ns3:hr>160</ns3:hr>
            <ns3:cad>0</ns3:cad>
          </ns3:TrackPointExtension>
        </extensions>
      </trkpt>
      <trkpt lat="47.48392763547599315643310546875" lon="10.0219373591244220733642578125">
        <ele>1525.199951171875</ele>
        <time>2026-09-01T09:58:44.000Z</time>
        <extensions>
          <ns3:TrackPointExtension>
            <ns3:hr>160</ns3:hr>
            <ns3:cad>0</ns3:cad>
          </ns3:TrackPointExtension>
        </extensions>
      </trkpt>
      <trkpt lat="47.48393333517014980316162109375" lon="10.021918751299381256103515625">
        <ele>1525.800048828125</ele>
        <time>2026-09-01T09:58:46.000Z</time>
        <extensions>
          <ns3:TrackPointExtension>
            <ns3:hr>160</ns3:hr>
            <ns3:cad>52</ns3:cad>
          </ns3:TrackPointExtension>
        </extensions>
      </trkpt>
      <trkpt lat="47.48394221998751163482666015625" lon="10.02188011072576045989990234375">
        <ele>1526.800048828125</ele>
        <time>2026-09-01T09:58:49.000Z</time>
        <extensions>
          <ns3:TrackPointExtension>
            <ns3:hr>159</ns3:hr>
            <ns3:cad>0</ns3:cad>
          </ns3:TrackPointExtension>
        </extensions>
      </trkpt>
      <trkpt lat="47.48395160771906375885009765625" lon="10.02184088341891765594482421875">
        <ele>1528.199951171875</ele>
        <time>2026-09-01T09:58:53.000Z</time>
        <extensions>
          <ns3:TrackPointExtension>
            <ns3:hr>160</ns3:hr>
            <ns3:cad>0</ns3:cad>
          </ns3:TrackPointExtension>
        </extensions>
      </trkpt>
      <trkpt lat="47.48395445756614208221435546875" lon="10.021823532879352569580078125">
        <ele>1528.800048828125</ele>
        <time>2026-09-01T09:58:55.000Z</time>
        <extensions>
          <ns3:TrackPointExtension>
            <ns3:hr>160</ns3:hr>
            <ns3:cad>72</ns3:cad>
          </ns3:TrackPointExtension>
        </extensions>
      </trkpt>
      <trkpt lat="47.48394741676747798919677734375" lon="10.02180098555982112884521484375">
        <ele>1529.4000244140625</ele>
        <time>2026-09-01T09:58:57.000Z</time>
        <extensions>
          <ns3:TrackPointExtension>
            <ns3:hr>160</ns3:hr>
            <ns3:cad>72</ns3:cad>
          </ns3:TrackPointExtension>
        </extensions>
      </trkpt>
      <trkpt lat="47.48393869958817958831787109375" lon="10.02174952067434787750244140625">
        <ele>1530.5999755859375</ele>
        <time>2026-09-01T09:59:01.000Z</time>
        <extensions>
          <ns3:TrackPointExtension>
            <ns3:hr>159</ns3:hr>
            <ns3:cad>72</ns3:cad>
          </ns3:TrackPointExtension>
        </extensions>
      </trkpt>
      <trkpt lat="47.4839443154633045196533203125" lon="10.021709538996219635009765625">
        <ele>1531.800048828125</ele>
        <time>2026-09-01T09:59:05.000Z</time>
        <extensions>
          <ns3:TrackPointExtension>
            <ns3:hr>160</ns3:hr>
            <ns3:cad>0</ns3:cad>
          </ns3:TrackPointExtension>
        </extensions>
      </trkpt>
      <trkpt lat="47.4839426390826702117919921875" lon="10.02167827449738979339599609375">
        <ele>1533</ele>
        <time>2026-09-01T09:59:09.000Z</time>
        <extensions>
          <ns3:TrackPointExtension>
            <ns3:hr>160</ns3:hr>
            <ns3:cad>0</ns3:cad>
          </ns3:TrackPointExtension>
        </extensions>
      </trkpt>
      <trkpt lat="47.48393534682691097259521484375" lon="10.02166117541491985321044921875">
        <ele>1533.800048828125</ele>
        <time>2026-09-01T09:59:11.000Z</time>
        <extensions>
          <ns3:TrackPointExtension>
            <ns3:hr>160</ns3:hr>
            <ns3:cad>0</ns3:cad>
          </ns3:TrackPointExtension>
        </extensions>
      </trkpt>
      <trkpt lat="47.48392947949469089508056640625" lon="10.02165463753044605255126953125">
        <ele>1534</ele>
        <time>2026-09-01T09:59:12.000Z</time>
        <extensions>
          <ns3:TrackPointExtension>
            <ns3:hr>160</ns3:hr>
            <ns3:cad>0</ns3:cad>
          </ns3:TrackPointExtension>
        </extensions>
      </trkpt>
      <trkpt lat="47.4839272163808345794677734375" lon="10.02160401083528995513916015625">
        <ele>1535</ele>
        <time>2026-09-01T09:59:16.000Z</time>
        <extensions>
          <ns3:TrackPointExtension>
            <ns3:hr>160</ns3:hr>
            <ns3:cad>0</ns3:cad>
          </ns3:TrackPointExtension>
        </extensions>
      </trkpt>
      <trkpt lat="47.4839307367801666259765625" lon="10.021599568426609039306640625">
        <ele>1535.4000244140625</ele>
        <time>2026-09-01T09:59:17.000Z</time>
        <extensions>
          <ns3:TrackPointExtension>
            <ns3:hr>161</ns3:hr>
            <ns3:cad>0</ns3:cad>
          </ns3:TrackPointExtension>
        </extensions>
      </trkpt>
      <trkpt lat="47.48393283225595951080322265625" lon="10.02156830392777919769287109375">
        <ele>1536.199951171875</ele>
        <time>2026-09-01T09:59:20.000Z</time>
        <extensions>
          <ns3:TrackPointExtension>
            <ns3:hr>160</ns3:hr>
            <ns3:cad>0</ns3:cad>
          </ns3:TrackPointExtension>
        </extensions>
      </trkpt>
      <trkpt lat="47.4839241988956928253173828125" lon="10.02152002416551113128662109375">
        <ele>1537.199951171875</ele>
        <time>2026-09-01T09:59:24.000Z</time>
        <extensions>
          <ns3:TrackPointExtension>
            <ns3:hr>159</ns3:hr>
            <ns3:cad>0</ns3:cad>
          </ns3:TrackPointExtension>
        </extensions>
      </trkpt>
      <trkpt lat="47.483931742608547210693359375" lon="10.02150007523596286773681640625">
        <ele>1538.5999755859375</ele>
        <time>2026-09-01T09:59:28.000Z</time>
        <extensions>
          <ns3:TrackPointExtension>
            <ns3:hr>159</ns3:hr>
            <ns3:cad>0</ns3:cad>
          </ns3:TrackPointExtension>
        </extensions>
      </trkpt>
      <trkpt lat="47.4839376099407672882080078125" lon="10.02147777937352657318115234375">
        <ele>1539.199951171875</ele>
        <time>2026-09-01T09:59:30.000Z</time>
        <extensions>
          <ns3:TrackPointExtension>
            <ns3:hr>158</ns3:hr>
            <ns3:cad>0</ns3:cad>
          </ns3:TrackPointExtension>
        </extensions>
      </trkpt>
      <trkpt lat="47.4839414656162261962890625" lon="10.02146311104297637939453125">
        <ele>1539.5999755859375</ele>
        <time>2026-09-01T09:59:32.000Z</time>
        <extensions>
          <ns3:TrackPointExtension>
            <ns3:hr>157</ns3:hr>
            <ns3:cad>0</ns3:cad>
          </ns3:TrackPointExtension>
        </extensions>
      </trkpt>
      <trkpt lat="47.48394322581589221954345703125" lon="10.02144969999790191650390625">
        <ele>1540.4000244140625</ele>
        <time>2026-09-01T09:59:34.000Z</time>
        <extensions>
          <ns3:TrackPointExtension>
            <ns3:hr>157</ns3:hr>
            <ns3:cad>0</ns3:cad>
          </ns3:TrackPointExtension>
        </extensions>
      </trkpt>
      <trkpt lat="47.48394205234944820404052734375" lon="10.02144508995115756988525390625">
        <ele>1540.5999755859375</ele>
        <time>2026-09-01T09:59:35.000Z</time>
        <extensions>
          <ns3:TrackPointExtension>
            <ns3:hr>157</ns3:hr>
            <ns3:cad>0</ns3:cad>
          </ns3:TrackPointExtension>
        </extensions>
      </trkpt>
      <trkpt lat="47.48393970541656017303466796875" lon="10.02141541801393032073974609375">
        <ele>1541.800048828125</ele>
        <time>2026-09-01T09:59:38.000Z</time>
        <extensions>
          <ns3:TrackPointExtension>
            <ns3:hr>158</ns3:hr>
            <ns3:cad>0</ns3:cad>
          </ns3:TrackPointExtension>
        </extensions>
      </trkpt>
      <trkpt lat="47.48393685556948184967041015625" lon="10.02140351571142673492431640625">
        <ele>1542</ele>
        <time>2026-09-01T09:59:39.000Z</time>
        <extensions>
          <ns3:TrackPointExtension>
            <ns3:hr>158</ns3:hr>
            <ns3:cad>0</ns3:cad>
          </ns3:TrackPointExtension>
        </extensions>
      </trkpt>
      <trkpt lat="47.4839307367801666259765625" lon="10.02136386930942535400390625">
        <ele>1542.800048828125</ele>
        <time>2026-09-01T09:59:42.000Z</time>
        <extensions>
          <ns3:TrackPointExtension>
            <ns3:hr>159</ns3:hr>
            <ns3:cad>0</ns3:cad>
          </ns3:TrackPointExtension>
        </extensions>
      </trkpt>
      <trkpt lat="47.48391724191606044769287109375" lon="10.0213348679244518280029296875">
        <ele>1543.4000244140625</ele>
        <time>2026-09-01T09:59:44.000Z</time>
        <extensions>
          <ns3:TrackPointExtension>
            <ns3:hr>159</ns3:hr>
            <ns3:cad>0</ns3:cad>
          </ns3:TrackPointExtension>
        </extensions>
      </trkpt>
      <trkpt lat="47.48392193578183650970458984375" lon="10.0213033519685268402099609375">
        <ele>1543.800048828125</ele>
        <time>2026-09-01T09:59:46.000Z</time>
        <extensions>
          <ns3:TrackPointExtension>
            <ns3:hr>160</ns3:hr>
            <ns3:cad>0</ns3:cad>
          </ns3:TrackPointExtension>
        </extensions>
      </trkpt>
      <trkpt lat="47.48393115587532520294189453125" lon="10.0212785415351390838623046875">
        <ele>1544.199951171875</ele>
        <time>2026-09-01T09:59:48.000Z</time>
        <extensions>
          <ns3:TrackPointExtension>
            <ns3:hr>160</ns3:hr>
            <ns3:cad>0</ns3:cad>
          </ns3:TrackPointExtension>
        </extensions>
      </trkpt>
      <trkpt lat="47.4839402921497821807861328125" lon="10.0212932936847209930419921875">
        <ele>1545.199951171875</ele>
        <time>2026-09-01T09:59:51.000Z</time>
        <extensions>
          <ns3:TrackPointExtension>
            <ns3:hr>160</ns3:hr>
            <ns3:cad>0</ns3:cad>
          </ns3:TrackPointExtension>
        </extensions>
      </trkpt>
      <trkpt lat="47.4839577265083789825439453125" lon="10.0213082134723663330078125">
        <ele>1545.800048828125</ele>
        <time>2026-09-01T09:59:53.000Z</time>
        <extensions>
          <ns3:TrackPointExtension>
            <ns3:hr>160</ns3:hr>
            <ns3:cad>0</ns3:cad>
          </ns3:TrackPointExtension>
        </extensions>
      </trkpt>
      <trkpt lat="47.48395747505128383636474609375" lon="10.021283067762851715087890625">
        <ele>1546.4000244140625</ele>
        <time>2026-09-01T09:59:56.000Z</time>
        <extensions>
          <ns3:TrackPointExtension>
            <ns3:hr>159</ns3:hr>
            <ns3:cad>0</ns3:cad>
          </ns3:TrackPointExtension>
        </extensions>
      </trkpt>
      <trkpt lat="47.4839496798813343048095703125" lon="10.0212721712887287139892578125">
        <ele>1546.800048828125</ele>
        <time>2026-09-01T09:59:58.000Z</time>
        <extensions>
          <ns3:TrackPointExtension>
            <ns3:hr>159</ns3:hr>
            <ns3:cad>0</ns3:cad>
          </ns3:TrackPointExtension>
        </extensions>
      </trkpt>
      <trkpt lat="47.48394456692039966583251953125" lon="10.02124627120792865753173828125">
        <ele>1547.4000244140625</ele>
        <time>2026-09-01T10:00:00.000Z</time>
        <extensions>
          <ns3:TrackPointExtension>
            <ns3:hr>159</ns3:hr>
            <ns3:cad>0</ns3:cad>
          </ns3:TrackPointExtension>
        </extensions>
      </trkpt>
      <trkpt lat="47.48392964713275432586669921875" lon="10.02120687626302242279052734375">
        <ele>1547.5999755859375</ele>
        <time>2026-09-01T10:00:04.000Z</time>
        <extensions>
          <ns3:TrackPointExtension>
            <ns3:hr>158</ns3:hr>
            <ns3:cad>0</ns3:cad>
          </ns3:TrackPointExtension>
        </extensions>
      </trkpt>
      <trkpt lat="47.48389846645295619964599609375" lon="10.02116563729941844940185546875">
        <ele>1546.4000244140625</ele>
        <time>2026-09-01T10:00:08.000Z</time>
        <extensions>
          <ns3:TrackPointExtension>
            <ns3:hr>158</ns3:hr>
            <ns3:cad>0</ns3:cad>
          </ns3:TrackPointExtension>
        </extensions>
      </trkpt>
      <trkpt lat="47.483865357935428619384765625" lon="10.0210837461054325103759765625">
        <ele>1545.5999755859375</ele>
        <time>2026-09-01T10:00:12.000Z</time>
        <extensions>
          <ns3:TrackPointExtension>
            <ns3:hr>157</ns3:hr>
            <ns3:cad>0</ns3:cad>
          </ns3:TrackPointExtension>
        </extensions>
      </trkpt>
      <trkpt lat="47.4838333390653133392333984375" lon="10.020951814949512481689453125">
        <ele>1546.4000244140625</ele>
        <time>2026-09-01T10:00:16.000Z</time>
        <extensions>
          <ns3:TrackPointExtension>
            <ns3:hr>155</ns3:hr>
            <ns3:cad>83</ns3:cad>
          </ns3:TrackPointExtension>
        </extensions>
      </trkpt>
      <trkpt lat="47.483790256083011627197265625" lon="10.02077923156321048736572265625">
        <ele>1547.5999755859375</ele>
        <time>2026-09-01T10:00:21.000Z</time>
        <extensions>
          <ns3:TrackPointExtension>
            <ns3:hr>156</ns3:hr>
            <ns3:cad>83</ns3:cad>
          </ns3:TrackPointExtension>
        </extensions>
      </trkpt>
      <trkpt lat="47.48377257026731967926025390625" lon="10.0207256712019443511962890625">
        <ele>1548.800048828125</ele>
        <time>2026-09-01T10:00:24.000Z</time>
        <extensions>
          <ns3:TrackPointExtension>
            <ns3:hr>156</ns3:hr>
            <ns3:cad>42</ns3:cad>
          </ns3:TrackPointExtension>
        </extensions>
      </trkpt>
      <trkpt lat="47.4837510287761688232421875" lon="10.02062399871647357940673828125">
        <ele>1549.5999755859375</ele>
        <time>2026-09-01T10:00:27.000Z</time>
        <extensions>
          <ns3:TrackPointExtension>
            <ns3:hr>157</ns3:hr>
            <ns3:cad>42</ns3:cad>
          </ns3:TrackPointExtension>
        </extensions>
      </trkpt>
      <trkpt lat="47.4836878292262554168701171875" lon="10.020451582968235015869140625">
        <ele>1548.800048828125</ele>
        <time>2026-09-01T10:00:32.000Z</time>
        <extensions>
          <ns3:TrackPointExtension>
            <ns3:hr>158</ns3:hr>
            <ns3:cad>84</ns3:cad>
          </ns3:TrackPointExtension>
        </extensions>
      </trkpt>
      <trkpt lat="47.48366192914545536041259765625" lon="10.0203789956867694854736328125">
        <ele>1547.800048828125</ele>
        <time>2026-09-01T10:00:34.000Z</time>
        <extensions>
          <ns3:TrackPointExtension>
            <ns3:hr>158</ns3:hr>
            <ns3:cad>84</ns3:cad>
          </ns3:TrackPointExtension>
        </extensions>
      </trkpt>
      <trkpt lat="47.48363770544528961181640625" lon="10.02030573785305023193359375">
        <ele>1546.5999755859375</ele>
        <time>2026-09-01T10:00:36.000Z</time>
        <extensions>
          <ns3:TrackPointExtension>
            <ns3:hr>157</ns3:hr>
            <ns3:cad>82</ns3:cad>
          </ns3:TrackPointExtension>
        </extensions>
      </trkpt>
      <trkpt lat="47.48363636434078216552734375" lon="10.0202227570116519927978515625">
        <ele>1545.4000244140625</ele>
        <time>2026-09-01T10:00:38.000Z</time>
        <extensions>
          <ns3:TrackPointExtension>
            <ns3:hr>156</ns3:hr>
            <ns3:cad>91</ns3:cad>
          </ns3:TrackPointExtension>
        </extensions>
      </trkpt>
      <trkpt lat="47.4836610071361064910888671875" lon="10.02014723606407642364501953125">
        <ele>1543.800048828125</ele>
        <time>2026-09-01T10:00:40.000Z</time>
        <extensions>
          <ns3:TrackPointExtension>
            <ns3:hr>156</ns3:hr>
            <ns3:cad>90</ns3:cad>
          </ns3:TrackPointExtension>
        </extensions>
      </trkpt>
      <trkpt lat="47.48368975706398487091064453125" lon="10.020071379840373992919921875">
        <ele>1542.4000244140625</ele>
        <time>2026-09-01T10:00:42.000Z</time>
        <extensions>
          <ns3:TrackPointExtension>
            <ns3:hr>156</ns3:hr>
            <ns3:cad>90</ns3:cad>
          </ns3:TrackPointExtension>
        </extensions>
      </trkpt>
      <trkpt lat="47.483701072633266448974609375" lon="10.0199880637228488922119140625">
        <ele>1540.800048828125</ele>
        <time>2026-09-01T10:00:44.000Z</time>
        <extensions>
          <ns3:TrackPointExtension>
            <ns3:hr>156</ns3:hr>
            <ns3:cad>87</ns3:cad>
          </ns3:TrackPointExtension>
        </extensions>
      </trkpt>
      <trkpt lat="47.483710460364818572998046875" lon="10.01988940872251987457275390625">
        <ele>1539.5999755859375</ele>
        <time>2026-09-01T10:00:46.000Z</time>
        <extensions>
          <ns3:TrackPointExtension>
            <ns3:hr>155</ns3:hr>
            <ns3:cad>85</ns3:cad>
          </ns3:TrackPointExtension>
        </extensions>
      </trkpt>
      <trkpt lat="47.483703754842281341552734375" lon="10.01980039291083812713623046875">
        <ele>1538.199951171875</ele>
        <time>2026-09-01T10:00:48.000Z</time>
        <extensions>
          <ns3:TrackPointExtension>
            <ns3:hr>155</ns3:hr>
            <ns3:cad>88</ns3:cad>
          </ns3:TrackPointExtension>
        </extensions>
      </trkpt>
      <trkpt lat="47.48368388973176479339599609375" lon="10.0197124667465686798095703125">
        <ele>1536.800048828125</ele>
        <time>2026-09-01T10:00:50.000Z</time>
        <extensions>
          <ns3:TrackPointExtension>
            <ns3:hr>155</ns3:hr>
            <ns3:cad>88</ns3:cad>
          </ns3:TrackPointExtension>
        </extensions>
      </trkpt>
      <trkpt lat="47.483652122318744659423828125" lon="10.01965622417628765106201171875">
        <ele>1535</ele>
        <time>2026-09-01T10:00:52.000Z</time>
        <extensions>
          <ns3:TrackPointExtension>
            <ns3:hr>155</ns3:hr>
            <ns3:cad>88</ns3:cad>
          </ns3:TrackPointExtension>
        </extensions>
      </trkpt>
      <trkpt lat="47.48361884616315364837646484375" lon="10.01959788613021373748779296875">
        <ele>1533.4000244140625</ele>
        <time>2026-09-01T10:00:54.000Z</time>
        <extensions>
          <ns3:TrackPointExtension>
            <ns3:hr>154</ns3:hr>
            <ns3:cad>90</ns3:cad>
          </ns3:TrackPointExtension>
        </extensions>
      </trkpt>
      <trkpt lat="47.4835932813584804534912109375" lon="10.01952177844941616058349609375">
        <ele>1532</ele>
        <time>2026-09-01T10:00:56.000Z</time>
        <extensions>
          <ns3:TrackPointExtension>
            <ns3:hr>154</ns3:hr>
            <ns3:cad>90</ns3:cad>
          </ns3:TrackPointExtension>
        </extensions>
      </trkpt>
      <trkpt lat="47.48357794247567653656005859375" lon="10.01943561248481273651123046875">
        <ele>1530.800048828125</ele>
        <time>2026-09-01T10:00:58.000Z</time>
        <extensions>
          <ns3:TrackPointExtension>
            <ns3:hr>153</ns3:hr>
            <ns3:cad>90</ns3:cad>
          </ns3:TrackPointExtension>
        </extensions>
      </trkpt>
      <trkpt lat="47.48354726471006870269775390625" lon="10.019335448741912841796875">
        <ele>1529.199951171875</ele>
        <time>2026-09-01T10:01:01.000Z</time>
        <extensions>
          <ns3:TrackPointExtension>
            <ns3:hr>153</ns3:hr>
            <ns3:cad>94</ns3:cad>
          </ns3:TrackPointExtension>
        </extensions>
      </trkpt>
      <trkpt lat="47.4835473485291004180908203125" lon="10.01929194666445255279541015625">
        <ele>1528.4000244140625</ele>
        <time>2026-09-01T10:01:02.000Z</time>
        <extensions>
          <ns3:TrackPointExtension>
            <ns3:hr>153</ns3:hr>
            <ns3:cad>94</ns3:cad>
          </ns3:TrackPointExtension>
        </extensions>
      </trkpt>
      <trkpt lat="47.48354852199554443359375" lon="10.01926244236528873443603515625">
        <ele>1527.800048828125</ele>
        <time>2026-09-01T10:01:03.000Z</time>
        <extensions>
          <ns3:TrackPointExtension>
            <ns3:hr>153</ns3:hr>
            <ns3:cad>94</ns3:cad>
          </ns3:TrackPointExtension>
        </extensions>
      </trkpt>
      <trkpt lat="47.4835560657083988189697265625" lon="10.01919790171086788177490234375">
        <ele>1526.800048828125</ele>
        <time>2026-09-01T10:01:06.000Z</time>
        <extensions>
          <ns3:TrackPointExtension>
            <ns3:hr>151</ns3:hr>
            <ns3:cad>94</ns3:cad>
          </ns3:TrackPointExtension>
        </extensions>
      </trkpt>
      <trkpt lat="47.483561597764492034912109375" lon="10.01918130554258823394775390625">
        <ele>1526.5999755859375</ele>
        <time>2026-09-01T10:01:07.000Z</time>
        <extensions>
          <ns3:TrackPointExtension>
            <ns3:hr>150</ns3:hr>
            <ns3:cad>94</ns3:cad>
          </ns3:TrackPointExtension>
        </extensions>
      </trkpt>
      <trkpt lat="47.4835520423948764801025390625" lon="10.019159428775310516357421875">
        <ele>1526</ele>
        <time>2026-09-01T10:01:09.000Z</time>
        <extensions>
          <ns3:TrackPointExtension>
            <ns3:hr>149</ns3:hr>
            <ns3:cad>85</ns3:cad>
          </ns3:TrackPointExtension>
        </extensions>
      </trkpt>
      <trkpt lat="47.48354114592075347900390625" lon="10.01915968023240566253662109375">
        <ele>1525.4000244140625</ele>
        <time>2026-09-01T10:01:10.000Z</time>
        <extensions>
          <ns3:TrackPointExtension>
            <ns3:hr>149</ns3:hr>
            <ns3:cad>85</ns3:cad>
          </ns3:TrackPointExtension>
        </extensions>
      </trkpt>
      <trkpt lat="47.4835094623267650604248046875" lon="10.01915062777698040008544921875">
        <ele>1524.199951171875</ele>
        <time>2026-09-01T10:01:12.000Z</time>
        <extensions>
          <ns3:TrackPointExtension>
            <ns3:hr>149</ns3:hr>
            <ns3:cad>85</ns3:cad>
          </ns3:TrackPointExtension>
        </extensions>
      </trkpt>
      <trkpt lat="47.4834782816469669342041015625" lon="10.01913252286612987518310546875">
        <ele>1523</ele>
        <time>2026-09-01T10:01:14.000Z</time>
        <extensions>
          <ns3:TrackPointExtension>
            <ns3:hr>150</ns3:hr>
            <ns3:cad>85</ns3:cad>
          </ns3:TrackPointExtension>
        </extensions>
      </trkpt>
      <trkpt lat="47.48345003463327884674072265625" lon="10.01911374740302562713623046875">
        <ele>1521.5999755859375</ele>
        <time>2026-09-01T10:01:16.000Z</time>
        <extensions>
          <ns3:TrackPointExtension>
            <ns3:hr>149</ns3:hr>
            <ns3:cad>85</ns3:cad>
          </ns3:TrackPointExtension>
        </extensions>
      </trkpt>
      <trkpt lat="47.4834425747394561767578125" lon="10.01908172853291034698486328125">
        <ele>1520.800048828125</ele>
        <time>2026-09-01T10:01:17.000Z</time>
        <extensions>
          <ns3:TrackPointExtension>
            <ns3:hr>148</ns3:hr>
            <ns3:cad>0</ns3:cad>
          </ns3:TrackPointExtension>
        </extensions>
      </trkpt>
      <trkpt lat="47.483434863388538360595703125" lon="10.0190606899559497833251953125">
        <ele>1520.199951171875</ele>
        <time>2026-09-01T10:01:18.000Z</time>
        <extensions>
          <ns3:TrackPointExtension>
            <ns3:hr>148</ns3:hr>
            <ns3:cad>0</ns3:cad>
          </ns3:TrackPointExtension>
        </extensions>
      </trkpt>
      <trkpt lat="47.483425475656986236572265625" lon="10.01903613097965717315673828125">
        <ele>1519.5999755859375</ele>
        <time>2026-09-01T10:01:19.000Z</time>
        <extensions>
          <ns3:TrackPointExtension>
            <ns3:hr>148</ns3:hr>
            <ns3:cad>0</ns3:cad>
          </ns3:TrackPointExtension>
        </extensions>
      </trkpt>
      <trkpt lat="47.48341801576316356658935546875" lon="10.01901517622172832489013671875">
        <ele>1519</ele>
        <time>2026-09-01T10:01:20.000Z</time>
        <extensions>
          <ns3:TrackPointExtension>
            <ns3:hr>148</ns3:hr>
            <ns3:cad>0</ns3:cad>
          </ns3:TrackPointExtension>
        </extensions>
      </trkpt>
      <trkpt lat="47.483390271663665771484375" lon="10.01900645904242992401123046875">
        <ele>1518</ele>
        <time>2026-09-01T10:01:22.000Z</time>
        <extensions>
          <ns3:TrackPointExtension>
            <ns3:hr>147</ns3:hr>
            <ns3:cad>0</ns3:cad>
          </ns3:TrackPointExtension>
        </extensions>
      </trkpt>
      <trkpt lat="47.4833780340850353240966796875" lon="10.019007213413715362548828125">
        <ele>1517.5999755859375</ele>
        <time>2026-09-01T10:01:23.000Z</time>
        <extensions>
          <ns3:TrackPointExtension>
            <ns3:hr>147</ns3:hr>
            <ns3:cad>0</ns3:cad>
          </ns3:TrackPointExtension>
        </extensions>
      </trkpt>
      <trkpt lat="47.48335146345198154449462890625" lon="10.019013583660125732421875">
        <ele>1516.5999755859375</ele>
        <time>2026-09-01T10:01:25.000Z</time>
        <extensions>
          <ns3:TrackPointExtension>
            <ns3:hr>146</ns3:hr>
            <ns3:cad>0</ns3:cad>
          </ns3:TrackPointExtension>
        </extensions>
      </trkpt>
      <trkpt lat="47.4833421595394611358642578125" lon="10.01899807713925838470458984375">
        <ele>1516</ele>
        <time>2026-09-01T10:01:26.000Z</time>
        <extensions>
          <ns3:TrackPointExtension>
            <ns3:hr>147</ns3:hr>
            <ns3:cad>0</ns3:cad>
          </ns3:TrackPointExtension>
        </extensions>
      </trkpt>
      <trkpt lat="47.483332268893718719482421875" lon="10.01897930167615413665771484375">
        <ele>1515.199951171875</ele>
        <time>2026-09-01T10:01:27.000Z</time>
        <extensions>
          <ns3:TrackPointExtension>
            <ns3:hr>147</ns3:hr>
            <ns3:cad>79</ns3:cad>
          </ns3:TrackPointExtension>
        </extensions>
      </trkpt>
      <trkpt lat="47.4833119846880435943603515625" lon="10.0189507193863391876220703125">
        <ele>1514</ele>
        <time>2026-09-01T10:01:29.000Z</time>
        <extensions>
          <ns3:TrackPointExtension>
            <ns3:hr>147</ns3:hr>
            <ns3:cad>79</ns3:cad>
          </ns3:TrackPointExtension>
        </extensions>
      </trkpt>
      <trkpt lat="47.48331625945866107940673828125" lon="10.01888542436063289642333984375">
        <ele>1512.800048828125</ele>
        <time>2026-09-01T10:01:31.000Z</time>
        <extensions>
          <ns3:TrackPointExtension>
            <ns3:hr>148</ns3:hr>
            <ns3:cad>79</ns3:cad>
          </ns3:TrackPointExtension>
        </extensions>
      </trkpt>
      <trkpt lat="47.48331693001091480255126953125" lon="10.01887117512524127960205078125">
        <ele>1512.4000244140625</ele>
        <time>2026-09-01T10:01:32.000Z</time>
        <extensions>
          <ns3:TrackPointExtension>
            <ns3:hr>147</ns3:hr>
            <ns3:cad>79</ns3:cad>
          </ns3:TrackPointExtension>
        </extensions>
      </trkpt>
      <trkpt lat="47.48332682065665721893310546875" lon="10.01887184567749500274658203125">
        <ele>1511.800048828125</ele>
        <time>2026-09-01T10:01:34.000Z</time>
        <extensions>
          <ns3:TrackPointExtension>
            <ns3:hr>148</ns3:hr>
            <ns3:cad>79</ns3:cad>
          </ns3:TrackPointExtension>
        </extensions>
      </trkpt>
      <trkpt lat="47.4833498708903789520263671875" lon="10.01887368969619274139404296875">
        <ele>1511</ele>
        <time>2026-09-01T10:01:37.000Z</time>
        <extensions>
          <ns3:TrackPointExtension>
            <ns3:hr>146</ns3:hr>
            <ns3:cad>79</ns3:cad>
          </ns3:TrackPointExtension>
        </extensions>
      </trkpt>
      <trkpt lat="47.4833572469651699066162109375" lon="10.0188705883920192718505859375">
        <ele>1510.5999755859375</ele>
        <time>2026-09-01T10:01:38.000Z</time>
        <extensions>
          <ns3:TrackPointExtension>
            <ns3:hr>145</ns3:hr>
            <ns3:cad>88</ns3:cad>
          </ns3:TrackPointExtension>
        </extensions>
      </trkpt>
      <trkpt lat="47.4833783693611621856689453125" lon="10.01885524950921535491943359375">
        <ele>1509.4000244140625</ele>
        <time>2026-09-01T10:01:40.000Z</time>
        <extensions>
          <ns3:TrackPointExtension>
            <ns3:hr>146</ns3:hr>
            <ns3:cad>88</ns3:cad>
          </ns3:TrackPointExtension>
        </extensions>
      </trkpt>
      <trkpt lat="47.4834038503468036651611328125" lon="10.0188524834811687469482421875">
        <ele>1508.199951171875</ele>
        <time>2026-09-01T10:01:42.000Z</time>
        <extensions>
          <ns3:TrackPointExtension>
            <ns3:hr>145</ns3:hr>
            <ns3:cad>88</ns3:cad>
          </ns3:TrackPointExtension>
        </extensions>
      </trkpt>
      <trkpt lat="47.48344215564429759979248046875" lon="10.01887318678200244903564453125">
        <ele>1507</ele>
        <time>2026-09-01T10:01:44.000Z</time>
        <extensions>
          <ns3:TrackPointExtension>
            <ns3:hr>146</ns3:hr>
            <ns3:cad>88</ns3:cad>
          </ns3:TrackPointExtension>
        </extensions>
      </trkpt>
      <trkpt lat="47.4834719114005565643310546875" lon="10.01891392283141613006591796875">
        <ele>1507.4000244140625</ele>
        <time>2026-09-01T10:01:48.000Z</time>
        <extensions>
          <ns3:TrackPointExtension>
            <ns3:hr>145</ns3:hr>
            <ns3:cad>88</ns3:cad>
          </ns3:TrackPointExtension>
        </extensions>
      </trkpt>
      <trkpt lat="47.4834823049604892730712890625" lon="10.0189304351806640625">
        <ele>1508.4000244140625</ele>
        <time>2026-09-01T10:01:50.000Z</time>
        <extensions>
          <ns3:TrackPointExtension>
            <ns3:hr>144</ns3:hr>
            <ns3:cad>88</ns3:cad>
          </ns3:TrackPointExtension>
        </extensions>
      </trkpt>
      <trkpt lat="47.4835178442299365997314453125" lon="10.0189626216888427734375">
        <ele>1508.800048828125</ele>
        <time>2026-09-01T10:01:52.000Z</time>
        <extensions>
          <ns3:TrackPointExtension>
            <ns3:hr>145</ns3:hr>
            <ns3:cad>71</ns3:cad>
          </ns3:TrackPointExtension>
        </extensions>
      </trkpt>
      <trkpt lat="47.4836435727775096893310546875" lon="10.019026659429073333740234375">
        <ele>1509.199951171875</ele>
        <time>2026-09-01T10:01:57.000Z</time>
        <extensions>
          <ns3:TrackPointExtension>
            <ns3:hr>148</ns3:hr>
            <ns3:cad>84</ns3:cad>
          </ns3:TrackPointExtension>
        </extensions>
      </trkpt>
      <trkpt lat="47.4836687184870243072509765625" lon="10.01903713680803775787353515625">
        <ele>1509.5999755859375</ele>
        <time>2026-09-01T10:01:58.000Z</time>
        <extensions>
          <ns3:TrackPointExtension>
            <ns3:hr>148</ns3:hr>
            <ns3:cad>84</ns3:cad>
          </ns3:TrackPointExtension>
        </extensions>
      </trkpt>
      <trkpt lat="47.4837729893624782562255859375" lon="10.01907502301037311553955078125">
        <ele>1510.199951171875</ele>
        <time>2026-09-01T10:02:02.000Z</time>
        <extensions>
          <ns3:TrackPointExtension>
            <ns3:hr>151</ns3:hr>
            <ns3:cad>86</ns3:cad>
          </ns3:TrackPointExtension>
        </extensions>
      </trkpt>
      <trkpt lat="47.4839335866272449493408203125" lon="10.01914140768349170684814453125">
        <ele>1509.5999755859375</ele>
        <time>2026-09-01T10:02:07.000Z</time>
        <extensions>
          <ns3:TrackPointExtension>
            <ns3:hr>153</ns3:hr>
            <ns3:cad>85</ns3:cad>
          </ns3:TrackPointExtension>
        </extensions>
      </trkpt>
      <trkpt lat="47.48407884500920772552490234375" lon="10.0191659666597843170166015625">
        <ele>1508.800048828125</ele>
        <time>2026-09-01T10:02:11.000Z</time>
        <extensions>
          <ns3:TrackPointExtension>
            <ns3:hr>153</ns3:hr>
            <ns3:cad>83</ns3:cad>
          </ns3:TrackPointExtension>
        </extensions>
      </trkpt>
      <trkpt lat="47.48418244533240795135498046875" lon="10.01912665553390979766845703125">
        <ele>1508.4000244140625</ele>
        <time>2026-09-01T10:02:14.000Z</time>
        <extensions>
          <ns3:TrackPointExtension>
            <ns3:hr>153</ns3:hr>
            <ns3:cad>83</ns3:cad>
          </ns3:TrackPointExtension>
        </extensions>
      </trkpt>
      <trkpt lat="47.4842410348355770111083984375" lon="10.0190685689449310302734375">
        <ele>1508</ele>
        <time>2026-09-01T10:02:16.000Z</time>
        <extensions>
          <ns3:TrackPointExtension>
            <ns3:hr>152</ns3:hr>
            <ns3:cad>85</ns3:cad>
          </ns3:TrackPointExtension>
        </extensions>
      </trkpt>
      <trkpt lat="47.48431404121220111846923828125" lon="10.0189084745943546295166015625">
        <ele>1507.5999755859375</ele>
        <time>2026-09-01T10:02:19.000Z</time>
        <extensions>
          <ns3:TrackPointExtension>
            <ns3:hr>153</ns3:hr>
            <ns3:cad>82</ns3:cad>
          </ns3:TrackPointExtension>
        </extensions>
      </trkpt>
      <trkpt lat="47.4843251891434192657470703125" lon="10.01884619705379009246826171875">
        <ele>1507.4000244140625</ele>
        <time>2026-09-01T10:02:20.000Z</time>
        <extensions>
          <ns3:TrackPointExtension>
            <ns3:hr>153</ns3:hr>
            <ns3:cad>82</ns3:cad>
          </ns3:TrackPointExtension>
        </extensions>
      </trkpt>
      <trkpt lat="47.484317310154438018798828125" lon="10.018755085766315460205078125">
        <ele>1507</ele>
        <time>2026-09-01T10:02:22.000Z</time>
        <extensions>
          <ns3:TrackPointExtension>
            <ns3:hr>153</ns3:hr>
            <ns3:cad>82</ns3:cad>
          </ns3:TrackPointExtension>
        </extensions>
      </trkpt>
      <trkpt lat="47.4842886440455913543701171875" lon="10.018579401075839996337890625">
        <ele>1507.800048828125</ele>
        <time>2026-09-01T10:02:26.000Z</time>
        <extensions>
          <ns3:TrackPointExtension>
            <ns3:hr>153</ns3:hr>
            <ns3:cad>43</ns3:cad>
          </ns3:TrackPointExtension>
        </extensions>
      </trkpt>
      <trkpt lat="47.4842832796275615692138671875" lon="10.01842123456299304962158203125">
        <ele>1508.199951171875</ele>
        <time>2026-09-01T10:02:30.000Z</time>
        <extensions>
          <ns3:TrackPointExtension>
            <ns3:hr>154</ns3:hr>
            <ns3:cad>42</ns3:cad>
          </ns3:TrackPointExtension>
        </extensions>
      </trkpt>
      <trkpt lat="47.484289817512035369873046875" lon="10.018380247056484222412109375">
        <ele>1508.4000244140625</ele>
        <time>2026-09-01T10:02:31.000Z</time>
        <extensions>
          <ns3:TrackPointExtension>
            <ns3:hr>154</ns3:hr>
            <ns3:cad>42</ns3:cad>
          </ns3:TrackPointExtension>
        </extensions>
      </trkpt>
      <trkpt lat="47.48433415777981281280517578125" lon="10.0182550214231014251708984375">
        <ele>1509.199951171875</ele>
        <time>2026-09-01T10:02:35.000Z</time>
        <extensions>
          <ns3:TrackPointExtension>
            <ns3:hr>155</ns3:hr>
            <ns3:cad>86</ns3:cad>
          </ns3:TrackPointExtension>
        </extensions>
      </trkpt>
      <trkpt lat="47.48436450026929378509521484375" lon="10.0181997008621692657470703125">
        <ele>1509.800048828125</ele>
        <time>2026-09-01T10:02:37.000Z</time>
        <extensions>
          <ns3:TrackPointExtension>
            <ns3:hr>155</ns3:hr>
            <ns3:cad>86</ns3:cad>
          </ns3:TrackPointExtension>
        </extensions>
      </trkpt>
      <trkpt lat="47.48439685441553592681884765625" lon="10.0181309692561626434326171875">
        <ele>1510.4000244140625</ele>
        <time>2026-09-01T10:02:39.000Z</time>
        <extensions>
          <ns3:TrackPointExtension>
            <ns3:hr>155</ns3:hr>
            <ns3:cad>43</ns3:cad>
          </ns3:TrackPointExtension>
        </extensions>
      </trkpt>
      <trkpt lat="47.48441160656511783599853515625" lon="10.01796861179172992706298828125">
        <ele>1510.4000244140625</ele>
        <time>2026-09-01T10:02:43.000Z</time>
        <extensions>
          <ns3:TrackPointExtension>
            <ns3:hr>155</ns3:hr>
            <ns3:cad>43</ns3:cad>
          </ns3:TrackPointExtension>
        </extensions>
      </trkpt>
      <trkpt lat="47.48442166484892368316650390625" lon="10.01779728569090366363525390625">
        <ele>1510</ele>
        <time>2026-09-01T10:02:47.000Z</time>
        <extensions>
          <ns3:TrackPointExtension>
            <ns3:hr>155</ns3:hr>
            <ns3:cad>43</ns3:cad>
          </ns3:TrackPointExtension>
        </extensions>
      </trkpt>
      <trkpt lat="47.48441160656511783599853515625" lon="10.01767138950526714324951171875">
        <ele>1510.199951171875</ele>
        <time>2026-09-01T10:02:50.000Z</time>
        <extensions>
          <ns3:TrackPointExtension>
            <ns3:hr>155</ns3:hr>
            <ns3:cad>85</ns3:cad>
          </ns3:TrackPointExtension>
        </extensions>
      </trkpt>
      <trkpt lat="47.48439400456845760345458984375" lon="10.01756477169692516326904296875">
        <ele>1511</ele>
        <time>2026-09-01T10:02:53.000Z</time>
        <extensions>
          <ns3:TrackPointExtension>
            <ns3:hr>155</ns3:hr>
            <ns3:cad>85</ns3:cad>
          </ns3:TrackPointExtension>
        </extensions>
      </trkpt>
      <trkpt lat="47.484395094215869903564453125" lon="10.017530657351016998291015625">
        <ele>1511.4000244140625</ele>
        <time>2026-09-01T10:02:54.000Z</time>
        <extensions>
          <ns3:TrackPointExtension>
            <ns3:hr>156</ns3:hr>
            <ns3:cad>85</ns3:cad>
          </ns3:TrackPointExtension>
        </extensions>
      </trkpt>
      <trkpt lat="47.48434237204492092132568359375" lon="10.01741037704050540924072265625">
        <ele>1511.800048828125</ele>
        <time>2026-09-01T10:02:58.000Z</time>
        <extensions>
          <ns3:TrackPointExtension>
            <ns3:hr>156</ns3:hr>
            <ns3:cad>43</ns3:cad>
          </ns3:TrackPointExtension>
        </extensions>
      </trkpt>
      <trkpt lat="47.4843459762632846832275390625" lon="10.0173269771039485931396484375">
        <ele>1511.5999755859375</ele>
        <time>2026-09-01T10:03:01.000Z</time>
        <extensions>
          <ns3:TrackPointExtension>
            <ns3:hr>157</ns3:hr>
            <ns3:cad>43</ns3:cad>
          </ns3:TrackPointExtension>
        </extensions>
      </trkpt>
      <trkpt lat="47.484346814453601837158203125" lon="10.01731432043015956878662109375">
        <ele>1512</ele>
        <time>2026-09-01T10:03:03.000Z</time>
        <extensions>
          <ns3:TrackPointExtension>
            <ns3:hr>156</ns3:hr>
            <ns3:cad>43</ns3:cad>
          </ns3:TrackPointExtension>
        </extensions>
      </trkpt>
      <trkpt lat="47.484344802796840667724609375" lon="10.01725799404084682464599609375">
        <ele>1512.800048828125</ele>
        <time>2026-09-01T10:03:05.000Z</time>
        <extensions>
          <ns3:TrackPointExtension>
            <ns3:hr>156</ns3:hr>
            <ns3:cad>42</ns3:cad>
          </ns3:TrackPointExtension>
        </extensions>
      </trkpt>
      <trkpt lat="47.48434086330235004425048828125" lon="10.0172277353703975677490234375">
        <ele>1513.199951171875</ele>
        <time>2026-09-01T10:03:06.000Z</time>
        <extensions>
          <ns3:TrackPointExtension>
            <ns3:hr>156</ns3:hr>
            <ns3:cad>83</ns3:cad>
          </ns3:TrackPointExtension>
        </extensions>
      </trkpt>
      <trkpt lat="47.48433248139917850494384765625" lon="10.01715690828859806060791015625">
        <ele>1514</ele>
        <time>2026-09-01T10:03:09.000Z</time>
        <extensions>
          <ns3:TrackPointExtension>
            <ns3:hr>156</ns3:hr>
            <ns3:cad>83</ns3:cad>
          </ns3:TrackPointExtension>
        </extensions>
      </trkpt>
      <trkpt lat="47.4843342415988445281982421875" lon="10.01713276840746402740478515625">
        <ele>1514.4000244140625</ele>
        <time>2026-09-01T10:03:10.000Z</time>
        <extensions>
          <ns3:TrackPointExtension>
            <ns3:hr>156</ns3:hr>
            <ns3:cad>83</ns3:cad>
          </ns3:TrackPointExtension>
        </extensions>
      </trkpt>
      <trkpt lat="47.48434656299650669097900390625" lon="10.01709991134703159332275390625">
        <ele>1515.5999755859375</ele>
        <time>2026-09-01T10:03:13.000Z</time>
        <extensions>
          <ns3:TrackPointExtension>
            <ns3:hr>156</ns3:hr>
            <ns3:cad>83</ns3:cad>
          </ns3:TrackPointExtension>
        </extensions>
      </trkpt>
      <trkpt lat="47.4843563698232173919677734375" lon="10.0170614384114742279052734375">
        <ele>1516.5999755859375</ele>
        <time>2026-09-01T10:03:16.000Z</time>
        <extensions>
          <ns3:TrackPointExtension>
            <ns3:hr>155</ns3:hr>
            <ns3:cad>0</ns3:cad>
          </ns3:TrackPointExtension>
        </extensions>
      </trkpt>
      <trkpt lat="47.484358884394168853759765625" lon="10.0170399807393550872802734375">
        <ele>1516.800048828125</ele>
        <time>2026-09-01T10:03:17.000Z</time>
        <extensions>
          <ns3:TrackPointExtension>
            <ns3:hr>155</ns3:hr>
            <ns3:cad>0</ns3:cad>
          </ns3:TrackPointExtension>
        </extensions>
      </trkpt>
      <trkpt lat="47.48437522910535335540771484375" lon="10.0169836543500423431396484375">
        <ele>1517.5999755859375</ele>
        <time>2026-09-01T10:03:20.000Z</time>
        <extensions>
          <ns3:TrackPointExtension>
            <ns3:hr>156</ns3:hr>
            <ns3:cad>0</ns3:cad>
          </ns3:TrackPointExtension>
        </extensions>
      </trkpt>
      <trkpt lat="47.48438377864658832550048828125" lon="10.01696798019111156463623046875">
        <ele>1517.5999755859375</ele>
        <time>2026-09-01T10:03:21.000Z</time>
        <extensions>
          <ns3:TrackPointExtension>
            <ns3:hr>157</ns3:hr>
            <ns3:cad>0</ns3:cad>
          </ns3:TrackPointExtension>
        </extensions>
      </trkpt>
      <trkpt lat="47.48443775810301303863525390625" lon="10.0168840773403644561767578125">
        <ele>1516.800048828125</ele>
        <time>2026-09-01T10:03:24.000Z</time>
        <extensions>
          <ns3:TrackPointExtension>
            <ns3:hr>158</ns3:hr>
            <ns3:cad>0</ns3:cad>
          </ns3:TrackPointExtension>
        </extensions>
      </trkpt>
      <trkpt lat="47.4844603054225444793701171875" lon="10.0168341211974620819091796875">
        <ele>1516.4000244140625</ele>
        <time>2026-09-01T10:03:25.000Z</time>
        <extensions>
          <ns3:TrackPointExtension>
            <ns3:hr>158</ns3:hr>
            <ns3:cad>0</ns3:cad>
          </ns3:TrackPointExtension>
        </extensions>
      </trkpt>
      <trkpt lat="47.4845025502145290374755859375" lon="10.016755498945713043212890625">
        <ele>1515.4000244140625</ele>
        <time>2026-09-01T10:03:27.000Z</time>
        <extensions>
          <ns3:TrackPointExtension>
            <ns3:hr>157</ns3:hr>
            <ns3:cad>81</ns3:cad>
          </ns3:TrackPointExtension>
        </extensions>
      </trkpt>
      <trkpt lat="47.48452149331569671630859375" lon="10.01671417616307735443115234375">
        <ele>1514.800048828125</ele>
        <time>2026-09-01T10:03:28.000Z</time>
        <extensions>
          <ns3:TrackPointExtension>
            <ns3:hr>157</ns3:hr>
            <ns3:cad>81</ns3:cad>
          </ns3:TrackPointExtension>
        </extensions>
      </trkpt>
      <trkpt lat="47.48455376364290714263916015625" lon="10.0166329555213451385498046875">
        <ele>1513.800048828125</ele>
        <time>2026-09-01T10:03:30.000Z</time>
        <extensions>
          <ns3:TrackPointExtension>
            <ns3:hr>156</ns3:hr>
            <ns3:cad>83</ns3:cad>
          </ns3:TrackPointExtension>
        </extensions>
      </trkpt>
      <trkpt lat="47.48455896042287349700927734375" lon="10.01658459194004535675048828125">
        <ele>1513.199951171875</ele>
        <time>2026-09-01T10:03:32.000Z</time>
        <extensions>
          <ns3:TrackPointExtension>
            <ns3:hr>156</ns3:hr>
            <ns3:cad>83</ns3:cad>
          </ns3:TrackPointExtension>
        </extensions>
      </trkpt>
      <trkpt lat="47.4845468066632747650146484375" lon="10.01656397245824337005615234375">
        <ele>1513</ele>
        <time>2026-09-01T10:03:33.000Z</time>
        <extensions>
          <ns3:TrackPointExtension>
            <ns3:hr>156</ns3:hr>
            <ns3:cad>86</ns3:cad>
          </ns3:TrackPointExtension>
        </extensions>
      </trkpt>
      <trkpt lat="47.48450883664190769195556640625" lon="10.016505382955074310302734375">
        <ele>1512.4000244140625</ele>
        <time>2026-09-01T10:03:35.000Z</time>
        <extensions>
          <ns3:TrackPointExtension>
            <ns3:hr>155</ns3:hr>
            <ns3:cad>82</ns3:cad>
          </ns3:TrackPointExtension>
        </extensions>
      </trkpt>
      <trkpt lat="47.48448855243623256683349609375" lon="10.01648149453103542327880859375">
        <ele>1511.800048828125</ele>
        <time>2026-09-01T10:03:36.000Z</time>
        <extensions>
          <ns3:TrackPointExtension>
            <ns3:hr>155</ns3:hr>
            <ns3:cad>80</ns3:cad>
          </ns3:TrackPointExtension>
        </extensions>
      </trkpt>
      <trkpt lat="47.4844723753631114959716796875" lon="10.016438327729701995849609375">
        <ele>1511.199951171875</ele>
        <time>2026-09-01T10:03:37.000Z</time>
        <extensions>
          <ns3:TrackPointExtension>
            <ns3:hr>154</ns3:hr>
            <ns3:cad>80</ns3:cad>
          </ns3:TrackPointExtension>
        </extensions>
      </trkpt>
      <trkpt lat="47.48444044031202793121337890625" lon="10.01635693944990634918212890625">
        <ele>1509.800048828125</ele>
        <time>2026-09-01T10:03:39.000Z</time>
        <extensions>
          <ns3:TrackPointExtension>
            <ns3:hr>153</ns3:hr>
            <ns3:cad>97</ns3:cad>
          </ns3:TrackPointExtension>
        </extensions>
      </trkpt>
      <trkpt lat="47.484422586858272552490234375" lon="10.0163154490292072296142578125">
        <ele>1509</ele>
        <time>2026-09-01T10:03:40.000Z</time>
        <extensions>
          <ns3:TrackPointExtension>
            <ns3:hr>153</ns3:hr>
            <ns3:cad>97</ns3:cad>
          </ns3:TrackPointExtension>
        </extensions>
      </trkpt>
      <trkpt lat="47.4844059906899929046630859375" lon="10.01627731136977672576904296875">
        <ele>1508.199951171875</ele>
        <time>2026-09-01T10:03:41.000Z</time>
        <extensions>
          <ns3:TrackPointExtension>
            <ns3:hr>153</ns3:hr>
            <ns3:cad>97</ns3:cad>
          </ns3:TrackPointExtension>
        </extensions>
      </trkpt>
      <trkpt lat="47.48437841422855854034423828125" lon="10.01620371825993061065673828125">
        <ele>1506.4000244140625</ele>
        <time>2026-09-01T10:03:43.000Z</time>
        <extensions>
          <ns3:TrackPointExtension>
            <ns3:hr>152</ns3:hr>
            <ns3:cad>97</ns3:cad>
          </ns3:TrackPointExtension>
        </extensions>
      </trkpt>
      <trkpt lat="47.4843600578606128692626953125" lon="10.01610950566828250885009765625">
        <ele>1504.5999755859375</ele>
        <time>2026-09-01T10:03:45.000Z</time>
        <extensions>
          <ns3:TrackPointExtension>
            <ns3:hr>152</ns3:hr>
            <ns3:cad>97</ns3:cad>
          </ns3:TrackPointExtension>
        </extensions>
      </trkpt>
      <trkpt lat="47.48433901928365230560302734375" lon="10.01602166332304477691650390625">
        <ele>1502.800048828125</ele>
        <time>2026-09-01T10:03:47.000Z</time>
        <extensions>
          <ns3:TrackPointExtension>
            <ns3:hr>152</ns3:hr>
            <ns3:cad>93</ns3:cad>
          </ns3:TrackPointExtension>
        </extensions>
      </trkpt>
      <trkpt lat="47.48429811559617519378662109375" lon="10.0159518420696258544921875">
        <ele>1501</ele>
        <time>2026-09-01T10:03:49.000Z</time>
        <extensions>
          <ns3:TrackPointExtension>
            <ns3:hr>152</ns3:hr>
            <ns3:cad>93</ns3:cad>
          </ns3:TrackPointExtension>
        </extensions>
      </trkpt>
      <trkpt lat="47.48424078337848186492919921875" lon="10.0158993713557720184326171875">
        <ele>1499.5999755859375</ele>
        <time>2026-09-01T10:03:51.000Z</time>
        <extensions>
          <ns3:TrackPointExtension>
            <ns3:hr>151</ns3:hr>
            <ns3:cad>92</ns3:cad>
          </ns3:TrackPointExtension>
        </extensions>
      </trkpt>
      <trkpt lat="47.48422167263925075531005859375" lon="10.01585402525961399078369140625">
        <ele>1498.800048828125</ele>
        <time>2026-09-01T10:03:52.000Z</time>
        <extensions>
          <ns3:TrackPointExtension>
            <ns3:hr>151</ns3:hr>
            <ns3:cad>90</ns3:cad>
          </ns3:TrackPointExtension>
        </extensions>
      </trkpt>
      <trkpt lat="47.4841976165771484375" lon="10.0158339925110340118408203125">
        <ele>1498</ele>
        <time>2026-09-01T10:03:53.000Z</time>
        <extensions>
          <ns3:TrackPointExtension>
            <ns3:hr>151</ns3:hr>
            <ns3:cad>90</ns3:cad>
          </ns3:TrackPointExtension>
        </extensions>
      </trkpt>
      <trkpt lat="47.48415428213775157928466796875" lon="10.01575763337314128875732421875">
        <ele>1496.800048828125</ele>
        <time>2026-09-01T10:03:55.000Z</time>
        <extensions>
          <ns3:TrackPointExtension>
            <ns3:hr>151</ns3:hr>
            <ns3:cad>90</ns3:cad>
          </ns3:TrackPointExtension>
        </extensions>
      </trkpt>
      <trkpt lat="47.4841139651834964752197265625" lon="10.01570734195411205291748046875">
        <ele>1495</ele>
        <time>2026-09-01T10:03:57.000Z</time>
        <extensions>
          <ns3:TrackPointExtension>
            <ns3:hr>150</ns3:hr>
            <ns3:cad>90</ns3:cad>
          </ns3:TrackPointExtension>
        </extensions>
      </trkpt>
      <trkpt lat="47.48410667292773723602294921875" lon="10.0156780891120433807373046875">
        <ele>1494.4000244140625</ele>
        <time>2026-09-01T10:03:58.000Z</time>
        <extensions>
          <ns3:TrackPointExtension>
            <ns3:hr>150</ns3:hr>
            <ns3:cad>92</ns3:cad>
          </ns3:TrackPointExtension>
        </extensions>
      </trkpt>
      <trkpt lat="47.48408152721822261810302734375" lon="10.0156433880329132080078125">
        <ele>1493.5999755859375</ele>
        <time>2026-09-01T10:03:59.000Z</time>
        <extensions>
          <ns3:TrackPointExtension>
            <ns3:hr>150</ns3:hr>
            <ns3:cad>92</ns3:cad>
          </ns3:TrackPointExtension>
        </extensions>
      </trkpt>
      <trkpt lat="47.4840261228382587432861328125" lon="10.0156009756028652191162109375">
        <ele>1492</ele>
        <time>2026-09-01T10:04:01.000Z</time>
        <extensions>
          <ns3:TrackPointExtension>
            <ns3:hr>149</ns3:hr>
            <ns3:cad>89</ns3:cad>
          </ns3:TrackPointExtension>
        </extensions>
      </trkpt>
      <trkpt lat="47.484004162251949310302734375" lon="10.0155600719153881072998046875">
        <ele>1491.199951171875</ele>
        <time>2026-09-01T10:04:02.000Z</time>
        <extensions>
          <ns3:TrackPointExtension>
            <ns3:hr>150</ns3:hr>
            <ns3:cad>89</ns3:cad>
          </ns3:TrackPointExtension>
        </extensions>
      </trkpt>
      <trkpt lat="47.48399167321622371673583984375" lon="10.01551573164761066436767578125">
        <ele>1490.199951171875</ele>
        <time>2026-09-01T10:04:03.000Z</time>
        <extensions>
          <ns3:TrackPointExtension>
            <ns3:hr>149</ns3:hr>
            <ns3:cad>92</ns3:cad>
          </ns3:TrackPointExtension>
        </extensions>
      </trkpt>
      <trkpt lat="47.48398848809301853179931640625" lon="10.0154065154492855072021484375">
        <ele>1488.5999755859375</ele>
        <time>2026-09-01T10:04:05.000Z</time>
        <extensions>
          <ns3:TrackPointExtension>
            <ns3:hr>149</ns3:hr>
            <ns3:cad>92</ns3:cad>
          </ns3:TrackPointExtension>
        </extensions>
      </trkpt>
      <trkpt lat="47.4839778430759906768798828125" lon="10.0153002329170703887939453125">
        <ele>1487</ele>
        <time>2026-09-01T10:04:07.000Z</time>
        <extensions>
          <ns3:TrackPointExtension>
            <ns3:hr>149</ns3:hr>
            <ns3:cad>93</ns3:cad>
          </ns3:TrackPointExtension>
        </extensions>
      </trkpt>
      <trkpt lat="47.483969628810882568359375" lon="10.015245415270328521728515625">
        <ele>1486.199951171875</ele>
        <time>2026-09-01T10:04:08.000Z</time>
        <extensions>
          <ns3:TrackPointExtension>
            <ns3:hr>149</ns3:hr>
            <ns3:cad>90</ns3:cad>
          </ns3:TrackPointExtension>
        </extensions>
      </trkpt>
      <trkpt lat="47.4839540384709835052490234375" lon="10.01519990153610706329345703125">
        <ele>1485.4000244140625</ele>
        <time>2026-09-01T10:04:09.000Z</time>
        <extensions>
          <ns3:TrackPointExtension>
            <ns3:hr>148</ns3:hr>
            <ns3:cad>90</ns3:cad>
          </ns3:TrackPointExtension>
        </extensions>
      </trkpt>
      <trkpt lat="47.4839198403060436248779296875" lon="10.01510082744061946868896484375">
        <ele>1483.5999755859375</ele>
        <time>2026-09-01T10:04:11.000Z</time>
        <extensions>
          <ns3:TrackPointExtension>
            <ns3:hr>148</ns3:hr>
            <ns3:cad>86</ns3:cad>
          </ns3:TrackPointExtension>
        </extensions>
      </trkpt>
      <trkpt lat="47.48388321138918399810791015625" lon="10.0149981491267681121826171875">
        <ele>1482.5999755859375</ele>
        <time>2026-09-01T10:04:13.000Z</time>
        <extensions>
          <ns3:TrackPointExtension>
            <ns3:hr>148</ns3:hr>
            <ns3:cad>86</ns3:cad>
          </ns3:TrackPointExtension>
        </extensions>
      </trkpt>
      <trkpt lat="47.48386678285896778106689453125" lon="10.0149502046406269073486328125">
        <ele>1481.4000244140625</ele>
        <time>2026-09-01T10:04:14.000Z</time>
        <extensions>
          <ns3:TrackPointExtension>
            <ns3:hr>148</ns3:hr>
            <ns3:cad>86</ns3:cad>
          </ns3:TrackPointExtension>
        </extensions>
      </trkpt>
      <trkpt lat="47.48382135294377803802490234375" lon="10.01486278139054775238037109375">
        <ele>1480</ele>
        <time>2026-09-01T10:04:16.000Z</time>
        <extensions>
          <ns3:TrackPointExtension>
            <ns3:hr>148</ns3:hr>
            <ns3:cad>87</ns3:cad>
          </ns3:TrackPointExtension>
        </extensions>
      </trkpt>
      <trkpt lat="47.48379386030137538909912109375" lon="10.01482489518821239471435546875">
        <ele>1479</ele>
        <time>2026-09-01T10:04:17.000Z</time>
        <extensions>
          <ns3:TrackPointExtension>
            <ns3:hr>147</ns3:hr>
            <ns3:cad>88</ns3:cad>
          </ns3:TrackPointExtension>
        </extensions>
      </trkpt>
      <trkpt lat="47.4837662838399410247802734375" lon="10.01476563513278961181640625">
        <ele>1478.199951171875</ele>
        <time>2026-09-01T10:04:18.000Z</time>
        <extensions>
          <ns3:TrackPointExtension>
            <ns3:hr>147</ns3:hr>
            <ns3:cad>89</ns3:cad>
          </ns3:TrackPointExtension>
        </extensions>
      </trkpt>
      <trkpt lat="47.4837361089885234832763671875" lon="10.014714337885379791259765625">
        <ele>1477</ele>
        <time>2026-09-01T10:04:19.000Z</time>
        <extensions>
          <ns3:TrackPointExtension>
            <ns3:hr>147</ns3:hr>
            <ns3:cad>89</ns3:cad>
          </ns3:TrackPointExtension>
        </extensions>
      </trkpt>
      <trkpt lat="47.48371138237416744232177734375" lon="10.01467217691242694854736328125">
        <ele>1476.199951171875</ele>
        <time>2026-09-01T10:04:20.000Z</time>
        <extensions>
          <ns3:TrackPointExtension>
            <ns3:hr>147</ns3:hr>
            <ns3:cad>89</ns3:cad>
          </ns3:TrackPointExtension>
        </extensions>
      </trkpt>
      <trkpt lat="47.48367869295179843902587890625" lon="10.0146313570439815521240234375">
        <ele>1475</ele>
        <time>2026-09-01T10:04:21.000Z</time>
        <extensions>
          <ns3:TrackPointExtension>
            <ns3:hr>148</ns3:hr>
            <ns3:cad>86</ns3:cad>
          </ns3:TrackPointExtension>
        </extensions>
      </trkpt>
      <trkpt lat="47.48363108374178409576416015625" lon="10.0145549140870571136474609375">
        <ele>1473.4000244140625</ele>
        <time>2026-09-01T10:04:23.000Z</time>
        <extensions>
          <ns3:TrackPointExtension>
            <ns3:hr>149</ns3:hr>
            <ns3:cad>86</ns3:cad>
          </ns3:TrackPointExtension>
        </extensions>
      </trkpt>
      <trkpt lat="47.483582384884357452392578125" lon="10.0144912116229534149169921875">
        <ele>1472.4000244140625</ele>
        <time>2026-09-01T10:04:25.000Z</time>
        <extensions>
          <ns3:TrackPointExtension>
            <ns3:hr>149</ns3:hr>
            <ns3:cad>86</ns3:cad>
          </ns3:TrackPointExtension>
        </extensions>
      </trkpt>
      <trkpt lat="47.48356101103127002716064453125" lon="10.01444972120225429534912109375">
        <ele>1472</ele>
        <time>2026-09-01T10:04:26.000Z</time>
        <extensions>
          <ns3:TrackPointExtension>
            <ns3:hr>149</ns3:hr>
            <ns3:cad>87</ns3:cad>
          </ns3:TrackPointExtension>
        </extensions>
      </trkpt>
      <trkpt lat="47.48351273126900196075439453125" lon="10.01438367180526256561279296875">
        <ele>1470.800048828125</ele>
        <time>2026-09-01T10:04:28.000Z</time>
        <extensions>
          <ns3:TrackPointExtension>
            <ns3:hr>149</ns3:hr>
            <ns3:cad>88</ns3:cad>
          </ns3:TrackPointExtension>
        </extensions>
      </trkpt>
      <trkpt lat="47.483489513397216796875" lon="10.0143393315374851226806640625">
        <ele>1470.199951171875</ele>
        <time>2026-09-01T10:04:29.000Z</time>
        <extensions>
          <ns3:TrackPointExtension>
            <ns3:hr>149</ns3:hr>
            <ns3:cad>88</ns3:cad>
          </ns3:TrackPointExtension>
        </extensions>
      </trkpt>
      <trkpt lat="47.4834682233631610870361328125" lon="10.014314688742160797119140625">
        <ele>1469.800048828125</ele>
        <time>2026-09-01T10:04:30.000Z</time>
        <extensions>
          <ns3:TrackPointExtension>
            <ns3:hr>149</ns3:hr>
            <ns3:cad>88</ns3:cad>
          </ns3:TrackPointExtension>
        </extensions>
      </trkpt>
      <trkpt lat="47.48341097496449947357177734375" lon="10.01424771733582019805908203125">
        <ele>1468.4000244140625</ele>
        <time>2026-09-01T10:04:32.000Z</time>
        <extensions>
          <ns3:TrackPointExtension>
            <ns3:hr>148</ns3:hr>
            <ns3:cad>90</ns3:cad>
          </ns3:TrackPointExtension>
        </extensions>
      </trkpt>
      <trkpt lat="47.4833807162940502166748046875" lon="10.0142132677137851715087890625">
        <ele>1467.5999755859375</ele>
        <time>2026-09-01T10:04:33.000Z</time>
        <extensions>
          <ns3:TrackPointExtension>
            <ns3:hr>148</ns3:hr>
            <ns3:cad>90</ns3:cad>
          </ns3:TrackPointExtension>
        </extensions>
      </trkpt>
      <trkpt lat="47.48335045762360095977783203125" lon="10.014200024306774139404296875">
        <ele>1466.800048828125</ele>
        <time>2026-09-01T10:04:34.000Z</time>
        <extensions>
          <ns3:TrackPointExtension>
            <ns3:hr>149</ns3:hr>
            <ns3:cad>90</ns3:cad>
          </ns3:TrackPointExtension>
        </extensions>
      </trkpt>
      <trkpt lat="47.48326295055449008941650390625" lon="10.01414294354617595672607421875">
        <ele>1465.800048828125</ele>
        <time>2026-09-01T10:04:37.000Z</time>
        <extensions>
          <ns3:TrackPointExtension>
            <ns3:hr>149</ns3:hr>
            <ns3:cad>90</ns3:cad>
          </ns3:TrackPointExtension>
        </extensions>
      </trkpt>
      <trkpt lat="47.48322732746601104736328125" lon="10.01409281976521015167236328125">
        <ele>1465.800048828125</ele>
        <time>2026-09-01T10:04:39.000Z</time>
        <extensions>
          <ns3:TrackPointExtension>
            <ns3:hr>148</ns3:hr>
            <ns3:cad>84</ns3:cad>
          </ns3:TrackPointExtension>
        </extensions>
      </trkpt>
      <trkpt lat="47.4831922911107540130615234375" lon="10.0140313804149627685546875">
        <ele>1465.5999755859375</ele>
        <time>2026-09-01T10:04:41.000Z</time>
        <extensions>
          <ns3:TrackPointExtension>
            <ns3:hr>148</ns3:hr>
            <ns3:cad>84</ns3:cad>
          </ns3:TrackPointExtension>
        </extensions>
      </trkpt>
      <trkpt lat="47.48315566219389438629150390625" lon="10.0139101780951023101806640625">
        <ele>1465.5999755859375</ele>
        <time>2026-09-01T10:04:45.000Z</time>
        <extensions>
          <ns3:TrackPointExtension>
            <ns3:hr>147</ns3:hr>
            <ns3:cad>83</ns3:cad>
          </ns3:TrackPointExtension>
        </extensions>
      </trkpt>
      <trkpt lat="47.48309095390141010284423828125" lon="10.0138213299214839935302734375">
        <ele>1464.5999755859375</ele>
        <time>2026-09-01T10:04:49.000Z</time>
        <extensions>
          <ns3:TrackPointExtension>
            <ns3:hr>148</ns3:hr>
            <ns3:cad>86</ns3:cad>
          </ns3:TrackPointExtension>
        </extensions>
      </trkpt>
      <trkpt lat="47.48306966386735439300537109375" lon="10.01376785337924957275390625">
        <ele>1463.5999755859375</ele>
        <time>2026-09-01T10:04:51.000Z</time>
        <extensions>
          <ns3:TrackPointExtension>
            <ns3:hr>149</ns3:hr>
            <ns3:cad>86</ns3:cad>
          </ns3:TrackPointExtension>
        </extensions>
      </trkpt>
      <trkpt lat="47.48303286731243133544921875" lon="10.0137240998446941375732421875">
        <ele>1462</ele>
        <time>2026-09-01T10:04:53.000Z</time>
        <extensions>
          <ns3:TrackPointExtension>
            <ns3:hr>150</ns3:hr>
            <ns3:cad>86</ns3:cad>
          </ns3:TrackPointExtension>
        </extensions>
      </trkpt>
      <trkpt lat="47.483006380498409271240234375" lon="10.01364958472549915313720703125">
        <ele>1460.5999755859375</ele>
        <time>2026-09-01T10:04:55.000Z</time>
        <extensions>
          <ns3:TrackPointExtension>
            <ns3:hr>149</ns3:hr>
            <ns3:cad>86</ns3:cad>
          </ns3:TrackPointExtension>
        </extensions>
      </trkpt>
      <trkpt lat="47.4829931370913982391357421875" lon="10.01356794498860836029052734375">
        <ele>1459.5999755859375</ele>
        <time>2026-09-01T10:04:57.000Z</time>
        <extensions>
          <ns3:TrackPointExtension>
            <ns3:hr>148</ns3:hr>
            <ns3:cad>86</ns3:cad>
          </ns3:TrackPointExtension>
        </extensions>
      </trkpt>
      <trkpt lat="47.482952065765857696533203125" lon="10.01346635632216930389404296875">
        <ele>1458.5999755859375</ele>
        <time>2026-09-01T10:05:00.000Z</time>
        <extensions>
          <ns3:TrackPointExtension>
            <ns3:hr>148</ns3:hr>
            <ns3:cad>83</ns3:cad>
          </ns3:TrackPointExtension>
        </extensions>
      </trkpt>
      <trkpt lat="47.4829356372356414794921875" lon="10.01343802548944950103759765625">
        <ele>1458.4000244140625</ele>
        <time>2026-09-01T10:05:01.000Z</time>
        <extensions>
          <ns3:TrackPointExtension>
            <ns3:hr>148</ns3:hr>
            <ns3:cad>82</ns3:cad>
          </ns3:TrackPointExtension>
        </extensions>
      </trkpt>
      <trkpt lat="47.4828851781785488128662109375" lon="10.01332537271082401275634765625">
        <ele>1457.199951171875</ele>
        <time>2026-09-01T10:05:04.000Z</time>
        <extensions>
          <ns3:TrackPointExtension>
            <ns3:hr>149</ns3:hr>
            <ns3:cad>80</ns3:cad>
          </ns3:TrackPointExtension>
        </extensions>
      </trkpt>
      <trkpt lat="47.48285391367971897125244140625" lon="10.01325060613453388214111328125">
        <ele>1456</ele>
        <time>2026-09-01T10:05:06.000Z</time>
        <extensions>
          <ns3:TrackPointExtension>
            <ns3:hr>149</ns3:hr>
            <ns3:cad>83</ns3:cad>
          </ns3:TrackPointExtension>
        </extensions>
      </trkpt>
      <trkpt lat="47.4828083999454975128173828125" lon="10.013197548687458038330078125">
        <ele>1454.800048828125</ele>
        <time>2026-09-01T10:05:08.000Z</time>
        <extensions>
          <ns3:TrackPointExtension>
            <ns3:hr>149</ns3:hr>
            <ns3:cad>84</ns3:cad>
          </ns3:TrackPointExtension>
        </extensions>
      </trkpt>
      <trkpt lat="47.48277805745601654052734375" lon="10.013176761567592620849609375">
        <ele>1454.4000244140625</ele>
        <time>2026-09-01T10:05:09.000Z</time>
        <extensions>
          <ns3:TrackPointExtension>
            <ns3:hr>149</ns3:hr>
            <ns3:cad>90</ns3:cad>
          </ns3:TrackPointExtension>
        </extensions>
      </trkpt>
      <trkpt lat="47.48275928199291229248046875" lon="10.013139210641384124755859375">
        <ele>1453.800048828125</ele>
        <time>2026-09-01T10:05:10.000Z</time>
        <extensions>
          <ns3:TrackPointExtension>
            <ns3:hr>149</ns3:hr>
            <ns3:cad>87</ns3:cad>
          </ns3:TrackPointExtension>
        </extensions>
      </trkpt>
      <trkpt lat="47.48271427117288112640380859375" lon="10.01301574520766735076904296875">
        <ele>1452.800048828125</ele>
        <time>2026-09-01T10:05:13.000Z</time>
        <extensions>
          <ns3:TrackPointExtension>
            <ns3:hr>149</ns3:hr>
            <ns3:cad>84</ns3:cad>
          </ns3:TrackPointExtension>
        </extensions>
      </trkpt>
      <trkpt lat="47.48268946073949337005615234375" lon="10.01298456452786922454833984375">
        <ele>1452.800048828125</ele>
        <time>2026-09-01T10:05:14.000Z</time>
        <extensions>
          <ns3:TrackPointExtension>
            <ns3:hr>149</ns3:hr>
            <ns3:cad>84</ns3:cad>
          </ns3:TrackPointExtension>
        </extensions>
      </trkpt>
      <trkpt lat="47.482584603130817413330078125" lon="10.01289437524974346160888671875">
        <ele>1453</ele>
        <time>2026-09-01T10:05:18.000Z</time>
        <extensions>
          <ns3:TrackPointExtension>
            <ns3:hr>149</ns3:hr>
            <ns3:cad>85</ns3:cad>
          </ns3:TrackPointExtension>
        </extensions>
      </trkpt>
      <trkpt lat="47.4824955873191356658935546875" lon="10.01277635805308818817138671875">
        <ele>1453.199951171875</ele>
        <time>2026-09-01T10:05:22.000Z</time>
        <extensions>
          <ns3:TrackPointExtension>
            <ns3:hr>149</ns3:hr>
            <ns3:cad>84</ns3:cad>
          </ns3:TrackPointExtension>
        </extensions>
      </trkpt>
      <trkpt lat="47.48245242051780223846435546875" lon="10.01257359981536865234375">
        <ele>1453.4000244140625</ele>
        <time>2026-09-01T10:05:27.000Z</time>
        <extensions>
          <ns3:TrackPointExtension>
            <ns3:hr>150</ns3:hr>
            <ns3:cad>85</ns3:cad>
          </ns3:TrackPointExtension>
        </extensions>
      </trkpt>
      <trkpt lat="47.48240564949810504913330078125" lon="10.0124564208090305328369140625">
        <ele>1453.5999755859375</ele>
        <time>2026-09-01T10:05:31.000Z</time>
        <extensions>
          <ns3:TrackPointExtension>
            <ns3:hr>150</ns3:hr>
            <ns3:cad>86</ns3:cad>
          </ns3:TrackPointExtension>
        </extensions>
      </trkpt>
      <trkpt lat="47.48233976773917675018310546875" lon="10.0123239867389202117919921875">
        <ele>1454</ele>
        <time>2026-09-01T10:05:35.000Z</time>
        <extensions>
          <ns3:TrackPointExtension>
            <ns3:hr>152</ns3:hr>
            <ns3:cad>85</ns3:cad>
          </ns3:TrackPointExtension>
        </extensions>
      </trkpt>
      <trkpt lat="47.482264749705791473388671875" lon="10.0121915526688098907470703125">
        <ele>1455</ele>
        <time>2026-09-01T10:05:40.000Z</time>
        <extensions>
          <ns3:TrackPointExtension>
            <ns3:hr>152</ns3:hr>
            <ns3:cad>87</ns3:cad>
          </ns3:TrackPointExtension>
        </extensions>
      </trkpt>
      <trkpt lat="47.482254020869731903076171875" lon="10.01216414384543895721435546875">
        <ele>1455.199951171875</ele>
        <time>2026-09-01T10:05:41.000Z</time>
        <extensions>
          <ns3:TrackPointExtension>
            <ns3:hr>152</ns3:hr>
            <ns3:cad>87</ns3:cad>
          </ns3:TrackPointExtension>
        </extensions>
      </trkpt>
      <trkpt lat="47.4821884743869304656982421875" lon="10.01198125071823596954345703125">
        <ele>1454.5999755859375</ele>
        <time>2026-09-01T10:05:46.000Z</time>
        <extensions>
          <ns3:TrackPointExtension>
            <ns3:hr>153</ns3:hr>
            <ns3:cad>84</ns3:cad>
          </ns3:TrackPointExtension>
        </extensions>
      </trkpt>
      <trkpt lat="47.4821458943188190460205078125" lon="10.01177840866148471832275390625">
        <ele>1454</ele>
        <time>2026-09-01T10:05:51.000Z</time>
        <extensions>
          <ns3:TrackPointExtension>
            <ns3:hr>153</ns3:hr>
            <ns3:cad>84</ns3:cad>
          </ns3:TrackPointExtension>
        </extensions>
      </trkpt>
      <trkpt lat="47.48211161233484745025634765625" lon="10.01162937842309474945068359375">
        <ele>1454.199951171875</ele>
        <time>2026-09-01T10:05:55.000Z</time>
        <extensions>
          <ns3:TrackPointExtension>
            <ns3:hr>153</ns3:hr>
            <ns3:cad>83</ns3:cad>
          </ns3:TrackPointExtension>
        </extensions>
      </trkpt>
      <trkpt lat="47.4820982851088047027587890625" lon="10.01151404343545436859130859375">
        <ele>1454.800048828125</ele>
        <time>2026-09-01T10:05:59.000Z</time>
        <extensions>
          <ns3:TrackPointExtension>
            <ns3:hr>153</ns3:hr>
            <ns3:cad>84</ns3:cad>
          </ns3:TrackPointExtension>
        </extensions>
      </trkpt>
      <trkpt lat="47.48209945857524871826171875" lon="10.0114140473306179046630859375">
        <ele>1456.199951171875</ele>
        <time>2026-09-01T10:06:04.000Z</time>
        <extensions>
          <ns3:TrackPointExtension>
            <ns3:hr>153</ns3:hr>
            <ns3:cad>84</ns3:cad>
          </ns3:TrackPointExtension>
        </extensions>
      </trkpt>
      <trkpt lat="47.48209870420396327972412109375" lon="10.01141329295933246612548828125">
        <ele>1456.4000244140625</ele>
        <time>2026-09-01T10:06:05.000Z</time>
        <extensions>
          <ns3:TrackPointExtension>
            <ns3:hr>153</ns3:hr>
            <ns3:cad>84</ns3:cad>
          </ns3:TrackPointExtension>
        </extensions>
      </trkpt>
      <trkpt lat="47.48208227567374706268310546875" lon="10.01134523190557956695556640625">
        <ele>1457.199951171875</ele>
        <time>2026-09-01T10:06:11.000Z</time>
        <extensions>
          <ns3:TrackPointExtension>
            <ns3:hr>151</ns3:hr>
            <ns3:cad>50</ns3:cad>
          </ns3:TrackPointExtension>
        </extensions>
      </trkpt>
      <trkpt lat="47.4820312298834323883056640625" lon="10.0112068466842174530029296875">
        <ele>1458.199951171875</ele>
        <time>2026-09-01T10:06:17.000Z</time>
        <extensions>
          <ns3:TrackPointExtension>
            <ns3:hr>151</ns3:hr>
            <ns3:cad>83</ns3:cad>
          </ns3:TrackPointExtension>
        </extensions>
      </trkpt>
      <trkpt lat="47.482026703655719757080078125" lon="10.01118765212595462799072265625">
        <ele>1458.5999755859375</ele>
        <time>2026-09-01T10:06:18.000Z</time>
        <extensions>
          <ns3:TrackPointExtension>
            <ns3:hr>151</ns3:hr>
            <ns3:cad>83</ns3:cad>
          </ns3:TrackPointExtension>
        </extensions>
      </trkpt>
      <trkpt lat="47.48201102949678897857666015625" lon="10.01113719306886196136474609375">
        <ele>1459.4000244140625</ele>
        <time>2026-09-01T10:06:21.000Z</time>
        <extensions>
          <ns3:TrackPointExtension>
            <ns3:hr>150</ns3:hr>
            <ns3:cad>88</ns3:cad>
          </ns3:TrackPointExtension>
        </extensions>
      </trkpt>
      <trkpt lat="47.48199258930981159210205078125" lon="10.01108388416469097137451171875">
        <ele>1460.199951171875</ele>
        <time>2026-09-01T10:06:24.000Z</time>
        <extensions>
          <ns3:TrackPointExtension>
            <ns3:hr>151</ns3:hr>
            <ns3:cad>88</ns3:cad>
          </ns3:TrackPointExtension>
        </extensions>
      </trkpt>
      <trkpt lat="47.4819920025765895843505859375" lon="10.01107600517570972442626953125">
        <ele>1460.4000244140625</ele>
        <time>2026-09-01T10:06:25.000Z</time>
        <extensions>
          <ns3:TrackPointExtension>
            <ns3:hr>151</ns3:hr>
            <ns3:cad>0</ns3:cad>
          </ns3:TrackPointExtension>
        </extensions>
      </trkpt>
      <trkpt lat="47.48198471032083034515380859375" lon="10.0110271386802196502685546875">
        <ele>1461.4000244140625</ele>
        <time>2026-09-01T10:06:28.000Z</time>
        <extensions>
          <ns3:TrackPointExtension>
            <ns3:hr>152</ns3:hr>
            <ns3:cad>0</ns3:cad>
          </ns3:TrackPointExtension>
        </extensions>
      </trkpt>
      <trkpt lat="47.48198571614921092987060546875" lon="10.0110053457319736480712890625">
        <ele>1461.800048828125</ele>
        <time>2026-09-01T10:06:29.000Z</time>
        <extensions>
          <ns3:TrackPointExtension>
            <ns3:hr>152</ns3:hr>
            <ns3:cad>0</ns3:cad>
          </ns3:TrackPointExtension>
        </extensions>
      </trkpt>
      <trkpt lat="47.4819780886173248291015625" lon="10.01094893552362918853759765625">
        <ele>1463</ele>
        <time>2026-09-01T10:06:33.000Z</time>
        <extensions>
          <ns3:TrackPointExtension>
            <ns3:hr>153</ns3:hr>
            <ns3:cad>0</ns3:cad>
          </ns3:TrackPointExtension>
        </extensions>
      </trkpt>
      <trkpt lat="47.48197867535054683685302734375" lon="10.010935775935649871826171875">
        <ele>1463.199951171875</ele>
        <time>2026-09-01T10:06:34.000Z</time>
        <extensions>
          <ns3:TrackPointExtension>
            <ns3:hr>154</ns3:hr>
            <ns3:cad>0</ns3:cad>
          </ns3:TrackPointExtension>
        </extensions>
      </trkpt>
      <trkpt lat="47.48196928761899471282958984375" lon="10.01088389195501804351806640625">
        <ele>1464.199951171875</ele>
        <time>2026-09-01T10:06:38.000Z</time>
        <extensions>
          <ns3:TrackPointExtension>
            <ns3:hr>155</ns3:hr>
            <ns3:cad>0</ns3:cad>
          </ns3:TrackPointExtension>
        </extensions>
      </trkpt>
      <trkpt lat="47.48194078914821147918701171875" lon="10.01083619892597198486328125">
        <ele>1465.199951171875</ele>
        <time>2026-09-01T10:06:42.000Z</time>
        <extensions>
          <ns3:TrackPointExtension>
            <ns3:hr>154</ns3:hr>
            <ns3:cad>0</ns3:cad>
          </ns3:TrackPointExtension>
        </extensions>
      </trkpt>
      <trkpt lat="47.48193073086440563201904296875" lon="10.01076319254934787750244140625">
        <ele>1466.5999755859375</ele>
        <time>2026-09-01T10:06:47.000Z</time>
        <extensions>
          <ns3:TrackPointExtension>
            <ns3:hr>155</ns3:hr>
            <ns3:cad>0</ns3:cad>
          </ns3:TrackPointExtension>
        </extensions>
      </trkpt>
      <trkpt lat="47.481936514377593994140625" lon="10.01075531356036663055419921875">
        <ele>1466.800048828125</ele>
        <time>2026-09-01T10:06:48.000Z</time>
        <extensions>
          <ns3:TrackPointExtension>
            <ns3:hr>155</ns3:hr>
            <ns3:cad>0</ns3:cad>
          </ns3:TrackPointExtension>
        </extensions>
      </trkpt>
      <trkpt lat="47.481940202414989471435546875" lon="10.0107250548899173736572265625">
        <ele>1467.800048828125</ele>
        <time>2026-09-01T10:06:51.000Z</time>
        <extensions>
          <ns3:TrackPointExtension>
            <ns3:hr>156</ns3:hr>
            <ns3:cad>0</ns3:cad>
          </ns3:TrackPointExtension>
        </extensions>
      </trkpt>
      <trkpt lat="47.48193106614053249359130859375" lon="10.0106891803443431854248046875">
        <ele>1468.5999755859375</ele>
        <time>2026-09-01T10:06:53.000Z</time>
        <extensions>
          <ns3:TrackPointExtension>
            <ns3:hr>155</ns3:hr>
            <ns3:cad>0</ns3:cad>
          </ns3:TrackPointExtension>
        </extensions>
      </trkpt>
      <trkpt lat="47.48191438615322113037109375" lon="10.01066696830093860626220703125">
        <ele>1469</ele>
        <time>2026-09-01T10:06:55.000Z</time>
        <extensions>
          <ns3:TrackPointExtension>
            <ns3:hr>155</ns3:hr>
            <ns3:cad>0</ns3:cad>
          </ns3:TrackPointExtension>
        </extensions>
      </trkpt>
      <trkpt lat="47.48188446275889873504638671875" lon="10.0106352008879184722900390625">
        <ele>1469.800048828125</ele>
        <time>2026-09-01T10:06:58.000Z</time>
        <extensions>
          <ns3:TrackPointExtension>
            <ns3:hr>156</ns3:hr>
            <ns3:cad>0</ns3:cad>
          </ns3:TrackPointExtension>
        </extensions>
      </trkpt>
      <trkpt lat="47.4818763323128223419189453125" lon="10.01061449758708477020263671875">
        <ele>1470</ele>
        <time>2026-09-01T10:06:59.000Z</time>
        <extensions>
          <ns3:TrackPointExtension>
            <ns3:hr>156</ns3:hr>
            <ns3:cad>0</ns3:cad>
          </ns3:TrackPointExtension>
        </extensions>
      </trkpt>
      <trkpt lat="47.4818542040884494781494140625" lon="10.0105678103864192962646484375">
        <ele>1471.199951171875</ele>
        <time>2026-09-01T10:07:03.000Z</time>
        <extensions>
          <ns3:TrackPointExtension>
            <ns3:hr>157</ns3:hr>
            <ns3:cad>0</ns3:cad>
          </ns3:TrackPointExtension>
        </extensions>
      </trkpt>
      <trkpt lat="47.48185428790748119354248046875" lon="10.0105503760278224945068359375">
        <ele>1471.5999755859375</ele>
        <time>2026-09-01T10:07:04.000Z</time>
        <extensions>
          <ns3:TrackPointExtension>
            <ns3:hr>157</ns3:hr>
            <ns3:cad>0</ns3:cad>
          </ns3:TrackPointExtension>
        </extensions>
      </trkpt>
      <trkpt lat="47.48185110278427600860595703125" lon="10.01053185202181339263916015625">
        <ele>1472.4000244140625</ele>
        <time>2026-09-01T10:07:07.000Z</time>
        <extensions>
          <ns3:TrackPointExtension>
            <ns3:hr>157</ns3:hr>
            <ns3:cad>0</ns3:cad>
          </ns3:TrackPointExtension>
        </extensions>
      </trkpt>
      <trkpt lat="47.4818092770874500274658203125" lon="10.01050234772264957427978515625">
        <ele>1473.5999755859375</ele>
        <time>2026-09-01T10:07:10.000Z</time>
        <extensions>
          <ns3:TrackPointExtension>
            <ns3:hr>157</ns3:hr>
            <ns3:cad>62</ns3:cad>
          </ns3:TrackPointExtension>
        </extensions>
      </trkpt>
      <trkpt lat="47.48179561458528041839599609375" lon="10.01049178652465343475341796875">
        <ele>1474</ele>
        <time>2026-09-01T10:07:11.000Z</time>
        <extensions>
          <ns3:TrackPointExtension>
            <ns3:hr>157</ns3:hr>
            <ns3:cad>62</ns3:cad>
          </ns3:TrackPointExtension>
        </extensions>
      </trkpt>
      <trkpt lat="47.48176879249513149261474609375" lon="10.0104682333767414093017578125">
        <ele>1474.5999755859375</ele>
        <time>2026-09-01T10:07:14.000Z</time>
        <extensions>
          <ns3:TrackPointExtension>
            <ns3:hr>157</ns3:hr>
            <ns3:cad>0</ns3:cad>
          </ns3:TrackPointExtension>
        </extensions>
      </trkpt>
      <trkpt lat="47.48176963068544864654541015625" lon="10.01044350676238536834716796875">
        <ele>1475.199951171875</ele>
        <time>2026-09-01T10:07:16.000Z</time>
        <extensions>
          <ns3:TrackPointExtension>
            <ns3:hr>156</ns3:hr>
            <ns3:cad>0</ns3:cad>
          </ns3:TrackPointExtension>
        </extensions>
      </trkpt>
      <trkpt lat="47.48176778666675090789794921875" lon="10.01041316427290439605712890625">
        <ele>1475.800048828125</ele>
        <time>2026-09-01T10:07:18.000Z</time>
        <extensions>
          <ns3:TrackPointExtension>
            <ns3:hr>157</ns3:hr>
            <ns3:cad>0</ns3:cad>
          </ns3:TrackPointExtension>
        </extensions>
      </trkpt>
      <trkpt lat="47.4817626737058162689208984375" lon="10.01036840490996837615966796875">
        <ele>1477</ele>
        <time>2026-09-01T10:07:22.000Z</time>
        <extensions>
          <ns3:TrackPointExtension>
            <ns3:hr>157</ns3:hr>
            <ns3:cad>0</ns3:cad>
          </ns3:TrackPointExtension>
        </extensions>
      </trkpt>
      <trkpt lat="47.48175638727843761444091796875" lon="10.010320879518985748291015625">
        <ele>1477.5999755859375</ele>
        <time>2026-09-01T10:07:24.000Z</time>
        <extensions>
          <ns3:TrackPointExtension>
            <ns3:hr>158</ns3:hr>
            <ns3:cad>0</ns3:cad>
          </ns3:TrackPointExtension>
        </extensions>
      </trkpt>
      <trkpt lat="47.481761835515499114990234375" lon="10.01030202023684978485107421875">
        <ele>1477.800048828125</ele>
        <time>2026-09-01T10:07:25.000Z</time>
        <extensions>
          <ns3:TrackPointExtension>
            <ns3:hr>158</ns3:hr>
            <ns3:cad>0</ns3:cad>
          </ns3:TrackPointExtension>
        </extensions>
      </trkpt>
      <trkpt lat="47.4817616678774356842041015625" lon="10.01028743572533130645751953125">
        <ele>1478.199951171875</ele>
        <time>2026-09-01T10:07:26.000Z</time>
        <extensions>
          <ns3:TrackPointExtension>
            <ns3:hr>158</ns3:hr>
            <ns3:cad>0</ns3:cad>
          </ns3:TrackPointExtension>
        </extensions>
      </trkpt>
      <trkpt lat="47.48176208697259426116943359375" lon="10.0102161057293415069580078125">
        <ele>1478.800048828125</ele>
        <time>2026-09-01T10:07:29.000Z</time>
        <extensions>
          <ns3:TrackPointExtension>
            <ns3:hr>159</ns3:hr>
            <ns3:cad>0</ns3:cad>
          </ns3:TrackPointExtension>
        </extensions>
      </trkpt>
      <trkpt lat="47.48175387270748615264892578125" lon="10.01022540964186191558837890625">
        <ele>1479</ele>
        <time>2026-09-01T10:07:33.000Z</time>
        <extensions>
          <ns3:TrackPointExtension>
            <ns3:hr>159</ns3:hr>
            <ns3:cad>41</ns3:cad>
          </ns3:TrackPointExtension>
        </extensions>
      </trkpt>
      <trkpt lat="47.48178253881633281707763671875" lon="10.0101909600198268890380859375">
        <ele>1478.4000244140625</ele>
        <time>2026-09-01T10:07:36.000Z</time>
        <extensions>
          <ns3:TrackPointExtension>
            <ns3:hr>159</ns3:hr>
            <ns3:cad>41</ns3:cad>
          </ns3:TrackPointExtension>
        </extensions>
      </trkpt>
      <trkpt lat="47.48180148191750049591064453125" lon="10.010150559246540069580078125">
        <ele>1477.199951171875</ele>
        <time>2026-09-01T10:07:39.000Z</time>
        <extensions>
          <ns3:TrackPointExtension>
            <ns3:hr>158</ns3:hr>
            <ns3:cad>41</ns3:cad>
          </ns3:TrackPointExtension>
        </extensions>
      </trkpt>
      <trkpt lat="47.4818032421171665191650390625" lon="10.0101430155336856842041015625">
        <ele>1476.800048828125</ele>
        <time>2026-09-01T10:07:40.000Z</time>
        <extensions>
          <ns3:TrackPointExtension>
            <ns3:hr>158</ns3:hr>
            <ns3:cad>71</ns3:cad>
          </ns3:TrackPointExtension>
        </extensions>
      </trkpt>
      <trkpt lat="47.481811456382274627685546875" lon="10.01011426560580730438232421875">
        <ele>1476.4000244140625</ele>
        <time>2026-09-01T10:07:43.000Z</time>
        <extensions>
          <ns3:TrackPointExtension>
            <ns3:hr>155</ns3:hr>
            <ns3:cad>73</ns3:cad>
          </ns3:TrackPointExtension>
        </extensions>
      </trkpt>
      <trkpt lat="47.4818117916584014892578125" lon="10.0101118348538875579833984375">
        <ele>1476</ele>
        <time>2026-09-01T10:07:46.000Z</time>
        <extensions>
          <ns3:TrackPointExtension>
            <ns3:hr>153</ns3:hr>
            <ns3:cad>73</ns3:cad>
          </ns3:TrackPointExtension>
        </extensions>
      </trkpt>
      <trkpt lat="47.481815814971923828125" lon="10.010107643902301788330078125">
        <ele>1475.5999755859375</ele>
        <time>2026-09-01T10:07:47.000Z</time>
        <extensions>
          <ns3:TrackPointExtension>
            <ns3:hr>153</ns3:hr>
            <ns3:cad>73</ns3:cad>
          </ns3:TrackPointExtension>
        </extensions>
      </trkpt>
      <trkpt lat="47.48182092793285846710205078125" lon="10.0100965797901153564453125">
        <ele>1474.800048828125</ele>
        <time>2026-09-01T10:07:49.000Z</time>
        <extensions>
          <ns3:TrackPointExtension>
            <ns3:hr>152</ns3:hr>
            <ns3:cad>73</ns3:cad>
          </ns3:TrackPointExtension>
        </extensions>
      </trkpt>
      <trkpt lat="47.4818257056176662445068359375" lon="10.01007621176540851593017578125">
        <ele>1473.5999755859375</ele>
        <time>2026-09-01T10:07:53.000Z</time>
        <extensions>
          <ns3:TrackPointExtension>
            <ns3:hr>151</ns3:hr>
            <ns3:cad>73</ns3:cad>
          </ns3:TrackPointExtension>
        </extensions>
      </trkpt>
      <trkpt lat="47.4818193353712558746337890625" lon="10.010065734386444091796875">
        <ele>1473.4000244140625</ele>
        <time>2026-09-01T10:07:54.000Z</time>
        <extensions>
          <ns3:TrackPointExtension>
            <ns3:hr>151</ns3:hr>
            <ns3:cad>73</ns3:cad>
          </ns3:TrackPointExtension>
        </extensions>
      </trkpt>
      <trkpt lat="47.4818129651248455047607421875" lon="10.0100538320839405059814453125">
        <ele>1472.5999755859375</ele>
        <time>2026-09-01T10:07:57.000Z</time>
        <extensions>
          <ns3:TrackPointExtension>
            <ns3:hr>148</ns3:hr>
            <ns3:cad>0</ns3:cad>
          </ns3:TrackPointExtension>
        </extensions>
      </trkpt>
      <trkpt lat="47.48182629235088825225830078125" lon="10.01005894504487514495849609375">
        <ele>1471.800048828125</ele>
        <time>2026-09-01T10:08:01.000Z</time>
        <extensions>
          <ns3:TrackPointExtension>
            <ns3:hr>145</ns3:hr>
            <ns3:cad>0</ns3:cad>
          </ns3:TrackPointExtension>
        </extensions>
      </trkpt>
      <trkpt lat="47.48182746581733226776123046875" lon="10.01005324535071849822998046875">
        <ele>1471.5999755859375</ele>
        <time>2026-09-01T10:08:02.000Z</time>
        <extensions>
          <ns3:TrackPointExtension>
            <ns3:hr>145</ns3:hr>
            <ns3:cad>0</ns3:cad>
          </ns3:TrackPointExtension>
        </extensions>
      </trkpt>
      <trkpt lat="47.4818246997892856597900390625" lon="10.01004620455205440521240234375">
        <ele>1470.199951171875</ele>
        <time>2026-09-01T10:08:06.000Z</time>
        <extensions>
          <ns3:TrackPointExtension>
            <ns3:hr>145</ns3:hr>
            <ns3:cad>0</ns3:cad>
          </ns3:TrackPointExtension>
        </extensions>
      </trkpt>
      <trkpt lat="47.48182713054120540618896484375" lon="10.01005441881716251373291015625">
        <ele>1469.800048828125</ele>
        <time>2026-09-01T10:08:07.000Z</time>
        <extensions>
          <ns3:TrackPointExtension>
            <ns3:hr>145</ns3:hr>
            <ns3:cad>0</ns3:cad>
          </ns3:TrackPointExtension>
        </extensions>
      </trkpt>
      <trkpt lat="47.48185210861265659332275390625" lon="10.01003581099212169647216796875">
        <ele>1469</ele>
        <time>2026-09-01T10:08:10.000Z</time>
        <extensions>
          <ns3:TrackPointExtension>
            <ns3:hr>146</ns3:hr>
            <ns3:cad>0</ns3:cad>
          </ns3:TrackPointExtension>
        </extensions>
      </trkpt>
      <trkpt lat="47.48185412026941776275634765625" lon="10.0100008584558963775634765625">
        <ele>1468.4000244140625</ele>
        <time>2026-09-01T10:08:12.000Z</time>
        <extensions>
          <ns3:TrackPointExtension>
            <ns3:hr>147</ns3:hr>
            <ns3:cad>0</ns3:cad>
          </ns3:TrackPointExtension>
        </extensions>
      </trkpt>
      <trkpt lat="47.4818521924316883087158203125" lon="10.00999289564788341522216796875">
        <ele>1467.800048828125</ele>
        <time>2026-09-01T10:08:13.000Z</time>
        <extensions>
          <ns3:TrackPointExtension>
            <ns3:hr>146</ns3:hr>
            <ns3:cad>0</ns3:cad>
          </ns3:TrackPointExtension>
        </extensions>
      </trkpt>
      <trkpt lat="47.48184389434754848480224609375" lon="10.00997194088995456695556640625">
        <ele>1466.4000244140625</ele>
        <time>2026-09-01T10:08:15.000Z</time>
        <extensions>
          <ns3:TrackPointExtension>
            <ns3:hr>146</ns3:hr>
            <ns3:cad>0</ns3:cad>
          </ns3:TrackPointExtension>
        </extensions>
      </trkpt>
      <trkpt lat="47.4818377755582332611083984375" lon="10.0099703483283519744873046875">
        <ele>1465.800048828125</ele>
        <time>2026-09-01T10:08:16.000Z</time>
        <extensions>
          <ns3:TrackPointExtension>
            <ns3:hr>145</ns3:hr>
            <ns3:cad>0</ns3:cad>
          </ns3:TrackPointExtension>
        </extensions>
      </trkpt>
      <trkpt lat="47.48183953575789928436279296875" lon="10.00996976159512996673583984375">
        <ele>1465</ele>
        <time>2026-09-01T10:08:17.000Z</time>
        <extensions>
          <ns3:TrackPointExtension>
            <ns3:hr>144</ns3:hr>
            <ns3:cad>0</ns3:cad>
          </ns3:TrackPointExtension>
        </extensions>
      </trkpt>
      <trkpt lat="47.4818354286253452301025390625" lon="10.009974874556064605712890625">
        <ele>1463.800048828125</ele>
        <time>2026-09-01T10:08:20.000Z</time>
        <extensions>
          <ns3:TrackPointExtension>
            <ns3:hr>143</ns3:hr>
            <ns3:cad>53</ns3:cad>
          </ns3:TrackPointExtension>
        </extensions>
      </trkpt>
      <trkpt lat="47.481836266815662384033203125" lon="10.00997663475573062896728515625">
        <ele>1463.5999755859375</ele>
        <time>2026-09-01T10:08:21.000Z</time>
        <extensions>
          <ns3:TrackPointExtension>
            <ns3:hr>142</ns3:hr>
            <ns3:cad>0</ns3:cad>
          </ns3:TrackPointExtension>
        </extensions>
      </trkpt>
      <trkpt lat="47.48184992931783199310302734375" lon="10.00998996198177337646484375">
        <ele>1462.800048828125</ele>
        <time>2026-09-01T10:08:26.000Z</time>
        <extensions>
          <ns3:TrackPointExtension>
            <ns3:hr>142</ns3:hr>
            <ns3:cad>0</ns3:cad>
          </ns3:TrackPointExtension>
        </extensions>
      </trkpt>
      <trkpt lat="47.48185361735522747039794921875" lon="10.0099964998662471771240234375">
        <ele>1462.199951171875</ele>
        <time>2026-09-01T10:08:28.000Z</time>
        <extensions>
          <ns3:TrackPointExtension>
            <ns3:hr>143</ns3:hr>
            <ns3:cad>0</ns3:cad>
          </ns3:TrackPointExtension>
        </extensions>
      </trkpt>
      <trkpt lat="47.4818588979542255401611328125" lon="10.00999742187559604644775390625">
        <ele>1461.800048828125</ele>
        <time>2026-09-01T10:08:29.000Z</time>
        <extensions>
          <ns3:TrackPointExtension>
            <ns3:hr>143</ns3:hr>
            <ns3:cad>0</ns3:cad>
          </ns3:TrackPointExtension>
        </extensions>
      </trkpt>
      <trkpt lat="47.48186116106808185577392578125" lon="10.0099680013954639434814453125">
        <ele>1460.5999755859375</ele>
        <time>2026-09-01T10:08:32.000Z</time>
        <extensions>
          <ns3:TrackPointExtension>
            <ns3:hr>144</ns3:hr>
            <ns3:cad>0</ns3:cad>
          </ns3:TrackPointExtension>
        </extensions>
      </trkpt>
      <trkpt lat="47.48189871199429035186767578125" lon="10.00994662754237651824951171875">
        <ele>1460</ele>
        <time>2026-09-01T10:08:34.000Z</time>
        <extensions>
          <ns3:TrackPointExtension>
            <ns3:hr>145</ns3:hr>
            <ns3:cad>0</ns3:cad>
          </ns3:TrackPointExtension>
        </extensions>
      </trkpt>
      <trkpt lat="47.4819169007241725921630859375" lon="10.0099525786936283111572265625">
        <ele>1459.4000244140625</ele>
        <time>2026-09-01T10:08:35.000Z</time>
        <extensions>
          <ns3:TrackPointExtension>
            <ns3:hr>145</ns3:hr>
            <ns3:cad>0</ns3:cad>
          </ns3:TrackPointExtension>
        </extensions>
      </trkpt>
      <trkpt lat="47.48193408362567424774169921875" lon="10.00994243659079074859619140625">
        <ele>1459</ele>
        <time>2026-09-01T10:08:36.000Z</time>
        <extensions>
          <ns3:TrackPointExtension>
            <ns3:hr>146</ns3:hr>
            <ns3:cad>0</ns3:cad>
          </ns3:TrackPointExtension>
        </extensions>
      </trkpt>
      <trkpt lat="47.481982447206974029541015625" lon="10.00990706495940685272216796875">
        <ele>1458.4000244140625</ele>
        <time>2026-09-01T10:08:39.000Z</time>
        <extensions>
          <ns3:TrackPointExtension>
            <ns3:hr>146</ns3:hr>
            <ns3:cad>0</ns3:cad>
          </ns3:TrackPointExtension>
        </extensions>
      </trkpt>
      <trkpt lat="47.48203550465404987335205078125" lon="10.009771697223186492919921875">
        <ele>1458.4000244140625</ele>
        <time>2026-09-01T10:08:44.000Z</time>
        <extensions>
          <ns3:TrackPointExtension>
            <ns3:hr>145</ns3:hr>
            <ns3:cad>81</ns3:cad>
          </ns3:TrackPointExtension>
        </extensions>
      </trkpt>
      <trkpt lat="47.4820386059582233428955078125" lon="10.00975300557911396026611328125">
        <ele>1458.800048828125</ele>
        <time>2026-09-01T10:08:48.000Z</time>
        <extensions>
          <ns3:TrackPointExtension>
            <ns3:hr>145</ns3:hr>
            <ns3:cad>81</ns3:cad>
          </ns3:TrackPointExtension>
        </extensions>
      </trkpt>
      <trkpt lat="47.4820451438426971435546875" lon="10.0097329728305339813232421875">
        <ele>1457.800048828125</ele>
        <time>2026-09-01T10:08:53.000Z</time>
        <extensions>
          <ns3:TrackPointExtension>
            <ns3:hr>146</ns3:hr>
            <ns3:cad>75</ns3:cad>
          </ns3:TrackPointExtension>
        </extensions>
      </trkpt>
      <trkpt lat="47.48204589821398258209228515625" lon="10.00973054207861423492431640625">
        <ele>1457</ele>
        <time>2026-09-01T10:08:55.000Z</time>
        <extensions>
          <ns3:TrackPointExtension>
            <ns3:hr>144</ns3:hr>
            <ns3:cad>75</ns3:cad>
          </ns3:TrackPointExtension>
        </extensions>
      </trkpt>
      <trkpt lat="47.48204975388944149017333984375" lon="10.0097383372485637664794921875">
        <ele>1456</ele>
        <time>2026-09-01T10:08:58.000Z</time>
        <extensions>
          <ns3:TrackPointExtension>
            <ns3:hr>143</ns3:hr>
            <ns3:cad>75</ns3:cad>
          </ns3:TrackPointExtension>
        </extensions>
      </trkpt>
      <trkpt lat="47.4820526875555515289306640625" lon="10.00973976217210292816162109375">
        <ele>1455.800048828125</ele>
        <time>2026-09-01T10:08:59.000Z</time>
        <extensions>
          <ns3:TrackPointExtension>
            <ns3:hr>142</ns3:hr>
            <ns3:cad>75</ns3:cad>
          </ns3:TrackPointExtension>
        </extensions>
      </trkpt>
      <trkpt lat="47.4820600636303424835205078125" lon="10.0097130239009857177734375">
        <ele>1455.199951171875</ele>
        <time>2026-09-01T10:09:03.000Z</time>
        <extensions>
          <ns3:TrackPointExtension>
            <ns3:hr>144</ns3:hr>
            <ns3:cad>75</ns3:cad>
          </ns3:TrackPointExtension>
        </extensions>
      </trkpt>
      <trkpt lat="47.48205947689712047576904296875" lon="10.00971729867160320281982421875">
        <ele>1454.800048828125</ele>
        <time>2026-09-01T10:09:04.000Z</time>
        <extensions>
          <ns3:TrackPointExtension>
            <ns3:hr>143</ns3:hr>
            <ns3:cad>55</ns3:cad>
          </ns3:TrackPointExtension>
        </extensions>
      </trkpt>
      <trkpt lat="47.4820704571902751922607421875" lon="10.00970070250332355499267578125">
        <ele>1454.199951171875</ele>
        <time>2026-09-01T10:09:07.000Z</time>
        <extensions>
          <ns3:TrackPointExtension>
            <ns3:hr>139</ns3:hr>
            <ns3:cad>0</ns3:cad>
          </ns3:TrackPointExtension>
        </extensions>
      </trkpt>
      <trkpt lat="47.4820707924664020538330078125" lon="10.009682513773441314697265625">
        <ele>1453.800048828125</ele>
        <time>2026-09-01T10:09:08.000Z</time>
        <extensions>
          <ns3:TrackPointExtension>
            <ns3:hr>139</ns3:hr>
            <ns3:cad>0</ns3:cad>
          </ns3:TrackPointExtension>
        </extensions>
      </trkpt>
      <trkpt lat="47.48207137919962406158447265625" lon="10.00963113270699977874755859375">
        <ele>1452.4000244140625</ele>
        <time>2026-09-01T10:09:10.000Z</time>
        <extensions>
          <ns3:TrackPointExtension>
            <ns3:hr>140</ns3:hr>
            <ns3:cad>0</ns3:cad>
          </ns3:TrackPointExtension>
        </extensions>
      </trkpt>
      <trkpt lat="47.4820639193058013916015625" lon="10.00957933254539966583251953125">
        <ele>1451.5999755859375</ele>
        <time>2026-09-01T10:09:12.000Z</time>
        <extensions>
          <ns3:TrackPointExtension>
            <ns3:hr>142</ns3:hr>
            <ns3:cad>0</ns3:cad>
          </ns3:TrackPointExtension>
        </extensions>
      </trkpt>
      <trkpt lat="47.48205847106873989105224609375" lon="10.00942175276577472686767578125">
        <ele>1452.199951171875</ele>
        <time>2026-09-01T10:09:17.000Z</time>
        <extensions>
          <ns3:TrackPointExtension>
            <ns3:hr>143</ns3:hr>
            <ns3:cad>84</ns3:cad>
          </ns3:TrackPointExtension>
        </extensions>
      </trkpt>
      <trkpt lat="47.482085041701793670654296875" lon="10.00939610414206981658935546875">
        <ele>1452.5999755859375</ele>
        <time>2026-09-01T10:09:20.000Z</time>
        <extensions>
          <ns3:TrackPointExtension>
            <ns3:hr>143</ns3:hr>
            <ns3:cad>84</ns3:cad>
          </ns3:TrackPointExtension>
        </extensions>
      </trkpt>
      <trkpt lat="47.482103146612644195556640625" lon="10.00938151963055133819580078125">
        <ele>1452.5999755859375</ele>
        <time>2026-09-01T10:09:21.000Z</time>
        <extensions>
          <ns3:TrackPointExtension>
            <ns3:hr>143</ns3:hr>
            <ns3:cad>84</ns3:cad>
          </ns3:TrackPointExtension>
        </extensions>
      </trkpt>
      <trkpt lat="47.48214195482432842254638671875" lon="10.009348578751087188720703125">
        <ele>1451.199951171875</ele>
        <time>2026-09-01T10:09:25.000Z</time>
        <extensions>
          <ns3:TrackPointExtension>
            <ns3:hr>144</ns3:hr>
            <ns3:cad>84</ns3:cad>
          </ns3:TrackPointExtension>
        </extensions>
      </trkpt>
      <trkpt lat="47.48215637169778347015380859375" lon="10.0093440525233745574951171875">
        <ele>1450.800048828125</ele>
        <time>2026-09-01T10:09:26.000Z</time>
        <extensions>
          <ns3:TrackPointExtension>
            <ns3:hr>144</ns3:hr>
            <ns3:cad>0</ns3:cad>
          </ns3:TrackPointExtension>
        </extensions>
      </trkpt>
      <trkpt lat="47.482195682823657989501953125" lon="10.00930842943489551544189453125">
        <ele>1450</ele>
        <time>2026-09-01T10:09:29.000Z</time>
        <extensions>
          <ns3:TrackPointExtension>
            <ns3:hr>144</ns3:hr>
            <ns3:cad>0</ns3:cad>
          </ns3:TrackPointExtension>
        </extensions>
      </trkpt>
      <trkpt lat="47.4822069145739078521728515625" lon="10.00922913663089275360107421875">
        <ele>1451.199951171875</ele>
        <time>2026-09-01T10:09:35.000Z</time>
        <extensions>
          <ns3:TrackPointExtension>
            <ns3:hr>146</ns3:hr>
            <ns3:cad>0</ns3:cad>
          </ns3:TrackPointExtension>
        </extensions>
      </trkpt>
      <trkpt lat="47.48221806250512599945068359375" lon="10.00916920602321624755859375">
        <ele>1452.4000244140625</ele>
        <time>2026-09-01T10:09:40.000Z</time>
        <extensions>
          <ns3:TrackPointExtension>
            <ns3:hr>147</ns3:hr>
            <ns3:cad>0</ns3:cad>
          </ns3:TrackPointExtension>
        </extensions>
      </trkpt>
      <trkpt lat="47.48221940360963344573974609375" lon="10.00915981829166412353515625">
        <ele>1452.4000244140625</ele>
        <time>2026-09-01T10:09:41.000Z</time>
        <extensions>
          <ns3:TrackPointExtension>
            <ns3:hr>147</ns3:hr>
            <ns3:cad>0</ns3:cad>
          </ns3:TrackPointExtension>
        </extensions>
      </trkpt>
      <trkpt lat="47.4822273664176464080810546875" lon="10.0090771727263927459716796875">
        <ele>1453.199951171875</ele>
        <time>2026-09-01T10:09:45.000Z</time>
        <extensions>
          <ns3:TrackPointExtension>
            <ns3:hr>149</ns3:hr>
            <ns3:cad>0</ns3:cad>
          </ns3:TrackPointExtension>
        </extensions>
      </trkpt>
      <trkpt lat="47.4822350777685642242431640625" lon="10.0090610794723033905029296875">
        <ele>1453.4000244140625</ele>
        <time>2026-09-01T10:09:46.000Z</time>
        <extensions>
          <ns3:TrackPointExtension>
            <ns3:hr>149</ns3:hr>
            <ns3:cad>0</ns3:cad>
          </ns3:TrackPointExtension>
        </extensions>
      </trkpt>
      <trkpt lat="47.4822538532316684722900390625" lon="10.0090236961841583251953125">
        <ele>1454.800048828125</ele>
        <time>2026-09-01T10:09:49.000Z</time>
        <extensions>
          <ns3:TrackPointExtension>
            <ns3:hr>150</ns3:hr>
            <ns3:cad>0</ns3:cad>
          </ns3:TrackPointExtension>
        </extensions>
      </trkpt>
      <trkpt lat="47.482256032526493072509765625" lon="10.0090014003217220306396484375">
        <ele>1455</ele>
        <time>2026-09-01T10:09:50.000Z</time>
        <extensions>
          <ns3:TrackPointExtension>
            <ns3:hr>151</ns3:hr>
            <ns3:cad>0</ns3:cad>
          </ns3:TrackPointExtension>
        </extensions>
      </trkpt>
      <trkpt lat="47.48225192539393901824951171875" lon="10.00894985161721706390380859375">
        <ele>1455.5999755859375</ele>
        <time>2026-09-01T10:09:52.000Z</time>
        <extensions>
          <ns3:TrackPointExtension>
            <ns3:hr>152</ns3:hr>
            <ns3:cad>0</ns3:cad>
          </ns3:TrackPointExtension>
        </extensions>
      </trkpt>
      <trkpt lat="47.482245974242687225341796875" lon="10.0089319981634616851806640625">
        <ele>1455.800048828125</ele>
        <time>2026-09-01T10:09:53.000Z</time>
        <extensions>
          <ns3:TrackPointExtension>
            <ns3:hr>152</ns3:hr>
            <ns3:cad>0</ns3:cad>
          </ns3:TrackPointExtension>
        </extensions>
      </trkpt>
      <trkpt lat="47.48224572278559207916259765625" lon="10.0089190900325775146484375">
        <ele>1456</ele>
        <time>2026-09-01T10:09:54.000Z</time>
        <extensions>
          <ns3:TrackPointExtension>
            <ns3:hr>152</ns3:hr>
            <ns3:cad>0</ns3:cad>
          </ns3:TrackPointExtension>
        </extensions>
      </trkpt>
      <trkpt lat="47.4822575412690639495849609375" lon="10.0088384561240673065185546875">
        <ele>1456.800048828125</ele>
        <time>2026-09-01T10:09:58.000Z</time>
        <extensions>
          <ns3:TrackPointExtension>
            <ns3:hr>153</ns3:hr>
            <ns3:cad>0</ns3:cad>
          </ns3:TrackPointExtension>
        </extensions>
      </trkpt>
      <trkpt lat="47.48226852156221866607666015625" lon="10.00871784053742885589599609375">
        <ele>1457.800048828125</ele>
        <time>2026-09-01T10:10:06.000Z</time>
        <extensions>
          <ns3:TrackPointExtension>
            <ns3:hr>155</ns3:hr>
            <ns3:cad>56</ns3:cad>
          </ns3:TrackPointExtension>
        </extensions>
      </trkpt>
      <trkpt lat="47.482270114123821258544921875" lon="10.00870786607265472412109375">
        <ele>1457.800048828125</ele>
        <time>2026-09-01T10:10:07.000Z</time>
        <extensions>
          <ns3:TrackPointExtension>
            <ns3:hr>154</ns3:hr>
            <ns3:cad>56</ns3:cad>
          </ns3:TrackPointExtension>
        </extensions>
      </trkpt>
      <trkpt lat="47.48227556236088275909423828125" lon="10.00866830348968505859375">
        <ele>1459.199951171875</ele>
        <time>2026-09-01T10:10:11.000Z</time>
        <extensions>
          <ns3:TrackPointExtension>
            <ns3:hr>154</ns3:hr>
            <ns3:cad>60</ns3:cad>
          </ns3:TrackPointExtension>
        </extensions>
      </trkpt>
      <trkpt lat="47.48227153904736042022705078125" lon="10.008649192750453948974609375">
        <ele>1460.199951171875</ele>
        <time>2026-09-01T10:10:14.000Z</time>
        <extensions>
          <ns3:TrackPointExtension>
            <ns3:hr>156</ns3:hr>
            <ns3:cad>55</ns3:cad>
          </ns3:TrackPointExtension>
        </extensions>
      </trkpt>
      <trkpt lat="47.48227254487574100494384765625" lon="10.00862739980220794677734375">
        <ele>1460.4000244140625</ele>
        <time>2026-09-01T10:10:15.000Z</time>
        <extensions>
          <ns3:TrackPointExtension>
            <ns3:hr>156</ns3:hr>
            <ns3:cad>53</ns3:cad>
          </ns3:TrackPointExtension>
        </extensions>
      </trkpt>
      <trkpt lat="47.48226634226739406585693359375" lon="10.008569061756134033203125">
        <ele>1461.5999755859375</ele>
        <time>2026-09-01T10:10:19.000Z</time>
        <extensions>
          <ns3:TrackPointExtension>
            <ns3:hr>155</ns3:hr>
            <ns3:cad>45</ns3:cad>
          </ns3:TrackPointExtension>
        </extensions>
      </trkpt>
      <trkpt lat="47.48226600699126720428466796875" lon="10.00855791382491588592529296875">
        <ele>1461.800048828125</ele>
        <time>2026-09-01T10:10:20.000Z</time>
        <extensions>
          <ns3:TrackPointExtension>
            <ns3:hr>157</ns3:hr>
            <ns3:cad>45</ns3:cad>
          </ns3:TrackPointExtension>
        </extensions>
      </trkpt>
      <trkpt lat="47.48225796036422252655029296875" lon="10.0085435807704925537109375">
        <ele>1462</ele>
        <time>2026-09-01T10:10:21.000Z</time>
        <extensions>
          <ns3:TrackPointExtension>
            <ns3:hr>157</ns3:hr>
            <ns3:cad>45</ns3:cad>
          </ns3:TrackPointExtension>
        </extensions>
      </trkpt>
      <trkpt lat="47.4822618998587131500244140625" lon="10.008525140583515167236328125">
        <ele>1462.199951171875</ele>
        <time>2026-09-01T10:10:23.000Z</time>
        <extensions>
          <ns3:TrackPointExtension>
            <ns3:hr>158</ns3:hr>
            <ns3:cad>45</ns3:cad>
          </ns3:TrackPointExtension>
        </extensions>
      </trkpt>
      <trkpt lat="47.48226366005837917327880859375" lon="10.00850393436849117279052734375">
        <ele>1462.800048828125</ele>
        <time>2026-09-01T10:10:25.000Z</time>
        <extensions>
          <ns3:TrackPointExtension>
            <ns3:hr>157</ns3:hr>
            <ns3:cad>0</ns3:cad>
          </ns3:TrackPointExtension>
        </extensions>
      </trkpt>
      <trkpt lat="47.48226433061063289642333984375" lon="10.0084897689521312713623046875">
        <ele>1463</ele>
        <time>2026-09-01T10:10:26.000Z</time>
        <extensions>
          <ns3:TrackPointExtension>
            <ns3:hr>157</ns3:hr>
            <ns3:cad>0</ns3:cad>
          </ns3:TrackPointExtension>
        </extensions>
      </trkpt>
      <trkpt lat="47.4822625704109668731689453125" lon="10.0084595941007137298583984375">
        <ele>1464</ele>
        <time>2026-09-01T10:10:29.000Z</time>
        <extensions>
          <ns3:TrackPointExtension>
            <ns3:hr>156</ns3:hr>
            <ns3:cad>0</ns3:cad>
          </ns3:TrackPointExtension>
        </extensions>
      </trkpt>
      <trkpt lat="47.4822756461799144744873046875" lon="10.0084163434803485870361328125">
        <ele>1464.5999755859375</ele>
        <time>2026-09-01T10:10:31.000Z</time>
        <extensions>
          <ns3:TrackPointExtension>
            <ns3:hr>156</ns3:hr>
            <ns3:cad>0</ns3:cad>
          </ns3:TrackPointExtension>
        </extensions>
      </trkpt>
      <trkpt lat="47.482283525168895721435546875" lon="10.00837049447000026702880859375">
        <ele>1465.199951171875</ele>
        <time>2026-09-01T10:10:34.000Z</time>
        <extensions>
          <ns3:TrackPointExtension>
            <ns3:hr>156</ns3:hr>
            <ns3:cad>0</ns3:cad>
          </ns3:TrackPointExtension>
        </extensions>
      </trkpt>
      <trkpt lat="47.482273466885089874267578125" lon="10.008337385952472686767578125">
        <ele>1465.5999755859375</ele>
        <time>2026-09-01T10:10:36.000Z</time>
        <extensions>
          <ns3:TrackPointExtension>
            <ns3:hr>157</ns3:hr>
            <ns3:cad>0</ns3:cad>
          </ns3:TrackPointExtension>
        </extensions>
      </trkpt>
      <trkpt lat="47.48226106166839599609375" lon="10.00831768848001956939697265625">
        <ele>1466.5999755859375</ele>
        <time>2026-09-01T10:10:39.000Z</time>
        <extensions>
          <ns3:TrackPointExtension>
            <ns3:hr>156</ns3:hr>
            <ns3:cad>0</ns3:cad>
          </ns3:TrackPointExtension>
        </extensions>
      </trkpt>
      <trkpt lat="47.4822588823735713958740234375" lon="10.008305199444293975830078125">
        <ele>1467</ele>
        <time>2026-09-01T10:10:40.000Z</time>
        <extensions>
          <ns3:TrackPointExtension>
            <ns3:hr>156</ns3:hr>
            <ns3:cad>0</ns3:cad>
          </ns3:TrackPointExtension>
        </extensions>
      </trkpt>
      <trkpt lat="47.4822622351348400115966796875" lon="10.0082909502089023590087890625">
        <ele>1467.5999755859375</ele>
        <time>2026-09-01T10:10:42.000Z</time>
        <extensions>
          <ns3:TrackPointExtension>
            <ns3:hr>156</ns3:hr>
            <ns3:cad>0</ns3:cad>
          </ns3:TrackPointExtension>
        </extensions>
      </trkpt>
      <trkpt lat="47.48227187432348728179931640625" lon="10.00826169736683368682861328125">
        <ele>1468.800048828125</ele>
        <time>2026-09-01T10:10:46.000Z</time>
        <extensions>
          <ns3:TrackPointExtension>
            <ns3:hr>155</ns3:hr>
            <ns3:cad>0</ns3:cad>
          </ns3:TrackPointExtension>
        </extensions>
      </trkpt>
      <trkpt lat="47.48227782547473907470703125" lon="10.00823923386633396148681640625">
        <ele>1470.199951171875</ele>
        <time>2026-09-01T10:10:50.000Z</time>
        <extensions>
          <ns3:TrackPointExtension>
            <ns3:hr>155</ns3:hr>
            <ns3:cad>0</ns3:cad>
          </ns3:TrackPointExtension>
        </extensions>
      </trkpt>
      <trkpt lat="47.4822758138179779052734375" lon="10.008232779800891876220703125">
        <ele>1470.4000244140625</ele>
        <time>2026-09-01T10:10:51.000Z</time>
        <extensions>
          <ns3:TrackPointExtension>
            <ns3:hr>155</ns3:hr>
            <ns3:cad>0</ns3:cad>
          </ns3:TrackPointExtension>
        </extensions>
      </trkpt>
      <trkpt lat="47.482266090810298919677734375" lon="10.0081960670650005340576171875">
        <ele>1471.199951171875</ele>
        <time>2026-09-01T10:10:54.000Z</time>
        <extensions>
          <ns3:TrackPointExtension>
            <ns3:hr>155</ns3:hr>
            <ns3:cad>0</ns3:cad>
          </ns3:TrackPointExtension>
        </extensions>
      </trkpt>
      <trkpt lat="47.48227254487574100494384765625" lon="10.00817687250673770904541015625">
        <ele>1471.5999755859375</ele>
        <time>2026-09-01T10:10:56.000Z</time>
        <extensions>
          <ns3:TrackPointExtension>
            <ns3:hr>156</ns3:hr>
            <ns3:cad>0</ns3:cad>
          </ns3:TrackPointExtension>
        </extensions>
      </trkpt>
      <trkpt lat="47.48227606527507305145263671875" lon="10.00815122388303279876708984375">
        <ele>1472.199951171875</ele>
        <time>2026-09-01T10:10:58.000Z</time>
        <extensions>
          <ns3:TrackPointExtension>
            <ns3:hr>157</ns3:hr>
            <ns3:cad>0</ns3:cad>
          </ns3:TrackPointExtension>
        </extensions>
      </trkpt>
      <trkpt lat="47.48227288015186786651611328125" lon="10.00813580118119716644287109375">
        <ele>1472.800048828125</ele>
        <time>2026-09-01T10:11:00.000Z</time>
        <extensions>
          <ns3:TrackPointExtension>
            <ns3:hr>157</ns3:hr>
            <ns3:cad>0</ns3:cad>
          </ns3:TrackPointExtension>
        </extensions>
      </trkpt>
      <trkpt lat="47.48226952739059925079345703125" lon="10.008102357387542724609375">
        <ele>1473.5999755859375</ele>
        <time>2026-09-01T10:11:03.000Z</time>
        <extensions>
          <ns3:TrackPointExtension>
            <ns3:hr>159</ns3:hr>
            <ns3:cad>0</ns3:cad>
          </ns3:TrackPointExtension>
        </extensions>
      </trkpt>
      <trkpt lat="47.4822675995528697967529296875" lon="10.00808467157185077667236328125">
        <ele>1474</ele>
        <time>2026-09-01T10:11:05.000Z</time>
        <extensions>
          <ns3:TrackPointExtension>
            <ns3:hr>159</ns3:hr>
            <ns3:cad>0</ns3:cad>
          </ns3:TrackPointExtension>
        </extensions>
      </trkpt>
      <trkpt lat="47.4822743050754070281982421875" lon="10.00806790776550769805908203125">
        <ele>1474.5999755859375</ele>
        <time>2026-09-01T10:11:07.000Z</time>
        <extensions>
          <ns3:TrackPointExtension>
            <ns3:hr>158</ns3:hr>
            <ns3:cad>0</ns3:cad>
          </ns3:TrackPointExtension>
        </extensions>
      </trkpt>
      <trkpt lat="47.48227053321897983551025390625" lon="10.0080542452633380889892578125">
        <ele>1475</ele>
        <time>2026-09-01T10:11:09.000Z</time>
        <extensions>
          <ns3:TrackPointExtension>
            <ns3:hr>158</ns3:hr>
            <ns3:cad>0</ns3:cad>
          </ns3:TrackPointExtension>
        </extensions>
      </trkpt>
      <trkpt lat="47.482262738049030303955078125" lon="10.007978975772857666015625">
        <ele>1475.800048828125</ele>
        <time>2026-09-01T10:11:13.000Z</time>
        <extensions>
          <ns3:TrackPointExtension>
            <ns3:hr>158</ns3:hr>
            <ns3:cad>0</ns3:cad>
          </ns3:TrackPointExtension>
        </extensions>
      </trkpt>
      <trkpt lat="47.48225896619260311126708984375" lon="10.00796413980424404144287109375">
        <ele>1475.800048828125</ele>
        <time>2026-09-01T10:11:14.000Z</time>
        <extensions>
          <ns3:TrackPointExtension>
            <ns3:hr>158</ns3:hr>
            <ns3:cad>0</ns3:cad>
          </ns3:TrackPointExtension>
        </extensions>
      </trkpt>
      <trkpt lat="47.482249327003955841064453125" lon="10.00788308680057525634765625">
        <ele>1476.800048828125</ele>
        <time>2026-09-01T10:11:19.000Z</time>
        <extensions>
          <ns3:TrackPointExtension>
            <ns3:hr>159</ns3:hr>
            <ns3:cad>0</ns3:cad>
          </ns3:TrackPointExtension>
        </extensions>
      </trkpt>
      <trkpt lat="47.482243962585926055908203125" lon="10.00782785005867481231689453125">
        <ele>1478</ele>
        <time>2026-09-01T10:11:23.000Z</time>
        <extensions>
          <ns3:TrackPointExtension>
            <ns3:hr>158</ns3:hr>
            <ns3:cad>0</ns3:cad>
          </ns3:TrackPointExtension>
        </extensions>
      </trkpt>
      <trkpt lat="47.482243962585926055908203125" lon="10.00781846232712268829345703125">
        <ele>1478.199951171875</ele>
        <time>2026-09-01T10:11:24.000Z</time>
        <extensions>
          <ns3:TrackPointExtension>
            <ns3:hr>157</ns3:hr>
            <ns3:cad>0</ns3:cad>
          </ns3:TrackPointExtension>
        </extensions>
      </trkpt>
      <trkpt lat="47.48223893344402313232421875" lon="10.0077903829514980316162109375">
        <ele>1479.199951171875</ele>
        <time>2026-09-01T10:11:27.000Z</time>
        <extensions>
          <ns3:TrackPointExtension>
            <ns3:hr>158</ns3:hr>
            <ns3:cad>0</ns3:cad>
          </ns3:TrackPointExtension>
        </extensions>
      </trkpt>
      <trkpt lat="47.48224069364368915557861328125" lon="10.00777789391577243804931640625">
        <ele>1480</ele>
        <time>2026-09-01T10:11:30.000Z</time>
        <extensions>
          <ns3:TrackPointExtension>
            <ns3:hr>158</ns3:hr>
            <ns3:cad>0</ns3:cad>
          </ns3:TrackPointExtension>
        </extensions>
      </trkpt>
      <trkpt lat="47.4822409451007843017578125" lon="10.00777705572545528411865234375">
        <ele>1480.199951171875</ele>
        <time>2026-09-01T10:11:31.000Z</time>
        <extensions>
          <ns3:TrackPointExtension>
            <ns3:hr>158</ns3:hr>
            <ns3:cad>0</ns3:cad>
          </ns3:TrackPointExtension>
        </extensions>
      </trkpt>
      <trkpt lat="47.4822451360523700714111328125" lon="10.00775123946368694305419921875">
        <ele>1481.199951171875</ele>
        <time>2026-09-01T10:11:35.000Z</time>
        <extensions>
          <ns3:TrackPointExtension>
            <ns3:hr>157</ns3:hr>
            <ns3:cad>0</ns3:cad>
          </ns3:TrackPointExtension>
        </extensions>
      </trkpt>
      <trkpt lat="47.4822434596717357635498046875" lon="10.00772492028772830963134765625">
        <ele>1481.800048828125</ele>
        <time>2026-09-01T10:11:37.000Z</time>
        <extensions>
          <ns3:TrackPointExtension>
            <ns3:hr>156</ns3:hr>
            <ns3:cad>0</ns3:cad>
          </ns3:TrackPointExtension>
        </extensions>
      </trkpt>
      <trkpt lat="47.48224237002432346343994140625" lon="10.00771251507103443145751953125">
        <ele>1482.4000244140625</ele>
        <time>2026-09-01T10:11:39.000Z</time>
        <extensions>
          <ns3:TrackPointExtension>
            <ns3:hr>156</ns3:hr>
            <ns3:cad>0</ns3:cad>
          </ns3:TrackPointExtension>
        </extensions>
      </trkpt>
      <trkpt lat="47.482241280376911163330078125" lon="10.00766876153647899627685546875">
        <ele>1482.800048828125</ele>
        <time>2026-09-01T10:11:41.000Z</time>
        <extensions>
          <ns3:TrackPointExtension>
            <ns3:hr>155</ns3:hr>
            <ns3:cad>0</ns3:cad>
          </ns3:TrackPointExtension>
        </extensions>
      </trkpt>
      <trkpt lat="47.48223667033016681671142578125" lon="10.00762802548706531524658203125">
        <ele>1483.5999755859375</ele>
        <time>2026-09-01T10:11:44.000Z</time>
        <extensions>
          <ns3:TrackPointExtension>
            <ns3:hr>156</ns3:hr>
            <ns3:cad>0</ns3:cad>
          </ns3:TrackPointExtension>
        </extensions>
      </trkpt>
      <trkpt lat="47.48222979716956615447998046875" lon="10.00757622532546520233154296875">
        <ele>1484.199951171875</ele>
        <time>2026-09-01T10:11:46.000Z</time>
        <extensions>
          <ns3:TrackPointExtension>
            <ns3:hr>157</ns3:hr>
            <ns3:cad>0</ns3:cad>
          </ns3:TrackPointExtension>
        </extensions>
      </trkpt>
      <trkpt lat="47.482207752764225006103515625" lon="10.00747363083064556121826171875">
        <ele>1483.800048828125</ele>
        <time>2026-09-01T10:11:50.000Z</time>
        <extensions>
          <ns3:TrackPointExtension>
            <ns3:hr>158</ns3:hr>
            <ns3:cad>66</ns3:cad>
          </ns3:TrackPointExtension>
        </extensions>
      </trkpt>
      <trkpt lat="47.482213787734508514404296875" lon="10.00737891532480716705322265625">
        <ele>1484.800048828125</ele>
        <time>2026-09-01T10:11:56.000Z</time>
        <extensions>
          <ns3:TrackPointExtension>
            <ns3:hr>157</ns3:hr>
            <ns3:cad>0</ns3:cad>
          </ns3:TrackPointExtension>
        </extensions>
      </trkpt>
      <trkpt lat="47.48221370391547679901123046875" lon="10.0073675997555255889892578125">
        <ele>1485.199951171875</ele>
        <time>2026-09-01T10:11:57.000Z</time>
        <extensions>
          <ns3:TrackPointExtension>
            <ns3:hr>156</ns3:hr>
            <ns3:cad>0</ns3:cad>
          </ns3:TrackPointExtension>
        </extensions>
      </trkpt>
      <trkpt lat="47.48222208581864833831787109375" lon="10.0073334015905857086181640625">
        <ele>1485.800048828125</ele>
        <time>2026-09-01T10:12:00.000Z</time>
        <extensions>
          <ns3:TrackPointExtension>
            <ns3:hr>156</ns3:hr>
            <ns3:cad>0</ns3:cad>
          </ns3:TrackPointExtension>
        </extensions>
      </trkpt>
      <trkpt lat="47.48223088681697845458984375" lon="10.00729543156921863555908203125">
        <ele>1486.800048828125</ele>
        <time>2026-09-01T10:12:03.000Z</time>
        <extensions>
          <ns3:TrackPointExtension>
            <ns3:hr>157</ns3:hr>
            <ns3:cad>0</ns3:cad>
          </ns3:TrackPointExtension>
        </extensions>
      </trkpt>
      <trkpt lat="47.4822283722460269927978515625" lon="10.0072867982089519500732421875">
        <ele>1487</ele>
        <time>2026-09-01T10:12:04.000Z</time>
        <extensions>
          <ns3:TrackPointExtension>
            <ns3:hr>156</ns3:hr>
            <ns3:cad>0</ns3:cad>
          </ns3:TrackPointExtension>
        </extensions>
      </trkpt>
      <trkpt lat="47.482227198779582977294921875" lon="10.007237680256366729736328125">
        <ele>1487.5999755859375</ele>
        <time>2026-09-01T10:12:08.000Z</time>
        <extensions>
          <ns3:TrackPointExtension>
            <ns3:hr>156</ns3:hr>
            <ns3:cad>0</ns3:cad>
          </ns3:TrackPointExtension>
        </extensions>
      </trkpt>
      <trkpt lat="47.48222661204636096954345703125" lon="10.0072224251925945281982421875">
        <ele>1488</ele>
        <time>2026-09-01T10:12:10.000Z</time>
        <extensions>
          <ns3:TrackPointExtension>
            <ns3:hr>156</ns3:hr>
            <ns3:cad>0</ns3:cad>
          </ns3:TrackPointExtension>
        </extensions>
      </trkpt>
      <trkpt lat="47.48222149908542633056640625" lon="10.007187388837337493896484375">
        <ele>1488.800048828125</ele>
        <time>2026-09-01T10:12:13.000Z</time>
        <extensions>
          <ns3:TrackPointExtension>
            <ns3:hr>156</ns3:hr>
            <ns3:cad>49</ns3:cad>
          </ns3:TrackPointExtension>
        </extensions>
      </trkpt>
      <trkpt lat="47.482220493257045745849609375" lon="10.0071768276393413543701171875">
        <ele>1489</ele>
        <time>2026-09-01T10:12:14.000Z</time>
        <extensions>
          <ns3:TrackPointExtension>
            <ns3:hr>156</ns3:hr>
            <ns3:cad>0</ns3:cad>
          </ns3:TrackPointExtension>
        </extensions>
      </trkpt>
      <trkpt lat="47.4822196550667285919189453125" lon="10.0071520172059535980224609375">
        <ele>1489.800048828125</ele>
        <time>2026-09-01T10:12:17.000Z</time>
        <extensions>
          <ns3:TrackPointExtension>
            <ns3:hr>156</ns3:hr>
            <ns3:cad>0</ns3:cad>
          </ns3:TrackPointExtension>
        </extensions>
      </trkpt>
      <trkpt lat="47.4822221696376800537109375" lon="10.00713407993316650390625">
        <ele>1490.199951171875</ele>
        <time>2026-09-01T10:12:19.000Z</time>
        <extensions>
          <ns3:TrackPointExtension>
            <ns3:hr>156</ns3:hr>
            <ns3:cad>0</ns3:cad>
          </ns3:TrackPointExtension>
        </extensions>
      </trkpt>
      <trkpt lat="47.48221873305737972259521484375" lon="10.0071005523204803466796875">
        <ele>1491.4000244140625</ele>
        <time>2026-09-01T10:12:22.000Z</time>
        <extensions>
          <ns3:TrackPointExtension>
            <ns3:hr>156</ns3:hr>
            <ns3:cad>0</ns3:cad>
          </ns3:TrackPointExtension>
        </extensions>
      </trkpt>
      <trkpt lat="47.4822095967829227447509765625" lon="10.0070450641214847564697265625">
        <ele>1492.5999755859375</ele>
        <time>2026-09-01T10:12:26.000Z</time>
        <extensions>
          <ns3:TrackPointExtension>
            <ns3:hr>156</ns3:hr>
            <ns3:cad>0</ns3:cad>
          </ns3:TrackPointExtension>
        </extensions>
      </trkpt>
      <trkpt lat="47.48220465146005153656005859375" lon="10.00702679157257080078125">
        <ele>1492.5999755859375</ele>
        <time>2026-09-01T10:12:27.000Z</time>
        <extensions>
          <ns3:TrackPointExtension>
            <ns3:hr>156</ns3:hr>
            <ns3:cad>0</ns3:cad>
          </ns3:TrackPointExtension>
        </extensions>
      </trkpt>
      <trkpt lat="47.4821844510734081268310546875" lon="10.00692612491548061370849609375">
        <ele>1493</ele>
        <time>2026-09-01T10:12:31.000Z</time>
        <extensions>
          <ns3:TrackPointExtension>
            <ns3:hr>157</ns3:hr>
            <ns3:cad>0</ns3:cad>
          </ns3:TrackPointExtension>
        </extensions>
      </trkpt>
      <trkpt lat="47.48217456042766571044921875" lon="10.00685085542500019073486328125">
        <ele>1493.5999755859375</ele>
        <time>2026-09-01T10:12:35.000Z</time>
        <extensions>
          <ns3:TrackPointExtension>
            <ns3:hr>158</ns3:hr>
            <ns3:cad>0</ns3:cad>
          </ns3:TrackPointExtension>
        </extensions>
      </trkpt>
      <trkpt lat="47.48217590153217315673828125" lon="10.006842054426670074462890625">
        <ele>1494</ele>
        <time>2026-09-01T10:12:37.000Z</time>
        <extensions>
          <ns3:TrackPointExtension>
            <ns3:hr>158</ns3:hr>
            <ns3:cad>0</ns3:cad>
          </ns3:TrackPointExtension>
        </extensions>
      </trkpt>
      <trkpt lat="47.48218185268342494964599609375" lon="10.006832666695117950439453125">
        <ele>1494</ele>
        <time>2026-09-01T10:12:38.000Z</time>
        <extensions>
          <ns3:TrackPointExtension>
            <ns3:hr>158</ns3:hr>
            <ns3:cad>0</ns3:cad>
          </ns3:TrackPointExtension>
        </extensions>
      </trkpt>
      <trkpt lat="47.48219333589076995849609375" lon="10.00679142773151397705078125">
        <ele>1494.5999755859375</ele>
        <time>2026-09-01T10:12:41.000Z</time>
        <extensions>
          <ns3:TrackPointExtension>
            <ns3:hr>158</ns3:hr>
            <ns3:cad>0</ns3:cad>
          </ns3:TrackPointExtension>
        </extensions>
      </trkpt>
      <trkpt lat="47.48219291679561138153076171875" lon="10.00678430311381816864013671875">
        <ele>1495</ele>
        <time>2026-09-01T10:12:42.000Z</time>
        <extensions>
          <ns3:TrackPointExtension>
            <ns3:hr>155</ns3:hr>
            <ns3:cad>0</ns3:cad>
          </ns3:TrackPointExtension>
        </extensions>
      </trkpt>
      <trkpt lat="47.48219308443367481231689453125" lon="10.00678002834320068359375">
        <ele>1495.800048828125</ele>
        <time>2026-09-01T10:12:45.000Z</time>
        <extensions>
          <ns3:TrackPointExtension>
            <ns3:hr>154</ns3:hr>
            <ns3:cad>0</ns3:cad>
          </ns3:TrackPointExtension>
        </extensions>
      </trkpt>
      <trkpt lat="47.48218805529177188873291015625" lon="10.0067411363124847412109375">
        <ele>1496.199951171875</ele>
        <time>2026-09-01T10:12:47.000Z</time>
        <extensions>
          <ns3:TrackPointExtension>
            <ns3:hr>155</ns3:hr>
            <ns3:cad>0</ns3:cad>
          </ns3:TrackPointExtension>
        </extensions>
      </trkpt>
      <trkpt lat="47.4821847863495349884033203125" lon="10.00670299865305423736572265625">
        <ele>1496.800048828125</ele>
        <time>2026-09-01T10:12:50.000Z</time>
        <extensions>
          <ns3:TrackPointExtension>
            <ns3:hr>156</ns3:hr>
            <ns3:cad>0</ns3:cad>
          </ns3:TrackPointExtension>
        </extensions>
      </trkpt>
      <trkpt lat="47.48218503780663013458251953125" lon="10.0066920183598995208740234375">
        <ele>1497.4000244140625</ele>
        <time>2026-09-01T10:12:52.000Z</time>
        <extensions>
          <ns3:TrackPointExtension>
            <ns3:hr>156</ns3:hr>
            <ns3:cad>0</ns3:cad>
          </ns3:TrackPointExtension>
        </extensions>
      </trkpt>
      <trkpt lat="47.4821888096630573272705078125" lon="10.00667667947709560394287109375">
        <ele>1498</ele>
        <time>2026-09-01T10:12:54.000Z</time>
        <extensions>
          <ns3:TrackPointExtension>
            <ns3:hr>157</ns3:hr>
            <ns3:cad>0</ns3:cad>
          </ns3:TrackPointExtension>
        </extensions>
      </trkpt>
      <trkpt lat="47.48219199478626251220703125" lon="10.0066848099231719970703125">
        <ele>1499.199951171875</ele>
        <time>2026-09-01T10:12:58.000Z</time>
        <extensions>
          <ns3:TrackPointExtension>
            <ns3:hr>157</ns3:hr>
            <ns3:cad>0</ns3:cad>
          </ns3:TrackPointExtension>
        </extensions>
      </trkpt>
      <trkpt lat="47.48222149908542633056640625" lon="10.00664650462567806243896484375">
        <ele>1500.199951171875</ele>
        <time>2026-09-01T10:13:03.000Z</time>
        <extensions>
          <ns3:TrackPointExtension>
            <ns3:hr>156</ns3:hr>
            <ns3:cad>0</ns3:cad>
          </ns3:TrackPointExtension>
        </extensions>
      </trkpt>
      <trkpt lat="47.482288219034671783447265625" lon="10.00653653405606746673583984375">
        <ele>1499</ele>
        <time>2026-09-01T10:13:07.000Z</time>
        <extensions>
          <ns3:TrackPointExtension>
            <ns3:hr>157</ns3:hr>
            <ns3:cad>0</ns3:cad>
          </ns3:TrackPointExtension>
        </extensions>
      </trkpt>
      <trkpt lat="47.48230020515620708465576171875" lon="10.0064509548246860504150390625">
        <ele>1499.4000244140625</ele>
        <time>2026-09-01T10:13:11.000Z</time>
        <extensions>
          <ns3:TrackPointExtension>
            <ns3:hr>157</ns3:hr>
            <ns3:cad>0</ns3:cad>
          </ns3:TrackPointExtension>
        </extensions>
      </trkpt>
      <trkpt lat="47.48229048214852809906005859375" lon="10.0063835643231868743896484375">
        <ele>1500</ele>
        <time>2026-09-01T10:13:14.000Z</time>
        <extensions>
          <ns3:TrackPointExtension>
            <ns3:hr>157</ns3:hr>
            <ns3:cad>0</ns3:cad>
          </ns3:TrackPointExtension>
        </extensions>
      </trkpt>
      <trkpt lat="47.482294254004955291748046875" lon="10.0063654594123363494873046875">
        <ele>1500.4000244140625</ele>
        <time>2026-09-01T10:13:17.000Z</time>
        <extensions>
          <ns3:TrackPointExtension>
            <ns3:hr>156</ns3:hr>
            <ns3:cad>60</ns3:cad>
          </ns3:TrackPointExtension>
        </extensions>
      </trkpt>
      <trkpt lat="47.48230154626071453094482421875" lon="10.00635364092886447906494140625">
        <ele>1501.199951171875</ele>
        <time>2026-09-01T10:13:20.000Z</time>
        <extensions>
          <ns3:TrackPointExtension>
            <ns3:hr>155</ns3:hr>
            <ns3:cad>60</ns3:cad>
          </ns3:TrackPointExtension>
        </extensions>
      </trkpt>
      <trkpt lat="47.48231411911547183990478515625" lon="10.0063289143145084381103515625">
        <ele>1502.199951171875</ele>
        <time>2026-09-01T10:13:23.000Z</time>
        <extensions>
          <ns3:TrackPointExtension>
            <ns3:hr>154</ns3:hr>
            <ns3:cad>60</ns3:cad>
          </ns3:TrackPointExtension>
        </extensions>
      </trkpt>
      <trkpt lat="47.4823182262480258941650390625" lon="10.00632044859230518341064453125">
        <ele>1502.5999755859375</ele>
        <time>2026-09-01T10:13:24.000Z</time>
        <extensions>
          <ns3:TrackPointExtension>
            <ns3:hr>154</ns3:hr>
            <ns3:cad>60</ns3:cad>
          </ns3:TrackPointExtension>
        </extensions>
      </trkpt>
      <trkpt lat="47.48232015408575534820556640625" lon="10.006310641765594482421875">
        <ele>1503.4000244140625</ele>
        <time>2026-09-01T10:13:26.000Z</time>
        <extensions>
          <ns3:TrackPointExtension>
            <ns3:hr>153</ns3:hr>
            <ns3:cad>0</ns3:cad>
          </ns3:TrackPointExtension>
        </extensions>
      </trkpt>
      <trkpt lat="47.482318393886089324951171875" lon="10.00628985464572906494140625">
        <ele>1504.5999755859375</ele>
        <time>2026-09-01T10:13:30.000Z</time>
        <extensions>
          <ns3:TrackPointExtension>
            <ns3:hr>153</ns3:hr>
            <ns3:cad>0</ns3:cad>
          </ns3:TrackPointExtension>
        </extensions>
      </trkpt>
      <trkpt lat="47.48233071528375148773193359375" lon="10.0062380544841289520263671875">
        <ele>1505.5999755859375</ele>
        <time>2026-09-01T10:13:35.000Z</time>
        <extensions>
          <ns3:TrackPointExtension>
            <ns3:hr>155</ns3:hr>
            <ns3:cad>0</ns3:cad>
          </ns3:TrackPointExtension>
        </extensions>
      </trkpt>
      <trkpt lat="47.4823299609124660491943359375" lon="10.00622673891484737396240234375">
        <ele>1506.199951171875</ele>
        <time>2026-09-01T10:13:37.000Z</time>
        <extensions>
          <ns3:TrackPointExtension>
            <ns3:hr>155</ns3:hr>
            <ns3:cad>0</ns3:cad>
          </ns3:TrackPointExtension>
        </extensions>
      </trkpt>
      <trkpt lat="47.48232551850378513336181640625" lon="10.0061937980353832244873046875">
        <ele>1506.800048828125</ele>
        <time>2026-09-01T10:13:39.000Z</time>
        <extensions>
          <ns3:TrackPointExtension>
            <ns3:hr>156</ns3:hr>
            <ns3:cad>0</ns3:cad>
          </ns3:TrackPointExtension>
        </extensions>
      </trkpt>
      <trkpt lat="47.48233205638825893402099609375" lon="10.00614593736827373504638671875">
        <ele>1508</ele>
        <time>2026-09-01T10:13:42.000Z</time>
        <extensions>
          <ns3:TrackPointExtension>
            <ns3:hr>157</ns3:hr>
            <ns3:cad>0</ns3:cad>
          </ns3:TrackPointExtension>
        </extensions>
      </trkpt>
      <trkpt lat="47.48233423568308353424072265625" lon="10.0061113201081752777099609375">
        <ele>1509</ele>
        <time>2026-09-01T10:13:45.000Z</time>
        <extensions>
          <ns3:TrackPointExtension>
            <ns3:hr>157</ns3:hr>
            <ns3:cad>0</ns3:cad>
          </ns3:TrackPointExtension>
        </extensions>
      </trkpt>
      <trkpt lat="47.482325769960880279541015625" lon="10.00609028153121471405029296875">
        <ele>1509.199951171875</ele>
        <time>2026-09-01T10:13:46.000Z</time>
        <extensions>
          <ns3:TrackPointExtension>
            <ns3:hr>158</ns3:hr>
            <ns3:cad>0</ns3:cad>
          </ns3:TrackPointExtension>
        </extensions>
      </trkpt>
      <trkpt lat="47.48231177218258380889892578125" lon="10.0060268305242061614990234375">
        <ele>1509.800048828125</ele>
        <time>2026-09-01T10:13:49.000Z</time>
        <extensions>
          <ns3:TrackPointExtension>
            <ns3:hr>159</ns3:hr>
            <ns3:cad>65</ns3:cad>
          </ns3:TrackPointExtension>
        </extensions>
      </trkpt>
      <trkpt lat="47.48230556957423686981201171875" lon="10.00599388964474201202392578125">
        <ele>1510.199951171875</ele>
        <time>2026-09-01T10:13:51.000Z</time>
        <extensions>
          <ns3:TrackPointExtension>
            <ns3:hr>159</ns3:hr>
            <ns3:cad>66</ns3:cad>
          </ns3:TrackPointExtension>
        </extensions>
      </trkpt>
      <trkpt lat="47.48232132755219936370849609375" lon="10.00598014332354068756103515625">
        <ele>1511.4000244140625</ele>
        <time>2026-09-01T10:13:56.000Z</time>
        <extensions>
          <ns3:TrackPointExtension>
            <ns3:hr>158</ns3:hr>
            <ns3:cad>15</ns3:cad>
          </ns3:TrackPointExtension>
        </extensions>
      </trkpt>
      <trkpt lat="47.48233205638825893402099609375" lon="10.0059597752988338470458984375">
        <ele>1512.5999755859375</ele>
        <time>2026-09-01T10:13:59.000Z</time>
        <extensions>
          <ns3:TrackPointExtension>
            <ns3:hr>158</ns3:hr>
            <ns3:cad>15</ns3:cad>
          </ns3:TrackPointExtension>
        </extensions>
      </trkpt>
      <trkpt lat="47.48234110884368419647216796875" lon="10.00593722797930240631103515625">
        <ele>1513.4000244140625</ele>
        <time>2026-09-01T10:14:01.000Z</time>
        <extensions>
          <ns3:TrackPointExtension>
            <ns3:hr>158</ns3:hr>
            <ns3:cad>0</ns3:cad>
          </ns3:TrackPointExtension>
        </extensions>
      </trkpt>
      <trkpt lat="47.48233817517757415771484375" lon="10.00593421049416065216064453125">
        <ele>1513.5999755859375</ele>
        <time>2026-09-01T10:14:02.000Z</time>
        <extensions>
          <ns3:TrackPointExtension>
            <ns3:hr>158</ns3:hr>
            <ns3:cad>0</ns3:cad>
          </ns3:TrackPointExtension>
        </extensions>
      </trkpt>
      <trkpt lat="47.4823480658233165740966796875" lon="10.005903281271457672119140625">
        <ele>1514.800048828125</ele>
        <time>2026-09-01T10:14:06.000Z</time>
        <extensions>
          <ns3:TrackPointExtension>
            <ns3:hr>159</ns3:hr>
            <ns3:cad>0</ns3:cad>
          </ns3:TrackPointExtension>
        </extensions>
      </trkpt>
      <trkpt lat="47.48234630562365055084228515625" lon="10.00588542781770229339599609375">
        <ele>1515</ele>
        <time>2026-09-01T10:14:07.000Z</time>
        <extensions>
          <ns3:TrackPointExtension>
            <ns3:hr>159</ns3:hr>
            <ns3:cad>0</ns3:cad>
          </ns3:TrackPointExtension>
        </extensions>
      </trkpt>
      <trkpt lat="47.48235519044101238250732421875" lon="10.00586262904107570648193359375">
        <ele>1515.800048828125</ele>
        <time>2026-09-01T10:14:11.000Z</time>
        <extensions>
          <ns3:TrackPointExtension>
            <ns3:hr>160</ns3:hr>
            <ns3:cad>0</ns3:cad>
          </ns3:TrackPointExtension>
        </extensions>
      </trkpt>
      <trkpt lat="47.48235519044101238250732421875" lon="10.0058625452220439910888671875">
        <ele>1516</ele>
        <time>2026-09-01T10:14:12.000Z</time>
        <extensions>
          <ns3:TrackPointExtension>
            <ns3:hr>159</ns3:hr>
            <ns3:cad>0</ns3:cad>
          </ns3:TrackPointExtension>
        </extensions>
      </trkpt>
      <trkpt lat="47.4823470599949359893798828125" lon="10.00581535510718822479248046875">
        <ele>1517.199951171875</ele>
        <time>2026-09-01T10:14:16.000Z</time>
        <extensions>
          <ns3:TrackPointExtension>
            <ns3:hr>160</ns3:hr>
            <ns3:cad>0</ns3:cad>
          </ns3:TrackPointExtension>
        </extensions>
      </trkpt>
      <trkpt lat="47.48232719488441944122314453125" lon="10.0057203881442546844482421875">
        <ele>1518.199951171875</ele>
        <time>2026-09-01T10:14:21.000Z</time>
        <extensions>
          <ns3:TrackPointExtension>
            <ns3:hr>161</ns3:hr>
            <ns3:cad>0</ns3:cad>
          </ns3:TrackPointExtension>
        </extensions>
      </trkpt>
      <trkpt lat="47.48232476413249969482421875" lon="10.005686692893505096435546875">
        <ele>1519.199951171875</ele>
        <time>2026-09-01T10:14:26.000Z</time>
        <extensions>
          <ns3:TrackPointExtension>
            <ns3:hr>161</ns3:hr>
            <ns3:cad>0</ns3:cad>
          </ns3:TrackPointExtension>
        </extensions>
      </trkpt>
      <trkpt lat="47.4823249317705631256103515625" lon="10.005686692893505096435546875">
        <ele>1519.5999755859375</ele>
        <time>2026-09-01T10:14:27.000Z</time>
        <extensions>
          <ns3:TrackPointExtension>
            <ns3:hr>161</ns3:hr>
            <ns3:cad>0</ns3:cad>
          </ns3:TrackPointExtension>
        </extensions>
      </trkpt>
      <trkpt lat="47.4823229201138019561767578125" lon="10.00568099319934844970703125">
        <ele>1520.4000244140625</ele>
        <time>2026-09-01T10:14:29.000Z</time>
        <extensions>
          <ns3:TrackPointExtension>
            <ns3:hr>160</ns3:hr>
            <ns3:cad>0</ns3:cad>
          </ns3:TrackPointExtension>
        </extensions>
      </trkpt>
      <trkpt lat="47.4823185615241527557373046875" lon="10.00565978698432445526123046875">
        <ele>1521</ele>
        <time>2026-09-01T10:14:31.000Z</time>
        <extensions>
          <ns3:TrackPointExtension>
            <ns3:hr>159</ns3:hr>
            <ns3:cad>0</ns3:cad>
          </ns3:TrackPointExtension>
        </extensions>
      </trkpt>
      <trkpt lat="47.4823214113712310791015625" lon="10.00564972870051860809326171875">
        <ele>1521.4000244140625</ele>
        <time>2026-09-01T10:14:32.000Z</time>
        <extensions>
          <ns3:TrackPointExtension>
            <ns3:hr>159</ns3:hr>
            <ns3:cad>0</ns3:cad>
          </ns3:TrackPointExtension>
        </extensions>
      </trkpt>
      <trkpt lat="47.48233473859727382659912109375" lon="10.00562374480068683624267578125">
        <ele>1522.4000244140625</ele>
        <time>2026-09-01T10:14:35.000Z</time>
        <extensions>
          <ns3:TrackPointExtension>
            <ns3:hr>159</ns3:hr>
            <ns3:cad>43</ns3:cad>
          </ns3:TrackPointExtension>
        </extensions>
      </trkpt>
      <trkpt lat="47.482328452169895172119140625" lon="10.0056027062237262725830078125">
        <ele>1522.5999755859375</ele>
        <time>2026-09-01T10:14:36.000Z</time>
        <extensions>
          <ns3:TrackPointExtension>
            <ns3:hr>159</ns3:hr>
            <ns3:cad>43</ns3:cad>
          </ns3:TrackPointExtension>
        </extensions>
      </trkpt>
      <trkpt lat="47.48232568614184856414794921875" lon="10.00553422607481479644775390625">
        <ele>1523.4000244140625</ele>
        <time>2026-09-01T10:14:40.000Z</time>
        <extensions>
          <ns3:TrackPointExtension>
            <ns3:hr>161</ns3:hr>
            <ns3:cad>0</ns3:cad>
          </ns3:TrackPointExtension>
        </extensions>
      </trkpt>
      <trkpt lat="47.48232367448508739471435546875" lon="10.00552534125745296478271484375">
        <ele>1523.800048828125</ele>
        <time>2026-09-01T10:14:41.000Z</time>
        <extensions>
          <ns3:TrackPointExtension>
            <ns3:hr>161</ns3:hr>
            <ns3:cad>0</ns3:cad>
          </ns3:TrackPointExtension>
        </extensions>
      </trkpt>
      <trkpt lat="47.4823225848376750946044921875" lon="10.00547521747648715972900390625">
        <ele>1524.800048828125</ele>
        <time>2026-09-01T10:14:45.000Z</time>
        <extensions>
          <ns3:TrackPointExtension>
            <ns3:hr>161</ns3:hr>
            <ns3:cad>0</ns3:cad>
          </ns3:TrackPointExtension>
        </extensions>
      </trkpt>
      <trkpt lat="47.4823239259421825408935546875" lon="10.005450658500194549560546875">
        <ele>1525.800048828125</ele>
        <time>2026-09-01T10:14:48.000Z</time>
        <extensions>
          <ns3:TrackPointExtension>
            <ns3:hr>161</ns3:hr>
            <ns3:cad>53</ns3:cad>
          </ns3:TrackPointExtension>
        </extensions>
      </trkpt>
      <trkpt lat="47.48232300393283367156982421875" lon="10.0054457969963550567626953125">
        <ele>1525.800048828125</ele>
        <time>2026-09-01T10:14:49.000Z</time>
        <extensions>
          <ns3:TrackPointExtension>
            <ns3:hr>161</ns3:hr>
            <ns3:cad>53</ns3:cad>
          </ns3:TrackPointExtension>
        </extensions>
      </trkpt>
      <trkpt lat="47.48231981880962848663330078125" lon="10.0053904764354228973388671875">
        <ele>1527</ele>
        <time>2026-09-01T10:14:54.000Z</time>
        <extensions>
          <ns3:TrackPointExtension>
            <ns3:hr>160</ns3:hr>
            <ns3:cad>0</ns3:cad>
          </ns3:TrackPointExtension>
        </extensions>
      </trkpt>
      <trkpt lat="47.482308335602283477783203125" lon="10.00532920472323894500732421875">
        <ele>1528</ele>
        <time>2026-09-01T10:14:59.000Z</time>
        <extensions>
          <ns3:TrackPointExtension>
            <ns3:hr>163</ns3:hr>
            <ns3:cad>0</ns3:cad>
          </ns3:TrackPointExtension>
        </extensions>
      </trkpt>
      <trkpt lat="47.48230137862265110015869140625" lon="10.00532266683876514434814453125">
        <ele>1528</ele>
        <time>2026-09-01T10:15:01.000Z</time>
        <extensions>
          <ns3:TrackPointExtension>
            <ns3:hr>163</ns3:hr>
            <ns3:cad>0</ns3:cad>
          </ns3:TrackPointExtension>
        </extensions>
      </trkpt>
      <trkpt lat="47.48229836113750934600830078125" lon="10.0052261911332607269287109375">
        <ele>1527.4000244140625</ele>
        <time>2026-09-01T10:15:04.000Z</time>
        <extensions>
          <ns3:TrackPointExtension>
            <ns3:hr>161</ns3:hr>
            <ns3:cad>0</ns3:cad>
          </ns3:TrackPointExtension>
        </extensions>
      </trkpt>
      <trkpt lat="47.48228293843567371368408203125" lon="10.005111359059810638427734375">
        <ele>1528.199951171875</ele>
        <time>2026-09-01T10:15:10.000Z</time>
        <extensions>
          <ns3:TrackPointExtension>
            <ns3:hr>161</ns3:hr>
            <ns3:cad>0</ns3:cad>
          </ns3:TrackPointExtension>
        </extensions>
      </trkpt>
      <trkpt lat="47.48227656818926334381103515625" lon="10.005080513656139373779296875">
        <ele>1529.199951171875</ele>
        <time>2026-09-01T10:15:13.000Z</time>
        <extensions>
          <ns3:TrackPointExtension>
            <ns3:hr>159</ns3:hr>
            <ns3:cad>0</ns3:cad>
          </ns3:TrackPointExtension>
        </extensions>
      </trkpt>
      <trkpt lat="47.482268102467060089111328125" lon="10.0050461478531360626220703125">
        <ele>1529.5999755859375</ele>
        <time>2026-09-01T10:15:14.000Z</time>
        <extensions>
          <ns3:TrackPointExtension>
            <ns3:hr>159</ns3:hr>
            <ns3:cad>0</ns3:cad>
          </ns3:TrackPointExtension>
        </extensions>
      </trkpt>
      <trkpt lat="47.48226751573383808135986328125" lon="10.0049539469182491302490234375">
        <ele>1530.4000244140625</ele>
        <time>2026-09-01T10:15:18.000Z</time>
        <extensions>
          <ns3:TrackPointExtension>
            <ns3:hr>160</ns3:hr>
            <ns3:cad>0</ns3:cad>
          </ns3:TrackPointExtension>
        </extensions>
      </trkpt>
      <trkpt lat="47.48226148076355457305908203125" lon="10.00491145066916942596435546875">
        <ele>1530.800048828125</ele>
        <time>2026-09-01T10:15:20.000Z</time>
        <extensions>
          <ns3:TrackPointExtension>
            <ns3:hr>161</ns3:hr>
            <ns3:cad>83</ns3:cad>
          </ns3:TrackPointExtension>
        </extensions>
      </trkpt>
      <trkpt lat="47.482238598167896270751953125" lon="10.00482277013361454010009765625">
        <ele>1531.199951171875</ele>
        <time>2026-09-01T10:15:24.000Z</time>
        <extensions>
          <ns3:TrackPointExtension>
            <ns3:hr>161</ns3:hr>
            <ns3:cad>81</ns3:cad>
          </ns3:TrackPointExtension>
        </extensions>
      </trkpt>
      <trkpt lat="47.48219333589076995849609375" lon="10.004705004394054412841796875">
        <ele>1529.4000244140625</ele>
        <time>2026-09-01T10:15:28.000Z</time>
        <extensions>
          <ns3:TrackPointExtension>
            <ns3:hr>161</ns3:hr>
            <ns3:cad>80</ns3:cad>
          </ns3:TrackPointExtension>
        </extensions>
      </trkpt>
      <trkpt lat="47.48218185268342494964599609375" lon="10.0046039186418056488037109375">
        <ele>1529.199951171875</ele>
        <time>2026-09-01T10:15:32.000Z</time>
        <extensions>
          <ns3:TrackPointExtension>
            <ns3:hr>159</ns3:hr>
            <ns3:cad>80</ns3:cad>
          </ns3:TrackPointExtension>
        </extensions>
      </trkpt>
      <trkpt lat="47.48215352185070514678955078125" lon="10.00444985926151275634765625">
        <ele>1530.4000244140625</ele>
        <time>2026-09-01T10:15:37.000Z</time>
        <extensions>
          <ns3:TrackPointExtension>
            <ns3:hr>157</ns3:hr>
            <ns3:cad>81</ns3:cad>
          </ns3:TrackPointExtension>
        </extensions>
      </trkpt>
      <trkpt lat="47.48214195482432842254638671875" lon="10.00437282957136631011962890625">
        <ele>1531.4000244140625</ele>
        <time>2026-09-01T10:15:41.000Z</time>
        <extensions>
          <ns3:TrackPointExtension>
            <ns3:hr>158</ns3:hr>
            <ns3:cad>81</ns3:cad>
          </ns3:TrackPointExtension>
        </extensions>
      </trkpt>
      <trkpt lat="47.48214748688042163848876953125" lon="10.0043655373156070709228515625">
        <ele>1531.5999755859375</ele>
        <time>2026-09-01T10:15:42.000Z</time>
        <extensions>
          <ns3:TrackPointExtension>
            <ns3:hr>158</ns3:hr>
            <ns3:cad>81</ns3:cad>
          </ns3:TrackPointExtension>
        </extensions>
      </trkpt>
      <trkpt lat="47.48215033672749996185302734375" lon="10.0043511204421520233154296875">
        <ele>1531.800048828125</ele>
        <time>2026-09-01T10:15:43.000Z</time>
        <extensions>
          <ns3:TrackPointExtension>
            <ns3:hr>158</ns3:hr>
            <ns3:cad>0</ns3:cad>
          </ns3:TrackPointExtension>
        </extensions>
      </trkpt>
      <trkpt lat="47.4821408651769161224365234375" lon="10.00431482680141925811767578125">
        <ele>1532.5999755859375</ele>
        <time>2026-09-01T10:15:46.000Z</time>
        <extensions>
          <ns3:TrackPointExtension>
            <ns3:hr>158</ns3:hr>
            <ns3:cad>59</ns3:cad>
          </ns3:TrackPointExtension>
        </extensions>
      </trkpt>
      <trkpt lat="47.482140026986598968505859375" lon="10.004304014146327972412109375">
        <ele>1533</ele>
        <time>2026-09-01T10:15:47.000Z</time>
        <extensions>
          <ns3:TrackPointExtension>
            <ns3:hr>157</ns3:hr>
            <ns3:cad>59</ns3:cad>
          </ns3:TrackPointExtension>
        </extensions>
      </trkpt>
      <trkpt lat="47.48212384991347789764404296875" lon="10.00425548292696475982666015625">
        <ele>1534</ele>
        <time>2026-09-01T10:15:49.000Z</time>
        <extensions>
          <ns3:TrackPointExtension>
            <ns3:hr>157</ns3:hr>
            <ns3:cad>59</ns3:cad>
          </ns3:TrackPointExtension>
        </extensions>
      </trkpt>
      <trkpt lat="47.48210893012583255767822265625" lon="10.0042109750211238861083984375">
        <ele>1534.199951171875</ele>
        <time>2026-09-01T10:15:51.000Z</time>
        <extensions>
          <ns3:TrackPointExtension>
            <ns3:hr>158</ns3:hr>
            <ns3:cad>0</ns3:cad>
          </ns3:TrackPointExtension>
        </extensions>
      </trkpt>
      <trkpt lat="47.4820925854146480560302734375" lon="10.00414031557738780975341796875">
        <ele>1534.199951171875</ele>
        <time>2026-09-01T10:15:57.000Z</time>
        <extensions>
          <ns3:TrackPointExtension>
            <ns3:hr>159</ns3:hr>
            <ns3:cad>75</ns3:cad>
          </ns3:TrackPointExtension>
        </extensions>
      </trkpt>
      <trkpt lat="47.4820612370967864990234375" lon="10.004057586193084716796875">
        <ele>1534.800048828125</ele>
        <time>2026-09-01T10:16:02.000Z</time>
        <extensions>
          <ns3:TrackPointExtension>
            <ns3:hr>159</ns3:hr>
            <ns3:cad>75</ns3:cad>
          </ns3:TrackPointExtension>
        </extensions>
      </trkpt>
      <trkpt lat="47.4820422939956188201904296875" lon="10.0039155967533588409423828125">
        <ele>1534.5999755859375</ele>
        <time>2026-09-01T10:16:06.000Z</time>
        <extensions>
          <ns3:TrackPointExtension>
            <ns3:hr>159</ns3:hr>
            <ns3:cad>75</ns3:cad>
          </ns3:TrackPointExtension>
        </extensions>
      </trkpt>
      <trkpt lat="47.48203240334987640380859375" lon="10.00388835556805133819580078125">
        <ele>1535</ele>
        <time>2026-09-01T10:16:08.000Z</time>
        <extensions>
          <ns3:TrackPointExtension>
            <ns3:hr>160</ns3:hr>
            <ns3:cad>81</ns3:cad>
          </ns3:TrackPointExtension>
        </extensions>
      </trkpt>
      <trkpt lat="47.4820305593311786651611328125" lon="10.00385130755603313446044921875">
        <ele>1535.5999755859375</ele>
        <time>2026-09-01T10:16:10.000Z</time>
        <extensions>
          <ns3:TrackPointExtension>
            <ns3:hr>160</ns3:hr>
            <ns3:cad>81</ns3:cad>
          </ns3:TrackPointExtension>
        </extensions>
      </trkpt>
      <trkpt lat="47.48203215189278125762939453125" lon="10.0038347952067852020263671875">
        <ele>1536</ele>
        <time>2026-09-01T10:16:12.000Z</time>
        <extensions>
          <ns3:TrackPointExtension>
            <ns3:hr>159</ns3:hr>
            <ns3:cad>81</ns3:cad>
          </ns3:TrackPointExtension>
        </extensions>
      </trkpt>
      <trkpt lat="47.4820258654654026031494140625" lon="10.0037838332355022430419921875">
        <ele>1537</ele>
        <time>2026-09-01T10:16:15.000Z</time>
        <extensions>
          <ns3:TrackPointExtension>
            <ns3:hr>159</ns3:hr>
            <ns3:cad>60</ns3:cad>
          </ns3:TrackPointExtension>
        </extensions>
      </trkpt>
      <trkpt lat="47.48202460817992687225341796875" lon="10.00375307165086269378662109375">
        <ele>1537.199951171875</ele>
        <time>2026-09-01T10:16:16.000Z</time>
        <extensions>
          <ns3:TrackPointExtension>
            <ns3:hr>159</ns3:hr>
            <ns3:cad>60</ns3:cad>
          </ns3:TrackPointExtension>
        </extensions>
      </trkpt>
      <trkpt lat="47.48198856599628925323486328125" lon="10.003644526004791259765625">
        <ele>1536.800048828125</ele>
        <time>2026-09-01T10:16:19.000Z</time>
        <extensions>
          <ns3:TrackPointExtension>
            <ns3:hr>159</ns3:hr>
            <ns3:cad>60</ns3:cad>
          </ns3:TrackPointExtension>
        </extensions>
      </trkpt>
      <trkpt lat="47.4819673597812652587890625" lon="10.0035823322832584381103515625">
        <ele>1536</ele>
        <time>2026-09-01T10:16:21.000Z</time>
        <extensions>
          <ns3:TrackPointExtension>
            <ns3:hr>158</ns3:hr>
            <ns3:cad>83</ns3:cad>
          </ns3:TrackPointExtension>
        </extensions>
      </trkpt>
      <trkpt lat="47.48191866092383861541748046875" lon="10.00349155627191066741943359375">
        <ele>1535</ele>
        <time>2026-09-01T10:16:24.000Z</time>
        <extensions>
          <ns3:TrackPointExtension>
            <ns3:hr>159</ns3:hr>
            <ns3:cad>83</ns3:cad>
          </ns3:TrackPointExtension>
        </extensions>
      </trkpt>
      <trkpt lat="47.48191463761031627655029296875" lon="10.00346858985722064971923828125">
        <ele>1534.800048828125</ele>
        <time>2026-09-01T10:16:25.000Z</time>
        <extensions>
          <ns3:TrackPointExtension>
            <ns3:hr>159</ns3:hr>
            <ns3:cad>83</ns3:cad>
          </ns3:TrackPointExtension>
        </extensions>
      </trkpt>
      <trkpt lat="47.4818971194326877593994140625" lon="10.003367252647876739501953125">
        <ele>1534.5999755859375</ele>
        <time>2026-09-01T10:16:28.000Z</time>
        <extensions>
          <ns3:TrackPointExtension>
            <ns3:hr>159</ns3:hr>
            <ns3:cad>85</ns3:cad>
          </ns3:TrackPointExtension>
        </extensions>
      </trkpt>
      <trkpt lat="47.4818927608430385589599609375" lon="10.003308244049549102783203125">
        <ele>1535.800048828125</ele>
        <time>2026-09-01T10:16:32.000Z</time>
        <extensions>
          <ns3:TrackPointExtension>
            <ns3:hr>159</ns3:hr>
            <ns3:cad>85</ns3:cad>
          </ns3:TrackPointExtension>
        </extensions>
      </trkpt>
      <trkpt lat="47.4818910844624042510986328125" lon="10.003304220736026763916015625">
        <ele>1536.199951171875</ele>
        <time>2026-09-01T10:16:33.000Z</time>
        <extensions>
          <ns3:TrackPointExtension>
            <ns3:hr>158</ns3:hr>
            <ns3:cad>85</ns3:cad>
          </ns3:TrackPointExtension>
        </extensions>
      </trkpt>
      <trkpt lat="47.48189024627208709716796875" lon="10.00326490961015224456787109375">
        <ele>1537.5999755859375</ele>
        <time>2026-09-01T10:16:36.000Z</time>
        <extensions>
          <ns3:TrackPointExtension>
            <ns3:hr>157</ns3:hr>
            <ns3:cad>0</ns3:cad>
          </ns3:TrackPointExtension>
        </extensions>
      </trkpt>
      <trkpt lat="47.481883876025676727294921875" lon="10.00325049273669719696044921875">
        <ele>1538</ele>
        <time>2026-09-01T10:16:37.000Z</time>
        <extensions>
          <ns3:TrackPointExtension>
            <ns3:hr>157</ns3:hr>
            <ns3:cad>0</ns3:cad>
          </ns3:TrackPointExtension>
        </extensions>
      </trkpt>
      <trkpt lat="47.48186652548611164093017578125" lon="10.00323657877743244171142578125">
        <ele>1538.5999755859375</ele>
        <time>2026-09-01T10:16:39.000Z</time>
        <extensions>
          <ns3:TrackPointExtension>
            <ns3:hr>156</ns3:hr>
            <ns3:cad>0</ns3:cad>
          </ns3:TrackPointExtension>
        </extensions>
      </trkpt>
      <trkpt lat="47.4818407930433750152587890625" lon="10.00322886742651462554931640625">
        <ele>1539.4000244140625</ele>
        <time>2026-09-01T10:16:42.000Z</time>
        <extensions>
          <ns3:TrackPointExtension>
            <ns3:hr>156</ns3:hr>
            <ns3:cad>0</ns3:cad>
          </ns3:TrackPointExtension>
        </extensions>
      </trkpt>
      <trkpt lat="47.48183618299663066864013671875" lon="10.003225766122341156005859375">
        <ele>1539.5999755859375</ele>
        <time>2026-09-01T10:16:43.000Z</time>
        <extensions>
          <ns3:TrackPointExtension>
            <ns3:hr>157</ns3:hr>
            <ns3:cad>0</ns3:cad>
          </ns3:TrackPointExtension>
        </extensions>
      </trkpt>
      <trkpt lat="47.48182042501866817474365234375" lon="10.003190226852893829345703125">
        <ele>1540.800048828125</ele>
        <time>2026-09-01T10:16:46.000Z</time>
        <extensions>
          <ns3:TrackPointExtension>
            <ns3:hr>157</ns3:hr>
            <ns3:cad>0</ns3:cad>
          </ns3:TrackPointExtension>
        </extensions>
      </trkpt>
      <trkpt lat="47.48181757517158985137939453125" lon="10.00315208919346332550048828125">
        <ele>1541.199951171875</ele>
        <time>2026-09-01T10:16:48.000Z</time>
        <extensions>
          <ns3:TrackPointExtension>
            <ns3:hr>157</ns3:hr>
            <ns3:cad>0</ns3:cad>
          </ns3:TrackPointExtension>
        </extensions>
      </trkpt>
      <trkpt lat="47.4818092770874500274658203125" lon="10.00310607254505157470703125">
        <ele>1542</ele>
        <time>2026-09-01T10:16:51.000Z</time>
        <extensions>
          <ns3:TrackPointExtension>
            <ns3:hr>157</ns3:hr>
            <ns3:cad>0</ns3:cad>
          </ns3:TrackPointExtension>
        </extensions>
      </trkpt>
      <trkpt lat="47.4818144738674163818359375" lon="10.00309945084154605865478515625">
        <ele>1542.199951171875</ele>
        <time>2026-09-01T10:16:52.000Z</time>
        <extensions>
          <ns3:TrackPointExtension>
            <ns3:hr>158</ns3:hr>
            <ns3:cad>0</ns3:cad>
          </ns3:TrackPointExtension>
        </extensions>
      </trkpt>
      <trkpt lat="47.481813132762908935546875" lon="10.0030670128762722015380859375">
        <ele>1543</ele>
        <time>2026-09-01T10:16:54.000Z</time>
        <extensions>
          <ns3:TrackPointExtension>
            <ns3:hr>158</ns3:hr>
            <ns3:cad>0</ns3:cad>
          </ns3:TrackPointExtension>
        </extensions>
      </trkpt>
      <trkpt lat="47.481800056993961334228515625" lon="10.00305318273603916168212890625">
        <ele>1543.4000244140625</ele>
        <time>2026-09-01T10:16:55.000Z</time>
        <extensions>
          <ns3:TrackPointExtension>
            <ns3:hr>158</ns3:hr>
            <ns3:cad>0</ns3:cad>
          </ns3:TrackPointExtension>
        </extensions>
      </trkpt>
      <trkpt lat="47.481786310672760009765625" lon="10.0030713714659214019775390625">
        <ele>1543.5999755859375</ele>
        <time>2026-09-01T10:16:56.000Z</time>
        <extensions>
          <ns3:TrackPointExtension>
            <ns3:hr>158</ns3:hr>
            <ns3:cad>0</ns3:cad>
          </ns3:TrackPointExtension>
        </extensions>
      </trkpt>
      <trkpt lat="47.48177357017993927001953125" lon="10.0030851177871227264404296875">
        <ele>1544</ele>
        <time>2026-09-01T10:17:00.000Z</time>
        <extensions>
          <ns3:TrackPointExtension>
            <ns3:hr>158</ns3:hr>
            <ns3:cad>0</ns3:cad>
          </ns3:TrackPointExtension>
        </extensions>
      </trkpt>
      <trkpt lat="47.481771893799304962158203125" lon="10.0030871294438838958740234375">
        <ele>1544.199951171875</ele>
        <time>2026-09-01T10:17:02.000Z</time>
        <extensions>
          <ns3:TrackPointExtension>
            <ns3:hr>158</ns3:hr>
            <ns3:cad>60</ns3:cad>
          </ns3:TrackPointExtension>
        </extensions>
      </trkpt>
      <trkpt lat="47.48178002424538135528564453125" lon="10.0030770711600780487060546875">
        <ele>1544.4000244140625</ele>
        <time>2026-09-01T10:17:05.000Z</time>
        <extensions>
          <ns3:TrackPointExtension>
            <ns3:hr>158</ns3:hr>
            <ns3:cad>0</ns3:cad>
          </ns3:TrackPointExtension>
        </extensions>
      </trkpt>
      <trkpt lat="47.48182260431349277496337890625" lon="10.00297288410365581512451171875">
        <ele>1543.4000244140625</ele>
        <time>2026-09-01T10:17:11.000Z</time>
        <extensions>
          <ns3:TrackPointExtension>
            <ns3:hr>158</ns3:hr>
            <ns3:cad>0</ns3:cad>
          </ns3:TrackPointExtension>
        </extensions>
      </trkpt>
      <trkpt lat="47.48183735646307468414306640625" lon="10.00289820134639739990234375">
        <ele>1543</ele>
        <time>2026-09-01T10:17:13.000Z</time>
        <extensions>
          <ns3:TrackPointExtension>
            <ns3:hr>157</ns3:hr>
            <ns3:cad>0</ns3:cad>
          </ns3:TrackPointExtension>
        </extensions>
      </trkpt>
      <trkpt lat="47.48183526098728179931640625" lon="10.00283625908195972442626953125">
        <ele>1541.800048828125</ele>
        <time>2026-09-01T10:17:16.000Z</time>
        <extensions>
          <ns3:TrackPointExtension>
            <ns3:hr>155</ns3:hr>
            <ns3:cad>0</ns3:cad>
          </ns3:TrackPointExtension>
        </extensions>
      </trkpt>
      <trkpt lat="47.481823861598968505859375" lon="10.00281496904790401458740234375">
        <ele>1540.800048828125</ele>
        <time>2026-09-01T10:17:19.000Z</time>
        <extensions>
          <ns3:TrackPointExtension>
            <ns3:hr>153</ns3:hr>
            <ns3:cad>0</ns3:cad>
          </ns3:TrackPointExtension>
        </extensions>
      </trkpt>
      <trkpt lat="47.48182377777993679046630859375" lon="10.00281463377177715301513671875">
        <ele>1540.199951171875</ele>
        <time>2026-09-01T10:17:22.000Z</time>
        <extensions>
          <ns3:TrackPointExtension>
            <ns3:hr>154</ns3:hr>
            <ns3:cad>0</ns3:cad>
          </ns3:TrackPointExtension>
        </extensions>
      </trkpt>
      <trkpt lat="47.48182461597025394439697265625" lon="10.00276367180049419403076171875">
        <ele>1539.800048828125</ele>
        <time>2026-09-01T10:17:26.000Z</time>
        <extensions>
          <ns3:TrackPointExtension>
            <ns3:hr>156</ns3:hr>
            <ns3:cad>0</ns3:cad>
          </ns3:TrackPointExtension>
        </extensions>
      </trkpt>
      <trkpt lat="47.48181824572384357452392578125" lon="10.00271924771368503570556640625">
        <ele>1539.5999755859375</ele>
        <time>2026-09-01T10:17:27.000Z</time>
        <extensions>
          <ns3:TrackPointExtension>
            <ns3:hr>155</ns3:hr>
            <ns3:cad>0</ns3:cad>
          </ns3:TrackPointExtension>
        </extensions>
      </trkpt>
      <trkpt lat="47.48180366121232509613037109375" lon="10.00259821303188800811767578125">
        <ele>1539</ele>
        <time>2026-09-01T10:17:30.000Z</time>
        <extensions>
          <ns3:TrackPointExtension>
            <ns3:hr>156</ns3:hr>
            <ns3:cad>0</ns3:cad>
          </ns3:TrackPointExtension>
        </extensions>
      </trkpt>
      <trkpt lat="47.4817945249378681182861328125" lon="10.0025054253637790679931640625">
        <ele>1539</ele>
        <time>2026-09-01T10:17:33.000Z</time>
        <extensions>
          <ns3:TrackPointExtension>
            <ns3:hr>152</ns3:hr>
            <ns3:cad>83</ns3:cad>
          </ns3:TrackPointExtension>
        </extensions>
      </trkpt>
      <trkpt lat="47.48178790323436260223388671875" lon="10.00247483141720294952392578125">
        <ele>1539</ele>
        <time>2026-09-01T10:17:34.000Z</time>
        <extensions>
          <ns3:TrackPointExtension>
            <ns3:hr>151</ns3:hr>
            <ns3:cad>83</ns3:cad>
          </ns3:TrackPointExtension>
        </extensions>
      </trkpt>
      <trkpt lat="47.48177398927509784698486328125" lon="10.0023703090846538543701171875">
        <ele>1539.5999755859375</ele>
        <time>2026-09-01T10:17:39.000Z</time>
        <extensions>
          <ns3:TrackPointExtension>
            <ns3:hr>149</ns3:hr>
            <ns3:cad>83</ns3:cad>
          </ns3:TrackPointExtension>
        </extensions>
      </trkpt>
      <trkpt lat="47.48173928819596767425537109375" lon="10.0022958777844905853271484375">
        <ele>1538.5999755859375</ele>
        <time>2026-09-01T10:17:43.000Z</time>
        <extensions>
          <ns3:TrackPointExtension>
            <ns3:hr>150</ns3:hr>
            <ns3:cad>83</ns3:cad>
          </ns3:TrackPointExtension>
        </extensions>
      </trkpt>
      <trkpt lat="47.48173509724438190460205078125" lon="10.0023186765611171722412109375">
        <ele>1538</ele>
        <time>2026-09-01T10:17:44.000Z</time>
        <extensions>
          <ns3:TrackPointExtension>
            <ns3:hr>151</ns3:hr>
            <ns3:cad>83</ns3:cad>
          </ns3:TrackPointExtension>
        </extensions>
      </trkpt>
      <trkpt lat="47.48172420077025890350341796875" lon="10.00241548754274845123291015625">
        <ele>1536.800048828125</ele>
        <time>2026-09-01T10:17:46.000Z</time>
        <extensions>
          <ns3:TrackPointExtension>
            <ns3:hr>153</ns3:hr>
            <ns3:cad>83</ns3:cad>
          </ns3:TrackPointExtension>
        </extensions>
      </trkpt>
      <trkpt lat="47.4817140586674213409423828125" lon="10.002515651285648345947265625">
        <ele>1535.4000244140625</ele>
        <time>2026-09-01T10:17:48.000Z</time>
        <extensions>
          <ns3:TrackPointExtension>
            <ns3:hr>154</ns3:hr>
            <ns3:cad>83</ns3:cad>
          </ns3:TrackPointExtension>
        </extensions>
      </trkpt>
      <trkpt lat="47.4816942773759365081787109375" lon="10.00255295075476169586181640625">
        <ele>1534.800048828125</ele>
        <time>2026-09-01T10:17:49.000Z</time>
        <extensions>
          <ns3:TrackPointExtension>
            <ns3:hr>154</ns3:hr>
            <ns3:cad>83</ns3:cad>
          </ns3:TrackPointExtension>
        </extensions>
      </trkpt>
      <trkpt lat="47.48166535980999469757080078125" lon="10.0025711394846439361572265625">
        <ele>1534.199951171875</ele>
        <time>2026-09-01T10:17:50.000Z</time>
        <extensions>
          <ns3:TrackPointExtension>
            <ns3:hr>155</ns3:hr>
            <ns3:cad>0</ns3:cad>
          </ns3:TrackPointExtension>
        </extensions>
      </trkpt>
      <trkpt lat="47.48159947805106639862060546875" lon="10.00257859937846660614013671875">
        <ele>1533.4000244140625</ele>
        <time>2026-09-01T10:17:52.000Z</time>
        <extensions>
          <ns3:TrackPointExtension>
            <ns3:hr>154</ns3:hr>
            <ns3:cad>0</ns3:cad>
          </ns3:TrackPointExtension>
        </extensions>
      </trkpt>
      <trkpt lat="47.481576763093471527099609375" lon="10.00257424078881740570068359375">
        <ele>1532.800048828125</ele>
        <time>2026-09-01T10:17:53.000Z</time>
        <extensions>
          <ns3:TrackPointExtension>
            <ns3:hr>154</ns3:hr>
            <ns3:cad>86</ns3:cad>
          </ns3:TrackPointExtension>
        </extensions>
      </trkpt>
      <trkpt lat="47.48152085579931735992431640625" lon="10.00256032682955265045166015625">
        <ele>1531.800048828125</ele>
        <time>2026-09-01T10:17:55.000Z</time>
        <extensions>
          <ns3:TrackPointExtension>
            <ns3:hr>153</ns3:hr>
            <ns3:cad>86</ns3:cad>
          </ns3:TrackPointExtension>
        </extensions>
      </trkpt>
      <trkpt lat="47.481494955718517303466796875" lon="10.00255714170634746551513671875">
        <ele>1531.199951171875</ele>
        <time>2026-09-01T10:17:56.000Z</time>
        <extensions>
          <ns3:TrackPointExtension>
            <ns3:hr>153</ns3:hr>
            <ns3:cad>86</ns3:cad>
          </ns3:TrackPointExtension>
        </extensions>
      </trkpt>
      <trkpt lat="47.48146503232419490814208984375" lon="10.0025486759841442108154296875">
        <ele>1530.4000244140625</ele>
        <time>2026-09-01T10:17:57.000Z</time>
        <extensions>
          <ns3:TrackPointExtension>
            <ns3:hr>154</ns3:hr>
            <ns3:cad>94</ns3:cad>
          </ns3:TrackPointExtension>
        </extensions>
      </trkpt>
      <trkpt lat="47.48140686191618442535400390625" lon="10.00251908786594867706298828125">
        <ele>1528.5999755859375</ele>
        <time>2026-09-01T10:17:59.000Z</time>
        <extensions>
          <ns3:TrackPointExtension>
            <ns3:hr>154</ns3:hr>
            <ns3:cad>94</ns3:cad>
          </ns3:TrackPointExtension>
        </extensions>
      </trkpt>
      <trkpt lat="47.48139135539531707763671875" lon="10.00249461270868778228759765625">
        <ele>1527.800048828125</ele>
        <time>2026-09-01T10:18:00.000Z</time>
        <extensions>
          <ns3:TrackPointExtension>
            <ns3:hr>154</ns3:hr>
            <ns3:cad>93</ns3:cad>
          </ns3:TrackPointExtension>
        </extensions>
      </trkpt>
      <trkpt lat="47.481387667357921600341796875" lon="10.00245831906795501708984375">
        <ele>1526.800048828125</ele>
        <time>2026-09-01T10:18:01.000Z</time>
        <extensions>
          <ns3:TrackPointExtension>
            <ns3:hr>154</ns3:hr>
            <ns3:cad>93</ns3:cad>
          </ns3:TrackPointExtension>
        </extensions>
      </trkpt>
      <trkpt lat="47.4813680537045001983642578125" lon="10.002378523349761962890625">
        <ele>1524.800048828125</ele>
        <time>2026-09-01T10:18:03.000Z</time>
        <extensions>
          <ns3:TrackPointExtension>
            <ns3:hr>154</ns3:hr>
            <ns3:cad>0</ns3:cad>
          </ns3:TrackPointExtension>
        </extensions>
      </trkpt>
      <trkpt lat="47.481364198029041290283203125" lon="10.00234298408031463623046875">
        <ele>1523.800048828125</ele>
        <time>2026-09-01T10:18:04.000Z</time>
        <extensions>
          <ns3:TrackPointExtension>
            <ns3:hr>153</ns3:hr>
            <ns3:cad>0</ns3:cad>
          </ns3:TrackPointExtension>
        </extensions>
      </trkpt>
      <trkpt lat="47.48135388828814029693603515625" lon="10.002313815057277679443359375">
        <ele>1522.5999755859375</ele>
        <time>2026-09-01T10:18:05.000Z</time>
        <extensions>
          <ns3:TrackPointExtension>
            <ns3:hr>153</ns3:hr>
            <ns3:cad>0</ns3:cad>
          </ns3:TrackPointExtension>
        </extensions>
      </trkpt>
      <trkpt lat="47.48134466819465160369873046875" lon="10.00229713506996631622314453125">
        <ele>1521.4000244140625</ele>
        <time>2026-09-01T10:18:06.000Z</time>
        <extensions>
          <ns3:TrackPointExtension>
            <ns3:hr>154</ns3:hr>
            <ns3:cad>0</ns3:cad>
          </ns3:TrackPointExtension>
        </extensions>
      </trkpt>
      <trkpt lat="47.4813405610620975494384765625" lon="10.00223577953875064849853515625">
        <ele>1519.800048828125</ele>
        <time>2026-09-01T10:18:08.000Z</time>
        <extensions>
          <ns3:TrackPointExtension>
            <ns3:hr>153</ns3:hr>
            <ns3:cad>0</ns3:cad>
          </ns3:TrackPointExtension>
        </extensions>
      </trkpt>
      <trkpt lat="47.4813504517078399658203125" lon="10.0022097118198871612548828125">
        <ele>1519</ele>
        <time>2026-09-01T10:18:09.000Z</time>
        <extensions>
          <ns3:TrackPointExtension>
            <ns3:hr>153</ns3:hr>
            <ns3:cad>0</ns3:cad>
          </ns3:TrackPointExtension>
        </extensions>
      </trkpt>
      <trkpt lat="47.48135908506810665130615234375" lon="10.00217978842556476593017578125">
        <ele>1518.199951171875</ele>
        <time>2026-09-01T10:18:10.000Z</time>
        <extensions>
          <ns3:TrackPointExtension>
            <ns3:hr>152</ns3:hr>
            <ns3:cad>0</ns3:cad>
          </ns3:TrackPointExtension>
        </extensions>
      </trkpt>
      <trkpt lat="47.48137702234089374542236328125" lon="10.00208079814910888671875">
        <ele>1516.5999755859375</ele>
        <time>2026-09-01T10:18:12.000Z</time>
        <extensions>
          <ns3:TrackPointExtension>
            <ns3:hr>151</ns3:hr>
            <ns3:cad>0</ns3:cad>
          </ns3:TrackPointExtension>
        </extensions>
      </trkpt>
      <trkpt lat="47.48137920163571834564208984375" lon="10.0020330213010311126708984375">
        <ele>1516</ele>
        <time>2026-09-01T10:18:13.000Z</time>
        <extensions>
          <ns3:TrackPointExtension>
            <ns3:hr>151</ns3:hr>
            <ns3:cad>0</ns3:cad>
          </ns3:TrackPointExtension>
        </extensions>
      </trkpt>
      <trkpt lat="47.48137886635959148406982421875" lon="10.00197887420654296875">
        <ele>1515.4000244140625</ele>
        <time>2026-09-01T10:18:14.000Z</time>
        <extensions>
          <ns3:TrackPointExtension>
            <ns3:hr>151</ns3:hr>
            <ns3:cad>0</ns3:cad>
          </ns3:TrackPointExtension>
        </extensions>
      </trkpt>
      <trkpt lat="47.4813784472644329071044921875" lon="10.00188742764294147491455078125">
        <ele>1514.199951171875</ele>
        <time>2026-09-01T10:18:16.000Z</time>
        <extensions>
          <ns3:TrackPointExtension>
            <ns3:hr>152</ns3:hr>
            <ns3:cad>0</ns3:cad>
          </ns3:TrackPointExtension>
        </extensions>
      </trkpt>
      <trkpt lat="47.48137517832219600677490234375" lon="10.00183462165296077728271484375">
        <ele>1513.800048828125</ele>
        <time>2026-09-01T10:18:17.000Z</time>
        <extensions>
          <ns3:TrackPointExtension>
            <ns3:hr>152</ns3:hr>
            <ns3:cad>0</ns3:cad>
          </ns3:TrackPointExtension>
        </extensions>
      </trkpt>
      <trkpt lat="47.4813871644437313079833984375" lon="10.00169749371707439422607421875">
        <ele>1513</ele>
        <time>2026-09-01T10:18:20.000Z</time>
        <extensions>
          <ns3:TrackPointExtension>
            <ns3:hr>152</ns3:hr>
            <ns3:cad>0</ns3:cad>
          </ns3:TrackPointExtension>
        </extensions>
      </trkpt>
      <trkpt lat="47.481444664299488067626953125" lon="10.00158215872943401336669921875">
        <ele>1511.800048828125</ele>
        <time>2026-09-01T10:18:23.000Z</time>
        <extensions>
          <ns3:TrackPointExtension>
            <ns3:hr>151</ns3:hr>
            <ns3:cad>84</ns3:cad>
          </ns3:TrackPointExtension>
        </extensions>
      </trkpt>
      <trkpt lat="47.48151381500065326690673828125" lon="10.00148274935781955718994140625">
        <ele>1510.5999755859375</ele>
        <time>2026-09-01T10:18:26.000Z</time>
        <extensions>
          <ns3:TrackPointExtension>
            <ns3:hr>151</ns3:hr>
            <ns3:cad>85</ns3:cad>
          </ns3:TrackPointExtension>
        </extensions>
      </trkpt>
      <trkpt lat="47.48154466040432453155517578125" lon="10.00143849290907382965087890625">
        <ele>1509.800048828125</ele>
        <time>2026-09-01T10:18:27.000Z</time>
        <extensions>
          <ns3:TrackPointExtension>
            <ns3:hr>152</ns3:hr>
            <ns3:cad>85</ns3:cad>
          </ns3:TrackPointExtension>
        </extensions>
      </trkpt>
      <trkpt lat="47.48156595043838024139404296875" lon="10.00140798278152942657470703125">
        <ele>1509</ele>
        <time>2026-09-01T10:18:28.000Z</time>
        <extensions>
          <ns3:TrackPointExtension>
            <ns3:hr>152</ns3:hr>
            <ns3:cad>85</ns3:cad>
          </ns3:TrackPointExtension>
        </extensions>
      </trkpt>
      <trkpt lat="47.481584809720516204833984375" lon="10.00138233415782451629638671875">
        <ele>1507.800048828125</ele>
        <time>2026-09-01T10:18:30.000Z</time>
        <extensions>
          <ns3:TrackPointExtension>
            <ns3:hr>151</ns3:hr>
            <ns3:cad>87</ns3:cad>
          </ns3:TrackPointExtension>
        </extensions>
      </trkpt>
      <trkpt lat="47.48157148249447345733642578125" lon="10.0013839267194271087646484375">
        <ele>1507.4000244140625</ele>
        <time>2026-09-01T10:18:31.000Z</time>
        <extensions>
          <ns3:TrackPointExtension>
            <ns3:hr>151</ns3:hr>
            <ns3:cad>87</ns3:cad>
          </ns3:TrackPointExtension>
        </extensions>
      </trkpt>
      <trkpt lat="47.48157374560832977294921875" lon="10.0013835914433002471923828125">
        <ele>1506.800048828125</ele>
        <time>2026-09-01T10:18:33.000Z</time>
        <extensions>
          <ns3:TrackPointExtension>
            <ns3:hr>151</ns3:hr>
            <ns3:cad>87</ns3:cad>
          </ns3:TrackPointExtension>
        </extensions>
      </trkpt>
      <trkpt lat="47.48161573894321918487548828125" lon="10.0013014487922191619873046875">
        <ele>1506.5999755859375</ele>
        <time>2026-09-01T10:18:36.000Z</time>
        <extensions>
          <ns3:TrackPointExtension>
            <ns3:hr>149</ns3:hr>
            <ns3:cad>87</ns3:cad>
          </ns3:TrackPointExtension>
        </extensions>
      </trkpt>
      <trkpt lat="47.4816775135695934295654296875" lon="10.0011183880269527435302734375">
        <ele>1505.800048828125</ele>
        <time>2026-09-01T10:18:40.000Z</time>
        <extensions>
          <ns3:TrackPointExtension>
            <ns3:hr>148</ns3:hr>
            <ns3:cad>81</ns3:cad>
          </ns3:TrackPointExtension>
        </extensions>
      </trkpt>
      <trkpt lat="47.48169905506074428558349609375" lon="10.00107823871076107025146484375">
        <ele>1505.4000244140625</ele>
        <time>2026-09-01T10:18:41.000Z</time>
        <extensions>
          <ns3:TrackPointExtension>
            <ns3:hr>148</ns3:hr>
            <ns3:cad>81</ns3:cad>
          </ns3:TrackPointExtension>
        </extensions>
      </trkpt>
      <trkpt lat="47.48177415691316127777099609375" lon="10.00095318071544170379638671875">
        <ele>1505.199951171875</ele>
        <time>2026-09-01T10:18:44.000Z</time>
        <extensions>
          <ns3:TrackPointExtension>
            <ns3:hr>147</ns3:hr>
            <ns3:cad>82</ns3:cad>
          </ns3:TrackPointExtension>
        </extensions>
      </trkpt>
      <trkpt lat="47.4818360991775989532470703125" lon="10.00082359649240970611572265625">
        <ele>1504.5999755859375</ele>
        <time>2026-09-01T10:18:47.000Z</time>
        <extensions>
          <ns3:TrackPointExtension>
            <ns3:hr>150</ns3:hr>
            <ns3:cad>84</ns3:cad>
          </ns3:TrackPointExtension>
        </extensions>
      </trkpt>
      <trkpt lat="47.48184858821332454681396484375" lon="10.00078327953815460205078125">
        <ele>1504.5999755859375</ele>
        <time>2026-09-01T10:18:48.000Z</time>
        <extensions>
          <ns3:TrackPointExtension>
            <ns3:hr>151</ns3:hr>
            <ns3:cad>84</ns3:cad>
          </ns3:TrackPointExtension>
        </extensions>
      </trkpt>
      <trkpt lat="47.48185361735522747039794921875" lon="10.00072033144533634185791015625">
        <ele>1504.4000244140625</ele>
        <time>2026-09-01T10:18:49.000Z</time>
        <extensions>
          <ns3:TrackPointExtension>
            <ns3:hr>152</ns3:hr>
            <ns3:cad>88</ns3:cad>
          </ns3:TrackPointExtension>
        </extensions>
      </trkpt>
      <trkpt lat="47.48186367563903331756591796875" lon="10.00062745995819568634033203125">
        <ele>1504.199951171875</ele>
        <time>2026-09-01T10:18:51.000Z</time>
        <extensions>
          <ns3:TrackPointExtension>
            <ns3:hr>151</ns3:hr>
            <ns3:cad>86</ns3:cad>
          </ns3:TrackPointExtension>
        </extensions>
      </trkpt>
      <trkpt lat="47.4818877317011356353759765625" lon="10.00050256960093975067138671875">
        <ele>1504</ele>
        <time>2026-09-01T10:18:55.000Z</time>
        <extensions>
          <ns3:TrackPointExtension>
            <ns3:hr>151</ns3:hr>
            <ns3:cad>85</ns3:cad>
          </ns3:TrackPointExtension>
        </extensions>
      </trkpt>
      <trkpt lat="47.481897957623004913330078125" lon="10.00040148384869098663330078125">
        <ele>1504.199951171875</ele>
        <time>2026-09-01T10:18:58.000Z</time>
        <extensions>
          <ns3:TrackPointExtension>
            <ns3:hr>152</ns3:hr>
            <ns3:cad>85</ns3:cad>
          </ns3:TrackPointExtension>
        </extensions>
      </trkpt>
      <trkpt lat="47.48191715218126773834228515625" lon="10.00025664456188678741455078125">
        <ele>1504.4000244140625</ele>
        <time>2026-09-01T10:19:01.000Z</time>
        <extensions>
          <ns3:TrackPointExtension>
            <ns3:hr>153</ns3:hr>
            <ns3:cad>83</ns3:cad>
          </ns3:TrackPointExtension>
        </extensions>
      </trkpt>
      <trkpt lat="47.48194112442433834075927734375" lon="10.0000260584056377410888671875">
        <ele>1505</ele>
        <time>2026-09-01T10:19:06.000Z</time>
        <extensions>
          <ns3:TrackPointExtension>
            <ns3:hr>155</ns3:hr>
            <ns3:cad>85</ns3:cad>
          </ns3:TrackPointExtension>
        </extensions>
      </trkpt>
      <trkpt lat="47.481948919594287872314453125" lon="9.99994282610714435577392578125">
        <ele>1505.4000244140625</ele>
        <time>2026-09-01T10:19:08.000Z</time>
        <extensions>
          <ns3:TrackPointExtension>
            <ns3:hr>156</ns3:hr>
            <ns3:cad>85</ns3:cad>
          </ns3:TrackPointExtension>
        </extensions>
      </trkpt>
      <trkpt lat="47.4819500930607318878173828125" lon="9.99990577809512615203857421875">
        <ele>1505.5999755859375</ele>
        <time>2026-09-01T10:19:09.000Z</time>
        <extensions>
          <ns3:TrackPointExtension>
            <ns3:hr>156</ns3:hr>
            <ns3:cad>85</ns3:cad>
          </ns3:TrackPointExtension>
        </extensions>
      </trkpt>
      <trkpt lat="47.4819571338593959808349609375" lon="9.99970025382936000823974609375">
        <ele>1506.5999755859375</ele>
        <time>2026-09-01T10:19:14.000Z</time>
        <extensions>
          <ns3:TrackPointExtension>
            <ns3:hr>157</ns3:hr>
            <ns3:cad>85</ns3:cad>
          </ns3:TrackPointExtension>
        </extensions>
      </trkpt>
      <trkpt lat="47.48194523155689239501953125" lon="9.99953982420265674591064453125">
        <ele>1507.4000244140625</ele>
        <time>2026-09-01T10:19:18.000Z</time>
        <extensions>
          <ns3:TrackPointExtension>
            <ns3:hr>157</ns3:hr>
            <ns3:cad>85</ns3:cad>
          </ns3:TrackPointExtension>
        </extensions>
      </trkpt>
      <trkpt lat="47.481934167444705963134765625" lon="9.99946363270282745361328125">
        <ele>1507.5999755859375</ele>
        <time>2026-09-01T10:19:20.000Z</time>
        <extensions>
          <ns3:TrackPointExtension>
            <ns3:hr>158</ns3:hr>
            <ns3:cad>84</ns3:cad>
          </ns3:TrackPointExtension>
        </extensions>
      </trkpt>
      <trkpt lat="47.48192846775054931640625" lon="9.99942750670015811920166015625">
        <ele>1507.800048828125</ele>
        <time>2026-09-01T10:19:21.000Z</time>
        <extensions>
          <ns3:TrackPointExtension>
            <ns3:hr>158</ns3:hr>
            <ns3:cad>84</ns3:cad>
          </ns3:TrackPointExtension>
        </extensions>
      </trkpt>
      <trkpt lat="47.48191262595355510711669921875" lon="9.99926841817796230316162109375">
        <ele>1508.4000244140625</ele>
        <time>2026-09-01T10:19:25.000Z</time>
        <extensions>
          <ns3:TrackPointExtension>
            <ns3:hr>158</ns3:hr>
            <ns3:cad>84</ns3:cad>
          </ns3:TrackPointExtension>
        </extensions>
      </trkpt>
      <trkpt lat="47.4818977899849414825439453125" lon="9.99920387752354145050048828125">
        <ele>1508.800048828125</ele>
        <time>2026-09-01T10:19:27.000Z</time>
        <extensions>
          <ns3:TrackPointExtension>
            <ns3:hr>157</ns3:hr>
            <ns3:cad>86</ns3:cad>
          </ns3:TrackPointExtension>
        </extensions>
      </trkpt>
      <trkpt lat="47.4818853847682476043701171875" lon="9.999127350747585296630859375">
        <ele>1509.199951171875</ele>
        <time>2026-09-01T10:19:29.000Z</time>
        <extensions>
          <ns3:TrackPointExtension>
            <ns3:hr>158</ns3:hr>
            <ns3:cad>85</ns3:cad>
          </ns3:TrackPointExtension>
        </extensions>
      </trkpt>
      <trkpt lat="47.48186074197292327880859375" lon="9.9990024603903293609619140625">
        <ele>1509.800048828125</ele>
        <time>2026-09-01T10:19:35.000Z</time>
        <extensions>
          <ns3:TrackPointExtension>
            <ns3:hr>160</ns3:hr>
            <ns3:cad>83</ns3:cad>
          </ns3:TrackPointExtension>
        </extensions>
      </trkpt>
      <trkpt lat="47.48185713775455951690673828125" lon="9.998981840908527374267578125">
        <ele>1510</ele>
        <time>2026-09-01T10:19:36.000Z</time>
        <extensions>
          <ns3:TrackPointExtension>
            <ns3:hr>160</ns3:hr>
            <ns3:cad>83</ns3:cad>
          </ns3:TrackPointExtension>
        </extensions>
      </trkpt>
      <trkpt lat="47.48183685354888439178466796875" lon="9.99886373989284038543701171875">
        <ele>1509.800048828125</ele>
        <time>2026-09-01T10:19:40.000Z</time>
        <extensions>
          <ns3:TrackPointExtension>
            <ns3:hr>158</ns3:hr>
            <ns3:cad>0</ns3:cad>
          </ns3:TrackPointExtension>
        </extensions>
      </trkpt>
      <trkpt lat="47.4818200059235095977783203125" lon="9.99875955283641815185546875">
        <ele>1510.199951171875</ele>
        <time>2026-09-01T10:19:44.000Z</time>
        <extensions>
          <ns3:TrackPointExtension>
            <ns3:hr>156</ns3:hr>
            <ns3:cad>83</ns3:cad>
          </ns3:TrackPointExtension>
        </extensions>
      </trkpt>
      <trkpt lat="47.48180709779262542724609375" lon="9.9986061640083789825439453125">
        <ele>1511</ele>
        <time>2026-09-01T10:19:48.000Z</time>
        <extensions>
          <ns3:TrackPointExtension>
            <ns3:hr>154</ns3:hr>
            <ns3:cad>86</ns3:cad>
          </ns3:TrackPointExtension>
        </extensions>
      </trkpt>
      <trkpt lat="47.4817945249378681182861328125" lon="9.99856668524444103240966796875">
        <ele>1511.199951171875</ele>
        <time>2026-09-01T10:19:49.000Z</time>
        <extensions>
          <ns3:TrackPointExtension>
            <ns3:hr>154</ns3:hr>
            <ns3:cad>86</ns3:cad>
          </ns3:TrackPointExtension>
        </extensions>
      </trkpt>
      <trkpt lat="47.48175018467009067535400390625" lon="9.99834959395229816436767578125">
        <ele>1511.5999755859375</ele>
        <time>2026-09-01T10:19:54.000Z</time>
        <extensions>
          <ns3:TrackPointExtension>
            <ns3:hr>156</ns3:hr>
            <ns3:cad>85</ns3:cad>
          </ns3:TrackPointExtension>
        </extensions>
      </trkpt>
      <trkpt lat="47.48173945583403110504150390625" lon="9.998266361653804779052734375">
        <ele>1511.5999755859375</ele>
        <time>2026-09-01T10:19:56.000Z</time>
        <extensions>
          <ns3:TrackPointExtension>
            <ns3:hr>156</ns3:hr>
            <ns3:cad>86</ns3:cad>
          </ns3:TrackPointExtension>
        </extensions>
      </trkpt>
      <trkpt lat="47.48173342086374759674072265625" lon="9.9981810338795185089111328125">
        <ele>1511.4000244140625</ele>
        <time>2026-09-01T10:19:58.000Z</time>
        <extensions>
          <ns3:TrackPointExtension>
            <ns3:hr>156</ns3:hr>
            <ns3:cad>86</ns3:cad>
          </ns3:TrackPointExtension>
        </extensions>
      </trkpt>
      <trkpt lat="47.4817254580557346343994140625" lon="9.997997470200061798095703125">
        <ele>1510.800048828125</ele>
        <time>2026-09-01T10:20:02.000Z</time>
        <extensions>
          <ns3:TrackPointExtension>
            <ns3:hr>158</ns3:hr>
            <ns3:cad>86</ns3:cad>
          </ns3:TrackPointExtension>
        </extensions>
      </trkpt>
      <trkpt lat="47.48176979832351207733154296875" lon="9.99784751795232295989990234375">
        <ele>1510</ele>
        <time>2026-09-01T10:20:06.000Z</time>
        <extensions>
          <ns3:TrackPointExtension>
            <ns3:hr>157</ns3:hr>
            <ns3:cad>84</ns3:cad>
          </ns3:TrackPointExtension>
        </extensions>
      </trkpt>
      <trkpt lat="47.48178103007376194000244140625" lon="9.9978068657219409942626953125">
        <ele>1510</ele>
        <time>2026-09-01T10:20:07.000Z</time>
        <extensions>
          <ns3:TrackPointExtension>
            <ns3:hr>157</ns3:hr>
            <ns3:cad>84</ns3:cad>
          </ns3:TrackPointExtension>
        </extensions>
      </trkpt>
      <trkpt lat="47.48179025016725063323974609375" lon="9.9976670555770397186279296875">
        <ele>1509.4000244140625</ele>
        <time>2026-09-01T10:20:10.000Z</time>
        <extensions>
          <ns3:TrackPointExtension>
            <ns3:hr>157</ns3:hr>
            <ns3:cad>82</ns3:cad>
          </ns3:TrackPointExtension>
        </extensions>
      </trkpt>
      <trkpt lat="47.48176644556224346160888671875" lon="9.9975621141493320465087890625">
        <ele>1508.5999755859375</ele>
        <time>2026-09-01T10:20:12.000Z</time>
        <extensions>
          <ns3:TrackPointExtension>
            <ns3:hr>157</ns3:hr>
            <ns3:cad>81</ns3:cad>
          </ns3:TrackPointExtension>
        </extensions>
      </trkpt>
      <trkpt lat="47.4817519448697566986083984375" lon="9.99751492403447628021240234375">
        <ele>1508.199951171875</ele>
        <time>2026-09-01T10:20:13.000Z</time>
        <extensions>
          <ns3:TrackPointExtension>
            <ns3:hr>157</ns3:hr>
            <ns3:cad>81</ns3:cad>
          </ns3:TrackPointExtension>
        </extensions>
      </trkpt>
      <trkpt lat="47.48172285966575145721435546875" lon="9.99740646220743656158447265625">
        <ele>1507.4000244140625</ele>
        <time>2026-09-01T10:20:15.000Z</time>
        <extensions>
          <ns3:TrackPointExtension>
            <ns3:hr>156</ns3:hr>
            <ns3:cad>82</ns3:cad>
          </ns3:TrackPointExtension>
        </extensions>
      </trkpt>
      <trkpt lat="47.481712885200977325439453125" lon="9.99734711833298206329345703125">
        <ele>1507</ele>
        <time>2026-09-01T10:20:16.000Z</time>
        <extensions>
          <ns3:TrackPointExtension>
            <ns3:hr>156</ns3:hr>
            <ns3:cad>82</ns3:cad>
          </ns3:TrackPointExtension>
        </extensions>
      </trkpt>
      <trkpt lat="47.4816765077412128448486328125" lon="9.99717411585152149200439453125">
        <ele>1506.199951171875</ele>
        <time>2026-09-01T10:20:19.000Z</time>
        <extensions>
          <ns3:TrackPointExtension>
            <ns3:hr>156</ns3:hr>
            <ns3:cad>85</ns3:cad>
          </ns3:TrackPointExtension>
        </extensions>
      </trkpt>
      <trkpt lat="47.48167223297059535980224609375" lon="9.99712449498474597930908203125">
        <ele>1505.800048828125</ele>
        <time>2026-09-01T10:20:20.000Z</time>
        <extensions>
          <ns3:TrackPointExtension>
            <ns3:hr>156</ns3:hr>
            <ns3:cad>85</ns3:cad>
          </ns3:TrackPointExtension>
        </extensions>
      </trkpt>
      <trkpt lat="47.48165555298328399658203125" lon="9.99700580723583698272705078125">
        <ele>1504.800048828125</ele>
        <time>2026-09-01T10:20:22.000Z</time>
        <extensions>
          <ns3:TrackPointExtension>
            <ns3:hr>156</ns3:hr>
            <ns3:cad>83</ns3:cad>
          </ns3:TrackPointExtension>
        </extensions>
      </trkpt>
      <trkpt lat="47.48162864707410335540771484375" lon="9.99689818359911441802978515625">
        <ele>1504</ele>
        <time>2026-09-01T10:20:24.000Z</time>
        <extensions>
          <ns3:TrackPointExtension>
            <ns3:hr>156</ns3:hr>
            <ns3:cad>84</ns3:cad>
          </ns3:TrackPointExtension>
        </extensions>
      </trkpt>
      <trkpt lat="47.48162663541734218597412109375" lon="9.99684982001781463623046875">
        <ele>1503.5999755859375</ele>
        <time>2026-09-01T10:20:25.000Z</time>
        <extensions>
          <ns3:TrackPointExtension>
            <ns3:hr>155</ns3:hr>
            <ns3:cad>84</ns3:cad>
          </ns3:TrackPointExtension>
        </extensions>
      </trkpt>
      <trkpt lat="47.48161070980131626129150390625" lon="9.99668528325855731964111328125">
        <ele>1502.4000244140625</ele>
        <time>2026-09-01T10:20:28.000Z</time>
        <extensions>
          <ns3:TrackPointExtension>
            <ns3:hr>155</ns3:hr>
            <ns3:cad>85</ns3:cad>
          </ns3:TrackPointExtension>
        </extensions>
      </trkpt>
      <trkpt lat="47.4815742485225200653076171875" lon="9.99651278369128704071044921875">
        <ele>1501.4000244140625</ele>
        <time>2026-09-01T10:20:31.000Z</time>
        <extensions>
          <ns3:TrackPointExtension>
            <ns3:hr>154</ns3:hr>
            <ns3:cad>82</ns3:cad>
          </ns3:TrackPointExtension>
        </extensions>
      </trkpt>
      <trkpt lat="47.4815581552684307098388671875" lon="9.9964489974081516265869140625">
        <ele>1501.199951171875</ele>
        <time>2026-09-01T10:20:32.000Z</time>
        <extensions>
          <ns3:TrackPointExtension>
            <ns3:hr>154</ns3:hr>
            <ns3:cad>82</ns3:cad>
          </ns3:TrackPointExtension>
        </extensions>
      </trkpt>
      <trkpt lat="47.4815356917679309844970703125" lon="9.9963400326669216156005859375">
        <ele>1500.5999755859375</ele>
        <time>2026-09-01T10:20:34.000Z</time>
        <extensions>
          <ns3:TrackPointExtension>
            <ns3:hr>152</ns3:hr>
            <ns3:cad>82</ns3:cad>
          </ns3:TrackPointExtension>
        </extensions>
      </trkpt>
      <trkpt lat="47.481521777808666229248046875" lon="9.99624037183821201324462890625">
        <ele>1500</ele>
        <time>2026-09-01T10:20:36.000Z</time>
        <extensions>
          <ns3:TrackPointExtension>
            <ns3:hr>152</ns3:hr>
            <ns3:cad>83</ns3:cad>
          </ns3:TrackPointExtension>
        </extensions>
      </trkpt>
      <trkpt lat="47.48150677420198917388916015625" lon="9.99618018977344036102294921875">
        <ele>1499.800048828125</ele>
        <time>2026-09-01T10:20:37.000Z</time>
        <extensions>
          <ns3:TrackPointExtension>
            <ns3:hr>152</ns3:hr>
            <ns3:cad>84</ns3:cad>
          </ns3:TrackPointExtension>
        </extensions>
      </trkpt>
      <trkpt lat="47.4814843945205211639404296875" lon="9.99607642181217670440673828125">
        <ele>1499</ele>
        <time>2026-09-01T10:20:39.000Z</time>
        <extensions>
          <ns3:TrackPointExtension>
            <ns3:hr>153</ns3:hr>
            <ns3:cad>84</ns3:cad>
          </ns3:TrackPointExtension>
        </extensions>
      </trkpt>
      <trkpt lat="47.48147693462669849395751953125" lon="9.99603099189698696136474609375">
        <ele>1498.5999755859375</ele>
        <time>2026-09-01T10:20:40.000Z</time>
        <extensions>
          <ns3:TrackPointExtension>
            <ns3:hr>153</ns3:hr>
            <ns3:cad>84</ns3:cad>
          </ns3:TrackPointExtension>
        </extensions>
      </trkpt>
      <trkpt lat="47.48144189827144145965576171875" lon="9.9958763457834720611572265625">
        <ele>1497.800048828125</ele>
        <time>2026-09-01T10:20:43.000Z</time>
        <extensions>
          <ns3:TrackPointExtension>
            <ns3:hr>153</ns3:hr>
            <ns3:cad>83</ns3:cad>
          </ns3:TrackPointExtension>
        </extensions>
      </trkpt>
      <trkpt lat="47.481427229940891265869140625" lon="9.9958143197000026702880859375">
        <ele>1497.4000244140625</ele>
        <time>2026-09-01T10:20:44.000Z</time>
        <extensions>
          <ns3:TrackPointExtension>
            <ns3:hr>152</ns3:hr>
            <ns3:cad>83</ns3:cad>
          </ns3:TrackPointExtension>
        </extensions>
      </trkpt>
      <trkpt lat="47.48138641007244586944580078125" lon="9.99565028585493564605712890625">
        <ele>1496.4000244140625</ele>
        <time>2026-09-01T10:20:47.000Z</time>
        <extensions>
          <ns3:TrackPointExtension>
            <ns3:hr>153</ns3:hr>
            <ns3:cad>84</ns3:cad>
          </ns3:TrackPointExtension>
        </extensions>
      </trkpt>
      <trkpt lat="47.48137685470283031463623046875" lon="9.9956019222736358642578125">
        <ele>1496</ele>
        <time>2026-09-01T10:20:48.000Z</time>
        <extensions>
          <ns3:TrackPointExtension>
            <ns3:hr>153</ns3:hr>
            <ns3:cad>83</ns3:cad>
          </ns3:TrackPointExtension>
        </extensions>
      </trkpt>
      <trkpt lat="47.48135439120233058929443359375" lon="9.99548549763858318328857421875">
        <ele>1495.199951171875</ele>
        <time>2026-09-01T10:20:50.000Z</time>
        <extensions>
          <ns3:TrackPointExtension>
            <ns3:hr>152</ns3:hr>
            <ns3:cad>83</ns3:cad>
          </ns3:TrackPointExtension>
        </extensions>
      </trkpt>
      <trkpt lat="47.4813291616737842559814453125" lon="9.99538172967731952667236328125">
        <ele>1494.199951171875</ele>
        <time>2026-09-01T10:20:52.000Z</time>
        <extensions>
          <ns3:TrackPointExtension>
            <ns3:hr>152</ns3:hr>
            <ns3:cad>83</ns3:cad>
          </ns3:TrackPointExtension>
        </extensions>
      </trkpt>
      <trkpt lat="47.481321282684803009033203125" lon="9.99533629976212978363037109375">
        <ele>1493.5999755859375</ele>
        <time>2026-09-01T10:20:53.000Z</time>
        <extensions>
          <ns3:TrackPointExtension>
            <ns3:hr>152</ns3:hr>
            <ns3:cad>83</ns3:cad>
          </ns3:TrackPointExtension>
        </extensions>
      </trkpt>
      <trkpt lat="47.48128817416727542877197265625" lon="9.99523253180086612701416015625">
        <ele>1492.800048828125</ele>
        <time>2026-09-01T10:20:55.000Z</time>
        <extensions>
          <ns3:TrackPointExtension>
            <ns3:hr>151</ns3:hr>
            <ns3:cad>83</ns3:cad>
          </ns3:TrackPointExtension>
        </extensions>
      </trkpt>
      <trkpt lat="47.48127375729382038116455078125" lon="9.99518928118050098419189453125">
        <ele>1492.4000244140625</ele>
        <time>2026-09-01T10:20:56.000Z</time>
        <extensions>
          <ns3:TrackPointExtension>
            <ns3:hr>151</ns3:hr>
            <ns3:cad>83</ns3:cad>
          </ns3:TrackPointExtension>
        </extensions>
      </trkpt>
      <trkpt lat="47.4812269024550914764404296875" lon="9.99504175968468189239501953125">
        <ele>1491</ele>
        <time>2026-09-01T10:21:00.000Z</time>
        <extensions>
          <ns3:TrackPointExtension>
            <ns3:hr>149</ns3:hr>
            <ns3:cad>83</ns3:cad>
          </ns3:TrackPointExtension>
        </extensions>
      </trkpt>
      <trkpt lat="47.48118842951953411102294921875" lon="9.99491217546164989471435546875">
        <ele>1490.4000244140625</ele>
        <time>2026-09-01T10:21:03.000Z</time>
        <extensions>
          <ns3:TrackPointExtension>
            <ns3:hr>146</ns3:hr>
            <ns3:cad>83</ns3:cad>
          </ns3:TrackPointExtension>
        </extensions>
      </trkpt>
      <trkpt lat="47.48117753304541110992431640625" lon="9.99485869891941547393798828125">
        <ele>1490</ele>
        <time>2026-09-01T10:21:04.000Z</time>
        <extensions>
          <ns3:TrackPointExtension>
            <ns3:hr>146</ns3:hr>
            <ns3:cad>83</ns3:cad>
          </ns3:TrackPointExtension>
        </extensions>
      </trkpt>
      <trkpt lat="47.48116479255259037017822265625" lon="9.99480731785297393798828125">
        <ele>1489.800048828125</ele>
        <time>2026-09-01T10:21:05.000Z</time>
        <extensions>
          <ns3:TrackPointExtension>
            <ns3:hr>146</ns3:hr>
            <ns3:cad>84</ns3:cad>
          </ns3:TrackPointExtension>
        </extensions>
      </trkpt>
      <trkpt lat="47.48110293410718441009521484375" lon="9.99466557987034320831298828125">
        <ele>1488.5999755859375</ele>
        <time>2026-09-01T10:21:08.000Z</time>
        <extensions>
          <ns3:TrackPointExtension>
            <ns3:hr>148</ns3:hr>
            <ns3:cad>83</ns3:cad>
          </ns3:TrackPointExtension>
        </extensions>
      </trkpt>
      <trkpt lat="47.48101090081036090850830078125" lon="9.99456868506968021392822265625">
        <ele>1487.199951171875</ele>
        <time>2026-09-01T10:21:11.000Z</time>
        <extensions>
          <ns3:TrackPointExtension>
            <ns3:hr>149</ns3:hr>
            <ns3:cad>83</ns3:cad>
          </ns3:TrackPointExtension>
        </extensions>
      </trkpt>
      <trkpt lat="47.4809690751135349273681640625" lon="9.99455845914781093597412109375">
        <ele>1486.800048828125</ele>
        <time>2026-09-01T10:21:12.000Z</time>
        <extensions>
          <ns3:TrackPointExtension>
            <ns3:hr>149</ns3:hr>
            <ns3:cad>83</ns3:cad>
          </ns3:TrackPointExtension>
        </extensions>
      </trkpt>
      <trkpt lat="47.48089824803173542022705078125" lon="9.99454622156918048858642578125">
        <ele>1486</ele>
        <time>2026-09-01T10:21:14.000Z</time>
        <extensions>
          <ns3:TrackPointExtension>
            <ns3:hr>149</ns3:hr>
            <ns3:cad>84</ns3:cad>
          </ns3:TrackPointExtension>
        </extensions>
      </trkpt>
      <trkpt lat="47.4808332882821559906005859375" lon="9.99452166259288787841796875">
        <ele>1485.4000244140625</ele>
        <time>2026-09-01T10:21:16.000Z</time>
        <extensions>
          <ns3:TrackPointExtension>
            <ns3:hr>151</ns3:hr>
            <ns3:cad>84</ns3:cad>
          </ns3:TrackPointExtension>
        </extensions>
      </trkpt>
      <trkpt lat="47.4807940609753131866455078125" lon="9.99451101757586002349853515625">
        <ele>1485</ele>
        <time>2026-09-01T10:21:17.000Z</time>
        <extensions>
          <ns3:TrackPointExtension>
            <ns3:hr>151</ns3:hr>
            <ns3:cad>83</ns3:cad>
          </ns3:TrackPointExtension>
        </extensions>
      </trkpt>
      <trkpt lat="47.48072692193090915679931640625" lon="9.99446692876517772674560546875">
        <ele>1484</ele>
        <time>2026-09-01T10:21:19.000Z</time>
        <extensions>
          <ns3:TrackPointExtension>
            <ns3:hr>151</ns3:hr>
            <ns3:cad>83</ns3:cad>
          </ns3:TrackPointExtension>
        </extensions>
      </trkpt>
      <trkpt lat="47.48069238848984241485595703125" lon="9.99443977139890193939208984375">
        <ele>1483.800048828125</ele>
        <time>2026-09-01T10:21:20.000Z</time>
        <extensions>
          <ns3:TrackPointExtension>
            <ns3:hr>151</ns3:hr>
            <ns3:cad>83</ns3:cad>
          </ns3:TrackPointExtension>
        </extensions>
      </trkpt>
      <trkpt lat="47.48061024583876132965087890625" lon="9.9943327344954013824462890625">
        <ele>1482.5999755859375</ele>
        <time>2026-09-01T10:21:23.000Z</time>
        <extensions>
          <ns3:TrackPointExtension>
            <ns3:hr>150</ns3:hr>
            <ns3:cad>82</ns3:cad>
          </ns3:TrackPointExtension>
        </extensions>
      </trkpt>
      <trkpt lat="47.48057638294994831085205078125" lon="9.99424162320792675018310546875">
        <ele>1481.5999755859375</ele>
        <time>2026-09-01T10:21:25.000Z</time>
        <extensions>
          <ns3:TrackPointExtension>
            <ns3:hr>151</ns3:hr>
            <ns3:cad>83</ns3:cad>
          </ns3:TrackPointExtension>
        </extensions>
      </trkpt>
      <trkpt lat="47.48056867159903049468994140625" lon="9.9941979534924030303955078125">
        <ele>1480.800048828125</ele>
        <time>2026-09-01T10:21:26.000Z</time>
        <extensions>
          <ns3:TrackPointExtension>
            <ns3:hr>151</ns3:hr>
            <ns3:cad>83</ns3:cad>
          </ns3:TrackPointExtension>
        </extensions>
      </trkpt>
      <trkpt lat="47.48056347481906414031982421875" lon="9.99414506368339061737060546875">
        <ele>1480.4000244140625</ele>
        <time>2026-09-01T10:21:27.000Z</time>
        <extensions>
          <ns3:TrackPointExtension>
            <ns3:hr>151</ns3:hr>
            <ns3:cad>83</ns3:cad>
          </ns3:TrackPointExtension>
        </extensions>
      </trkpt>
      <trkpt lat="47.4805721081793308258056640625" lon="9.99404749833047389984130859375">
        <ele>1479</ele>
        <time>2026-09-01T10:21:29.000Z</time>
        <extensions>
          <ns3:TrackPointExtension>
            <ns3:hr>151</ns3:hr>
            <ns3:cad>83</ns3:cad>
          </ns3:TrackPointExtension>
        </extensions>
      </trkpt>
      <trkpt lat="47.4805895425379276275634765625" lon="9.9939910881221294403076171875">
        <ele>1478.5999755859375</ele>
        <time>2026-09-01T10:21:30.000Z</time>
        <extensions>
          <ns3:TrackPointExtension>
            <ns3:hr>151</ns3:hr>
            <ns3:cad>83</ns3:cad>
          </ns3:TrackPointExtension>
        </extensions>
      </trkpt>
      <trkpt lat="47.48062960803508758544921875" lon="9.99389109201729297637939453125">
        <ele>1477.5999755859375</ele>
        <time>2026-09-01T10:21:32.000Z</time>
        <extensions>
          <ns3:TrackPointExtension>
            <ns3:hr>151</ns3:hr>
            <ns3:cad>83</ns3:cad>
          </ns3:TrackPointExtension>
        </extensions>
      </trkpt>
      <trkpt lat="47.480649054050445556640625" lon="9.99378313310444355010986328125">
        <ele>1476.800048828125</ele>
        <time>2026-09-01T10:21:34.000Z</time>
        <extensions>
          <ns3:TrackPointExtension>
            <ns3:hr>151</ns3:hr>
            <ns3:cad>83</ns3:cad>
          </ns3:TrackPointExtension>
        </extensions>
      </trkpt>
      <trkpt lat="47.4806555919349193572998046875" lon="9.99370803125202655792236328125">
        <ele>1476.4000244140625</ele>
        <time>2026-09-01T10:21:35.000Z</time>
        <extensions>
          <ns3:TrackPointExtension>
            <ns3:hr>150</ns3:hr>
            <ns3:cad>83</ns3:cad>
          </ns3:TrackPointExtension>
        </extensions>
      </trkpt>
      <trkpt lat="47.48065265826880931854248046875" lon="9.9935964681208133697509765625">
        <ele>1475.5999755859375</ele>
        <time>2026-09-01T10:21:37.000Z</time>
        <extensions>
          <ns3:TrackPointExtension>
            <ns3:hr>149</ns3:hr>
            <ns3:cad>83</ns3:cad>
          </ns3:TrackPointExtension>
        </extensions>
      </trkpt>
      <trkpt lat="47.4806441925466060638427734375" lon="9.99353595077991485595703125">
        <ele>1475.199951171875</ele>
        <time>2026-09-01T10:21:38.000Z</time>
        <extensions>
          <ns3:TrackPointExtension>
            <ns3:hr>148</ns3:hr>
            <ns3:cad>83</ns3:cad>
          </ns3:TrackPointExtension>
        </extensions>
      </trkpt>
      <trkpt lat="47.48062650673091411590576171875" lon="9.99337770044803619384765625">
        <ele>1473.5999755859375</ele>
        <time>2026-09-01T10:21:41.000Z</time>
        <extensions>
          <ns3:TrackPointExtension>
            <ns3:hr>148</ns3:hr>
            <ns3:cad>84</ns3:cad>
          </ns3:TrackPointExtension>
        </extensions>
      </trkpt>
      <trkpt lat="47.48058644123375415802001953125" lon="9.99331978149712085723876953125">
        <ele>1472.199951171875</ele>
        <time>2026-09-01T10:21:43.000Z</time>
        <extensions>
          <ns3:TrackPointExtension>
            <ns3:hr>148</ns3:hr>
            <ns3:cad>83</ns3:cad>
          </ns3:TrackPointExtension>
        </extensions>
      </trkpt>
      <trkpt lat="47.4805711023509502410888671875" lon="9.9932943843305110931396484375">
        <ele>1471.5999755859375</ele>
        <time>2026-09-01T10:21:44.000Z</time>
        <extensions>
          <ns3:TrackPointExtension>
            <ns3:hr>148</ns3:hr>
            <ns3:cad>83</ns3:cad>
          </ns3:TrackPointExtension>
        </extensions>
      </trkpt>
      <trkpt lat="47.4805620498955249786376953125" lon="9.99326244927942752838134765625">
        <ele>1471</ele>
        <time>2026-09-01T10:21:45.000Z</time>
        <extensions>
          <ns3:TrackPointExtension>
            <ns3:hr>149</ns3:hr>
            <ns3:cad>83</ns3:cad>
          </ns3:TrackPointExtension>
        </extensions>
      </trkpt>
      <trkpt lat="47.48054780066013336181640625" lon="9.99317930079996585845947265625">
        <ele>1469.4000244140625</ele>
        <time>2026-09-01T10:21:47.000Z</time>
        <extensions>
          <ns3:TrackPointExtension>
            <ns3:hr>148</ns3:hr>
            <ns3:cad>83</ns3:cad>
          </ns3:TrackPointExtension>
        </extensions>
      </trkpt>
      <trkpt lat="47.48053782619535923004150390625" lon="9.99315247870981693267822265625">
        <ele>1468.5999755859375</ele>
        <time>2026-09-01T10:21:48.000Z</time>
        <extensions>
          <ns3:TrackPointExtension>
            <ns3:hr>148</ns3:hr>
            <ns3:cad>83</ns3:cad>
          </ns3:TrackPointExtension>
        </extensions>
      </trkpt>
      <trkpt lat="47.48053782619535923004150390625" lon="9.99310235492885112762451171875">
        <ele>1467.800048828125</ele>
        <time>2026-09-01T10:21:49.000Z</time>
        <extensions>
          <ns3:TrackPointExtension>
            <ns3:hr>148</ns3:hr>
            <ns3:cad>83</ns3:cad>
          </ns3:TrackPointExtension>
        </extensions>
      </trkpt>
      <trkpt lat="47.48052508570253849029541015625" lon="9.993015937507152557373046875">
        <ele>1466.199951171875</ele>
        <time>2026-09-01T10:21:51.000Z</time>
        <extensions>
          <ns3:TrackPointExtension>
            <ns3:hr>149</ns3:hr>
            <ns3:cad>0</ns3:cad>
          </ns3:TrackPointExtension>
        </extensions>
      </trkpt>
      <trkpt lat="47.48049893416464328765869140625" lon="9.99292432330548763275146484375">
        <ele>1464.800048828125</ele>
        <time>2026-09-01T10:21:53.000Z</time>
        <extensions>
          <ns3:TrackPointExtension>
            <ns3:hr>149</ns3:hr>
            <ns3:cad>0</ns3:cad>
          </ns3:TrackPointExtension>
        </extensions>
      </trkpt>
      <trkpt lat="47.48048602603375911712646484375" lon="9.99287269078195095062255859375">
        <ele>1464.199951171875</ele>
        <time>2026-09-01T10:21:54.000Z</time>
        <extensions>
          <ns3:TrackPointExtension>
            <ns3:hr>150</ns3:hr>
            <ns3:cad>83</ns3:cad>
          </ns3:TrackPointExtension>
        </extensions>
      </trkpt>
      <trkpt lat="47.48046758584678173065185546875" lon="9.99282181262969970703125">
        <ele>1463.800048828125</ele>
        <time>2026-09-01T10:21:55.000Z</time>
        <extensions>
          <ns3:TrackPointExtension>
            <ns3:hr>150</ns3:hr>
            <ns3:cad>83</ns3:cad>
          </ns3:TrackPointExtension>
        </extensions>
      </trkpt>
      <trkpt lat="47.4804369919002056121826171875" lon="9.99272969551384449005126953125">
        <ele>1462.5999755859375</ele>
        <time>2026-09-01T10:21:57.000Z</time>
        <extensions>
          <ns3:TrackPointExtension>
            <ns3:hr>150</ns3:hr>
            <ns3:cad>82</ns3:cad>
          </ns3:TrackPointExtension>
        </extensions>
      </trkpt>
      <trkpt lat="47.48042517341673374176025390625" lon="9.99269197694957256317138671875">
        <ele>1462.199951171875</ele>
        <time>2026-09-01T10:21:58.000Z</time>
        <extensions>
          <ns3:TrackPointExtension>
            <ns3:hr>149</ns3:hr>
            <ns3:cad>82</ns3:cad>
          </ns3:TrackPointExtension>
        </extensions>
      </trkpt>
      <trkpt lat="47.4804116785526275634765625" lon="9.9926369078457355499267578125">
        <ele>1461.5999755859375</ele>
        <time>2026-09-01T10:21:59.000Z</time>
        <extensions>
          <ns3:TrackPointExtension>
            <ns3:hr>149</ns3:hr>
            <ns3:cad>83</ns3:cad>
          </ns3:TrackPointExtension>
        </extensions>
      </trkpt>
      <trkpt lat="47.48040564358234405517578125" lon="9.9925262667238712310791015625">
        <ele>1460.4000244140625</ele>
        <time>2026-09-01T10:22:01.000Z</time>
        <extensions>
          <ns3:TrackPointExtension>
            <ns3:hr>149</ns3:hr>
            <ns3:cad>83</ns3:cad>
          </ns3:TrackPointExtension>
        </extensions>
      </trkpt>
      <trkpt lat="47.48039499856531620025634765625" lon="9.992431886494159698486328125">
        <ele>1459.199951171875</ele>
        <time>2026-09-01T10:22:03.000Z</time>
        <extensions>
          <ns3:TrackPointExtension>
            <ns3:hr>149</ns3:hr>
            <ns3:cad>83</ns3:cad>
          </ns3:TrackPointExtension>
        </extensions>
      </trkpt>
      <trkpt lat="47.48035660944879055023193359375" lon="9.9923432059586048126220703125">
        <ele>1457.800048828125</ele>
        <time>2026-09-01T10:22:05.000Z</time>
        <extensions>
          <ns3:TrackPointExtension>
            <ns3:hr>149</ns3:hr>
            <ns3:cad>83</ns3:cad>
          </ns3:TrackPointExtension>
        </extensions>
      </trkpt>
      <trkpt lat="47.48030497692525386810302734375" lon="9.9922731332480907440185546875">
        <ele>1456.800048828125</ele>
        <time>2026-09-01T10:22:07.000Z</time>
        <extensions>
          <ns3:TrackPointExtension>
            <ns3:hr>150</ns3:hr>
            <ns3:cad>85</ns3:cad>
          </ns3:TrackPointExtension>
        </extensions>
      </trkpt>
      <trkpt lat="47.48027362860739231109619140625" lon="9.992244131863117218017578125">
        <ele>1456.199951171875</ele>
        <time>2026-09-01T10:22:08.000Z</time>
        <extensions>
          <ns3:TrackPointExtension>
            <ns3:hr>150</ns3:hr>
            <ns3:cad>85</ns3:cad>
          </ns3:TrackPointExtension>
        </extensions>
      </trkpt>
      <trkpt lat="47.480207495391368865966796875" lon="9.9921889789402484893798828125">
        <ele>1455.4000244140625</ele>
        <time>2026-09-01T10:22:10.000Z</time>
        <extensions>
          <ns3:TrackPointExtension>
            <ns3:hr>150</ns3:hr>
            <ns3:cad>85</ns3:cad>
          </ns3:TrackPointExtension>
        </extensions>
      </trkpt>
      <trkpt lat="47.480127699673175811767578125" lon="9.992129467427730560302734375">
        <ele>1454.4000244140625</ele>
        <time>2026-09-01T10:22:12.000Z</time>
        <extensions>
          <ns3:TrackPointExtension>
            <ns3:hr>149</ns3:hr>
            <ns3:cad>84</ns3:cad>
          </ns3:TrackPointExtension>
        </extensions>
      </trkpt>
      <trkpt lat="47.4801003746688365936279296875" lon="9.99209334142506122589111328125">
        <ele>1454</ele>
        <time>2026-09-01T10:22:13.000Z</time>
        <extensions>
          <ns3:TrackPointExtension>
            <ns3:hr>149</ns3:hr>
            <ns3:cad>84</ns3:cad>
          </ns3:TrackPointExtension>
        </extensions>
      </trkpt>
      <trkpt lat="47.480027116835117340087890625" lon="9.99198303557932376861572265625">
        <ele>1452.800048828125</ele>
        <time>2026-09-01T10:22:16.000Z</time>
        <extensions>
          <ns3:TrackPointExtension>
            <ns3:hr>149</ns3:hr>
            <ns3:cad>84</ns3:cad>
          </ns3:TrackPointExtension>
        </extensions>
      </trkpt>
      <trkpt lat="47.47995930723845958709716796875" lon="9.99185831286013126373291015625">
        <ele>1451.4000244140625</ele>
        <time>2026-09-01T10:22:19.000Z</time>
        <extensions>
          <ns3:TrackPointExtension>
            <ns3:hr>148</ns3:hr>
            <ns3:cad>82</ns3:cad>
          </ns3:TrackPointExtension>
        </extensions>
      </trkpt>
      <trkpt lat="47.47994321398437023162841796875" lon="9.99182009138166904449462890625">
        <ele>1450.800048828125</ele>
        <time>2026-09-01T10:22:20.000Z</time>
        <extensions>
          <ns3:TrackPointExtension>
            <ns3:hr>148</ns3:hr>
            <ns3:cad>82</ns3:cad>
          </ns3:TrackPointExtension>
        </extensions>
      </trkpt>
      <trkpt lat="47.47993298806250095367431640625" lon="9.99176762066781520843505859375">
        <ele>1450.199951171875</ele>
        <time>2026-09-01T10:22:21.000Z</time>
        <extensions>
          <ns3:TrackPointExtension>
            <ns3:hr>148</ns3:hr>
            <ns3:cad>83</ns3:cad>
          </ns3:TrackPointExtension>
        </extensions>
      </trkpt>
      <trkpt lat="47.4799488298594951629638671875" lon="9.9916719831526279449462890625">
        <ele>1449.199951171875</ele>
        <time>2026-09-01T10:22:23.000Z</time>
        <extensions>
          <ns3:TrackPointExtension>
            <ns3:hr>147</ns3:hr>
            <ns3:cad>83</ns3:cad>
          </ns3:TrackPointExtension>
        </extensions>
      </trkpt>
      <trkpt lat="47.47997590340673923492431640625" lon="9.9916414730250835418701171875">
        <ele>1448.800048828125</ele>
        <time>2026-09-01T10:22:24.000Z</time>
        <extensions>
          <ns3:TrackPointExtension>
            <ns3:hr>147</ns3:hr>
            <ns3:cad>83</ns3:cad>
          </ns3:TrackPointExtension>
        </extensions>
      </trkpt>
      <trkpt lat="47.4800388514995574951171875" lon="9.99163853935897350311279296875">
        <ele>1448</ele>
        <time>2026-09-01T10:22:26.000Z</time>
        <extensions>
          <ns3:TrackPointExtension>
            <ns3:hr>147</ns3:hr>
            <ns3:cad>84</ns3:cad>
          </ns3:TrackPointExtension>
        </extensions>
      </trkpt>
      <trkpt lat="47.4800701998174190521240234375" lon="9.99165027402341365814208984375">
        <ele>1447.4000244140625</ele>
        <time>2026-09-01T10:22:27.000Z</time>
        <extensions>
          <ns3:TrackPointExtension>
            <ns3:hr>146</ns3:hr>
            <ns3:cad>84</ns3:cad>
          </ns3:TrackPointExtension>
        </extensions>
      </trkpt>
      <trkpt lat="47.48013666830956935882568359375" lon="9.991690255701541900634765625">
        <ele>1446.5999755859375</ele>
        <time>2026-09-01T10:22:29.000Z</time>
        <extensions>
          <ns3:TrackPointExtension>
            <ns3:hr>146</ns3:hr>
            <ns3:cad>83</ns3:cad>
          </ns3:TrackPointExtension>
        </extensions>
      </trkpt>
      <trkpt lat="47.48020338825881481170654296875" lon="9.99171967618167400360107421875">
        <ele>1445.800048828125</ele>
        <time>2026-09-01T10:22:31.000Z</time>
        <extensions>
          <ns3:TrackPointExtension>
            <ns3:hr>147</ns3:hr>
            <ns3:cad>83</ns3:cad>
          </ns3:TrackPointExtension>
        </extensions>
      </trkpt>
      <trkpt lat="47.48023943044245243072509765625" lon="9.99173174612224102020263671875">
        <ele>1445.5999755859375</ele>
        <time>2026-09-01T10:22:32.000Z</time>
        <extensions>
          <ns3:TrackPointExtension>
            <ns3:hr>148</ns3:hr>
            <ns3:cad>84</ns3:cad>
          </ns3:TrackPointExtension>
        </extensions>
      </trkpt>
      <trkpt lat="47.4803471378982067108154296875" lon="9.99170609749853610992431640625">
        <ele>1444.4000244140625</ele>
        <time>2026-09-01T10:22:35.000Z</time>
        <extensions>
          <ns3:TrackPointExtension>
            <ns3:hr>149</ns3:hr>
            <ns3:cad>83</ns3:cad>
          </ns3:TrackPointExtension>
        </extensions>
      </trkpt>
      <trkpt lat="47.48037387616932392120361328125" lon="9.99166536144912242889404296875">
        <ele>1444.199951171875</ele>
        <time>2026-09-01T10:22:36.000Z</time>
        <extensions>
          <ns3:TrackPointExtension>
            <ns3:hr>149</ns3:hr>
            <ns3:cad>84</ns3:cad>
          </ns3:TrackPointExtension>
        </extensions>
      </trkpt>
      <trkpt lat="47.4803954176604747772216796875" lon="9.99157416634261608123779296875">
        <ele>1443.4000244140625</ele>
        <time>2026-09-01T10:22:38.000Z</time>
        <extensions>
          <ns3:TrackPointExtension>
            <ns3:hr>149</ns3:hr>
            <ns3:cad>82</ns3:cad>
          </ns3:TrackPointExtension>
        </extensions>
      </trkpt>
      <trkpt lat="47.48039650730788707733154296875" lon="9.9915291555225849151611328125">
        <ele>1443.199951171875</ele>
        <time>2026-09-01T10:22:39.000Z</time>
        <extensions>
          <ns3:TrackPointExtension>
            <ns3:hr>148</ns3:hr>
            <ns3:cad>82</ns3:cad>
          </ns3:TrackPointExtension>
        </extensions>
      </trkpt>
      <trkpt lat="47.48038527555763721466064453125" lon="9.99148540198802947998046875">
        <ele>1442.800048828125</ele>
        <time>2026-09-01T10:22:40.000Z</time>
        <extensions>
          <ns3:TrackPointExtension>
            <ns3:hr>148</ns3:hr>
            <ns3:cad>82</ns3:cad>
          </ns3:TrackPointExtension>
        </extensions>
      </trkpt>
      <trkpt lat="47.48036281205713748931884765625" lon="9.99140099622309207916259765625">
        <ele>1441.800048828125</ele>
        <time>2026-09-01T10:22:42.000Z</time>
        <extensions>
          <ns3:TrackPointExtension>
            <ns3:hr>146</ns3:hr>
            <ns3:cad>82</ns3:cad>
          </ns3:TrackPointExtension>
        </extensions>
      </trkpt>
      <trkpt lat="47.4803446233272552490234375" lon="9.9912250600755214691162109375">
        <ele>1440.5999755859375</ele>
        <time>2026-09-01T10:22:46.000Z</time>
        <extensions>
          <ns3:TrackPointExtension>
            <ns3:hr>144</ns3:hr>
            <ns3:cad>83</ns3:cad>
          </ns3:TrackPointExtension>
        </extensions>
      </trkpt>
      <trkpt lat="47.4803411029279232025146484375" lon="9.99116747640073299407958984375">
        <ele>1440.199951171875</ele>
        <time>2026-09-01T10:22:47.000Z</time>
        <extensions>
          <ns3:TrackPointExtension>
            <ns3:hr>144</ns3:hr>
            <ns3:cad>84</ns3:cad>
          </ns3:TrackPointExtension>
        </extensions>
      </trkpt>
      <trkpt lat="47.48034252785146236419677734375" lon="9.99106831848621368408203125">
        <ele>1439.5999755859375</ele>
        <time>2026-09-01T10:22:49.000Z</time>
        <extensions>
          <ns3:TrackPointExtension>
            <ns3:hr>144</ns3:hr>
            <ns3:cad>83</ns3:cad>
          </ns3:TrackPointExtension>
        </extensions>
      </trkpt>
      <trkpt lat="47.48035124503076076507568359375" lon="9.99096429906785488128662109375">
        <ele>1438.800048828125</ele>
        <time>2026-09-01T10:22:51.000Z</time>
        <extensions>
          <ns3:TrackPointExtension>
            <ns3:hr>146</ns3:hr>
            <ns3:cad>82</ns3:cad>
          </ns3:TrackPointExtension>
        </extensions>
      </trkpt>
      <trkpt lat="47.4803582020103931427001953125" lon="9.99090336263179779052734375">
        <ele>1438.4000244140625</ele>
        <time>2026-09-01T10:22:52.000Z</time>
        <extensions>
          <ns3:TrackPointExtension>
            <ns3:hr>146</ns3:hr>
            <ns3:cad>82</ns3:cad>
          </ns3:TrackPointExtension>
        </extensions>
      </trkpt>
      <trkpt lat="47.48036884702742099761962890625" lon="9.990806467831134796142578125">
        <ele>1437.4000244140625</ele>
        <time>2026-09-01T10:22:54.000Z</time>
        <extensions>
          <ns3:TrackPointExtension>
            <ns3:hr>147</ns3:hr>
            <ns3:cad>83</ns3:cad>
          </ns3:TrackPointExtension>
        </extensions>
      </trkpt>
      <trkpt lat="47.48039357364177703857421875" lon="9.9907067231833934783935546875">
        <ele>1436.199951171875</ele>
        <time>2026-09-01T10:22:56.000Z</time>
        <extensions>
          <ns3:TrackPointExtension>
            <ns3:hr>146</ns3:hr>
            <ns3:cad>83</ns3:cad>
          </ns3:TrackPointExtension>
        </extensions>
      </trkpt>
      <trkpt lat="47.4804068170487880706787109375" lon="9.99065366573631763458251953125">
        <ele>1435.5999755859375</ele>
        <time>2026-09-01T10:22:57.000Z</time>
        <extensions>
          <ns3:TrackPointExtension>
            <ns3:hr>145</ns3:hr>
            <ns3:cad>81</ns3:cad>
          </ns3:TrackPointExtension>
        </extensions>
      </trkpt>
      <trkpt lat="47.48041980899870395660400390625" lon="9.99060102738440036773681640625">
        <ele>1435.199951171875</ele>
        <time>2026-09-01T10:22:58.000Z</time>
        <extensions>
          <ns3:TrackPointExtension>
            <ns3:hr>145</ns3:hr>
            <ns3:cad>81</ns3:cad>
          </ns3:TrackPointExtension>
        </extensions>
      </trkpt>
      <trkpt lat="47.48043917119503021240234375" lon="9.99052173458039760589599609375">
        <ele>1433.800048828125</ele>
        <time>2026-09-01T10:23:00.000Z</time>
        <extensions>
          <ns3:TrackPointExtension>
            <ns3:hr>145</ns3:hr>
            <ns3:cad>82</ns3:cad>
          </ns3:TrackPointExtension>
        </extensions>
      </trkpt>
      <trkpt lat="47.4804363213479518890380859375" lon="9.990497343242168426513671875">
        <ele>1433.199951171875</ele>
        <time>2026-09-01T10:23:01.000Z</time>
        <extensions>
          <ns3:TrackPointExtension>
            <ns3:hr>145</ns3:hr>
            <ns3:cad>82</ns3:cad>
          </ns3:TrackPointExtension>
        </extensions>
      </trkpt>
      <trkpt lat="47.4804379977285861968994140625" lon="9.99047278426587581634521484375">
        <ele>1432.4000244140625</ele>
        <time>2026-09-01T10:23:02.000Z</time>
        <extensions>
          <ns3:TrackPointExtension>
            <ns3:hr>145</ns3:hr>
            <ns3:cad>82</ns3:cad>
          </ns3:TrackPointExtension>
        </extensions>
      </trkpt>
      <trkpt lat="47.48043590225279331207275390625" lon="9.99036298133432865142822265625">
        <ele>1431.5999755859375</ele>
        <time>2026-09-01T10:23:04.000Z</time>
        <extensions>
          <ns3:TrackPointExtension>
            <ns3:hr>145</ns3:hr>
            <ns3:cad>82</ns3:cad>
          </ns3:TrackPointExtension>
        </extensions>
      </trkpt>
      <trkpt lat="47.48043238185346126556396484375" lon="9.9903131090104579925537109375">
        <ele>1431</ele>
        <time>2026-09-01T10:23:05.000Z</time>
        <extensions>
          <ns3:TrackPointExtension>
            <ns3:hr>146</ns3:hr>
            <ns3:cad>84</ns3:cad>
          </ns3:TrackPointExtension>
        </extensions>
      </trkpt>
      <trkpt lat="47.48041058890521526336669921875" lon="9.9902081675827503204345703125">
        <ele>1429.800048828125</ele>
        <time>2026-09-01T10:23:07.000Z</time>
        <extensions>
          <ns3:TrackPointExtension>
            <ns3:hr>146</ns3:hr>
            <ns3:cad>0</ns3:cad>
          </ns3:TrackPointExtension>
        </extensions>
      </trkpt>
      <trkpt lat="47.48040220700204372406005859375" lon="9.99015360139310359954833984375">
        <ele>1429.199951171875</ele>
        <time>2026-09-01T10:23:08.000Z</time>
        <extensions>
          <ns3:TrackPointExtension>
            <ns3:hr>148</ns3:hr>
            <ns3:cad>83</ns3:cad>
          </ns3:TrackPointExtension>
        </extensions>
      </trkpt>
      <trkpt lat="47.4803888797760009765625" lon="9.99009677208960056304931640625">
        <ele>1428.4000244140625</ele>
        <time>2026-09-01T10:23:09.000Z</time>
        <extensions>
          <ns3:TrackPointExtension>
            <ns3:hr>148</ns3:hr>
            <ns3:cad>83</ns3:cad>
          </ns3:TrackPointExtension>
        </extensions>
      </trkpt>
      <trkpt lat="47.4803696013987064361572265625" lon="9.98998797498643398284912109375">
        <ele>1427.199951171875</ele>
        <time>2026-09-01T10:23:11.000Z</time>
        <extensions>
          <ns3:TrackPointExtension>
            <ns3:hr>150</ns3:hr>
            <ns3:cad>83</ns3:cad>
          </ns3:TrackPointExtension>
        </extensions>
      </trkpt>
      <trkpt lat="47.48035577125847339630126953125" lon="9.98993776738643646240234375">
        <ele>1426.5999755859375</ele>
        <time>2026-09-01T10:23:12.000Z</time>
        <extensions>
          <ns3:TrackPointExtension>
            <ns3:hr>149</ns3:hr>
            <ns3:cad>83</ns3:cad>
          </ns3:TrackPointExtension>
        </extensions>
      </trkpt>
      <trkpt lat="47.48033716343343257904052734375" lon="9.98988278210163116455078125">
        <ele>1426.199951171875</ele>
        <time>2026-09-01T10:23:13.000Z</time>
        <extensions>
          <ns3:TrackPointExtension>
            <ns3:hr>150</ns3:hr>
            <ns3:cad>83</ns3:cad>
          </ns3:TrackPointExtension>
        </extensions>
      </trkpt>
      <trkpt lat="47.4802871234714984893798828125" lon="9.98972008936107158660888671875">
        <ele>1424.800048828125</ele>
        <time>2026-09-01T10:23:16.000Z</time>
        <extensions>
          <ns3:TrackPointExtension>
            <ns3:hr>150</ns3:hr>
            <ns3:cad>84</ns3:cad>
          </ns3:TrackPointExtension>
        </extensions>
      </trkpt>
      <trkpt lat="47.48024730943143367767333984375" lon="9.9896190874278545379638671875">
        <ele>1423.800048828125</ele>
        <time>2026-09-01T10:23:18.000Z</time>
        <extensions>
          <ns3:TrackPointExtension>
            <ns3:hr>150</ns3:hr>
            <ns3:cad>84</ns3:cad>
          </ns3:TrackPointExtension>
        </extensions>
      </trkpt>
      <trkpt lat="47.480228282511234283447265625" lon="9.98950685374438762664794921875">
        <ele>1422.5999755859375</ele>
        <time>2026-09-01T10:23:20.000Z</time>
        <extensions>
          <ns3:TrackPointExtension>
            <ns3:hr>150</ns3:hr>
            <ns3:cad>83</ns3:cad>
          </ns3:TrackPointExtension>
        </extensions>
      </trkpt>
      <trkpt lat="47.48022191226482391357421875" lon="9.989392943680286407470703125">
        <ele>1421.5999755859375</ele>
        <time>2026-09-01T10:23:22.000Z</time>
        <extensions>
          <ns3:TrackPointExtension>
            <ns3:hr>148</ns3:hr>
            <ns3:cad>83</ns3:cad>
          </ns3:TrackPointExtension>
        </extensions>
      </trkpt>
      <trkpt lat="47.48023473657667636871337890625" lon="9.9893431551754474639892578125">
        <ele>1421.199951171875</ele>
        <time>2026-09-01T10:23:23.000Z</time>
        <extensions>
          <ns3:TrackPointExtension>
            <ns3:hr>148</ns3:hr>
            <ns3:cad>84</ns3:cad>
          </ns3:TrackPointExtension>
        </extensions>
      </trkpt>
      <trkpt lat="47.4802616424858570098876953125" lon="9.98931105248630046844482421875">
        <ele>1421.199951171875</ele>
        <time>2026-09-01T10:23:24.000Z</time>
        <extensions>
          <ns3:TrackPointExtension>
            <ns3:hr>147</ns3:hr>
            <ns3:cad>84</ns3:cad>
          </ns3:TrackPointExtension>
        </extensions>
      </trkpt>
      <trkpt lat="47.4803290329873561859130859375" lon="9.98929764144122600555419921875">
        <ele>1420.5999755859375</ele>
        <time>2026-09-01T10:23:26.000Z</time>
        <extensions>
          <ns3:TrackPointExtension>
            <ns3:hr>147</ns3:hr>
            <ns3:cad>85</ns3:cad>
          </ns3:TrackPointExtension>
        </extensions>
      </trkpt>
      <trkpt lat="47.48035325668752193450927734375" lon="9.98931490816175937652587890625">
        <ele>1420.199951171875</ele>
        <time>2026-09-01T10:23:27.000Z</time>
        <extensions>
          <ns3:TrackPointExtension>
            <ns3:hr>148</ns3:hr>
            <ns3:cad>85</ns3:cad>
          </ns3:TrackPointExtension>
        </extensions>
      </trkpt>
      <trkpt lat="47.48040824197232723236083984375" lon="9.98939822427928447723388671875">
        <ele>1418.800048828125</ele>
        <time>2026-09-01T10:23:29.000Z</time>
        <extensions>
          <ns3:TrackPointExtension>
            <ns3:hr>149</ns3:hr>
            <ns3:cad>83</ns3:cad>
          </ns3:TrackPointExtension>
        </extensions>
      </trkpt>
      <trkpt lat="47.4804527498781681060791015625" lon="9.98950484208762645721435546875">
        <ele>1417.5999755859375</ele>
        <time>2026-09-01T10:23:31.000Z</time>
        <extensions>
          <ns3:TrackPointExtension>
            <ns3:hr>149</ns3:hr>
            <ns3:cad>83</ns3:cad>
          </ns3:TrackPointExtension>
        </extensions>
      </trkpt>
      <trkpt lat="47.48049239628016948699951171875" lon="9.9896125495433807373046875">
        <ele>1416.800048828125</ele>
        <time>2026-09-01T10:23:33.000Z</time>
        <extensions>
          <ns3:TrackPointExtension>
            <ns3:hr>149</ns3:hr>
            <ns3:cad>85</ns3:cad>
          </ns3:TrackPointExtension>
        </extensions>
      </trkpt>
      <trkpt lat="47.48051293194293975830078125" lon="9.98966510407626628875732421875">
        <ele>1416.4000244140625</ele>
        <time>2026-09-01T10:23:34.000Z</time>
        <extensions>
          <ns3:TrackPointExtension>
            <ns3:hr>149</ns3:hr>
            <ns3:cad>85</ns3:cad>
          </ns3:TrackPointExtension>
        </extensions>
      </trkpt>
      <trkpt lat="47.4805726110935211181640625" lon="9.9898155592381954193115234375">
        <ele>1415</ele>
        <time>2026-09-01T10:23:37.000Z</time>
        <extensions>
          <ns3:TrackPointExtension>
            <ns3:hr>150</ns3:hr>
            <ns3:cad>85</ns3:cad>
          </ns3:TrackPointExtension>
        </extensions>
      </trkpt>
      <trkpt lat="47.48064595274627208709716796875" lon="9.98994371853768825531005859375">
        <ele>1413.5999755859375</ele>
        <time>2026-09-01T10:23:40.000Z</time>
        <extensions>
          <ns3:TrackPointExtension>
            <ns3:hr>151</ns3:hr>
            <ns3:cad>82</ns3:cad>
          </ns3:TrackPointExtension>
        </extensions>
      </trkpt>
      <trkpt lat="47.48068132437765598297119140625" lon="9.98998663388192653656005859375">
        <ele>1413.199951171875</ele>
        <time>2026-09-01T10:23:41.000Z</time>
        <extensions>
          <ns3:TrackPointExtension>
            <ns3:hr>151</ns3:hr>
            <ns3:cad>82</ns3:cad>
          </ns3:TrackPointExtension>
        </extensions>
      </trkpt>
      <trkpt lat="47.4807362258434295654296875" lon="9.990050084888935089111328125">
        <ele>1412.5999755859375</ele>
        <time>2026-09-01T10:23:43.000Z</time>
        <extensions>
          <ns3:TrackPointExtension>
            <ns3:hr>151</ns3:hr>
            <ns3:cad>82</ns3:cad>
          </ns3:TrackPointExtension>
        </extensions>
      </trkpt>
      <trkpt lat="47.48079364188015460968017578125" lon="9.990120828151702880859375">
        <ele>1412</ele>
        <time>2026-09-01T10:23:45.000Z</time>
        <extensions>
          <ns3:TrackPointExtension>
            <ns3:hr>150</ns3:hr>
            <ns3:cad>82</ns3:cad>
          </ns3:TrackPointExtension>
        </extensions>
      </trkpt>
      <trkpt lat="47.48085357248783111572265625" lon="9.9902081675827503204345703125">
        <ele>1411.199951171875</ele>
        <time>2026-09-01T10:23:47.000Z</time>
        <extensions>
          <ns3:TrackPointExtension>
            <ns3:hr>150</ns3:hr>
            <ns3:cad>82</ns3:cad>
          </ns3:TrackPointExtension>
        </extensions>
      </trkpt>
      <trkpt lat="47.48091467656195163726806640625" lon="9.9902859516441822052001953125">
        <ele>1410</ele>
        <time>2026-09-01T10:23:49.000Z</time>
        <extensions>
          <ns3:TrackPointExtension>
            <ns3:hr>151</ns3:hr>
            <ns3:cad>83</ns3:cad>
          </ns3:TrackPointExtension>
        </extensions>
      </trkpt>
      <trkpt lat="47.48100838623940944671630859375" lon="9.99039617367088794708251953125">
        <ele>1408.5999755859375</ele>
        <time>2026-09-01T10:23:52.000Z</time>
        <extensions>
          <ns3:TrackPointExtension>
            <ns3:hr>151</ns3:hr>
            <ns3:cad>82</ns3:cad>
          </ns3:TrackPointExtension>
        </extensions>
      </trkpt>
      <trkpt lat="47.4810324423015117645263671875" lon="9.990426264703273773193359375">
        <ele>1408.199951171875</ele>
        <time>2026-09-01T10:23:53.000Z</time>
        <extensions>
          <ns3:TrackPointExtension>
            <ns3:hr>151</ns3:hr>
            <ns3:cad>82</ns3:cad>
          </ns3:TrackPointExtension>
        </extensions>
      </trkpt>
      <trkpt lat="47.48109790496528148651123046875" lon="9.99049541540443897247314453125">
        <ele>1407.199951171875</ele>
        <time>2026-09-01T10:23:55.000Z</time>
        <extensions>
          <ns3:TrackPointExtension>
            <ns3:hr>150</ns3:hr>
            <ns3:cad>83</ns3:cad>
          </ns3:TrackPointExtension>
        </extensions>
      </trkpt>
      <trkpt lat="47.48112313449382781982421875" lon="9.9905296973884105682373046875">
        <ele>1406.5999755859375</ele>
        <time>2026-09-01T10:23:56.000Z</time>
        <extensions>
          <ns3:TrackPointExtension>
            <ns3:hr>150</ns3:hr>
            <ns3:cad>83</ns3:cad>
          </ns3:TrackPointExtension>
        </extensions>
      </trkpt>
      <trkpt lat="47.48114987276494503021240234375" lon="9.990569092333316802978515625">
        <ele>1406.199951171875</ele>
        <time>2026-09-01T10:23:57.000Z</time>
        <extensions>
          <ns3:TrackPointExtension>
            <ns3:hr>149</ns3:hr>
            <ns3:cad>83</ns3:cad>
          </ns3:TrackPointExtension>
        </extensions>
      </trkpt>
      <trkpt lat="47.481215335428714752197265625" lon="9.99070211313664913177490234375">
        <ele>1405</ele>
        <time>2026-09-01T10:24:00.000Z</time>
        <extensions>
          <ns3:TrackPointExtension>
            <ns3:hr>149</ns3:hr>
            <ns3:cad>83</ns3:cad>
          </ns3:TrackPointExtension>
        </extensions>
      </trkpt>
      <trkpt lat="47.481268979609012603759765625" lon="9.99084343202412128448486328125">
        <ele>1403.800048828125</ele>
        <time>2026-09-01T10:24:03.000Z</time>
        <extensions>
          <ns3:TrackPointExtension>
            <ns3:hr>149</ns3:hr>
            <ns3:cad>83</ns3:cad>
          </ns3:TrackPointExtension>
        </extensions>
      </trkpt>
      <trkpt lat="47.481325305998325347900390625" lon="9.99089372344315052032470703125">
        <ele>1403</ele>
        <time>2026-09-01T10:24:05.000Z</time>
        <extensions>
          <ns3:TrackPointExtension>
            <ns3:hr>148</ns3:hr>
            <ns3:cad>83</ns3:cad>
          </ns3:TrackPointExtension>
        </extensions>
      </trkpt>
      <trkpt lat="47.48134852387011051177978515625" lon="9.990884251892566680908203125">
        <ele>1402.4000244140625</ele>
        <time>2026-09-01T10:24:06.000Z</time>
        <extensions>
          <ns3:TrackPointExtension>
            <ns3:hr>148</ns3:hr>
            <ns3:cad>83</ns3:cad>
          </ns3:TrackPointExtension>
        </extensions>
      </trkpt>
      <trkpt lat="47.4813714064657688140869140625" lon="9.99086312949657440185546875">
        <ele>1402</ele>
        <time>2026-09-01T10:24:07.000Z</time>
        <extensions>
          <ns3:TrackPointExtension>
            <ns3:hr>148</ns3:hr>
            <ns3:cad>83</ns3:cad>
          </ns3:TrackPointExtension>
        </extensions>
      </trkpt>
      <trkpt lat="47.48136092908680438995361328125" lon="9.990805797278881072998046875">
        <ele>1401.4000244140625</ele>
        <time>2026-09-01T10:24:08.000Z</time>
        <extensions>
          <ns3:TrackPointExtension>
            <ns3:hr>149</ns3:hr>
            <ns3:cad>83</ns3:cad>
          </ns3:TrackPointExtension>
        </extensions>
      </trkpt>
      <trkpt lat="47.481351457536220550537109375" lon="9.99071896076202392578125">
        <ele>1401</ele>
        <time>2026-09-01T10:24:09.000Z</time>
        <extensions>
          <ns3:TrackPointExtension>
            <ns3:hr>149</ns3:hr>
            <ns3:cad>84</ns3:cad>
          </ns3:TrackPointExtension>
        </extensions>
      </trkpt>
      <trkpt lat="47.48133947141468524932861328125" lon="9.99066053889691829681396484375">
        <ele>1400.4000244140625</ele>
        <time>2026-09-01T10:24:10.000Z</time>
        <extensions>
          <ns3:TrackPointExtension>
            <ns3:hr>148</ns3:hr>
            <ns3:cad>84</ns3:cad>
          </ns3:TrackPointExtension>
        </extensions>
      </trkpt>
      <trkpt lat="47.48131600208580493927001953125" lon="9.9905367381870746612548828125">
        <ele>1399.5999755859375</ele>
        <time>2026-09-01T10:24:12.000Z</time>
        <extensions>
          <ns3:TrackPointExtension>
            <ns3:hr>149</ns3:hr>
            <ns3:cad>84</ns3:cad>
          </ns3:TrackPointExtension>
        </extensions>
      </trkpt>
      <trkpt lat="47.4813063628971576690673828125" lon="9.9904897995293140411376953125">
        <ele>1399.199951171875</ele>
        <time>2026-09-01T10:24:13.000Z</time>
        <extensions>
          <ns3:TrackPointExtension>
            <ns3:hr>149</ns3:hr>
            <ns3:cad>84</ns3:cad>
          </ns3:TrackPointExtension>
        </extensions>
      </trkpt>
      <trkpt lat="47.48128582723438739776611328125" lon="9.99036423861980438232421875">
        <ele>1398.199951171875</ele>
        <time>2026-09-01T10:24:15.000Z</time>
        <extensions>
          <ns3:TrackPointExtension>
            <ns3:hr>150</ns3:hr>
            <ns3:cad>83</ns3:cad>
          </ns3:TrackPointExtension>
        </extensions>
      </trkpt>
      <trkpt lat="47.4812654592096805572509765625" lon="9.9902551062405109405517578125">
        <ele>1397.4000244140625</ele>
        <time>2026-09-01T10:24:17.000Z</time>
        <extensions>
          <ns3:TrackPointExtension>
            <ns3:hr>150</ns3:hr>
            <ns3:cad>83</ns3:cad>
          </ns3:TrackPointExtension>
        </extensions>
      </trkpt>
      <trkpt lat="47.48125045560300350189208984375" lon="9.990198612213134765625">
        <ele>1396.800048828125</ele>
        <time>2026-09-01T10:24:18.000Z</time>
        <extensions>
          <ns3:TrackPointExtension>
            <ns3:hr>150</ns3:hr>
            <ns3:cad>83</ns3:cad>
          </ns3:TrackPointExtension>
        </extensions>
      </trkpt>
      <trkpt lat="47.48121374286711215972900390625" lon="9.99004614539444446563720703125">
        <ele>1395.4000244140625</ele>
        <time>2026-09-01T10:24:21.000Z</time>
        <extensions>
          <ns3:TrackPointExtension>
            <ns3:hr>150</ns3:hr>
            <ns3:cad>81</ns3:cad>
          </ns3:TrackPointExtension>
        </extensions>
      </trkpt>
      <trkpt lat="47.48113729991018772125244140625" lon="9.98985193669795989990234375">
        <ele>1394.199951171875</ele>
        <time>2026-09-01T10:24:25.000Z</time>
        <extensions>
          <ns3:TrackPointExtension>
            <ns3:hr>150</ns3:hr>
            <ns3:cad>81</ns3:cad>
          </ns3:TrackPointExtension>
        </extensions>
      </trkpt>
      <trkpt lat="47.481118105351924896240234375" lon="9.98979737050831317901611328125">
        <ele>1393.800048828125</ele>
        <time>2026-09-01T10:24:26.000Z</time>
        <extensions>
          <ns3:TrackPointExtension>
            <ns3:hr>151</ns3:hr>
            <ns3:cad>81</ns3:cad>
          </ns3:TrackPointExtension>
        </extensions>
      </trkpt>
      <trkpt lat="47.4810884334146976470947265625" lon="9.9896894954144954681396484375">
        <ele>1392.800048828125</ele>
        <time>2026-09-01T10:24:28.000Z</time>
        <extensions>
          <ns3:TrackPointExtension>
            <ns3:hr>150</ns3:hr>
            <ns3:cad>82</ns3:cad>
          </ns3:TrackPointExtension>
        </extensions>
      </trkpt>
      <trkpt lat="47.48107208870351314544677734375" lon="9.98958732001483440399169921875">
        <ele>1392</ele>
        <time>2026-09-01T10:24:30.000Z</time>
        <extensions>
          <ns3:TrackPointExtension>
            <ns3:hr>150</ns3:hr>
            <ns3:cad>82</ns3:cad>
          </ns3:TrackPointExtension>
        </extensions>
      </trkpt>
      <trkpt lat="47.48106890358030796051025390625" lon="9.9895268864929676055908203125">
        <ele>1391.4000244140625</ele>
        <time>2026-09-01T10:24:31.000Z</time>
        <extensions>
          <ns3:TrackPointExtension>
            <ns3:hr>149</ns3:hr>
            <ns3:cad>82</ns3:cad>
          </ns3:TrackPointExtension>
        </extensions>
      </trkpt>
      <trkpt lat="47.48107108287513256072998046875" lon="9.98941716738045215606689453125">
        <ele>1390.5999755859375</ele>
        <time>2026-09-01T10:24:33.000Z</time>
        <extensions>
          <ns3:TrackPointExtension>
            <ns3:hr>149</ns3:hr>
            <ns3:cad>81</ns3:cad>
          </ns3:TrackPointExtension>
        </extensions>
      </trkpt>
      <trkpt lat="47.4810716696083545684814453125" lon="9.98935648240149021148681640625">
        <ele>1390.199951171875</ele>
        <time>2026-09-01T10:24:34.000Z</time>
        <extensions>
          <ns3:TrackPointExtension>
            <ns3:hr>150</ns3:hr>
            <ns3:cad>81</ns3:cad>
          </ns3:TrackPointExtension>
        </extensions>
      </trkpt>
      <trkpt lat="47.48108826577663421630859375" lon="9.98918381519615650177001953125">
        <ele>1389</ele>
        <time>2026-09-01T10:24:37.000Z</time>
        <extensions>
          <ns3:TrackPointExtension>
            <ns3:hr>151</ns3:hr>
            <ns3:cad>81</ns3:cad>
          </ns3:TrackPointExtension>
        </extensions>
      </trkpt>
      <trkpt lat="47.48108063824474811553955078125" lon="9.98902724124491214752197265625">
        <ele>1387.5999755859375</ele>
        <time>2026-09-01T10:24:40.000Z</time>
        <extensions>
          <ns3:TrackPointExtension>
            <ns3:hr>151</ns3:hr>
            <ns3:cad>84</ns3:cad>
          </ns3:TrackPointExtension>
        </extensions>
      </trkpt>
      <trkpt lat="47.48108466155827045440673828125" lon="9.98897225596010684967041015625">
        <ele>1387.199951171875</ele>
        <time>2026-09-01T10:24:41.000Z</time>
        <extensions>
          <ns3:TrackPointExtension>
            <ns3:hr>151</ns3:hr>
            <ns3:cad>84</ns3:cad>
          </ns3:TrackPointExtension>
        </extensions>
      </trkpt>
      <trkpt lat="47.48107980005443096160888671875" lon="9.98886345885694026947021484375">
        <ele>1386.199951171875</ele>
        <time>2026-09-01T10:24:43.000Z</time>
        <extensions>
          <ns3:TrackPointExtension>
            <ns3:hr>151</ns3:hr>
            <ns3:cad>82</ns3:cad>
          </ns3:TrackPointExtension>
        </extensions>
      </trkpt>
      <trkpt lat="47.48107795603573322296142578125" lon="9.98874343000352382659912109375">
        <ele>1385.199951171875</ele>
        <time>2026-09-01T10:24:45.000Z</time>
        <extensions>
          <ns3:TrackPointExtension>
            <ns3:hr>151</ns3:hr>
            <ns3:cad>82</ns3:cad>
          </ns3:TrackPointExtension>
        </extensions>
      </trkpt>
      <trkpt lat="47.48109891079366207122802734375" lon="9.98851393349468708038330078125">
        <ele>1384.4000244140625</ele>
        <time>2026-09-01T10:24:49.000Z</time>
        <extensions>
          <ns3:TrackPointExtension>
            <ns3:hr>151</ns3:hr>
            <ns3:cad>82</ns3:cad>
          </ns3:TrackPointExtension>
        </extensions>
      </trkpt>
      <trkpt lat="47.48111232183873653411865234375" lon="9.9884010292589664459228515625">
        <ele>1383.800048828125</ele>
        <time>2026-09-01T10:24:51.000Z</time>
        <extensions>
          <ns3:TrackPointExtension>
            <ns3:hr>151</ns3:hr>
            <ns3:cad>82</ns3:cad>
          </ns3:TrackPointExtension>
        </extensions>
      </trkpt>
      <trkpt lat="47.48112556524574756622314453125" lon="9.98828309588134288787841796875">
        <ele>1382.5999755859375</ele>
        <time>2026-09-01T10:24:53.000Z</time>
        <extensions>
          <ns3:TrackPointExtension>
            <ns3:hr>150</ns3:hr>
            <ns3:cad>82</ns3:cad>
          </ns3:TrackPointExtension>
        </extensions>
      </trkpt>
      <trkpt lat="47.48114082030951976776123046875" lon="9.988169185817241668701171875">
        <ele>1381.4000244140625</ele>
        <time>2026-09-01T10:24:55.000Z</time>
        <extensions>
          <ns3:TrackPointExtension>
            <ns3:hr>151</ns3:hr>
            <ns3:cad>82</ns3:cad>
          </ns3:TrackPointExtension>
        </extensions>
      </trkpt>
      <trkpt lat="47.481161691248416900634765625" lon="9.98805929906666278839111328125">
        <ele>1380.800048828125</ele>
        <time>2026-09-01T10:24:57.000Z</time>
        <extensions>
          <ns3:TrackPointExtension>
            <ns3:hr>151</ns3:hr>
            <ns3:cad>82</ns3:cad>
          </ns3:TrackPointExtension>
        </extensions>
      </trkpt>
      <trkpt lat="47.48117744922637939453125" lon="9.987951926887035369873046875">
        <ele>1379.800048828125</ele>
        <time>2026-09-01T10:24:59.000Z</time>
        <extensions>
          <ns3:TrackPointExtension>
            <ns3:hr>152</ns3:hr>
            <ns3:cad>82</ns3:cad>
          </ns3:TrackPointExtension>
        </extensions>
      </trkpt>
      <trkpt lat="47.48118205927312374114990234375" lon="9.987894594669342041015625">
        <ele>1378.5999755859375</ele>
        <time>2026-09-01T10:25:00.000Z</time>
        <extensions>
          <ns3:TrackPointExtension>
            <ns3:hr>151</ns3:hr>
            <ns3:cad>82</ns3:cad>
          </ns3:TrackPointExtension>
        </extensions>
      </trkpt>
      <trkpt lat="47.481185831129550933837890625" lon="9.98784430325031280517578125">
        <ele>1377.5999755859375</ele>
        <time>2026-09-01T10:25:01.000Z</time>
        <extensions>
          <ns3:TrackPointExtension>
            <ns3:hr>150</ns3:hr>
            <ns3:cad>83</ns3:cad>
          </ns3:TrackPointExtension>
        </extensions>
      </trkpt>
      <trkpt lat="47.48120368458330631256103515625" lon="9.98773969709873199462890625">
        <ele>1376.199951171875</ele>
        <time>2026-09-01T10:25:03.000Z</time>
        <extensions>
          <ns3:TrackPointExtension>
            <ns3:hr>151</ns3:hr>
            <ns3:cad>83</ns3:cad>
          </ns3:TrackPointExtension>
        </extensions>
      </trkpt>
      <trkpt lat="47.4812242202460765838623046875" lon="9.98762193135917186737060546875">
        <ele>1375</ele>
        <time>2026-09-01T10:25:05.000Z</time>
        <extensions>
          <ns3:TrackPointExtension>
            <ns3:hr>152</ns3:hr>
            <ns3:cad>85</ns3:cad>
          </ns3:TrackPointExtension>
        </extensions>
      </trkpt>
      <trkpt lat="47.48125280253589153289794921875" lon="9.9874635972082614898681640625">
        <ele>1374</ele>
        <time>2026-09-01T10:25:08.000Z</time>
        <extensions>
          <ns3:TrackPointExtension>
            <ns3:hr>151</ns3:hr>
            <ns3:cad>84</ns3:cad>
          </ns3:TrackPointExtension>
        </extensions>
      </trkpt>
      <trkpt lat="47.48126219026744365692138671875" lon="9.98741607181727886199951171875">
        <ele>1373.800048828125</ele>
        <time>2026-09-01T10:25:09.000Z</time>
        <extensions>
          <ns3:TrackPointExtension>
            <ns3:hr>149</ns3:hr>
            <ns3:cad>84</ns3:cad>
          </ns3:TrackPointExtension>
        </extensions>
      </trkpt>
      <trkpt lat="47.48127677477896213531494140625" lon="9.98730174265801906585693359375">
        <ele>1373.199951171875</ele>
        <time>2026-09-01T10:25:11.000Z</time>
        <extensions>
          <ns3:TrackPointExtension>
            <ns3:hr>147</ns3:hr>
            <ns3:cad>83</ns3:cad>
          </ns3:TrackPointExtension>
        </extensions>
      </trkpt>
      <trkpt lat="47.48128138482570648193359375" lon="9.9872513674199581146240234375">
        <ele>1372.800048828125</ele>
        <time>2026-09-01T10:25:12.000Z</time>
        <extensions>
          <ns3:TrackPointExtension>
            <ns3:hr>147</ns3:hr>
            <ns3:cad>83</ns3:cad>
          </ns3:TrackPointExtension>
        </extensions>
      </trkpt>
      <trkpt lat="47.48129068873822689056396484375" lon="9.98708255589008331298828125">
        <ele>1371.4000244140625</ele>
        <time>2026-09-01T10:25:15.000Z</time>
        <extensions>
          <ns3:TrackPointExtension>
            <ns3:hr>150</ns3:hr>
            <ns3:cad>82</ns3:cad>
          </ns3:TrackPointExtension>
        </extensions>
      </trkpt>
      <trkpt lat="47.48130225576460361480712890625" lon="9.98690930195152759552001953125">
        <ele>1370.4000244140625</ele>
        <time>2026-09-01T10:25:18.000Z</time>
        <extensions>
          <ns3:TrackPointExtension>
            <ns3:hr>150</ns3:hr>
            <ns3:cad>82</ns3:cad>
          </ns3:TrackPointExtension>
        </extensions>
      </trkpt>
      <trkpt lat="47.48130879364907741546630859375" lon="9.9868597649037837982177734375">
        <ele>1370</ele>
        <time>2026-09-01T10:25:19.000Z</time>
        <extensions>
          <ns3:TrackPointExtension>
            <ns3:hr>150</ns3:hr>
            <ns3:cad>82</ns3:cad>
          </ns3:TrackPointExtension>
        </extensions>
      </trkpt>
      <trkpt lat="47.48132404871284961700439453125" lon="9.98674568720161914825439453125">
        <ele>1368.800048828125</ele>
        <time>2026-09-01T10:25:21.000Z</time>
        <extensions>
          <ns3:TrackPointExtension>
            <ns3:hr>149</ns3:hr>
            <ns3:cad>84</ns3:cad>
          </ns3:TrackPointExtension>
        </extensions>
      </trkpt>
      <trkpt lat="47.48133745975792407989501953125" lon="9.9866331182420253753662109375">
        <ele>1367.5999755859375</ele>
        <time>2026-09-01T10:25:23.000Z</time>
        <extensions>
          <ns3:TrackPointExtension>
            <ns3:hr>149</ns3:hr>
            <ns3:cad>84</ns3:cad>
          </ns3:TrackPointExtension>
        </extensions>
      </trkpt>
      <trkpt lat="47.48135724104940891265869140625" lon="9.9865392409265041351318359375">
        <ele>1366.4000244140625</ele>
        <time>2026-09-01T10:25:25.000Z</time>
        <extensions>
          <ns3:TrackPointExtension>
            <ns3:hr>149</ns3:hr>
            <ns3:cad>84</ns3:cad>
          </ns3:TrackPointExtension>
        </extensions>
      </trkpt>
      <trkpt lat="47.48136009089648723602294921875" lon="9.9864809028804302215576171875">
        <ele>1366</ele>
        <time>2026-09-01T10:25:26.000Z</time>
        <extensions>
          <ns3:TrackPointExtension>
            <ns3:hr>149</ns3:hr>
            <ns3:cad>84</ns3:cad>
          </ns3:TrackPointExtension>
        </extensions>
      </trkpt>
      <trkpt lat="47.4813717417418956756591796875" lon="9.9863684177398681640625">
        <ele>1365.4000244140625</ele>
        <time>2026-09-01T10:25:28.000Z</time>
        <extensions>
          <ns3:TrackPointExtension>
            <ns3:hr>150</ns3:hr>
            <ns3:cad>84</ns3:cad>
          </ns3:TrackPointExtension>
        </extensions>
      </trkpt>
      <trkpt lat="47.48137601651251316070556640625" lon="9.98631234280765056610107421875">
        <ele>1365</ele>
        <time>2026-09-01T10:25:29.000Z</time>
        <extensions>
          <ns3:TrackPointExtension>
            <ns3:hr>150</ns3:hr>
            <ns3:cad>84</ns3:cad>
          </ns3:TrackPointExtension>
        </extensions>
      </trkpt>
      <trkpt lat="47.4813987314701080322265625" lon="9.98614646494388580322265625">
        <ele>1364.199951171875</ele>
        <time>2026-09-01T10:25:32.000Z</time>
        <extensions>
          <ns3:TrackPointExtension>
            <ns3:hr>148</ns3:hr>
            <ns3:cad>84</ns3:cad>
          </ns3:TrackPointExtension>
        </extensions>
      </trkpt>
      <trkpt lat="47.48140451498329639434814453125" lon="9.98608686961233615875244140625">
        <ele>1364.199951171875</ele>
        <time>2026-09-01T10:25:33.000Z</time>
        <extensions>
          <ns3:TrackPointExtension>
            <ns3:hr>148</ns3:hr>
            <ns3:cad>84</ns3:cad>
          </ns3:TrackPointExtension>
        </extensions>
      </trkpt>
      <trkpt lat="47.48140619136393070220947265625" lon="9.9859266914427280426025390625">
        <ele>1363.800048828125</ele>
        <time>2026-09-01T10:25:36.000Z</time>
        <extensions>
          <ns3:TrackPointExtension>
            <ns3:hr>149</ns3:hr>
            <ns3:cad>84</ns3:cad>
          </ns3:TrackPointExtension>
        </extensions>
      </trkpt>
      <trkpt lat="47.48134709894657135009765625" lon="9.98571873642504215240478515625">
        <ele>1363.199951171875</ele>
        <time>2026-09-01T10:25:40.000Z</time>
        <extensions>
          <ns3:TrackPointExtension>
            <ns3:hr>151</ns3:hr>
            <ns3:cad>84</ns3:cad>
          </ns3:TrackPointExtension>
        </extensions>
      </trkpt>
      <trkpt lat="47.4812600947916507720947265625" lon="9.98553684912621974945068359375">
        <ele>1362.5999755859375</ele>
        <time>2026-09-01T10:25:44.000Z</time>
        <extensions>
          <ns3:TrackPointExtension>
            <ns3:hr>150</ns3:hr>
            <ns3:cad>84</ns3:cad>
          </ns3:TrackPointExtension>
        </extensions>
      </trkpt>
      <trkpt lat="47.4812151677906513214111328125" lon="9.98543433845043182373046875">
        <ele>1362</ele>
        <time>2026-09-01T10:25:46.000Z</time>
        <extensions>
          <ns3:TrackPointExtension>
            <ns3:hr>150</ns3:hr>
            <ns3:cad>84</ns3:cad>
          </ns3:TrackPointExtension>
        </extensions>
      </trkpt>
      <trkpt lat="47.4811591766774654388427734375" lon="9.98530115000903606414794921875">
        <ele>1361</ele>
        <time>2026-09-01T10:25:49.000Z</time>
        <extensions>
          <ns3:TrackPointExtension>
            <ns3:hr>150</ns3:hr>
            <ns3:cad>83</ns3:cad>
          </ns3:TrackPointExtension>
        </extensions>
      </trkpt>
      <trkpt lat="47.48110377229750156402587890625" lon="9.98516075313091278076171875">
        <ele>1359.800048828125</ele>
        <time>2026-09-01T10:25:52.000Z</time>
        <extensions>
          <ns3:TrackPointExtension>
            <ns3:hr>151</ns3:hr>
            <ns3:cad>82</ns3:cad>
          </ns3:TrackPointExtension>
        </extensions>
      </trkpt>
      <trkpt lat="47.48108114115893840789794921875" lon="9.9851091206073760986328125">
        <ele>1359.5999755859375</ele>
        <time>2026-09-01T10:25:53.000Z</time>
        <extensions>
          <ns3:TrackPointExtension>
            <ns3:hr>150</ns3:hr>
            <ns3:cad>82</ns3:cad>
          </ns3:TrackPointExtension>
        </extensions>
      </trkpt>
      <trkpt lat="47.481045015156269073486328125" lon="9.9850201047956943511962890625">
        <ele>1358.800048828125</ele>
        <time>2026-09-01T10:25:55.000Z</time>
        <extensions>
          <ns3:TrackPointExtension>
            <ns3:hr>150</ns3:hr>
            <ns3:cad>82</ns3:cad>
          </ns3:TrackPointExtension>
        </extensions>
      </trkpt>
      <trkpt lat="47.48098500072956085205078125" lon="9.98494558967649936676025390625">
        <ele>1358.4000244140625</ele>
        <time>2026-09-01T10:25:57.000Z</time>
        <extensions>
          <ns3:TrackPointExtension>
            <ns3:hr>150</ns3:hr>
            <ns3:cad>82</ns3:cad>
          </ns3:TrackPointExtension>
        </extensions>
      </trkpt>
      <trkpt lat="47.48090361244976520538330078125" lon="9.98492513783276081085205078125">
        <ele>1357.5999755859375</ele>
        <time>2026-09-01T10:25:59.000Z</time>
        <extensions>
          <ns3:TrackPointExtension>
            <ns3:hr>151</ns3:hr>
            <ns3:cad>82</ns3:cad>
          </ns3:TrackPointExtension>
        </extensions>
      </trkpt>
      <trkpt lat="47.4808302707970142364501953125" lon="9.98492212034761905670166015625">
        <ele>1357.199951171875</ele>
        <time>2026-09-01T10:26:01.000Z</time>
        <extensions>
          <ns3:TrackPointExtension>
            <ns3:hr>151</ns3:hr>
            <ns3:cad>82</ns3:cad>
          </ns3:TrackPointExtension>
        </extensions>
      </trkpt>
      <trkpt lat="47.4807192943990230560302734375" lon="9.984931759536266326904296875">
        <ele>1356.800048828125</ele>
        <time>2026-09-01T10:26:04.000Z</time>
        <extensions>
          <ns3:TrackPointExtension>
            <ns3:hr>151</ns3:hr>
            <ns3:cad>82</ns3:cad>
          </ns3:TrackPointExtension>
        </extensions>
      </trkpt>
      <trkpt lat="47.48068953864276409149169921875" lon="9.9849346093833446502685546875">
        <ele>1356.5999755859375</ele>
        <time>2026-09-01T10:26:05.000Z</time>
        <extensions>
          <ns3:TrackPointExtension>
            <ns3:hr>151</ns3:hr>
            <ns3:cad>84</ns3:cad>
          </ns3:TrackPointExtension>
        </extensions>
      </trkpt>
      <trkpt lat="47.48058543540537357330322265625" lon="9.98490502126514911651611328125">
        <ele>1355.800048828125</ele>
        <time>2026-09-01T10:26:08.000Z</time>
        <extensions>
          <ns3:TrackPointExtension>
            <ns3:hr>151</ns3:hr>
            <ns3:cad>84</ns3:cad>
          </ns3:TrackPointExtension>
        </extensions>
      </trkpt>
      <trkpt lat="47.4805563502013683319091796875" lon="9.98487367294728755950927734375">
        <ele>1355.4000244140625</ele>
        <time>2026-09-01T10:26:09.000Z</time>
        <extensions>
          <ns3:TrackPointExtension>
            <ns3:hr>151</ns3:hr>
            <ns3:cad>83</ns3:cad>
          </ns3:TrackPointExtension>
        </extensions>
      </trkpt>
      <trkpt lat="47.48049859888851642608642578125" lon="9.98479940928518772125244140625">
        <ele>1354.4000244140625</ele>
        <time>2026-09-01T10:26:11.000Z</time>
        <extensions>
          <ns3:TrackPointExtension>
            <ns3:hr>151</ns3:hr>
            <ns3:cad>83</ns3:cad>
          </ns3:TrackPointExtension>
        </extensions>
      </trkpt>
      <trkpt lat="47.4804680049419403076171875" lon="9.9847693182528018951416015625">
        <ele>1353.800048828125</ele>
        <time>2026-09-01T10:26:12.000Z</time>
        <extensions>
          <ns3:TrackPointExtension>
            <ns3:hr>151</ns3:hr>
            <ns3:cad>83</ns3:cad>
          </ns3:TrackPointExtension>
        </extensions>
      </trkpt>
      <trkpt lat="47.480417378246784210205078125" lon="9.9846878461539745330810546875">
        <ele>1353.4000244140625</ele>
        <time>2026-09-01T10:26:14.000Z</time>
        <extensions>
          <ns3:TrackPointExtension>
            <ns3:hr>150</ns3:hr>
            <ns3:cad>83</ns3:cad>
          </ns3:TrackPointExtension>
        </extensions>
      </trkpt>
      <trkpt lat="47.4803692661225795745849609375" lon="9.98460763134062290191650390625">
        <ele>1352.5999755859375</ele>
        <time>2026-09-01T10:26:16.000Z</time>
        <extensions>
          <ns3:TrackPointExtension>
            <ns3:hr>150</ns3:hr>
            <ns3:cad>83</ns3:cad>
          </ns3:TrackPointExtension>
        </extensions>
      </trkpt>
      <trkpt lat="47.480343282222747802734375" lon="9.98457091860473155975341796875">
        <ele>1352.199951171875</ele>
        <time>2026-09-01T10:26:17.000Z</time>
        <extensions>
          <ns3:TrackPointExtension>
            <ns3:hr>150</ns3:hr>
            <ns3:cad>83</ns3:cad>
          </ns3:TrackPointExtension>
        </extensions>
      </trkpt>
      <trkpt lat="47.4802589602768421173095703125" lon="9.9844732694327831268310546875">
        <ele>1351</ele>
        <time>2026-09-01T10:26:20.000Z</time>
        <extensions>
          <ns3:TrackPointExtension>
            <ns3:hr>150</ns3:hr>
            <ns3:cad>83</ns3:cad>
          </ns3:TrackPointExtension>
        </extensions>
      </trkpt>
      <trkpt lat="47.4801748059689998626708984375" lon="9.98437377624213695526123046875">
        <ele>1350.5999755859375</ele>
        <time>2026-09-01T10:26:23.000Z</time>
        <extensions>
          <ns3:TrackPointExtension>
            <ns3:hr>150</ns3:hr>
            <ns3:cad>83</ns3:cad>
          </ns3:TrackPointExtension>
        </extensions>
      </trkpt>
      <trkpt lat="47.48012174852192401885986328125" lon="9.98429515399038791656494140625">
        <ele>1350</ele>
        <time>2026-09-01T10:26:25.000Z</time>
        <extensions>
          <ns3:TrackPointExtension>
            <ns3:hr>150</ns3:hr>
            <ns3:cad>83</ns3:cad>
          </ns3:TrackPointExtension>
        </extensions>
      </trkpt>
      <trkpt lat="47.48009383678436279296875" lon="9.984255842864513397216796875">
        <ele>1349.800048828125</ele>
        <time>2026-09-01T10:26:26.000Z</time>
        <extensions>
          <ns3:TrackPointExtension>
            <ns3:hr>150</ns3:hr>
            <ns3:cad>83</ns3:cad>
          </ns3:TrackPointExtension>
        </extensions>
      </trkpt>
      <trkpt lat="47.480035834014415740966796875" lon="9.98418702743947505950927734375">
        <ele>1349</ele>
        <time>2026-09-01T10:26:28.000Z</time>
        <extensions>
          <ns3:TrackPointExtension>
            <ns3:hr>151</ns3:hr>
            <ns3:cad>83</ns3:cad>
          </ns3:TrackPointExtension>
        </extensions>
      </trkpt>
      <trkpt lat="47.4799635820090770721435546875" lon="9.9841279350221157073974609375">
        <ele>1347.800048828125</ele>
        <time>2026-09-01T10:26:30.000Z</time>
        <extensions>
          <ns3:TrackPointExtension>
            <ns3:hr>151</ns3:hr>
            <ns3:cad>83</ns3:cad>
          </ns3:TrackPointExtension>
        </extensions>
      </trkpt>
      <trkpt lat="47.47986878268420696258544921875" lon="9.98405274935066699981689453125">
        <ele>1346.4000244140625</ele>
        <time>2026-09-01T10:26:33.000Z</time>
        <extensions>
          <ns3:TrackPointExtension>
            <ns3:hr>151</ns3:hr>
            <ns3:cad>82</ns3:cad>
          </ns3:TrackPointExtension>
        </extensions>
      </trkpt>
      <trkpt lat="47.4798274599015712738037109375" lon="9.98402508907020092010498046875">
        <ele>1346</ele>
        <time>2026-09-01T10:26:34.000Z</time>
        <extensions>
          <ns3:TrackPointExtension>
            <ns3:hr>151</ns3:hr>
            <ns3:cad>82</ns3:cad>
          </ns3:TrackPointExtension>
        </extensions>
      </trkpt>
      <trkpt lat="47.4797560460865497589111328125" lon="9.9839847721159458160400390625">
        <ele>1345.199951171875</ele>
        <time>2026-09-01T10:26:36.000Z</time>
        <extensions>
          <ns3:TrackPointExtension>
            <ns3:hr>151</ns3:hr>
            <ns3:cad>82</ns3:cad>
          </ns3:TrackPointExtension>
        </extensions>
      </trkpt>
      <trkpt lat="47.47968236915767192840576171875" lon="9.98394613154232501983642578125">
        <ele>1344.4000244140625</ele>
        <time>2026-09-01T10:26:38.000Z</time>
        <extensions>
          <ns3:TrackPointExtension>
            <ns3:hr>152</ns3:hr>
            <ns3:cad>84</ns3:cad>
          </ns3:TrackPointExtension>
        </extensions>
      </trkpt>
      <trkpt lat="47.47961631976068019866943359375" lon="9.98390153981745243072509765625">
        <ele>1343.800048828125</ele>
        <time>2026-09-01T10:26:40.000Z</time>
        <extensions>
          <ns3:TrackPointExtension>
            <ns3:hr>152</ns3:hr>
            <ns3:cad>84</ns3:cad>
          </ns3:TrackPointExtension>
        </extensions>
      </trkpt>
      <trkpt lat="47.4795840494334697723388671875" lon="9.98388293199241161346435546875">
        <ele>1343.5999755859375</ele>
        <time>2026-09-01T10:26:41.000Z</time>
        <extensions>
          <ns3:TrackPointExtension>
            <ns3:hr>152</ns3:hr>
            <ns3:cad>84</ns3:cad>
          </ns3:TrackPointExtension>
        </extensions>
      </trkpt>
      <trkpt lat="47.47948824428021907806396484375" lon="9.98381218872964382171630859375">
        <ele>1342.800048828125</ele>
        <time>2026-09-01T10:26:44.000Z</time>
        <extensions>
          <ns3:TrackPointExtension>
            <ns3:hr>152</ns3:hr>
            <ns3:cad>84</ns3:cad>
          </ns3:TrackPointExtension>
        </extensions>
      </trkpt>
      <trkpt lat="47.47938531450927257537841796875" lon="9.9837678484618663787841796875">
        <ele>1341.5999755859375</ele>
        <time>2026-09-01T10:26:47.000Z</time>
        <extensions>
          <ns3:TrackPointExtension>
            <ns3:hr>151</ns3:hr>
            <ns3:cad>84</ns3:cad>
          </ns3:TrackPointExtension>
        </extensions>
      </trkpt>
      <trkpt lat="47.47935815714299678802490234375" lon="9.9837510846555233001708984375">
        <ele>1341.199951171875</ele>
        <time>2026-09-01T10:26:48.000Z</time>
        <extensions>
          <ns3:TrackPointExtension>
            <ns3:hr>151</ns3:hr>
            <ns3:cad>83</ns3:cad>
          </ns3:TrackPointExtension>
        </extensions>
      </trkpt>
      <trkpt lat="47.47928355820477008819580078125" lon="9.98370565474033355712890625">
        <ele>1340.4000244140625</ele>
        <time>2026-09-01T10:26:50.000Z</time>
        <extensions>
          <ns3:TrackPointExtension>
            <ns3:hr>151</ns3:hr>
            <ns3:cad>82</ns3:cad>
          </ns3:TrackPointExtension>
        </extensions>
      </trkpt>
      <trkpt lat="47.47926302254199981689453125" lon="9.98368796892464160919189453125">
        <ele>1340</ele>
        <time>2026-09-01T10:26:51.000Z</time>
        <extensions>
          <ns3:TrackPointExtension>
            <ns3:hr>151</ns3:hr>
            <ns3:cad>82</ns3:cad>
          </ns3:TrackPointExtension>
        </extensions>
      </trkpt>
      <trkpt lat="47.4791783653199672698974609375" lon="9.983629547059535980224609375">
        <ele>1339.4000244140625</ele>
        <time>2026-09-01T10:26:54.000Z</time>
        <extensions>
          <ns3:TrackPointExtension>
            <ns3:hr>151</ns3:hr>
            <ns3:cad>82</ns3:cad>
          </ns3:TrackPointExtension>
        </extensions>
      </trkpt>
      <trkpt lat="47.47914634644985198974609375" lon="9.9836025573313236236572265625">
        <ele>1339.199951171875</ele>
        <time>2026-09-01T10:26:55.000Z</time>
        <extensions>
          <ns3:TrackPointExtension>
            <ns3:hr>150</ns3:hr>
            <ns3:cad>83</ns3:cad>
          </ns3:TrackPointExtension>
        </extensions>
      </trkpt>
      <trkpt lat="47.479091696441173553466796875" lon="9.983570538461208343505859375">
        <ele>1338.5999755859375</ele>
        <time>2026-09-01T10:26:57.000Z</time>
        <extensions>
          <ns3:TrackPointExtension>
            <ns3:hr>150</ns3:hr>
            <ns3:cad>83</ns3:cad>
          </ns3:TrackPointExtension>
        </extensions>
      </trkpt>
      <trkpt lat="47.47906462289392948150634765625" lon="9.98355737887322902679443359375">
        <ele>1338.199951171875</ele>
        <time>2026-09-01T10:26:58.000Z</time>
        <extensions>
          <ns3:TrackPointExtension>
            <ns3:hr>150</ns3:hr>
            <ns3:cad>82</ns3:cad>
          </ns3:TrackPointExtension>
        </extensions>
      </trkpt>
      <trkpt lat="47.47900008223950862884521484375" lon="9.98352586291730403900146484375">
        <ele>1337.199951171875</ele>
        <time>2026-09-01T10:27:00.000Z</time>
        <extensions>
          <ns3:TrackPointExtension>
            <ns3:hr>149</ns3:hr>
            <ns3:cad>82</ns3:cad>
          </ns3:TrackPointExtension>
        </extensions>
      </trkpt>
      <trkpt lat="47.47897527180612087249755859375" lon="9.9835083447396755218505859375">
        <ele>1336.5999755859375</ele>
        <time>2026-09-01T10:27:01.000Z</time>
        <extensions>
          <ns3:TrackPointExtension>
            <ns3:hr>149</ns3:hr>
            <ns3:cad>82</ns3:cad>
          </ns3:TrackPointExtension>
        </extensions>
      </trkpt>
      <trkpt lat="47.478940486907958984375" lon="9.98348462395370006561279296875">
        <ele>1336</ele>
        <time>2026-09-01T10:27:02.000Z</time>
        <extensions>
          <ns3:TrackPointExtension>
            <ns3:hr>149</ns3:hr>
            <ns3:cad>83</ns3:cad>
          </ns3:TrackPointExtension>
        </extensions>
      </trkpt>
      <trkpt lat="47.47888541780412197113037109375" lon="9.98342159204185009002685546875">
        <ele>1334.5999755859375</ele>
        <time>2026-09-01T10:27:04.000Z</time>
        <extensions>
          <ns3:TrackPointExtension>
            <ns3:hr>149</ns3:hr>
            <ns3:cad>83</ns3:cad>
          </ns3:TrackPointExtension>
        </extensions>
      </trkpt>
      <trkpt lat="47.47883998788893222808837890625" lon="9.98336895368993282318115234375">
        <ele>1333.5999755859375</ele>
        <time>2026-09-01T10:27:06.000Z</time>
        <extensions>
          <ns3:TrackPointExtension>
            <ns3:hr>149</ns3:hr>
            <ns3:cad>83</ns3:cad>
          </ns3:TrackPointExtension>
        </extensions>
      </trkpt>
      <trkpt lat="47.47877913527190685272216796875" lon="9.9833209253847599029541015625">
        <ele>1332.5999755859375</ele>
        <time>2026-09-01T10:27:08.000Z</time>
        <extensions>
          <ns3:TrackPointExtension>
            <ns3:hr>150</ns3:hr>
            <ns3:cad>87</ns3:cad>
          </ns3:TrackPointExtension>
        </extensions>
      </trkpt>
      <trkpt lat="47.4787398241460323333740234375" lon="9.983302317559719085693359375">
        <ele>1332.199951171875</ele>
        <time>2026-09-01T10:27:09.000Z</time>
        <extensions>
          <ns3:TrackPointExtension>
            <ns3:hr>150</ns3:hr>
            <ns3:cad>87</ns3:cad>
          </ns3:TrackPointExtension>
        </extensions>
      </trkpt>
      <trkpt lat="47.4786657281219959259033203125" lon="9.9833041615784168243408203125">
        <ele>1331.199951171875</ele>
        <time>2026-09-01T10:27:11.000Z</time>
        <extensions>
          <ns3:TrackPointExtension>
            <ns3:hr>151</ns3:hr>
            <ns3:cad>87</ns3:cad>
          </ns3:TrackPointExtension>
        </extensions>
      </trkpt>
      <trkpt lat="47.4785534106194972991943359375" lon="9.98329636640846729278564453125">
        <ele>1330.199951171875</ele>
        <time>2026-09-01T10:27:14.000Z</time>
        <extensions>
          <ns3:TrackPointExtension>
            <ns3:hr>151</ns3:hr>
            <ns3:cad>83</ns3:cad>
          </ns3:TrackPointExtension>
        </extensions>
      </trkpt>
      <trkpt lat="47.47851946391165256500244140625" lon="9.98331061564385890960693359375">
        <ele>1330</ele>
        <time>2026-09-01T10:27:15.000Z</time>
        <extensions>
          <ns3:TrackPointExtension>
            <ns3:hr>151</ns3:hr>
            <ns3:cad>83</ns3:cad>
          </ns3:TrackPointExtension>
        </extensions>
      </trkpt>
      <trkpt lat="47.47841469012200832366943359375" lon="9.9833464063704013824462890625">
        <ele>1329.800048828125</ele>
        <time>2026-09-01T10:27:18.000Z</time>
        <extensions>
          <ns3:TrackPointExtension>
            <ns3:hr>151</ns3:hr>
            <ns3:cad>84</ns3:cad>
          </ns3:TrackPointExtension>
        </extensions>
      </trkpt>
      <trkpt lat="47.47828267514705657958984375" lon="9.98342444188892841339111328125">
        <ele>1328.800048828125</ele>
        <time>2026-09-01T10:27:22.000Z</time>
        <extensions>
          <ns3:TrackPointExtension>
            <ns3:hr>151</ns3:hr>
            <ns3:cad>82</ns3:cad>
          </ns3:TrackPointExtension>
        </extensions>
      </trkpt>
      <trkpt lat="47.47821486555039882659912109375" lon="9.9834215082228183746337890625">
        <ele>1327.4000244140625</ele>
        <time>2026-09-01T10:27:25.000Z</time>
        <extensions>
          <ns3:TrackPointExtension>
            <ns3:hr>151</ns3:hr>
            <ns3:cad>82</ns3:cad>
          </ns3:TrackPointExtension>
        </extensions>
      </trkpt>
      <trkpt lat="47.47802560217678546905517578125" lon="9.983385466039180755615234375">
        <ele>1326.199951171875</ele>
        <time>2026-09-01T10:27:31.000Z</time>
        <extensions>
          <ns3:TrackPointExtension>
            <ns3:hr>152</ns3:hr>
            <ns3:cad>83</ns3:cad>
          </ns3:TrackPointExtension>
        </extensions>
      </trkpt>
      <trkpt lat="47.4778798408806324005126953125" lon="9.98336811549961566925048828125">
        <ele>1326</ele>
        <time>2026-09-01T10:27:36.000Z</time>
        <extensions>
          <ns3:TrackPointExtension>
            <ns3:hr>154</ns3:hr>
            <ns3:cad>84</ns3:cad>
          </ns3:TrackPointExtension>
        </extensions>
      </trkpt>
      <trkpt lat="47.477796860039234161376953125" lon="9.983271472156047821044921875">
        <ele>1327</ele>
        <time>2026-09-01T10:27:40.000Z</time>
        <extensions>
          <ns3:TrackPointExtension>
            <ns3:hr>155</ns3:hr>
            <ns3:cad>86</ns3:cad>
          </ns3:TrackPointExtension>
        </extensions>
      </trkpt>
      <trkpt lat="47.477715723216533660888671875" lon="9.9831308238208293914794921875">
        <ele>1326.5999755859375</ele>
        <time>2026-09-01T10:27:44.000Z</time>
        <extensions>
          <ns3:TrackPointExtension>
            <ns3:hr>153</ns3:hr>
            <ns3:cad>82</ns3:cad>
          </ns3:TrackPointExtension>
        </extensions>
      </trkpt>
      <trkpt lat="47.47767624445259571075439453125" lon="9.9831217713654041290283203125">
        <ele>1326.4000244140625</ele>
        <time>2026-09-01T10:27:45.000Z</time>
        <extensions>
          <ns3:TrackPointExtension>
            <ns3:hr>153</ns3:hr>
            <ns3:cad>82</ns3:cad>
          </ns3:TrackPointExtension>
        </extensions>
      </trkpt>
      <trkpt lat="47.4776143021881580352783203125" lon="9.98311816714704036712646484375">
        <ele>1325.800048828125</ele>
        <time>2026-09-01T10:27:47.000Z</time>
        <extensions>
          <ns3:TrackPointExtension>
            <ns3:hr>154</ns3:hr>
            <ns3:cad>81</ns3:cad>
          </ns3:TrackPointExtension>
        </extensions>
      </trkpt>
      <trkpt lat="47.47753567993640899658203125" lon="9.98305530287325382232666015625">
        <ele>1325.5999755859375</ele>
        <time>2026-09-01T10:27:50.000Z</time>
        <extensions>
          <ns3:TrackPointExtension>
            <ns3:hr>155</ns3:hr>
            <ns3:cad>81</ns3:cad>
          </ns3:TrackPointExtension>
        </extensions>
      </trkpt>
      <trkpt lat="47.47748530469834804534912109375" lon="9.982979781925678253173828125">
        <ele>1325.4000244140625</ele>
        <time>2026-09-01T10:27:52.000Z</time>
        <extensions>
          <ns3:TrackPointExtension>
            <ns3:hr>155</ns3:hr>
            <ns3:cad>86</ns3:cad>
          </ns3:TrackPointExtension>
        </extensions>
      </trkpt>
      <trkpt lat="47.47746166773140430450439453125" lon="9.9829418957233428955078125">
        <ele>1325.199951171875</ele>
        <time>2026-09-01T10:27:53.000Z</time>
        <extensions>
          <ns3:TrackPointExtension>
            <ns3:hr>156</ns3:hr>
            <ns3:cad>83</ns3:cad>
          </ns3:TrackPointExtension>
        </extensions>
      </trkpt>
      <trkpt lat="47.47735722921788692474365234375" lon="9.98277082107961177825927734375">
        <ele>1324.5999755859375</ele>
        <time>2026-09-01T10:27:58.000Z</time>
        <extensions>
          <ns3:TrackPointExtension>
            <ns3:hr>157</ns3:hr>
            <ns3:cad>85</ns3:cad>
          </ns3:TrackPointExtension>
        </extensions>
      </trkpt>
      <trkpt lat="47.47733744792640209197998046875" lon="9.98274131678044795989990234375">
        <ele>1324</ele>
        <time>2026-09-01T10:27:59.000Z</time>
        <extensions>
          <ns3:TrackPointExtension>
            <ns3:hr>157</ns3:hr>
            <ns3:cad>85</ns3:cad>
          </ns3:TrackPointExtension>
        </extensions>
      </trkpt>
      <trkpt lat="47.4772817082703113555908203125" lon="9.98270041309297084808349609375">
        <ele>1322.5999755859375</ele>
        <time>2026-09-01T10:28:01.000Z</time>
        <extensions>
          <ns3:TrackPointExtension>
            <ns3:hr>156</ns3:hr>
            <ns3:cad>85</ns3:cad>
          </ns3:TrackPointExtension>
        </extensions>
      </trkpt>
      <trkpt lat="47.4772391282021999359130859375" lon="9.98265146277844905853271484375">
        <ele>1321.199951171875</ele>
        <time>2026-09-01T10:28:03.000Z</time>
        <extensions>
          <ns3:TrackPointExtension>
            <ns3:hr>155</ns3:hr>
            <ns3:cad>85</ns3:cad>
          </ns3:TrackPointExtension>
        </extensions>
      </trkpt>
      <trkpt lat="47.47721188701689243316650390625" lon="9.98262380249798297882080078125">
        <ele>1320.800048828125</ele>
        <time>2026-09-01T10:28:04.000Z</time>
        <extensions>
          <ns3:TrackPointExtension>
            <ns3:hr>155</ns3:hr>
            <ns3:cad>85</ns3:cad>
          </ns3:TrackPointExtension>
        </extensions>
      </trkpt>
      <trkpt lat="47.477118931710720062255859375" lon="9.9825310148298740386962890625">
        <ele>1320.199951171875</ele>
        <time>2026-09-01T10:28:07.000Z</time>
        <extensions>
          <ns3:TrackPointExtension>
            <ns3:hr>155</ns3:hr>
            <ns3:cad>83</ns3:cad>
          </ns3:TrackPointExtension>
        </extensions>
      </trkpt>
      <trkpt lat="47.4770615994930267333984375" lon="9.98243831098079681396484375">
        <ele>1319.800048828125</ele>
        <time>2026-09-01T10:28:09.000Z</time>
        <extensions>
          <ns3:TrackPointExtension>
            <ns3:hr>155</ns3:hr>
            <ns3:cad>83</ns3:cad>
          </ns3:TrackPointExtension>
        </extensions>
      </trkpt>
      <trkpt lat="47.47696411795914173126220703125" lon="9.982326328754425048828125">
        <ele>1319</ele>
        <time>2026-09-01T10:28:13.000Z</time>
        <extensions>
          <ns3:TrackPointExtension>
            <ns3:hr>155</ns3:hr>
            <ns3:cad>83</ns3:cad>
          </ns3:TrackPointExtension>
        </extensions>
      </trkpt>
      <trkpt lat="47.4769221246242523193359375" lon="9.98230713419616222381591796875">
        <ele>1317.5999755859375</ele>
        <time>2026-09-01T10:28:15.000Z</time>
        <extensions>
          <ns3:TrackPointExtension>
            <ns3:hr>155</ns3:hr>
            <ns3:cad>83</ns3:cad>
          </ns3:TrackPointExtension>
        </extensions>
      </trkpt>
      <trkpt lat="47.47687946073710918426513671875" lon="9.9822812341153621673583984375">
        <ele>1315.4000244140625</ele>
        <time>2026-09-01T10:28:17.000Z</time>
        <extensions>
          <ns3:TrackPointExtension>
            <ns3:hr>153</ns3:hr>
            <ns3:cad>83</ns3:cad>
          </ns3:TrackPointExtension>
        </extensions>
      </trkpt>
      <trkpt lat="47.4768414907157421112060546875" lon="9.9822617881000041961669921875">
        <ele>1314.5999755859375</ele>
        <time>2026-09-01T10:28:18.000Z</time>
        <extensions>
          <ns3:TrackPointExtension>
            <ns3:hr>153</ns3:hr>
            <ns3:cad>83</ns3:cad>
          </ns3:TrackPointExtension>
        </extensions>
      </trkpt>
      <trkpt lat="47.47681424953043460845947265625" lon="9.9822339601814746856689453125">
        <ele>1313.800048828125</ele>
        <time>2026-09-01T10:28:19.000Z</time>
        <extensions>
          <ns3:TrackPointExtension>
            <ns3:hr>153</ns3:hr>
            <ns3:cad>83</ns3:cad>
          </ns3:TrackPointExtension>
        </extensions>
      </trkpt>
      <trkpt lat="47.4767596833407878875732421875" lon="9.98215734958648681640625">
        <ele>1312.4000244140625</ele>
        <time>2026-09-01T10:28:21.000Z</time>
        <extensions>
          <ns3:TrackPointExtension>
            <ns3:hr>153</ns3:hr>
            <ns3:cad>99</ns3:cad>
          </ns3:TrackPointExtension>
        </extensions>
      </trkpt>
      <trkpt lat="47.47673906385898590087890625" lon="9.9821280129253864288330078125">
        <ele>1311.5999755859375</ele>
        <time>2026-09-01T10:28:22.000Z</time>
        <extensions>
          <ns3:TrackPointExtension>
            <ns3:hr>153</ns3:hr>
            <ns3:cad>99</ns3:cad>
          </ns3:TrackPointExtension>
        </extensions>
      </trkpt>
      <trkpt lat="47.47672431170940399169921875" lon="9.98210663907229900360107421875">
        <ele>1311</ele>
        <time>2026-09-01T10:28:23.000Z</time>
        <extensions>
          <ns3:TrackPointExtension>
            <ns3:hr>153</ns3:hr>
            <ns3:cad>99</ns3:cad>
          </ns3:TrackPointExtension>
        </extensions>
      </trkpt>
      <trkpt lat="47.47672439552843570709228515625" lon="9.9820696748793125152587890625">
        <ele>1309.5999755859375</ele>
        <time>2026-09-01T10:28:25.000Z</time>
        <extensions>
          <ns3:TrackPointExtension>
            <ns3:hr>153</ns3:hr>
            <ns3:cad>95</ns3:cad>
          </ns3:TrackPointExtension>
        </extensions>
      </trkpt>
      <trkpt lat="47.4767050333321094512939453125" lon="9.981995411217212677001953125">
        <ele>1308</ele>
        <time>2026-09-01T10:28:28.000Z</time>
        <extensions>
          <ns3:TrackPointExtension>
            <ns3:hr>152</ns3:hr>
            <ns3:cad>95</ns3:cad>
          </ns3:TrackPointExtension>
        </extensions>
      </trkpt>
      <trkpt lat="47.4766879342496395111083984375" lon="9.98194612562656402587890625">
        <ele>1307.5999755859375</ele>
        <time>2026-09-01T10:28:29.000Z</time>
        <extensions>
          <ns3:TrackPointExtension>
            <ns3:hr>153</ns3:hr>
            <ns3:cad>95</ns3:cad>
          </ns3:TrackPointExtension>
        </extensions>
      </trkpt>
      <trkpt lat="47.4766631238162517547607421875" lon="9.9818618036806583404541015625">
        <ele>1306.800048828125</ele>
        <time>2026-09-01T10:28:31.000Z</time>
        <extensions>
          <ns3:TrackPointExtension>
            <ns3:hr>153</ns3:hr>
            <ns3:cad>0</ns3:cad>
          </ns3:TrackPointExtension>
        </extensions>
      </trkpt>
      <trkpt lat="47.47663504444062709808349609375" lon="9.9817571975290775299072265625">
        <ele>1305.5999755859375</ele>
        <time>2026-09-01T10:28:33.000Z</time>
        <extensions>
          <ns3:TrackPointExtension>
            <ns3:hr>152</ns3:hr>
            <ns3:cad>85</ns3:cad>
          </ns3:TrackPointExtension>
        </extensions>
      </trkpt>
      <trkpt lat="47.4766270816326141357421875" lon="9.98166843317449092864990234375">
        <ele>1304</ele>
        <time>2026-09-01T10:28:35.000Z</time>
        <extensions>
          <ns3:TrackPointExtension>
            <ns3:hr>150</ns3:hr>
            <ns3:cad>85</ns3:cad>
          </ns3:TrackPointExtension>
        </extensions>
      </trkpt>
      <trkpt lat="47.476634122431278228759765625" lon="9.98162350617349147796630859375">
        <ele>1303.199951171875</ele>
        <time>2026-09-01T10:28:36.000Z</time>
        <extensions>
          <ns3:TrackPointExtension>
            <ns3:hr>150</ns3:hr>
            <ns3:cad>91</ns3:cad>
          </ns3:TrackPointExtension>
        </extensions>
      </trkpt>
      <trkpt lat="47.47664158232510089874267578125" lon="9.98157463967800140380859375">
        <ele>1302.5999755859375</ele>
        <time>2026-09-01T10:28:37.000Z</time>
        <extensions>
          <ns3:TrackPointExtension>
            <ns3:hr>150</ns3:hr>
            <ns3:cad>91</ns3:cad>
          </ns3:TrackPointExtension>
        </extensions>
      </trkpt>
      <trkpt lat="47.4766537360846996307373046875" lon="9.98147179372608661651611328125">
        <ele>1301.4000244140625</ele>
        <time>2026-09-01T10:28:39.000Z</time>
        <extensions>
          <ns3:TrackPointExtension>
            <ns3:hr>149</ns3:hr>
            <ns3:cad>91</ns3:cad>
          </ns3:TrackPointExtension>
        </extensions>
      </trkpt>
      <trkpt lat="47.4766552448272705078125" lon="9.981416724622249603271484375">
        <ele>1301</ele>
        <time>2026-09-01T10:28:40.000Z</time>
        <extensions>
          <ns3:TrackPointExtension>
            <ns3:hr>149</ns3:hr>
            <ns3:cad>91</ns3:cad>
          </ns3:TrackPointExtension>
        </extensions>
      </trkpt>
      <trkpt lat="47.47666572220623493194580078125" lon="9.98132494278252124786376953125">
        <ele>1300.199951171875</ele>
        <time>2026-09-01T10:28:42.000Z</time>
        <extensions>
          <ns3:TrackPointExtension>
            <ns3:hr>149</ns3:hr>
            <ns3:cad>91</ns3:cad>
          </ns3:TrackPointExtension>
        </extensions>
      </trkpt>
      <trkpt lat="47.47667108662426471710205078125" lon="9.98126777820289134979248046875">
        <ele>1300</ele>
        <time>2026-09-01T10:28:43.000Z</time>
        <extensions>
          <ns3:TrackPointExtension>
            <ns3:hr>149</ns3:hr>
            <ns3:cad>86</ns3:cad>
          </ns3:TrackPointExtension>
        </extensions>
      </trkpt>
      <trkpt lat="47.476654909551143646240234375" lon="9.98110215179622173309326171875">
        <ele>1298.800048828125</ele>
        <time>2026-09-01T10:28:46.000Z</time>
        <extensions>
          <ns3:TrackPointExtension>
            <ns3:hr>149</ns3:hr>
            <ns3:cad>83</ns3:cad>
          </ns3:TrackPointExtension>
        </extensions>
      </trkpt>
      <trkpt lat="47.4766473658382892608642578125" lon="9.9810383655130863189697265625">
        <ele>1298.4000244140625</ele>
        <time>2026-09-01T10:28:47.000Z</time>
        <extensions>
          <ns3:TrackPointExtension>
            <ns3:hr>151</ns3:hr>
            <ns3:cad>83</ns3:cad>
          </ns3:TrackPointExtension>
        </extensions>
      </trkpt>
      <trkpt lat="47.476636469364166259765625" lon="9.98093652538955211639404296875">
        <ele>1297.4000244140625</ele>
        <time>2026-09-01T10:28:49.000Z</time>
        <extensions>
          <ns3:TrackPointExtension>
            <ns3:hr>151</ns3:hr>
            <ns3:cad>83</ns3:cad>
          </ns3:TrackPointExtension>
        </extensions>
      </trkpt>
      <trkpt lat="47.47660269029438495635986328125" lon="9.9808336794376373291015625">
        <ele>1296.5999755859375</ele>
        <time>2026-09-01T10:28:51.000Z</time>
        <extensions>
          <ns3:TrackPointExtension>
            <ns3:hr>151</ns3:hr>
            <ns3:cad>86</ns3:cad>
          </ns3:TrackPointExtension>
        </extensions>
      </trkpt>
      <trkpt lat="47.47658559121191501617431640625" lon="9.98077844269573688507080078125">
        <ele>1296</ele>
        <time>2026-09-01T10:28:52.000Z</time>
        <extensions>
          <ns3:TrackPointExtension>
            <ns3:hr>152</ns3:hr>
            <ns3:cad>86</ns3:cad>
          </ns3:TrackPointExtension>
        </extensions>
      </trkpt>
      <trkpt lat="47.47655290178954601287841796875" lon="9.980671070516109466552734375">
        <ele>1295</ele>
        <time>2026-09-01T10:28:54.000Z</time>
        <extensions>
          <ns3:TrackPointExtension>
            <ns3:hr>151</ns3:hr>
            <ns3:cad>84</ns3:cad>
          </ns3:TrackPointExtension>
        </extensions>
      </trkpt>
      <trkpt lat="47.4765337072312831878662109375" lon="9.980624802410602569580078125">
        <ele>1294.5999755859375</ele>
        <time>2026-09-01T10:28:55.000Z</time>
        <extensions>
          <ns3:TrackPointExtension>
            <ns3:hr>151</ns3:hr>
            <ns3:cad>84</ns3:cad>
          </ns3:TrackPointExtension>
        </extensions>
      </trkpt>
      <trkpt lat="47.476512081921100616455078125" lon="9.9805761873722076416015625">
        <ele>1293.800048828125</ele>
        <time>2026-09-01T10:28:56.000Z</time>
        <extensions>
          <ns3:TrackPointExtension>
            <ns3:hr>151</ns3:hr>
            <ns3:cad>84</ns3:cad>
          </ns3:TrackPointExtension>
        </extensions>
      </trkpt>
      <trkpt lat="47.47648132033646106719970703125" lon="9.9804818071424961090087890625">
        <ele>1292.4000244140625</ele>
        <time>2026-09-01T10:28:58.000Z</time>
        <extensions>
          <ns3:TrackPointExtension>
            <ns3:hr>151</ns3:hr>
            <ns3:cad>84</ns3:cad>
          </ns3:TrackPointExtension>
        </extensions>
      </trkpt>
      <trkpt lat="47.4764575995504856109619140625" lon="9.98038331978023052215576171875">
        <ele>1291.199951171875</ele>
        <time>2026-09-01T10:29:00.000Z</time>
        <extensions>
          <ns3:TrackPointExtension>
            <ns3:hr>150</ns3:hr>
            <ns3:cad>86</ns3:cad>
          </ns3:TrackPointExtension>
        </extensions>
      </trkpt>
      <trkpt lat="47.4764418415725231170654296875" lon="9.980266056954860687255859375">
        <ele>1290</ele>
        <time>2026-09-01T10:29:02.000Z</time>
        <extensions>
          <ns3:TrackPointExtension>
            <ns3:hr>150</ns3:hr>
            <ns3:cad>88</ns3:cad>
          </ns3:TrackPointExtension>
        </extensions>
      </trkpt>
      <trkpt lat="47.476413510739803314208984375" lon="9.98015885241329669952392578125">
        <ele>1289.199951171875</ele>
        <time>2026-09-01T10:29:04.000Z</time>
        <extensions>
          <ns3:TrackPointExtension>
            <ns3:hr>150</ns3:hr>
            <ns3:cad>87</ns3:cad>
          </ns3:TrackPointExtension>
        </extensions>
      </trkpt>
      <trkpt lat="47.4764042906463146209716796875" lon="9.98010789044201374053955078125">
        <ele>1288.800048828125</ele>
        <time>2026-09-01T10:29:05.000Z</time>
        <extensions>
          <ns3:TrackPointExtension>
            <ns3:hr>150</ns3:hr>
            <ns3:cad>85</ns3:cad>
          </ns3:TrackPointExtension>
        </extensions>
      </trkpt>
      <trkpt lat="47.476357854902744293212890625" lon="9.97997562400996685028076171875">
        <ele>1287.199951171875</ele>
        <time>2026-09-01T10:29:08.000Z</time>
        <extensions>
          <ns3:TrackPointExtension>
            <ns3:hr>151</ns3:hr>
            <ns3:cad>85</ns3:cad>
          </ns3:TrackPointExtension>
        </extensions>
      </trkpt>
      <trkpt lat="47.4763288535177707672119140625" lon="9.9798823334276676177978515625">
        <ele>1286</ele>
        <time>2026-09-01T10:29:10.000Z</time>
        <extensions>
          <ns3:TrackPointExtension>
            <ns3:hr>151</ns3:hr>
            <ns3:cad>83</ns3:cad>
          </ns3:TrackPointExtension>
        </extensions>
      </trkpt>
      <trkpt lat="47.47630655765533447265625" lon="9.97979574836790561676025390625">
        <ele>1284.800048828125</ele>
        <time>2026-09-01T10:29:12.000Z</time>
        <extensions>
          <ns3:TrackPointExtension>
            <ns3:hr>152</ns3:hr>
            <ns3:cad>83</ns3:cad>
          </ns3:TrackPointExtension>
        </extensions>
      </trkpt>
      <trkpt lat="47.47629725374281406402587890625" lon="9.97974445112049579620361328125">
        <ele>1284.4000244140625</ele>
        <time>2026-09-01T10:29:13.000Z</time>
        <extensions>
          <ns3:TrackPointExtension>
            <ns3:hr>152</ns3:hr>
            <ns3:cad>83</ns3:cad>
          </ns3:TrackPointExtension>
        </extensions>
      </trkpt>
      <trkpt lat="47.476287446916103363037109375" lon="9.979701451957225799560546875">
        <ele>1283.800048828125</ele>
        <time>2026-09-01T10:29:14.000Z</time>
        <extensions>
          <ns3:TrackPointExtension>
            <ns3:hr>151</ns3:hr>
            <ns3:cad>83</ns3:cad>
          </ns3:TrackPointExtension>
        </extensions>
      </trkpt>
      <trkpt lat="47.476274035871028900146484375" lon="9.9796392582356929779052734375">
        <ele>1282.4000244140625</ele>
        <time>2026-09-01T10:29:16.000Z</time>
        <extensions>
          <ns3:TrackPointExtension>
            <ns3:hr>151</ns3:hr>
            <ns3:cad>83</ns3:cad>
          </ns3:TrackPointExtension>
        </extensions>
      </trkpt>
      <trkpt lat="47.4762634746730327606201171875" lon="9.97959692962467670440673828125">
        <ele>1281.4000244140625</ele>
        <time>2026-09-01T10:29:17.000Z</time>
        <extensions>
          <ns3:TrackPointExtension>
            <ns3:hr>151</ns3:hr>
            <ns3:cad>83</ns3:cad>
          </ns3:TrackPointExtension>
        </extensions>
      </trkpt>
      <trkpt lat="47.47625651769340038299560546875" lon="9.97957513667643070220947265625">
        <ele>1280.4000244140625</ele>
        <time>2026-09-01T10:29:18.000Z</time>
        <extensions>
          <ns3:TrackPointExtension>
            <ns3:hr>151</ns3:hr>
            <ns3:cad>102</ns3:cad>
          </ns3:TrackPointExtension>
        </extensions>
      </trkpt>
      <trkpt lat="47.47622885741293430328369140625" lon="9.97949190437793731689453125">
        <ele>1278.5999755859375</ele>
        <time>2026-09-01T10:29:20.000Z</time>
        <extensions>
          <ns3:TrackPointExtension>
            <ns3:hr>152</ns3:hr>
            <ns3:cad>102</ns3:cad>
          </ns3:TrackPointExtension>
        </extensions>
      </trkpt>
      <trkpt lat="47.476215027272701263427734375" lon="9.979451000690460205078125">
        <ele>1277.4000244140625</ele>
        <time>2026-09-01T10:29:21.000Z</time>
        <extensions>
          <ns3:TrackPointExtension>
            <ns3:hr>153</ns3:hr>
            <ns3:cad>102</ns3:cad>
          </ns3:TrackPointExtension>
        </extensions>
      </trkpt>
      <trkpt lat="47.47620522044599056243896484375" lon="9.9794112704694271087646484375">
        <ele>1276.4000244140625</ele>
        <time>2026-09-01T10:29:22.000Z</time>
        <extensions>
          <ns3:TrackPointExtension>
            <ns3:hr>153</ns3:hr>
            <ns3:cad>102</ns3:cad>
          </ns3:TrackPointExtension>
        </extensions>
      </trkpt>
      <trkpt lat="47.47618845663964748382568359375" lon="9.97935284860432147979736328125">
        <ele>1275.4000244140625</ele>
        <time>2026-09-01T10:29:23.000Z</time>
        <extensions>
          <ns3:TrackPointExtension>
            <ns3:hr>153</ns3:hr>
            <ns3:cad>102</ns3:cad>
          </ns3:TrackPointExtension>
        </extensions>
      </trkpt>
      <trkpt lat="47.476183511316776275634765625" lon="9.97931412421166896820068359375">
        <ele>1274.199951171875</ele>
        <time>2026-09-01T10:29:24.000Z</time>
        <extensions>
          <ns3:TrackPointExtension>
            <ns3:hr>154</ns3:hr>
            <ns3:cad>102</ns3:cad>
          </ns3:TrackPointExtension>
        </extensions>
      </trkpt>
      <trkpt lat="47.47617370449006557464599609375" lon="9.9792654253542423248291015625">
        <ele>1273.4000244140625</ele>
        <time>2026-09-01T10:29:25.000Z</time>
        <extensions>
          <ns3:TrackPointExtension>
            <ns3:hr>153</ns3:hr>
            <ns3:cad>102</ns3:cad>
          </ns3:TrackPointExtension>
        </extensions>
      </trkpt>
      <trkpt lat="47.4761655740439891815185546875" lon="9.9792225100100040435791015625">
        <ele>1272.199951171875</ele>
        <time>2026-09-01T10:29:26.000Z</time>
        <extensions>
          <ns3:TrackPointExtension>
            <ns3:hr>154</ns3:hr>
            <ns3:cad>102</ns3:cad>
          </ns3:TrackPointExtension>
        </extensions>
      </trkpt>
      <trkpt lat="47.4761414341628551483154296875" lon="9.979120753705501556396484375">
        <ele>1270.5999755859375</ele>
        <time>2026-09-01T10:29:28.000Z</time>
        <extensions>
          <ns3:TrackPointExtension>
            <ns3:hr>154</ns3:hr>
            <ns3:cad>102</ns3:cad>
          </ns3:TrackPointExtension>
        </extensions>
      </trkpt>
      <trkpt lat="47.4761243350803852081298828125" lon="9.979071132838726043701171875">
        <ele>1269.5999755859375</ele>
        <time>2026-09-01T10:29:29.000Z</time>
        <extensions>
          <ns3:TrackPointExtension>
            <ns3:hr>154</ns3:hr>
            <ns3:cad>102</ns3:cad>
          </ns3:TrackPointExtension>
        </extensions>
      </trkpt>
      <trkpt lat="47.4761072359979152679443359375" lon="9.97902981005609035491943359375">
        <ele>1268.800048828125</ele>
        <time>2026-09-01T10:29:30.000Z</time>
        <extensions>
          <ns3:TrackPointExtension>
            <ns3:hr>154</ns3:hr>
            <ns3:cad>102</ns3:cad>
          </ns3:TrackPointExtension>
        </extensions>
      </trkpt>
      <trkpt lat="47.476074881851673126220703125" lon="9.97893132269382476806640625">
        <ele>1267.199951171875</ele>
        <time>2026-09-01T10:29:32.000Z</time>
        <extensions>
          <ns3:TrackPointExtension>
            <ns3:hr>154</ns3:hr>
            <ns3:cad>93</ns3:cad>
          </ns3:TrackPointExtension>
        </extensions>
      </trkpt>
      <trkpt lat="47.47605635784566402435302734375" lon="9.9788815341889858245849609375">
        <ele>1266.199951171875</ele>
        <time>2026-09-01T10:29:33.000Z</time>
        <extensions>
          <ns3:TrackPointExtension>
            <ns3:hr>155</ns3:hr>
            <ns3:cad>93</ns3:cad>
          </ns3:TrackPointExtension>
        </extensions>
      </trkpt>
      <trkpt lat="47.4760378338396549224853515625" lon="9.97884373180568218231201171875">
        <ele>1265.199951171875</ele>
        <time>2026-09-01T10:29:34.000Z</time>
        <extensions>
          <ns3:TrackPointExtension>
            <ns3:hr>154</ns3:hr>
            <ns3:cad>93</ns3:cad>
          </ns3:TrackPointExtension>
        </extensions>
      </trkpt>
      <trkpt lat="47.47601076029241085052490234375" lon="9.9787521176040172576904296875">
        <ele>1263.4000244140625</ele>
        <time>2026-09-01T10:29:36.000Z</time>
        <extensions>
          <ns3:TrackPointExtension>
            <ns3:hr>154</ns3:hr>
            <ns3:cad>93</ns3:cad>
          </ns3:TrackPointExtension>
        </extensions>
      </trkpt>
      <trkpt lat="47.4759878776967525482177734375" lon="9.9786545522511005401611328125">
        <ele>1261.800048828125</ele>
        <time>2026-09-01T10:29:38.000Z</time>
        <extensions>
          <ns3:TrackPointExtension>
            <ns3:hr>154</ns3:hr>
            <ns3:cad>93</ns3:cad>
          </ns3:TrackPointExtension>
        </extensions>
      </trkpt>
      <trkpt lat="47.47596566565334796905517578125" lon="9.978585653007030487060546875">
        <ele>1260.4000244140625</ele>
        <time>2026-09-01T10:29:40.000Z</time>
        <extensions>
          <ns3:TrackPointExtension>
            <ns3:hr>154</ns3:hr>
            <ns3:cad>85</ns3:cad>
          </ns3:TrackPointExtension>
        </extensions>
      </trkpt>
      <trkpt lat="47.47596323490142822265625" lon="9.9785623513162136077880859375">
        <ele>1259.5999755859375</ele>
        <time>2026-09-01T10:29:41.000Z</time>
        <extensions>
          <ns3:TrackPointExtension>
            <ns3:hr>154</ns3:hr>
            <ns3:cad>85</ns3:cad>
          </ns3:TrackPointExtension>
        </extensions>
      </trkpt>
      <trkpt lat="47.4759600497782230377197265625" lon="9.978560172021389007568359375">
        <ele>1259</ele>
        <time>2026-09-01T10:29:42.000Z</time>
        <extensions>
          <ns3:TrackPointExtension>
            <ns3:hr>153</ns3:hr>
            <ns3:cad>85</ns3:cad>
          </ns3:TrackPointExtension>
        </extensions>
      </trkpt>
      <trkpt lat="47.4759452976286411285400390625" lon="9.97851415537297725677490234375">
        <ele>1257.800048828125</ele>
        <time>2026-09-01T10:29:44.000Z</time>
        <extensions>
          <ns3:TrackPointExtension>
            <ns3:hr>151</ns3:hr>
            <ns3:cad>87</ns3:cad>
          </ns3:TrackPointExtension>
        </extensions>
      </trkpt>
      <trkpt lat="47.475941441953182220458984375" lon="9.97847911901772022247314453125">
        <ele>1257.5999755859375</ele>
        <time>2026-09-01T10:29:45.000Z</time>
        <extensions>
          <ns3:TrackPointExtension>
            <ns3:hr>150</ns3:hr>
            <ns3:cad>87</ns3:cad>
          </ns3:TrackPointExtension>
        </extensions>
      </trkpt>
      <trkpt lat="47.47591269202530384063720703125" lon="9.9783561564981937408447265625">
        <ele>1256.5999755859375</ele>
        <time>2026-09-01T10:29:48.000Z</time>
        <extensions>
          <ns3:TrackPointExtension>
            <ns3:hr>151</ns3:hr>
            <ns3:cad>87</ns3:cad>
          </ns3:TrackPointExtension>
        </extensions>
      </trkpt>
      <trkpt lat="47.4758906476199626922607421875" lon="9.97826479375362396240234375">
        <ele>1255.199951171875</ele>
        <time>2026-09-01T10:29:50.000Z</time>
        <extensions>
          <ns3:TrackPointExtension>
            <ns3:hr>153</ns3:hr>
            <ns3:cad>84</ns3:cad>
          </ns3:TrackPointExtension>
        </extensions>
      </trkpt>
      <trkpt lat="47.47586390934884548187255859375" lon="9.97818139381706714630126953125">
        <ele>1253.5999755859375</ele>
        <time>2026-09-01T10:29:52.000Z</time>
        <extensions>
          <ns3:TrackPointExtension>
            <ns3:hr>153</ns3:hr>
            <ns3:cad>83</ns3:cad>
          </ns3:TrackPointExtension>
        </extensions>
      </trkpt>
      <trkpt lat="47.47582015581429004669189453125" lon="9.97811098583042621612548828125">
        <ele>1252.199951171875</ele>
        <time>2026-09-01T10:29:54.000Z</time>
        <extensions>
          <ns3:TrackPointExtension>
            <ns3:hr>151</ns3:hr>
            <ns3:cad>86</ns3:cad>
          </ns3:TrackPointExtension>
        </extensions>
      </trkpt>
      <trkpt lat="47.47579283080995082855224609375" lon="9.978055916726589202880859375">
        <ele>1250.5999755859375</ele>
        <time>2026-09-01T10:29:56.000Z</time>
        <extensions>
          <ns3:TrackPointExtension>
            <ns3:hr>151</ns3:hr>
            <ns3:cad>86</ns3:cad>
          </ns3:TrackPointExtension>
        </extensions>
      </trkpt>
      <trkpt lat="47.47577908448874950408935546875" lon="9.9780280888080596923828125">
        <ele>1249.5999755859375</ele>
        <time>2026-09-01T10:29:57.000Z</time>
        <extensions>
          <ns3:TrackPointExtension>
            <ns3:hr>151</ns3:hr>
            <ns3:cad>86</ns3:cad>
          </ns3:TrackPointExtension>
        </extensions>
      </trkpt>
      <trkpt lat="47.47576768510043621063232421875" lon="9.9779930524528026580810546875">
        <ele>1248.800048828125</ele>
        <time>2026-09-01T10:29:58.000Z</time>
        <extensions>
          <ns3:TrackPointExtension>
            <ns3:hr>152</ns3:hr>
            <ns3:cad>86</ns3:cad>
          </ns3:TrackPointExtension>
        </extensions>
      </trkpt>
      <trkpt lat="47.4757515080273151397705078125" lon="9.97796782292425632476806640625">
        <ele>1247.5999755859375</ele>
        <time>2026-09-01T10:29:59.000Z</time>
        <extensions>
          <ns3:TrackPointExtension>
            <ns3:hr>153</ns3:hr>
            <ns3:cad>86</ns3:cad>
          </ns3:TrackPointExtension>
        </extensions>
      </trkpt>
      <trkpt lat="47.47573818080127239227294921875" lon="9.9779320321977138519287109375">
        <ele>1246.5999755859375</ele>
        <time>2026-09-01T10:30:00.000Z</time>
        <extensions>
          <ns3:TrackPointExtension>
            <ns3:hr>154</ns3:hr>
            <ns3:cad>86</ns3:cad>
          </ns3:TrackPointExtension>
        </extensions>
      </trkpt>
      <trkpt lat="47.47570917941629886627197265625" lon="9.9778676591813564300537109375">
        <ele>1244.800048828125</ele>
        <time>2026-09-01T10:30:02.000Z</time>
        <extensions>
          <ns3:TrackPointExtension>
            <ns3:hr>155</ns3:hr>
            <ns3:cad>86</ns3:cad>
          </ns3:TrackPointExtension>
        </extensions>
      </trkpt>
      <trkpt lat="47.47569275088608264923095703125" lon="9.9778408370912075042724609375">
        <ele>1243.5999755859375</ele>
        <time>2026-09-01T10:30:03.000Z</time>
        <extensions>
          <ns3:TrackPointExtension>
            <ns3:hr>155</ns3:hr>
            <ns3:cad>86</ns3:cad>
          </ns3:TrackPointExtension>
        </extensions>
      </trkpt>
      <trkpt lat="47.47566877864301204681396484375" lon="9.97780873440206050872802734375">
        <ele>1242.800048828125</ele>
        <time>2026-09-01T10:30:04.000Z</time>
        <extensions>
          <ns3:TrackPointExtension>
            <ns3:hr>155</ns3:hr>
            <ns3:cad>102</ns3:cad>
          </ns3:TrackPointExtension>
        </extensions>
      </trkpt>
      <trkpt lat="47.47565469704568386077880859375" lon="9.97778333723545074462890625">
        <ele>1241.800048828125</ele>
        <time>2026-09-01T10:30:05.000Z</time>
        <extensions>
          <ns3:TrackPointExtension>
            <ns3:hr>155</ns3:hr>
            <ns3:cad>102</ns3:cad>
          </ns3:TrackPointExtension>
        </extensions>
      </trkpt>
      <trkpt lat="47.47561362572014331817626953125" lon="9.97772692702710628509521484375">
        <ele>1240</ele>
        <time>2026-09-01T10:30:07.000Z</time>
        <extensions>
          <ns3:TrackPointExtension>
            <ns3:hr>155</ns3:hr>
            <ns3:cad>93</ns3:cad>
          </ns3:TrackPointExtension>
        </extensions>
      </trkpt>
      <trkpt lat="47.47557657770812511444091796875" lon="9.97764788568019866943359375">
        <ele>1238</ele>
        <time>2026-09-01T10:30:09.000Z</time>
        <extensions>
          <ns3:TrackPointExtension>
            <ns3:hr>155</ns3:hr>
            <ns3:cad>93</ns3:cad>
          </ns3:TrackPointExtension>
        </extensions>
      </trkpt>
      <trkpt lat="47.475558556616306304931640625" lon="9.97761092148721218109130859375">
        <ele>1237.199951171875</ele>
        <time>2026-09-01T10:30:10.000Z</time>
        <extensions>
          <ns3:TrackPointExtension>
            <ns3:hr>155</ns3:hr>
            <ns3:cad>96</ns3:cad>
          </ns3:TrackPointExtension>
        </extensions>
      </trkpt>
      <trkpt lat="47.4755355902016162872314453125" lon="9.97756339609622955322265625">
        <ele>1236.199951171875</ele>
        <time>2026-09-01T10:30:11.000Z</time>
        <extensions>
          <ns3:TrackPointExtension>
            <ns3:hr>155</ns3:hr>
            <ns3:cad>96</ns3:cad>
          </ns3:TrackPointExtension>
        </extensions>
      </trkpt>
      <trkpt lat="47.47550667263567447662353515625" lon="9.97746951878070831298828125">
        <ele>1234.4000244140625</ele>
        <time>2026-09-01T10:30:13.000Z</time>
        <extensions>
          <ns3:TrackPointExtension>
            <ns3:hr>154</ns3:hr>
            <ns3:cad>90</ns3:cad>
          </ns3:TrackPointExtension>
        </extensions>
      </trkpt>
      <trkpt lat="47.47549661435186862945556640625" lon="9.97741847299039363861083984375">
        <ele>1233.5999755859375</ele>
        <time>2026-09-01T10:30:14.000Z</time>
        <extensions>
          <ns3:TrackPointExtension>
            <ns3:hr>154</ns3:hr>
            <ns3:cad>90</ns3:cad>
          </ns3:TrackPointExtension>
        </extensions>
      </trkpt>
      <trkpt lat="47.47548781335353851318359375" lon="9.97736935503780841827392578125">
        <ele>1232.800048828125</ele>
        <time>2026-09-01T10:30:15.000Z</time>
        <extensions>
          <ns3:TrackPointExtension>
            <ns3:hr>153</ns3:hr>
            <ns3:cad>90</ns3:cad>
          </ns3:TrackPointExtension>
        </extensions>
      </trkpt>
      <trkpt lat="47.47546727769076824188232421875" lon="9.97726860456168651580810546875">
        <ele>1231.4000244140625</ele>
        <time>2026-09-01T10:30:17.000Z</time>
        <extensions>
          <ns3:TrackPointExtension>
            <ns3:hr>153</ns3:hr>
            <ns3:cad>87</ns3:cad>
          </ns3:TrackPointExtension>
        </extensions>
      </trkpt>
      <trkpt lat="47.475449256598949432373046875" lon="9.97719316743314266204833984375">
        <ele>1230.199951171875</ele>
        <time>2026-09-01T10:30:19.000Z</time>
        <extensions>
          <ns3:TrackPointExtension>
            <ns3:hr>152</ns3:hr>
            <ns3:cad>87</ns3:cad>
          </ns3:TrackPointExtension>
        </extensions>
      </trkpt>
      <trkpt lat="47.47545872814953327178955078125" lon="9.97714539058506488800048828125">
        <ele>1229.199951171875</ele>
        <time>2026-09-01T10:30:21.000Z</time>
        <extensions>
          <ns3:TrackPointExtension>
            <ns3:hr>152</ns3:hr>
            <ns3:cad>86</ns3:cad>
          </ns3:TrackPointExtension>
        </extensions>
      </trkpt>
      <trkpt lat="47.4754598177969455718994140625" lon="9.9771215021610260009765625">
        <ele>1228.800048828125</ele>
        <time>2026-09-01T10:30:22.000Z</time>
        <extensions>
          <ns3:TrackPointExtension>
            <ns3:hr>152</ns3:hr>
            <ns3:cad>83</ns3:cad>
          </ns3:TrackPointExtension>
        </extensions>
      </trkpt>
      <trkpt lat="47.47545906342566013336181640625" lon="9.97710607945919036865234375">
        <ele>1228.5999755859375</ele>
        <time>2026-09-01T10:30:23.000Z</time>
        <extensions>
          <ns3:TrackPointExtension>
            <ns3:hr>151</ns3:hr>
            <ns3:cad>83</ns3:cad>
          </ns3:TrackPointExtension>
        </extensions>
      </trkpt>
      <trkpt lat="47.475469373166561126708984375" lon="9.97707464732229709625244140625">
        <ele>1228</ele>
        <time>2026-09-01T10:30:27.000Z</time>
        <extensions>
          <ns3:TrackPointExtension>
            <ns3:hr>149</ns3:hr>
            <ns3:cad>0</ns3:cad>
          </ns3:TrackPointExtension>
        </extensions>
      </trkpt>
      <trkpt lat="47.47547440230846405029296875" lon="9.97702653519809246063232421875">
        <ele>1228</ele>
        <time>2026-09-01T10:30:29.000Z</time>
        <extensions>
          <ns3:TrackPointExtension>
            <ns3:hr>148</ns3:hr>
            <ns3:cad>60</ns3:cad>
          </ns3:TrackPointExtension>
        </extensions>
      </trkpt>
      <trkpt lat="47.47546124272048473358154296875" lon="9.9769687838852405548095703125">
        <ele>1227.800048828125</ele>
        <time>2026-09-01T10:30:31.000Z</time>
        <extensions>
          <ns3:TrackPointExtension>
            <ns3:hr>148</ns3:hr>
            <ns3:cad>60</ns3:cad>
          </ns3:TrackPointExtension>
        </extensions>
      </trkpt>
      <trkpt lat="47.475429140031337738037109375" lon="9.976895190775394439697265625">
        <ele>1226.4000244140625</ele>
        <time>2026-09-01T10:30:35.000Z</time>
        <extensions>
          <ns3:TrackPointExtension>
            <ns3:hr>147</ns3:hr>
            <ns3:cad>77</ns3:cad>
          </ns3:TrackPointExtension>
        </extensions>
      </trkpt>
      <trkpt lat="47.4753924272954463958740234375" lon="9.97675948776304721832275390625">
        <ele>1225.5999755859375</ele>
        <time>2026-09-01T10:30:40.000Z</time>
        <extensions>
          <ns3:TrackPointExtension>
            <ns3:hr>145</ns3:hr>
            <ns3:cad>65</ns3:cad>
          </ns3:TrackPointExtension>
        </extensions>
      </trkpt>
      <trkpt lat="47.47538723051548004150390625" lon="9.976730905473232269287109375">
        <ele>1225.4000244140625</ele>
        <time>2026-09-01T10:30:41.000Z</time>
        <extensions>
          <ns3:TrackPointExtension>
            <ns3:hr>144</ns3:hr>
            <ns3:cad>65</ns3:cad>
          </ns3:TrackPointExtension>
        </extensions>
      </trkpt>
      <trkpt lat="47.4753476679325103759765625" lon="9.97660626657307147979736328125">
        <ele>1224.4000244140625</ele>
        <time>2026-09-01T10:30:45.000Z</time>
        <extensions>
          <ns3:TrackPointExtension>
            <ns3:hr>141</ns3:hr>
            <ns3:cad>70</ns3:cad>
          </ns3:TrackPointExtension>
        </extensions>
      </trkpt>
      <trkpt lat="47.47531606815755367279052734375" lon="9.97648925520479679107666015625">
        <ele>1223.199951171875</ele>
        <time>2026-09-01T10:30:48.000Z</time>
        <extensions>
          <ns3:TrackPointExtension>
            <ns3:hr>142</ns3:hr>
            <ns3:cad>70</ns3:cad>
          </ns3:TrackPointExtension>
        </extensions>
      </trkpt>
      <trkpt lat="47.4753008969128131866455078125" lon="9.97645271010696887969970703125">
        <ele>1222.800048828125</ele>
        <time>2026-09-01T10:30:49.000Z</time>
        <extensions>
          <ns3:TrackPointExtension>
            <ns3:hr>143</ns3:hr>
            <ns3:cad>70</ns3:cad>
          </ns3:TrackPointExtension>
        </extensions>
      </trkpt>
      <trkpt lat="47.47529008425772190093994140625" lon="9.976411052048206329345703125">
        <ele>1222.199951171875</ele>
        <time>2026-09-01T10:30:50.000Z</time>
        <extensions>
          <ns3:TrackPointExtension>
            <ns3:hr>143</ns3:hr>
            <ns3:cad>70</ns3:cad>
          </ns3:TrackPointExtension>
        </extensions>
      </trkpt>
      <trkpt lat="47.47528153471648693084716796875" lon="9.976359419524669647216796875">
        <ele>1221.199951171875</ele>
        <time>2026-09-01T10:30:52.000Z</time>
        <extensions>
          <ns3:TrackPointExtension>
            <ns3:hr>142</ns3:hr>
            <ns3:cad>86</ns3:cad>
          </ns3:TrackPointExtension>
        </extensions>
      </trkpt>
      <trkpt lat="47.47527189552783966064453125" lon="9.97633368708193302154541015625">
        <ele>1220.800048828125</ele>
        <time>2026-09-01T10:30:53.000Z</time>
        <extensions>
          <ns3:TrackPointExtension>
            <ns3:hr>142</ns3:hr>
            <ns3:cad>87</ns3:cad>
          </ns3:TrackPointExtension>
        </extensions>
      </trkpt>
      <trkpt lat="47.47527063824236392974853515625" lon="9.9762618541717529296875">
        <ele>1220</ele>
        <time>2026-09-01T10:30:55.000Z</time>
        <extensions>
          <ns3:TrackPointExtension>
            <ns3:hr>142</ns3:hr>
            <ns3:cad>87</ns3:cad>
          </ns3:TrackPointExtension>
        </extensions>
      </trkpt>
      <trkpt lat="47.4752591550350189208984375" lon="9.97618230991065502166748046875">
        <ele>1219.4000244140625</ele>
        <time>2026-09-01T10:30:57.000Z</time>
        <extensions>
          <ns3:TrackPointExtension>
            <ns3:hr>142</ns3:hr>
            <ns3:cad>83</ns3:cad>
          </ns3:TrackPointExtension>
        </extensions>
      </trkpt>
      <trkpt lat="47.4752509407699108123779296875" lon="9.97614744119346141815185546875">
        <ele>1219</ele>
        <time>2026-09-01T10:30:58.000Z</time>
        <extensions>
          <ns3:TrackPointExtension>
            <ns3:hr>143</ns3:hr>
            <ns3:cad>82</ns3:cad>
          </ns3:TrackPointExtension>
        </extensions>
      </trkpt>
      <trkpt lat="47.4752135574817657470703125" lon="9.97606538236141204833984375">
        <ele>1218.4000244140625</ele>
        <time>2026-09-01T10:31:02.000Z</time>
        <extensions>
          <ns3:TrackPointExtension>
            <ns3:hr>143</ns3:hr>
            <ns3:cad>82</ns3:cad>
          </ns3:TrackPointExtension>
        </extensions>
      </trkpt>
      <trkpt lat="47.4751842208206653594970703125" lon="9.97601953335106372833251953125">
        <ele>1218</ele>
        <time>2026-09-01T10:31:04.000Z</time>
        <extensions>
          <ns3:TrackPointExtension>
            <ns3:hr>144</ns3:hr>
            <ns3:cad>82</ns3:cad>
          </ns3:TrackPointExtension>
        </extensions>
      </trkpt>
      <trkpt lat="47.47516284696757793426513671875" lon="9.975942671298980712890625">
        <ele>1216.5999755859375</ele>
        <time>2026-09-01T10:31:06.000Z</time>
        <extensions>
          <ns3:TrackPointExtension>
            <ns3:hr>144</ns3:hr>
            <ns3:cad>82</ns3:cad>
          </ns3:TrackPointExtension>
        </extensions>
      </trkpt>
      <trkpt lat="47.47513912618160247802734375" lon="9.9758340418338775634765625">
        <ele>1214.800048828125</ele>
        <time>2026-09-01T10:31:08.000Z</time>
        <extensions>
          <ns3:TrackPointExtension>
            <ns3:hr>145</ns3:hr>
            <ns3:cad>82</ns3:cad>
          </ns3:TrackPointExtension>
        </extensions>
      </trkpt>
      <trkpt lat="47.475112639367580413818359375" lon="9.975726418197154998779296875">
        <ele>1213</ele>
        <time>2026-09-01T10:31:10.000Z</time>
        <extensions>
          <ns3:TrackPointExtension>
            <ns3:hr>146</ns3:hr>
            <ns3:cad>94</ns3:cad>
          </ns3:TrackPointExtension>
        </extensions>
      </trkpt>
      <trkpt lat="47.47509218752384185791015625" lon="9.975622482597827911376953125">
        <ele>1211.199951171875</ele>
        <time>2026-09-01T10:31:12.000Z</time>
        <extensions>
          <ns3:TrackPointExtension>
            <ns3:hr>147</ns3:hr>
            <ns3:cad>94</ns3:cad>
          </ns3:TrackPointExtension>
        </extensions>
      </trkpt>
      <trkpt lat="47.4750418961048126220703125" lon="9.97552198357880115509033203125">
        <ele>1209.4000244140625</ele>
        <time>2026-09-01T10:31:14.000Z</time>
        <extensions>
          <ns3:TrackPointExtension>
            <ns3:hr>148</ns3:hr>
            <ns3:cad>93</ns3:cad>
          </ns3:TrackPointExtension>
        </extensions>
      </trkpt>
      <trkpt lat="47.47497810982167720794677734375" lon="9.97544922865927219390869140625">
        <ele>1207.5999755859375</ele>
        <time>2026-09-01T10:31:16.000Z</time>
        <extensions>
          <ns3:TrackPointExtension>
            <ns3:hr>149</ns3:hr>
            <ns3:cad>90</ns3:cad>
          </ns3:TrackPointExtension>
        </extensions>
      </trkpt>
      <trkpt lat="47.4749126471579074859619140625" lon="9.97539089061319828033447265625">
        <ele>1206.199951171875</ele>
        <time>2026-09-01T10:31:18.000Z</time>
        <extensions>
          <ns3:TrackPointExtension>
            <ns3:hr>150</ns3:hr>
            <ns3:cad>88</ns3:cad>
          </ns3:TrackPointExtension>
        </extensions>
      </trkpt>
      <trkpt lat="47.47486579231917858123779296875" lon="9.97531813569366931915283203125">
        <ele>1205</ele>
        <time>2026-09-01T10:31:20.000Z</time>
        <extensions>
          <ns3:TrackPointExtension>
            <ns3:hr>151</ns3:hr>
            <ns3:cad>88</ns3:cad>
          </ns3:TrackPointExtension>
        </extensions>
      </trkpt>
      <trkpt lat="47.47481633909046649932861328125" lon="9.97526013292372226715087890625">
        <ele>1204.199951171875</ele>
        <time>2026-09-01T10:31:22.000Z</time>
        <extensions>
          <ns3:TrackPointExtension>
            <ns3:hr>151</ns3:hr>
            <ns3:cad>88</ns3:cad>
          </ns3:TrackPointExtension>
        </extensions>
      </trkpt>
      <trkpt lat="47.47478951700031757354736328125" lon="9.97522124089300632476806640625">
        <ele>1203.5999755859375</ele>
        <time>2026-09-01T10:31:23.000Z</time>
        <extensions>
          <ns3:TrackPointExtension>
            <ns3:hr>151</ns3:hr>
            <ns3:cad>88</ns3:cad>
          </ns3:TrackPointExtension>
        </extensions>
      </trkpt>
      <trkpt lat="47.4747245572507381439208984375" lon="9.9751311354339122772216796875">
        <ele>1202.4000244140625</ele>
        <time>2026-09-01T10:31:26.000Z</time>
        <extensions>
          <ns3:TrackPointExtension>
            <ns3:hr>150</ns3:hr>
            <ns3:cad>83</ns3:cad>
          </ns3:TrackPointExtension>
        </extensions>
      </trkpt>
      <trkpt lat="47.47468574903905391693115234375" lon="9.97506684623658657073974609375">
        <ele>1201</ele>
        <time>2026-09-01T10:31:28.000Z</time>
        <extensions>
          <ns3:TrackPointExtension>
            <ns3:hr>152</ns3:hr>
            <ns3:cad>83</ns3:cad>
          </ns3:TrackPointExtension>
        </extensions>
      </trkpt>
      <trkpt lat="47.474658004939556121826171875" lon="9.974998533725738525390625">
        <ele>1199.5999755859375</ele>
        <time>2026-09-01T10:31:30.000Z</time>
        <extensions>
          <ns3:TrackPointExtension>
            <ns3:hr>151</ns3:hr>
            <ns3:cad>84</ns3:cad>
          </ns3:TrackPointExtension>
        </extensions>
      </trkpt>
      <trkpt lat="47.4746249802410602569580078125" lon="9.9749299697577953338623046875">
        <ele>1198.199951171875</ele>
        <time>2026-09-01T10:31:32.000Z</time>
        <extensions>
          <ns3:TrackPointExtension>
            <ns3:hr>151</ns3:hr>
            <ns3:cad>84</ns3:cad>
          </ns3:TrackPointExtension>
        </extensions>
      </trkpt>
      <trkpt lat="47.47459438629448413848876953125" lon="9.97491538524627685546875">
        <ele>1197.5999755859375</ele>
        <time>2026-09-01T10:31:33.000Z</time>
        <extensions>
          <ns3:TrackPointExtension>
            <ns3:hr>151</ns3:hr>
            <ns3:cad>84</ns3:cad>
          </ns3:TrackPointExtension>
        </extensions>
      </trkpt>
      <trkpt lat="47.47456991113722324371337890625" lon="9.9748810194432735443115234375">
        <ele>1196.800048828125</ele>
        <time>2026-09-01T10:31:34.000Z</time>
        <extensions>
          <ns3:TrackPointExtension>
            <ns3:hr>151</ns3:hr>
            <ns3:cad>84</ns3:cad>
          </ns3:TrackPointExtension>
        </extensions>
      </trkpt>
      <trkpt lat="47.4745532311499118804931640625" lon="9.97484791092574596405029296875">
        <ele>1196</ele>
        <time>2026-09-01T10:31:35.000Z</time>
        <extensions>
          <ns3:TrackPointExtension>
            <ns3:hr>151</ns3:hr>
            <ns3:cad>84</ns3:cad>
          </ns3:TrackPointExtension>
        </extensions>
      </trkpt>
      <trkpt lat="47.4745287559926509857177734375" lon="9.97480197809636592864990234375">
        <ele>1195.4000244140625</ele>
        <time>2026-09-01T10:31:36.000Z</time>
        <extensions>
          <ns3:TrackPointExtension>
            <ns3:hr>150</ns3:hr>
            <ns3:cad>84</ns3:cad>
          </ns3:TrackPointExtension>
        </extensions>
      </trkpt>
      <trkpt lat="47.474461533129215240478515625" lon="9.97464925982058048248291015625">
        <ele>1194.4000244140625</ele>
        <time>2026-09-01T10:31:39.000Z</time>
        <extensions>
          <ns3:TrackPointExtension>
            <ns3:hr>152</ns3:hr>
            <ns3:cad>0</ns3:cad>
          </ns3:TrackPointExtension>
        </extensions>
      </trkpt>
      <trkpt lat="47.47445004992187023162841796875" lon="9.9746034108102321624755859375">
        <ele>1194.4000244140625</ele>
        <time>2026-09-01T10:31:40.000Z</time>
        <extensions>
          <ns3:TrackPointExtension>
            <ns3:hr>152</ns3:hr>
            <ns3:cad>85</ns3:cad>
          </ns3:TrackPointExtension>
        </extensions>
      </trkpt>
      <trkpt lat="47.474411912262439727783203125" lon="9.97449972666800022125244140625">
        <ele>1193.800048828125</ele>
        <time>2026-09-01T10:31:42.000Z</time>
        <extensions>
          <ns3:TrackPointExtension>
            <ns3:hr>152</ns3:hr>
            <ns3:cad>85</ns3:cad>
          </ns3:TrackPointExtension>
        </extensions>
      </trkpt>
      <trkpt lat="47.47434929944574832916259765625" lon="9.97435656376183032989501953125">
        <ele>1193.199951171875</ele>
        <time>2026-09-01T10:31:45.000Z</time>
        <extensions>
          <ns3:TrackPointExtension>
            <ns3:hr>152</ns3:hr>
            <ns3:cad>83</ns3:cad>
          </ns3:TrackPointExtension>
        </extensions>
      </trkpt>
      <trkpt lat="47.47429833747446537017822265625" lon="9.9742059409618377685546875">
        <ele>1192.800048828125</ele>
        <time>2026-09-01T10:31:48.000Z</time>
        <extensions>
          <ns3:TrackPointExtension>
            <ns3:hr>153</ns3:hr>
            <ns3:cad>83</ns3:cad>
          </ns3:TrackPointExtension>
        </extensions>
      </trkpt>
      <trkpt lat="47.47422373853623867034912109375" lon="9.97407853603363037109375">
        <ele>1191.800048828125</ele>
        <time>2026-09-01T10:31:51.000Z</time>
        <extensions>
          <ns3:TrackPointExtension>
            <ns3:hr>154</ns3:hr>
            <ns3:cad>83</ns3:cad>
          </ns3:TrackPointExtension>
        </extensions>
      </trkpt>
      <trkpt lat="47.47408476658165454864501953125" lon="9.97399345971643924713134765625">
        <ele>1191.4000244140625</ele>
        <time>2026-09-01T10:31:55.000Z</time>
        <extensions>
          <ns3:TrackPointExtension>
            <ns3:hr>154</ns3:hr>
            <ns3:cad>83</ns3:cad>
          </ns3:TrackPointExtension>
        </extensions>
      </trkpt>
      <trkpt lat="47.47392886318266391754150390625" lon="9.97392053715884685516357421875">
        <ele>1191</ele>
        <time>2026-09-01T10:31:59.000Z</time>
        <extensions>
          <ns3:TrackPointExtension>
            <ns3:hr>155</ns3:hr>
            <ns3:cad>84</ns3:cad>
          </ns3:TrackPointExtension>
        </extensions>
      </trkpt>
      <trkpt lat="47.47389919124543666839599609375" lon="9.973897822201251983642578125">
        <ele>1190.800048828125</ele>
        <time>2026-09-01T10:32:00.000Z</time>
        <extensions>
          <ns3:TrackPointExtension>
            <ns3:hr>154</ns3:hr>
            <ns3:cad>84</ns3:cad>
          </ns3:TrackPointExtension>
        </extensions>
      </trkpt>
      <trkpt lat="47.4738216586410999298095703125" lon="9.97385163791477680206298828125">
        <ele>1190.4000244140625</ele>
        <time>2026-09-01T10:32:02.000Z</time>
        <extensions>
          <ns3:TrackPointExtension>
            <ns3:hr>153</ns3:hr>
            <ns3:cad>84</ns3:cad>
          </ns3:TrackPointExtension>
        </extensions>
      </trkpt>
      <trkpt lat="47.4737463891506195068359375" lon="9.9738064594566822052001953125">
        <ele>1189.5999755859375</ele>
        <time>2026-09-01T10:32:04.000Z</time>
        <extensions>
          <ns3:TrackPointExtension>
            <ns3:hr>152</ns3:hr>
            <ns3:cad>84</ns3:cad>
          </ns3:TrackPointExtension>
        </extensions>
      </trkpt>
      <trkpt lat="47.4737180583178997039794921875" lon="9.97378810308873653411865234375">
        <ele>1189.199951171875</ele>
        <time>2026-09-01T10:32:05.000Z</time>
        <extensions>
          <ns3:TrackPointExtension>
            <ns3:hr>152</ns3:hr>
            <ns3:cad>84</ns3:cad>
          </ns3:TrackPointExtension>
        </extensions>
      </trkpt>
      <trkpt lat="47.47366148047149181365966796875" lon="9.973750300705432891845703125">
        <ele>1188.4000244140625</ele>
        <time>2026-09-01T10:32:07.000Z</time>
        <extensions>
          <ns3:TrackPointExtension>
            <ns3:hr>153</ns3:hr>
            <ns3:cad>83</ns3:cad>
          </ns3:TrackPointExtension>
        </extensions>
      </trkpt>
      <trkpt lat="47.4736422859132289886474609375" lon="9.973732866346836090087890625">
        <ele>1187.800048828125</ele>
        <time>2026-09-01T10:32:09.000Z</time>
        <extensions>
          <ns3:TrackPointExtension>
            <ns3:hr>154</ns3:hr>
            <ns3:cad>82</ns3:cad>
          </ns3:TrackPointExtension>
        </extensions>
      </trkpt>
      <trkpt lat="47.47363851405680179595947265625" lon="9.9737186171114444732666015625">
        <ele>1187.5999755859375</ele>
        <time>2026-09-01T10:32:11.000Z</time>
        <extensions>
          <ns3:TrackPointExtension>
            <ns3:hr>154</ns3:hr>
            <ns3:cad>82</ns3:cad>
          </ns3:TrackPointExtension>
        </extensions>
      </trkpt>
      <trkpt lat="47.47361160814762115478515625" lon="9.97370579279959201812744140625">
        <ele>1187.4000244140625</ele>
        <time>2026-09-01T10:32:12.000Z</time>
        <extensions>
          <ns3:TrackPointExtension>
            <ns3:hr>154</ns3:hr>
            <ns3:cad>82</ns3:cad>
          </ns3:TrackPointExtension>
        </extensions>
      </trkpt>
      <trkpt lat="47.47349384240806102752685546875" lon="9.9736264161765575408935546875">
        <ele>1186</ele>
        <time>2026-09-01T10:32:16.000Z</time>
        <extensions>
          <ns3:TrackPointExtension>
            <ns3:hr>152</ns3:hr>
            <ns3:cad>83</ns3:cad>
          </ns3:TrackPointExtension>
        </extensions>
      </trkpt>
      <trkpt lat="47.4733975343406200408935546875" lon="9.97355156578123569488525390625">
        <ele>1184.800048828125</ele>
        <time>2026-09-01T10:32:19.000Z</time>
        <extensions>
          <ns3:TrackPointExtension>
            <ns3:hr>152</ns3:hr>
            <ns3:cad>85</ns3:cad>
          </ns3:TrackPointExtension>
        </extensions>
      </trkpt>
      <trkpt lat="47.473326288163661956787109375" lon="9.97349582612514495849609375">
        <ele>1183.800048828125</ele>
        <time>2026-09-01T10:32:21.000Z</time>
        <extensions>
          <ns3:TrackPointExtension>
            <ns3:hr>152</ns3:hr>
            <ns3:cad>82</ns3:cad>
          </ns3:TrackPointExtension>
        </extensions>
      </trkpt>
      <trkpt lat="47.4732496775686740875244140625" lon="9.97343321330845355987548828125">
        <ele>1182.5999755859375</ele>
        <time>2026-09-01T10:32:23.000Z</time>
        <extensions>
          <ns3:TrackPointExtension>
            <ns3:hr>153</ns3:hr>
            <ns3:cad>82</ns3:cad>
          </ns3:TrackPointExtension>
        </extensions>
      </trkpt>
      <trkpt lat="47.47315227985382080078125" lon="9.9733436107635498046875">
        <ele>1181.4000244140625</ele>
        <time>2026-09-01T10:32:26.000Z</time>
        <extensions>
          <ns3:TrackPointExtension>
            <ns3:hr>153</ns3:hr>
            <ns3:cad>82</ns3:cad>
          </ns3:TrackPointExtension>
        </extensions>
      </trkpt>
      <trkpt lat="47.473085559904575347900390625" lon="9.97327663935720920562744140625">
        <ele>1180.199951171875</ele>
        <time>2026-09-01T10:32:28.000Z</time>
        <extensions>
          <ns3:TrackPointExtension>
            <ns3:hr>154</ns3:hr>
            <ns3:cad>84</ns3:cad>
          </ns3:TrackPointExtension>
        </extensions>
      </trkpt>
      <trkpt lat="47.47301758266985416412353515625" lon="9.97322634793817996978759765625">
        <ele>1179.199951171875</ele>
        <time>2026-09-01T10:32:30.000Z</time>
        <extensions>
          <ns3:TrackPointExtension>
            <ns3:hr>154</ns3:hr>
            <ns3:cad>84</ns3:cad>
          </ns3:TrackPointExtension>
        </extensions>
      </trkpt>
      <trkpt lat="47.47295119799673557281494140625" lon="9.9731865338981151580810546875">
        <ele>1178.5999755859375</ele>
        <time>2026-09-01T10:32:32.000Z</time>
        <extensions>
          <ns3:TrackPointExtension>
            <ns3:hr>154</ns3:hr>
            <ns3:cad>83</ns3:cad>
          </ns3:TrackPointExtension>
        </extensions>
      </trkpt>
      <trkpt lat="47.4729174189269542694091796875" lon="9.97316834516823291778564453125">
        <ele>1178.199951171875</ele>
        <time>2026-09-01T10:32:33.000Z</time>
        <extensions>
          <ns3:TrackPointExtension>
            <ns3:hr>154</ns3:hr>
            <ns3:cad>83</ns3:cad>
          </ns3:TrackPointExtension>
        </extensions>
      </trkpt>
      <trkpt lat="47.47284986078739166259765625" lon="9.97313515283167362213134765625">
        <ele>1177</ele>
        <time>2026-09-01T10:32:35.000Z</time>
        <extensions>
          <ns3:TrackPointExtension>
            <ns3:hr>153</ns3:hr>
            <ns3:cad>81</ns3:cad>
          </ns3:TrackPointExtension>
        </extensions>
      </trkpt>
      <trkpt lat="47.472785152494907379150390625" lon="9.97307916171848773956298828125">
        <ele>1175.5999755859375</ele>
        <time>2026-09-01T10:32:37.000Z</time>
        <extensions>
          <ns3:TrackPointExtension>
            <ns3:hr>151</ns3:hr>
            <ns3:cad>81</ns3:cad>
          </ns3:TrackPointExtension>
        </extensions>
      </trkpt>
      <trkpt lat="47.4727206118404865264892578125" lon="9.973005317151546478271484375">
        <ele>1174.4000244140625</ele>
        <time>2026-09-01T10:32:39.000Z</time>
        <extensions>
          <ns3:TrackPointExtension>
            <ns3:hr>151</ns3:hr>
            <ns3:cad>82</ns3:cad>
          </ns3:TrackPointExtension>
        </extensions>
      </trkpt>
      <trkpt lat="47.47267945669591426849365234375" lon="9.9729179777204990386962890625">
        <ele>1172.800048828125</ele>
        <time>2026-09-01T10:32:41.000Z</time>
        <extensions>
          <ns3:TrackPointExtension>
            <ns3:hr>151</ns3:hr>
            <ns3:cad>82</ns3:cad>
          </ns3:TrackPointExtension>
        </extensions>
      </trkpt>
      <trkpt lat="47.47265179641544818878173828125" lon="9.97281094081699848175048828125">
        <ele>1172</ele>
        <time>2026-09-01T10:32:43.000Z</time>
        <extensions>
          <ns3:TrackPointExtension>
            <ns3:hr>151</ns3:hr>
            <ns3:cad>83</ns3:cad>
          </ns3:TrackPointExtension>
        </extensions>
      </trkpt>
      <trkpt lat="47.47263528406620025634765625" lon="9.9727610684931278228759765625">
        <ele>1171.800048828125</ele>
        <time>2026-09-01T10:32:44.000Z</time>
        <extensions>
          <ns3:TrackPointExtension>
            <ns3:hr>151</ns3:hr>
            <ns3:cad>83</ns3:cad>
          </ns3:TrackPointExtension>
        </extensions>
      </trkpt>
      <trkpt lat="47.472563199698925018310546875" lon="9.97261346317827701568603515625">
        <ele>1170.5999755859375</ele>
        <time>2026-09-01T10:32:47.000Z</time>
        <extensions>
          <ns3:TrackPointExtension>
            <ns3:hr>152</ns3:hr>
            <ns3:cad>83</ns3:cad>
          </ns3:TrackPointExtension>
        </extensions>
      </trkpt>
      <trkpt lat="47.4725097231566905975341796875" lon="9.97251153923571109771728515625">
        <ele>1169.5999755859375</ele>
        <time>2026-09-01T10:32:49.000Z</time>
        <extensions>
          <ns3:TrackPointExtension>
            <ns3:hr>151</ns3:hr>
            <ns3:cad>84</ns3:cad>
          </ns3:TrackPointExtension>
        </extensions>
      </trkpt>
      <trkpt lat="47.47248818166553974151611328125" lon="9.97245848178863525390625">
        <ele>1169</ele>
        <time>2026-09-01T10:32:50.000Z</time>
        <extensions>
          <ns3:TrackPointExtension>
            <ns3:hr>152</ns3:hr>
            <ns3:cad>84</ns3:cad>
          </ns3:TrackPointExtension>
        </extensions>
      </trkpt>
      <trkpt lat="47.472461275756359100341796875" lon="9.97239754535257816314697265625">
        <ele>1168.199951171875</ele>
        <time>2026-09-01T10:32:51.000Z</time>
        <extensions>
          <ns3:TrackPointExtension>
            <ns3:hr>152</ns3:hr>
            <ns3:cad>84</ns3:cad>
          </ns3:TrackPointExtension>
        </extensions>
      </trkpt>
      <trkpt lat="47.4724145047366619110107421875" lon="9.97228506021201610565185546875">
        <ele>1167.199951171875</ele>
        <time>2026-09-01T10:32:53.000Z</time>
        <extensions>
          <ns3:TrackPointExtension>
            <ns3:hr>152</ns3:hr>
            <ns3:cad>83</ns3:cad>
          </ns3:TrackPointExtension>
        </extensions>
      </trkpt>
      <trkpt lat="47.4723947234451770782470703125" lon="9.9722370319068431854248046875">
        <ele>1166.5999755859375</ele>
        <time>2026-09-01T10:32:54.000Z</time>
        <extensions>
          <ns3:TrackPointExtension>
            <ns3:hr>152</ns3:hr>
            <ns3:cad>83</ns3:cad>
          </ns3:TrackPointExtension>
        </extensions>
      </trkpt>
      <trkpt lat="47.4723692424595355987548828125" lon="9.9721743352711200714111328125">
        <ele>1166</ele>
        <time>2026-09-01T10:32:55.000Z</time>
        <extensions>
          <ns3:TrackPointExtension>
            <ns3:hr>152</ns3:hr>
            <ns3:cad>83</ns3:cad>
          </ns3:TrackPointExtension>
        </extensions>
      </trkpt>
      <trkpt lat="47.472328841686248779296875" lon="9.9720774404704570770263671875">
        <ele>1165</ele>
        <time>2026-09-01T10:32:57.000Z</time>
        <extensions>
          <ns3:TrackPointExtension>
            <ns3:hr>153</ns3:hr>
            <ns3:cad>83</ns3:cad>
          </ns3:TrackPointExtension>
        </extensions>
      </trkpt>
      <trkpt lat="47.4722847528755664825439453125" lon="9.97193687595427036285400390625">
        <ele>1163.800048828125</ele>
        <time>2026-09-01T10:33:00.000Z</time>
        <extensions>
          <ns3:TrackPointExtension>
            <ns3:hr>153</ns3:hr>
            <ns3:cad>84</ns3:cad>
          </ns3:TrackPointExtension>
        </extensions>
      </trkpt>
      <trkpt lat="47.4722643010318279266357421875" lon="9.97185054235160350799560546875">
        <ele>1162.800048828125</ele>
        <time>2026-09-01T10:33:02.000Z</time>
        <extensions>
          <ns3:TrackPointExtension>
            <ns3:hr>152</ns3:hr>
            <ns3:cad>83</ns3:cad>
          </ns3:TrackPointExtension>
        </extensions>
      </trkpt>
      <trkpt lat="47.47225415892899036407470703125" lon="9.97179622761905193328857421875">
        <ele>1162.199951171875</ele>
        <time>2026-09-01T10:33:03.000Z</time>
        <extensions>
          <ns3:TrackPointExtension>
            <ns3:hr>152</ns3:hr>
            <ns3:cad>83</ns3:cad>
          </ns3:TrackPointExtension>
        </extensions>
      </trkpt>
      <trkpt lat="47.47225575149059295654296875" lon="9.97169874608516693115234375">
        <ele>1161.199951171875</ele>
        <time>2026-09-01T10:33:05.000Z</time>
        <extensions>
          <ns3:TrackPointExtension>
            <ns3:hr>152</ns3:hr>
            <ns3:cad>82</ns3:cad>
          </ns3:TrackPointExtension>
        </extensions>
      </trkpt>
      <trkpt lat="47.47227058745920658111572265625" lon="9.97163780964910984039306640625">
        <ele>1160.4000244140625</ele>
        <time>2026-09-01T10:33:06.000Z</time>
        <extensions>
          <ns3:TrackPointExtension>
            <ns3:hr>151</ns3:hr>
            <ns3:cad>82</ns3:cad>
          </ns3:TrackPointExtension>
        </extensions>
      </trkpt>
      <trkpt lat="47.47228500433266162872314453125" lon="9.97159204445779323577880859375">
        <ele>1159.800048828125</ele>
        <time>2026-09-01T10:33:07.000Z</time>
        <extensions>
          <ns3:TrackPointExtension>
            <ns3:hr>152</ns3:hr>
            <ns3:cad>82</ns3:cad>
          </ns3:TrackPointExtension>
        </extensions>
      </trkpt>
      <trkpt lat="47.4723129160702228546142578125" lon="9.9715326167643070220947265625">
        <ele>1159.4000244140625</ele>
        <time>2026-09-01T10:33:08.000Z</time>
        <extensions>
          <ns3:TrackPointExtension>
            <ns3:hr>152</ns3:hr>
            <ns3:cad>82</ns3:cad>
          </ns3:TrackPointExtension>
        </extensions>
      </trkpt>
      <trkpt lat="47.4723404087126255035400390625" lon="9.97149297036230564117431640625">
        <ele>1158.800048828125</ele>
        <time>2026-09-01T10:33:09.000Z</time>
        <extensions>
          <ns3:TrackPointExtension>
            <ns3:hr>153</ns3:hr>
            <ns3:cad>82</ns3:cad>
          </ns3:TrackPointExtension>
        </extensions>
      </trkpt>
      <trkpt lat="47.47240402735769748687744140625" lon="9.97141367755830287933349609375">
        <ele>1157.5999755859375</ele>
        <time>2026-09-01T10:33:11.000Z</time>
        <extensions>
          <ns3:TrackPointExtension>
            <ns3:hr>153</ns3:hr>
            <ns3:cad>85</ns3:cad>
          </ns3:TrackPointExtension>
        </extensions>
      </trkpt>
      <trkpt lat="47.4724570848047733306884765625" lon="9.97133756987750530242919921875">
        <ele>1156.4000244140625</ele>
        <time>2026-09-01T10:33:13.000Z</time>
        <extensions>
          <ns3:TrackPointExtension>
            <ns3:hr>151</ns3:hr>
            <ns3:cad>83</ns3:cad>
          </ns3:TrackPointExtension>
        </extensions>
      </trkpt>
      <trkpt lat="47.47248248197138309478759765625" lon="9.97130672447383403778076171875">
        <ele>1156</ele>
        <time>2026-09-01T10:33:14.000Z</time>
        <extensions>
          <ns3:TrackPointExtension>
            <ns3:hr>151</ns3:hr>
            <ns3:cad>83</ns3:cad>
          </ns3:TrackPointExtension>
        </extensions>
      </trkpt>
      <trkpt lat="47.472540400922298431396484375" lon="9.9712662398815155029296875">
        <ele>1155.199951171875</ele>
        <time>2026-09-01T10:33:16.000Z</time>
        <extensions>
          <ns3:TrackPointExtension>
            <ns3:hr>150</ns3:hr>
            <ns3:cad>83</ns3:cad>
          </ns3:TrackPointExtension>
        </extensions>
      </trkpt>
      <trkpt lat="47.4725995771586894989013671875" lon="9.97123464010655879974365234375">
        <ele>1154.5999755859375</ele>
        <time>2026-09-01T10:33:18.000Z</time>
        <extensions>
          <ns3:TrackPointExtension>
            <ns3:hr>150</ns3:hr>
            <ns3:cad>83</ns3:cad>
          </ns3:TrackPointExtension>
        </extensions>
      </trkpt>
      <trkpt lat="47.47265766374766826629638671875" lon="9.9710451252758502960205078125">
        <ele>1154</ele>
        <time>2026-09-01T10:33:22.000Z</time>
        <extensions>
          <ns3:TrackPointExtension>
            <ns3:hr>152</ns3:hr>
            <ns3:cad>85</ns3:cad>
          </ns3:TrackPointExtension>
        </extensions>
      </trkpt>
      <trkpt lat="47.47264089994132518768310546875" lon="9.9708439595997333526611328125">
        <ele>1152</ele>
        <time>2026-09-01T10:33:25.000Z</time>
        <extensions>
          <ns3:TrackPointExtension>
            <ns3:hr>152</ns3:hr>
            <ns3:cad>85</ns3:cad>
          </ns3:TrackPointExtension>
        </extensions>
      </trkpt>
      <trkpt lat="47.4726331047713756561279296875" lon="9.9707792513072490692138671875">
        <ele>1151.5999755859375</ele>
        <time>2026-09-01T10:33:26.000Z</time>
        <extensions>
          <ns3:TrackPointExtension>
            <ns3:hr>153</ns3:hr>
            <ns3:cad>84</ns3:cad>
          </ns3:TrackPointExtension>
        </extensions>
      </trkpt>
      <trkpt lat="47.47262279503047466278076171875" lon="9.970657713711261749267578125">
        <ele>1150.5999755859375</ele>
        <time>2026-09-01T10:33:28.000Z</time>
        <extensions>
          <ns3:TrackPointExtension>
            <ns3:hr>153</ns3:hr>
            <ns3:cad>84</ns3:cad>
          </ns3:TrackPointExtension>
        </extensions>
      </trkpt>
      <trkpt lat="47.47260418720543384552001953125" lon="9.9705365113914012908935546875">
        <ele>1150.199951171875</ele>
        <time>2026-09-01T10:33:30.000Z</time>
        <extensions>
          <ns3:TrackPointExtension>
            <ns3:hr>152</ns3:hr>
            <ns3:cad>84</ns3:cad>
          </ns3:TrackPointExtension>
        </extensions>
      </trkpt>
      <trkpt lat="47.47258021496236324310302734375" lon="9.97041958384215831756591796875">
        <ele>1149.4000244140625</ele>
        <time>2026-09-01T10:33:32.000Z</time>
        <extensions>
          <ns3:TrackPointExtension>
            <ns3:hr>152</ns3:hr>
            <ns3:cad>82</ns3:cad>
          </ns3:TrackPointExtension>
        </extensions>
      </trkpt>
      <trkpt lat="47.4725593440234661102294921875" lon="9.9703108705580234527587890625">
        <ele>1148</ele>
        <time>2026-09-01T10:33:34.000Z</time>
        <extensions>
          <ns3:TrackPointExtension>
            <ns3:hr>152</ns3:hr>
            <ns3:cad>82</ns3:cad>
          </ns3:TrackPointExtension>
        </extensions>
      </trkpt>
      <trkpt lat="47.47255079448223114013671875" lon="9.97025965712964534759521484375">
        <ele>1147.4000244140625</ele>
        <time>2026-09-01T10:33:35.000Z</time>
        <extensions>
          <ns3:TrackPointExtension>
            <ns3:hr>152</ns3:hr>
            <ns3:cad>82</ns3:cad>
          </ns3:TrackPointExtension>
        </extensions>
      </trkpt>
      <trkpt lat="47.4725328572094440460205078125" lon="9.97019478119909763336181640625">
        <ele>1146.800048828125</ele>
        <time>2026-09-01T10:33:36.000Z</time>
        <extensions>
          <ns3:TrackPointExtension>
            <ns3:hr>152</ns3:hr>
            <ns3:cad>82</ns3:cad>
          </ns3:TrackPointExtension>
        </extensions>
      </trkpt>
      <trkpt lat="47.47251818887889385223388671875" lon="9.97008078731596469879150390625">
        <ele>1145.800048828125</ele>
        <time>2026-09-01T10:33:38.000Z</time>
        <extensions>
          <ns3:TrackPointExtension>
            <ns3:hr>152</ns3:hr>
            <ns3:cad>82</ns3:cad>
          </ns3:TrackPointExtension>
        </extensions>
      </trkpt>
      <trkpt lat="47.47250611893832683563232421875" lon="9.97001356445252895355224609375">
        <ele>1145.4000244140625</ele>
        <time>2026-09-01T10:33:39.000Z</time>
        <extensions>
          <ns3:TrackPointExtension>
            <ns3:hr>152</ns3:hr>
            <ns3:cad>82</ns3:cad>
          </ns3:TrackPointExtension>
        </extensions>
      </trkpt>
      <trkpt lat="47.47249471955001354217529296875" lon="9.96990242041647434234619140625">
        <ele>1144.4000244140625</ele>
        <time>2026-09-01T10:33:41.000Z</time>
        <extensions>
          <ns3:TrackPointExtension>
            <ns3:hr>152</ns3:hr>
            <ns3:cad>84</ns3:cad>
          </ns3:TrackPointExtension>
        </extensions>
      </trkpt>
      <trkpt lat="47.472490109503269195556640625" lon="9.96985279954969882965087890625">
        <ele>1143.800048828125</ele>
        <time>2026-09-01T10:33:42.000Z</time>
        <extensions>
          <ns3:TrackPointExtension>
            <ns3:hr>152</ns3:hr>
            <ns3:cad>84</ns3:cad>
          </ns3:TrackPointExtension>
        </extensions>
      </trkpt>
      <trkpt lat="47.47249304316937923431396484375" lon="9.96978700160980224609375">
        <ele>1143.199951171875</ele>
        <time>2026-09-01T10:33:43.000Z</time>
        <extensions>
          <ns3:TrackPointExtension>
            <ns3:hr>152</ns3:hr>
            <ns3:cad>83</ns3:cad>
          </ns3:TrackPointExtension>
        </extensions>
      </trkpt>
      <trkpt lat="47.47249044477939605712890625" lon="9.96967661194503307342529296875">
        <ele>1142</ele>
        <time>2026-09-01T10:33:45.000Z</time>
        <extensions>
          <ns3:TrackPointExtension>
            <ns3:hr>151</ns3:hr>
            <ns3:cad>83</ns3:cad>
          </ns3:TrackPointExtension>
        </extensions>
      </trkpt>
      <trkpt lat="47.47249220497906208038330078125" lon="9.96960402466356754302978515625">
        <ele>1141.5999755859375</ele>
        <time>2026-09-01T10:33:46.000Z</time>
        <extensions>
          <ns3:TrackPointExtension>
            <ns3:hr>151</ns3:hr>
            <ns3:cad>82</ns3:cad>
          </ns3:TrackPointExtension>
        </extensions>
      </trkpt>
      <trkpt lat="47.47249723412096500396728515625" lon="9.969559349119663238525390625">
        <ele>1141</ele>
        <time>2026-09-01T10:33:47.000Z</time>
        <extensions>
          <ns3:TrackPointExtension>
            <ns3:hr>151</ns3:hr>
            <ns3:cad>82</ns3:cad>
          </ns3:TrackPointExtension>
        </extensions>
      </trkpt>
      <trkpt lat="47.47251047752797603607177734375" lon="9.969442002475261688232421875">
        <ele>1140</ele>
        <time>2026-09-01T10:33:49.000Z</time>
        <extensions>
          <ns3:TrackPointExtension>
            <ns3:hr>152</ns3:hr>
            <ns3:cad>82</ns3:cad>
          </ns3:TrackPointExtension>
        </extensions>
      </trkpt>
      <trkpt lat="47.47251567430794239044189453125" lon="9.9693979136645793914794921875">
        <ele>1139.5999755859375</ele>
        <time>2026-09-01T10:33:50.000Z</time>
        <extensions>
          <ns3:TrackPointExtension>
            <ns3:hr>152</ns3:hr>
            <ns3:cad>84</ns3:cad>
          </ns3:TrackPointExtension>
        </extensions>
      </trkpt>
      <trkpt lat="47.47252388857305049896240234375" lon="9.9692768789827823638916015625">
        <ele>1138.5999755859375</ele>
        <time>2026-09-01T10:33:52.000Z</time>
        <extensions>
          <ns3:TrackPointExtension>
            <ns3:hr>153</ns3:hr>
            <ns3:cad>84</ns3:cad>
          </ns3:TrackPointExtension>
        </extensions>
      </trkpt>
      <trkpt lat="47.4725231342017650604248046875" lon="9.9692208878695964813232421875">
        <ele>1138.199951171875</ele>
        <time>2026-09-01T10:33:53.000Z</time>
        <extensions>
          <ns3:TrackPointExtension>
            <ns3:hr>153</ns3:hr>
            <ns3:cad>84</ns3:cad>
          </ns3:TrackPointExtension>
        </extensions>
      </trkpt>
      <trkpt lat="47.47252791188657283782958984375" lon="9.96905006468296051025390625">
        <ele>1137</ele>
        <time>2026-09-01T10:33:56.000Z</time>
        <extensions>
          <ns3:TrackPointExtension>
            <ns3:hr>153</ns3:hr>
            <ns3:cad>84</ns3:cad>
          </ns3:TrackPointExtension>
        </extensions>
      </trkpt>
      <trkpt lat="47.47252254746854305267333984375" lon="9.9689245037734508514404296875">
        <ele>1136</ele>
        <time>2026-09-01T10:33:59.000Z</time>
        <extensions>
          <ns3:TrackPointExtension>
            <ns3:hr>154</ns3:hr>
            <ns3:cad>84</ns3:cad>
          </ns3:TrackPointExtension>
        </extensions>
      </trkpt>
      <trkpt lat="47.47250058688223361968994140625" lon="9.9689023755490779876708984375">
        <ele>1135.199951171875</ele>
        <time>2026-09-01T10:34:01.000Z</time>
        <extensions>
          <ns3:TrackPointExtension>
            <ns3:hr>153</ns3:hr>
            <ns3:cad>82</ns3:cad>
          </ns3:TrackPointExtension>
        </extensions>
      </trkpt>
      <trkpt lat="47.4724842421710491180419921875" lon="9.96887840330600738525390625">
        <ele>1134.5999755859375</ele>
        <time>2026-09-01T10:34:02.000Z</time>
        <extensions>
          <ns3:TrackPointExtension>
            <ns3:hr>152</ns3:hr>
            <ns3:cad>40</ns3:cad>
          </ns3:TrackPointExtension>
        </extensions>
      </trkpt>
      <trkpt lat="47.47245968319475650787353515625" lon="9.96883238665759563446044921875">
        <ele>1134</ele>
        <time>2026-09-01T10:34:03.000Z</time>
        <extensions>
          <ns3:TrackPointExtension>
            <ns3:hr>152</ns3:hr>
            <ns3:cad>40</ns3:cad>
          </ns3:TrackPointExtension>
        </extensions>
      </trkpt>
      <trkpt lat="47.47244174592196941375732421875" lon="9.9687860347330570220947265625">
        <ele>1133.4000244140625</ele>
        <time>2026-09-01T10:34:04.000Z</time>
        <extensions>
          <ns3:TrackPointExtension>
            <ns3:hr>151</ns3:hr>
            <ns3:cad>40</ns3:cad>
          </ns3:TrackPointExtension>
        </extensions>
      </trkpt>
      <trkpt lat="47.47239497490227222442626953125" lon="9.96870112605392932891845703125">
        <ele>1132.4000244140625</ele>
        <time>2026-09-01T10:34:06.000Z</time>
        <extensions>
          <ns3:TrackPointExtension>
            <ns3:hr>151</ns3:hr>
            <ns3:cad>83</ns3:cad>
          </ns3:TrackPointExtension>
        </extensions>
      </trkpt>
      <trkpt lat="47.4723689071834087371826171875" lon="9.968656785786151885986328125">
        <ele>1131.5999755859375</ele>
        <time>2026-09-01T10:34:07.000Z</time>
        <extensions>
          <ns3:TrackPointExtension>
            <ns3:hr>151</ns3:hr>
            <ns3:cad>83</ns3:cad>
          </ns3:TrackPointExtension>
        </extensions>
      </trkpt>
      <trkpt lat="47.47234560549259185791015625" lon="9.96862384490668773651123046875">
        <ele>1130.800048828125</ele>
        <time>2026-09-01T10:34:08.000Z</time>
        <extensions>
          <ns3:TrackPointExtension>
            <ns3:hr>151</ns3:hr>
            <ns3:cad>85</ns3:cad>
          </ns3:TrackPointExtension>
        </extensions>
      </trkpt>
      <trkpt lat="47.47230864129960536956787109375" lon="9.9685349129140377044677734375">
        <ele>1129.199951171875</ele>
        <time>2026-09-01T10:34:10.000Z</time>
        <extensions>
          <ns3:TrackPointExtension>
            <ns3:hr>150</ns3:hr>
            <ns3:cad>86</ns3:cad>
          </ns3:TrackPointExtension>
        </extensions>
      </trkpt>
      <trkpt lat="47.47230134904384613037109375" lon="9.96850021183490753173828125">
        <ele>1128.4000244140625</ele>
        <time>2026-09-01T10:34:11.000Z</time>
        <extensions>
          <ns3:TrackPointExtension>
            <ns3:hr>150</ns3:hr>
            <ns3:cad>85</ns3:cad>
          </ns3:TrackPointExtension>
        </extensions>
      </trkpt>
      <trkpt lat="47.4722803942859172821044921875" lon="9.96845620684325695037841796875">
        <ele>1127.800048828125</ele>
        <time>2026-09-01T10:34:12.000Z</time>
        <extensions>
          <ns3:TrackPointExtension>
            <ns3:hr>149</ns3:hr>
            <ns3:cad>85</ns3:cad>
          </ns3:TrackPointExtension>
        </extensions>
      </trkpt>
      <trkpt lat="47.4722374789416790008544921875" lon="9.96837557293474674224853515625">
        <ele>1126.5999755859375</ele>
        <time>2026-09-01T10:34:14.000Z</time>
        <extensions>
          <ns3:TrackPointExtension>
            <ns3:hr>149</ns3:hr>
            <ns3:cad>86</ns3:cad>
          </ns3:TrackPointExtension>
        </extensions>
      </trkpt>
      <trkpt lat="47.4722029455006122589111328125" lon="9.96829074807465076446533203125">
        <ele>1125.199951171875</ele>
        <time>2026-09-01T10:34:16.000Z</time>
        <extensions>
          <ns3:TrackPointExtension>
            <ns3:hr>149</ns3:hr>
            <ns3:cad>86</ns3:cad>
          </ns3:TrackPointExtension>
        </extensions>
      </trkpt>
      <trkpt lat="47.4721808172762393951416015625" lon="9.96823710389435291290283203125">
        <ele>1124.199951171875</ele>
        <time>2026-09-01T10:34:17.000Z</time>
        <extensions>
          <ns3:TrackPointExtension>
            <ns3:hr>149</ns3:hr>
            <ns3:cad>86</ns3:cad>
          </ns3:TrackPointExtension>
        </extensions>
      </trkpt>
      <trkpt lat="47.47216564603149890899658203125" lon="9.96819301508367061614990234375">
        <ele>1123.4000244140625</ele>
        <time>2026-09-01T10:34:18.000Z</time>
        <extensions>
          <ns3:TrackPointExtension>
            <ns3:hr>149</ns3:hr>
            <ns3:cad>85</ns3:cad>
          </ns3:TrackPointExtension>
        </extensions>
      </trkpt>
      <trkpt lat="47.4721439369022846221923828125" lon="9.96815009973943233489990234375">
        <ele>1122.4000244140625</ele>
        <time>2026-09-01T10:34:19.000Z</time>
        <extensions>
          <ns3:TrackPointExtension>
            <ns3:hr>149</ns3:hr>
            <ns3:cad>85</ns3:cad>
          </ns3:TrackPointExtension>
        </extensions>
      </trkpt>
      <trkpt lat="47.4721114151179790496826171875" lon="9.96805655770003795623779296875">
        <ele>1120.800048828125</ele>
        <time>2026-09-01T10:34:21.000Z</time>
        <extensions>
          <ns3:TrackPointExtension>
            <ns3:hr>149</ns3:hr>
            <ns3:cad>85</ns3:cad>
          </ns3:TrackPointExtension>
        </extensions>
      </trkpt>
      <trkpt lat="47.4720728583633899688720703125" lon="9.96795429848134517669677734375">
        <ele>1119.4000244140625</ele>
        <time>2026-09-01T10:34:23.000Z</time>
        <extensions>
          <ns3:TrackPointExtension>
            <ns3:hr>149</ns3:hr>
            <ns3:cad>85</ns3:cad>
          </ns3:TrackPointExtension>
        </extensions>
      </trkpt>
      <trkpt lat="47.47205802239477634429931640625" lon="9.96790652163326740264892578125">
        <ele>1118.800048828125</ele>
        <time>2026-09-01T10:34:24.000Z</time>
        <extensions>
          <ns3:TrackPointExtension>
            <ns3:hr>149</ns3:hr>
            <ns3:cad>85</ns3:cad>
          </ns3:TrackPointExtension>
        </extensions>
      </trkpt>
      <trkpt lat="47.47204662300646305084228515625" lon="9.96786779724061489105224609375">
        <ele>1117.800048828125</ele>
        <time>2026-09-01T10:34:25.000Z</time>
        <extensions>
          <ns3:TrackPointExtension>
            <ns3:hr>150</ns3:hr>
            <ns3:cad>85</ns3:cad>
          </ns3:TrackPointExtension>
        </extensions>
      </trkpt>
      <trkpt lat="47.4720155261456966400146484375" lon="9.967767298221588134765625">
        <ele>1116</ele>
        <time>2026-09-01T10:34:27.000Z</time>
        <extensions>
          <ns3:TrackPointExtension>
            <ns3:hr>151</ns3:hr>
            <ns3:cad>85</ns3:cad>
          </ns3:TrackPointExtension>
        </extensions>
      </trkpt>
      <trkpt lat="47.47199616394937038421630859375" lon="9.9677128158509731292724609375">
        <ele>1115.199951171875</ele>
        <time>2026-09-01T10:34:28.000Z</time>
        <extensions>
          <ns3:TrackPointExtension>
            <ns3:hr>151</ns3:hr>
            <ns3:cad>86</ns3:cad>
          </ns3:TrackPointExtension>
        </extensions>
      </trkpt>
      <trkpt lat="47.4719746224582195281982421875" lon="9.967665374279022216796875">
        <ele>1114.199951171875</ele>
        <time>2026-09-01T10:34:29.000Z</time>
        <extensions>
          <ns3:TrackPointExtension>
            <ns3:hr>151</ns3:hr>
            <ns3:cad>86</ns3:cad>
          </ns3:TrackPointExtension>
        </extensions>
      </trkpt>
      <trkpt lat="47.47195140458643436431884765625" lon="9.9675652943551540374755859375">
        <ele>1112.800048828125</ele>
        <time>2026-09-01T10:34:31.000Z</time>
        <extensions>
          <ns3:TrackPointExtension>
            <ns3:hr>150</ns3:hr>
            <ns3:cad>87</ns3:cad>
          </ns3:TrackPointExtension>
        </extensions>
      </trkpt>
      <trkpt lat="47.47193698771297931671142578125" lon="9.967515505850315093994140625">
        <ele>1112</ele>
        <time>2026-09-01T10:34:32.000Z</time>
        <extensions>
          <ns3:TrackPointExtension>
            <ns3:hr>149</ns3:hr>
            <ns3:cad>87</ns3:cad>
          </ns3:TrackPointExtension>
        </extensions>
      </trkpt>
      <trkpt lat="47.47192508541047573089599609375" lon="9.96747217141091823577880859375">
        <ele>1111.199951171875</ele>
        <time>2026-09-01T10:34:33.000Z</time>
        <extensions>
          <ns3:TrackPointExtension>
            <ns3:hr>149</ns3:hr>
            <ns3:cad>83</ns3:cad>
          </ns3:TrackPointExtension>
        </extensions>
      </trkpt>
      <trkpt lat="47.4719085730612277984619140625" lon="9.96738349087536334991455078125">
        <ele>1109.199951171875</ele>
        <time>2026-09-01T10:34:35.000Z</time>
        <extensions>
          <ns3:TrackPointExtension>
            <ns3:hr>150</ns3:hr>
            <ns3:cad>83</ns3:cad>
          </ns3:TrackPointExtension>
        </extensions>
      </trkpt>
      <trkpt lat="47.47189993970096111297607421875" lon="9.967337809503078460693359375">
        <ele>1108.199951171875</ele>
        <time>2026-09-01T10:34:36.000Z</time>
        <extensions>
          <ns3:TrackPointExtension>
            <ns3:hr>150</ns3:hr>
            <ns3:cad>83</ns3:cad>
          </ns3:TrackPointExtension>
        </extensions>
      </trkpt>
      <trkpt lat="47.47188887558877468109130859375" lon="9.9672779627144336700439453125">
        <ele>1107.199951171875</ele>
        <time>2026-09-01T10:34:37.000Z</time>
        <extensions>
          <ns3:TrackPointExtension>
            <ns3:hr>149</ns3:hr>
            <ns3:cad>83</ns3:cad>
          </ns3:TrackPointExtension>
        </extensions>
      </trkpt>
      <trkpt lat="47.47186875902116298675537109375" lon="9.9671874381601810455322265625">
        <ele>1105.4000244140625</ele>
        <time>2026-09-01T10:34:39.000Z</time>
        <extensions>
          <ns3:TrackPointExtension>
            <ns3:hr>149</ns3:hr>
            <ns3:cad>93</ns3:cad>
          </ns3:TrackPointExtension>
        </extensions>
      </trkpt>
      <trkpt lat="47.47185409069061279296875" lon="9.9671368114650249481201171875">
        <ele>1104.4000244140625</ele>
        <time>2026-09-01T10:34:40.000Z</time>
        <extensions>
          <ns3:TrackPointExtension>
            <ns3:hr>150</ns3:hr>
            <ns3:cad>93</ns3:cad>
          </ns3:TrackPointExtension>
        </extensions>
      </trkpt>
      <trkpt lat="47.47184327803552150726318359375" lon="9.96709029190242290496826171875">
        <ele>1103.4000244140625</ele>
        <time>2026-09-01T10:34:41.000Z</time>
        <extensions>
          <ns3:TrackPointExtension>
            <ns3:hr>150</ns3:hr>
            <ns3:cad>93</ns3:cad>
          </ns3:TrackPointExtension>
        </extensions>
      </trkpt>
      <trkpt lat="47.4718341417610645294189453125" lon="9.96704670600593090057373046875">
        <ele>1102.4000244140625</ele>
        <time>2026-09-01T10:34:42.000Z</time>
        <extensions>
          <ns3:TrackPointExtension>
            <ns3:hr>149</ns3:hr>
            <ns3:cad>96</ns3:cad>
          </ns3:TrackPointExtension>
        </extensions>
      </trkpt>
      <trkpt lat="47.47182483784854412078857421875" lon="9.9670053832232952117919921875">
        <ele>1101.4000244140625</ele>
        <time>2026-09-01T10:34:43.000Z</time>
        <extensions>
          <ns3:TrackPointExtension>
            <ns3:hr>150</ns3:hr>
            <ns3:cad>96</ns3:cad>
          </ns3:TrackPointExtension>
        </extensions>
      </trkpt>
      <trkpt lat="47.47181746177375316619873046875" lon="9.966956265270709991455078125">
        <ele>1099.5999755859375</ele>
        <time>2026-09-01T10:34:45.000Z</time>
        <extensions>
          <ns3:TrackPointExtension>
            <ns3:hr>151</ns3:hr>
            <ns3:cad>95</ns3:cad>
          </ns3:TrackPointExtension>
        </extensions>
      </trkpt>
      <trkpt lat="47.471834979951381683349609375" lon="9.96692013926804065704345703125">
        <ele>1099</ele>
        <time>2026-09-01T10:34:46.000Z</time>
        <extensions>
          <ns3:TrackPointExtension>
            <ns3:hr>150</ns3:hr>
            <ns3:cad>95</ns3:cad>
          </ns3:TrackPointExtension>
        </extensions>
      </trkpt>
      <trkpt lat="47.47184679843485355377197265625" lon="9.96688208542764186859130859375">
        <ele>1098.4000244140625</ele>
        <time>2026-09-01T10:34:47.000Z</time>
        <extensions>
          <ns3:TrackPointExtension>
            <ns3:hr>151</ns3:hr>
            <ns3:cad>95</ns3:cad>
          </ns3:TrackPointExtension>
        </extensions>
      </trkpt>
      <trkpt lat="47.47184847481548786163330078125" lon="9.966850318014621734619140625">
        <ele>1097.800048828125</ele>
        <time>2026-09-01T10:34:48.000Z</time>
        <extensions>
          <ns3:TrackPointExtension>
            <ns3:hr>152</ns3:hr>
            <ns3:cad>95</ns3:cad>
          </ns3:TrackPointExtension>
        </extensions>
      </trkpt>
      <trkpt lat="47.47183858416974544525146484375" lon="9.96675954200327396392822265625">
        <ele>1096.800048828125</ele>
        <time>2026-09-01T10:34:50.000Z</time>
        <extensions>
          <ns3:TrackPointExtension>
            <ns3:hr>152</ns3:hr>
            <ns3:cad>95</ns3:cad>
          </ns3:TrackPointExtension>
        </extensions>
      </trkpt>
      <trkpt lat="47.4718421883881092071533203125" lon="9.96671293862164020538330078125">
        <ele>1096.199951171875</ele>
        <time>2026-09-01T10:34:51.000Z</time>
        <extensions>
          <ns3:TrackPointExtension>
            <ns3:hr>152</ns3:hr>
            <ns3:cad>95</ns3:cad>
          </ns3:TrackPointExtension>
        </extensions>
      </trkpt>
      <trkpt lat="47.4718492291867733001708984375" lon="9.966670610010623931884765625">
        <ele>1095.5999755859375</ele>
        <time>2026-09-01T10:34:52.000Z</time>
        <extensions>
          <ns3:TrackPointExtension>
            <ns3:hr>152</ns3:hr>
            <ns3:cad>85</ns3:cad>
          </ns3:TrackPointExtension>
        </extensions>
      </trkpt>
      <trkpt lat="47.4718532525002956390380859375" lon="9.9665926583111286163330078125">
        <ele>1094</ele>
        <time>2026-09-01T10:34:54.000Z</time>
        <extensions>
          <ns3:TrackPointExtension>
            <ns3:hr>151</ns3:hr>
            <ns3:cad>85</ns3:cad>
          </ns3:TrackPointExtension>
        </extensions>
      </trkpt>
      <trkpt lat="47.47185501269996166229248046875" lon="9.966522753238677978515625">
        <ele>1092.4000244140625</ele>
        <time>2026-09-01T10:34:56.000Z</time>
        <extensions>
          <ns3:TrackPointExtension>
            <ns3:hr>152</ns3:hr>
            <ns3:cad>85</ns3:cad>
          </ns3:TrackPointExtension>
        </extensions>
      </trkpt>
      <trkpt lat="47.47183958999812602996826171875" lon="9.9664427898824214935302734375">
        <ele>1090.800048828125</ele>
        <time>2026-09-01T10:34:58.000Z</time>
        <extensions>
          <ns3:TrackPointExtension>
            <ns3:hr>152</ns3:hr>
            <ns3:cad>85</ns3:cad>
          </ns3:TrackPointExtension>
        </extensions>
      </trkpt>
      <trkpt lat="47.47181058861315250396728515625" lon="9.9663623236119747161865234375">
        <ele>1088.800048828125</ele>
        <time>2026-09-01T10:35:00.000Z</time>
        <extensions>
          <ns3:TrackPointExtension>
            <ns3:hr>153</ns3:hr>
            <ns3:cad>85</ns3:cad>
          </ns3:TrackPointExtension>
        </extensions>
      </trkpt>
      <trkpt lat="47.471787035465240478515625" lon="9.96627490036189556121826171875">
        <ele>1087</ele>
        <time>2026-09-01T10:35:02.000Z</time>
        <extensions>
          <ns3:TrackPointExtension>
            <ns3:hr>154</ns3:hr>
            <ns3:cad>85</ns3:cad>
          </ns3:TrackPointExtension>
        </extensions>
      </trkpt>
      <trkpt lat="47.47177186422049999237060546875" lon="9.9661861360073089599609375">
        <ele>1085.4000244140625</ele>
        <time>2026-09-01T10:35:04.000Z</time>
        <extensions>
          <ns3:TrackPointExtension>
            <ns3:hr>154</ns3:hr>
            <ns3:cad>87</ns3:cad>
          </ns3:TrackPointExtension>
        </extensions>
      </trkpt>
      <trkpt lat="47.47176901437342166900634765625" lon="9.966115392744541168212890625">
        <ele>1084</ele>
        <time>2026-09-01T10:35:06.000Z</time>
        <extensions>
          <ns3:TrackPointExtension>
            <ns3:hr>153</ns3:hr>
            <ns3:cad>88</ns3:cad>
          </ns3:TrackPointExtension>
        </extensions>
      </trkpt>
      <trkpt lat="47.47175510041415691375732421875" lon="9.96604171581566333770751953125">
        <ele>1082.4000244140625</ele>
        <time>2026-09-01T10:35:08.000Z</time>
        <extensions>
          <ns3:TrackPointExtension>
            <ns3:hr>153</ns3:hr>
            <ns3:cad>88</ns3:cad>
          </ns3:TrackPointExtension>
        </extensions>
      </trkpt>
      <trkpt lat="47.4717251770198345184326171875" lon="9.9659688770771026611328125">
        <ele>1080.800048828125</ele>
        <time>2026-09-01T10:35:10.000Z</time>
        <extensions>
          <ns3:TrackPointExtension>
            <ns3:hr>154</ns3:hr>
            <ns3:cad>88</ns3:cad>
          </ns3:TrackPointExtension>
        </extensions>
      </trkpt>
      <trkpt lat="47.47171302326023578643798828125" lon="9.96591749601066112518310546875">
        <ele>1079.800048828125</ele>
        <time>2026-09-01T10:35:11.000Z</time>
        <extensions>
          <ns3:TrackPointExtension>
            <ns3:hr>154</ns3:hr>
            <ns3:cad>103</ns3:cad>
          </ns3:TrackPointExtension>
        </extensions>
      </trkpt>
      <trkpt lat="47.471711933612823486328125" lon="9.96590257622301578521728515625">
        <ele>1079</ele>
        <time>2026-09-01T10:35:12.000Z</time>
        <extensions>
          <ns3:TrackPointExtension>
            <ns3:hr>154</ns3:hr>
            <ns3:cad>103</ns3:cad>
          </ns3:TrackPointExtension>
        </extensions>
      </trkpt>
      <trkpt lat="47.4717161245644092559814453125" lon="9.96587567031383514404296875">
        <ele>1078</ele>
        <time>2026-09-01T10:35:13.000Z</time>
        <extensions>
          <ns3:TrackPointExtension>
            <ns3:hr>155</ns3:hr>
            <ns3:cad>103</ns3:cad>
          </ns3:TrackPointExtension>
        </extensions>
      </trkpt>
      <trkpt lat="47.47171537019312381744384765625" lon="9.96584926731884479522705078125">
        <ele>1077.199951171875</ele>
        <time>2026-09-01T10:35:14.000Z</time>
        <extensions>
          <ns3:TrackPointExtension>
            <ns3:hr>156</ns3:hr>
            <ns3:cad>103</ns3:cad>
          </ns3:TrackPointExtension>
        </extensions>
      </trkpt>
      <trkpt lat="47.471710257232189178466796875" lon="9.9657786078751087188720703125">
        <ele>1075.5999755859375</ele>
        <time>2026-09-01T10:35:16.000Z</time>
        <extensions>
          <ns3:TrackPointExtension>
            <ns3:hr>154</ns3:hr>
            <ns3:cad>90</ns3:cad>
          </ns3:TrackPointExtension>
        </extensions>
      </trkpt>
      <trkpt lat="47.47169424779713153839111328125" lon="9.96571649797260761260986328125">
        <ele>1074</ele>
        <time>2026-09-01T10:35:18.000Z</time>
        <extensions>
          <ns3:TrackPointExtension>
            <ns3:hr>154</ns3:hr>
            <ns3:cad>90</ns3:cad>
          </ns3:TrackPointExtension>
        </extensions>
      </trkpt>
      <trkpt lat="47.47168435715138912200927734375" lon="9.9656803719699382781982421875">
        <ele>1073.4000244140625</ele>
        <time>2026-09-01T10:35:19.000Z</time>
        <extensions>
          <ns3:TrackPointExtension>
            <ns3:hr>154</ns3:hr>
            <ns3:cad>90</ns3:cad>
          </ns3:TrackPointExtension>
        </extensions>
      </trkpt>
      <trkpt lat="47.4716779030859470367431640625" lon="9.96564893983304500579833984375">
        <ele>1072.5999755859375</ele>
        <time>2026-09-01T10:35:20.000Z</time>
        <extensions>
          <ns3:TrackPointExtension>
            <ns3:hr>154</ns3:hr>
            <ns3:cad>90</ns3:cad>
          </ns3:TrackPointExtension>
        </extensions>
      </trkpt>
      <trkpt lat="47.47167094610631465911865234375" lon="9.965550117194652557373046875">
        <ele>1070.800048828125</ele>
        <time>2026-09-01T10:35:22.000Z</time>
        <extensions>
          <ns3:TrackPointExtension>
            <ns3:hr>155</ns3:hr>
            <ns3:cad>90</ns3:cad>
          </ns3:TrackPointExtension>
        </extensions>
      </trkpt>
      <trkpt lat="47.47166759334504604339599609375" lon="9.96546688489615917205810546875">
        <ele>1069.199951171875</ele>
        <time>2026-09-01T10:35:24.000Z</time>
        <extensions>
          <ns3:TrackPointExtension>
            <ns3:hr>155</ns3:hr>
            <ns3:cad>90</ns3:cad>
          </ns3:TrackPointExtension>
        </extensions>
      </trkpt>
      <trkpt lat="47.471661306917667388916015625" lon="9.9654269032180309295654296875">
        <ele>1068.199951171875</ele>
        <time>2026-09-01T10:35:25.000Z</time>
        <extensions>
          <ns3:TrackPointExtension>
            <ns3:hr>154</ns3:hr>
            <ns3:cad>92</ns3:cad>
          </ns3:TrackPointExtension>
        </extensions>
      </trkpt>
      <trkpt lat="47.47165753506124019622802734375" lon="9.96538273058831691741943359375">
        <ele>1067.4000244140625</ele>
        <time>2026-09-01T10:35:26.000Z</time>
        <extensions>
          <ns3:TrackPointExtension>
            <ns3:hr>154</ns3:hr>
            <ns3:cad>91</ns3:cad>
          </ns3:TrackPointExtension>
        </extensions>
      </trkpt>
      <trkpt lat="47.47163088060915470123291015625" lon="9.9653305113315582275390625">
        <ele>1066</ele>
        <time>2026-09-01T10:35:28.000Z</time>
        <extensions>
          <ns3:TrackPointExtension>
            <ns3:hr>154</ns3:hr>
            <ns3:cad>91</ns3:cad>
          </ns3:TrackPointExtension>
        </extensions>
      </trkpt>
      <trkpt lat="47.47162082232534885406494140625" lon="9.96529421769082546234130859375">
        <ele>1065.199951171875</ele>
        <time>2026-09-01T10:35:29.000Z</time>
        <extensions>
          <ns3:TrackPointExtension>
            <ns3:hr>154</ns3:hr>
            <ns3:cad>93</ns3:cad>
          </ns3:TrackPointExtension>
        </extensions>
      </trkpt>
      <trkpt lat="47.4716168828308582305908203125" lon="9.9652508832514286041259765625">
        <ele>1064.4000244140625</ele>
        <time>2026-09-01T10:35:30.000Z</time>
        <extensions>
          <ns3:TrackPointExtension>
            <ns3:hr>153</ns3:hr>
            <ns3:cad>93</ns3:cad>
          </ns3:TrackPointExtension>
        </extensions>
      </trkpt>
      <trkpt lat="47.4716138653457164764404296875" lon="9.965219534933567047119140625">
        <ele>1063.4000244140625</ele>
        <time>2026-09-01T10:35:31.000Z</time>
        <extensions>
          <ns3:TrackPointExtension>
            <ns3:hr>153</ns3:hr>
            <ns3:cad>93</ns3:cad>
          </ns3:TrackPointExtension>
        </extensions>
      </trkpt>
      <trkpt lat="47.47160590253770351409912109375" lon="9.96518542058765888214111328125">
        <ele>1062.4000244140625</ele>
        <time>2026-09-01T10:35:32.000Z</time>
        <extensions>
          <ns3:TrackPointExtension>
            <ns3:hr>154</ns3:hr>
            <ns3:cad>93</ns3:cad>
          </ns3:TrackPointExtension>
        </extensions>
      </trkpt>
      <trkpt lat="47.4716031365096569061279296875" lon="9.965165220201015472412109375">
        <ele>1061.5999755859375</ele>
        <time>2026-09-01T10:35:33.000Z</time>
        <extensions>
          <ns3:TrackPointExtension>
            <ns3:hr>154</ns3:hr>
            <ns3:cad>93</ns3:cad>
          </ns3:TrackPointExtension>
        </extensions>
      </trkpt>
      <trkpt lat="47.4715840257704257965087890625" lon="9.9651466123759746551513671875">
        <ele>1060.5999755859375</ele>
        <time>2026-09-01T10:35:34.000Z</time>
        <extensions>
          <ns3:TrackPointExtension>
            <ns3:hr>155</ns3:hr>
            <ns3:cad>93</ns3:cad>
          </ns3:TrackPointExtension>
        </extensions>
      </trkpt>
      <trkpt lat="47.47157187201082706451416015625" lon="9.9651345424354076385498046875">
        <ele>1059.800048828125</ele>
        <time>2026-09-01T10:35:35.000Z</time>
        <extensions>
          <ns3:TrackPointExtension>
            <ns3:hr>155</ns3:hr>
            <ns3:cad>103</ns3:cad>
          </ns3:TrackPointExtension>
        </extensions>
      </trkpt>
      <trkpt lat="47.47155460529029369354248046875" lon="9.96510813944041728973388671875">
        <ele>1059</ele>
        <time>2026-09-01T10:35:36.000Z</time>
        <extensions>
          <ns3:TrackPointExtension>
            <ns3:hr>155</ns3:hr>
            <ns3:cad>97</ns3:cad>
          </ns3:TrackPointExtension>
        </extensions>
      </trkpt>
      <trkpt lat="47.471551001071929931640625" lon="9.9650748632848262786865234375">
        <ele>1058</ele>
        <time>2026-09-01T10:35:37.000Z</time>
        <extensions>
          <ns3:TrackPointExtension>
            <ns3:hr>155</ns3:hr>
            <ns3:cad>97</ns3:cad>
          </ns3:TrackPointExtension>
        </extensions>
      </trkpt>
      <trkpt lat="47.471540607511997222900390625" lon="9.96498249471187591552734375">
        <ele>1056.199951171875</ele>
        <time>2026-09-01T10:35:39.000Z</time>
        <extensions>
          <ns3:TrackPointExtension>
            <ns3:hr>154</ns3:hr>
            <ns3:cad>97</ns3:cad>
          </ns3:TrackPointExtension>
        </extensions>
      </trkpt>
      <trkpt lat="47.47153197415173053741455078125" lon="9.96494821272790431976318359375">
        <ele>1055.5999755859375</ele>
        <time>2026-09-01T10:35:40.000Z</time>
        <extensions>
          <ns3:TrackPointExtension>
            <ns3:hr>155</ns3:hr>
            <ns3:cad>91</ns3:cad>
          </ns3:TrackPointExtension>
        </extensions>
      </trkpt>
      <trkpt lat="47.47151906602084636688232421875" lon="9.96490378864109516143798828125">
        <ele>1054.800048828125</ele>
        <time>2026-09-01T10:35:41.000Z</time>
        <extensions>
          <ns3:TrackPointExtension>
            <ns3:hr>155</ns3:hr>
            <ns3:cad>91</ns3:cad>
          </ns3:TrackPointExtension>
        </extensions>
      </trkpt>
      <trkpt lat="47.47149995528161525726318359375" lon="9.964814521372318267822265625">
        <ele>1053.199951171875</ele>
        <time>2026-09-01T10:35:43.000Z</time>
        <extensions>
          <ns3:TrackPointExtension>
            <ns3:hr>155</ns3:hr>
            <ns3:cad>88</ns3:cad>
          </ns3:TrackPointExtension>
        </extensions>
      </trkpt>
      <trkpt lat="47.47148931026458740234375" lon="9.9647694267332553863525390625">
        <ele>1052.199951171875</ele>
        <time>2026-09-01T10:35:44.000Z</time>
        <extensions>
          <ns3:TrackPointExtension>
            <ns3:hr>155</ns3:hr>
            <ns3:cad>88</ns3:cad>
          </ns3:TrackPointExtension>
        </extensions>
      </trkpt>
      <trkpt lat="47.47148201800882816314697265625" lon="9.96472843922674655914306640625">
        <ele>1051.4000244140625</ele>
        <time>2026-09-01T10:35:45.000Z</time>
        <extensions>
          <ns3:TrackPointExtension>
            <ns3:hr>154</ns3:hr>
            <ns3:cad>88</ns3:cad>
          </ns3:TrackPointExtension>
        </extensions>
      </trkpt>
      <trkpt lat="47.4714646674692630767822265625" lon="9.9646936543285846710205078125">
        <ele>1050.4000244140625</ele>
        <time>2026-09-01T10:35:46.000Z</time>
        <extensions>
          <ns3:TrackPointExtension>
            <ns3:hr>154</ns3:hr>
            <ns3:cad>88</ns3:cad>
          </ns3:TrackPointExtension>
        </extensions>
      </trkpt>
      <trkpt lat="47.47144714929163455963134765625" lon="9.96466306038200855255126953125">
        <ele>1049.199951171875</ele>
        <time>2026-09-01T10:35:47.000Z</time>
        <extensions>
          <ns3:TrackPointExtension>
            <ns3:hr>154</ns3:hr>
            <ns3:cad>88</ns3:cad>
          </ns3:TrackPointExtension>
        </extensions>
      </trkpt>
      <trkpt lat="47.47145100496709346771240234375" lon="9.96462450362741947174072265625">
        <ele>1048.199951171875</ele>
        <time>2026-09-01T10:35:48.000Z</time>
        <extensions>
          <ns3:TrackPointExtension>
            <ns3:hr>153</ns3:hr>
            <ns3:cad>88</ns3:cad>
          </ns3:TrackPointExtension>
        </extensions>
      </trkpt>
      <trkpt lat="47.4714502505958080291748046875" lon="9.96459114365279674530029296875">
        <ele>1047.4000244140625</ele>
        <time>2026-09-01T10:35:49.000Z</time>
        <extensions>
          <ns3:TrackPointExtension>
            <ns3:hr>153</ns3:hr>
            <ns3:cad>88</ns3:cad>
          </ns3:TrackPointExtension>
        </extensions>
      </trkpt>
      <trkpt lat="47.4714589677751064300537109375" lon="9.9644988588988780975341796875">
        <ele>1045.800048828125</ele>
        <time>2026-09-01T10:35:51.000Z</time>
        <extensions>
          <ns3:TrackPointExtension>
            <ns3:hr>153</ns3:hr>
            <ns3:cad>88</ns3:cad>
          </ns3:TrackPointExtension>
        </extensions>
      </trkpt>
      <trkpt lat="47.471453435719013214111328125" lon="9.9644187279045581817626953125">
        <ele>1044.199951171875</ele>
        <time>2026-09-01T10:35:53.000Z</time>
        <extensions>
          <ns3:TrackPointExtension>
            <ns3:hr>154</ns3:hr>
            <ns3:cad>102</ns3:cad>
          </ns3:TrackPointExtension>
        </extensions>
      </trkpt>
      <trkpt lat="47.47143876738846302032470703125" lon="9.96438796631991863250732421875">
        <ele>1043.4000244140625</ele>
        <time>2026-09-01T10:35:54.000Z</time>
        <extensions>
          <ns3:TrackPointExtension>
            <ns3:hr>154</ns3:hr>
            <ns3:cad>102</ns3:cad>
          </ns3:TrackPointExtension>
        </extensions>
      </trkpt>
      <trkpt lat="47.47142300941050052642822265625" lon="9.9643488228321075439453125">
        <ele>1042.5999755859375</ele>
        <time>2026-09-01T10:35:55.000Z</time>
        <extensions>
          <ns3:TrackPointExtension>
            <ns3:hr>154</ns3:hr>
            <ns3:cad>91</ns3:cad>
          </ns3:TrackPointExtension>
        </extensions>
      </trkpt>
      <trkpt lat="47.47138730250298976898193359375" lon="9.96427841484546661376953125">
        <ele>1041</ele>
        <time>2026-09-01T10:35:57.000Z</time>
        <extensions>
          <ns3:TrackPointExtension>
            <ns3:hr>154</ns3:hr>
            <ns3:cad>0</ns3:cad>
          </ns3:TrackPointExtension>
        </extensions>
      </trkpt>
      <trkpt lat="47.47138026170432567596435546875" lon="9.96421311981976032257080078125">
        <ele>1039.199951171875</ele>
        <time>2026-09-01T10:35:59.000Z</time>
        <extensions>
          <ns3:TrackPointExtension>
            <ns3:hr>155</ns3:hr>
            <ns3:cad>0</ns3:cad>
          </ns3:TrackPointExtension>
        </extensions>
      </trkpt>
      <trkpt lat="47.47137623839080333709716796875" lon="9.96413080953061580657958984375">
        <ele>1037.5999755859375</ele>
        <time>2026-09-01T10:36:01.000Z</time>
        <extensions>
          <ns3:TrackPointExtension>
            <ns3:hr>155</ns3:hr>
            <ns3:cad>0</ns3:cad>
          </ns3:TrackPointExtension>
        </extensions>
      </trkpt>
      <trkpt lat="47.471379339694976806640625" lon="9.96404564939439296722412109375">
        <ele>1036</ele>
        <time>2026-09-01T10:36:03.000Z</time>
        <extensions>
          <ns3:TrackPointExtension>
            <ns3:hr>155</ns3:hr>
            <ns3:cad>0</ns3:cad>
          </ns3:TrackPointExtension>
        </extensions>
      </trkpt>
      <trkpt lat="47.4713967740535736083984375" lon="9.96397742070257663726806640625">
        <ele>1034.5999755859375</ele>
        <time>2026-09-01T10:36:05.000Z</time>
        <extensions>
          <ns3:TrackPointExtension>
            <ns3:hr>155</ns3:hr>
            <ns3:cad>87</ns3:cad>
          </ns3:TrackPointExtension>
        </extensions>
      </trkpt>
      <trkpt lat="47.4714133702218532562255859375" lon="9.96391606517136096954345703125">
        <ele>1033.4000244140625</ele>
        <time>2026-09-01T10:36:07.000Z</time>
        <extensions>
          <ns3:TrackPointExtension>
            <ns3:hr>155</ns3:hr>
            <ns3:cad>87</ns3:cad>
          </ns3:TrackPointExtension>
        </extensions>
      </trkpt>
      <trkpt lat="47.47142284177243709564208984375" lon="9.9638832919299602508544921875">
        <ele>1032.5999755859375</ele>
        <time>2026-09-01T10:36:08.000Z</time>
        <extensions>
          <ns3:TrackPointExtension>
            <ns3:hr>155</ns3:hr>
            <ns3:cad>87</ns3:cad>
          </ns3:TrackPointExtension>
        </extensions>
      </trkpt>
      <trkpt lat="47.4714308045804500579833984375" lon="9.96385152451694011688232421875">
        <ele>1031.800048828125</ele>
        <time>2026-09-01T10:36:09.000Z</time>
        <extensions>
          <ns3:TrackPointExtension>
            <ns3:hr>155</ns3:hr>
            <ns3:cad>87</ns3:cad>
          </ns3:TrackPointExtension>
        </extensions>
      </trkpt>
      <trkpt lat="47.47143122367560863494873046875" lon="9.96378581039607524871826171875">
        <ele>1030</ele>
        <time>2026-09-01T10:36:11.000Z</time>
        <extensions>
          <ns3:TrackPointExtension>
            <ns3:hr>155</ns3:hr>
            <ns3:cad>87</ns3:cad>
          </ns3:TrackPointExtension>
        </extensions>
      </trkpt>
      <trkpt lat="47.47140440158545970916748046875" lon="9.96370014734566211700439453125">
        <ele>1028.199951171875</ele>
        <time>2026-09-01T10:36:13.000Z</time>
        <extensions>
          <ns3:TrackPointExtension>
            <ns3:hr>155</ns3:hr>
            <ns3:cad>87</ns3:cad>
          </ns3:TrackPointExtension>
        </extensions>
      </trkpt>
      <trkpt lat="47.4713858775794506072998046875" lon="9.96360911987721920013427734375">
        <ele>1026.199951171875</ele>
        <time>2026-09-01T10:36:15.000Z</time>
        <extensions>
          <ns3:TrackPointExtension>
            <ns3:hr>155</ns3:hr>
            <ns3:cad>98</ns3:cad>
          </ns3:TrackPointExtension>
        </extensions>
      </trkpt>
      <trkpt lat="47.47140507213771343231201171875" lon="9.96354592032730579376220703125">
        <ele>1024.5999755859375</ele>
        <time>2026-09-01T10:36:17.000Z</time>
        <extensions>
          <ns3:TrackPointExtension>
            <ns3:hr>156</ns3:hr>
            <ns3:cad>91</ns3:cad>
          </ns3:TrackPointExtension>
        </extensions>
      </trkpt>
      <trkpt lat="47.47140238992869853973388671875" lon="9.96347509324550628662109375">
        <ele>1023</ele>
        <time>2026-09-01T10:36:19.000Z</time>
        <extensions>
          <ns3:TrackPointExtension>
            <ns3:hr>155</ns3:hr>
            <ns3:cad>91</ns3:cad>
          </ns3:TrackPointExtension>
        </extensions>
      </trkpt>
      <trkpt lat="47.47138914652168750762939453125" lon="9.96341600082814693450927734375">
        <ele>1021.5999755859375</ele>
        <time>2026-09-01T10:36:21.000Z</time>
        <extensions>
          <ns3:TrackPointExtension>
            <ns3:hr>153</ns3:hr>
            <ns3:cad>91</ns3:cad>
          </ns3:TrackPointExtension>
        </extensions>
      </trkpt>
      <trkpt lat="47.47137120924890041351318359375" lon="9.96338188648223876953125">
        <ele>1020.20001220703125</ele>
        <time>2026-09-01T10:36:23.000Z</time>
        <extensions>
          <ns3:TrackPointExtension>
            <ns3:hr>153</ns3:hr>
            <ns3:cad>0</ns3:cad>
          </ns3:TrackPointExtension>
        </extensions>
      </trkpt>
      <trkpt lat="47.4713597260415554046630859375" lon="9.96332430280745029449462890625">
        <ele>1018.79998779296875</ele>
        <time>2026-09-01T10:36:25.000Z</time>
        <extensions>
          <ns3:TrackPointExtension>
            <ns3:hr>153</ns3:hr>
            <ns3:cad>0</ns3:cad>
          </ns3:TrackPointExtension>
        </extensions>
      </trkpt>
      <trkpt lat="47.47135058976709842681884765625" lon="9.9632928706705570220947265625">
        <ele>1018.20001220703125</ele>
        <time>2026-09-01T10:36:26.000Z</time>
        <extensions>
          <ns3:TrackPointExtension>
            <ns3:hr>153</ns3:hr>
            <ns3:cad>0</ns3:cad>
          </ns3:TrackPointExtension>
        </extensions>
      </trkpt>
      <trkpt lat="47.4713355861604213714599609375" lon="9.9632700718939304351806640625">
        <ele>1017.4000244140625</ele>
        <time>2026-09-01T10:36:27.000Z</time>
        <extensions>
          <ns3:TrackPointExtension>
            <ns3:hr>153</ns3:hr>
            <ns3:cad>0</ns3:cad>
          </ns3:TrackPointExtension>
        </extensions>
      </trkpt>
      <trkpt lat="47.47130893170833587646484375" lon="9.96321466751396656036376953125">
        <ele>1016.20001220703125</ele>
        <time>2026-09-01T10:36:29.000Z</time>
        <extensions>
          <ns3:TrackPointExtension>
            <ns3:hr>153</ns3:hr>
            <ns3:cad>0</ns3:cad>
          </ns3:TrackPointExtension>
        </extensions>
      </trkpt>
      <trkpt lat="47.47127096168696880340576171875" lon="9.96316370554268360137939453125">
        <ele>1014.79998779296875</ele>
        <time>2026-09-01T10:36:31.000Z</time>
        <extensions>
          <ns3:TrackPointExtension>
            <ns3:hr>153</ns3:hr>
            <ns3:cad>0</ns3:cad>
          </ns3:TrackPointExtension>
        </extensions>
      </trkpt>
      <trkpt lat="47.471248246729373931884765625" lon="9.96313939802348613739013671875">
        <ele>1013.4000244140625</ele>
        <time>2026-09-01T10:36:33.000Z</time>
        <extensions>
          <ns3:TrackPointExtension>
            <ns3:hr>154</ns3:hr>
            <ns3:cad>0</ns3:cad>
          </ns3:TrackPointExtension>
        </extensions>
      </trkpt>
      <trkpt lat="47.47121396474540233612060546875" lon="9.96309497393667697906494140625">
        <ele>1012</ele>
        <time>2026-09-01T10:36:35.000Z</time>
        <extensions>
          <ns3:TrackPointExtension>
            <ns3:hr>154</ns3:hr>
            <ns3:cad>86</ns3:cad>
          </ns3:TrackPointExtension>
        </extensions>
      </trkpt>
      <trkpt lat="47.47119669802486896514892578125" lon="9.9630725942552089691162109375">
        <ele>1011.20001220703125</ele>
        <time>2026-09-01T10:36:36.000Z</time>
        <extensions>
          <ns3:TrackPointExtension>
            <ns3:hr>154</ns3:hr>
            <ns3:cad>86</ns3:cad>
          </ns3:TrackPointExtension>
        </extensions>
      </trkpt>
      <trkpt lat="47.471185885369777679443359375" lon="9.96304652653634548187255859375">
        <ele>1010.4000244140625</ele>
        <time>2026-09-01T10:36:37.000Z</time>
        <extensions>
          <ns3:TrackPointExtension>
            <ns3:hr>154</ns3:hr>
            <ns3:cad>86</ns3:cad>
          </ns3:TrackPointExtension>
        </extensions>
      </trkpt>
      <trkpt lat="47.471167780458927154541015625" lon="9.96300838887691497802734375">
        <ele>1008.4000244140625</ele>
        <time>2026-09-01T10:36:39.000Z</time>
        <extensions>
          <ns3:TrackPointExtension>
            <ns3:hr>154</ns3:hr>
            <ns3:cad>86</ns3:cad>
          </ns3:TrackPointExtension>
        </extensions>
      </trkpt>
      <trkpt lat="47.47115336358547210693359375" lon="9.96297142468392848968505859375">
        <ele>1006.79998779296875</ele>
        <time>2026-09-01T10:36:41.000Z</time>
        <extensions>
          <ns3:TrackPointExtension>
            <ns3:hr>154</ns3:hr>
            <ns3:cad>86</ns3:cad>
          </ns3:TrackPointExtension>
        </extensions>
      </trkpt>
      <trkpt lat="47.47114598751068115234375" lon="9.96291023679077625274658203125">
        <ele>1005</ele>
        <time>2026-09-01T10:36:43.000Z</time>
        <extensions>
          <ns3:TrackPointExtension>
            <ns3:hr>154</ns3:hr>
            <ns3:cad>86</ns3:cad>
          </ns3:TrackPointExtension>
        </extensions>
      </trkpt>
      <trkpt lat="47.4711392819881439208984375" lon="9.96285256929695606231689453125">
        <ele>1003.4000244140625</ele>
        <time>2026-09-01T10:36:45.000Z</time>
        <extensions>
          <ns3:TrackPointExtension>
            <ns3:hr>155</ns3:hr>
            <ns3:cad>86</ns3:cad>
          </ns3:TrackPointExtension>
        </extensions>
      </trkpt>
      <trkpt lat="47.471124194562435150146484375" lon="9.9628023616969585418701171875">
        <ele>1001.5999755859375</ele>
        <time>2026-09-01T10:36:47.000Z</time>
        <extensions>
          <ns3:TrackPointExtension>
            <ns3:hr>156</ns3:hr>
            <ns3:cad>95</ns3:cad>
          </ns3:TrackPointExtension>
        </extensions>
      </trkpt>
      <trkpt lat="47.47111673466861248016357421875" lon="9.96273153461515903472900390625">
        <ele>1000</ele>
        <time>2026-09-01T10:36:49.000Z</time>
        <extensions>
          <ns3:TrackPointExtension>
            <ns3:hr>157</ns3:hr>
            <ns3:cad>95</ns3:cad>
          </ns3:TrackPointExtension>
        </extensions>
      </trkpt>
      <trkpt lat="47.47110097669064998626708984375" lon="9.96270119212567806243896484375">
        <ele>999</ele>
        <time>2026-09-01T10:36:50.000Z</time>
        <extensions>
          <ns3:TrackPointExtension>
            <ns3:hr>157</ns3:hr>
            <ns3:cad>100</ns3:cad>
          </ns3:TrackPointExtension>
        </extensions>
      </trkpt>
      <trkpt lat="47.4710847996175289154052734375" lon="9.96267956681549549102783203125">
        <ele>998.20001220703125</ele>
        <time>2026-09-01T10:36:51.000Z</time>
        <extensions>
          <ns3:TrackPointExtension>
            <ns3:hr>156</ns3:hr>
            <ns3:cad>100</ns3:cad>
          </ns3:TrackPointExtension>
        </extensions>
      </trkpt>
      <trkpt lat="47.4710552953183650970458984375" lon="9.962616451084613800048828125">
        <ele>996.79998779296875</ele>
        <time>2026-09-01T10:36:53.000Z</time>
        <extensions>
          <ns3:TrackPointExtension>
            <ns3:hr>156</ns3:hr>
            <ns3:cad>100</ns3:cad>
          </ns3:TrackPointExtension>
        </extensions>
      </trkpt>
      <trkpt lat="47.47103543020784854888916015625" lon="9.9625331349670886993408203125">
        <ele>995.20001220703125</ele>
        <time>2026-09-01T10:36:55.000Z</time>
        <extensions>
          <ns3:TrackPointExtension>
            <ns3:hr>156</ns3:hr>
            <ns3:cad>100</ns3:cad>
          </ns3:TrackPointExtension>
        </extensions>
      </trkpt>
      <trkpt lat="47.4710261262953281402587890625" lon="9.9624825082719326019287109375">
        <ele>993.5999755859375</ele>
        <time>2026-09-01T10:36:57.000Z</time>
        <extensions>
          <ns3:TrackPointExtension>
            <ns3:hr>157</ns3:hr>
            <ns3:cad>51</ns3:cad>
          </ns3:TrackPointExtension>
        </extensions>
      </trkpt>
      <trkpt lat="47.4710093624889850616455078125" lon="9.9624355696141719818115234375">
        <ele>991.79998779296875</ele>
        <time>2026-09-01T10:36:59.000Z</time>
        <extensions>
          <ns3:TrackPointExtension>
            <ns3:hr>157</ns3:hr>
            <ns3:cad>51</ns3:cad>
          </ns3:TrackPointExtension>
        </extensions>
      </trkpt>
      <trkpt lat="47.4709848873317241668701171875" lon="9.96238385327160358428955078125">
        <ele>990</ele>
        <time>2026-09-01T10:37:01.000Z</time>
        <extensions>
          <ns3:TrackPointExtension>
            <ns3:hr>157</ns3:hr>
            <ns3:cad>51</ns3:cad>
          </ns3:TrackPointExtension>
        </extensions>
      </trkpt>
      <trkpt lat="47.47097239829599857330322265625" lon="9.962355606257915496826171875">
        <ele>988.79998779296875</ele>
        <time>2026-09-01T10:37:02.000Z</time>
        <extensions>
          <ns3:TrackPointExtension>
            <ns3:hr>157</ns3:hr>
            <ns3:cad>51</ns3:cad>
          </ns3:TrackPointExtension>
        </extensions>
      </trkpt>
      <trkpt lat="47.470958232879638671875" lon="9.96233071200549602508544921875">
        <ele>987.79998779296875</ele>
        <time>2026-09-01T10:37:03.000Z</time>
        <extensions>
          <ns3:TrackPointExtension>
            <ns3:hr>156</ns3:hr>
            <ns3:cad>51</ns3:cad>
          </ns3:TrackPointExtension>
        </extensions>
      </trkpt>
      <trkpt lat="47.470947839319705963134765625" lon="9.96229701675474643707275390625">
        <ele>986.79998779296875</ele>
        <time>2026-09-01T10:37:04.000Z</time>
        <extensions>
          <ns3:TrackPointExtension>
            <ns3:hr>157</ns3:hr>
            <ns3:cad>51</ns3:cad>
          </ns3:TrackPointExtension>
        </extensions>
      </trkpt>
      <trkpt lat="47.4709268845617771148681640625" lon="9.96223457157611846923828125">
        <ele>985</ele>
        <time>2026-09-01T10:37:06.000Z</time>
        <extensions>
          <ns3:TrackPointExtension>
            <ns3:hr>157</ns3:hr>
            <ns3:cad>51</ns3:cad>
          </ns3:TrackPointExtension>
        </extensions>
      </trkpt>
      <trkpt lat="47.47091121040284633636474609375" lon="9.96220716275274753570556640625">
        <ele>983.5999755859375</ele>
        <time>2026-09-01T10:37:07.000Z</time>
        <extensions>
          <ns3:TrackPointExtension>
            <ns3:hr>157</ns3:hr>
            <ns3:cad>51</ns3:cad>
          </ns3:TrackPointExtension>
        </extensions>
      </trkpt>
      <trkpt lat="47.47088111937046051025390625" lon="9.9621529318392276763916015625">
        <ele>982.5999755859375</ele>
        <time>2026-09-01T10:37:09.000Z</time>
        <extensions>
          <ns3:TrackPointExtension>
            <ns3:hr>158</ns3:hr>
            <ns3:cad>0</ns3:cad>
          </ns3:TrackPointExtension>
        </extensions>
      </trkpt>
      <trkpt lat="47.47085656039416790008544921875" lon="9.9620989523828029632568359375">
        <ele>980.79998779296875</ele>
        <time>2026-09-01T10:37:11.000Z</time>
        <extensions>
          <ns3:TrackPointExtension>
            <ns3:hr>158</ns3:hr>
            <ns3:cad>0</ns3:cad>
          </ns3:TrackPointExtension>
        </extensions>
      </trkpt>
      <trkpt lat="47.47084700502455234527587890625" lon="9.962078668177127838134765625">
        <ele>979.79998779296875</ele>
        <time>2026-09-01T10:37:12.000Z</time>
        <extensions>
          <ns3:TrackPointExtension>
            <ns3:hr>158</ns3:hr>
            <ns3:cad>0</ns3:cad>
          </ns3:TrackPointExtension>
        </extensions>
      </trkpt>
      <trkpt lat="47.470815740525722503662109375" lon="9.96204270981252193450927734375">
        <ele>978</ele>
        <time>2026-09-01T10:37:14.000Z</time>
        <extensions>
          <ns3:TrackPointExtension>
            <ns3:hr>158</ns3:hr>
            <ns3:cad>0</ns3:cad>
          </ns3:TrackPointExtension>
        </extensions>
      </trkpt>
      <trkpt lat="47.470778524875640869140625" lon="9.96201169677078723907470703125">
        <ele>976.20001220703125</ele>
        <time>2026-09-01T10:37:16.000Z</time>
        <extensions>
          <ns3:TrackPointExtension>
            <ns3:hr>158</ns3:hr>
            <ns3:cad>0</ns3:cad>
          </ns3:TrackPointExtension>
        </extensions>
      </trkpt>
      <trkpt lat="47.4707508645951747894287109375" lon="9.9619514308869838714599609375">
        <ele>974.4000244140625</ele>
        <time>2026-09-01T10:37:18.000Z</time>
        <extensions>
          <ns3:TrackPointExtension>
            <ns3:hr>159</ns3:hr>
            <ns3:cad>0</ns3:cad>
          </ns3:TrackPointExtension>
        </extensions>
      </trkpt>
      <trkpt lat="47.47073829174041748046875" lon="9.96191865764558315277099609375">
        <ele>973.4000244140625</ele>
        <time>2026-09-01T10:37:19.000Z</time>
        <extensions>
          <ns3:TrackPointExtension>
            <ns3:hr>159</ns3:hr>
            <ns3:cad>0</ns3:cad>
          </ns3:TrackPointExtension>
        </extensions>
      </trkpt>
      <trkpt lat="47.47072982601821422576904296875" lon="9.9618867225944995880126953125">
        <ele>972.4000244140625</ele>
        <time>2026-09-01T10:37:20.000Z</time>
        <extensions>
          <ns3:TrackPointExtension>
            <ns3:hr>159</ns3:hr>
            <ns3:cad>0</ns3:cad>
          </ns3:TrackPointExtension>
        </extensions>
      </trkpt>
      <trkpt lat="47.4707052670419216156005859375" lon="9.96181991882622241973876953125">
        <ele>970.79998779296875</ele>
        <time>2026-09-01T10:37:22.000Z</time>
        <extensions>
          <ns3:TrackPointExtension>
            <ns3:hr>159</ns3:hr>
            <ns3:cad>0</ns3:cad>
          </ns3:TrackPointExtension>
        </extensions>
      </trkpt>
      <trkpt lat="47.470656819641590118408203125" lon="9.96174464933574199676513671875">
        <ele>968.79998779296875</ele>
        <time>2026-09-01T10:37:24.000Z</time>
        <extensions>
          <ns3:TrackPointExtension>
            <ns3:hr>159</ns3:hr>
            <ns3:cad>0</ns3:cad>
          </ns3:TrackPointExtension>
        </extensions>
      </trkpt>
      <trkpt lat="47.4706321768462657928466796875" lon="9.96170927770435810089111328125">
        <ele>967.79998779296875</ele>
        <time>2026-09-01T10:37:25.000Z</time>
        <extensions>
          <ns3:TrackPointExtension>
            <ns3:hr>159</ns3:hr>
            <ns3:cad>107</ns3:cad>
          </ns3:TrackPointExtension>
        </extensions>
      </trkpt>
      <trkpt lat="47.4706144072115421295166015625" lon="9.9616697989404201507568359375">
        <ele>966.79998779296875</ele>
        <time>2026-09-01T10:37:26.000Z</time>
        <extensions>
          <ns3:TrackPointExtension>
            <ns3:hr>159</ns3:hr>
            <ns3:cad>107</ns3:cad>
          </ns3:TrackPointExtension>
        </extensions>
      </trkpt>
      <trkpt lat="47.470581717789173126220703125" lon="9.961600564420223236083984375">
        <ele>965</ele>
        <time>2026-09-01T10:37:28.000Z</time>
        <extensions>
          <ns3:TrackPointExtension>
            <ns3:hr>159</ns3:hr>
            <ns3:cad>96</ns3:cad>
          </ns3:TrackPointExtension>
        </extensions>
      </trkpt>
      <trkpt lat="47.4705550633370876312255859375" lon="9.9615403823554515838623046875">
        <ele>963.5999755859375</ele>
        <time>2026-09-01T10:37:30.000Z</time>
        <extensions>
          <ns3:TrackPointExtension>
            <ns3:hr>159</ns3:hr>
            <ns3:cad>96</ns3:cad>
          </ns3:TrackPointExtension>
        </extensions>
      </trkpt>
      <trkpt lat="47.470506615936756134033203125" lon="9.961471147835254669189453125">
        <ele>961.79998779296875</ele>
        <time>2026-09-01T10:37:32.000Z</time>
        <extensions>
          <ns3:TrackPointExtension>
            <ns3:hr>159</ns3:hr>
            <ns3:cad>96</ns3:cad>
          </ns3:TrackPointExtension>
        </extensions>
      </trkpt>
      <trkpt lat="47.47047937475144863128662109375" lon="9.9614005722105503082275390625">
        <ele>960</ele>
        <time>2026-09-01T10:37:34.000Z</time>
        <extensions>
          <ns3:TrackPointExtension>
            <ns3:hr>160</ns3:hr>
            <ns3:cad>100</ns3:cad>
          </ns3:TrackPointExtension>
        </extensions>
      </trkpt>
      <trkpt lat="47.470451630651950836181640625" lon="9.96131365187466144561767578125">
        <ele>958.20001220703125</ele>
        <time>2026-09-01T10:37:36.000Z</time>
        <extensions>
          <ns3:TrackPointExtension>
            <ns3:hr>160</ns3:hr>
            <ns3:cad>101</ns3:cad>
          </ns3:TrackPointExtension>
        </extensions>
      </trkpt>
      <trkpt lat="47.470425479114055633544921875" lon="9.961249530315399169921875">
        <ele>956.5999755859375</ele>
        <time>2026-09-01T10:37:38.000Z</time>
        <extensions>
          <ns3:TrackPointExtension>
            <ns3:hr>160</ns3:hr>
            <ns3:cad>101</ns3:cad>
          </ns3:TrackPointExtension>
        </extensions>
      </trkpt>
      <trkpt lat="47.47041173279285430908203125" lon="9.96121809817850589752197265625">
        <ele>955.79998779296875</ele>
        <time>2026-09-01T10:37:39.000Z</time>
        <extensions>
          <ns3:TrackPointExtension>
            <ns3:hr>160</ns3:hr>
            <ns3:cad>99</ns3:cad>
          </ns3:TrackPointExtension>
        </extensions>
      </trkpt>
      <trkpt lat="47.4704058654606342315673828125" lon="9.96119395829737186431884765625">
        <ele>955</ele>
        <time>2026-09-01T10:37:40.000Z</time>
        <extensions>
          <ns3:TrackPointExtension>
            <ns3:hr>160</ns3:hr>
            <ns3:cad>98</ns3:cad>
          </ns3:TrackPointExtension>
        </extensions>
      </trkpt>
      <trkpt lat="47.47038834728300571441650390625" lon="9.961125142872333526611328125">
        <ele>953.4000244140625</ele>
        <time>2026-09-01T10:37:42.000Z</time>
        <extensions>
          <ns3:TrackPointExtension>
            <ns3:hr>159</ns3:hr>
            <ns3:cad>97</ns3:cad>
          </ns3:TrackPointExtension>
        </extensions>
      </trkpt>
      <trkpt lat="47.47034710831940174102783203125" lon="9.96108717285096645355224609375">
        <ele>951.5999755859375</ele>
        <time>2026-09-01T10:37:44.000Z</time>
        <extensions>
          <ns3:TrackPointExtension>
            <ns3:hr>158</ns3:hr>
            <ns3:cad>97</ns3:cad>
          </ns3:TrackPointExtension>
        </extensions>
      </trkpt>
      <trkpt lat="47.47031944803893566131591796875" lon="9.9610282480716705322265625">
        <ele>949.5999755859375</ele>
        <time>2026-09-01T10:37:46.000Z</time>
        <extensions>
          <ns3:TrackPointExtension>
            <ns3:hr>157</ns3:hr>
            <ns3:cad>97</ns3:cad>
          </ns3:TrackPointExtension>
        </extensions>
      </trkpt>
      <trkpt lat="47.4702890217304229736328125" lon="9.9609477818012237548828125">
        <ele>947.5999755859375</ele>
        <time>2026-09-01T10:37:48.000Z</time>
        <extensions>
          <ns3:TrackPointExtension>
            <ns3:hr>157</ns3:hr>
            <ns3:cad>97</ns3:cad>
          </ns3:TrackPointExtension>
        </extensions>
      </trkpt>
      <trkpt lat="47.47027016244828701019287109375" lon="9.9608614481985569000244140625">
        <ele>945.79998779296875</ele>
        <time>2026-09-01T10:37:50.000Z</time>
        <extensions>
          <ns3:TrackPointExtension>
            <ns3:hr>158</ns3:hr>
            <ns3:cad>100</ns3:cad>
          </ns3:TrackPointExtension>
        </extensions>
      </trkpt>
      <trkpt lat="47.47025876305997371673583984375" lon="9.96077385731041431427001953125">
        <ele>944</ele>
        <time>2026-09-01T10:37:52.000Z</time>
        <extensions>
          <ns3:TrackPointExtension>
            <ns3:hr>158</ns3:hr>
            <ns3:cad>100</ns3:cad>
          </ns3:TrackPointExtension>
        </extensions>
      </trkpt>
      <trkpt lat="47.4702479504048824310302734375" lon="9.96074167080223560333251953125">
        <ele>943.20001220703125</ele>
        <time>2026-09-01T10:37:53.000Z</time>
        <extensions>
          <ns3:TrackPointExtension>
            <ns3:hr>159</ns3:hr>
            <ns3:cad>100</ns3:cad>
          </ns3:TrackPointExtension>
        </extensions>
      </trkpt>
      <trkpt lat="47.470228672027587890625" lon="9.96071049012243747711181640625">
        <ele>942.20001220703125</ele>
        <time>2026-09-01T10:37:54.000Z</time>
        <extensions>
          <ns3:TrackPointExtension>
            <ns3:hr>159</ns3:hr>
            <ns3:cad>100</ns3:cad>
          </ns3:TrackPointExtension>
        </extensions>
      </trkpt>
      <trkpt lat="47.47019640170037746429443359375" lon="9.96063890866935253143310546875">
        <ele>940.5999755859375</ele>
        <time>2026-09-01T10:37:56.000Z</time>
        <extensions>
          <ns3:TrackPointExtension>
            <ns3:hr>159</ns3:hr>
            <ns3:cad>100</ns3:cad>
          </ns3:TrackPointExtension>
        </extensions>
      </trkpt>
      <trkpt lat="47.47014627791941165924072265625" lon="9.96055441908538341522216796875">
        <ele>939.4000244140625</ele>
        <time>2026-09-01T10:37:58.000Z</time>
        <extensions>
          <ns3:TrackPointExtension>
            <ns3:hr>157</ns3:hr>
            <ns3:cad>97</ns3:cad>
          </ns3:TrackPointExtension>
        </extensions>
      </trkpt>
      <trkpt lat="47.470102608203887939453125" lon="9.96048904024064540863037109375">
        <ele>937.79998779296875</ele>
        <time>2026-09-01T10:38:00.000Z</time>
        <extensions>
          <ns3:TrackPointExtension>
            <ns3:hr>155</ns3:hr>
            <ns3:cad>97</ns3:cad>
          </ns3:TrackPointExtension>
        </extensions>
      </trkpt>
      <trkpt lat="47.47008316218852996826171875" lon="9.96046691201627254486083984375">
        <ele>936.79998779296875</ele>
        <time>2026-09-01T10:38:01.000Z</time>
        <extensions>
          <ns3:TrackPointExtension>
            <ns3:hr>155</ns3:hr>
            <ns3:cad>89</ns3:cad>
          </ns3:TrackPointExtension>
        </extensions>
      </trkpt>
      <trkpt lat="47.47004787437617778778076171875" lon="9.9604306183755397796630859375">
        <ele>936.20001220703125</ele>
        <time>2026-09-01T10:38:02.000Z</time>
        <extensions>
          <ns3:TrackPointExtension>
            <ns3:hr>155</ns3:hr>
            <ns3:cad>89</ns3:cad>
          </ns3:TrackPointExtension>
        </extensions>
      </trkpt>
      <trkpt lat="47.47000806033611297607421875" lon="9.960358701646327972412109375">
        <ele>934.5999755859375</ele>
        <time>2026-09-01T10:38:04.000Z</time>
        <extensions>
          <ns3:TrackPointExtension>
            <ns3:hr>156</ns3:hr>
            <ns3:cad>85</ns3:cad>
          </ns3:TrackPointExtension>
        </extensions>
      </trkpt>
      <trkpt lat="47.4699591100215911865234375" lon="9.960308410227298736572265625">
        <ele>933</ele>
        <time>2026-09-01T10:38:06.000Z</time>
        <extensions>
          <ns3:TrackPointExtension>
            <ns3:hr>156</ns3:hr>
            <ns3:cad>90</ns3:cad>
          </ns3:TrackPointExtension>
        </extensions>
      </trkpt>
      <trkpt lat="47.469895742833614349365234375" lon="9.96025116182863712310791015625">
        <ele>931.20001220703125</ele>
        <time>2026-09-01T10:38:08.000Z</time>
        <extensions>
          <ns3:TrackPointExtension>
            <ns3:hr>156</ns3:hr>
            <ns3:cad>88</ns3:cad>
          </ns3:TrackPointExtension>
        </extensions>
      </trkpt>
      <trkpt lat="47.4698464572429656982421875" lon="9.9601831845939159393310546875">
        <ele>929.5999755859375</ele>
        <time>2026-09-01T10:38:10.000Z</time>
        <extensions>
          <ns3:TrackPointExtension>
            <ns3:hr>156</ns3:hr>
            <ns3:cad>88</ns3:cad>
          </ns3:TrackPointExtension>
        </extensions>
      </trkpt>
      <trkpt lat="47.469799518585205078125" lon="9.960100539028644561767578125">
        <ele>928</ele>
        <time>2026-09-01T10:38:12.000Z</time>
        <extensions>
          <ns3:TrackPointExtension>
            <ns3:hr>156</ns3:hr>
            <ns3:cad>89</ns3:cad>
          </ns3:TrackPointExtension>
        </extensions>
      </trkpt>
      <trkpt lat="47.46977143920958042144775390625" lon="9.96002568863332271575927734375">
        <ele>926.79998779296875</ele>
        <time>2026-09-01T10:38:14.000Z</time>
        <extensions>
          <ns3:TrackPointExtension>
            <ns3:hr>157</ns3:hr>
            <ns3:cad>89</ns3:cad>
          </ns3:TrackPointExtension>
        </extensions>
      </trkpt>
      <trkpt lat="47.4697406776249408721923828125" lon="9.95995025150477886199951171875">
        <ele>925.4000244140625</ele>
        <time>2026-09-01T10:38:16.000Z</time>
        <extensions>
          <ns3:TrackPointExtension>
            <ns3:hr>157</ns3:hr>
            <ns3:cad>88</ns3:cad>
          </ns3:TrackPointExtension>
        </extensions>
      </trkpt>
      <trkpt lat="47.469715364277362823486328125" lon="9.9599189870059490203857421875">
        <ele>924.79998779296875</ele>
        <time>2026-09-01T10:38:17.000Z</time>
        <extensions>
          <ns3:TrackPointExtension>
            <ns3:hr>158</ns3:hr>
            <ns3:cad>88</ns3:cad>
          </ns3:TrackPointExtension>
        </extensions>
      </trkpt>
      <trkpt lat="47.46969734318554401397705078125" lon="9.959881938993930816650390625">
        <ele>924</ele>
        <time>2026-09-01T10:38:18.000Z</time>
        <extensions>
          <ns3:TrackPointExtension>
            <ns3:hr>158</ns3:hr>
            <ns3:cad>86</ns3:cad>
          </ns3:TrackPointExtension>
        </extensions>
      </trkpt>
      <trkpt lat="47.46965794824063777923583984375" lon="9.95981731452047824859619140625">
        <ele>922.20001220703125</ele>
        <time>2026-09-01T10:38:20.000Z</time>
        <extensions>
          <ns3:TrackPointExtension>
            <ns3:hr>159</ns3:hr>
            <ns3:cad>86</ns3:cad>
          </ns3:TrackPointExtension>
        </extensions>
      </trkpt>
      <trkpt lat="47.4696384184062480926513671875" lon="9.959788061678409576416015625">
        <ele>921.4000244140625</ele>
        <time>2026-09-01T10:38:21.000Z</time>
        <extensions>
          <ns3:TrackPointExtension>
            <ns3:hr>159</ns3:hr>
            <ns3:cad>86</ns3:cad>
          </ns3:TrackPointExtension>
        </extensions>
      </trkpt>
      <trkpt lat="47.46962048113346099853515625" lon="9.95975830592215061187744140625">
        <ele>920.5999755859375</ele>
        <time>2026-09-01T10:38:22.000Z</time>
        <extensions>
          <ns3:TrackPointExtension>
            <ns3:hr>159</ns3:hr>
            <ns3:cad>88</ns3:cad>
          </ns3:TrackPointExtension>
        </extensions>
      </trkpt>
      <trkpt lat="47.46957932598888874053955078125" lon="9.95969745330512523651123046875">
        <ele>919</ele>
        <time>2026-09-01T10:38:24.000Z</time>
        <extensions>
          <ns3:TrackPointExtension>
            <ns3:hr>159</ns3:hr>
            <ns3:cad>100</ns3:cad>
          </ns3:TrackPointExtension>
        </extensions>
      </trkpt>
      <trkpt lat="47.46955820359289646148681640625" lon="9.95966761372983455657958984375">
        <ele>917.79998779296875</ele>
        <time>2026-09-01T10:38:25.000Z</time>
        <extensions>
          <ns3:TrackPointExtension>
            <ns3:hr>158</ns3:hr>
            <ns3:cad>100</ns3:cad>
          </ns3:TrackPointExtension>
        </extensions>
      </trkpt>
      <trkpt lat="47.46953808702528476715087890625" lon="9.959638528525829315185546875">
        <ele>916.5999755859375</ele>
        <time>2026-09-01T10:38:26.000Z</time>
        <extensions>
          <ns3:TrackPointExtension>
            <ns3:hr>158</ns3:hr>
            <ns3:cad>100</ns3:cad>
          </ns3:TrackPointExtension>
        </extensions>
      </trkpt>
      <trkpt lat="47.4695167131721973419189453125" lon="9.95960994623601436614990234375">
        <ele>915.5999755859375</ele>
        <time>2026-09-01T10:38:27.000Z</time>
        <extensions>
          <ns3:TrackPointExtension>
            <ns3:hr>159</ns3:hr>
            <ns3:cad>100</ns3:cad>
          </ns3:TrackPointExtension>
        </extensions>
      </trkpt>
      <trkpt lat="47.46949316002428531646728515625" lon="9.95957390405237674713134765625">
        <ele>914.20001220703125</ele>
        <time>2026-09-01T10:38:28.000Z</time>
        <extensions>
          <ns3:TrackPointExtension>
            <ns3:hr>159</ns3:hr>
            <ns3:cad>100</ns3:cad>
          </ns3:TrackPointExtension>
        </extensions>
      </trkpt>
      <trkpt lat="47.46944479644298553466796875" lon="9.9595106206834316253662109375">
        <ele>912</ele>
        <time>2026-09-01T10:38:30.000Z</time>
        <extensions>
          <ns3:TrackPointExtension>
            <ns3:hr>160</ns3:hr>
            <ns3:cad>100</ns3:cad>
          </ns3:TrackPointExtension>
        </extensions>
      </trkpt>
      <trkpt lat="47.46941931545734405517578125" lon="9.95948304422199726104736328125">
        <ele>910.5999755859375</ele>
        <time>2026-09-01T10:38:31.000Z</time>
        <extensions>
          <ns3:TrackPointExtension>
            <ns3:hr>160</ns3:hr>
            <ns3:cad>100</ns3:cad>
          </ns3:TrackPointExtension>
        </extensions>
      </trkpt>
      <trkpt lat="47.4693919904530048370361328125" lon="9.95944431982934474945068359375">
        <ele>909.4000244140625</ele>
        <time>2026-09-01T10:38:32.000Z</time>
        <extensions>
          <ns3:TrackPointExtension>
            <ns3:hr>160</ns3:hr>
            <ns3:cad>100</ns3:cad>
          </ns3:TrackPointExtension>
        </extensions>
      </trkpt>
      <trkpt lat="47.469370029866695404052734375" lon="9.95942587964236736297607421875">
        <ele>908.20001220703125</ele>
        <time>2026-09-01T10:38:33.000Z</time>
        <extensions>
          <ns3:TrackPointExtension>
            <ns3:hr>160</ns3:hr>
            <ns3:cad>109</ns3:cad>
          </ns3:TrackPointExtension>
        </extensions>
      </trkpt>
      <trkpt lat="47.4693316407501697540283203125" lon="9.959421269595623016357421875">
        <ele>907</ele>
        <time>2026-09-01T10:38:34.000Z</time>
        <extensions>
          <ns3:TrackPointExtension>
            <ns3:hr>160</ns3:hr>
            <ns3:cad>109</ns3:cad>
          </ns3:TrackPointExtension>
        </extensions>
      </trkpt>
      <trkpt lat="47.469301633536815643310546875" lon="9.95941800065338611602783203125">
        <ele>905.79998779296875</ele>
        <time>2026-09-01T10:38:35.000Z</time>
        <extensions>
          <ns3:TrackPointExtension>
            <ns3:hr>160</ns3:hr>
            <ns3:cad>109</ns3:cad>
          </ns3:TrackPointExtension>
        </extensions>
      </trkpt>
      <trkpt lat="47.469272799789905548095703125" lon="9.95943560265004634857177734375">
        <ele>904.5999755859375</ele>
        <time>2026-09-01T10:38:36.000Z</time>
        <extensions>
          <ns3:TrackPointExtension>
            <ns3:hr>159</ns3:hr>
            <ns3:cad>109</ns3:cad>
          </ns3:TrackPointExtension>
        </extensions>
      </trkpt>
      <trkpt lat="47.46924228966236114501953125" lon="9.9594656936824321746826171875">
        <ele>903.5999755859375</ele>
        <time>2026-09-01T10:38:37.000Z</time>
        <extensions>
          <ns3:TrackPointExtension>
            <ns3:hr>160</ns3:hr>
            <ns3:cad>109</ns3:cad>
          </ns3:TrackPointExtension>
        </extensions>
      </trkpt>
      <trkpt lat="47.4692253582179546356201171875" lon="9.9595019035041332244873046875">
        <ele>902.5999755859375</ele>
        <time>2026-09-01T10:38:38.000Z</time>
        <extensions>
          <ns3:TrackPointExtension>
            <ns3:hr>160</ns3:hr>
            <ns3:cad>109</ns3:cad>
          </ns3:TrackPointExtension>
        </extensions>
      </trkpt>
      <trkpt lat="47.46918571181595325469970703125" lon="9.9595994688570499420166015625">
        <ele>900.79998779296875</ele>
        <time>2026-09-01T10:38:40.000Z</time>
        <extensions>
          <ns3:TrackPointExtension>
            <ns3:hr>159</ns3:hr>
            <ns3:cad>109</ns3:cad>
          </ns3:TrackPointExtension>
        </extensions>
      </trkpt>
      <trkpt lat="47.46916878037154674530029296875" lon="9.95963509194552898406982421875">
        <ele>898.79998779296875</ele>
        <time>2026-09-01T10:38:42.000Z</time>
        <extensions>
          <ns3:TrackPointExtension>
            <ns3:hr>159</ns3:hr>
            <ns3:cad>109</ns3:cad>
          </ns3:TrackPointExtension>
        </extensions>
      </trkpt>
      <trkpt lat="47.4690905772149562835693359375" lon="9.9597667716443538665771484375">
        <ele>897</ele>
        <time>2026-09-01T10:38:44.000Z</time>
        <extensions>
          <ns3:TrackPointExtension>
            <ns3:hr>159</ns3:hr>
            <ns3:cad>90</ns3:cad>
          </ns3:TrackPointExtension>
        </extensions>
      </trkpt>
      <trkpt lat="47.469065599143505096435546875" lon="9.95978076942265033721923828125">
        <ele>896.20001220703125</ele>
        <time>2026-09-01T10:38:45.000Z</time>
        <extensions>
          <ns3:TrackPointExtension>
            <ns3:hr>160</ns3:hr>
            <ns3:cad>90</ns3:cad>
          </ns3:TrackPointExtension>
        </extensions>
      </trkpt>
      <trkpt lat="47.4690312333405017852783203125" lon="9.95980055071413516998291015625">
        <ele>895</ele>
        <time>2026-09-01T10:38:46.000Z</time>
        <extensions>
          <ns3:TrackPointExtension>
            <ns3:hr>160</ns3:hr>
            <ns3:cad>90</ns3:cad>
          </ns3:TrackPointExtension>
        </extensions>
      </trkpt>
      <trkpt lat="47.4689765833318233489990234375" lon="9.95980541221797466278076171875">
        <ele>893</ele>
        <time>2026-09-01T10:38:48.000Z</time>
        <extensions>
          <ns3:TrackPointExtension>
            <ns3:hr>159</ns3:hr>
            <ns3:cad>90</ns3:cad>
          </ns3:TrackPointExtension>
        </extensions>
      </trkpt>
      <trkpt lat="47.46894800104200839996337890625" lon="9.9597902409732341766357421875">
        <ele>891.79998779296875</ele>
        <time>2026-09-01T10:38:49.000Z</time>
        <extensions>
          <ns3:TrackPointExtension>
            <ns3:hr>159</ns3:hr>
            <ns3:cad>90</ns3:cad>
          </ns3:TrackPointExtension>
        </extensions>
      </trkpt>
      <trkpt lat="47.4689286388456821441650390625" lon="9.95976953767240047454833984375">
        <ele>890.79998779296875</ele>
        <time>2026-09-01T10:38:50.000Z</time>
        <extensions>
          <ns3:TrackPointExtension>
            <ns3:hr>159</ns3:hr>
            <ns3:cad>90</ns3:cad>
          </ns3:TrackPointExtension>
        </extensions>
      </trkpt>
      <trkpt lat="47.46891279704868793487548828125" lon="9.95972628705203533172607421875">
        <ele>889.5999755859375</ele>
        <time>2026-09-01T10:38:51.000Z</time>
        <extensions>
          <ns3:TrackPointExtension>
            <ns3:hr>159</ns3:hr>
            <ns3:cad>90</ns3:cad>
          </ns3:TrackPointExtension>
        </extensions>
      </trkpt>
      <trkpt lat="47.4688944406807422637939453125" lon="9.95963576249778270721435546875">
        <ele>887.5999755859375</ele>
        <time>2026-09-01T10:38:53.000Z</time>
        <extensions>
          <ns3:TrackPointExtension>
            <ns3:hr>158</ns3:hr>
            <ns3:cad>90</ns3:cad>
          </ns3:TrackPointExtension>
        </extensions>
      </trkpt>
      <trkpt lat="47.468886561691761016845703125" lon="9.9595793522894382476806640625">
        <ele>886.5999755859375</ele>
        <time>2026-09-01T10:38:54.000Z</time>
        <extensions>
          <ns3:TrackPointExtension>
            <ns3:hr>158</ns3:hr>
            <ns3:cad>90</ns3:cad>
          </ns3:TrackPointExtension>
        </extensions>
      </trkpt>
      <trkpt lat="47.46889016591012477874755859375" lon="9.959472902119159698486328125">
        <ele>885</ele>
        <time>2026-09-01T10:38:56.000Z</time>
        <extensions>
          <ns3:TrackPointExtension>
            <ns3:hr>159</ns3:hr>
            <ns3:cad>90</ns3:cad>
          </ns3:TrackPointExtension>
        </extensions>
      </trkpt>
      <trkpt lat="47.4689008109271526336669921875" lon="9.95936586521565914154052734375">
        <ele>883.5999755859375</ele>
        <time>2026-09-01T10:38:58.000Z</time>
        <extensions>
          <ns3:TrackPointExtension>
            <ns3:hr>159</ns3:hr>
            <ns3:cad>90</ns3:cad>
          </ns3:TrackPointExtension>
        </extensions>
      </trkpt>
      <trkpt lat="47.4688863940536975860595703125" lon="9.9593215249478816986083984375">
        <ele>883.4000244140625</ele>
        <time>2026-09-01T10:38:59.000Z</time>
        <extensions>
          <ns3:TrackPointExtension>
            <ns3:hr>159</ns3:hr>
            <ns3:cad>91</ns3:cad>
          </ns3:TrackPointExtension>
        </extensions>
      </trkpt>
      <trkpt lat="47.46884423308074474334716796875" lon="9.959252290427684783935546875">
        <ele>882.5999755859375</ele>
        <time>2026-09-01T10:39:01.000Z</time>
        <extensions>
          <ns3:TrackPointExtension>
            <ns3:hr>160</ns3:hr>
            <ns3:cad>91</ns3:cad>
          </ns3:TrackPointExtension>
        </extensions>
      </trkpt>
      <trkpt lat="47.46879695914685726165771484375" lon="9.9592273123562335968017578125">
        <ele>881.20001220703125</ele>
        <time>2026-09-01T10:39:03.000Z</time>
        <extensions>
          <ns3:TrackPointExtension>
            <ns3:hr>159</ns3:hr>
            <ns3:cad>91</ns3:cad>
          </ns3:TrackPointExtension>
        </extensions>
      </trkpt>
      <trkpt lat="47.46872805990278720855712890625" lon="9.95923041366040706634521484375">
        <ele>879.20001220703125</ele>
        <time>2026-09-01T10:39:05.000Z</time>
        <extensions>
          <ns3:TrackPointExtension>
            <ns3:hr>159</ns3:hr>
            <ns3:cad>91</ns3:cad>
          </ns3:TrackPointExtension>
        </extensions>
      </trkpt>
      <trkpt lat="47.46870341710746288299560546875" lon="9.95925991795957088470458984375">
        <ele>878.4000244140625</ele>
        <time>2026-09-01T10:39:06.000Z</time>
        <extensions>
          <ns3:TrackPointExtension>
            <ns3:hr>159</ns3:hr>
            <ns3:cad>91</ns3:cad>
          </ns3:TrackPointExtension>
        </extensions>
      </trkpt>
      <trkpt lat="47.46868061833083629608154296875" lon="9.95930182747542858123779296875">
        <ele>877.79998779296875</ele>
        <time>2026-09-01T10:39:07.000Z</time>
        <extensions>
          <ns3:TrackPointExtension>
            <ns3:hr>159</ns3:hr>
            <ns3:cad>91</ns3:cad>
          </ns3:TrackPointExtension>
        </extensions>
      </trkpt>
      <trkpt lat="47.4686242081224918365478515625" lon="9.95941146276891231536865234375">
        <ele>876.5999755859375</ele>
        <time>2026-09-01T10:39:10.000Z</time>
        <extensions>
          <ns3:TrackPointExtension>
            <ns3:hr>160</ns3:hr>
            <ns3:cad>91</ns3:cad>
          </ns3:TrackPointExtension>
        </extensions>
      </trkpt>
      <trkpt lat="47.468572743237018585205078125" lon="9.95946762152016162872314453125">
        <ele>875.79998779296875</ele>
        <time>2026-09-01T10:39:12.000Z</time>
        <extensions>
          <ns3:TrackPointExtension>
            <ns3:hr>160</ns3:hr>
            <ns3:cad>91</ns3:cad>
          </ns3:TrackPointExtension>
        </extensions>
      </trkpt>
      <trkpt lat="47.468541897833347320556640625" lon="9.95948723517358303070068359375">
        <ele>875</ele>
        <time>2026-09-01T10:39:13.000Z</time>
        <extensions>
          <ns3:TrackPointExtension>
            <ns3:hr>159</ns3:hr>
            <ns3:cad>91</ns3:cad>
          </ns3:TrackPointExtension>
        </extensions>
      </trkpt>
      <trkpt lat="47.46848749928176403045654296875" lon="9.9594874866306781768798828125">
        <ele>873.20001220703125</ele>
        <time>2026-09-01T10:39:15.000Z</time>
        <extensions>
          <ns3:TrackPointExtension>
            <ns3:hr>160</ns3:hr>
            <ns3:cad>91</ns3:cad>
          </ns3:TrackPointExtension>
        </extensions>
      </trkpt>
      <trkpt lat="47.4684731662273406982421875" lon="9.95947415940463542938232421875">
        <ele>872.4000244140625</ele>
        <time>2026-09-01T10:39:16.000Z</time>
        <extensions>
          <ns3:TrackPointExtension>
            <ns3:hr>159</ns3:hr>
            <ns3:cad>91</ns3:cad>
          </ns3:TrackPointExtension>
        </extensions>
      </trkpt>
      <trkpt lat="47.4684693105518817901611328125" lon="9.9594656936824321746826171875">
        <ele>871.79998779296875</ele>
        <time>2026-09-01T10:39:17.000Z</time>
        <extensions>
          <ns3:TrackPointExtension>
            <ns3:hr>160</ns3:hr>
            <ns3:cad>91</ns3:cad>
          </ns3:TrackPointExtension>
        </extensions>
      </trkpt>
      <trkpt lat="47.46847224421799182891845703125" lon="9.9594516120851039886474609375">
        <ele>871.4000244140625</ele>
        <time>2026-09-01T10:39:18.000Z</time>
        <extensions>
          <ns3:TrackPointExtension>
            <ns3:hr>160</ns3:hr>
            <ns3:cad>91</ns3:cad>
          </ns3:TrackPointExtension>
        </extensions>
      </trkpt>
      <trkpt lat="47.46846687979996204376220703125" lon="9.9593590758740901947021484375">
        <ele>871</ele>
        <time>2026-09-01T10:39:20.000Z</time>
        <extensions>
          <ns3:TrackPointExtension>
            <ns3:hr>157</ns3:hr>
            <ns3:cad>0</ns3:cad>
          </ns3:TrackPointExtension>
        </extensions>
      </trkpt>
      <trkpt lat="47.46846847236156463623046875" lon="9.95930467732250690460205078125">
        <ele>870.79998779296875</ele>
        <time>2026-09-01T10:39:21.000Z</time>
        <extensions>
          <ns3:TrackPointExtension>
            <ns3:hr>158</ns3:hr>
            <ns3:cad>91</ns3:cad>
          </ns3:TrackPointExtension>
        </extensions>
      </trkpt>
      <trkpt lat="47.468480207026004791259765625" lon="9.95914843864738941192626953125">
        <ele>869.4000244140625</ele>
        <time>2026-09-01T10:39:24.000Z</time>
        <extensions>
          <ns3:TrackPointExtension>
            <ns3:hr>158</ns3:hr>
            <ns3:cad>83</ns3:cad>
          </ns3:TrackPointExtension>
        </extensions>
      </trkpt>
      <trkpt lat="47.46849521063268184661865234375" lon="9.9590459279716014862060546875">
        <ele>868</ele>
        <time>2026-09-01T10:39:26.000Z</time>
        <extensions>
          <ns3:TrackPointExtension>
            <ns3:hr>158</ns3:hr>
            <ns3:cad>84</ns3:cad>
          </ns3:TrackPointExtension>
        </extensions>
      </trkpt>
      <trkpt lat="47.4684961326420307159423828125" lon="9.95893738232553005218505859375">
        <ele>866.20001220703125</ele>
        <time>2026-09-01T10:39:28.000Z</time>
        <extensions>
          <ns3:TrackPointExtension>
            <ns3:hr>158</ns3:hr>
            <ns3:cad>85</ns3:cad>
          </ns3:TrackPointExtension>
        </extensions>
      </trkpt>
      <trkpt lat="47.4684740044176578521728515625" lon="9.958856999874114990234375">
        <ele>864.79998779296875</ele>
        <time>2026-09-01T10:39:30.000Z</time>
        <extensions>
          <ns3:TrackPointExtension>
            <ns3:hr>158</ns3:hr>
            <ns3:cad>86</ns3:cad>
          </ns3:TrackPointExtension>
        </extensions>
      </trkpt>
      <trkpt lat="47.4684572406113147735595703125" lon="9.95881450362503528594970703125">
        <ele>864.20001220703125</ele>
        <time>2026-09-01T10:39:31.000Z</time>
        <extensions>
          <ns3:TrackPointExtension>
            <ns3:hr>158</ns3:hr>
            <ns3:cad>86</ns3:cad>
          </ns3:TrackPointExtension>
        </extensions>
      </trkpt>
      <trkpt lat="47.46843234635889530181884765625" lon="9.9587753601372241973876953125">
        <ele>863.5999755859375</ele>
        <time>2026-09-01T10:39:32.000Z</time>
        <extensions>
          <ns3:TrackPointExtension>
            <ns3:hr>158</ns3:hr>
            <ns3:cad>90</ns3:cad>
          </ns3:TrackPointExtension>
        </extensions>
      </trkpt>
      <trkpt lat="47.46838524006307125091552734375" lon="9.958744682371616363525390625">
        <ele>862.5999755859375</ele>
        <time>2026-09-01T10:39:34.000Z</time>
        <extensions>
          <ns3:TrackPointExtension>
            <ns3:hr>158</ns3:hr>
            <ns3:cad>90</ns3:cad>
          </ns3:TrackPointExtension>
        </extensions>
      </trkpt>
      <trkpt lat="47.46836864389479160308837890625" lon="9.95877644978463649749755859375">
        <ele>862.20001220703125</ele>
        <time>2026-09-01T10:39:35.000Z</time>
        <extensions>
          <ns3:TrackPointExtension>
            <ns3:hr>158</ns3:hr>
            <ns3:cad>89</ns3:cad>
          </ns3:TrackPointExtension>
        </extensions>
      </trkpt>
      <trkpt lat="47.468305863440036773681640625" lon="9.9589629471302032470703125">
        <ele>861</ele>
        <time>2026-09-01T10:39:39.000Z</time>
        <extensions>
          <ns3:TrackPointExtension>
            <ns3:hr>157</ns3:hr>
            <ns3:cad>88</ns3:cad>
          </ns3:TrackPointExtension>
        </extensions>
      </trkpt>
      <trkpt lat="47.46826462447643280029296875" lon="9.95910585857927799224853515625">
        <ele>860.79998779296875</ele>
        <time>2026-09-01T10:39:42.000Z</time>
        <extensions>
          <ns3:TrackPointExtension>
            <ns3:hr>158</ns3:hr>
            <ns3:cad>88</ns3:cad>
          </ns3:TrackPointExtension>
        </extensions>
      </trkpt>
      <trkpt lat="47.46821022592484951019287109375" lon="9.9593339301645755767822265625">
        <ele>860.20001220703125</ele>
        <time>2026-09-01T10:39:47.000Z</time>
        <extensions>
          <ns3:TrackPointExtension>
            <ns3:hr>160</ns3:hr>
            <ns3:cad>86</ns3:cad>
          </ns3:TrackPointExtension>
        </extensions>
      </trkpt>
      <trkpt lat="47.468180470168590545654296875" lon="9.95942101813852787017822265625">
        <ele>859.79998779296875</ele>
        <time>2026-09-01T10:39:49.000Z</time>
        <extensions>
          <ns3:TrackPointExtension>
            <ns3:hr>161</ns3:hr>
            <ns3:cad>86</ns3:cad>
          </ns3:TrackPointExtension>
        </extensions>
      </trkpt>
      <trkpt lat="47.46814534999430179595947265625" lon="9.959490336477756500244140625">
        <ele>859.20001220703125</ele>
        <time>2026-09-01T10:39:51.000Z</time>
        <extensions>
          <ns3:TrackPointExtension>
            <ns3:hr>160</ns3:hr>
            <ns3:cad>86</ns3:cad>
          </ns3:TrackPointExtension>
        </extensions>
      </trkpt>
      <trkpt lat="47.4681249819695949554443359375" lon="9.959529899060726165771484375">
        <ele>858.5999755859375</ele>
        <time>2026-09-01T10:39:52.000Z</time>
        <extensions>
          <ns3:TrackPointExtension>
            <ns3:hr>161</ns3:hr>
            <ns3:cad>86</ns3:cad>
          </ns3:TrackPointExtension>
        </extensions>
      </trkpt>
      <trkpt lat="47.46808717958629131317138671875" lon="9.959608018398284912109375">
        <ele>857</ele>
        <time>2026-09-01T10:39:54.000Z</time>
        <extensions>
          <ns3:TrackPointExtension>
            <ns3:hr>161</ns3:hr>
            <ns3:cad>85</ns3:cad>
          </ns3:TrackPointExtension>
        </extensions>
      </trkpt>
      <trkpt lat="47.4680790491402149200439453125" lon="9.9596494249999523162841796875">
        <ele>856.20001220703125</ele>
        <time>2026-09-01T10:39:55.000Z</time>
        <extensions>
          <ns3:TrackPointExtension>
            <ns3:hr>161</ns3:hr>
            <ns3:cad>85</ns3:cad>
          </ns3:TrackPointExtension>
        </extensions>
      </trkpt>
      <trkpt lat="47.46806672774255275726318359375" lon="9.9597064219415187835693359375">
        <ele>855.4000244140625</ele>
        <time>2026-09-01T10:39:56.000Z</time>
        <extensions>
          <ns3:TrackPointExtension>
            <ns3:hr>162</ns3:hr>
            <ns3:cad>85</ns3:cad>
          </ns3:TrackPointExtension>
        </extensions>
      </trkpt>
      <trkpt lat="47.46807008050382137298583984375" lon="9.95979803614318370819091796875">
        <ele>854.5999755859375</ele>
        <time>2026-09-01T10:39:58.000Z</time>
        <extensions>
          <ns3:TrackPointExtension>
            <ns3:hr>162</ns3:hr>
            <ns3:cad>88</ns3:cad>
          </ns3:TrackPointExtension>
        </extensions>
      </trkpt>
      <trkpt lat="47.46804258786141872406005859375" lon="9.95983667671680450439453125">
        <ele>854.5999755859375</ele>
        <time>2026-09-01T10:40:00.000Z</time>
        <extensions>
          <ns3:TrackPointExtension>
            <ns3:hr>163</ns3:hr>
            <ns3:cad>88</ns3:cad>
          </ns3:TrackPointExtension>
        </extensions>
      </trkpt>
      <trkpt lat="47.4680173583328723907470703125" lon="9.9598458968102931976318359375">
        <ele>854.5999755859375</ele>
        <time>2026-09-01T10:40:01.000Z</time>
        <extensions>
          <ns3:TrackPointExtension>
            <ns3:hr>163</ns3:hr>
            <ns3:cad>88</ns3:cad>
          </ns3:TrackPointExtension>
        </extensions>
      </trkpt>
      <trkpt lat="47.46794803999364376068115234375" lon="9.959919489920139312744140625">
        <ele>854.20001220703125</ele>
        <time>2026-09-01T10:40:04.000Z</time>
        <extensions>
          <ns3:TrackPointExtension>
            <ns3:hr>163</ns3:hr>
            <ns3:cad>87</ns3:cad>
          </ns3:TrackPointExtension>
        </extensions>
      </trkpt>
      <trkpt lat="47.4679157696664333343505859375" lon="9.95995544828474521636962890625">
        <ele>854</ele>
        <time>2026-09-01T10:40:05.000Z</time>
        <extensions>
          <ns3:TrackPointExtension>
            <ns3:hr>163</ns3:hr>
            <ns3:cad>84</ns3:cad>
          </ns3:TrackPointExtension>
        </extensions>
      </trkpt>
      <trkpt lat="47.4678413383662700653076171875" lon="9.95997891761362552642822265625">
        <ele>853</ele>
        <time>2026-09-01T10:40:08.000Z</time>
        <extensions>
          <ns3:TrackPointExtension>
            <ns3:hr>163</ns3:hr>
            <ns3:cad>84</ns3:cad>
          </ns3:TrackPointExtension>
        </extensions>
      </trkpt>
      <trkpt lat="47.467780821025371551513671875" lon="9.95999635197222232818603515625">
        <ele>851.5999755859375</ele>
        <time>2026-09-01T10:40:10.000Z</time>
        <extensions>
          <ns3:TrackPointExtension>
            <ns3:hr>164</ns3:hr>
            <ns3:cad>84</ns3:cad>
          </ns3:TrackPointExtension>
        </extensions>
      </trkpt>
      <trkpt lat="47.467752993106842041015625" lon="9.96003574691712856292724609375">
        <ele>851</ele>
        <time>2026-09-01T10:40:11.000Z</time>
        <extensions>
          <ns3:TrackPointExtension>
            <ns3:hr>162</ns3:hr>
            <ns3:cad>84</ns3:cad>
          </ns3:TrackPointExtension>
        </extensions>
      </trkpt>
      <trkpt lat="47.46773983351886272430419921875" lon="9.9600799195468425750732421875">
        <ele>850.5999755859375</ele>
        <time>2026-09-01T10:40:12.000Z</time>
        <extensions>
          <ns3:TrackPointExtension>
            <ns3:hr>163</ns3:hr>
            <ns3:cad>84</ns3:cad>
          </ns3:TrackPointExtension>
        </extensions>
      </trkpt>
      <trkpt lat="47.46769054792821407318115234375" lon="9.9602264352142810821533203125">
        <ele>849.79998779296875</ele>
        <time>2026-09-01T10:40:15.000Z</time>
        <extensions>
          <ns3:TrackPointExtension>
            <ns3:hr>163</ns3:hr>
            <ns3:cad>87</ns3:cad>
          </ns3:TrackPointExtension>
        </extensions>
      </trkpt>
      <trkpt lat="47.46767177246510982513427734375" lon="9.96027781628072261810302734375">
        <ele>849.4000244140625</ele>
        <time>2026-09-01T10:40:16.000Z</time>
        <extensions>
          <ns3:TrackPointExtension>
            <ns3:hr>162</ns3:hr>
            <ns3:cad>87</ns3:cad>
          </ns3:TrackPointExtension>
        </extensions>
      </trkpt>
      <trkpt lat="47.46762013994157314300537109375" lon="9.9603565223515033721923828125">
        <ele>848</ele>
        <time>2026-09-01T10:40:18.000Z</time>
        <extensions>
          <ns3:TrackPointExtension>
            <ns3:hr>162</ns3:hr>
            <ns3:cad>84</ns3:cad>
          </ns3:TrackPointExtension>
        </extensions>
      </trkpt>
      <trkpt lat="47.46756649576127529144287109375" lon="9.96043086983263492584228515625">
        <ele>846.5999755859375</ele>
        <time>2026-09-01T10:40:20.000Z</time>
        <extensions>
          <ns3:TrackPointExtension>
            <ns3:hr>162</ns3:hr>
            <ns3:cad>84</ns3:cad>
          </ns3:TrackPointExtension>
        </extensions>
      </trkpt>
      <trkpt lat="47.46750949881970882415771484375" lon="9.9605107493698596954345703125">
        <ele>845.4000244140625</ele>
        <time>2026-09-01T10:40:22.000Z</time>
        <extensions>
          <ns3:TrackPointExtension>
            <ns3:hr>163</ns3:hr>
            <ns3:cad>84</ns3:cad>
          </ns3:TrackPointExtension>
        </extensions>
      </trkpt>
      <trkpt lat="47.467479743063449859619140625" lon="9.96054880321025848388671875">
        <ele>845</ele>
        <time>2026-09-01T10:40:23.000Z</time>
        <extensions>
          <ns3:TrackPointExtension>
            <ns3:hr>163</ns3:hr>
            <ns3:cad>84</ns3:cad>
          </ns3:TrackPointExtension>
        </extensions>
      </trkpt>
      <trkpt lat="47.46745132841169834136962890625" lon="9.96058979071676731109619140625">
        <ele>844.4000244140625</ele>
        <time>2026-09-01T10:40:24.000Z</time>
        <extensions>
          <ns3:TrackPointExtension>
            <ns3:hr>163</ns3:hr>
            <ns3:cad>84</ns3:cad>
          </ns3:TrackPointExtension>
        </extensions>
      </trkpt>
      <trkpt lat="47.4673868715763092041015625" lon="9.96067277155816555023193359375">
        <ele>843.20001220703125</ele>
        <time>2026-09-01T10:40:26.000Z</time>
        <extensions>
          <ns3:TrackPointExtension>
            <ns3:hr>162</ns3:hr>
            <ns3:cad>84</ns3:cad>
          </ns3:TrackPointExtension>
        </extensions>
      </trkpt>
      <trkpt lat="47.4673588760197162628173828125" lon="9.960710741579532623291015625">
        <ele>842.5999755859375</ele>
        <time>2026-09-01T10:40:27.000Z</time>
        <extensions>
          <ns3:TrackPointExtension>
            <ns3:hr>161</ns3:hr>
            <ns3:cad>84</ns3:cad>
          </ns3:TrackPointExtension>
        </extensions>
      </trkpt>
      <trkpt lat="47.4673310481011867523193359375" lon="9.96074971742928028106689453125">
        <ele>841.79998779296875</ele>
        <time>2026-09-01T10:40:28.000Z</time>
        <extensions>
          <ns3:TrackPointExtension>
            <ns3:hr>161</ns3:hr>
            <ns3:cad>84</ns3:cad>
          </ns3:TrackPointExtension>
        </extensions>
      </trkpt>
      <trkpt lat="47.46727631427347660064697265625" lon="9.96082666330039501190185546875">
        <ele>840.5999755859375</ele>
        <time>2026-09-01T10:40:30.000Z</time>
        <extensions>
          <ns3:TrackPointExtension>
            <ns3:hr>160</ns3:hr>
            <ns3:cad>84</ns3:cad>
          </ns3:TrackPointExtension>
        </extensions>
      </trkpt>
      <trkpt lat="47.46721412055194377899169921875" lon="9.960899166762828826904296875">
        <ele>839.20001220703125</ele>
        <time>2026-09-01T10:40:32.000Z</time>
        <extensions>
          <ns3:TrackPointExtension>
            <ns3:hr>159</ns3:hr>
            <ns3:cad>85</ns3:cad>
          </ns3:TrackPointExtension>
        </extensions>
      </trkpt>
      <trkpt lat="47.46714748442173004150390625" lon="9.96097116731107234954833984375">
        <ele>838.20001220703125</ele>
        <time>2026-09-01T10:40:34.000Z</time>
        <extensions>
          <ns3:TrackPointExtension>
            <ns3:hr>160</ns3:hr>
            <ns3:cad>85</ns3:cad>
          </ns3:TrackPointExtension>
        </extensions>
      </trkpt>
      <trkpt lat="47.46707506477832794189453125" lon="9.96104191057384014129638671875">
        <ele>837.20001220703125</ele>
        <time>2026-09-01T10:40:36.000Z</time>
        <extensions>
          <ns3:TrackPointExtension>
            <ns3:hr>160</ns3:hr>
            <ns3:cad>85</ns3:cad>
          </ns3:TrackPointExtension>
        </extensions>
      </trkpt>
      <trkpt lat="47.46704799123108386993408203125" lon="9.9610632844269275665283203125">
        <ele>836.79998779296875</ele>
        <time>2026-09-01T10:40:37.000Z</time>
        <extensions>
          <ns3:TrackPointExtension>
            <ns3:hr>161</ns3:hr>
            <ns3:cad>83</ns3:cad>
          </ns3:TrackPointExtension>
        </extensions>
      </trkpt>
      <trkpt lat="47.4669840373098850250244140625" lon="9.96112774126231670379638671875">
        <ele>835.79998779296875</ele>
        <time>2026-09-01T10:40:39.000Z</time>
        <extensions>
          <ns3:TrackPointExtension>
            <ns3:hr>160</ns3:hr>
            <ns3:cad>83</ns3:cad>
          </ns3:TrackPointExtension>
        </extensions>
      </trkpt>
      <trkpt lat="47.466915138065814971923828125" lon="9.9611923657357692718505859375">
        <ele>834.20001220703125</ele>
        <time>2026-09-01T10:40:41.000Z</time>
        <extensions>
          <ns3:TrackPointExtension>
            <ns3:hr>160</ns3:hr>
            <ns3:cad>83</ns3:cad>
          </ns3:TrackPointExtension>
        </extensions>
      </trkpt>
      <trkpt lat="47.46684498153626918792724609375" lon="9.9612466804683208465576171875">
        <ele>832.79998779296875</ele>
        <time>2026-09-01T10:40:43.000Z</time>
        <extensions>
          <ns3:TrackPointExtension>
            <ns3:hr>159</ns3:hr>
            <ns3:cad>84</ns3:cad>
          </ns3:TrackPointExtension>
        </extensions>
      </trkpt>
      <trkpt lat="47.46677725575864315032958984375" lon="9.96129755862057209014892578125">
        <ele>831.4000244140625</ele>
        <time>2026-09-01T10:40:45.000Z</time>
        <extensions>
          <ns3:TrackPointExtension>
            <ns3:hr>160</ns3:hr>
            <ns3:cad>84</ns3:cad>
          </ns3:TrackPointExtension>
        </extensions>
      </trkpt>
      <trkpt lat="47.46673978865146636962890625" lon="9.96132840402424335479736328125">
        <ele>831</ele>
        <time>2026-09-01T10:40:46.000Z</time>
        <extensions>
          <ns3:TrackPointExtension>
            <ns3:hr>160</ns3:hr>
            <ns3:cad>84</ns3:cad>
          </ns3:TrackPointExtension>
        </extensions>
      </trkpt>
      <trkpt lat="47.46667147614061832427978515625" lon="9.9613999016582965850830078125">
        <ele>830.20001220703125</ele>
        <time>2026-09-01T10:40:48.000Z</time>
        <extensions>
          <ns3:TrackPointExtension>
            <ns3:hr>159</ns3:hr>
            <ns3:cad>84</ns3:cad>
          </ns3:TrackPointExtension>
        </extensions>
      </trkpt>
      <trkpt lat="47.4665984697639942169189453125" lon="9.96147005818784236907958984375">
        <ele>829.20001220703125</ele>
        <time>2026-09-01T10:40:50.000Z</time>
        <extensions>
          <ns3:TrackPointExtension>
            <ns3:hr>159</ns3:hr>
            <ns3:cad>86</ns3:cad>
          </ns3:TrackPointExtension>
        </extensions>
      </trkpt>
      <trkpt lat="47.46654130518436431884765625" lon="9.96152671985328197479248046875">
        <ele>827.79998779296875</ele>
        <time>2026-09-01T10:40:52.000Z</time>
        <extensions>
          <ns3:TrackPointExtension>
            <ns3:hr>160</ns3:hr>
            <ns3:cad>86</ns3:cad>
          </ns3:TrackPointExtension>
        </extensions>
      </trkpt>
      <trkpt lat="47.46650911867618560791015625" lon="9.96156125329434871673583984375">
        <ele>827.20001220703125</ele>
        <time>2026-09-01T10:40:53.000Z</time>
        <extensions>
          <ns3:TrackPointExtension>
            <ns3:hr>160</ns3:hr>
            <ns3:cad>86</ns3:cad>
          </ns3:TrackPointExtension>
        </extensions>
      </trkpt>
      <trkpt lat="47.46648053638637065887451171875" lon="9.9615883268415927886962890625">
        <ele>826.5999755859375</ele>
        <time>2026-09-01T10:40:54.000Z</time>
        <extensions>
          <ns3:TrackPointExtension>
            <ns3:hr>159</ns3:hr>
            <ns3:cad>86</ns3:cad>
          </ns3:TrackPointExtension>
        </extensions>
      </trkpt>
      <trkpt lat="47.46641230769455432891845703125" lon="9.961666949093341827392578125">
        <ele>825.5999755859375</ele>
        <time>2026-09-01T10:40:56.000Z</time>
        <extensions>
          <ns3:TrackPointExtension>
            <ns3:hr>158</ns3:hr>
            <ns3:cad>86</ns3:cad>
          </ns3:TrackPointExtension>
        </extensions>
      </trkpt>
      <trkpt lat="47.46633586473762989044189453125" lon="9.9617350101470947265625">
        <ele>824.4000244140625</ele>
        <time>2026-09-01T10:40:58.000Z</time>
        <extensions>
          <ns3:TrackPointExtension>
            <ns3:hr>158</ns3:hr>
            <ns3:cad>86</ns3:cad>
          </ns3:TrackPointExtension>
        </extensions>
      </trkpt>
      <trkpt lat="47.466296888887882232666015625" lon="9.96174867264926433563232421875">
        <ele>823.79998779296875</ele>
        <time>2026-09-01T10:40:59.000Z</time>
        <extensions>
          <ns3:TrackPointExtension>
            <ns3:hr>158</ns3:hr>
            <ns3:cad>85</ns3:cad>
          </ns3:TrackPointExtension>
        </extensions>
      </trkpt>
      <trkpt lat="47.46625891886651515960693359375" lon="9.96175982058048248291015625">
        <ele>823.20001220703125</ele>
        <time>2026-09-01T10:41:00.000Z</time>
        <extensions>
          <ns3:TrackPointExtension>
            <ns3:hr>158</ns3:hr>
            <ns3:cad>85</ns3:cad>
          </ns3:TrackPointExtension>
        </extensions>
      </trkpt>
      <trkpt lat="47.4662199430167675018310546875" lon="9.96174112893640995025634765625">
        <ele>822.5999755859375</ele>
        <time>2026-09-01T10:41:01.000Z</time>
        <extensions>
          <ns3:TrackPointExtension>
            <ns3:hr>159</ns3:hr>
            <ns3:cad>85</ns3:cad>
          </ns3:TrackPointExtension>
        </extensions>
      </trkpt>
      <trkpt lat="47.4661907739937305450439453125" lon="9.96170324273407459259033203125">
        <ele>822</ele>
        <time>2026-09-01T10:41:02.000Z</time>
        <extensions>
          <ns3:TrackPointExtension>
            <ns3:hr>159</ns3:hr>
            <ns3:cad>85</ns3:cad>
          </ns3:TrackPointExtension>
        </extensions>
      </trkpt>
      <trkpt lat="47.46618431992828845977783203125" lon="9.9616419710218906402587890625">
        <ele>821.20001220703125</ele>
        <time>2026-09-01T10:41:03.000Z</time>
        <extensions>
          <ns3:TrackPointExtension>
            <ns3:hr>159</ns3:hr>
            <ns3:cad>85</ns3:cad>
          </ns3:TrackPointExtension>
        </extensions>
      </trkpt>
      <trkpt lat="47.46618566103279590606689453125" lon="9.96157315559685230255126953125">
        <ele>820.5999755859375</ele>
        <time>2026-09-01T10:41:04.000Z</time>
        <extensions>
          <ns3:TrackPointExtension>
            <ns3:hr>159</ns3:hr>
            <ns3:cad>85</ns3:cad>
          </ns3:TrackPointExtension>
        </extensions>
      </trkpt>
      <trkpt lat="47.4662031792104244232177734375" lon="9.961443655192852020263671875">
        <ele>820</ele>
        <time>2026-09-01T10:41:06.000Z</time>
        <extensions>
          <ns3:TrackPointExtension>
            <ns3:hr>160</ns3:hr>
            <ns3:cad>87</ns3:cad>
          </ns3:TrackPointExtension>
        </extensions>
      </trkpt>
      <trkpt lat="47.46622002683579921722412109375" lon="9.96132689528167247772216796875">
        <ele>819.5999755859375</ele>
        <time>2026-09-01T10:41:08.000Z</time>
        <extensions>
          <ns3:TrackPointExtension>
            <ns3:hr>160</ns3:hr>
            <ns3:cad>88</ns3:cad>
          </ns3:TrackPointExtension>
        </extensions>
      </trkpt>
      <trkpt lat="47.466237209737300872802734375" lon="9.96121625415980815887451171875">
        <ele>819</ele>
        <time>2026-09-01T10:41:10.000Z</time>
        <extensions>
          <ns3:TrackPointExtension>
            <ns3:hr>159</ns3:hr>
            <ns3:cad>87</ns3:cad>
          </ns3:TrackPointExtension>
        </extensions>
      </trkpt>
      <trkpt lat="47.4662397243082523345947265625" lon="9.96115288697183132171630859375">
        <ele>819</ele>
        <time>2026-09-01T10:41:11.000Z</time>
        <extensions>
          <ns3:TrackPointExtension>
            <ns3:hr>160</ns3:hr>
            <ns3:cad>86</ns3:cad>
          </ns3:TrackPointExtension>
        </extensions>
      </trkpt>
      <trkpt lat="47.46625171042978763580322265625" lon="9.9610334448516368865966796875">
        <ele>818.4000244140625</ele>
        <time>2026-09-01T10:41:13.000Z</time>
        <extensions>
          <ns3:TrackPointExtension>
            <ns3:hr>160</ns3:hr>
            <ns3:cad>86</ns3:cad>
          </ns3:TrackPointExtension>
        </extensions>
      </trkpt>
      <trkpt lat="47.46627752669155597686767578125" lon="9.960809648036956787109375">
        <ele>817.20001220703125</ele>
        <time>2026-09-01T10:41:17.000Z</time>
        <extensions>
          <ns3:TrackPointExtension>
            <ns3:hr>160</ns3:hr>
            <ns3:cad>84</ns3:cad>
          </ns3:TrackPointExtension>
        </extensions>
      </trkpt>
      <trkpt lat="47.46628389693796634674072265625" lon="9.96064142324030399322509765625">
        <ele>815.79998779296875</ele>
        <time>2026-09-01T10:41:20.000Z</time>
        <extensions>
          <ns3:TrackPointExtension>
            <ns3:hr>160</ns3:hr>
            <ns3:cad>86</ns3:cad>
          </ns3:TrackPointExtension>
        </extensions>
      </trkpt>
      <trkpt lat="47.4662886746227741241455078125" lon="9.9605757929384708404541015625">
        <ele>815.20001220703125</ele>
        <time>2026-09-01T10:41:21.000Z</time>
        <extensions>
          <ns3:TrackPointExtension>
            <ns3:hr>160</ns3:hr>
            <ns3:cad>88</ns3:cad>
          </ns3:TrackPointExtension>
        </extensions>
      </trkpt>
      <trkpt lat="47.466300241649150848388671875" lon="9.96046029031276702880859375">
        <ele>814.79998779296875</ele>
        <time>2026-09-01T10:41:23.000Z</time>
        <extensions>
          <ns3:TrackPointExtension>
            <ns3:hr>159</ns3:hr>
            <ns3:cad>88</ns3:cad>
          </ns3:TrackPointExtension>
        </extensions>
      </trkpt>
      <trkpt lat="47.4663248844444751739501953125" lon="9.9602757208049297332763671875">
        <ele>814</ele>
        <time>2026-09-01T10:41:26.000Z</time>
        <extensions>
          <ns3:TrackPointExtension>
            <ns3:hr>159</ns3:hr>
            <ns3:cad>87</ns3:cad>
          </ns3:TrackPointExtension>
        </extensions>
      </trkpt>
      <trkpt lat="47.466335780918598175048828125" lon="9.9601577036082744598388671875">
        <ele>813.5999755859375</ele>
        <time>2026-09-01T10:41:28.000Z</time>
        <extensions>
          <ns3:TrackPointExtension>
            <ns3:hr>160</ns3:hr>
            <ns3:cad>87</ns3:cad>
          </ns3:TrackPointExtension>
        </extensions>
      </trkpt>
      <trkpt lat="47.466334439814090728759765625" lon="9.960110597312450408935546875">
        <ele>813.4000244140625</ele>
        <time>2026-09-01T10:41:29.000Z</time>
        <extensions>
          <ns3:TrackPointExtension>
            <ns3:hr>160</ns3:hr>
            <ns3:cad>86</ns3:cad>
          </ns3:TrackPointExtension>
        </extensions>
      </trkpt>
      <trkpt lat="47.46635179035365581512451171875" lon="9.959945641458034515380859375">
        <ele>812.4000244140625</ele>
        <time>2026-09-01T10:41:32.000Z</time>
        <extensions>
          <ns3:TrackPointExtension>
            <ns3:hr>161</ns3:hr>
            <ns3:cad>85</ns3:cad>
          </ns3:TrackPointExtension>
        </extensions>
      </trkpt>
      <trkpt lat="47.466360591351985931396484375" lon="9.9598743952810764312744140625">
        <ele>812</ele>
        <time>2026-09-01T10:41:33.000Z</time>
        <extensions>
          <ns3:TrackPointExtension>
            <ns3:hr>161</ns3:hr>
            <ns3:cad>85</ns3:cad>
          </ns3:TrackPointExtension>
        </extensions>
      </trkpt>
      <trkpt lat="47.4663610942661762237548828125" lon="9.9598173983395099639892578125">
        <ele>811.4000244140625</ele>
        <time>2026-09-01T10:41:34.000Z</time>
        <extensions>
          <ns3:TrackPointExtension>
            <ns3:hr>161</ns3:hr>
            <ns3:cad>85</ns3:cad>
          </ns3:TrackPointExtension>
        </extensions>
      </trkpt>
      <trkpt lat="47.4663597531616687774658203125" lon="9.95975344441831111907958984375">
        <ele>811</ele>
        <time>2026-09-01T10:41:35.000Z</time>
        <extensions>
          <ns3:TrackPointExtension>
            <ns3:hr>162</ns3:hr>
            <ns3:cad>85</ns3:cad>
          </ns3:TrackPointExtension>
        </extensions>
      </trkpt>
      <trkpt lat="47.466355226933956146240234375" lon="9.95968840084969997406005859375">
        <ele>810.4000244140625</ele>
        <time>2026-09-01T10:41:36.000Z</time>
        <extensions>
          <ns3:TrackPointExtension>
            <ns3:hr>162</ns3:hr>
            <ns3:cad>85</ns3:cad>
          </ns3:TrackPointExtension>
        </extensions>
      </trkpt>
      <trkpt lat="47.46633620001375675201416015625" lon="9.95957155711948871612548828125">
        <ele>809.5999755859375</ele>
        <time>2026-09-01T10:41:38.000Z</time>
        <extensions>
          <ns3:TrackPointExtension>
            <ns3:hr>162</ns3:hr>
            <ns3:cad>85</ns3:cad>
          </ns3:TrackPointExtension>
        </extensions>
      </trkpt>
      <trkpt lat="47.46631423942744731903076171875" lon="9.959456808865070343017578125">
        <ele>809.20001220703125</ele>
        <time>2026-09-01T10:41:40.000Z</time>
        <extensions>
          <ns3:TrackPointExtension>
            <ns3:hr>163</ns3:hr>
            <ns3:cad>85</ns3:cad>
          </ns3:TrackPointExtension>
        </extensions>
      </trkpt>
      <trkpt lat="47.46628339402377605438232421875" lon="9.9593466706573963165283203125">
        <ele>808.5999755859375</ele>
        <time>2026-09-01T10:41:42.000Z</time>
        <extensions>
          <ns3:TrackPointExtension>
            <ns3:hr>162</ns3:hr>
            <ns3:cad>85</ns3:cad>
          </ns3:TrackPointExtension>
        </extensions>
      </trkpt>
      <trkpt lat="47.46626948006451129913330078125" lon="9.95928690768778324127197265625">
        <ele>808</ele>
        <time>2026-09-01T10:41:43.000Z</time>
        <extensions>
          <ns3:TrackPointExtension>
            <ns3:hr>162</ns3:hr>
            <ns3:cad>85</ns3:cad>
          </ns3:TrackPointExtension>
        </extensions>
      </trkpt>
      <trkpt lat="47.466256320476531982421875" lon="9.9592365324497222900390625">
        <ele>807.5999755859375</ele>
        <time>2026-09-01T10:41:44.000Z</time>
        <extensions>
          <ns3:TrackPointExtension>
            <ns3:hr>162</ns3:hr>
            <ns3:cad>84</ns3:cad>
          </ns3:TrackPointExtension>
        </extensions>
      </trkpt>
      <trkpt lat="47.466233186423778533935546875" lon="9.9591133184731006622314453125">
        <ele>806.4000244140625</ele>
        <time>2026-09-01T10:41:46.000Z</time>
        <extensions>
          <ns3:TrackPointExtension>
            <ns3:hr>162</ns3:hr>
            <ns3:cad>84</ns3:cad>
          </ns3:TrackPointExtension>
        </extensions>
      </trkpt>
      <trkpt lat="47.4662186019122600555419921875" lon="9.959067888557910919189453125">
        <ele>805.79998779296875</ele>
        <time>2026-09-01T10:41:47.000Z</time>
        <extensions>
          <ns3:TrackPointExtension>
            <ns3:hr>162</ns3:hr>
            <ns3:cad>85</ns3:cad>
          </ns3:TrackPointExtension>
        </extensions>
      </trkpt>
      <trkpt lat="47.46618482284247875213623046875" lon="9.959024302661418914794921875">
        <ele>805.20001220703125</ele>
        <time>2026-09-01T10:41:48.000Z</time>
        <extensions>
          <ns3:TrackPointExtension>
            <ns3:hr>162</ns3:hr>
            <ns3:cad>85</ns3:cad>
          </ns3:TrackPointExtension>
        </extensions>
      </trkpt>
      <trkpt lat="47.4661518819630146026611328125" lon="9.9589951336383819580078125">
        <ele>805</ele>
        <time>2026-09-01T10:41:49.000Z</time>
        <extensions>
          <ns3:TrackPointExtension>
            <ns3:hr>162</ns3:hr>
            <ns3:cad>85</ns3:cad>
          </ns3:TrackPointExtension>
        </extensions>
      </trkpt>
      <trkpt lat="47.4660700745880603790283203125" lon="9.95897543616592884063720703125">
        <ele>804.4000244140625</ele>
        <time>2026-09-01T10:41:51.000Z</time>
        <extensions>
          <ns3:TrackPointExtension>
            <ns3:hr>161</ns3:hr>
            <ns3:cad>85</ns3:cad>
          </ns3:TrackPointExtension>
        </extensions>
      </trkpt>
      <trkpt lat="47.4660323560237884521484375" lon="9.95896604843437671661376953125">
        <ele>804.20001220703125</ele>
        <time>2026-09-01T10:41:52.000Z</time>
        <extensions>
          <ns3:TrackPointExtension>
            <ns3:hr>160</ns3:hr>
            <ns3:cad>85</ns3:cad>
          </ns3:TrackPointExtension>
        </extensions>
      </trkpt>
      <trkpt lat="47.46590620838105678558349609375" lon="9.9589416570961475372314453125">
        <ele>803.20001220703125</ele>
        <time>2026-09-01T10:41:55.000Z</time>
        <extensions>
          <ns3:TrackPointExtension>
            <ns3:hr>160</ns3:hr>
            <ns3:cad>85</ns3:cad>
          </ns3:TrackPointExtension>
        </extensions>
      </trkpt>
      <trkpt lat="47.46586329303681850433349609375" lon="9.9589388072490692138671875">
        <ele>802.79998779296875</ele>
        <time>2026-09-01T10:41:56.000Z</time>
        <extensions>
          <ns3:TrackPointExtension>
            <ns3:hr>161</ns3:hr>
            <ns3:cad>85</ns3:cad>
          </ns3:TrackPointExtension>
        </extensions>
      </trkpt>
      <trkpt lat="47.46581903658807277679443359375" lon="9.95892615057528018951416015625">
        <ele>802.4000244140625</ele>
        <time>2026-09-01T10:41:57.000Z</time>
        <extensions>
          <ns3:TrackPointExtension>
            <ns3:hr>160</ns3:hr>
            <ns3:cad>85</ns3:cad>
          </ns3:TrackPointExtension>
        </extensions>
      </trkpt>
      <trkpt lat="47.4657545797526836395263671875" lon="9.9589066207408905029296875">
        <ele>801.5999755859375</ele>
        <time>2026-09-01T10:41:59.000Z</time>
        <extensions>
          <ns3:TrackPointExtension>
            <ns3:hr>160</ns3:hr>
            <ns3:cad>85</ns3:cad>
          </ns3:TrackPointExtension>
        </extensions>
      </trkpt>
      <trkpt lat="47.46571191586554050445556640625" lon="9.958878457546234130859375">
        <ele>801.20001220703125</ele>
        <time>2026-09-01T10:42:00.000Z</time>
        <extensions>
          <ns3:TrackPointExtension>
            <ns3:hr>160</ns3:hr>
            <ns3:cad>85</ns3:cad>
          </ns3:TrackPointExtension>
        </extensions>
      </trkpt>
      <trkpt lat="47.4656439386308193206787109375" lon="9.95883059687912464141845703125">
        <ele>800.5999755859375</ele>
        <time>2026-09-01T10:42:02.000Z</time>
        <extensions>
          <ns3:TrackPointExtension>
            <ns3:hr>161</ns3:hr>
            <ns3:cad>85</ns3:cad>
          </ns3:TrackPointExtension>
        </extensions>
      </trkpt>
      <trkpt lat="47.46560060419142246246337890625" lon="9.95881098322570323944091796875">
        <ele>800.20001220703125</ele>
        <time>2026-09-01T10:42:03.000Z</time>
        <extensions>
          <ns3:TrackPointExtension>
            <ns3:hr>160</ns3:hr>
            <ns3:cad>85</ns3:cad>
          </ns3:TrackPointExtension>
        </extensions>
      </trkpt>
      <trkpt lat="47.465564645826816558837890625" lon="9.95879790745675563812255859375">
        <ele>799.79998779296875</ele>
        <time>2026-09-01T10:42:04.000Z</time>
        <extensions>
          <ns3:TrackPointExtension>
            <ns3:hr>161</ns3:hr>
            <ns3:cad>85</ns3:cad>
          </ns3:TrackPointExtension>
        </extensions>
      </trkpt>
      <trkpt lat="47.46548116207122802734375" lon="9.9587773717939853668212890625">
        <ele>799.20001220703125</ele>
        <time>2026-09-01T10:42:06.000Z</time>
        <extensions>
          <ns3:TrackPointExtension>
            <ns3:hr>161</ns3:hr>
            <ns3:cad>85</ns3:cad>
          </ns3:TrackPointExtension>
        </extensions>
      </trkpt>
      <trkpt lat="47.4653981812298297882080078125" lon="9.9587619490921497344970703125">
        <ele>798.5999755859375</ele>
        <time>2026-09-01T10:42:08.000Z</time>
        <extensions>
          <ns3:TrackPointExtension>
            <ns3:hr>161</ns3:hr>
            <ns3:cad>85</ns3:cad>
          </ns3:TrackPointExtension>
        </extensions>
      </trkpt>
      <trkpt lat="47.46536188758909702301025390625" lon="9.958749376237392425537109375">
        <ele>798.20001220703125</ele>
        <time>2026-09-01T10:42:09.000Z</time>
        <extensions>
          <ns3:TrackPointExtension>
            <ns3:hr>161</ns3:hr>
            <ns3:cad>85</ns3:cad>
          </ns3:TrackPointExtension>
        </extensions>
      </trkpt>
      <trkpt lat="47.4653200618922710418701171875" lon="9.9587515555322170257568359375">
        <ele>798</ele>
        <time>2026-09-01T10:42:10.000Z</time>
        <extensions>
          <ns3:TrackPointExtension>
            <ns3:hr>161</ns3:hr>
            <ns3:cad>85</ns3:cad>
          </ns3:TrackPointExtension>
        </extensions>
      </trkpt>
      <trkpt lat="47.46520422399044036865234375" lon="9.95877192355692386627197265625">
        <ele>797</ele>
        <time>2026-09-01T10:42:13.000Z</time>
        <extensions>
          <ns3:TrackPointExtension>
            <ns3:hr>162</ns3:hr>
            <ns3:cad>83</ns3:cad>
          </ns3:TrackPointExtension>
        </extensions>
      </trkpt>
      <trkpt lat="47.4651740491390228271484375" lon="9.9587914533913135528564453125">
        <ele>796.79998779296875</ele>
        <time>2026-09-01T10:42:14.000Z</time>
        <extensions>
          <ns3:TrackPointExtension>
            <ns3:hr>162</ns3:hr>
            <ns3:cad>83</ns3:cad>
          </ns3:TrackPointExtension>
        </extensions>
      </trkpt>
      <trkpt lat="47.46513155288994312286376953125" lon="9.9588239751756191253662109375">
        <ele>796.4000244140625</ele>
        <time>2026-09-01T10:42:15.000Z</time>
        <extensions>
          <ns3:TrackPointExtension>
            <ns3:hr>162</ns3:hr>
            <ns3:cad>83</ns3:cad>
          </ns3:TrackPointExtension>
        </extensions>
      </trkpt>
      <trkpt lat="47.465098612010478973388671875" lon="9.9588424153625965118408203125">
        <ele>796.20001220703125</ele>
        <time>2026-09-01T10:42:16.000Z</time>
        <extensions>
          <ns3:TrackPointExtension>
            <ns3:hr>161</ns3:hr>
            <ns3:cad>83</ns3:cad>
          </ns3:TrackPointExtension>
        </extensions>
      </trkpt>
      <trkpt lat="47.46504169888794422149658203125" lon="9.95885674841701984405517578125">
        <ele>795.79998779296875</ele>
        <time>2026-09-01T10:42:18.000Z</time>
        <extensions>
          <ns3:TrackPointExtension>
            <ns3:hr>161</ns3:hr>
            <ns3:cad>84</ns3:cad>
          </ns3:TrackPointExtension>
        </extensions>
      </trkpt>
      <trkpt lat="47.4650263600051403045654296875" lon="9.95884769596159458160400390625">
        <ele>795.4000244140625</ele>
        <time>2026-09-01T10:42:19.000Z</time>
        <extensions>
          <ns3:TrackPointExtension>
            <ns3:hr>161</ns3:hr>
            <ns3:cad>84</ns3:cad>
          </ns3:TrackPointExtension>
        </extensions>
      </trkpt>
      <trkpt lat="47.4650049023330211639404296875" lon="9.95881534181535243988037109375">
        <ele>794.79998779296875</ele>
        <time>2026-09-01T10:42:20.000Z</time>
        <extensions>
          <ns3:TrackPointExtension>
            <ns3:hr>161</ns3:hr>
            <ns3:cad>84</ns3:cad>
          </ns3:TrackPointExtension>
        </extensions>
      </trkpt>
      <trkpt lat="47.46497548185288906097412109375" lon="9.958740659058094024658203125">
        <ele>793.79998779296875</ele>
        <time>2026-09-01T10:42:22.000Z</time>
        <extensions>
          <ns3:TrackPointExtension>
            <ns3:hr>161</ns3:hr>
            <ns3:cad>84</ns3:cad>
          </ns3:TrackPointExtension>
        </extensions>
      </trkpt>
      <trkpt lat="47.464941032230854034423828125" lon="9.95867737568914890289306640625">
        <ele>792.5999755859375</ele>
        <time>2026-09-01T10:42:24.000Z</time>
        <extensions>
          <ns3:TrackPointExtension>
            <ns3:hr>161</ns3:hr>
            <ns3:cad>84</ns3:cad>
          </ns3:TrackPointExtension>
        </extensions>
      </trkpt>
      <trkpt lat="47.46492267586290836334228515625" lon="9.958652146160602569580078125">
        <ele>792.20001220703125</ele>
        <time>2026-09-01T10:42:25.000Z</time>
        <extensions>
          <ns3:TrackPointExtension>
            <ns3:hr>161</ns3:hr>
            <ns3:cad>84</ns3:cad>
          </ns3:TrackPointExtension>
        </extensions>
      </trkpt>
      <trkpt lat="47.464888058602809906005859375" lon="9.958590455353260040283203125">
        <ele>791.20001220703125</ele>
        <time>2026-09-01T10:42:27.000Z</time>
        <extensions>
          <ns3:TrackPointExtension>
            <ns3:hr>161</ns3:hr>
            <ns3:cad>84</ns3:cad>
          </ns3:TrackPointExtension>
        </extensions>
      </trkpt>
      <trkpt lat="47.46486567892134189605712890625" lon="9.95852801017463207244873046875">
        <ele>789.4000244140625</ele>
        <time>2026-09-01T10:42:29.000Z</time>
        <extensions>
          <ns3:TrackPointExtension>
            <ns3:hr>160</ns3:hr>
            <ns3:cad>84</ns3:cad>
          </ns3:TrackPointExtension>
        </extensions>
      </trkpt>
      <trkpt lat="47.4648426286876201629638671875" lon="9.958455003798007965087890625">
        <ele>787.4000244140625</ele>
        <time>2026-09-01T10:42:31.000Z</time>
        <extensions>
          <ns3:TrackPointExtension>
            <ns3:hr>161</ns3:hr>
            <ns3:cad>84</ns3:cad>
          </ns3:TrackPointExtension>
        </extensions>
      </trkpt>
      <trkpt lat="47.46482443995773792266845703125" lon="9.9584169499576091766357421875">
        <ele>786.20001220703125</ele>
        <time>2026-09-01T10:42:32.000Z</time>
        <extensions>
          <ns3:TrackPointExtension>
            <ns3:hr>161</ns3:hr>
            <ns3:cad>84</ns3:cad>
          </ns3:TrackPointExtension>
        </extensions>
      </trkpt>
      <trkpt lat="47.46480633504688739776611328125" lon="9.95838434435427188873291015625">
        <ele>785</ele>
        <time>2026-09-01T10:42:33.000Z</time>
        <extensions>
          <ns3:TrackPointExtension>
            <ns3:hr>161</ns3:hr>
            <ns3:cad>96</ns3:cad>
          </ns3:TrackPointExtension>
        </extensions>
      </trkpt>
      <trkpt lat="47.46478655375540256500244140625" lon="9.95834528468549251556396484375">
        <ele>783.79998779296875</ele>
        <time>2026-09-01T10:42:34.000Z</time>
        <extensions>
          <ns3:TrackPointExtension>
            <ns3:hr>161</ns3:hr>
            <ns3:cad>96</ns3:cad>
          </ns3:TrackPointExtension>
        </extensions>
      </trkpt>
      <trkpt lat="47.464771382510662078857421875" lon="9.9583192169666290283203125">
        <ele>782.5999755859375</ele>
        <time>2026-09-01T10:42:35.000Z</time>
        <extensions>
          <ns3:TrackPointExtension>
            <ns3:hr>161</ns3:hr>
            <ns3:cad>96</ns3:cad>
          </ns3:TrackPointExtension>
        </extensions>
      </trkpt>
      <trkpt lat="47.46475922875106334686279296875" lon="9.958294071257114410400390625">
        <ele>781.4000244140625</ele>
        <time>2026-09-01T10:42:36.000Z</time>
        <extensions>
          <ns3:TrackPointExtension>
            <ns3:hr>161</ns3:hr>
            <ns3:cad>96</ns3:cad>
          </ns3:TrackPointExtension>
        </extensions>
      </trkpt>
      <trkpt lat="47.46474212966859340667724609375" lon="9.95825760997831821441650390625">
        <ele>780.4000244140625</ele>
        <time>2026-09-01T10:42:37.000Z</time>
        <extensions>
          <ns3:TrackPointExtension>
            <ns3:hr>161</ns3:hr>
            <ns3:cad>96</ns3:cad>
          </ns3:TrackPointExtension>
        </extensions>
      </trkpt>
      <trkpt lat="47.46470022015273571014404296875" lon="9.95820321142673492431640625">
        <ele>778.5999755859375</ele>
        <time>2026-09-01T10:42:39.000Z</time>
        <extensions>
          <ns3:TrackPointExtension>
            <ns3:hr>161</ns3:hr>
            <ns3:cad>96</ns3:cad>
          </ns3:TrackPointExtension>
        </extensions>
      </trkpt>
      <trkpt lat="47.4646790139377117156982421875" lon="9.95823715813457965850830078125">
        <ele>777.20001220703125</ele>
        <time>2026-09-01T10:42:41.000Z</time>
        <extensions>
          <ns3:TrackPointExtension>
            <ns3:hr>161</ns3:hr>
            <ns3:cad>100</ns3:cad>
          </ns3:TrackPointExtension>
        </extensions>
      </trkpt>
      <trkpt lat="47.46466199867427349090576171875" lon="9.95827185921370983123779296875">
        <ele>775.5999755859375</ele>
        <time>2026-09-01T10:42:43.000Z</time>
        <extensions>
          <ns3:TrackPointExtension>
            <ns3:hr>162</ns3:hr>
            <ns3:cad>100</ns3:cad>
          </ns3:TrackPointExtension>
        </extensions>
      </trkpt>
      <trkpt lat="47.4646481685340404510498046875" lon="9.9582935683429241180419921875">
        <ele>774</ele>
        <time>2026-09-01T10:42:45.000Z</time>
        <extensions>
          <ns3:TrackPointExtension>
            <ns3:hr>162</ns3:hr>
            <ns3:cad>100</ns3:cad>
          </ns3:TrackPointExtension>
        </extensions>
      </trkpt>
      <trkpt lat="47.46462696231901645660400390625" lon="9.9583220668137073516845703125">
        <ele>772.20001220703125</ele>
        <time>2026-09-01T10:42:47.000Z</time>
        <extensions>
          <ns3:TrackPointExtension>
            <ns3:hr>161</ns3:hr>
            <ns3:cad>100</ns3:cad>
          </ns3:TrackPointExtension>
        </extensions>
      </trkpt>
      <trkpt lat="47.4646263755857944488525390625" lon="9.9583482183516025543212890625">
        <ele>771.20001220703125</ele>
        <time>2026-09-01T10:42:48.000Z</time>
        <extensions>
          <ns3:TrackPointExtension>
            <ns3:hr>161</ns3:hr>
            <ns3:cad>0</ns3:cad>
          </ns3:TrackPointExtension>
        </extensions>
      </trkpt>
      <trkpt lat="47.46463366784155368804931640625" lon="9.958438239991664886474609375">
        <ele>769.4000244140625</ele>
        <time>2026-09-01T10:42:50.000Z</time>
        <extensions>
          <ns3:TrackPointExtension>
            <ns3:hr>160</ns3:hr>
            <ns3:cad>0</ns3:cad>
          </ns3:TrackPointExtension>
        </extensions>
      </trkpt>
      <trkpt lat="47.46463350020349025726318359375" lon="9.9585088156163692474365234375">
        <ele>767.5999755859375</ele>
        <time>2026-09-01T10:42:52.000Z</time>
        <extensions>
          <ns3:TrackPointExtension>
            <ns3:hr>161</ns3:hr>
            <ns3:cad>88</ns3:cad>
          </ns3:TrackPointExtension>
        </extensions>
      </trkpt>
      <trkpt lat="47.46461489237844944000244140625" lon="9.9585222266614437103271484375">
        <ele>767</ele>
        <time>2026-09-01T10:42:53.000Z</time>
        <extensions>
          <ns3:TrackPointExtension>
            <ns3:hr>161</ns3:hr>
            <ns3:cad>88</ns3:cad>
          </ns3:TrackPointExtension>
        </extensions>
      </trkpt>
      <trkpt lat="47.46459410525858402252197265625" lon="9.9585195444524288177490234375">
        <ele>766.4000244140625</ele>
        <time>2026-09-01T10:42:54.000Z</time>
        <extensions>
          <ns3:TrackPointExtension>
            <ns3:hr>161</ns3:hr>
            <ns3:cad>88</ns3:cad>
          </ns3:TrackPointExtension>
        </extensions>
      </trkpt>
      <trkpt lat="47.46457180939614772796630859375" lon="9.958507306873798370361328125">
        <ele>765.5999755859375</ele>
        <time>2026-09-01T10:42:55.000Z</time>
        <extensions>
          <ns3:TrackPointExtension>
            <ns3:hr>161</ns3:hr>
            <ns3:cad>88</ns3:cad>
          </ns3:TrackPointExtension>
        </extensions>
      </trkpt>
      <trkpt lat="47.46455906890332698822021484375" lon="9.9584836699068546295166015625">
        <ele>765</ele>
        <time>2026-09-01T10:42:56.000Z</time>
        <extensions>
          <ns3:TrackPointExtension>
            <ns3:hr>160</ns3:hr>
            <ns3:cad>88</ns3:cad>
          </ns3:TrackPointExtension>
        </extensions>
      </trkpt>
      <trkpt lat="47.46452369727194309234619140625" lon="9.958405382931232452392578125">
        <ele>762.79998779296875</ele>
        <time>2026-09-01T10:42:58.000Z</time>
        <extensions>
          <ns3:TrackPointExtension>
            <ns3:hr>159</ns3:hr>
            <ns3:cad>88</ns3:cad>
          </ns3:TrackPointExtension>
        </extensions>
      </trkpt>
      <trkpt lat="47.4645113758742809295654296875" lon="9.95836816728115081787109375">
        <ele>761.79998779296875</ele>
        <time>2026-09-01T10:42:59.000Z</time>
        <extensions>
          <ns3:TrackPointExtension>
            <ns3:hr>160</ns3:hr>
            <ns3:cad>88</ns3:cad>
          </ns3:TrackPointExtension>
        </extensions>
      </trkpt>
      <trkpt lat="47.46448564343154430389404296875" lon="9.95829851366579532623291015625">
        <ele>760.4000244140625</ele>
        <time>2026-09-01T10:43:01.000Z</time>
        <extensions>
          <ns3:TrackPointExtension>
            <ns3:hr>160</ns3:hr>
            <ns3:cad>83</ns3:cad>
          </ns3:TrackPointExtension>
        </extensions>
      </trkpt>
      <trkpt lat="47.46447139419615268707275390625" lon="9.9583029560744762420654296875">
        <ele>759.79998779296875</ele>
        <time>2026-09-01T10:43:02.000Z</time>
        <extensions>
          <ns3:TrackPointExtension>
            <ns3:hr>160</ns3:hr>
            <ns3:cad>83</ns3:cad>
          </ns3:TrackPointExtension>
        </extensions>
      </trkpt>
      <trkpt lat="47.4644812010228633880615234375" lon="9.958320222795009613037109375">
        <ele>759.4000244140625</ele>
        <time>2026-09-01T10:43:03.000Z</time>
        <extensions>
          <ns3:TrackPointExtension>
            <ns3:hr>161</ns3:hr>
            <ns3:cad>83</ns3:cad>
          </ns3:TrackPointExtension>
        </extensions>
      </trkpt>
      <trkpt lat="47.464490421116352081298828125" lon="9.958361797034740447998046875">
        <ele>759</ele>
        <time>2026-09-01T10:43:04.000Z</time>
        <extensions>
          <ns3:TrackPointExtension>
            <ns3:hr>160</ns3:hr>
            <ns3:cad>83</ns3:cad>
          </ns3:TrackPointExtension>
        </extensions>
      </trkpt>
      <trkpt lat="47.4645016528666019439697265625" lon="9.958457015454769134521484375">
        <ele>758.4000244140625</ele>
        <time>2026-09-01T10:43:06.000Z</time>
        <extensions>
          <ns3:TrackPointExtension>
            <ns3:hr>160</ns3:hr>
            <ns3:cad>83</ns3:cad>
          </ns3:TrackPointExtension>
        </extensions>
      </trkpt>
      <trkpt lat="47.46447491459548473358154296875" lon="9.958570003509521484375">
        <ele>758</ele>
        <time>2026-09-01T10:43:08.000Z</time>
        <extensions>
          <ns3:TrackPointExtension>
            <ns3:hr>160</ns3:hr>
            <ns3:cad>83</ns3:cad>
          </ns3:TrackPointExtension>
        </extensions>
      </trkpt>
      <trkpt lat="47.464450858533382415771484375" lon="9.95862859301269054412841796875">
        <ele>757.79998779296875</ele>
        <time>2026-09-01T10:43:09.000Z</time>
        <extensions>
          <ns3:TrackPointExtension>
            <ns3:hr>161</ns3:hr>
            <ns3:cad>83</ns3:cad>
          </ns3:TrackPointExtension>
        </extensions>
      </trkpt>
      <trkpt lat="47.4643819592893123626708984375" lon="9.95875976979732513427734375">
        <ele>757</ele>
        <time>2026-09-01T10:43:12.000Z</time>
        <extensions>
          <ns3:TrackPointExtension>
            <ns3:hr>162</ns3:hr>
            <ns3:cad>83</ns3:cad>
          </ns3:TrackPointExtension>
        </extensions>
      </trkpt>
      <trkpt lat="47.46434935368597507476806640625" lon="9.95880310423672199249267578125">
        <ele>756.79998779296875</ele>
        <time>2026-09-01T10:43:13.000Z</time>
        <extensions>
          <ns3:TrackPointExtension>
            <ns3:hr>162</ns3:hr>
            <ns3:cad>83</ns3:cad>
          </ns3:TrackPointExtension>
        </extensions>
      </trkpt>
      <trkpt lat="47.4642741680145263671875" lon="9.958926737308502197265625">
        <ele>756.20001220703125</ele>
        <time>2026-09-01T10:43:16.000Z</time>
        <extensions>
          <ns3:TrackPointExtension>
            <ns3:hr>162</ns3:hr>
            <ns3:cad>86</ns3:cad>
          </ns3:TrackPointExtension>
        </extensions>
      </trkpt>
      <trkpt lat="47.46423058211803436279296875" lon="9.9590445868670940399169921875">
        <ele>756</ele>
        <time>2026-09-01T10:43:19.000Z</time>
        <extensions>
          <ns3:TrackPointExtension>
            <ns3:hr>164</ns3:hr>
            <ns3:cad>86</ns3:cad>
          </ns3:TrackPointExtension>
        </extensions>
      </trkpt>
      <trkpt lat="47.46416897512972354888916015625" lon="9.95916746556758880615234375">
        <ele>756.4000244140625</ele>
        <time>2026-09-01T10:43:22.000Z</time>
        <extensions>
          <ns3:TrackPointExtension>
            <ns3:hr>164</ns3:hr>
            <ns3:cad>86</ns3:cad>
          </ns3:TrackPointExtension>
        </extensions>
      </trkpt>
      <trkpt lat="47.46410627849400043487548828125" lon="9.95926997624337673187255859375">
        <ele>756.5999755859375</ele>
        <time>2026-09-01T10:43:25.000Z</time>
        <extensions>
          <ns3:TrackPointExtension>
            <ns3:hr>164</ns3:hr>
            <ns3:cad>87</ns3:cad>
          </ns3:TrackPointExtension>
        </extensions>
      </trkpt>
      <trkpt lat="47.46402044780552387237548828125" lon="9.9594569765031337738037109375">
        <ele>757.4000244140625</ele>
        <time>2026-09-01T10:43:30.000Z</time>
        <extensions>
          <ns3:TrackPointExtension>
            <ns3:hr>165</ns3:hr>
            <ns3:cad>87</ns3:cad>
          </ns3:TrackPointExtension>
        </extensions>
      </trkpt>
      <trkpt lat="47.4639269895851612091064453125" lon="9.95966057293117046356201171875">
        <ele>757.79998779296875</ele>
        <time>2026-09-01T10:43:35.000Z</time>
        <extensions>
          <ns3:TrackPointExtension>
            <ns3:hr>167</ns3:hr>
            <ns3:cad>86</ns3:cad>
          </ns3:TrackPointExtension>
        </extensions>
      </trkpt>
      <trkpt lat="47.46384300291538238525390625" lon="9.95985117740929126739501953125">
        <ele>757.20001220703125</ele>
        <time>2026-09-01T10:43:39.000Z</time>
        <extensions>
          <ns3:TrackPointExtension>
            <ns3:hr>168</ns3:hr>
            <ns3:cad>86</ns3:cad>
          </ns3:TrackPointExtension>
        </extensions>
      </trkpt>
      <trkpt lat="47.463740408420562744140625" lon="9.96008880436420440673828125">
        <ele>756.5999755859375</ele>
        <time>2026-09-01T10:43:44.000Z</time>
        <extensions>
          <ns3:TrackPointExtension>
            <ns3:hr>168</ns3:hr>
            <ns3:cad>86</ns3:cad>
          </ns3:TrackPointExtension>
        </extensions>
      </trkpt>
      <trkpt lat="47.4636554159224033355712890625" lon="9.96033162809908390045166015625">
        <ele>756</ele>
        <time>2026-09-01T10:43:49.000Z</time>
        <extensions>
          <ns3:TrackPointExtension>
            <ns3:hr>170</ns3:hr>
            <ns3:cad>85</ns3:cad>
          </ns3:TrackPointExtension>
        </extensions>
      </trkpt>
      <trkpt lat="47.4636480398476123809814453125" lon="9.96044193394482135772705078125">
        <ele>755.79998779296875</ele>
        <time>2026-09-01T10:43:51.000Z</time>
        <extensions>
          <ns3:TrackPointExtension>
            <ns3:hr>170</ns3:hr>
            <ns3:cad>85</ns3:cad>
          </ns3:TrackPointExtension>
        </extensions>
      </trkpt>
      <trkpt lat="47.463644854724407196044921875" lon="9.96049650013446807861328125">
        <ele>755.5999755859375</ele>
        <time>2026-09-01T10:43:52.000Z</time>
        <extensions>
          <ns3:TrackPointExtension>
            <ns3:hr>170</ns3:hr>
            <ns3:cad>85</ns3:cad>
          </ns3:TrackPointExtension>
        </extensions>
      </trkpt>
      <trkpt lat="47.46363923884928226470947265625" lon="9.96062532998621463775634765625">
        <ele>755.79998779296875</ele>
        <time>2026-09-01T10:43:55.000Z</time>
        <extensions>
          <ns3:TrackPointExtension>
            <ns3:hr>171</ns3:hr>
            <ns3:cad>86</ns3:cad>
          </ns3:TrackPointExtension>
        </extensions>
      </trkpt>
      <trkpt lat="47.46364116668701171875" lon="9.96087075211107730865478515625">
        <ele>756.5999755859375</ele>
        <time>2026-09-01T10:44:00.000Z</time>
        <extensions>
          <ns3:TrackPointExtension>
            <ns3:hr>170</ns3:hr>
            <ns3:cad>86</ns3:cad>
          </ns3:TrackPointExtension>
        </extensions>
      </trkpt>
      <trkpt lat="47.4636478722095489501953125" lon="9.961121119558811187744140625">
        <ele>756.5999755859375</ele>
        <time>2026-09-01T10:44:05.000Z</time>
        <extensions>
          <ns3:TrackPointExtension>
            <ns3:hr>170</ns3:hr>
            <ns3:cad>86</ns3:cad>
          </ns3:TrackPointExtension>
        </extensions>
      </trkpt>
      <trkpt lat="47.4636532366275787353515625" lon="9.961222708225250244140625">
        <ele>756.79998779296875</ele>
        <time>2026-09-01T10:44:07.000Z</time>
        <extensions>
          <ns3:TrackPointExtension>
            <ns3:hr>169</ns3:hr>
            <ns3:cad>86</ns3:cad>
          </ns3:TrackPointExtension>
        </extensions>
      </trkpt>
      <trkpt lat="47.46365818195044994354248046875" lon="9.96132354252040386199951171875">
        <ele>757</ele>
        <time>2026-09-01T10:44:09.000Z</time>
        <extensions>
          <ns3:TrackPointExtension>
            <ns3:hr>169</ns3:hr>
            <ns3:cad>86</ns3:cad>
          </ns3:TrackPointExtension>
        </extensions>
      </trkpt>
      <trkpt lat="47.46374149806797504425048828125" lon="9.9615219421684741973876953125">
        <ele>757.5999755859375</ele>
        <time>2026-09-01T10:44:14.000Z</time>
        <extensions>
          <ns3:TrackPointExtension>
            <ns3:hr>170</ns3:hr>
            <ns3:cad>87</ns3:cad>
          </ns3:TrackPointExtension>
        </extensions>
      </trkpt>
      <trkpt lat="47.463758178055286407470703125" lon="9.96154197491705417633056640625">
        <ele>757.79998779296875</ele>
        <time>2026-09-01T10:44:15.000Z</time>
        <extensions>
          <ns3:TrackPointExtension>
            <ns3:hr>170</ns3:hr>
            <ns3:cad>87</ns3:cad>
          </ns3:TrackPointExtension>
        </extensions>
      </trkpt>
      <trkpt lat="47.463756166398525238037109375" lon="9.96156812645494937896728515625">
        <ele>758</ele>
        <time>2026-09-01T10:44:16.000Z</time>
        <extensions>
          <ns3:TrackPointExtension>
            <ns3:hr>170</ns3:hr>
            <ns3:cad>85</ns3:cad>
          </ns3:TrackPointExtension>
        </extensions>
      </trkpt>
      <trkpt lat="47.46374200098216533660888671875" lon="9.96156577952206134796142578125">
        <ele>758.4000244140625</ele>
        <time>2026-09-01T10:44:17.000Z</time>
        <extensions>
          <ns3:TrackPointExtension>
            <ns3:hr>170</ns3:hr>
            <ns3:cad>85</ns3:cad>
          </ns3:TrackPointExtension>
        </extensions>
      </trkpt>
      <trkpt lat="47.46372540481388568878173828125" lon="9.96155169792473316192626953125">
        <ele>758.79998779296875</ele>
        <time>2026-09-01T10:44:18.000Z</time>
        <extensions>
          <ns3:TrackPointExtension>
            <ns3:hr>170</ns3:hr>
            <ns3:cad>89</ns3:cad>
          </ns3:TrackPointExtension>
        </extensions>
      </trkpt>
      <trkpt lat="47.4636554159224033355712890625" lon="9.96149604208767414093017578125">
        <ele>759.20001220703125</ele>
        <time>2026-09-01T10:44:21.000Z</time>
        <extensions>
          <ns3:TrackPointExtension>
            <ns3:hr>171</ns3:hr>
            <ns3:cad>89</ns3:cad>
          </ns3:TrackPointExtension>
        </extensions>
      </trkpt>
      <trkpt lat="47.46352692134678363800048828125" lon="9.961400739848613739013671875">
        <ele>758.4000244140625</ele>
        <time>2026-09-01T10:44:25.000Z</time>
        <extensions>
          <ns3:TrackPointExtension>
            <ns3:hr>172</ns3:hr>
            <ns3:cad>86</ns3:cad>
          </ns3:TrackPointExtension>
        </extensions>
      </trkpt>
      <trkpt lat="47.4634177051484584808349609375" lon="9.96130728162825107574462890625">
        <ele>758.4000244140625</ele>
        <time>2026-09-01T10:44:29.000Z</time>
        <extensions>
          <ns3:TrackPointExtension>
            <ns3:hr>173</ns3:hr>
            <ns3:cad>85</ns3:cad>
          </ns3:TrackPointExtension>
        </extensions>
      </trkpt>
      <trkpt lat="47.46330195106565952301025390625" lon="9.9611950479447841644287109375">
        <ele>758.79998779296875</ele>
        <time>2026-09-01T10:44:33.000Z</time>
        <extensions>
          <ns3:TrackPointExtension>
            <ns3:hr>173</ns3:hr>
            <ns3:cad>85</ns3:cad>
          </ns3:TrackPointExtension>
        </extensions>
      </trkpt>
      <trkpt lat="47.4632079899311065673828125" lon="9.96106554754078388214111328125">
        <ele>758.79998779296875</ele>
        <time>2026-09-01T10:44:37.000Z</time>
        <extensions>
          <ns3:TrackPointExtension>
            <ns3:hr>172</ns3:hr>
            <ns3:cad>85</ns3:cad>
          </ns3:TrackPointExtension>
        </extensions>
      </trkpt>
      <trkpt lat="47.4631558544933795928955078125" lon="9.96100720949470996856689453125">
        <ele>758.79998779296875</ele>
        <time>2026-09-01T10:44:39.000Z</time>
        <extensions>
          <ns3:TrackPointExtension>
            <ns3:hr>173</ns3:hr>
            <ns3:cad>85</ns3:cad>
          </ns3:TrackPointExtension>
        </extensions>
      </trkpt>
      <trkpt lat="47.46310447342693805694580078125" lon="9.96095306240022182464599609375">
        <ele>759</ele>
        <time>2026-09-01T10:44:41.000Z</time>
        <extensions>
          <ns3:TrackPointExtension>
            <ns3:hr>173</ns3:hr>
            <ns3:cad>85</ns3:cad>
          </ns3:TrackPointExtension>
        </extensions>
      </trkpt>
      <trkpt lat="47.46301327832043170928955078125" lon="9.9608151800930500030517578125">
        <ele>759.4000244140625</ele>
        <time>2026-09-01T10:44:45.000Z</time>
        <extensions>
          <ns3:TrackPointExtension>
            <ns3:hr>173</ns3:hr>
            <ns3:cad>85</ns3:cad>
          </ns3:TrackPointExtension>
        </extensions>
      </trkpt>
      <trkpt lat="47.46294437907636165618896484375" lon="9.96069892309606075286865234375">
        <ele>759.20001220703125</ele>
        <time>2026-09-01T10:44:48.000Z</time>
        <extensions>
          <ns3:TrackPointExtension>
            <ns3:hr>173</ns3:hr>
            <ns3:cad>87</ns3:cad>
          </ns3:TrackPointExtension>
        </extensions>
      </trkpt>
      <trkpt lat="47.46286106295883655548095703125" lon="9.960551150143146514892578125">
        <ele>760</ele>
        <time>2026-09-01T10:44:52.000Z</time>
        <extensions>
          <ns3:TrackPointExtension>
            <ns3:hr>173</ns3:hr>
            <ns3:cad>86</ns3:cad>
          </ns3:TrackPointExtension>
        </extensions>
      </trkpt>
      <trkpt lat="47.46281831525266170501708984375" lon="9.9604882858693599700927734375">
        <ele>760.20001220703125</ele>
        <time>2026-09-01T10:44:54.000Z</time>
        <extensions>
          <ns3:TrackPointExtension>
            <ns3:hr>174</ns3:hr>
            <ns3:cad>86</ns3:cad>
          </ns3:TrackPointExtension>
        </extensions>
      </trkpt>
      <trkpt lat="47.462737262248992919921875" lon="9.96038963086903095245361328125">
        <ele>760.4000244140625</ele>
        <time>2026-09-01T10:44:57.000Z</time>
        <extensions>
          <ns3:TrackPointExtension>
            <ns3:hr>174</ns3:hr>
            <ns3:cad>86</ns3:cad>
          </ns3:TrackPointExtension>
        </extensions>
      </trkpt>
      <trkpt lat="47.46263408102095127105712890625" lon="9.96029374189674854278564453125">
        <ele>760.4000244140625</ele>
        <time>2026-09-01T10:45:02.000Z</time>
        <extensions>
          <ns3:TrackPointExtension>
            <ns3:hr>174</ns3:hr>
            <ns3:cad>85</ns3:cad>
          </ns3:TrackPointExtension>
        </extensions>
      </trkpt>
      <trkpt lat="47.46263659559190273284912109375" lon="9.96029223315417766571044921875">
        <ele>760.4000244140625</ele>
        <time>2026-09-01T10:45:05.000Z</time>
        <extensions>
          <ns3:TrackPointExtension>
            <ns3:hr>173</ns3:hr>
            <ns3:cad>0</ns3:cad>
          </ns3:TrackPointExtension>
        </extensions>
      </trkpt>
      <trkpt lat="47.46259334497153759002685546875" lon="9.96025719679892063140869140625">
        <ele>760.4000244140625</ele>
        <time>2026-09-01T10:45:07.000Z</time>
        <extensions>
          <ns3:TrackPointExtension>
            <ns3:hr>169</ns3:hr>
            <ns3:cad>88</ns3:cad>
          </ns3:TrackPointExtension>
        </extensions>
      </trkpt>
      <trkpt lat="47.4624864757061004638671875" lon="9.96017061173915863037109375">
        <ele>761</ele>
        <time>2026-09-01T10:45:11.000Z</time>
        <extensions>
          <ns3:TrackPointExtension>
            <ns3:hr>167</ns3:hr>
            <ns3:cad>84</ns3:cad>
          </ns3:TrackPointExtension>
        </extensions>
      </trkpt>
      <trkpt lat="47.46246610768139362335205078125" lon="9.96014655567705631256103515625">
        <ele>761</ele>
        <time>2026-09-01T10:45:12.000Z</time>
        <extensions>
          <ns3:TrackPointExtension>
            <ns3:hr>168</ns3:hr>
            <ns3:cad>85</ns3:cad>
          </ns3:TrackPointExtension>
        </extensions>
      </trkpt>
      <trkpt lat="47.46235907077789306640625" lon="9.96004546992480754852294921875">
        <ele>761.20001220703125</ele>
        <time>2026-09-01T10:45:16.000Z</time>
        <extensions>
          <ns3:TrackPointExtension>
            <ns3:hr>169</ns3:hr>
            <ns3:cad>86</ns3:cad>
          </ns3:TrackPointExtension>
        </extensions>
      </trkpt>
      <trkpt lat="47.4622325040400028228759765625" lon="9.959913454949855804443359375">
        <ele>761.79998779296875</ele>
        <time>2026-09-01T10:45:21.000Z</time>
        <extensions>
          <ns3:TrackPointExtension>
            <ns3:hr>171</ns3:hr>
            <ns3:cad>86</ns3:cad>
          </ns3:TrackPointExtension>
        </extensions>
      </trkpt>
      <trkpt lat="47.46213669888675212860107421875" lon="9.9597810208797454833984375">
        <ele>761.79998779296875</ele>
        <time>2026-09-01T10:45:25.000Z</time>
        <extensions>
          <ns3:TrackPointExtension>
            <ns3:hr>172</ns3:hr>
            <ns3:cad>86</ns3:cad>
          </ns3:TrackPointExtension>
        </extensions>
      </trkpt>
      <trkpt lat="47.462079115211963653564453125" lon="9.9597218446433544158935546875">
        <ele>762</ele>
        <time>2026-09-01T10:45:27.000Z</time>
        <extensions>
          <ns3:TrackPointExtension>
            <ns3:hr>173</ns3:hr>
            <ns3:cad>86</ns3:cad>
          </ns3:TrackPointExtension>
        </extensions>
      </trkpt>
      <trkpt lat="47.46199387125670909881591796875" lon="9.9597084335982799530029296875">
        <ele>762.5999755859375</ele>
        <time>2026-09-01T10:45:30.000Z</time>
        <extensions>
          <ns3:TrackPointExtension>
            <ns3:hr>173</ns3:hr>
            <ns3:cad>86</ns3:cad>
          </ns3:TrackPointExtension>
        </extensions>
      </trkpt>
      <trkpt lat="47.4619441665709018707275390625" lon="9.95971195399761199951171875">
        <ele>763.20001220703125</ele>
        <time>2026-09-01T10:45:32.000Z</time>
        <extensions>
          <ns3:TrackPointExtension>
            <ns3:hr>173</ns3:hr>
            <ns3:cad>86</ns3:cad>
          </ns3:TrackPointExtension>
        </extensions>
      </trkpt>
      <trkpt lat="47.46190284378826618194580078125" lon="9.95971488766372203826904296875">
        <ele>764.4000244140625</ele>
        <time>2026-09-01T10:45:34.000Z</time>
        <extensions>
          <ns3:TrackPointExtension>
            <ns3:hr>173</ns3:hr>
            <ns3:cad>89</ns3:cad>
          </ns3:TrackPointExtension>
        </extensions>
      </trkpt>
      <trkpt lat="47.4618341960012912750244140625" lon="9.95972159318625926971435546875">
        <ele>765.5999755859375</ele>
        <time>2026-09-01T10:45:37.000Z</time>
        <extensions>
          <ns3:TrackPointExtension>
            <ns3:hr>173</ns3:hr>
            <ns3:cad>89</ns3:cad>
          </ns3:TrackPointExtension>
        </extensions>
      </trkpt>
      <trkpt lat="47.46178197674453258514404296875" lon="9.95972192846238613128662109375">
        <ele>767</ele>
        <time>2026-09-01T10:45:40.000Z</time>
        <extensions>
          <ns3:TrackPointExtension>
            <ns3:hr>173</ns3:hr>
            <ns3:cad>87</ns3:cad>
          </ns3:TrackPointExtension>
        </extensions>
      </trkpt>
      <trkpt lat="47.46171039529144763946533203125" lon="9.95969980023801326751708984375">
        <ele>768.20001220703125</ele>
        <time>2026-09-01T10:45:43.000Z</time>
        <extensions>
          <ns3:TrackPointExtension>
            <ns3:hr>173</ns3:hr>
            <ns3:cad>88</ns3:cad>
          </ns3:TrackPointExtension>
        </extensions>
      </trkpt>
      <trkpt lat="47.46164652518928050994873046875" lon="9.959639869630336761474609375">
        <ele>769.20001220703125</ele>
        <time>2026-09-01T10:45:46.000Z</time>
        <extensions>
          <ns3:TrackPointExtension>
            <ns3:hr>174</ns3:hr>
            <ns3:cad>86</ns3:cad>
          </ns3:TrackPointExtension>
        </extensions>
      </trkpt>
      <trkpt lat="47.46164334006607532501220703125" lon="9.9596085213124752044677734375">
        <ele>769.4000244140625</ele>
        <time>2026-09-01T10:45:47.000Z</time>
        <extensions>
          <ns3:TrackPointExtension>
            <ns3:hr>175</ns3:hr>
            <ns3:cad>86</ns3:cad>
          </ns3:TrackPointExtension>
        </extensions>
      </trkpt>
      <trkpt lat="47.46159791015088558197021484375" lon="9.9595159851014614105224609375">
        <ele>770.5999755859375</ele>
        <time>2026-09-01T10:45:51.000Z</time>
        <extensions>
          <ns3:TrackPointExtension>
            <ns3:hr>175</ns3:hr>
            <ns3:cad>86</ns3:cad>
          </ns3:TrackPointExtension>
        </extensions>
      </trkpt>
      <trkpt lat="47.461561448872089385986328125" lon="9.95945270173251628875732421875">
        <ele>771.5999755859375</ele>
        <time>2026-09-01T10:45:54.000Z</time>
        <extensions>
          <ns3:TrackPointExtension>
            <ns3:hr>174</ns3:hr>
            <ns3:cad>86</ns3:cad>
          </ns3:TrackPointExtension>
        </extensions>
      </trkpt>
      <trkpt lat="47.46152331121265888214111328125" lon="9.9593798629939556121826171875">
        <ele>772.79998779296875</ele>
        <time>2026-09-01T10:45:57.000Z</time>
        <extensions>
          <ns3:TrackPointExtension>
            <ns3:hr>174</ns3:hr>
            <ns3:cad>86</ns3:cad>
          </ns3:TrackPointExtension>
        </extensions>
      </trkpt>
      <trkpt lat="47.4615101516246795654296875" lon="9.95935278944671154022216796875">
        <ele>773.20001220703125</ele>
        <time>2026-09-01T10:45:58.000Z</time>
        <extensions>
          <ns3:TrackPointExtension>
            <ns3:hr>174</ns3:hr>
            <ns3:cad>86</ns3:cad>
          </ns3:TrackPointExtension>
        </extensions>
      </trkpt>
      <trkpt lat="47.46149095706641674041748046875" lon="9.959311299026012420654296875">
        <ele>774</ele>
        <time>2026-09-01T10:46:00.000Z</time>
        <extensions>
          <ns3:TrackPointExtension>
            <ns3:hr>174</ns3:hr>
            <ns3:cad>87</ns3:cad>
          </ns3:TrackPointExtension>
        </extensions>
      </trkpt>
      <trkpt lat="47.4614684097468852996826171875" lon="9.9592501111328601837158203125">
        <ele>775</ele>
        <time>2026-09-01T10:46:03.000Z</time>
        <extensions>
          <ns3:TrackPointExtension>
            <ns3:hr>174</ns3:hr>
            <ns3:cad>43</ns3:cad>
          </ns3:TrackPointExtension>
        </extensions>
      </trkpt>
      <trkpt lat="47.4614724330604076385498046875" lon="9.95923980139195919036865234375">
        <ele>775.5999755859375</ele>
        <time>2026-09-01T10:46:04.000Z</time>
        <extensions>
          <ns3:TrackPointExtension>
            <ns3:hr>174</ns3:hr>
            <ns3:cad>43</ns3:cad>
          </ns3:TrackPointExtension>
        </extensions>
      </trkpt>
      <trkpt lat="47.4614563398063182830810546875" lon="9.95920459739863872528076171875">
        <ele>776.4000244140625</ele>
        <time>2026-09-01T10:46:06.000Z</time>
        <extensions>
          <ns3:TrackPointExtension>
            <ns3:hr>174</ns3:hr>
            <ns3:cad>86</ns3:cad>
          </ns3:TrackPointExtension>
        </extensions>
      </trkpt>
      <trkpt lat="47.4614546634256839752197265625" lon="9.95915564708411693572998046875">
        <ele>777.5999755859375</ele>
        <time>2026-09-01T10:46:09.000Z</time>
        <extensions>
          <ns3:TrackPointExtension>
            <ns3:hr>174</ns3:hr>
            <ns3:cad>0</ns3:cad>
          </ns3:TrackPointExtension>
        </extensions>
      </trkpt>
      <trkpt lat="47.46145642362534999847412109375" lon="9.95914324186742305755615234375">
        <ele>778</ele>
        <time>2026-09-01T10:46:10.000Z</time>
        <extensions>
          <ns3:TrackPointExtension>
            <ns3:hr>173</ns3:hr>
            <ns3:cad>0</ns3:cad>
          </ns3:TrackPointExtension>
        </extensions>
      </trkpt>
      <trkpt lat="47.46145457960665225982666015625" lon="9.95910175144672393798828125">
        <ele>778.79998779296875</ele>
        <time>2026-09-01T10:46:13.000Z</time>
        <extensions>
          <ns3:TrackPointExtension>
            <ns3:hr>174</ns3:hr>
            <ns3:cad>60</ns3:cad>
          </ns3:TrackPointExtension>
        </extensions>
      </trkpt>
      <trkpt lat="47.46143278665840625762939453125" lon="9.95901885442435741424560546875">
        <ele>779.4000244140625</ele>
        <time>2026-09-01T10:46:16.000Z</time>
        <extensions>
          <ns3:TrackPointExtension>
            <ns3:hr>173</ns3:hr>
            <ns3:cad>60</ns3:cad>
          </ns3:TrackPointExtension>
        </extensions>
      </trkpt>
      <trkpt lat="47.4614254944026470184326171875" lon="9.9589956365525722503662109375">
        <ele>779.79998779296875</ele>
        <time>2026-09-01T10:46:17.000Z</time>
        <extensions>
          <ns3:TrackPointExtension>
            <ns3:hr>174</ns3:hr>
            <ns3:cad>60</ns3:cad>
          </ns3:TrackPointExtension>
        </extensions>
      </trkpt>
      <trkpt lat="47.46139020659029483795166015625" lon="9.95892128907144069671630859375">
        <ele>780.79998779296875</ele>
        <time>2026-09-01T10:46:20.000Z</time>
        <extensions>
          <ns3:TrackPointExtension>
            <ns3:hr>174</ns3:hr>
            <ns3:cad>85</ns3:cad>
          </ns3:TrackPointExtension>
        </extensions>
      </trkpt>
      <trkpt lat="47.46135483495891094207763671875" lon="9.95884333737194538116455078125">
        <ele>782</ele>
        <time>2026-09-01T10:46:23.000Z</time>
        <extensions>
          <ns3:TrackPointExtension>
            <ns3:hr>174</ns3:hr>
            <ns3:cad>86</ns3:cad>
          </ns3:TrackPointExtension>
        </extensions>
      </trkpt>
      <trkpt lat="47.461310327053070068359375" lon="9.9587723426520824432373046875">
        <ele>783.20001220703125</ele>
        <time>2026-09-01T10:46:26.000Z</time>
        <extensions>
          <ns3:TrackPointExtension>
            <ns3:hr>174</ns3:hr>
            <ns3:cad>86</ns3:cad>
          </ns3:TrackPointExtension>
        </extensions>
      </trkpt>
      <trkpt lat="47.46128325350582599639892578125" lon="9.95873353444039821624755859375">
        <ele>783.79998779296875</ele>
        <time>2026-09-01T10:46:28.000Z</time>
        <extensions>
          <ns3:TrackPointExtension>
            <ns3:hr>174</ns3:hr>
            <ns3:cad>87</ns3:cad>
          </ns3:TrackPointExtension>
        </extensions>
      </trkpt>
      <trkpt lat="47.46127285994589328765869140625" lon="9.958718530833721160888671875">
        <ele>784.20001220703125</ele>
        <time>2026-09-01T10:46:29.000Z</time>
        <extensions>
          <ns3:TrackPointExtension>
            <ns3:hr>174</ns3:hr>
            <ns3:cad>87</ns3:cad>
          </ns3:TrackPointExtension>
        </extensions>
      </trkpt>
      <trkpt lat="47.46123497374355792999267578125" lon="9.95869464240968227386474609375">
        <ele>785.5999755859375</ele>
        <time>2026-09-01T10:46:33.000Z</time>
        <extensions>
          <ns3:TrackPointExtension>
            <ns3:hr>174</ns3:hr>
            <ns3:cad>0</ns3:cad>
          </ns3:TrackPointExtension>
        </extensions>
      </trkpt>
      <trkpt lat="47.4612099118530750274658203125" lon="9.95869673788547515869140625">
        <ele>786.5999755859375</ele>
        <time>2026-09-01T10:46:35.000Z</time>
        <extensions>
          <ns3:TrackPointExtension>
            <ns3:hr>174</ns3:hr>
            <ns3:cad>0</ns3:cad>
          </ns3:TrackPointExtension>
        </extensions>
      </trkpt>
      <trkpt lat="47.461177222430706024169921875" lon="9.9587170220911502838134765625">
        <ele>787.5999755859375</ele>
        <time>2026-09-01T10:46:37.000Z</time>
        <extensions>
          <ns3:TrackPointExtension>
            <ns3:hr>174</ns3:hr>
            <ns3:cad>0</ns3:cad>
          </ns3:TrackPointExtension>
        </extensions>
      </trkpt>
      <trkpt lat="47.461155764758586883544921875" lon="9.95873889885842800140380859375">
        <ele>788</ele>
        <time>2026-09-01T10:46:38.000Z</time>
        <extensions>
          <ns3:TrackPointExtension>
            <ns3:hr>174</ns3:hr>
            <ns3:cad>83</ns3:cad>
          </ns3:TrackPointExtension>
        </extensions>
      </trkpt>
      <trkpt lat="47.4611260928213596343994140625" lon="9.95877326466143131256103515625">
        <ele>788.79998779296875</ele>
        <time>2026-09-01T10:46:40.000Z</time>
        <extensions>
          <ns3:TrackPointExtension>
            <ns3:hr>175</ns3:hr>
            <ns3:cad>86</ns3:cad>
          </ns3:TrackPointExtension>
        </extensions>
      </trkpt>
      <trkpt lat="47.461112849414348602294921875" lon="9.9587832391262054443359375">
        <ele>789.20001220703125</ele>
        <time>2026-09-01T10:46:41.000Z</time>
        <extensions>
          <ns3:TrackPointExtension>
            <ns3:hr>175</ns3:hr>
            <ns3:cad>86</ns3:cad>
          </ns3:TrackPointExtension>
        </extensions>
      </trkpt>
      <trkpt lat="47.461059205234050750732421875" lon="9.95882414281368255615234375">
        <ele>790</ele>
        <time>2026-09-01T10:46:44.000Z</time>
        <extensions>
          <ns3:TrackPointExtension>
            <ns3:hr>175</ns3:hr>
            <ns3:cad>85</ns3:cad>
          </ns3:TrackPointExtension>
        </extensions>
      </trkpt>
      <trkpt lat="47.4610193073749542236328125" lon="9.95882355608046054840087890625">
        <ele>790.5999755859375</ele>
        <time>2026-09-01T10:46:46.000Z</time>
        <extensions>
          <ns3:TrackPointExtension>
            <ns3:hr>175</ns3:hr>
            <ns3:cad>86</ns3:cad>
          </ns3:TrackPointExtension>
        </extensions>
      </trkpt>
      <trkpt lat="47.4609701894223690032958984375" lon="9.9587984941899776458740234375">
        <ele>791.20001220703125</ele>
        <time>2026-09-01T10:46:48.000Z</time>
        <extensions>
          <ns3:TrackPointExtension>
            <ns3:hr>176</ns3:hr>
            <ns3:cad>87</ns3:cad>
          </ns3:TrackPointExtension>
        </extensions>
      </trkpt>
      <trkpt lat="47.460916377604007720947265625" lon="9.95878818444907665252685546875">
        <ele>791.5999755859375</ele>
        <time>2026-09-01T10:46:50.000Z</time>
        <extensions>
          <ns3:TrackPointExtension>
            <ns3:hr>176</ns3:hr>
            <ns3:cad>87</ns3:cad>
          </ns3:TrackPointExtension>
        </extensions>
      </trkpt>
      <trkpt lat="47.46082551777362823486328125" lon="9.9587756954133510589599609375">
        <ele>792.20001220703125</ele>
        <time>2026-09-01T10:46:53.000Z</time>
        <extensions>
          <ns3:TrackPointExtension>
            <ns3:hr>176</ns3:hr>
            <ns3:cad>87</ns3:cad>
          </ns3:TrackPointExtension>
        </extensions>
      </trkpt>
      <trkpt lat="47.460788972675800323486328125" lon="9.9587723426520824432373046875">
        <ele>792.5999755859375</ele>
        <time>2026-09-01T10:46:54.000Z</time>
        <extensions>
          <ns3:TrackPointExtension>
            <ns3:hr>177</ns3:hr>
            <ns3:cad>86</ns3:cad>
          </ns3:TrackPointExtension>
        </extensions>
      </trkpt>
      <trkpt lat="47.46070884168148040771484375" lon="9.95878047309815883636474609375">
        <ele>793</ele>
        <time>2026-09-01T10:46:57.000Z</time>
        <extensions>
          <ns3:TrackPointExtension>
            <ns3:hr>177</ns3:hr>
            <ns3:cad>86</ns3:cad>
          </ns3:TrackPointExtension>
        </extensions>
      </trkpt>
      <trkpt lat="47.46062225662171840667724609375" lon="9.95881735347211360931396484375">
        <ele>793.4000244140625</ele>
        <time>2026-09-01T10:47:00.000Z</time>
        <extensions>
          <ns3:TrackPointExtension>
            <ns3:hr>176</ns3:hr>
            <ns3:cad>86</ns3:cad>
          </ns3:TrackPointExtension>
        </extensions>
      </trkpt>
      <trkpt lat="47.46056810952723026275634765625" lon="9.9588529765605926513671875">
        <ele>793.5999755859375</ele>
        <time>2026-09-01T10:47:02.000Z</time>
        <extensions>
          <ns3:TrackPointExtension>
            <ns3:hr>175</ns3:hr>
            <ns3:cad>86</ns3:cad>
          </ns3:TrackPointExtension>
        </extensions>
      </trkpt>
      <trkpt lat="47.46048077009618282318115234375" lon="9.9589007534086704254150390625">
        <ele>794</ele>
        <time>2026-09-01T10:47:05.000Z</time>
        <extensions>
          <ns3:TrackPointExtension>
            <ns3:hr>175</ns3:hr>
            <ns3:cad>87</ns3:cad>
          </ns3:TrackPointExtension>
        </extensions>
      </trkpt>
      <trkpt lat="47.46036820113658905029296875" lon="9.9589468538761138916015625">
        <ele>794.4000244140625</ele>
        <time>2026-09-01T10:47:09.000Z</time>
        <extensions>
          <ns3:TrackPointExtension>
            <ns3:hr>176</ns3:hr>
            <ns3:cad>85</ns3:cad>
          </ns3:TrackPointExtension>
        </extensions>
      </trkpt>
      <trkpt lat="47.46033157221972942352294921875" lon="9.95895531959831714630126953125">
        <ele>794.4000244140625</ele>
        <time>2026-09-01T10:47:10.000Z</time>
        <extensions>
          <ns3:TrackPointExtension>
            <ns3:hr>175</ns3:hr>
            <ns3:cad>85</ns3:cad>
          </ns3:TrackPointExtension>
        </extensions>
      </trkpt>
      <trkpt lat="47.46027424000203609466552734375" lon="9.9589584209024906158447265625">
        <ele>794.4000244140625</ele>
        <time>2026-09-01T10:47:12.000Z</time>
        <extensions>
          <ns3:TrackPointExtension>
            <ns3:hr>176</ns3:hr>
            <ns3:cad>85</ns3:cad>
          </ns3:TrackPointExtension>
        </extensions>
      </trkpt>
      <trkpt lat="47.4600954540073871612548828125" lon="9.95893570594489574432373046875">
        <ele>794.79998779296875</ele>
        <time>2026-09-01T10:47:17.000Z</time>
        <extensions>
          <ns3:TrackPointExtension>
            <ns3:hr>175</ns3:hr>
            <ns3:cad>85</ns3:cad>
          </ns3:TrackPointExtension>
        </extensions>
      </trkpt>
      <trkpt lat="47.45996226556599140167236328125" lon="9.958926737308502197265625">
        <ele>794</ele>
        <time>2026-09-01T10:47:21.000Z</time>
        <extensions>
          <ns3:TrackPointExtension>
            <ns3:hr>175</ns3:hr>
            <ns3:cad>84</ns3:cad>
          </ns3:TrackPointExtension>
        </extensions>
      </trkpt>
      <trkpt lat="47.45982849039137363433837890625" lon="9.958997480571269989013671875">
        <ele>793.79998779296875</ele>
        <time>2026-09-01T10:47:25.000Z</time>
        <extensions>
          <ns3:TrackPointExtension>
            <ns3:hr>174</ns3:hr>
            <ns3:cad>84</ns3:cad>
          </ns3:TrackPointExtension>
        </extensions>
      </trkpt>
      <trkpt lat="47.45970477350056171417236328125" lon="9.95912128128111362457275390625">
        <ele>793.79998779296875</ele>
        <time>2026-09-01T10:47:29.000Z</time>
        <extensions>
          <ns3:TrackPointExtension>
            <ns3:hr>173</ns3:hr>
            <ns3:cad>85</ns3:cad>
          </ns3:TrackPointExtension>
        </extensions>
      </trkpt>
      <trkpt lat="47.4595278315246105194091796875" lon="9.9592092074453830718994140625">
        <ele>794</ele>
        <time>2026-09-01T10:47:34.000Z</time>
        <extensions>
          <ns3:TrackPointExtension>
            <ns3:hr>174</ns3:hr>
            <ns3:cad>87</ns3:cad>
          </ns3:TrackPointExtension>
        </extensions>
      </trkpt>
      <trkpt lat="47.4594151787459850311279296875" lon="9.95923259295523166656494140625">
        <ele>794.20001220703125</ele>
        <time>2026-09-01T10:47:37.000Z</time>
        <extensions>
          <ns3:TrackPointExtension>
            <ns3:hr>174</ns3:hr>
            <ns3:cad>85</ns3:cad>
          </ns3:TrackPointExtension>
        </extensions>
      </trkpt>
      <trkpt lat="47.45923362672328948974609375" lon="9.95927148498594760894775390625">
        <ele>794</ele>
        <time>2026-09-01T10:47:42.000Z</time>
        <extensions>
          <ns3:TrackPointExtension>
            <ns3:hr>174</ns3:hr>
            <ns3:cad>86</ns3:cad>
          </ns3:TrackPointExtension>
        </extensions>
      </trkpt>
      <trkpt lat="47.459128014743328094482421875" lon="9.95933786965906620025634765625">
        <ele>793.5999755859375</ele>
        <time>2026-09-01T10:47:45.000Z</time>
        <extensions>
          <ns3:TrackPointExtension>
            <ns3:hr>174</ns3:hr>
            <ns3:cad>86</ns3:cad>
          </ns3:TrackPointExtension>
        </extensions>
      </trkpt>
      <trkpt lat="47.45900656096637248992919921875" lon="9.9594613350927829742431640625">
        <ele>793.4000244140625</ele>
        <time>2026-09-01T10:47:49.000Z</time>
        <extensions>
          <ns3:TrackPointExtension>
            <ns3:hr>173</ns3:hr>
            <ns3:cad>85</ns3:cad>
          </ns3:TrackPointExtension>
        </extensions>
      </trkpt>
      <trkpt lat="47.45889994315803050994873046875" lon="9.95953517965972423553466796875">
        <ele>793.79998779296875</ele>
        <time>2026-09-01T10:47:52.000Z</time>
        <extensions>
          <ns3:TrackPointExtension>
            <ns3:hr>173</ns3:hr>
            <ns3:cad>85</ns3:cad>
          </ns3:TrackPointExtension>
        </extensions>
      </trkpt>
      <trkpt lat="47.45876231230795383453369140625" lon="9.9596004746854305267333984375">
        <ele>794</ele>
        <time>2026-09-01T10:47:56.000Z</time>
        <extensions>
          <ns3:TrackPointExtension>
            <ns3:hr>173</ns3:hr>
            <ns3:cad>86</ns3:cad>
          </ns3:TrackPointExtension>
        </extensions>
      </trkpt>
      <trkpt lat="47.45858989655971527099609375" lon="9.95964850299060344696044921875">
        <ele>794.20001220703125</ele>
        <time>2026-09-01T10:48:01.000Z</time>
        <extensions>
          <ns3:TrackPointExtension>
            <ns3:hr>173</ns3:hr>
            <ns3:cad>88</ns3:cad>
          </ns3:TrackPointExtension>
        </extensions>
      </trkpt>
      <trkpt lat="47.4585655890405178070068359375" lon="9.959627129137516021728515625">
        <ele>794.20001220703125</ele>
        <time>2026-09-01T10:48:02.000Z</time>
        <extensions>
          <ns3:TrackPointExtension>
            <ns3:hr>174</ns3:hr>
            <ns3:cad>88</ns3:cad>
          </ns3:TrackPointExtension>
        </extensions>
      </trkpt>
      <trkpt lat="47.4585114419460296630859375" lon="9.95960776694118976593017578125">
        <ele>794.20001220703125</ele>
        <time>2026-09-01T10:48:04.000Z</time>
        <extensions>
          <ns3:TrackPointExtension>
            <ns3:hr>173</ns3:hr>
            <ns3:cad>88</ns3:cad>
          </ns3:TrackPointExtension>
        </extensions>
      </trkpt>
      <trkpt lat="47.4583808518946170806884765625" lon="9.9595578946173191070556640625">
        <ele>794.79998779296875</ele>
        <time>2026-09-01T10:48:08.000Z</time>
        <extensions>
          <ns3:TrackPointExtension>
            <ns3:hr>174</ns3:hr>
            <ns3:cad>87</ns3:cad>
          </ns3:TrackPointExtension>
        </extensions>
      </trkpt>
      <trkpt lat="47.45827716775238513946533203125" lon="9.9595146439969539642333984375">
        <ele>795.4000244140625</ele>
        <time>2026-09-01T10:48:11.000Z</time>
        <extensions>
          <ns3:TrackPointExtension>
            <ns3:hr>174</ns3:hr>
            <ns3:cad>85</ns3:cad>
          </ns3:TrackPointExtension>
        </extensions>
      </trkpt>
      <trkpt lat="47.4581652693450450897216796875" lon="9.95951254852116107940673828125">
        <ele>795.20001220703125</ele>
        <time>2026-09-01T10:48:14.000Z</time>
        <extensions>
          <ns3:TrackPointExtension>
            <ns3:hr>174</ns3:hr>
            <ns3:cad>85</ns3:cad>
          </ns3:TrackPointExtension>
        </extensions>
      </trkpt>
      <trkpt lat="47.458026297390460968017578125" lon="9.95950953103601932525634765625">
        <ele>795.20001220703125</ele>
        <time>2026-09-01T10:48:18.000Z</time>
        <extensions>
          <ns3:TrackPointExtension>
            <ns3:hr>173</ns3:hr>
            <ns3:cad>86</ns3:cad>
          </ns3:TrackPointExtension>
        </extensions>
      </trkpt>
      <trkpt lat="47.4578960426151752471923828125" lon="9.9595827050507068634033203125">
        <ele>795.20001220703125</ele>
        <time>2026-09-01T10:48:22.000Z</time>
        <extensions>
          <ns3:TrackPointExtension>
            <ns3:hr>171</ns3:hr>
            <ns3:cad>86</ns3:cad>
          </ns3:TrackPointExtension>
        </extensions>
      </trkpt>
      <trkpt lat="47.4578195996582508087158203125" lon="9.959646575152873992919921875">
        <ele>795.4000244140625</ele>
        <time>2026-09-01T10:48:26.000Z</time>
        <extensions>
          <ns3:TrackPointExtension>
            <ns3:hr>171</ns3:hr>
            <ns3:cad>85</ns3:cad>
          </ns3:TrackPointExtension>
        </extensions>
      </trkpt>
      <trkpt lat="47.45781683363020420074462890625" lon="9.95964355766773223876953125">
        <ele>795.4000244140625</ele>
        <time>2026-09-01T10:48:27.000Z</time>
        <extensions>
          <ns3:TrackPointExtension>
            <ns3:hr>171</ns3:hr>
            <ns3:cad>85</ns3:cad>
          </ns3:TrackPointExtension>
        </extensions>
      </trkpt>
    </trkseg>
  </trk>
</gpx>
